<?xml version="1.0" encoding="UTF-8" standalone="no" ?>
<gpx xmlns="http://www.topografix.com/GPX/1/1" xmlns:xsi="http://www.w3.org/2001/XMLSchema-instance" xsi:schemaLocation="http://www.topografix.com/GPX/1/1 http://www.topografix.com/GPX/1/1/gpx.xsd" version="1.1" creator="VisuGPX - https://www.visugpx.com">
  <metadata>
    <name>UT4M 100</name>
  </metadata>
  <trk>
    <name><![CDATA[Ultra Tour des 4 Massifs 2022  Ut4M 100 Master sur TraceDeTrail.fr]]></name>
    <extensions>
      <line xmlns="http://www.topografix.com/GPX/gpx_style/0/2">
        <color>0000FF</color>
        <width>4</width>
      </line>
    </extensions>
    <trkseg>
      <trkpt lat="45.14214" lon="5.82931">
        <ele>410</ele>
        <time>2000-01-01T02:06:46.000Z</time>
      </trkpt>
      <trkpt lat="45.142" lon="5.82923">
        <ele>411.1</ele>
        <time>2000-01-01T02:06:56.000Z</time>
      </trkpt>
      <trkpt lat="45.14166" lon="5.82911">
        <ele>410</ele>
        <time>2000-01-01T02:07:06.000Z</time>
      </trkpt>
      <trkpt lat="45.14137" lon="5.82898">
        <ele>410</ele>
        <time>2000-01-01T02:07:16.000Z</time>
      </trkpt>
      <trkpt lat="45.14113" lon="5.82888">
        <ele>410</ele>
        <time>2000-01-01T02:07:26.000Z</time>
      </trkpt>
      <trkpt lat="45.14085" lon="5.82876">
        <ele>410</ele>
        <time>2000-01-01T02:07:36.000Z</time>
      </trkpt>
      <trkpt lat="45.14064" lon="5.82869">
        <ele>410</ele>
        <time>2000-01-01T02:07:46.000Z</time>
      </trkpt>
      <trkpt lat="45.14047" lon="5.82868">
        <ele>410</ele>
        <time>2000-01-01T02:07:56.000Z</time>
      </trkpt>
      <trkpt lat="45.1403" lon="5.82875">
        <ele>410</ele>
        <time>2000-01-01T02:08:06.000Z</time>
      </trkpt>
      <trkpt lat="45.13993" lon="5.82885">
        <ele>410</ele>
        <time>2000-01-01T02:08:16.000Z</time>
      </trkpt>
      <trkpt lat="45.13973" lon="5.82894">
        <ele>411</ele>
        <time>2000-01-01T02:08:26.000Z</time>
      </trkpt>
      <trkpt lat="45.1396" lon="5.82901">
        <ele>413.4</ele>
        <time>2000-01-01T02:08:36.000Z</time>
      </trkpt>
      <trkpt lat="45.13946" lon="5.82906">
        <ele>415</ele>
        <time>2000-01-01T02:08:46.000Z</time>
      </trkpt>
      <trkpt lat="45.13937" lon="5.82901">
        <ele>417.6</ele>
        <time>2000-01-01T02:08:56.000Z</time>
      </trkpt>
      <trkpt lat="45.1393" lon="5.82886">
        <ele>415</ele>
        <time>2000-01-01T02:09:06.000Z</time>
      </trkpt>
      <trkpt lat="45.13925" lon="5.82867">
        <ele>419.3</ele>
        <time>2000-01-01T02:09:16.000Z</time>
      </trkpt>
      <trkpt lat="45.13928" lon="5.82838">
        <ele>414</ele>
        <time>2000-01-01T02:09:26.000Z</time>
      </trkpt>
      <trkpt lat="45.13928" lon="5.82827">
        <ele>414.9</ele>
        <time>2000-01-01T02:09:36.000Z</time>
      </trkpt>
      <trkpt lat="45.13924" lon="5.82818">
        <ele>414.6</ele>
        <time>2000-01-01T02:09:46.000Z</time>
      </trkpt>
      <trkpt lat="45.13915" lon="5.82805">
        <ele>414</ele>
        <time>2000-01-01T02:09:56.000Z</time>
      </trkpt>
      <trkpt lat="45.13903" lon="5.82795">
        <ele>415.3</ele>
        <time>2000-01-01T02:10:06.000Z</time>
      </trkpt>
      <trkpt lat="45.13888" lon="5.82785">
        <ele>415</ele>
        <time>2000-01-01T02:10:16.000Z</time>
      </trkpt>
      <trkpt lat="45.13867" lon="5.82773">
        <ele>415</ele>
        <time>2000-01-01T02:10:26.000Z</time>
      </trkpt>
      <trkpt lat="45.13846" lon="5.82757">
        <ele>416</ele>
        <time>2000-01-01T02:10:36.000Z</time>
      </trkpt>
      <trkpt lat="45.13825" lon="5.82741">
        <ele>415</ele>
        <time>2000-01-01T02:10:46.000Z</time>
      </trkpt>
      <trkpt lat="45.13813" lon="5.82735">
        <ele>417.6</ele>
        <time>2000-01-01T02:10:56.000Z</time>
      </trkpt>
      <trkpt lat="45.13802" lon="5.82727">
        <ele>415</ele>
        <time>2000-01-01T02:11:06.000Z</time>
      </trkpt>
      <trkpt lat="45.13785" lon="5.82718">
        <ele>417</ele>
        <time>2000-01-01T02:11:16.000Z</time>
      </trkpt>
      <trkpt lat="45.13776" lon="5.82709">
        <ele>415</ele>
        <time>2000-01-01T02:11:26.000Z</time>
      </trkpt>
      <trkpt lat="45.13767" lon="5.82693">
        <ele>415.3</ele>
        <time>2000-01-01T02:11:36.000Z</time>
      </trkpt>
      <trkpt lat="45.13754" lon="5.82677">
        <ele>415</ele>
        <time>2000-01-01T02:11:46.000Z</time>
      </trkpt>
      <trkpt lat="45.13749" lon="5.82676">
        <ele>414.7</ele>
        <time>2000-01-01T02:11:56.000Z</time>
      </trkpt>
      <trkpt lat="45.1374" lon="5.8269">
        <ele>416</ele>
        <time>2000-01-01T02:12:06.000Z</time>
      </trkpt>
      <trkpt lat="45.13728" lon="5.82706">
        <ele>416</ele>
        <time>2000-01-01T02:12:16.000Z</time>
      </trkpt>
      <trkpt lat="45.13726" lon="5.82707">
        <ele>418.2</ele>
        <time>2000-01-01T02:12:26.000Z</time>
      </trkpt>
      <trkpt lat="45.13716" lon="5.82716">
        <ele>419.6</ele>
        <time>2000-01-01T02:12:36.000Z</time>
      </trkpt>
      <trkpt lat="45.13703" lon="5.82726">
        <ele>419</ele>
        <time>2000-01-01T02:12:46.000Z</time>
      </trkpt>
      <trkpt lat="45.13696" lon="5.82734">
        <ele>422.6</ele>
        <time>2000-01-01T02:12:56.000Z</time>
      </trkpt>
      <trkpt lat="45.13689" lon="5.82744">
        <ele>425.2</ele>
        <time>2000-01-01T02:13:06.000Z</time>
      </trkpt>
      <trkpt lat="45.13681" lon="5.8275">
        <ele>425</ele>
        <time>2000-01-01T02:13:16.000Z</time>
      </trkpt>
      <trkpt lat="45.13675" lon="5.82762">
        <ele>429.6</ele>
        <time>2000-01-01T02:13:26.000Z</time>
      </trkpt>
      <trkpt lat="45.13675" lon="5.8277">
        <ele>430.4</ele>
        <time>2000-01-01T02:13:36.000Z</time>
      </trkpt>
      <trkpt lat="45.13673" lon="5.82775">
        <ele>430</ele>
        <time>2000-01-01T02:13:46.000Z</time>
      </trkpt>
      <trkpt lat="45.13667" lon="5.82778">
        <ele>432</ele>
        <time>2000-01-01T02:13:56.000Z</time>
      </trkpt>
      <trkpt lat="45.13664" lon="5.82785">
        <ele>433.4</ele>
        <time>2000-01-01T02:14:06.000Z</time>
      </trkpt>
      <trkpt lat="45.13649" lon="5.82802">
        <ele>438</ele>
        <time>2000-01-01T02:14:16.000Z</time>
      </trkpt>
      <trkpt lat="45.13642" lon="5.8282">
        <ele>438.2</ele>
        <time>2000-01-01T02:14:26.000Z</time>
      </trkpt>
      <trkpt lat="45.13637" lon="5.82826">
        <ele>439</ele>
        <time>2000-01-01T02:14:36.000Z</time>
      </trkpt>
      <trkpt lat="45.13634" lon="5.82832">
        <ele>438.8</ele>
        <time>2000-01-01T02:14:46.000Z</time>
      </trkpt>
      <trkpt lat="45.13632" lon="5.82833">
        <ele>439</ele>
        <time>2000-01-01T02:14:56.000Z</time>
      </trkpt>
      <trkpt lat="45.13629" lon="5.82839">
        <ele>439.6</ele>
        <time>2000-01-01T02:15:06.000Z</time>
      </trkpt>
      <trkpt lat="45.13627" lon="5.82847">
        <ele>440.1</ele>
        <time>2000-01-01T02:15:16.000Z</time>
      </trkpt>
      <trkpt lat="45.1362" lon="5.82858">
        <ele>440</ele>
        <time>2000-01-01T02:15:26.000Z</time>
      </trkpt>
      <trkpt lat="45.13617" lon="5.8286">
        <ele>440.8</ele>
        <time>2000-01-01T02:15:36.000Z</time>
      </trkpt>
      <trkpt lat="45.13615" lon="5.82872">
        <ele>441.4</ele>
        <time>2000-01-01T02:15:46.000Z</time>
      </trkpt>
      <trkpt lat="45.13614" lon="5.82874">
        <ele>441.5</ele>
        <time>2000-01-01T02:15:56.000Z</time>
      </trkpt>
      <trkpt lat="45.13605" lon="5.82883">
        <ele>441</ele>
        <time>2000-01-01T02:16:06.000Z</time>
      </trkpt>
      <trkpt lat="45.13601" lon="5.82889">
        <ele>442.7</ele>
        <time>2000-01-01T02:16:16.000Z</time>
      </trkpt>
      <trkpt lat="45.13598" lon="5.82897">
        <ele>443.7</ele>
        <time>2000-01-01T02:16:26.000Z</time>
      </trkpt>
      <trkpt lat="45.13593" lon="5.82903">
        <ele>444.5</ele>
        <time>2000-01-01T02:16:36.000Z</time>
      </trkpt>
      <trkpt lat="45.13588" lon="5.82914">
        <ele>445</ele>
        <time>2000-01-01T02:16:46.000Z</time>
      </trkpt>
      <trkpt lat="45.13583" lon="5.82921">
        <ele>446.7</ele>
        <time>2000-01-01T02:16:56.000Z</time>
      </trkpt>
      <trkpt lat="45.13578" lon="5.82932">
        <ele>448.9</ele>
        <time>2000-01-01T02:17:06.000Z</time>
      </trkpt>
      <trkpt lat="45.13576" lon="5.82939">
        <ele>448</ele>
        <time>2000-01-01T02:17:16.000Z</time>
      </trkpt>
      <trkpt lat="45.13575" lon="5.82946">
        <ele>451.2</ele>
        <time>2000-01-01T02:17:26.000Z</time>
      </trkpt>
      <trkpt lat="45.13571" lon="5.82959">
        <ele>453.7</ele>
        <time>2000-01-01T02:17:36.000Z</time>
      </trkpt>
      <trkpt lat="45.13567" lon="5.82966">
        <ele>454</ele>
        <time>2000-01-01T02:17:46.000Z</time>
      </trkpt>
      <trkpt lat="45.13555" lon="5.83">
        <ele>461</ele>
        <time>2000-01-01T02:17:56.000Z</time>
      </trkpt>
      <trkpt lat="45.13556" lon="5.83004">
        <ele>461.5</ele>
        <time>2000-01-01T02:18:06.000Z</time>
      </trkpt>
      <trkpt lat="45.13555" lon="5.83014">
        <ele>463.1</ele>
        <time>2000-01-01T02:18:16.000Z</time>
      </trkpt>
      <trkpt lat="45.13552" lon="5.83022">
        <ele>464.7</ele>
        <time>2000-01-01T02:18:26.000Z</time>
      </trkpt>
      <trkpt lat="45.13547" lon="5.83032">
        <ele>466</ele>
        <time>2000-01-01T02:18:36.000Z</time>
      </trkpt>
      <trkpt lat="45.13544" lon="5.83044">
        <ele>467.8</ele>
        <time>2000-01-01T02:18:46.000Z</time>
      </trkpt>
      <trkpt lat="45.13536" lon="5.83053">
        <ele>470</ele>
        <time>2000-01-01T02:18:56.000Z</time>
      </trkpt>
      <trkpt lat="45.13532" lon="5.83065">
        <ele>471.1</ele>
        <time>2000-01-01T02:19:06.000Z</time>
      </trkpt>
      <trkpt lat="45.13529" lon="5.83071">
        <ele>472</ele>
        <time>2000-01-01T02:19:16.000Z</time>
      </trkpt>
      <trkpt lat="45.13524" lon="5.83085">
        <ele>474</ele>
        <time>2000-01-01T02:19:26.000Z</time>
      </trkpt>
      <trkpt lat="45.13522" lon="5.83095">
        <ele>474.9</ele>
        <time>2000-01-01T02:19:36.000Z</time>
      </trkpt>
      <trkpt lat="45.1352" lon="5.831">
        <ele>475.6</ele>
        <time>2000-01-01T02:19:46.000Z</time>
      </trkpt>
      <trkpt lat="45.13512" lon="5.83127">
        <ele>478</ele>
        <time>2000-01-01T02:19:56.000Z</time>
      </trkpt>
      <trkpt lat="45.13512" lon="5.83129">
        <ele>479.3</ele>
        <time>2000-01-01T02:20:06.000Z</time>
      </trkpt>
      <trkpt lat="45.13524" lon="5.83145">
        <ele>479.9</ele>
        <time>2000-01-01T02:20:16.000Z</time>
      </trkpt>
      <trkpt lat="45.13528" lon="5.83155">
        <ele>480</ele>
        <time>2000-01-01T02:20:26.000Z</time>
      </trkpt>
      <trkpt lat="45.13528" lon="5.83158">
        <ele>481.1</ele>
        <time>2000-01-01T02:20:36.000Z</time>
      </trkpt>
      <trkpt lat="45.13525" lon="5.83166">
        <ele>482</ele>
        <time>2000-01-01T02:20:46.000Z</time>
      </trkpt>
      <trkpt lat="45.13515" lon="5.83187">
        <ele>483</ele>
        <time>2000-01-01T02:20:56.000Z</time>
      </trkpt>
      <trkpt lat="45.1351" lon="5.83201">
        <ele>486.2</ele>
        <time>2000-01-01T02:21:06.000Z</time>
      </trkpt>
      <trkpt lat="45.13509" lon="5.83211">
        <ele>487.1</ele>
        <time>2000-01-01T02:21:16.000Z</time>
      </trkpt>
      <trkpt lat="45.13508" lon="5.83213">
        <ele>486</ele>
        <time>2000-01-01T02:21:26.000Z</time>
      </trkpt>
      <trkpt lat="45.13508" lon="5.83221">
        <ele>487.9</ele>
        <time>2000-01-01T02:21:36.000Z</time>
      </trkpt>
      <trkpt lat="45.13509" lon="5.83236">
        <ele>489.6</ele>
        <time>2000-01-01T02:21:46.000Z</time>
      </trkpt>
      <trkpt lat="45.13511" lon="5.83245">
        <ele>489</ele>
        <time>2000-01-01T02:21:56.000Z</time>
      </trkpt>
      <trkpt lat="45.13512" lon="5.83265">
        <ele>493.1</ele>
        <time>2000-01-01T02:22:06.000Z</time>
      </trkpt>
      <trkpt lat="45.13514" lon="5.83276">
        <ele>493</ele>
        <time>2000-01-01T02:22:16.000Z</time>
      </trkpt>
      <trkpt lat="45.13518" lon="5.83292">
        <ele>496.5</ele>
        <time>2000-01-01T02:22:26.000Z</time>
      </trkpt>
      <trkpt lat="45.13516" lon="5.83309">
        <ele>497</ele>
        <time>2000-01-01T02:22:36.000Z</time>
      </trkpt>
      <trkpt lat="45.13518" lon="5.83318">
        <ele>500.5</ele>
        <time>2000-01-01T02:22:46.000Z</time>
      </trkpt>
      <trkpt lat="45.1352" lon="5.83331">
        <ele>503</ele>
        <time>2000-01-01T02:22:56.000Z</time>
      </trkpt>
      <trkpt lat="45.13519" lon="5.83333">
        <ele>503.3</ele>
        <time>2000-01-01T02:23:06.000Z</time>
      </trkpt>
      <trkpt lat="45.13513" lon="5.83336">
        <ele>498</ele>
        <time>2000-01-01T02:23:16.000Z</time>
      </trkpt>
      <trkpt lat="45.13501" lon="5.83333">
        <ele>502</ele>
        <time>2000-01-01T02:23:26.000Z</time>
      </trkpt>
      <trkpt lat="45.13491" lon="5.83332">
        <ele>498</ele>
        <time>2000-01-01T02:23:36.000Z</time>
      </trkpt>
      <trkpt lat="45.13484" lon="5.83328">
        <ele>500</ele>
        <time>2000-01-01T02:23:46.000Z</time>
      </trkpt>
      <trkpt lat="45.13453" lon="5.83319">
        <ele>499</ele>
        <time>2000-01-01T02:23:56.000Z</time>
      </trkpt>
      <trkpt lat="45.13441" lon="5.83312">
        <ele>501.1</ele>
        <time>2000-01-01T02:24:06.000Z</time>
      </trkpt>
      <trkpt lat="45.13435" lon="5.83301">
        <ele>501</ele>
        <time>2000-01-01T02:24:16.000Z</time>
      </trkpt>
      <trkpt lat="45.13427" lon="5.83293">
        <ele>502.2</ele>
        <time>2000-01-01T02:24:26.000Z</time>
      </trkpt>
      <trkpt lat="45.13426" lon="5.83299">
        <ele>502.8</ele>
        <time>2000-01-01T02:24:36.000Z</time>
      </trkpt>
      <trkpt lat="45.13424" lon="5.833">
        <ele>503.3</ele>
        <time>2000-01-01T02:24:46.000Z</time>
      </trkpt>
      <trkpt lat="45.1342" lon="5.83306">
        <ele>505</ele>
        <time>2000-01-01T02:24:56.000Z</time>
      </trkpt>
      <trkpt lat="45.13416" lon="5.83316">
        <ele>505.5</ele>
        <time>2000-01-01T02:25:06.000Z</time>
      </trkpt>
      <trkpt lat="45.13412" lon="5.83322">
        <ele>506.4</ele>
        <time>2000-01-01T02:25:16.000Z</time>
      </trkpt>
      <trkpt lat="45.13408" lon="5.83333">
        <ele>508</ele>
        <time>2000-01-01T02:25:26.000Z</time>
      </trkpt>
      <trkpt lat="45.13403" lon="5.83342">
        <ele>508.5</ele>
        <time>2000-01-01T02:25:36.000Z</time>
      </trkpt>
      <trkpt lat="45.13396" lon="5.8335">
        <ele>509.7</ele>
        <time>2000-01-01T02:25:46.000Z</time>
      </trkpt>
      <trkpt lat="45.13374" lon="5.83381">
        <ele>512</ele>
        <time>2000-01-01T02:25:56.000Z</time>
      </trkpt>
      <trkpt lat="45.1335" lon="5.83403">
        <ele>514</ele>
        <time>2000-01-01T02:26:06.000Z</time>
      </trkpt>
      <trkpt lat="45.13338" lon="5.83411">
        <ele>514.8</ele>
        <time>2000-01-01T02:26:16.000Z</time>
      </trkpt>
      <trkpt lat="45.13321" lon="5.83425">
        <ele>517</ele>
        <time>2000-01-01T02:26:26.000Z</time>
      </trkpt>
      <trkpt lat="45.13312" lon="5.83435">
        <ele>518.2</ele>
        <time>2000-01-01T02:26:36.000Z</time>
      </trkpt>
      <trkpt lat="45.13288" lon="5.83457">
        <ele>523</ele>
        <time>2000-01-01T02:26:46.000Z</time>
      </trkpt>
      <trkpt lat="45.13282" lon="5.83465">
        <ele>523.9</ele>
        <time>2000-01-01T02:26:56.000Z</time>
      </trkpt>
      <trkpt lat="45.13265" lon="5.83481">
        <ele>528</ele>
        <time>2000-01-01T02:27:06.000Z</time>
      </trkpt>
      <trkpt lat="45.13241" lon="5.83497">
        <ele>532</ele>
        <time>2000-01-01T02:27:16.000Z</time>
      </trkpt>
      <trkpt lat="45.1323" lon="5.83506">
        <ele>535.4</ele>
        <time>2000-01-01T02:27:26.000Z</time>
      </trkpt>
      <trkpt lat="45.13224" lon="5.83513">
        <ele>536</ele>
        <time>2000-01-01T02:27:36.000Z</time>
      </trkpt>
      <trkpt lat="45.13216" lon="5.83524">
        <ele>538.7</ele>
        <time>2000-01-01T02:27:46.000Z</time>
      </trkpt>
      <trkpt lat="45.13206" lon="5.83532">
        <ele>541</ele>
        <time>2000-01-01T02:27:56.000Z</time>
      </trkpt>
      <trkpt lat="45.13192" lon="5.8354">
        <ele>542.8</ele>
        <time>2000-01-01T02:28:06.000Z</time>
      </trkpt>
      <trkpt lat="45.13172" lon="5.8355">
        <ele>545</ele>
        <time>2000-01-01T02:28:16.000Z</time>
      </trkpt>
      <trkpt lat="45.13163" lon="5.83553">
        <ele>546.5</ele>
        <time>2000-01-01T02:28:26.000Z</time>
      </trkpt>
      <trkpt lat="45.13157" lon="5.83557">
        <ele>547.5</ele>
        <time>2000-01-01T02:28:36.000Z</time>
      </trkpt>
      <trkpt lat="45.13148" lon="5.83566">
        <ele>549</ele>
        <time>2000-01-01T02:28:46.000Z</time>
      </trkpt>
      <trkpt lat="45.13137" lon="5.83598">
        <ele>551</ele>
        <time>2000-01-01T02:28:56.000Z</time>
      </trkpt>
      <trkpt lat="45.13127" lon="5.83614">
        <ele>553.6</ele>
        <time>2000-01-01T02:29:06.000Z</time>
      </trkpt>
      <trkpt lat="45.13116" lon="5.83638">
        <ele>557</ele>
        <time>2000-01-01T02:29:16.000Z</time>
      </trkpt>
      <trkpt lat="45.13111" lon="5.83646">
        <ele>558.8</ele>
        <time>2000-01-01T02:29:26.000Z</time>
      </trkpt>
      <trkpt lat="45.13103" lon="5.83656">
        <ele>561</ele>
        <time>2000-01-01T02:29:36.000Z</time>
      </trkpt>
      <trkpt lat="45.13098" lon="5.83664">
        <ele>563</ele>
        <time>2000-01-01T02:29:46.000Z</time>
      </trkpt>
      <trkpt lat="45.13092" lon="5.8367">
        <ele>564.1</ele>
        <time>2000-01-01T02:29:56.000Z</time>
      </trkpt>
      <trkpt lat="45.13086" lon="5.83681">
        <ele>566.2</ele>
        <time>2000-01-01T02:30:06.000Z</time>
      </trkpt>
      <trkpt lat="45.13073" lon="5.83698">
        <ele>569</ele>
        <time>2000-01-01T02:30:16.000Z</time>
      </trkpt>
      <trkpt lat="45.13064" lon="5.83715">
        <ele>573.2</ele>
        <time>2000-01-01T02:30:26.000Z</time>
      </trkpt>
      <trkpt lat="45.13064" lon="5.83729">
        <ele>574</ele>
        <time>2000-01-01T02:30:36.000Z</time>
      </trkpt>
      <trkpt lat="45.13066" lon="5.83745">
        <ele>576.6</ele>
        <time>2000-01-01T02:30:46.000Z</time>
      </trkpt>
      <trkpt lat="45.13067" lon="5.83774">
        <ele>580</ele>
        <time>2000-01-01T02:30:56.000Z</time>
      </trkpt>
      <trkpt lat="45.13066" lon="5.83776">
        <ele>580.1</ele>
        <time>2000-01-01T02:31:06.000Z</time>
      </trkpt>
      <trkpt lat="45.13061" lon="5.8378">
        <ele>580.9</ele>
        <time>2000-01-01T02:31:16.000Z</time>
      </trkpt>
      <trkpt lat="45.13055" lon="5.8379">
        <ele>582.8</ele>
        <time>2000-01-01T02:31:26.000Z</time>
      </trkpt>
      <trkpt lat="45.13056" lon="5.8381">
        <ele>584</ele>
        <time>2000-01-01T02:31:36.000Z</time>
      </trkpt>
      <trkpt lat="45.13058" lon="5.83824">
        <ele>587</ele>
        <time>2000-01-01T02:31:46.000Z</time>
      </trkpt>
      <trkpt lat="45.13056" lon="5.83831">
        <ele>587.7</ele>
        <time>2000-01-01T02:31:56.000Z</time>
      </trkpt>
      <trkpt lat="45.13055" lon="5.83837">
        <ele>588</ele>
        <time>2000-01-01T02:32:06.000Z</time>
      </trkpt>
      <trkpt lat="45.13051" lon="5.83849">
        <ele>590.5</ele>
        <time>2000-01-01T02:32:16.000Z</time>
      </trkpt>
      <trkpt lat="45.13049" lon="5.83849">
        <ele>590.6</ele>
        <time>2000-01-01T02:32:26.000Z</time>
      </trkpt>
      <trkpt lat="45.13048" lon="5.83854">
        <ele>591.3</ele>
        <time>2000-01-01T02:32:36.000Z</time>
      </trkpt>
      <trkpt lat="45.13045" lon="5.83861">
        <ele>592</ele>
        <time>2000-01-01T02:32:46.000Z</time>
      </trkpt>
      <trkpt lat="45.13027" lon="5.83893">
        <ele>598</ele>
        <time>2000-01-01T02:32:56.000Z</time>
      </trkpt>
      <trkpt lat="45.13028" lon="5.83901">
        <ele>600.6</ele>
        <time>2000-01-01T02:33:06.000Z</time>
      </trkpt>
      <trkpt lat="45.13027" lon="5.83911">
        <ele>602.8</ele>
        <time>2000-01-01T02:33:16.000Z</time>
      </trkpt>
      <trkpt lat="45.13022" lon="5.83915">
        <ele>604.1</ele>
        <time>2000-01-01T02:33:26.000Z</time>
      </trkpt>
      <trkpt lat="45.1302" lon="5.83922">
        <ele>605</ele>
        <time>2000-01-01T02:33:36.000Z</time>
      </trkpt>
      <trkpt lat="45.13017" lon="5.83925">
        <ele>606.8</ele>
        <time>2000-01-01T02:33:46.000Z</time>
      </trkpt>
      <trkpt lat="45.13016" lon="5.83928">
        <ele>607.5</ele>
        <time>2000-01-01T02:33:56.000Z</time>
      </trkpt>
      <trkpt lat="45.13012" lon="5.83933">
        <ele>608.9</ele>
        <time>2000-01-01T02:34:06.000Z</time>
      </trkpt>
      <trkpt lat="45.13003" lon="5.83954">
        <ele>613</ele>
        <time>2000-01-01T02:34:16.000Z</time>
      </trkpt>
      <trkpt lat="45.13002" lon="5.83955">
        <ele>614.6</ele>
        <time>2000-01-01T02:34:26.000Z</time>
      </trkpt>
      <trkpt lat="45.13002" lon="5.83964">
        <ele>616.9</ele>
        <time>2000-01-01T02:34:36.000Z</time>
      </trkpt>
      <trkpt lat="45.12994" lon="5.83971">
        <ele>619.3</ele>
        <time>2000-01-01T02:34:46.000Z</time>
      </trkpt>
      <trkpt lat="45.12992" lon="5.83971">
        <ele>619.6</ele>
        <time>2000-01-01T02:34:56.000Z</time>
      </trkpt>
      <trkpt lat="45.12989" lon="5.83975">
        <ele>620</ele>
        <time>2000-01-01T02:35:06.000Z</time>
      </trkpt>
      <trkpt lat="45.12982" lon="5.8398">
        <ele>623.3</ele>
        <time>2000-01-01T02:35:16.000Z</time>
      </trkpt>
      <trkpt lat="45.12976" lon="5.83983">
        <ele>624.7</ele>
        <time>2000-01-01T02:35:26.000Z</time>
      </trkpt>
      <trkpt lat="45.12973" lon="5.83986">
        <ele>625.9</ele>
        <time>2000-01-01T02:35:36.000Z</time>
      </trkpt>
      <trkpt lat="45.12967" lon="5.8399">
        <ele>627</ele>
        <time>2000-01-01T02:35:46.000Z</time>
      </trkpt>
      <trkpt lat="45.12957" lon="5.83995">
        <ele>629.2</ele>
        <time>2000-01-01T02:35:56.000Z</time>
      </trkpt>
      <trkpt lat="45.12954" lon="5.83994">
        <ele>629.1</ele>
        <time>2000-01-01T02:36:06.000Z</time>
      </trkpt>
      <trkpt lat="45.12937" lon="5.84003">
        <ele>631</ele>
        <time>2000-01-01T02:36:16.000Z</time>
      </trkpt>
      <trkpt lat="45.12931" lon="5.84011">
        <ele>634.7</ele>
        <time>2000-01-01T02:36:26.000Z</time>
      </trkpt>
      <trkpt lat="45.1292" lon="5.84022">
        <ele>637</ele>
        <time>2000-01-01T02:36:36.000Z</time>
      </trkpt>
      <trkpt lat="45.12913" lon="5.84044">
        <ele>643.5</ele>
        <time>2000-01-01T02:36:46.000Z</time>
      </trkpt>
      <trkpt lat="45.12911" lon="5.84053">
        <ele>645</ele>
        <time>2000-01-01T02:36:56.000Z</time>
      </trkpt>
      <trkpt lat="45.12903" lon="5.84071">
        <ele>649.9</ele>
        <time>2000-01-01T02:37:06.000Z</time>
      </trkpt>
      <trkpt lat="45.12902" lon="5.84072">
        <ele>650.1</ele>
        <time>2000-01-01T02:37:16.000Z</time>
      </trkpt>
      <trkpt lat="45.12901" lon="5.84079">
        <ele>649</ele>
        <time>2000-01-01T02:37:26.000Z</time>
      </trkpt>
      <trkpt lat="45.12894" lon="5.84092">
        <ele>653.7</ele>
        <time>2000-01-01T02:37:36.000Z</time>
      </trkpt>
      <trkpt lat="45.12893" lon="5.84093">
        <ele>653.7</ele>
        <time>2000-01-01T02:37:46.000Z</time>
      </trkpt>
      <trkpt lat="45.12894" lon="5.84097">
        <ele>654.8</ele>
        <time>2000-01-01T02:37:56.000Z</time>
      </trkpt>
      <trkpt lat="45.12888" lon="5.84106">
        <ele>653</ele>
        <time>2000-01-01T02:38:06.000Z</time>
      </trkpt>
      <trkpt lat="45.12886" lon="5.84108">
        <ele>655.7</ele>
        <time>2000-01-01T02:38:16.000Z</time>
      </trkpt>
      <trkpt lat="45.12885" lon="5.84116">
        <ele>656.8</ele>
        <time>2000-01-01T02:38:26.000Z</time>
      </trkpt>
      <trkpt lat="45.12885" lon="5.84128">
        <ele>658.5</ele>
        <time>2000-01-01T02:38:36.000Z</time>
      </trkpt>
      <trkpt lat="45.12881" lon="5.84136">
        <ele>658</ele>
        <time>2000-01-01T02:38:46.000Z</time>
      </trkpt>
      <trkpt lat="45.12878" lon="5.84138">
        <ele>658.1</ele>
        <time>2000-01-01T02:38:56.000Z</time>
      </trkpt>
      <trkpt lat="45.12878" lon="5.84143">
        <ele>658.8</ele>
        <time>2000-01-01T02:39:06.000Z</time>
      </trkpt>
      <trkpt lat="45.1288" lon="5.84153">
        <ele>660.6</ele>
        <time>2000-01-01T02:39:16.000Z</time>
      </trkpt>
      <trkpt lat="45.12879" lon="5.84158">
        <ele>661</ele>
        <time>2000-01-01T02:39:26.000Z</time>
      </trkpt>
      <trkpt lat="45.12882" lon="5.84166">
        <ele>662</ele>
        <time>2000-01-01T02:39:36.000Z</time>
      </trkpt>
      <trkpt lat="45.12881" lon="5.84167">
        <ele>662.8</ele>
        <time>2000-01-01T02:39:46.000Z</time>
      </trkpt>
      <trkpt lat="45.12885" lon="5.8417">
        <ele>664.2</ele>
        <time>2000-01-01T02:39:56.000Z</time>
      </trkpt>
      <trkpt lat="45.12889" lon="5.84179">
        <ele>666.4</ele>
        <time>2000-01-01T02:40:06.000Z</time>
      </trkpt>
      <trkpt lat="45.12894" lon="5.84184">
        <ele>666</ele>
        <time>2000-01-01T02:40:16.000Z</time>
      </trkpt>
      <trkpt lat="45.12898" lon="5.84196">
        <ele>670.8</ele>
        <time>2000-01-01T02:40:26.000Z</time>
      </trkpt>
      <trkpt lat="45.129" lon="5.842">
        <ele>671.7</ele>
        <time>2000-01-01T02:40:36.000Z</time>
      </trkpt>
      <trkpt lat="45.129" lon="5.84202">
        <ele>671.9</ele>
        <time>2000-01-01T02:40:46.000Z</time>
      </trkpt>
      <trkpt lat="45.12902" lon="5.84206">
        <ele>672.8</ele>
        <time>2000-01-01T02:40:56.000Z</time>
      </trkpt>
      <trkpt lat="45.12901" lon="5.84208">
        <ele>671</ele>
        <time>2000-01-01T02:41:06.000Z</time>
      </trkpt>
      <trkpt lat="45.12905" lon="5.84224">
        <ele>675.4</ele>
        <time>2000-01-01T02:41:16.000Z</time>
      </trkpt>
      <trkpt lat="45.12907" lon="5.84229">
        <ele>676.4</ele>
        <time>2000-01-01T02:41:26.000Z</time>
      </trkpt>
      <trkpt lat="45.12908" lon="5.84239">
        <ele>673</ele>
        <time>2000-01-01T02:41:36.000Z</time>
      </trkpt>
      <trkpt lat="45.12915" lon="5.84257">
        <ele>681.3</ele>
        <time>2000-01-01T02:41:46.000Z</time>
      </trkpt>
      <trkpt lat="45.12916" lon="5.84271">
        <ele>681</ele>
        <time>2000-01-01T02:41:56.000Z</time>
      </trkpt>
      <trkpt lat="45.12921" lon="5.84276">
        <ele>685</ele>
        <time>2000-01-01T02:42:06.000Z</time>
      </trkpt>
      <trkpt lat="45.12923" lon="5.84293">
        <ele>687.6</ele>
        <time>2000-01-01T02:42:16.000Z</time>
      </trkpt>
      <trkpt lat="45.12925" lon="5.84294">
        <ele>685</ele>
        <time>2000-01-01T02:42:26.000Z</time>
      </trkpt>
      <trkpt lat="45.12927" lon="5.84305">
        <ele>690.3</ele>
        <time>2000-01-01T02:42:36.000Z</time>
      </trkpt>
      <trkpt lat="45.12927" lon="5.84312">
        <ele>691.1</ele>
        <time>2000-01-01T02:42:46.000Z</time>
      </trkpt>
      <trkpt lat="45.12926" lon="5.84326">
        <ele>689</ele>
        <time>2000-01-01T02:42:56.000Z</time>
      </trkpt>
      <trkpt lat="45.1293" lon="5.84332">
        <ele>694.6</ele>
        <time>2000-01-01T02:43:06.000Z</time>
      </trkpt>
      <trkpt lat="45.12932" lon="5.84333">
        <ele>695.5</ele>
        <time>2000-01-01T02:43:16.000Z</time>
      </trkpt>
      <trkpt lat="45.12935" lon="5.84337">
        <ele>697.3</ele>
        <time>2000-01-01T02:43:26.000Z</time>
      </trkpt>
      <trkpt lat="45.12936" lon="5.84343">
        <ele>698.8</ele>
        <time>2000-01-01T02:43:36.000Z</time>
      </trkpt>
      <trkpt lat="45.12941" lon="5.84349">
        <ele>700</ele>
        <time>2000-01-01T02:43:46.000Z</time>
      </trkpt>
      <trkpt lat="45.12941" lon="5.8436">
        <ele>704.3</ele>
        <time>2000-01-01T02:43:56.000Z</time>
      </trkpt>
      <trkpt lat="45.12947" lon="5.84382">
        <ele>708</ele>
        <time>2000-01-01T02:44:06.000Z</time>
      </trkpt>
      <trkpt lat="45.1295" lon="5.84389">
        <ele>714</ele>
        <time>2000-01-01T02:44:16.000Z</time>
      </trkpt>
      <trkpt lat="45.12953" lon="5.84392">
        <ele>715.7</ele>
        <time>2000-01-01T02:44:26.000Z</time>
      </trkpt>
      <trkpt lat="45.12954" lon="5.84395">
        <ele>716.6</ele>
        <time>2000-01-01T02:44:36.000Z</time>
      </trkpt>
      <trkpt lat="45.12959" lon="5.84401">
        <ele>719.6</ele>
        <time>2000-01-01T02:44:46.000Z</time>
      </trkpt>
      <trkpt lat="45.12961" lon="5.84407">
        <ele>720</ele>
        <time>2000-01-01T02:44:56.000Z</time>
      </trkpt>
      <trkpt lat="45.1296" lon="5.8442">
        <ele>723.6</ele>
        <time>2000-01-01T02:45:06.000Z</time>
      </trkpt>
      <trkpt lat="45.12967" lon="5.84428">
        <ele>727.6</ele>
        <time>2000-01-01T02:45:16.000Z</time>
      </trkpt>
      <trkpt lat="45.1297" lon="5.84428">
        <ele>727</ele>
        <time>2000-01-01T02:45:26.000Z</time>
      </trkpt>
      <trkpt lat="45.12972" lon="5.84432">
        <ele>730.1</ele>
        <time>2000-01-01T02:45:36.000Z</time>
      </trkpt>
      <trkpt lat="45.12972" lon="5.84442">
        <ele>731.6</ele>
        <time>2000-01-01T02:45:46.000Z</time>
      </trkpt>
      <trkpt lat="45.12973" lon="5.84449">
        <ele>732.9</ele>
        <time>2000-01-01T02:45:56.000Z</time>
      </trkpt>
      <trkpt lat="45.12977" lon="5.84456">
        <ele>732</ele>
        <time>2000-01-01T02:46:06.000Z</time>
      </trkpt>
      <trkpt lat="45.12979" lon="5.84462">
        <ele>736.5</ele>
        <time>2000-01-01T02:46:16.000Z</time>
      </trkpt>
      <trkpt lat="45.12981" lon="5.84464">
        <ele>737.5</ele>
        <time>2000-01-01T02:46:26.000Z</time>
      </trkpt>
      <trkpt lat="45.12983" lon="5.84469">
        <ele>738.9</ele>
        <time>2000-01-01T02:46:36.000Z</time>
      </trkpt>
      <trkpt lat="45.12985" lon="5.84475">
        <ele>740.6</ele>
        <time>2000-01-01T02:46:46.000Z</time>
      </trkpt>
      <trkpt lat="45.12985" lon="5.84477">
        <ele>741</ele>
        <time>2000-01-01T02:46:56.000Z</time>
      </trkpt>
      <trkpt lat="45.12988" lon="5.84483">
        <ele>739</ele>
        <time>2000-01-01T02:47:06.000Z</time>
      </trkpt>
      <trkpt lat="45.12989" lon="5.84489">
        <ele>744.5</ele>
        <time>2000-01-01T02:47:16.000Z</time>
      </trkpt>
      <trkpt lat="45.12992" lon="5.84491">
        <ele>745.8</ele>
        <time>2000-01-01T02:47:26.000Z</time>
      </trkpt>
      <trkpt lat="45.12995" lon="5.84497">
        <ele>747.8</ele>
        <time>2000-01-01T02:47:36.000Z</time>
      </trkpt>
      <trkpt lat="45.12996" lon="5.84521">
        <ele>750</ele>
        <time>2000-01-01T02:47:46.000Z</time>
      </trkpt>
      <trkpt lat="45.13001" lon="5.84531">
        <ele>755.8</ele>
        <time>2000-01-01T02:47:56.000Z</time>
      </trkpt>
      <trkpt lat="45.13001" lon="5.8455">
        <ele>759</ele>
        <time>2000-01-01T02:48:06.000Z</time>
      </trkpt>
      <trkpt lat="45.13003" lon="5.84554">
        <ele>760.3</ele>
        <time>2000-01-01T02:48:16.000Z</time>
      </trkpt>
      <trkpt lat="45.13006" lon="5.84564">
        <ele>762.3</ele>
        <time>2000-01-01T02:48:26.000Z</time>
      </trkpt>
      <trkpt lat="45.13009" lon="5.84585">
        <ele>764</ele>
        <time>2000-01-01T02:48:36.000Z</time>
      </trkpt>
      <trkpt lat="45.13009" lon="5.84591">
        <ele>767</ele>
        <time>2000-01-01T02:48:46.000Z</time>
      </trkpt>
      <trkpt lat="45.1301" lon="5.84594">
        <ele>767.7</ele>
        <time>2000-01-01T02:48:56.000Z</time>
      </trkpt>
      <trkpt lat="45.1301" lon="5.84601">
        <ele>769</ele>
        <time>2000-01-01T02:49:06.000Z</time>
      </trkpt>
      <trkpt lat="45.13008" lon="5.84614">
        <ele>769</ele>
        <time>2000-01-01T02:49:16.000Z</time>
      </trkpt>
      <trkpt lat="45.13008" lon="5.84627">
        <ele>773.1</ele>
        <time>2000-01-01T02:49:26.000Z</time>
      </trkpt>
      <trkpt lat="45.13009" lon="5.84632">
        <ele>774.1</ele>
        <time>2000-01-01T02:49:36.000Z</time>
      </trkpt>
      <trkpt lat="45.13007" lon="5.84651">
        <ele>775</ele>
        <time>2000-01-01T02:49:46.000Z</time>
      </trkpt>
      <trkpt lat="45.13008" lon="5.84655">
        <ele>777.6</ele>
        <time>2000-01-01T02:49:56.000Z</time>
      </trkpt>
      <trkpt lat="45.13004" lon="5.84665">
        <ele>778.5</ele>
        <time>2000-01-01T02:50:06.000Z</time>
      </trkpt>
      <trkpt lat="45.13002" lon="5.84672">
        <ele>779.5</ele>
        <time>2000-01-01T02:50:16.000Z</time>
      </trkpt>
      <trkpt lat="45.13004" lon="5.84676">
        <ele>779</ele>
        <time>2000-01-01T02:50:26.000Z</time>
      </trkpt>
      <trkpt lat="45.13004" lon="5.84679">
        <ele>781.4</ele>
        <time>2000-01-01T02:50:36.000Z</time>
      </trkpt>
      <trkpt lat="45.13008" lon="5.84685">
        <ele>783.4</ele>
        <time>2000-01-01T02:50:46.000Z</time>
      </trkpt>
      <trkpt lat="45.13008" lon="5.84688">
        <ele>784</ele>
        <time>2000-01-01T02:50:56.000Z</time>
      </trkpt>
      <trkpt lat="45.13002" lon="5.84699">
        <ele>783</ele>
        <time>2000-01-01T02:51:06.000Z</time>
      </trkpt>
      <trkpt lat="45.13003" lon="5.84709">
        <ele>787.7</ele>
        <time>2000-01-01T02:51:16.000Z</time>
      </trkpt>
      <trkpt lat="45.13002" lon="5.84725">
        <ele>791</ele>
        <time>2000-01-01T02:51:26.000Z</time>
      </trkpt>
      <trkpt lat="45.13003" lon="5.84727">
        <ele>789</ele>
        <time>2000-01-01T02:51:36.000Z</time>
      </trkpt>
      <trkpt lat="45.12999" lon="5.84734">
        <ele>792.1</ele>
        <time>2000-01-01T02:51:46.000Z</time>
      </trkpt>
      <trkpt lat="45.12999" lon="5.84737">
        <ele>792.7</ele>
        <time>2000-01-01T02:51:56.000Z</time>
      </trkpt>
      <trkpt lat="45.12995" lon="5.84742">
        <ele>791.9</ele>
        <time>2000-01-01T02:52:06.000Z</time>
      </trkpt>
      <trkpt lat="45.12993" lon="5.84749">
        <ele>789</ele>
        <time>2000-01-01T02:52:16.000Z</time>
      </trkpt>
      <trkpt lat="45.12994" lon="5.84759">
        <ele>795.1</ele>
        <time>2000-01-01T02:52:26.000Z</time>
      </trkpt>
      <trkpt lat="45.12996" lon="5.84768">
        <ele>798</ele>
        <time>2000-01-01T02:52:36.000Z</time>
      </trkpt>
      <trkpt lat="45.12999" lon="5.84774">
        <ele>800.7</ele>
        <time>2000-01-01T02:52:46.000Z</time>
      </trkpt>
      <trkpt lat="45.12999" lon="5.84781">
        <ele>797</ele>
        <time>2000-01-01T02:52:56.000Z</time>
      </trkpt>
      <trkpt lat="45.12997" lon="5.8479">
        <ele>803.7</ele>
        <time>2000-01-01T02:53:06.000Z</time>
      </trkpt>
      <trkpt lat="45.12997" lon="5.84801">
        <ele>806.4</ele>
        <time>2000-01-01T02:53:16.000Z</time>
      </trkpt>
      <trkpt lat="45.12999" lon="5.84816">
        <ele>805</ele>
        <time>2000-01-01T02:53:26.000Z</time>
      </trkpt>
      <trkpt lat="45.12998" lon="5.84823">
        <ele>812.5</ele>
        <time>2000-01-01T02:53:36.000Z</time>
      </trkpt>
      <trkpt lat="45.12998" lon="5.84827">
        <ele>813.5</ele>
        <time>2000-01-01T02:53:46.000Z</time>
      </trkpt>
      <trkpt lat="45.12993" lon="5.84837">
        <ele>813.5</ele>
        <time>2000-01-01T02:53:56.000Z</time>
      </trkpt>
      <trkpt lat="45.12988" lon="5.84851">
        <ele>810</ele>
        <time>2000-01-01T02:54:06.000Z</time>
      </trkpt>
      <trkpt lat="45.12988" lon="5.84853">
        <ele>814.9</ele>
        <time>2000-01-01T02:54:16.000Z</time>
      </trkpt>
      <trkpt lat="45.12986" lon="5.84856">
        <ele>814.8</ele>
        <time>2000-01-01T02:54:26.000Z</time>
      </trkpt>
      <trkpt lat="45.12986" lon="5.84858">
        <ele>815.2</ele>
        <time>2000-01-01T02:54:36.000Z</time>
      </trkpt>
      <trkpt lat="45.1299" lon="5.84868">
        <ele>819.4</ele>
        <time>2000-01-01T02:54:46.000Z</time>
      </trkpt>
      <trkpt lat="45.1299" lon="5.84873">
        <ele>820.7</ele>
        <time>2000-01-01T02:54:56.000Z</time>
      </trkpt>
      <trkpt lat="45.12991" lon="5.84875">
        <ele>819</ele>
        <time>2000-01-01T02:55:06.000Z</time>
      </trkpt>
      <trkpt lat="45.12996" lon="5.8488">
        <ele>825</ele>
        <time>2000-01-01T02:55:16.000Z</time>
      </trkpt>
      <trkpt lat="45.13" lon="5.84881">
        <ele>827</ele>
        <time>2000-01-01T02:55:26.000Z</time>
      </trkpt>
      <trkpt lat="45.13003" lon="5.84883">
        <ele>828.2</ele>
        <time>2000-01-01T02:55:36.000Z</time>
      </trkpt>
      <trkpt lat="45.13006" lon="5.84888">
        <ele>830.3</ele>
        <time>2000-01-01T02:55:46.000Z</time>
      </trkpt>
      <trkpt lat="45.13006" lon="5.84891">
        <ele>830</ele>
        <time>2000-01-01T02:55:56.000Z</time>
      </trkpt>
      <trkpt lat="45.13008" lon="5.84899">
        <ele>833.9</ele>
        <time>2000-01-01T02:56:06.000Z</time>
      </trkpt>
      <trkpt lat="45.1301" lon="5.84904">
        <ele>835.9</ele>
        <time>2000-01-01T02:56:16.000Z</time>
      </trkpt>
      <trkpt lat="45.13011" lon="5.84911">
        <ele>838.1</ele>
        <time>2000-01-01T02:56:26.000Z</time>
      </trkpt>
      <trkpt lat="45.1301" lon="5.84915">
        <ele>839</ele>
        <time>2000-01-01T02:56:36.000Z</time>
      </trkpt>
      <trkpt lat="45.13013" lon="5.84925">
        <ele>841</ele>
        <time>2000-01-01T02:56:46.000Z</time>
      </trkpt>
      <trkpt lat="45.13013" lon="5.84942">
        <ele>848.1</ele>
        <time>2000-01-01T02:56:56.000Z</time>
      </trkpt>
      <trkpt lat="45.13016" lon="5.84944">
        <ele>849.3</ele>
        <time>2000-01-01T02:57:06.000Z</time>
      </trkpt>
      <trkpt lat="45.1302" lon="5.84954">
        <ele>850</ele>
        <time>2000-01-01T02:57:16.000Z</time>
      </trkpt>
      <trkpt lat="45.1302" lon="5.84961">
        <ele>855.3</ele>
        <time>2000-01-01T02:57:26.000Z</time>
      </trkpt>
      <trkpt lat="45.13028" lon="5.84975">
        <ele>860.7</ele>
        <time>2000-01-01T02:57:36.000Z</time>
      </trkpt>
      <trkpt lat="45.13028" lon="5.84984">
        <ele>861</ele>
        <time>2000-01-01T02:57:46.000Z</time>
      </trkpt>
      <trkpt lat="45.13034" lon="5.8499">
        <ele>864.5</ele>
        <time>2000-01-01T02:57:56.000Z</time>
      </trkpt>
      <trkpt lat="45.13041" lon="5.85006">
        <ele>866</ele>
        <time>2000-01-01T02:58:06.000Z</time>
      </trkpt>
      <trkpt lat="45.13042" lon="5.85006">
        <ele>868.5</ele>
        <time>2000-01-01T02:58:16.000Z</time>
      </trkpt>
      <trkpt lat="45.13043" lon="5.85007">
        <ele>868.8</ele>
        <time>2000-01-01T02:58:26.000Z</time>
      </trkpt>
      <trkpt lat="45.13045" lon="5.85016">
        <ele>871</ele>
        <time>2000-01-01T02:58:36.000Z</time>
      </trkpt>
      <trkpt lat="45.13057" lon="5.85031">
        <ele>874</ele>
        <time>2000-01-01T02:58:46.000Z</time>
      </trkpt>
      <trkpt lat="45.13061" lon="5.8504">
        <ele>877.2</ele>
        <time>2000-01-01T02:58:56.000Z</time>
      </trkpt>
      <trkpt lat="45.13063" lon="5.85042">
        <ele>877.7</ele>
        <time>2000-01-01T02:59:06.000Z</time>
      </trkpt>
      <trkpt lat="45.13065" lon="5.85046">
        <ele>878.8</ele>
        <time>2000-01-01T02:59:16.000Z</time>
      </trkpt>
      <trkpt lat="45.13067" lon="5.85055">
        <ele>880</ele>
        <time>2000-01-01T02:59:26.000Z</time>
      </trkpt>
      <trkpt lat="45.13076" lon="5.85073">
        <ele>886.9</ele>
        <time>2000-01-01T02:59:36.000Z</time>
      </trkpt>
      <trkpt lat="45.13077" lon="5.8508">
        <ele>886</ele>
        <time>2000-01-01T02:59:46.000Z</time>
      </trkpt>
      <trkpt lat="45.13084" lon="5.85093">
        <ele>893.4</ele>
        <time>2000-01-01T02:59:56.000Z</time>
      </trkpt>
      <trkpt lat="45.13088" lon="5.85097">
        <ele>894.4</ele>
        <time>2000-01-01T03:00:06.000Z</time>
      </trkpt>
      <trkpt lat="45.13093" lon="5.85099">
        <ele>890</ele>
        <time>2000-01-01T03:00:16.000Z</time>
      </trkpt>
      <trkpt lat="45.13094" lon="5.85096">
        <ele>893.4</ele>
        <time>2000-01-01T03:00:26.000Z</time>
      </trkpt>
      <trkpt lat="45.13096" lon="5.85097">
        <ele>893.6</ele>
        <time>2000-01-01T03:00:36.000Z</time>
      </trkpt>
      <trkpt lat="45.13104" lon="5.85106">
        <ele>895.9</ele>
        <time>2000-01-01T03:00:46.000Z</time>
      </trkpt>
      <trkpt lat="45.13107" lon="5.85113">
        <ele>897</ele>
        <time>2000-01-01T03:00:56.000Z</time>
      </trkpt>
      <trkpt lat="45.13111" lon="5.85118">
        <ele>900</ele>
        <time>2000-01-01T03:01:06.000Z</time>
      </trkpt>
      <trkpt lat="45.13114" lon="5.85126">
        <ele>903.1</ele>
        <time>2000-01-01T03:01:16.000Z</time>
      </trkpt>
      <trkpt lat="45.13133" lon="5.85143">
        <ele>907</ele>
        <time>2000-01-01T03:01:26.000Z</time>
      </trkpt>
      <trkpt lat="45.13144" lon="5.85159">
        <ele>913.9</ele>
        <time>2000-01-01T03:01:36.000Z</time>
      </trkpt>
      <trkpt lat="45.13146" lon="5.85159">
        <ele>913.6</ele>
        <time>2000-01-01T03:01:46.000Z</time>
      </trkpt>
      <trkpt lat="45.13148" lon="5.85162">
        <ele>915</ele>
        <time>2000-01-01T03:01:56.000Z</time>
      </trkpt>
      <trkpt lat="45.13148" lon="5.85163">
        <ele>915.1</ele>
        <time>2000-01-01T03:02:06.000Z</time>
      </trkpt>
      <trkpt lat="45.13155" lon="5.85176">
        <ele>919.2</ele>
        <time>2000-01-01T03:02:16.000Z</time>
      </trkpt>
      <trkpt lat="45.13157" lon="5.85178">
        <ele>919.7</ele>
        <time>2000-01-01T03:02:26.000Z</time>
      </trkpt>
      <trkpt lat="45.13159" lon="5.85184">
        <ele>920</ele>
        <time>2000-01-01T03:02:36.000Z</time>
      </trkpt>
      <trkpt lat="45.13162" lon="5.85188">
        <ele>923</ele>
        <time>2000-01-01T03:02:46.000Z</time>
      </trkpt>
      <trkpt lat="45.13168" lon="5.8519">
        <ele>923.1</ele>
        <time>2000-01-01T03:02:56.000Z</time>
      </trkpt>
      <trkpt lat="45.13171" lon="5.85193">
        <ele>923.9</ele>
        <time>2000-01-01T03:03:06.000Z</time>
      </trkpt>
      <trkpt lat="45.13172" lon="5.85196">
        <ele>925</ele>
        <time>2000-01-01T03:03:16.000Z</time>
      </trkpt>
      <trkpt lat="45.13177" lon="5.85204">
        <ele>927</ele>
        <time>2000-01-01T03:03:26.000Z</time>
      </trkpt>
      <trkpt lat="45.1318" lon="5.85212">
        <ele>930.5</ele>
        <time>2000-01-01T03:03:36.000Z</time>
      </trkpt>
      <trkpt lat="45.13181" lon="5.85219">
        <ele>933.2</ele>
        <time>2000-01-01T03:03:46.000Z</time>
      </trkpt>
      <trkpt lat="45.13193" lon="5.85235">
        <ele>930</ele>
        <time>2000-01-01T03:03:56.000Z</time>
      </trkpt>
      <trkpt lat="45.13201" lon="5.85235">
        <ele>936.4</ele>
        <time>2000-01-01T03:04:06.000Z</time>
      </trkpt>
      <trkpt lat="45.13217" lon="5.85232">
        <ele>927</ele>
        <time>2000-01-01T03:04:16.000Z</time>
      </trkpt>
      <trkpt lat="45.13223" lon="5.85229">
        <ele>932.2</ele>
        <time>2000-01-01T03:04:26.000Z</time>
      </trkpt>
      <trkpt lat="45.13239" lon="5.85218">
        <ele>928</ele>
        <time>2000-01-01T03:04:36.000Z</time>
      </trkpt>
      <trkpt lat="45.13243" lon="5.85216">
        <ele>927.2</ele>
        <time>2000-01-01T03:04:46.000Z</time>
      </trkpt>
      <trkpt lat="45.13253" lon="5.85216">
        <ele>927</ele>
        <time>2000-01-01T03:04:56.000Z</time>
      </trkpt>
      <trkpt lat="45.13253" lon="5.85221">
        <ele>928.6</ele>
        <time>2000-01-01T03:05:06.000Z</time>
      </trkpt>
      <trkpt lat="45.13249" lon="5.85225">
        <ele>929</ele>
        <time>2000-01-01T03:05:16.000Z</time>
      </trkpt>
      <trkpt lat="45.13238" lon="5.85226">
        <ele>930.6</ele>
        <time>2000-01-01T03:05:26.000Z</time>
      </trkpt>
      <trkpt lat="45.13226" lon="5.85234">
        <ele>933</ele>
        <time>2000-01-01T03:05:36.000Z</time>
      </trkpt>
      <trkpt lat="45.13224" lon="5.85238">
        <ele>935</ele>
        <time>2000-01-01T03:05:46.000Z</time>
      </trkpt>
      <trkpt lat="45.13225" lon="5.85249">
        <ele>938.5</ele>
        <time>2000-01-01T03:05:56.000Z</time>
      </trkpt>
      <trkpt lat="45.1324" lon="5.85276">
        <ele>943</ele>
        <time>2000-01-01T03:06:06.000Z</time>
      </trkpt>
      <trkpt lat="45.13248" lon="5.85287">
        <ele>945.9</ele>
        <time>2000-01-01T03:06:16.000Z</time>
      </trkpt>
      <trkpt lat="45.13264" lon="5.85284">
        <ele>943</ele>
        <time>2000-01-01T03:06:26.000Z</time>
      </trkpt>
      <trkpt lat="45.13274" lon="5.8528">
        <ele>942.7</ele>
        <time>2000-01-01T03:06:36.000Z</time>
      </trkpt>
      <trkpt lat="45.13281" lon="5.85282">
        <ele>942.5</ele>
        <time>2000-01-01T03:06:46.000Z</time>
      </trkpt>
      <trkpt lat="45.13285" lon="5.85284">
        <ele>942</ele>
        <time>2000-01-01T03:06:56.000Z</time>
      </trkpt>
      <trkpt lat="45.13314" lon="5.85287">
        <ele>940</ele>
        <time>2000-01-01T03:07:06.000Z</time>
      </trkpt>
      <trkpt lat="45.13334" lon="5.85299">
        <ele>940</ele>
        <time>2000-01-01T03:07:16.000Z</time>
      </trkpt>
      <trkpt lat="45.13342" lon="5.85308">
        <ele>943.6</ele>
        <time>2000-01-01T03:07:26.000Z</time>
      </trkpt>
      <trkpt lat="45.1335" lon="5.85326">
        <ele>945</ele>
        <time>2000-01-01T03:07:36.000Z</time>
      </trkpt>
      <trkpt lat="45.13355" lon="5.8534">
        <ele>949.2</ele>
        <time>2000-01-01T03:07:46.000Z</time>
      </trkpt>
      <trkpt lat="45.13361" lon="5.85349">
        <ele>948</ele>
        <time>2000-01-01T03:07:56.000Z</time>
      </trkpt>
      <trkpt lat="45.13367" lon="5.85361">
        <ele>951.9</ele>
        <time>2000-01-01T03:08:06.000Z</time>
      </trkpt>
      <trkpt lat="45.13368" lon="5.85362">
        <ele>952</ele>
        <time>2000-01-01T03:08:16.000Z</time>
      </trkpt>
      <trkpt lat="45.13371" lon="5.8537">
        <ele>953.8</ele>
        <time>2000-01-01T03:08:26.000Z</time>
      </trkpt>
      <trkpt lat="45.13378" lon="5.85375">
        <ele>954</ele>
        <time>2000-01-01T03:08:36.000Z</time>
      </trkpt>
      <trkpt lat="45.13383" lon="5.85382">
        <ele>955.1</ele>
        <time>2000-01-01T03:08:46.000Z</time>
      </trkpt>
      <trkpt lat="45.13389" lon="5.85395">
        <ele>958</ele>
        <time>2000-01-01T03:08:56.000Z</time>
      </trkpt>
      <trkpt lat="45.13396" lon="5.85399">
        <ele>955</ele>
        <time>2000-01-01T03:09:06.000Z</time>
      </trkpt>
      <trkpt lat="45.13406" lon="5.85394">
        <ele>954</ele>
        <time>2000-01-01T03:09:16.000Z</time>
      </trkpt>
      <trkpt lat="45.13414" lon="5.85408">
        <ele>955</ele>
        <time>2000-01-01T03:09:26.000Z</time>
      </trkpt>
      <trkpt lat="45.13424" lon="5.85423">
        <ele>959.1</ele>
        <time>2000-01-01T03:09:36.000Z</time>
      </trkpt>
      <trkpt lat="45.13447" lon="5.85453">
        <ele>963</ele>
        <time>2000-01-01T03:09:46.000Z</time>
      </trkpt>
      <trkpt lat="45.13466" lon="5.85475">
        <ele>963</ele>
        <time>2000-01-01T03:09:56.000Z</time>
      </trkpt>
      <trkpt lat="45.13487" lon="5.85499">
        <ele>963</ele>
        <time>2000-01-01T03:10:06.000Z</time>
      </trkpt>
      <trkpt lat="45.135" lon="5.85516">
        <ele>966.3</ele>
        <time>2000-01-01T03:10:16.000Z</time>
      </trkpt>
      <trkpt lat="45.13523" lon="5.85549">
        <ele>968</ele>
        <time>2000-01-01T03:10:26.000Z</time>
      </trkpt>
      <trkpt lat="45.13549" lon="5.85569">
        <ele>972</ele>
        <time>2000-01-01T03:10:36.000Z</time>
      </trkpt>
      <trkpt lat="45.1357" lon="5.85586">
        <ele>974</ele>
        <time>2000-01-01T03:10:46.000Z</time>
      </trkpt>
      <trkpt lat="45.13593" lon="5.85604">
        <ele>977</ele>
        <time>2000-01-01T03:10:56.000Z</time>
      </trkpt>
      <trkpt lat="45.13608" lon="5.85615">
        <ele>978.9</ele>
        <time>2000-01-01T03:11:06.000Z</time>
      </trkpt>
      <trkpt lat="45.13631" lon="5.8566">
        <ele>989</ele>
        <time>2000-01-01T03:11:16.000Z</time>
      </trkpt>
      <trkpt lat="45.13646" lon="5.85676">
        <ele>991.9</ele>
        <time>2000-01-01T03:11:26.000Z</time>
      </trkpt>
      <trkpt lat="45.13659" lon="5.85691">
        <ele>995</ele>
        <time>2000-01-01T03:11:36.000Z</time>
      </trkpt>
      <trkpt lat="45.13686" lon="5.85715">
        <ele>996</ele>
        <time>2000-01-01T03:11:46.000Z</time>
      </trkpt>
      <trkpt lat="45.13723" lon="5.85743">
        <ele>998</ele>
        <time>2000-01-01T03:11:56.000Z</time>
      </trkpt>
      <trkpt lat="45.13754" lon="5.85777">
        <ele>1004</ele>
        <time>2000-01-01T03:12:06.000Z</time>
      </trkpt>
      <trkpt lat="45.13782" lon="5.85797">
        <ele>1007</ele>
        <time>2000-01-01T03:12:16.000Z</time>
      </trkpt>
      <trkpt lat="45.13805" lon="5.85814">
        <ele>1013</ele>
        <time>2000-01-01T03:12:26.000Z</time>
      </trkpt>
      <trkpt lat="45.13835" lon="5.85836">
        <ele>1017</ele>
        <time>2000-01-01T03:12:36.000Z</time>
      </trkpt>
      <trkpt lat="45.13854" lon="5.85862">
        <ele>1024</ele>
        <time>2000-01-01T03:12:46.000Z</time>
      </trkpt>
      <trkpt lat="45.13876" lon="5.85875">
        <ele>1024</ele>
        <time>2000-01-01T03:12:56.000Z</time>
      </trkpt>
      <trkpt lat="45.1391" lon="5.85871">
        <ele>1024</ele>
        <time>2000-01-01T03:13:06.000Z</time>
      </trkpt>
      <trkpt lat="45.13943" lon="5.85918">
        <ele>1031</ele>
        <time>2000-01-01T03:13:16.000Z</time>
      </trkpt>
      <trkpt lat="45.13949" lon="5.85967">
        <ele>1040</ele>
        <time>2000-01-01T03:13:26.000Z</time>
      </trkpt>
      <trkpt lat="45.13957" lon="5.86005">
        <ele>1044</ele>
        <time>2000-01-01T03:13:36.000Z</time>
      </trkpt>
      <trkpt lat="45.13975" lon="5.86025">
        <ele>1043</ele>
        <time>2000-01-01T03:13:46.000Z</time>
      </trkpt>
      <trkpt lat="45.14005" lon="5.86028">
        <ele>1046</ele>
        <time>2000-01-01T03:13:56.000Z</time>
      </trkpt>
      <trkpt lat="45.14027" lon="5.86045">
        <ele>1050</ele>
        <time>2000-01-01T03:14:06.000Z</time>
      </trkpt>
      <trkpt lat="45.14051" lon="5.86065">
        <ele>1053</ele>
        <time>2000-01-01T03:14:16.000Z</time>
      </trkpt>
      <trkpt lat="45.14083" lon="5.86109">
        <ele>1063</ele>
        <time>2000-01-01T03:14:26.000Z</time>
      </trkpt>
      <trkpt lat="45.141" lon="5.86134">
        <ele>1071</ele>
        <time>2000-01-01T03:14:36.000Z</time>
      </trkpt>
      <trkpt lat="45.14125" lon="5.86168">
        <ele>1073</ele>
        <time>2000-01-01T03:14:46.000Z</time>
      </trkpt>
      <trkpt lat="45.14157" lon="5.8621">
        <ele>1083</ele>
        <time>2000-01-01T03:14:56.000Z</time>
      </trkpt>
      <trkpt lat="45.14174" lon="5.86238">
        <ele>1085</ele>
        <time>2000-01-01T03:15:06.000Z</time>
      </trkpt>
      <trkpt lat="45.14193" lon="5.86273">
        <ele>1090</ele>
        <time>2000-01-01T03:15:16.000Z</time>
      </trkpt>
      <trkpt lat="45.1422" lon="5.86316">
        <ele>1092</ele>
        <time>2000-01-01T03:15:26.000Z</time>
      </trkpt>
      <trkpt lat="45.14239" lon="5.86343">
        <ele>1093</ele>
        <time>2000-01-01T03:15:36.000Z</time>
      </trkpt>
      <trkpt lat="45.1426" lon="5.86378">
        <ele>1095</ele>
        <time>2000-01-01T03:15:46.000Z</time>
      </trkpt>
      <trkpt lat="45.14269" lon="5.86412">
        <ele>1103</ele>
        <time>2000-01-01T03:15:56.000Z</time>
      </trkpt>
      <trkpt lat="45.14269" lon="5.86448">
        <ele>1108</ele>
        <time>2000-01-01T03:16:06.000Z</time>
      </trkpt>
      <trkpt lat="45.1427" lon="5.86489">
        <ele>1112</ele>
        <time>2000-01-01T03:16:16.000Z</time>
      </trkpt>
      <trkpt lat="45.14245" lon="5.86495">
        <ele>1114</ele>
        <time>2000-01-01T03:16:26.000Z</time>
      </trkpt>
      <trkpt lat="45.14217" lon="5.86503">
        <ele>1118</ele>
        <time>2000-01-01T03:16:36.000Z</time>
      </trkpt>
      <trkpt lat="45.14203" lon="5.86549">
        <ele>1122</ele>
        <time>2000-01-01T03:16:46.000Z</time>
      </trkpt>
      <trkpt lat="45.14191" lon="5.86559">
        <ele>1124.5</ele>
        <time>2000-01-01T03:16:56.000Z</time>
      </trkpt>
      <trkpt lat="45.14153" lon="5.86642">
        <ele>1120</ele>
        <time>2000-01-01T03:17:06.000Z</time>
      </trkpt>
      <trkpt lat="45.14151" lon="5.86684">
        <ele>1118</ele>
        <time>2000-01-01T03:17:16.000Z</time>
      </trkpt>
      <trkpt lat="45.14181" lon="5.86706">
        <ele>1118</ele>
        <time>2000-01-01T03:17:26.000Z</time>
      </trkpt>
      <trkpt lat="45.14174" lon="5.86745">
        <ele>1114</ele>
        <time>2000-01-01T03:17:36.000Z</time>
      </trkpt>
      <trkpt lat="45.14164" lon="5.86801">
        <ele>1113</ele>
        <time>2000-01-01T03:17:46.000Z</time>
      </trkpt>
      <trkpt lat="45.14145" lon="5.86832">
        <ele>1113</ele>
        <time>2000-01-01T03:17:56.000Z</time>
      </trkpt>
      <trkpt lat="45.14115" lon="5.86881">
        <ele>1116</ele>
        <time>2000-01-01T03:18:06.000Z</time>
      </trkpt>
      <trkpt lat="45.14078" lon="5.86903">
        <ele>1119</ele>
        <time>2000-01-01T03:18:16.000Z</time>
      </trkpt>
      <trkpt lat="45.14047" lon="5.86903">
        <ele>1120</ele>
        <time>2000-01-01T03:18:26.000Z</time>
      </trkpt>
      <trkpt lat="45.14021" lon="5.86903">
        <ele>1120</ele>
        <time>2000-01-01T03:18:36.000Z</time>
      </trkpt>
      <trkpt lat="45.1399" lon="5.86903">
        <ele>1122</ele>
        <time>2000-01-01T03:18:46.000Z</time>
      </trkpt>
      <trkpt lat="45.13954" lon="5.86904">
        <ele>1126</ele>
        <time>2000-01-01T03:18:56.000Z</time>
      </trkpt>
      <trkpt lat="45.13907" lon="5.86903">
        <ele>1133</ele>
        <time>2000-01-01T03:19:06.000Z</time>
      </trkpt>
      <trkpt lat="45.13866" lon="5.86903">
        <ele>1139</ele>
        <time>2000-01-01T03:19:16.000Z</time>
      </trkpt>
      <trkpt lat="45.13837" lon="5.86919">
        <ele>1144</ele>
        <time>2000-01-01T03:19:26.000Z</time>
      </trkpt>
      <trkpt lat="45.13812" lon="5.86933">
        <ele>1149</ele>
        <time>2000-01-01T03:19:36.000Z</time>
      </trkpt>
      <trkpt lat="45.13779" lon="5.86951">
        <ele>1157</ele>
        <time>2000-01-01T03:19:46.000Z</time>
      </trkpt>
      <trkpt lat="45.13742" lon="5.86949">
        <ele>1160</ele>
        <time>2000-01-01T03:19:56.000Z</time>
      </trkpt>
      <trkpt lat="45.13726" lon="5.86978">
        <ele>1168</ele>
        <time>2000-01-01T03:20:06.000Z</time>
      </trkpt>
      <trkpt lat="45.13708" lon="5.87013">
        <ele>1170</ele>
        <time>2000-01-01T03:20:16.000Z</time>
      </trkpt>
      <trkpt lat="45.13702" lon="5.86979">
        <ele>1168</ele>
        <time>2000-01-01T03:20:26.000Z</time>
      </trkpt>
      <trkpt lat="45.13702" lon="5.86921">
        <ele>1169</ele>
        <time>2000-01-01T03:20:36.000Z</time>
      </trkpt>
      <trkpt lat="45.13694" lon="5.86875">
        <ele>1171</ele>
        <time>2000-01-01T03:20:46.000Z</time>
      </trkpt>
      <trkpt lat="45.13686" lon="5.86822">
        <ele>1176</ele>
        <time>2000-01-01T03:20:56.000Z</time>
      </trkpt>
      <trkpt lat="45.13678" lon="5.86786">
        <ele>1183</ele>
        <time>2000-01-01T03:21:06.000Z</time>
      </trkpt>
      <trkpt lat="45.1367" lon="5.86746">
        <ele>1185</ele>
        <time>2000-01-01T03:21:16.000Z</time>
      </trkpt>
      <trkpt lat="45.13658" lon="5.86684">
        <ele>1200</ele>
        <time>2000-01-01T03:21:26.000Z</time>
      </trkpt>
      <trkpt lat="45.1365" lon="5.86648">
        <ele>1200</ele>
        <time>2000-01-01T03:21:36.000Z</time>
      </trkpt>
      <trkpt lat="45.1364" lon="5.86602">
        <ele>1202</ele>
        <time>2000-01-01T03:21:46.000Z</time>
      </trkpt>
      <trkpt lat="45.13612" lon="5.8658">
        <ele>1200</ele>
        <time>2000-01-01T03:21:56.000Z</time>
      </trkpt>
      <trkpt lat="45.13585" lon="5.86557">
        <ele>1199</ele>
        <time>2000-01-01T03:22:06.000Z</time>
      </trkpt>
      <trkpt lat="45.1356" lon="5.86538">
        <ele>1198</ele>
        <time>2000-01-01T03:22:16.000Z</time>
      </trkpt>
      <trkpt lat="45.13524" lon="5.86509">
        <ele>1198</ele>
        <time>2000-01-01T03:22:26.000Z</time>
      </trkpt>
      <trkpt lat="45.13503" lon="5.8649">
        <ele>1198</ele>
        <time>2000-01-01T03:22:36.000Z</time>
      </trkpt>
      <trkpt lat="45.13478" lon="5.86467">
        <ele>1198</ele>
        <time>2000-01-01T03:22:46.000Z</time>
      </trkpt>
      <trkpt lat="45.13456" lon="5.86441">
        <ele>1198</ele>
        <time>2000-01-01T03:22:56.000Z</time>
      </trkpt>
      <trkpt lat="45.13421" lon="5.86401">
        <ele>1197</ele>
        <time>2000-01-01T03:23:06.000Z</time>
      </trkpt>
      <trkpt lat="45.13389" lon="5.86386">
        <ele>1196</ele>
        <time>2000-01-01T03:23:16.000Z</time>
      </trkpt>
      <trkpt lat="45.13356" lon="5.86371">
        <ele>1196</ele>
        <time>2000-01-01T03:23:26.000Z</time>
      </trkpt>
      <trkpt lat="45.13332" lon="5.8636">
        <ele>1194</ele>
        <time>2000-01-01T03:23:36.000Z</time>
      </trkpt>
      <trkpt lat="45.13306" lon="5.86348">
        <ele>1190</ele>
        <time>2000-01-01T03:23:46.000Z</time>
      </trkpt>
      <trkpt lat="45.13282" lon="5.86356">
        <ele>1190</ele>
        <time>2000-01-01T03:23:56.000Z</time>
      </trkpt>
      <trkpt lat="45.13258" lon="5.86365">
        <ele>1189</ele>
        <time>2000-01-01T03:24:06.000Z</time>
      </trkpt>
      <trkpt lat="45.1323" lon="5.86376">
        <ele>1187</ele>
        <time>2000-01-01T03:24:16.000Z</time>
      </trkpt>
      <trkpt lat="45.13205" lon="5.86404">
        <ele>1186</ele>
        <time>2000-01-01T03:24:26.000Z</time>
      </trkpt>
      <trkpt lat="45.13179" lon="5.86433">
        <ele>1186</ele>
        <time>2000-01-01T03:24:36.000Z</time>
      </trkpt>
      <trkpt lat="45.1315" lon="5.86466">
        <ele>1189</ele>
        <time>2000-01-01T03:24:46.000Z</time>
      </trkpt>
      <trkpt lat="45.13132" lon="5.86489">
        <ele>1191</ele>
        <time>2000-01-01T03:24:56.000Z</time>
      </trkpt>
      <trkpt lat="45.13117" lon="5.86494">
        <ele>1195.5</ele>
        <time>2000-01-01T03:25:06.000Z</time>
      </trkpt>
      <trkpt lat="45.13064" lon="5.86465">
        <ele>1192</ele>
        <time>2000-01-01T03:25:16.000Z</time>
      </trkpt>
      <trkpt lat="45.13022" lon="5.86446">
        <ele>1190</ele>
        <time>2000-01-01T03:25:26.000Z</time>
      </trkpt>
      <trkpt lat="45.13014" lon="5.86439">
        <ele>1193.7</ele>
        <time>2000-01-01T03:25:36.000Z</time>
      </trkpt>
      <trkpt lat="45.12984" lon="5.86418">
        <ele>1191</ele>
        <time>2000-01-01T03:25:46.000Z</time>
      </trkpt>
      <trkpt lat="45.12953" lon="5.86401">
        <ele>1190</ele>
        <time>2000-01-01T03:25:56.000Z</time>
      </trkpt>
      <trkpt lat="45.12923" lon="5.86385">
        <ele>1189</ele>
        <time>2000-01-01T03:26:06.000Z</time>
      </trkpt>
      <trkpt lat="45.12886" lon="5.86365">
        <ele>1189</ele>
        <time>2000-01-01T03:26:16.000Z</time>
      </trkpt>
      <trkpt lat="45.12847" lon="5.86343">
        <ele>1188</ele>
        <time>2000-01-01T03:26:26.000Z</time>
      </trkpt>
      <trkpt lat="45.12821" lon="5.86334">
        <ele>1188</ele>
        <time>2000-01-01T03:26:36.000Z</time>
      </trkpt>
      <trkpt lat="45.12786" lon="5.86323">
        <ele>1193</ele>
        <time>2000-01-01T03:26:46.000Z</time>
      </trkpt>
      <trkpt lat="45.12757" lon="5.86318">
        <ele>1195</ele>
        <time>2000-01-01T03:26:56.000Z</time>
      </trkpt>
      <trkpt lat="45.12722" lon="5.86313">
        <ele>1197</ele>
        <time>2000-01-01T03:27:06.000Z</time>
      </trkpt>
      <trkpt lat="45.12692" lon="5.8631">
        <ele>1200</ele>
        <time>2000-01-01T03:27:16.000Z</time>
      </trkpt>
      <trkpt lat="45.12667" lon="5.86307">
        <ele>1202</ele>
        <time>2000-01-01T03:27:26.000Z</time>
      </trkpt>
      <trkpt lat="45.12638" lon="5.86304">
        <ele>1202</ele>
        <time>2000-01-01T03:27:36.000Z</time>
      </trkpt>
      <trkpt lat="45.12595" lon="5.86295">
        <ele>1202</ele>
        <time>2000-01-01T03:27:46.000Z</time>
      </trkpt>
      <trkpt lat="45.12566" lon="5.8629">
        <ele>1202</ele>
        <time>2000-01-01T03:27:56.000Z</time>
      </trkpt>
      <trkpt lat="45.12523" lon="5.86283">
        <ele>1201</ele>
        <time>2000-01-01T03:28:06.000Z</time>
      </trkpt>
      <trkpt lat="45.12504" lon="5.86277">
        <ele>1200</ele>
        <time>2000-01-01T03:28:16.000Z</time>
      </trkpt>
      <trkpt lat="45.12476" lon="5.86274">
        <ele>1200</ele>
        <time>2000-01-01T03:28:26.000Z</time>
      </trkpt>
      <trkpt lat="45.12438" lon="5.8627">
        <ele>1200</ele>
        <time>2000-01-01T03:28:36.000Z</time>
      </trkpt>
      <trkpt lat="45.12461" lon="5.86267">
        <ele>1196</ele>
        <time>2000-01-01T03:28:46.000Z</time>
      </trkpt>
      <trkpt lat="45.12439" lon="5.86252">
        <ele>1195</ele>
        <time>2000-01-01T03:28:56.000Z</time>
      </trkpt>
      <trkpt lat="45.12417" lon="5.86238">
        <ele>1192</ele>
        <time>2000-01-01T03:29:06.000Z</time>
      </trkpt>
      <trkpt lat="45.12411" lon="5.86238">
        <ele>1192.3</ele>
        <time>2000-01-01T03:29:16.000Z</time>
      </trkpt>
      <trkpt lat="45.12407" lon="5.86237">
        <ele>1192.1</ele>
        <time>2000-01-01T03:29:26.000Z</time>
      </trkpt>
      <trkpt lat="45.12395" lon="5.86238">
        <ele>1191</ele>
        <time>2000-01-01T03:29:36.000Z</time>
      </trkpt>
      <trkpt lat="45.12381" lon="5.86237">
        <ele>1193.2</ele>
        <time>2000-01-01T03:29:46.000Z</time>
      </trkpt>
      <trkpt lat="45.12369" lon="5.86232">
        <ele>1191</ele>
        <time>2000-01-01T03:29:56.000Z</time>
      </trkpt>
      <trkpt lat="45.12357" lon="5.86229">
        <ele>1191.5</ele>
        <time>2000-01-01T03:30:06.000Z</time>
      </trkpt>
      <trkpt lat="45.12342" lon="5.86231">
        <ele>1188</ele>
        <time>2000-01-01T03:30:16.000Z</time>
      </trkpt>
      <trkpt lat="45.1233" lon="5.8623">
        <ele>1191.8</ele>
        <time>2000-01-01T03:30:26.000Z</time>
      </trkpt>
      <trkpt lat="45.12326" lon="5.86231">
        <ele>1191.9</ele>
        <time>2000-01-01T03:30:36.000Z</time>
      </trkpt>
      <trkpt lat="45.1231" lon="5.86229">
        <ele>1186</ele>
        <time>2000-01-01T03:30:46.000Z</time>
      </trkpt>
      <trkpt lat="45.12298" lon="5.86238">
        <ele>1192.9</ele>
        <time>2000-01-01T03:30:56.000Z</time>
      </trkpt>
      <trkpt lat="45.12276" lon="5.86233">
        <ele>1184</ele>
        <time>2000-01-01T03:31:06.000Z</time>
      </trkpt>
      <trkpt lat="45.12263" lon="5.86236">
        <ele>1186</ele>
        <time>2000-01-01T03:31:16.000Z</time>
      </trkpt>
      <trkpt lat="45.12247" lon="5.86235">
        <ele>1182</ele>
        <time>2000-01-01T03:31:26.000Z</time>
      </trkpt>
      <trkpt lat="45.12234" lon="5.86238">
        <ele>1182.6</ele>
        <time>2000-01-01T03:31:36.000Z</time>
      </trkpt>
      <trkpt lat="45.12221" lon="5.86244">
        <ele>1185</ele>
        <time>2000-01-01T03:31:46.000Z</time>
      </trkpt>
      <trkpt lat="45.1221" lon="5.86251">
        <ele>1187.3</ele>
        <time>2000-01-01T03:31:56.000Z</time>
      </trkpt>
      <trkpt lat="45.12209" lon="5.86247">
        <ele>1185</ele>
        <time>2000-01-01T03:32:06.000Z</time>
      </trkpt>
      <trkpt lat="45.12177" lon="5.86267">
        <ele>1188</ele>
        <time>2000-01-01T03:32:16.000Z</time>
      </trkpt>
      <trkpt lat="45.12169" lon="5.86269">
        <ele>1194.1</ele>
        <time>2000-01-01T03:32:26.000Z</time>
      </trkpt>
      <trkpt lat="45.12149" lon="5.86268">
        <ele>1189</ele>
        <time>2000-01-01T03:32:36.000Z</time>
      </trkpt>
      <trkpt lat="45.12143" lon="5.86269">
        <ele>1193</ele>
        <time>2000-01-01T03:32:46.000Z</time>
      </trkpt>
      <trkpt lat="45.12104" lon="5.86287">
        <ele>1198</ele>
        <time>2000-01-01T03:32:56.000Z</time>
      </trkpt>
      <trkpt lat="45.12094" lon="5.86288">
        <ele>1202.4</ele>
        <time>2000-01-01T03:33:06.000Z</time>
      </trkpt>
      <trkpt lat="45.12086" lon="5.86281">
        <ele>1203</ele>
        <time>2000-01-01T03:33:16.000Z</time>
      </trkpt>
      <trkpt lat="45.12079" lon="5.86269">
        <ele>1204.7</ele>
        <time>2000-01-01T03:33:26.000Z</time>
      </trkpt>
      <trkpt lat="45.12078" lon="5.86269">
        <ele>1205.1</ele>
        <time>2000-01-01T03:33:36.000Z</time>
      </trkpt>
      <trkpt lat="45.12082" lon="5.86267">
        <ele>1203.7</ele>
        <time>2000-01-01T03:33:46.000Z</time>
      </trkpt>
      <trkpt lat="45.12087" lon="5.86267">
        <ele>1205</ele>
        <time>2000-01-01T03:33:56.000Z</time>
      </trkpt>
      <trkpt lat="45.12086" lon="5.86252">
        <ele>1203.9</ele>
        <time>2000-01-01T03:34:06.000Z</time>
      </trkpt>
      <trkpt lat="45.12087" lon="5.86247">
        <ele>1204.2</ele>
        <time>2000-01-01T03:34:16.000Z</time>
      </trkpt>
      <trkpt lat="45.12093" lon="5.86231">
        <ele>1205</ele>
        <time>2000-01-01T03:34:26.000Z</time>
      </trkpt>
      <trkpt lat="45.12101" lon="5.86223">
        <ele>1202.9</ele>
        <time>2000-01-01T03:34:36.000Z</time>
      </trkpt>
      <trkpt lat="45.12104" lon="5.86221">
        <ele>1202</ele>
        <time>2000-01-01T03:34:46.000Z</time>
      </trkpt>
      <trkpt lat="45.12116" lon="5.86208">
        <ele>1203</ele>
        <time>2000-01-01T03:34:56.000Z</time>
      </trkpt>
      <trkpt lat="45.12125" lon="5.86193">
        <ele>1196.7</ele>
        <time>2000-01-01T03:35:06.000Z</time>
      </trkpt>
      <trkpt lat="45.12132" lon="5.86179">
        <ele>1202</ele>
        <time>2000-01-01T03:35:16.000Z</time>
      </trkpt>
      <trkpt lat="45.12138" lon="5.86161">
        <ele>1195.2</ele>
        <time>2000-01-01T03:35:26.000Z</time>
      </trkpt>
      <trkpt lat="45.12139" lon="5.86145">
        <ele>1203</ele>
        <time>2000-01-01T03:35:36.000Z</time>
      </trkpt>
      <trkpt lat="45.12141" lon="5.86128">
        <ele>1198.1</ele>
        <time>2000-01-01T03:35:46.000Z</time>
      </trkpt>
      <trkpt lat="45.1214" lon="5.86104">
        <ele>1205</ele>
        <time>2000-01-01T03:35:56.000Z</time>
      </trkpt>
      <trkpt lat="45.12134" lon="5.86087">
        <ele>1204</ele>
        <time>2000-01-01T03:36:06.000Z</time>
      </trkpt>
      <trkpt lat="45.12134" lon="5.86041">
        <ele>1207</ele>
        <time>2000-01-01T03:36:16.000Z</time>
      </trkpt>
      <trkpt lat="45.12139" lon="5.8602">
        <ele>1205.1</ele>
        <time>2000-01-01T03:36:26.000Z</time>
      </trkpt>
      <trkpt lat="45.12144" lon="5.86005">
        <ele>1205</ele>
        <time>2000-01-01T03:36:36.000Z</time>
      </trkpt>
      <trkpt lat="45.12151" lon="5.85988">
        <ele>1203</ele>
        <time>2000-01-01T03:36:46.000Z</time>
      </trkpt>
      <trkpt lat="45.12153" lon="5.85974">
        <ele>1207</ele>
        <time>2000-01-01T03:36:56.000Z</time>
      </trkpt>
      <trkpt lat="45.12151" lon="5.85966">
        <ele>1205.9</ele>
        <time>2000-01-01T03:37:06.000Z</time>
      </trkpt>
      <trkpt lat="45.12152" lon="5.85959">
        <ele>1206.4</ele>
        <time>2000-01-01T03:37:16.000Z</time>
      </trkpt>
      <trkpt lat="45.12159" lon="5.85942">
        <ele>1205</ele>
        <time>2000-01-01T03:37:26.000Z</time>
      </trkpt>
      <trkpt lat="45.12162" lon="5.85924">
        <ele>1205</ele>
        <time>2000-01-01T03:37:36.000Z</time>
      </trkpt>
      <trkpt lat="45.12174" lon="5.85907">
        <ele>1203</ele>
        <time>2000-01-01T03:37:46.000Z</time>
      </trkpt>
      <trkpt lat="45.12183" lon="5.85888">
        <ele>1196.7</ele>
        <time>2000-01-01T03:37:56.000Z</time>
      </trkpt>
      <trkpt lat="45.12189" lon="5.85866">
        <ele>1199</ele>
        <time>2000-01-01T03:38:06.000Z</time>
      </trkpt>
      <trkpt lat="45.1219" lon="5.85848">
        <ele>1195.3</ele>
        <time>2000-01-01T03:38:16.000Z</time>
      </trkpt>
      <trkpt lat="45.12191" lon="5.85811">
        <ele>1205</ele>
        <time>2000-01-01T03:38:26.000Z</time>
      </trkpt>
      <trkpt lat="45.12184" lon="5.85796">
        <ele>1200.8</ele>
        <time>2000-01-01T03:38:36.000Z</time>
      </trkpt>
      <trkpt lat="45.12179" lon="5.85777">
        <ele>1207</ele>
        <time>2000-01-01T03:38:46.000Z</time>
      </trkpt>
      <trkpt lat="45.12176" lon="5.8574">
        <ele>1208</ele>
        <time>2000-01-01T03:38:56.000Z</time>
      </trkpt>
      <trkpt lat="45.12173" lon="5.85716">
        <ele>1206.5</ele>
        <time>2000-01-01T03:39:06.000Z</time>
      </trkpt>
      <trkpt lat="45.12173" lon="5.8571">
        <ele>1207</ele>
        <time>2000-01-01T03:39:16.000Z</time>
      </trkpt>
      <trkpt lat="45.12174" lon="5.85703">
        <ele>1205</ele>
        <time>2000-01-01T03:39:26.000Z</time>
      </trkpt>
      <trkpt lat="45.12172" lon="5.85683">
        <ele>1207</ele>
        <time>2000-01-01T03:39:36.000Z</time>
      </trkpt>
      <trkpt lat="45.12162" lon="5.85625">
        <ele>1208</ele>
        <time>2000-01-01T03:39:46.000Z</time>
      </trkpt>
      <trkpt lat="45.12158" lon="5.85608">
        <ele>1208.6</ele>
        <time>2000-01-01T03:39:56.000Z</time>
      </trkpt>
      <trkpt lat="45.12158" lon="5.85604">
        <ele>1208.2</ele>
        <time>2000-01-01T03:40:06.000Z</time>
      </trkpt>
      <trkpt lat="45.12151" lon="5.85575">
        <ele>1208</ele>
        <time>2000-01-01T03:40:16.000Z</time>
      </trkpt>
      <trkpt lat="45.12142" lon="5.85528">
        <ele>1210</ele>
        <time>2000-01-01T03:40:26.000Z</time>
      </trkpt>
      <trkpt lat="45.12134" lon="5.85495">
        <ele>1210</ele>
        <time>2000-01-01T03:40:36.000Z</time>
      </trkpt>
      <trkpt lat="45.12128" lon="5.85477">
        <ele>1207.8</ele>
        <time>2000-01-01T03:40:46.000Z</time>
      </trkpt>
      <trkpt lat="45.12122" lon="5.85465">
        <ele>1208</ele>
        <time>2000-01-01T03:40:56.000Z</time>
      </trkpt>
      <trkpt lat="45.12108" lon="5.85424">
        <ele>1206</ele>
        <time>2000-01-01T03:41:06.000Z</time>
      </trkpt>
      <trkpt lat="45.12103" lon="5.85411">
        <ele>1201.6</ele>
        <time>2000-01-01T03:41:16.000Z</time>
      </trkpt>
      <trkpt lat="45.12083" lon="5.85376">
        <ele>1202</ele>
        <time>2000-01-01T03:41:26.000Z</time>
      </trkpt>
      <trkpt lat="45.12058" lon="5.85353">
        <ele>1199</ele>
        <time>2000-01-01T03:41:36.000Z</time>
      </trkpt>
      <trkpt lat="45.12042" lon="5.85341">
        <ele>1196.9</ele>
        <time>2000-01-01T03:41:46.000Z</time>
      </trkpt>
      <trkpt lat="45.12033" lon="5.85337">
        <ele>1197</ele>
        <time>2000-01-01T03:41:56.000Z</time>
      </trkpt>
      <trkpt lat="45.1202" lon="5.85319">
        <ele>1193.4</ele>
        <time>2000-01-01T03:42:06.000Z</time>
      </trkpt>
      <trkpt lat="45.12009" lon="5.8531">
        <ele>1195</ele>
        <time>2000-01-01T03:42:16.000Z</time>
      </trkpt>
      <trkpt lat="45.12001" lon="5.85298">
        <ele>1190.3</ele>
        <time>2000-01-01T03:42:26.000Z</time>
      </trkpt>
      <trkpt lat="45.11998" lon="5.85297">
        <ele>1190.8</ele>
        <time>2000-01-01T03:42:36.000Z</time>
      </trkpt>
      <trkpt lat="45.11984" lon="5.85281">
        <ele>1190</ele>
        <time>2000-01-01T03:42:46.000Z</time>
      </trkpt>
      <trkpt lat="45.11961" lon="5.85262">
        <ele>1189</ele>
        <time>2000-01-01T03:42:56.000Z</time>
      </trkpt>
      <trkpt lat="45.1195" lon="5.85255">
        <ele>1190.2</ele>
        <time>2000-01-01T03:43:06.000Z</time>
      </trkpt>
      <trkpt lat="45.11939" lon="5.85236">
        <ele>1188</ele>
        <time>2000-01-01T03:43:16.000Z</time>
      </trkpt>
      <trkpt lat="45.11926" lon="5.85223">
        <ele>1187.5</ele>
        <time>2000-01-01T03:43:26.000Z</time>
      </trkpt>
      <trkpt lat="45.11915" lon="5.85208">
        <ele>1189</ele>
        <time>2000-01-01T03:43:36.000Z</time>
      </trkpt>
      <trkpt lat="45.1189" lon="5.85194">
        <ele>1188</ele>
        <time>2000-01-01T03:43:46.000Z</time>
      </trkpt>
      <trkpt lat="45.11876" lon="5.85175">
        <ele>1188</ele>
        <time>2000-01-01T03:43:56.000Z</time>
      </trkpt>
      <trkpt lat="45.11865" lon="5.85162">
        <ele>1187.2</ele>
        <time>2000-01-01T03:44:06.000Z</time>
      </trkpt>
      <trkpt lat="45.11856" lon="5.85149">
        <ele>1186</ele>
        <time>2000-01-01T03:44:16.000Z</time>
      </trkpt>
      <trkpt lat="45.11846" lon="5.85138">
        <ele>1186.7</ele>
        <time>2000-01-01T03:44:26.000Z</time>
      </trkpt>
      <trkpt lat="45.11838" lon="5.85124">
        <ele>1185</ele>
        <time>2000-01-01T03:44:36.000Z</time>
      </trkpt>
      <trkpt lat="45.11827" lon="5.85112">
        <ele>1185.1</ele>
        <time>2000-01-01T03:44:46.000Z</time>
      </trkpt>
      <trkpt lat="45.11822" lon="5.85108">
        <ele>1185</ele>
        <time>2000-01-01T03:44:56.000Z</time>
      </trkpt>
      <trkpt lat="45.11809" lon="5.85087">
        <ele>1185</ele>
        <time>2000-01-01T03:45:06.000Z</time>
      </trkpt>
      <trkpt lat="45.11798" lon="5.85053">
        <ele>1180</ele>
        <time>2000-01-01T03:45:16.000Z</time>
      </trkpt>
      <trkpt lat="45.11773" lon="5.85002">
        <ele>1173</ele>
        <time>2000-01-01T03:45:26.000Z</time>
      </trkpt>
      <trkpt lat="45.11765" lon="5.84981">
        <ele>1170.2</ele>
        <time>2000-01-01T03:45:36.000Z</time>
      </trkpt>
      <trkpt lat="45.11754" lon="5.84967">
        <ele>1170</ele>
        <time>2000-01-01T03:45:46.000Z</time>
      </trkpt>
      <trkpt lat="45.11742" lon="5.84943">
        <ele>1171</ele>
        <time>2000-01-01T03:45:56.000Z</time>
      </trkpt>
      <trkpt lat="45.11719" lon="5.84921">
        <ele>1170</ele>
        <time>2000-01-01T03:46:06.000Z</time>
      </trkpt>
      <trkpt lat="45.11698" lon="5.84892">
        <ele>1170</ele>
        <time>2000-01-01T03:46:16.000Z</time>
      </trkpt>
      <trkpt lat="45.11686" lon="5.84871">
        <ele>1165</ele>
        <time>2000-01-01T03:46:26.000Z</time>
      </trkpt>
      <trkpt lat="45.11673" lon="5.84856">
        <ele>1161.8</ele>
        <time>2000-01-01T03:46:36.000Z</time>
      </trkpt>
      <trkpt lat="45.11661" lon="5.84845">
        <ele>1163</ele>
        <time>2000-01-01T03:46:46.000Z</time>
      </trkpt>
      <trkpt lat="45.11648" lon="5.84829">
        <ele>1160.1</ele>
        <time>2000-01-01T03:46:56.000Z</time>
      </trkpt>
      <trkpt lat="45.11635" lon="5.8482">
        <ele>1164</ele>
        <time>2000-01-01T03:47:06.000Z</time>
      </trkpt>
      <trkpt lat="45.11633" lon="5.84818">
        <ele>1161.5</ele>
        <time>2000-01-01T03:47:16.000Z</time>
      </trkpt>
      <trkpt lat="45.11626" lon="5.84817">
        <ele>1163.5</ele>
        <time>2000-01-01T03:47:26.000Z</time>
      </trkpt>
      <trkpt lat="45.11624" lon="5.84816">
        <ele>1163.8</ele>
        <time>2000-01-01T03:47:36.000Z</time>
      </trkpt>
      <trkpt lat="45.11613" lon="5.84818">
        <ele>1165</ele>
        <time>2000-01-01T03:47:46.000Z</time>
      </trkpt>
      <trkpt lat="45.11606" lon="5.84815">
        <ele>1169.3</ele>
        <time>2000-01-01T03:47:56.000Z</time>
      </trkpt>
      <trkpt lat="45.11597" lon="5.84814">
        <ele>1171.7</ele>
        <time>2000-01-01T03:48:06.000Z</time>
      </trkpt>
      <trkpt lat="45.11588" lon="5.84808">
        <ele>1172</ele>
        <time>2000-01-01T03:48:16.000Z</time>
      </trkpt>
      <trkpt lat="45.1158" lon="5.84807">
        <ele>1174.3</ele>
        <time>2000-01-01T03:48:26.000Z</time>
      </trkpt>
      <trkpt lat="45.11567" lon="5.84801">
        <ele>1173</ele>
        <time>2000-01-01T03:48:36.000Z</time>
      </trkpt>
      <trkpt lat="45.11559" lon="5.84794">
        <ele>1175.3</ele>
        <time>2000-01-01T03:48:46.000Z</time>
      </trkpt>
      <trkpt lat="45.11549" lon="5.84789">
        <ele>1175</ele>
        <time>2000-01-01T03:48:56.000Z</time>
      </trkpt>
      <trkpt lat="45.11545" lon="5.84789">
        <ele>1176.9</ele>
        <time>2000-01-01T03:49:06.000Z</time>
      </trkpt>
      <trkpt lat="45.1153" lon="5.84786">
        <ele>1179</ele>
        <time>2000-01-01T03:49:16.000Z</time>
      </trkpt>
      <trkpt lat="45.11514" lon="5.84785">
        <ele>1181.8</ele>
        <time>2000-01-01T03:49:26.000Z</time>
      </trkpt>
      <trkpt lat="45.11511" lon="5.84786">
        <ele>1180</ele>
        <time>2000-01-01T03:49:36.000Z</time>
      </trkpt>
      <trkpt lat="45.11508" lon="5.84786">
        <ele>1183.2</ele>
        <time>2000-01-01T03:49:46.000Z</time>
      </trkpt>
      <trkpt lat="45.11503" lon="5.84793">
        <ele>1186.4</ele>
        <time>2000-01-01T03:49:56.000Z</time>
      </trkpt>
      <trkpt lat="45.11503" lon="5.84794">
        <ele>1186.7</ele>
        <time>2000-01-01T03:50:06.000Z</time>
      </trkpt>
      <trkpt lat="45.11508" lon="5.84812">
        <ele>1192</ele>
        <time>2000-01-01T03:50:16.000Z</time>
      </trkpt>
      <trkpt lat="45.11508" lon="5.84815">
        <ele>1192.6</ele>
        <time>2000-01-01T03:50:26.000Z</time>
      </trkpt>
      <trkpt lat="45.1151" lon="5.84827">
        <ele>1196.1</ele>
        <time>2000-01-01T03:50:36.000Z</time>
      </trkpt>
      <trkpt lat="45.11512" lon="5.84829">
        <ele>1196.4</ele>
        <time>2000-01-01T03:50:46.000Z</time>
      </trkpt>
      <trkpt lat="45.11513" lon="5.84829">
        <ele>1196.3</ele>
        <time>2000-01-01T03:50:56.000Z</time>
      </trkpt>
      <trkpt lat="45.1152" lon="5.84845">
        <ele>1198</ele>
        <time>2000-01-01T03:51:06.000Z</time>
      </trkpt>
      <trkpt lat="45.1152" lon="5.84852">
        <ele>1202.6</ele>
        <time>2000-01-01T03:51:16.000Z</time>
      </trkpt>
      <trkpt lat="45.11519" lon="5.84861">
        <ele>1205.9</ele>
        <time>2000-01-01T03:51:26.000Z</time>
      </trkpt>
      <trkpt lat="45.11521" lon="5.84862">
        <ele>1205.8</ele>
        <time>2000-01-01T03:51:36.000Z</time>
      </trkpt>
      <trkpt lat="45.11522" lon="5.84866">
        <ele>1206.9</ele>
        <time>2000-01-01T03:51:46.000Z</time>
      </trkpt>
      <trkpt lat="45.1153" lon="5.84867">
        <ele>1205</ele>
        <time>2000-01-01T03:51:56.000Z</time>
      </trkpt>
      <trkpt lat="45.11535" lon="5.84875">
        <ele>1206.9</ele>
        <time>2000-01-01T03:52:06.000Z</time>
      </trkpt>
      <trkpt lat="45.11542" lon="5.84879">
        <ele>1206.7</ele>
        <time>2000-01-01T03:52:16.000Z</time>
      </trkpt>
      <trkpt lat="45.11541" lon="5.84886">
        <ele>1206</ele>
        <time>2000-01-01T03:52:26.000Z</time>
      </trkpt>
      <trkpt lat="45.11544" lon="5.84893">
        <ele>1210.7</ele>
        <time>2000-01-01T03:52:36.000Z</time>
      </trkpt>
      <trkpt lat="45.11545" lon="5.84898">
        <ele>1212</ele>
        <time>2000-01-01T03:52:46.000Z</time>
      </trkpt>
      <trkpt lat="45.11548" lon="5.84903">
        <ele>1212.8</ele>
        <time>2000-01-01T03:52:56.000Z</time>
      </trkpt>
      <trkpt lat="45.11553" lon="5.84906">
        <ele>1211</ele>
        <time>2000-01-01T03:53:06.000Z</time>
      </trkpt>
      <trkpt lat="45.11553" lon="5.84915">
        <ele>1215.2</ele>
        <time>2000-01-01T03:53:16.000Z</time>
      </trkpt>
      <trkpt lat="45.11552" lon="5.84919">
        <ele>1216.7</ele>
        <time>2000-01-01T03:53:26.000Z</time>
      </trkpt>
      <trkpt lat="45.11553" lon="5.84922">
        <ele>1217.4</ele>
        <time>2000-01-01T03:53:36.000Z</time>
      </trkpt>
      <trkpt lat="45.11563" lon="5.84926">
        <ele>1215</ele>
        <time>2000-01-01T03:53:46.000Z</time>
      </trkpt>
      <trkpt lat="45.11565" lon="5.84934">
        <ele>1218.2</ele>
        <time>2000-01-01T03:53:56.000Z</time>
      </trkpt>
      <trkpt lat="45.11573" lon="5.84945">
        <ele>1219.8</ele>
        <time>2000-01-01T03:54:06.000Z</time>
      </trkpt>
      <trkpt lat="45.11574" lon="5.84952">
        <ele>1221</ele>
        <time>2000-01-01T03:54:16.000Z</time>
      </trkpt>
      <trkpt lat="45.11573" lon="5.84957">
        <ele>1223.4</ele>
        <time>2000-01-01T03:54:26.000Z</time>
      </trkpt>
      <trkpt lat="45.11576" lon="5.8496">
        <ele>1223.5</ele>
        <time>2000-01-01T03:54:36.000Z</time>
      </trkpt>
      <trkpt lat="45.11579" lon="5.8497">
        <ele>1225.6</ele>
        <time>2000-01-01T03:54:46.000Z</time>
      </trkpt>
      <trkpt lat="45.11582" lon="5.84974">
        <ele>1224</ele>
        <time>2000-01-01T03:54:56.000Z</time>
      </trkpt>
      <trkpt lat="45.11581" lon="5.8498">
        <ele>1228.2</ele>
        <time>2000-01-01T03:55:06.000Z</time>
      </trkpt>
      <trkpt lat="45.11585" lon="5.84985">
        <ele>1228.7</ele>
        <time>2000-01-01T03:55:16.000Z</time>
      </trkpt>
      <trkpt lat="45.11585" lon="5.84988">
        <ele>1229.7</ele>
        <time>2000-01-01T03:55:26.000Z</time>
      </trkpt>
      <trkpt lat="45.11586" lon="5.84989">
        <ele>1229.7</ele>
        <time>2000-01-01T03:55:36.000Z</time>
      </trkpt>
      <trkpt lat="45.11587" lon="5.84997">
        <ele>1232</ele>
        <time>2000-01-01T03:55:46.000Z</time>
      </trkpt>
      <trkpt lat="45.11591" lon="5.85002">
        <ele>1231</ele>
        <time>2000-01-01T03:55:56.000Z</time>
      </trkpt>
      <trkpt lat="45.11596" lon="5.85006">
        <ele>1232.4</ele>
        <time>2000-01-01T03:56:06.000Z</time>
      </trkpt>
      <trkpt lat="45.11597" lon="5.85005">
        <ele>1231.8</ele>
        <time>2000-01-01T03:56:16.000Z</time>
      </trkpt>
      <trkpt lat="45.11598" lon="5.85006">
        <ele>1231.8</ele>
        <time>2000-01-01T03:56:26.000Z</time>
      </trkpt>
      <trkpt lat="45.116" lon="5.85017">
        <ele>1235</ele>
        <time>2000-01-01T03:56:36.000Z</time>
      </trkpt>
      <trkpt lat="45.11609" lon="5.85032">
        <ele>1239</ele>
        <time>2000-01-01T03:56:46.000Z</time>
      </trkpt>
      <trkpt lat="45.11608" lon="5.85038">
        <ele>1239.7</ele>
        <time>2000-01-01T03:56:56.000Z</time>
      </trkpt>
      <trkpt lat="45.11611" lon="5.8504">
        <ele>1239.4</ele>
        <time>2000-01-01T03:57:06.000Z</time>
      </trkpt>
      <trkpt lat="45.11613" lon="5.85039">
        <ele>1238.5</ele>
        <time>2000-01-01T03:57:16.000Z</time>
      </trkpt>
      <trkpt lat="45.11613" lon="5.85043">
        <ele>1239.9</ele>
        <time>2000-01-01T03:57:26.000Z</time>
      </trkpt>
      <trkpt lat="45.11615" lon="5.85047">
        <ele>1240.7</ele>
        <time>2000-01-01T03:57:36.000Z</time>
      </trkpt>
      <trkpt lat="45.11627" lon="5.85051">
        <ele>1240</ele>
        <time>2000-01-01T03:57:46.000Z</time>
      </trkpt>
      <trkpt lat="45.11626" lon="5.85057">
        <ele>1240.8</ele>
        <time>2000-01-01T03:57:56.000Z</time>
      </trkpt>
      <trkpt lat="45.11627" lon="5.85068">
        <ele>1245</ele>
        <time>2000-01-01T03:58:06.000Z</time>
      </trkpt>
      <trkpt lat="45.11629" lon="5.85069">
        <ele>1244.7</ele>
        <time>2000-01-01T03:58:16.000Z</time>
      </trkpt>
      <trkpt lat="45.11639" lon="5.85087">
        <ele>1249</ele>
        <time>2000-01-01T03:58:26.000Z</time>
      </trkpt>
      <trkpt lat="45.11639" lon="5.85093">
        <ele>1250.8</ele>
        <time>2000-01-01T03:58:36.000Z</time>
      </trkpt>
      <trkpt lat="45.11642" lon="5.85098">
        <ele>1251.7</ele>
        <time>2000-01-01T03:58:46.000Z</time>
      </trkpt>
      <trkpt lat="45.11649" lon="5.85103">
        <ele>1251.1</ele>
        <time>2000-01-01T03:58:56.000Z</time>
      </trkpt>
      <trkpt lat="45.11656" lon="5.85102">
        <ele>1250</ele>
        <time>2000-01-01T03:59:06.000Z</time>
      </trkpt>
      <trkpt lat="45.11657" lon="5.85104">
        <ele>1248.7</ele>
        <time>2000-01-01T03:59:16.000Z</time>
      </trkpt>
      <trkpt lat="45.11662" lon="5.85109">
        <ele>1248.8</ele>
        <time>2000-01-01T03:59:26.000Z</time>
      </trkpt>
      <trkpt lat="45.11667" lon="5.8512">
        <ele>1251.1</ele>
        <time>2000-01-01T03:59:36.000Z</time>
      </trkpt>
      <trkpt lat="45.11667" lon="5.85133">
        <ele>1258</ele>
        <time>2000-01-01T03:59:46.000Z</time>
      </trkpt>
      <trkpt lat="45.11671" lon="5.85138">
        <ele>1256.1</ele>
        <time>2000-01-01T03:59:56.000Z</time>
      </trkpt>
      <trkpt lat="45.11669" lon="5.85147">
        <ele>1260.4</ele>
        <time>2000-01-01T04:00:06.000Z</time>
      </trkpt>
      <trkpt lat="45.11669" lon="5.85149">
        <ele>1261.2</ele>
        <time>2000-01-01T04:00:16.000Z</time>
      </trkpt>
      <trkpt lat="45.11671" lon="5.8515">
        <ele>1260.8</ele>
        <time>2000-01-01T04:00:26.000Z</time>
      </trkpt>
      <trkpt lat="45.11672" lon="5.85154">
        <ele>1262.1</ele>
        <time>2000-01-01T04:00:36.000Z</time>
      </trkpt>
      <trkpt lat="45.11671" lon="5.85157">
        <ele>1260</ele>
        <time>2000-01-01T04:00:46.000Z</time>
      </trkpt>
      <trkpt lat="45.11672" lon="5.85162">
        <ele>1265.2</ele>
        <time>2000-01-01T04:00:56.000Z</time>
      </trkpt>
      <trkpt lat="45.11665" lon="5.85176">
        <ele>1272.9</ele>
        <time>2000-01-01T04:01:06.000Z</time>
      </trkpt>
      <trkpt lat="45.11665" lon="5.8518">
        <ele>1274.4</ele>
        <time>2000-01-01T04:01:16.000Z</time>
      </trkpt>
      <trkpt lat="45.11661" lon="5.8519">
        <ele>1280</ele>
        <time>2000-01-01T04:01:26.000Z</time>
      </trkpt>
      <trkpt lat="45.11661" lon="5.85201">
        <ele>1283</ele>
        <time>2000-01-01T04:01:36.000Z</time>
      </trkpt>
      <trkpt lat="45.11659" lon="5.85208">
        <ele>1286</ele>
        <time>2000-01-01T04:01:46.000Z</time>
      </trkpt>
      <trkpt lat="45.1166" lon="5.8521">
        <ele>1286.3</ele>
        <time>2000-01-01T04:01:56.000Z</time>
      </trkpt>
      <trkpt lat="45.11661" lon="5.85215">
        <ele>1287.6</ele>
        <time>2000-01-01T04:02:06.000Z</time>
      </trkpt>
      <trkpt lat="45.11659" lon="5.8522">
        <ele>1293</ele>
        <time>2000-01-01T04:02:16.000Z</time>
      </trkpt>
      <trkpt lat="45.1166" lon="5.85221">
        <ele>1290</ele>
        <time>2000-01-01T04:02:26.000Z</time>
      </trkpt>
      <trkpt lat="45.11659" lon="5.85224">
        <ele>1291.3</ele>
        <time>2000-01-01T04:02:36.000Z</time>
      </trkpt>
      <trkpt lat="45.1166" lon="5.85226">
        <ele>1291.6</ele>
        <time>2000-01-01T04:02:46.000Z</time>
      </trkpt>
      <trkpt lat="45.11659" lon="5.85227">
        <ele>1292.3</ele>
        <time>2000-01-01T04:02:56.000Z</time>
      </trkpt>
      <trkpt lat="45.11662" lon="5.85228">
        <ele>1291.6</ele>
        <time>2000-01-01T04:03:06.000Z</time>
      </trkpt>
      <trkpt lat="45.11663" lon="5.85234">
        <ele>1293.1</ele>
        <time>2000-01-01T04:03:16.000Z</time>
      </trkpt>
      <trkpt lat="45.11662" lon="5.85235">
        <ele>1293.8</ele>
        <time>2000-01-01T04:03:26.000Z</time>
      </trkpt>
      <trkpt lat="45.11662" lon="5.85242">
        <ele>1296</ele>
        <time>2000-01-01T04:03:36.000Z</time>
      </trkpt>
      <trkpt lat="45.11663" lon="5.85246">
        <ele>1297</ele>
        <time>2000-01-01T04:03:46.000Z</time>
      </trkpt>
      <trkpt lat="45.11667" lon="5.85252">
        <ele>1297.5</ele>
        <time>2000-01-01T04:03:56.000Z</time>
      </trkpt>
      <trkpt lat="45.11667" lon="5.85256">
        <ele>1298.8</ele>
        <time>2000-01-01T04:04:06.000Z</time>
      </trkpt>
      <trkpt lat="45.11669" lon="5.85264">
        <ele>1300.8</ele>
        <time>2000-01-01T04:04:16.000Z</time>
      </trkpt>
      <trkpt lat="45.11669" lon="5.85273">
        <ele>1306</ele>
        <time>2000-01-01T04:04:26.000Z</time>
      </trkpt>
      <trkpt lat="45.11672" lon="5.85283">
        <ele>1306.3</ele>
        <time>2000-01-01T04:04:36.000Z</time>
      </trkpt>
      <trkpt lat="45.11676" lon="5.85288">
        <ele>1306.8</ele>
        <time>2000-01-01T04:04:46.000Z</time>
      </trkpt>
      <trkpt lat="45.11677" lon="5.85301">
        <ele>1312</ele>
        <time>2000-01-01T04:04:56.000Z</time>
      </trkpt>
      <trkpt lat="45.11675" lon="5.85315">
        <ele>1317.4</ele>
        <time>2000-01-01T04:05:06.000Z</time>
      </trkpt>
      <trkpt lat="45.11676" lon="5.85321">
        <ele>1319.4</ele>
        <time>2000-01-01T04:05:16.000Z</time>
      </trkpt>
      <trkpt lat="45.11676" lon="5.85327">
        <ele>1321.8</ele>
        <time>2000-01-01T04:05:26.000Z</time>
      </trkpt>
      <trkpt lat="45.11679" lon="5.85328">
        <ele>1320</ele>
        <time>2000-01-01T04:05:36.000Z</time>
      </trkpt>
      <trkpt lat="45.11679" lon="5.85336">
        <ele>1324.2</ele>
        <time>2000-01-01T04:05:46.000Z</time>
      </trkpt>
      <trkpt lat="45.11682" lon="5.85339">
        <ele>1324.2</ele>
        <time>2000-01-01T04:05:56.000Z</time>
      </trkpt>
      <trkpt lat="45.11681" lon="5.8535">
        <ele>1328.9</ele>
        <time>2000-01-01T04:06:06.000Z</time>
      </trkpt>
      <trkpt lat="45.11682" lon="5.85353">
        <ele>1329</ele>
        <time>2000-01-01T04:06:16.000Z</time>
      </trkpt>
      <trkpt lat="45.11682" lon="5.85358">
        <ele>1331.7</ele>
        <time>2000-01-01T04:06:26.000Z</time>
      </trkpt>
      <trkpt lat="45.11688" lon="5.85369">
        <ele>1333.7</ele>
        <time>2000-01-01T04:06:36.000Z</time>
      </trkpt>
      <trkpt lat="45.11691" lon="5.85372">
        <ele>1333.7</ele>
        <time>2000-01-01T04:06:46.000Z</time>
      </trkpt>
      <trkpt lat="45.11694" lon="5.85377">
        <ele>1335</ele>
        <time>2000-01-01T04:06:56.000Z</time>
      </trkpt>
      <trkpt lat="45.11696" lon="5.85377">
        <ele>1333.7</ele>
        <time>2000-01-01T04:07:06.000Z</time>
      </trkpt>
      <trkpt lat="45.11704" lon="5.85389">
        <ele>1335.3</ele>
        <time>2000-01-01T04:07:16.000Z</time>
      </trkpt>
      <trkpt lat="45.11707" lon="5.8539">
        <ele>1334.5</ele>
        <time>2000-01-01T04:07:26.000Z</time>
      </trkpt>
      <trkpt lat="45.11719" lon="5.85409">
        <ele>1338</ele>
        <time>2000-01-01T04:07:36.000Z</time>
      </trkpt>
      <trkpt lat="45.11719" lon="5.85412">
        <ele>1338.4</ele>
        <time>2000-01-01T04:07:46.000Z</time>
      </trkpt>
      <trkpt lat="45.11725" lon="5.85425">
        <ele>1341.2</ele>
        <time>2000-01-01T04:07:56.000Z</time>
      </trkpt>
      <trkpt lat="45.1173" lon="5.85427">
        <ele>1340</ele>
        <time>2000-01-01T04:08:06.000Z</time>
      </trkpt>
      <trkpt lat="45.11733" lon="5.85438">
        <ele>1341</ele>
        <time>2000-01-01T04:08:16.000Z</time>
      </trkpt>
      <trkpt lat="45.11741" lon="5.85452">
        <ele>1345.5</ele>
        <time>2000-01-01T04:08:26.000Z</time>
      </trkpt>
      <trkpt lat="45.11744" lon="5.85454">
        <ele>1345.1</ele>
        <time>2000-01-01T04:08:36.000Z</time>
      </trkpt>
      <trkpt lat="45.11744" lon="5.85458">
        <ele>1346.6</ele>
        <time>2000-01-01T04:08:46.000Z</time>
      </trkpt>
      <trkpt lat="45.11748" lon="5.8546">
        <ele>1345</ele>
        <time>2000-01-01T04:08:56.000Z</time>
      </trkpt>
      <trkpt lat="45.11755" lon="5.85471">
        <ele>1347.7</ele>
        <time>2000-01-01T04:09:06.000Z</time>
      </trkpt>
      <trkpt lat="45.11761" lon="5.85476">
        <ele>1347.5</ele>
        <time>2000-01-01T04:09:16.000Z</time>
      </trkpt>
      <trkpt lat="45.11766" lon="5.85479">
        <ele>1345</ele>
        <time>2000-01-01T04:09:26.000Z</time>
      </trkpt>
      <trkpt lat="45.11771" lon="5.85487">
        <ele>1348.2</ele>
        <time>2000-01-01T04:09:36.000Z</time>
      </trkpt>
      <trkpt lat="45.11774" lon="5.85495">
        <ele>1350.3</ele>
        <time>2000-01-01T04:09:46.000Z</time>
      </trkpt>
      <trkpt lat="45.11782" lon="5.85502">
        <ele>1351</ele>
        <time>2000-01-01T04:09:56.000Z</time>
      </trkpt>
      <trkpt lat="45.1179" lon="5.85514">
        <ele>1352.1</ele>
        <time>2000-01-01T04:10:06.000Z</time>
      </trkpt>
      <trkpt lat="45.11791" lon="5.85517">
        <ele>1352.8</ele>
        <time>2000-01-01T04:10:16.000Z</time>
      </trkpt>
      <trkpt lat="45.11796" lon="5.85527">
        <ele>1354</ele>
        <time>2000-01-01T04:10:26.000Z</time>
      </trkpt>
      <trkpt lat="45.118" lon="5.85531">
        <ele>1354.8</ele>
        <time>2000-01-01T04:10:36.000Z</time>
      </trkpt>
      <trkpt lat="45.11805" lon="5.85541">
        <ele>1356.4</ele>
        <time>2000-01-01T04:10:46.000Z</time>
      </trkpt>
      <trkpt lat="45.11814" lon="5.85549">
        <ele>1353</ele>
        <time>2000-01-01T04:10:56.000Z</time>
      </trkpt>
      <trkpt lat="45.11818" lon="5.85547">
        <ele>1355</ele>
        <time>2000-01-01T04:11:06.000Z</time>
      </trkpt>
      <trkpt lat="45.11823" lon="5.85549">
        <ele>1354.3</ele>
        <time>2000-01-01T04:11:16.000Z</time>
      </trkpt>
      <trkpt lat="45.11824" lon="5.85553">
        <ele>1355.5</ele>
        <time>2000-01-01T04:11:26.000Z</time>
      </trkpt>
      <trkpt lat="45.11831" lon="5.85558">
        <ele>1353</ele>
        <time>2000-01-01T04:11:36.000Z</time>
      </trkpt>
      <trkpt lat="45.11839" lon="5.85559">
        <ele>1353.5</ele>
        <time>2000-01-01T04:11:46.000Z</time>
      </trkpt>
      <trkpt lat="45.11847" lon="5.85569">
        <ele>1354.7</ele>
        <time>2000-01-01T04:11:56.000Z</time>
      </trkpt>
      <trkpt lat="45.11852" lon="5.85574">
        <ele>1353</ele>
        <time>2000-01-01T04:12:06.000Z</time>
      </trkpt>
      <trkpt lat="45.11857" lon="5.85577">
        <ele>1354.8</ele>
        <time>2000-01-01T04:12:16.000Z</time>
      </trkpt>
      <trkpt lat="45.11873" lon="5.85598">
        <ele>1356</ele>
        <time>2000-01-01T04:12:26.000Z</time>
      </trkpt>
      <trkpt lat="45.11881" lon="5.85605">
        <ele>1357.3</ele>
        <time>2000-01-01T04:12:36.000Z</time>
      </trkpt>
      <trkpt lat="45.11881" lon="5.85607">
        <ele>1357.9</ele>
        <time>2000-01-01T04:12:46.000Z</time>
      </trkpt>
      <trkpt lat="45.11884" lon="5.85609">
        <ele>1357.7</ele>
        <time>2000-01-01T04:12:56.000Z</time>
      </trkpt>
      <trkpt lat="45.11885" lon="5.85615">
        <ele>1359.4</ele>
        <time>2000-01-01T04:13:06.000Z</time>
      </trkpt>
      <trkpt lat="45.11885" lon="5.8562">
        <ele>1362</ele>
        <time>2000-01-01T04:13:16.000Z</time>
      </trkpt>
      <trkpt lat="45.11891" lon="5.85631">
        <ele>1362.8</ele>
        <time>2000-01-01T04:13:26.000Z</time>
      </trkpt>
      <trkpt lat="45.11895" lon="5.85633">
        <ele>1362.1</ele>
        <time>2000-01-01T04:13:36.000Z</time>
      </trkpt>
      <trkpt lat="45.119" lon="5.85641">
        <ele>1364</ele>
        <time>2000-01-01T04:13:46.000Z</time>
      </trkpt>
      <trkpt lat="45.11903" lon="5.85651">
        <ele>1364.9</ele>
        <time>2000-01-01T04:13:56.000Z</time>
      </trkpt>
      <trkpt lat="45.11905" lon="5.8566">
        <ele>1366.9</ele>
        <time>2000-01-01T04:14:06.000Z</time>
      </trkpt>
      <trkpt lat="45.11908" lon="5.85663">
        <ele>1366.8</ele>
        <time>2000-01-01T04:14:16.000Z</time>
      </trkpt>
      <trkpt lat="45.11909" lon="5.85665">
        <ele>1369</ele>
        <time>2000-01-01T04:14:26.000Z</time>
      </trkpt>
      <trkpt lat="45.11909" lon="5.85673">
        <ele>1369.1</ele>
        <time>2000-01-01T04:14:36.000Z</time>
      </trkpt>
      <trkpt lat="45.11913" lon="5.85692">
        <ele>1372</ele>
        <time>2000-01-01T04:14:46.000Z</time>
      </trkpt>
      <trkpt lat="45.11915" lon="5.85696">
        <ele>1372.9</ele>
        <time>2000-01-01T04:14:56.000Z</time>
      </trkpt>
      <trkpt lat="45.11914" lon="5.85715">
        <ele>1377.4</ele>
        <time>2000-01-01T04:15:06.000Z</time>
      </trkpt>
      <trkpt lat="45.11915" lon="5.85716">
        <ele>1377.2</ele>
        <time>2000-01-01T04:15:16.000Z</time>
      </trkpt>
      <trkpt lat="45.11915" lon="5.85722">
        <ele>1379</ele>
        <time>2000-01-01T04:15:26.000Z</time>
      </trkpt>
      <trkpt lat="45.11918" lon="5.85724">
        <ele>1377.8</ele>
        <time>2000-01-01T04:15:36.000Z</time>
      </trkpt>
      <trkpt lat="45.11919" lon="5.85726">
        <ele>1377.8</ele>
        <time>2000-01-01T04:15:46.000Z</time>
      </trkpt>
      <trkpt lat="45.11917" lon="5.85748">
        <ele>1384</ele>
        <time>2000-01-01T04:15:56.000Z</time>
      </trkpt>
      <trkpt lat="45.1192" lon="5.85758">
        <ele>1384.1</ele>
        <time>2000-01-01T04:16:06.000Z</time>
      </trkpt>
      <trkpt lat="45.11918" lon="5.85762">
        <ele>1385.9</ele>
        <time>2000-01-01T04:16:16.000Z</time>
      </trkpt>
      <trkpt lat="45.11917" lon="5.85767">
        <ele>1387.5</ele>
        <time>2000-01-01T04:16:26.000Z</time>
      </trkpt>
      <trkpt lat="45.1192" lon="5.85778">
        <ele>1387</ele>
        <time>2000-01-01T04:16:36.000Z</time>
      </trkpt>
      <trkpt lat="45.11921" lon="5.8578">
        <ele>1387.7</ele>
        <time>2000-01-01T04:16:46.000Z</time>
      </trkpt>
      <trkpt lat="45.11924" lon="5.85798">
        <ele>1387.8</ele>
        <time>2000-01-01T04:16:56.000Z</time>
      </trkpt>
      <trkpt lat="45.11923" lon="5.85812">
        <ele>1391</ele>
        <time>2000-01-01T04:17:06.000Z</time>
      </trkpt>
      <trkpt lat="45.11924" lon="5.8582">
        <ele>1388.8</ele>
        <time>2000-01-01T04:17:16.000Z</time>
      </trkpt>
      <trkpt lat="45.11924" lon="5.8583">
        <ele>1388.9</ele>
        <time>2000-01-01T04:17:26.000Z</time>
      </trkpt>
      <trkpt lat="45.11922" lon="5.85843">
        <ele>1391</ele>
        <time>2000-01-01T04:17:36.000Z</time>
      </trkpt>
      <trkpt lat="45.11919" lon="5.8585">
        <ele>1390.5</ele>
        <time>2000-01-01T04:17:46.000Z</time>
      </trkpt>
      <trkpt lat="45.11918" lon="5.85855">
        <ele>1390.7</ele>
        <time>2000-01-01T04:17:56.000Z</time>
      </trkpt>
      <trkpt lat="45.11905" lon="5.85873">
        <ele>1400</ele>
        <time>2000-01-01T04:18:06.000Z</time>
      </trkpt>
      <trkpt lat="45.11902" lon="5.85875">
        <ele>1396.2</ele>
        <time>2000-01-01T04:18:16.000Z</time>
      </trkpt>
      <trkpt lat="45.119" lon="5.85883">
        <ele>1396.3</ele>
        <time>2000-01-01T04:18:26.000Z</time>
      </trkpt>
      <trkpt lat="45.11901" lon="5.85886">
        <ele>1395.4</ele>
        <time>2000-01-01T04:18:36.000Z</time>
      </trkpt>
      <trkpt lat="45.11897" lon="5.85896">
        <ele>1401</ele>
        <time>2000-01-01T04:18:46.000Z</time>
      </trkpt>
      <trkpt lat="45.1189" lon="5.85909">
        <ele>1398.4</ele>
        <time>2000-01-01T04:18:56.000Z</time>
      </trkpt>
      <trkpt lat="45.11887" lon="5.85923">
        <ele>1401</ele>
        <time>2000-01-01T04:19:06.000Z</time>
      </trkpt>
      <trkpt lat="45.11887" lon="5.85935">
        <ele>1395.7</ele>
        <time>2000-01-01T04:19:16.000Z</time>
      </trkpt>
      <trkpt lat="45.11874" lon="5.85949">
        <ele>1405</ele>
        <time>2000-01-01T04:19:26.000Z</time>
      </trkpt>
      <trkpt lat="45.11874" lon="5.85951">
        <ele>1400</ele>
        <time>2000-01-01T04:19:36.000Z</time>
      </trkpt>
      <trkpt lat="45.11873" lon="5.85955">
        <ele>1400</ele>
        <time>2000-01-01T04:19:46.000Z</time>
      </trkpt>
      <trkpt lat="45.11866" lon="5.85963">
        <ele>1403</ele>
        <time>2000-01-01T04:19:56.000Z</time>
      </trkpt>
      <trkpt lat="45.1186" lon="5.85978">
        <ele>1410</ele>
        <time>2000-01-01T04:20:06.000Z</time>
      </trkpt>
      <trkpt lat="45.11844" lon="5.86001">
        <ele>1411</ele>
        <time>2000-01-01T04:20:16.000Z</time>
      </trkpt>
      <trkpt lat="45.11838" lon="5.86017">
        <ele>1407.5</ele>
        <time>2000-01-01T04:20:26.000Z</time>
      </trkpt>
      <trkpt lat="45.11835" lon="5.86022">
        <ele>1408.2</ele>
        <time>2000-01-01T04:20:36.000Z</time>
      </trkpt>
      <trkpt lat="45.11825" lon="5.86027">
        <ele>1414</ele>
        <time>2000-01-01T04:20:46.000Z</time>
      </trkpt>
      <trkpt lat="45.1181" lon="5.86036">
        <ele>1415.7</ele>
        <time>2000-01-01T04:20:56.000Z</time>
      </trkpt>
      <trkpt lat="45.11803" lon="5.86043">
        <ele>1418</ele>
        <time>2000-01-01T04:21:06.000Z</time>
      </trkpt>
      <trkpt lat="45.11793" lon="5.86059">
        <ele>1417.5</ele>
        <time>2000-01-01T04:21:16.000Z</time>
      </trkpt>
      <trkpt lat="45.11789" lon="5.86058">
        <ele>1423</ele>
        <time>2000-01-01T04:21:26.000Z</time>
      </trkpt>
      <trkpt lat="45.11775" lon="5.86075">
        <ele>1420.8</ele>
        <time>2000-01-01T04:21:36.000Z</time>
      </trkpt>
      <trkpt lat="45.11767" lon="5.86088">
        <ele>1424</ele>
        <time>2000-01-01T04:21:46.000Z</time>
      </trkpt>
      <trkpt lat="45.11754" lon="5.86104">
        <ele>1423.2</ele>
        <time>2000-01-01T04:21:56.000Z</time>
      </trkpt>
      <trkpt lat="45.11752" lon="5.86111">
        <ele>1424</ele>
        <time>2000-01-01T04:22:06.000Z</time>
      </trkpt>
      <trkpt lat="45.11746" lon="5.86121">
        <ele>1424</ele>
        <time>2000-01-01T04:22:16.000Z</time>
      </trkpt>
      <trkpt lat="45.1174" lon="5.86126">
        <ele>1425.3</ele>
        <time>2000-01-01T04:22:26.000Z</time>
      </trkpt>
      <trkpt lat="45.11733" lon="5.86129">
        <ele>1428</ele>
        <time>2000-01-01T04:22:36.000Z</time>
      </trkpt>
      <trkpt lat="45.11727" lon="5.86141">
        <ele>1428.5</ele>
        <time>2000-01-01T04:22:46.000Z</time>
      </trkpt>
      <trkpt lat="45.11726" lon="5.86144">
        <ele>1428.9</ele>
        <time>2000-01-01T04:22:56.000Z</time>
      </trkpt>
      <trkpt lat="45.11724" lon="5.86158">
        <ele>1431</ele>
        <time>2000-01-01T04:23:06.000Z</time>
      </trkpt>
      <trkpt lat="45.11721" lon="5.86171">
        <ele>1431.3</ele>
        <time>2000-01-01T04:23:16.000Z</time>
      </trkpt>
      <trkpt lat="45.11721" lon="5.86175">
        <ele>1431.1</ele>
        <time>2000-01-01T04:23:26.000Z</time>
      </trkpt>
      <trkpt lat="45.1172" lon="5.86178">
        <ele>1431.4</ele>
        <time>2000-01-01T04:23:36.000Z</time>
      </trkpt>
      <trkpt lat="45.1172" lon="5.86183">
        <ele>1431.3</ele>
        <time>2000-01-01T04:23:46.000Z</time>
      </trkpt>
      <trkpt lat="45.11717" lon="5.86199">
        <ele>1432</ele>
        <time>2000-01-01T04:23:56.000Z</time>
      </trkpt>
      <trkpt lat="45.11719" lon="5.86202">
        <ele>1430.7</ele>
        <time>2000-01-01T04:24:06.000Z</time>
      </trkpt>
      <trkpt lat="45.11718" lon="5.86212">
        <ele>1430.2</ele>
        <time>2000-01-01T04:24:16.000Z</time>
      </trkpt>
      <trkpt lat="45.11714" lon="5.86224">
        <ele>1434</ele>
        <time>2000-01-01T04:24:26.000Z</time>
      </trkpt>
      <trkpt lat="45.11711" lon="5.86235">
        <ele>1431.6</ele>
        <time>2000-01-01T04:24:36.000Z</time>
      </trkpt>
      <trkpt lat="45.11704" lon="5.86248">
        <ele>1437</ele>
        <time>2000-01-01T04:24:46.000Z</time>
      </trkpt>
      <trkpt lat="45.11693" lon="5.86259">
        <ele>1439.7</ele>
        <time>2000-01-01T04:24:56.000Z</time>
      </trkpt>
      <trkpt lat="45.11686" lon="5.86272">
        <ele>1446</ele>
        <time>2000-01-01T04:25:06.000Z</time>
      </trkpt>
      <trkpt lat="45.11683" lon="5.86279">
        <ele>1442.6</ele>
        <time>2000-01-01T04:25:16.000Z</time>
      </trkpt>
      <trkpt lat="45.1168" lon="5.86284">
        <ele>1443.6</ele>
        <time>2000-01-01T04:25:26.000Z</time>
      </trkpt>
      <trkpt lat="45.11668" lon="5.86294">
        <ele>1454</ele>
        <time>2000-01-01T04:25:36.000Z</time>
      </trkpt>
      <trkpt lat="45.11668" lon="5.86296">
        <ele>1449</ele>
        <time>2000-01-01T04:25:46.000Z</time>
      </trkpt>
      <trkpt lat="45.11657" lon="5.86316">
        <ele>1454</ele>
        <time>2000-01-01T04:25:56.000Z</time>
      </trkpt>
      <trkpt lat="45.11653" lon="5.86336">
        <ele>1453.8</ele>
        <time>2000-01-01T04:26:06.000Z</time>
      </trkpt>
      <trkpt lat="45.11655" lon="5.86347">
        <ele>1452</ele>
        <time>2000-01-01T04:26:16.000Z</time>
      </trkpt>
      <trkpt lat="45.1166" lon="5.86362">
        <ele>1448.8</ele>
        <time>2000-01-01T04:26:26.000Z</time>
      </trkpt>
      <trkpt lat="45.11662" lon="5.86379">
        <ele>1453</ele>
        <time>2000-01-01T04:26:36.000Z</time>
      </trkpt>
      <trkpt lat="45.11661" lon="5.86387">
        <ele>1447.5</ele>
        <time>2000-01-01T04:26:46.000Z</time>
      </trkpt>
      <trkpt lat="45.11658" lon="5.86393">
        <ele>1449.4</ele>
        <time>2000-01-01T04:26:56.000Z</time>
      </trkpt>
      <trkpt lat="45.1165" lon="5.86404">
        <ele>1455</ele>
        <time>2000-01-01T04:27:06.000Z</time>
      </trkpt>
      <trkpt lat="45.11642" lon="5.86412">
        <ele>1460.6</ele>
        <time>2000-01-01T04:27:16.000Z</time>
      </trkpt>
      <trkpt lat="45.11637" lon="5.8642">
        <ele>1464.3</ele>
        <time>2000-01-01T04:27:26.000Z</time>
      </trkpt>
      <trkpt lat="45.11633" lon="5.8642">
        <ele>1469</ele>
        <time>2000-01-01T04:27:36.000Z</time>
      </trkpt>
      <trkpt lat="45.11627" lon="5.8643">
        <ele>1470.6</ele>
        <time>2000-01-01T04:27:46.000Z</time>
      </trkpt>
      <trkpt lat="45.11629" lon="5.86443">
        <ele>1470.6</ele>
        <time>2000-01-01T04:27:56.000Z</time>
      </trkpt>
      <trkpt lat="45.11631" lon="5.86444">
        <ele>1465</ele>
        <time>2000-01-01T04:28:06.000Z</time>
      </trkpt>
      <trkpt lat="45.11636" lon="5.86458">
        <ele>1468.2</ele>
        <time>2000-01-01T04:28:16.000Z</time>
      </trkpt>
      <trkpt lat="45.11636" lon="5.8646">
        <ele>1468.4</ele>
        <time>2000-01-01T04:28:26.000Z</time>
      </trkpt>
      <trkpt lat="45.11641" lon="5.86463">
        <ele>1465.4</ele>
        <time>2000-01-01T04:28:36.000Z</time>
      </trkpt>
      <trkpt lat="45.11655" lon="5.86486">
        <ele>1461</ele>
        <time>2000-01-01T04:28:46.000Z</time>
      </trkpt>
      <trkpt lat="45.11658" lon="5.8649">
        <ele>1455</ele>
        <time>2000-01-01T04:28:56.000Z</time>
      </trkpt>
      <trkpt lat="45.11664" lon="5.86502">
        <ele>1451.3</ele>
        <time>2000-01-01T04:29:06.000Z</time>
      </trkpt>
      <trkpt lat="45.11663" lon="5.86504">
        <ele>1452.4</ele>
        <time>2000-01-01T04:29:16.000Z</time>
      </trkpt>
      <trkpt lat="45.11663" lon="5.86511">
        <ele>1461</ele>
        <time>2000-01-01T04:29:26.000Z</time>
      </trkpt>
      <trkpt lat="45.11664" lon="5.86519">
        <ele>1453.2</ele>
        <time>2000-01-01T04:29:36.000Z</time>
      </trkpt>
      <trkpt lat="45.11666" lon="5.86527">
        <ele>1452.5</ele>
        <time>2000-01-01T04:29:46.000Z</time>
      </trkpt>
      <trkpt lat="45.11665" lon="5.8653">
        <ele>1453.6</ele>
        <time>2000-01-01T04:29:56.000Z</time>
      </trkpt>
      <trkpt lat="45.11667" lon="5.86543">
        <ele>1461</ele>
        <time>2000-01-01T04:30:06.000Z</time>
      </trkpt>
      <trkpt lat="45.11662" lon="5.86553">
        <ele>1458.7</ele>
        <time>2000-01-01T04:30:16.000Z</time>
      </trkpt>
      <trkpt lat="45.11659" lon="5.86575">
        <ele>1464</ele>
        <time>2000-01-01T04:30:26.000Z</time>
      </trkpt>
      <trkpt lat="45.11661" lon="5.86587">
        <ele>1462.7</ele>
        <time>2000-01-01T04:30:36.000Z</time>
      </trkpt>
      <trkpt lat="45.11664" lon="5.86611">
        <ele>1468</ele>
        <time>2000-01-01T04:30:46.000Z</time>
      </trkpt>
      <trkpt lat="45.1166" lon="5.86622">
        <ele>1467.4</ele>
        <time>2000-01-01T04:30:56.000Z</time>
      </trkpt>
      <trkpt lat="45.11653" lon="5.86636">
        <ele>1481</ele>
        <time>2000-01-01T04:31:06.000Z</time>
      </trkpt>
      <trkpt lat="45.11654" lon="5.86649">
        <ele>1477.8</ele>
        <time>2000-01-01T04:31:16.000Z</time>
      </trkpt>
      <trkpt lat="45.11655" lon="5.86681">
        <ele>1486</ele>
        <time>2000-01-01T04:31:26.000Z</time>
      </trkpt>
      <trkpt lat="45.11649" lon="5.86689">
        <ele>1487.9</ele>
        <time>2000-01-01T04:31:36.000Z</time>
      </trkpt>
      <trkpt lat="45.11651" lon="5.86711">
        <ele>1488</ele>
        <time>2000-01-01T04:31:46.000Z</time>
      </trkpt>
      <trkpt lat="45.11648" lon="5.86726">
        <ele>1491.2</ele>
        <time>2000-01-01T04:31:56.000Z</time>
      </trkpt>
      <trkpt lat="45.11647" lon="5.86735">
        <ele>1493.1</ele>
        <time>2000-01-01T04:32:06.000Z</time>
      </trkpt>
      <trkpt lat="45.11646" lon="5.86736">
        <ele>1494.4</ele>
        <time>2000-01-01T04:32:16.000Z</time>
      </trkpt>
      <trkpt lat="45.11642" lon="5.86759">
        <ele>1501</ele>
        <time>2000-01-01T04:32:26.000Z</time>
      </trkpt>
      <trkpt lat="45.1164" lon="5.86765">
        <ele>1503.8</ele>
        <time>2000-01-01T04:32:36.000Z</time>
      </trkpt>
      <trkpt lat="45.1164" lon="5.86771">
        <ele>1504.2</ele>
        <time>2000-01-01T04:32:46.000Z</time>
      </trkpt>
      <trkpt lat="45.11639" lon="5.86774">
        <ele>1505.6</ele>
        <time>2000-01-01T04:32:56.000Z</time>
      </trkpt>
      <trkpt lat="45.11637" lon="5.86787">
        <ele>1516</ele>
        <time>2000-01-01T04:33:06.000Z</time>
      </trkpt>
      <trkpt lat="45.11637" lon="5.86794">
        <ele>1508.8</ele>
        <time>2000-01-01T04:33:16.000Z</time>
      </trkpt>
      <trkpt lat="45.11638" lon="5.86802">
        <ele>1508.5</ele>
        <time>2000-01-01T04:33:26.000Z</time>
      </trkpt>
      <trkpt lat="45.11637" lon="5.86807">
        <ele>1509.9</ele>
        <time>2000-01-01T04:33:36.000Z</time>
      </trkpt>
      <trkpt lat="45.11637" lon="5.86815">
        <ele>1518</ele>
        <time>2000-01-01T04:33:46.000Z</time>
      </trkpt>
      <trkpt lat="45.11638" lon="5.86822">
        <ele>1511.2</ele>
        <time>2000-01-01T04:33:56.000Z</time>
      </trkpt>
      <trkpt lat="45.1164" lon="5.8683">
        <ele>1510.4</ele>
        <time>2000-01-01T04:34:06.000Z</time>
      </trkpt>
      <trkpt lat="45.11645" lon="5.86867">
        <ele>1518</ele>
        <time>2000-01-01T04:34:16.000Z</time>
      </trkpt>
      <trkpt lat="45.11644" lon="5.86871">
        <ele>1519.2</ele>
        <time>2000-01-01T04:34:26.000Z</time>
      </trkpt>
      <trkpt lat="45.11641" lon="5.86876">
        <ele>1524</ele>
        <time>2000-01-01T04:34:36.000Z</time>
      </trkpt>
      <trkpt lat="45.11638" lon="5.86888">
        <ele>1531.4</ele>
        <time>2000-01-01T04:34:46.000Z</time>
      </trkpt>
      <trkpt lat="45.1164" lon="5.86896">
        <ele>1529</ele>
        <time>2000-01-01T04:34:56.000Z</time>
      </trkpt>
      <trkpt lat="45.11642" lon="5.86898">
        <ele>1532.2</ele>
        <time>2000-01-01T04:35:06.000Z</time>
      </trkpt>
      <trkpt lat="45.11648" lon="5.86917">
        <ele>1535.6</ele>
        <time>2000-01-01T04:35:16.000Z</time>
      </trkpt>
      <trkpt lat="45.11651" lon="5.86922">
        <ele>1536</ele>
        <time>2000-01-01T04:35:26.000Z</time>
      </trkpt>
      <trkpt lat="45.11657" lon="5.86943">
        <ele>1540.3</ele>
        <time>2000-01-01T04:35:36.000Z</time>
      </trkpt>
      <trkpt lat="45.11657" lon="5.86952">
        <ele>1539</ele>
        <time>2000-01-01T04:35:46.000Z</time>
      </trkpt>
      <trkpt lat="45.11662" lon="5.86957">
        <ele>1543.5</ele>
        <time>2000-01-01T04:35:56.000Z</time>
      </trkpt>
      <trkpt lat="45.11667" lon="5.86964">
        <ele>1543.6</ele>
        <time>2000-01-01T04:36:06.000Z</time>
      </trkpt>
      <trkpt lat="45.1167" lon="5.8697">
        <ele>1544.8</ele>
        <time>2000-01-01T04:36:16.000Z</time>
      </trkpt>
      <trkpt lat="45.11672" lon="5.86977">
        <ele>1543</ele>
        <time>2000-01-01T04:36:26.000Z</time>
      </trkpt>
      <trkpt lat="45.11673" lon="5.86985">
        <ele>1549.9</ele>
        <time>2000-01-01T04:36:36.000Z</time>
      </trkpt>
      <trkpt lat="45.11675" lon="5.86992">
        <ele>1551.9</ele>
        <time>2000-01-01T04:36:46.000Z</time>
      </trkpt>
      <trkpt lat="45.11679" lon="5.86996">
        <ele>1551.5</ele>
        <time>2000-01-01T04:36:56.000Z</time>
      </trkpt>
      <trkpt lat="45.11684" lon="5.87011">
        <ele>1558</ele>
        <time>2000-01-01T04:37:06.000Z</time>
      </trkpt>
      <trkpt lat="45.11688" lon="5.87015">
        <ele>1555.8</ele>
        <time>2000-01-01T04:37:16.000Z</time>
      </trkpt>
      <trkpt lat="45.11689" lon="5.8702">
        <ele>1557.7</ele>
        <time>2000-01-01T04:37:26.000Z</time>
      </trkpt>
      <trkpt lat="45.11693" lon="5.87023">
        <ele>1557.3</ele>
        <time>2000-01-01T04:37:36.000Z</time>
      </trkpt>
      <trkpt lat="45.11694" lon="5.87026">
        <ele>1558.3</ele>
        <time>2000-01-01T04:37:46.000Z</time>
      </trkpt>
      <trkpt lat="45.11696" lon="5.87028">
        <ele>1558.3</ele>
        <time>2000-01-01T04:37:56.000Z</time>
      </trkpt>
      <trkpt lat="45.11698" lon="5.87035">
        <ele>1561</ele>
        <time>2000-01-01T04:38:06.000Z</time>
      </trkpt>
      <trkpt lat="45.11701" lon="5.87037">
        <ele>1559.8</ele>
        <time>2000-01-01T04:38:16.000Z</time>
      </trkpt>
      <trkpt lat="45.11709" lon="5.87054">
        <ele>1563.5</ele>
        <time>2000-01-01T04:38:26.000Z</time>
      </trkpt>
      <trkpt lat="45.11713" lon="5.87057">
        <ele>1561</ele>
        <time>2000-01-01T04:38:36.000Z</time>
      </trkpt>
      <trkpt lat="45.11719" lon="5.8707">
        <ele>1566.2</ele>
        <time>2000-01-01T04:38:46.000Z</time>
      </trkpt>
      <trkpt lat="45.11719" lon="5.87072">
        <ele>1567.1</ele>
        <time>2000-01-01T04:38:56.000Z</time>
      </trkpt>
      <trkpt lat="45.11723" lon="5.87079">
        <ele>1568.6</ele>
        <time>2000-01-01T04:39:06.000Z</time>
      </trkpt>
      <trkpt lat="45.11728" lon="5.87084">
        <ele>1563</ele>
        <time>2000-01-01T04:39:16.000Z</time>
      </trkpt>
      <trkpt lat="45.1173" lon="5.87085">
        <ele>1568.1</ele>
        <time>2000-01-01T04:39:26.000Z</time>
      </trkpt>
      <trkpt lat="45.1173" lon="5.87087">
        <ele>1569.1</ele>
        <time>2000-01-01T04:39:36.000Z</time>
      </trkpt>
      <trkpt lat="45.11735" lon="5.87091">
        <ele>1568.6</ele>
        <time>2000-01-01T04:39:46.000Z</time>
      </trkpt>
      <trkpt lat="45.11737" lon="5.87091">
        <ele>1567.7</ele>
        <time>2000-01-01T04:39:56.000Z</time>
      </trkpt>
      <trkpt lat="45.11742" lon="5.87098">
        <ele>1568.6</ele>
        <time>2000-01-01T04:40:06.000Z</time>
      </trkpt>
      <trkpt lat="45.11743" lon="5.87097">
        <ele>1565</ele>
        <time>2000-01-01T04:40:16.000Z</time>
      </trkpt>
      <trkpt lat="45.11754" lon="5.87108">
        <ele>1567.8</ele>
        <time>2000-01-01T04:40:26.000Z</time>
      </trkpt>
      <trkpt lat="45.11765" lon="5.87122">
        <ele>1570</ele>
        <time>2000-01-01T04:40:36.000Z</time>
      </trkpt>
      <trkpt lat="45.11771" lon="5.87137">
        <ele>1575</ele>
        <time>2000-01-01T04:40:46.000Z</time>
      </trkpt>
      <trkpt lat="45.11773" lon="5.87145">
        <ele>1578.2</ele>
        <time>2000-01-01T04:40:56.000Z</time>
      </trkpt>
      <trkpt lat="45.11784" lon="5.87162">
        <ele>1584</ele>
        <time>2000-01-01T04:41:06.000Z</time>
      </trkpt>
      <trkpt lat="45.11787" lon="5.87172">
        <ele>1586</ele>
        <time>2000-01-01T04:41:16.000Z</time>
      </trkpt>
      <trkpt lat="45.11789" lon="5.87175">
        <ele>1586.6</ele>
        <time>2000-01-01T04:41:26.000Z</time>
      </trkpt>
      <trkpt lat="45.11792" lon="5.87185">
        <ele>1590.3</ele>
        <time>2000-01-01T04:41:36.000Z</time>
      </trkpt>
      <trkpt lat="45.11798" lon="5.87194">
        <ele>1593</ele>
        <time>2000-01-01T04:41:46.000Z</time>
      </trkpt>
      <trkpt lat="45.11803" lon="5.872">
        <ele>1592.5</ele>
        <time>2000-01-01T04:41:56.000Z</time>
      </trkpt>
      <trkpt lat="45.11816" lon="5.87223">
        <ele>1599</ele>
        <time>2000-01-01T04:42:06.000Z</time>
      </trkpt>
      <trkpt lat="45.11824" lon="5.87235">
        <ele>1598.6</ele>
        <time>2000-01-01T04:42:16.000Z</time>
      </trkpt>
      <trkpt lat="45.11824" lon="5.87245">
        <ele>1602.4</ele>
        <time>2000-01-01T04:42:26.000Z</time>
      </trkpt>
      <trkpt lat="45.11823" lon="5.87254">
        <ele>1600</ele>
        <time>2000-01-01T04:42:36.000Z</time>
      </trkpt>
      <trkpt lat="45.11824" lon="5.87256">
        <ele>1606.3</ele>
        <time>2000-01-01T04:42:46.000Z</time>
      </trkpt>
      <trkpt lat="45.11823" lon="5.8726">
        <ele>1608</ele>
        <time>2000-01-01T04:42:56.000Z</time>
      </trkpt>
      <trkpt lat="45.11833" lon="5.87268">
        <ele>1607</ele>
        <time>2000-01-01T04:43:06.000Z</time>
      </trkpt>
      <trkpt lat="45.11855" lon="5.87274">
        <ele>1601</ele>
        <time>2000-01-01T04:43:16.000Z</time>
      </trkpt>
      <trkpt lat="45.11856" lon="5.87278">
        <ele>1602.7</ele>
        <time>2000-01-01T04:43:26.000Z</time>
      </trkpt>
      <trkpt lat="45.11865" lon="5.87289">
        <ele>1603</ele>
        <time>2000-01-01T04:43:36.000Z</time>
      </trkpt>
      <trkpt lat="45.11872" lon="5.87301">
        <ele>1604</ele>
        <time>2000-01-01T04:43:46.000Z</time>
      </trkpt>
      <trkpt lat="45.11878" lon="5.87317">
        <ele>1607.3</ele>
        <time>2000-01-01T04:43:56.000Z</time>
      </trkpt>
      <trkpt lat="45.11883" lon="5.87322">
        <ele>1607.3</ele>
        <time>2000-01-01T04:44:06.000Z</time>
      </trkpt>
      <trkpt lat="45.11885" lon="5.87325">
        <ele>1607</ele>
        <time>2000-01-01T04:44:16.000Z</time>
      </trkpt>
      <trkpt lat="45.11892" lon="5.87331">
        <ele>1607.5</ele>
        <time>2000-01-01T04:44:26.000Z</time>
      </trkpt>
      <trkpt lat="45.11897" lon="5.87342">
        <ele>1609.5</ele>
        <time>2000-01-01T04:44:36.000Z</time>
      </trkpt>
      <trkpt lat="45.11904" lon="5.8735">
        <ele>1611</ele>
        <time>2000-01-01T04:44:46.000Z</time>
      </trkpt>
      <trkpt lat="45.11907" lon="5.87351">
        <ele>1609.9</ele>
        <time>2000-01-01T04:44:56.000Z</time>
      </trkpt>
      <trkpt lat="45.11911" lon="5.87363">
        <ele>1612.7</ele>
        <time>2000-01-01T04:45:06.000Z</time>
      </trkpt>
      <trkpt lat="45.11911" lon="5.87373">
        <ele>1614</ele>
        <time>2000-01-01T04:45:16.000Z</time>
      </trkpt>
      <trkpt lat="45.11925" lon="5.87396">
        <ele>1615</ele>
        <time>2000-01-01T04:45:26.000Z</time>
      </trkpt>
      <trkpt lat="45.11935" lon="5.874">
        <ele>1617.4</ele>
        <time>2000-01-01T04:45:36.000Z</time>
      </trkpt>
      <trkpt lat="45.11947" lon="5.87406">
        <ele>1616</ele>
        <time>2000-01-01T04:45:46.000Z</time>
      </trkpt>
      <trkpt lat="45.11956" lon="5.87413">
        <ele>1617.3</ele>
        <time>2000-01-01T04:45:56.000Z</time>
      </trkpt>
      <trkpt lat="45.11962" lon="5.87421">
        <ele>1618.9</ele>
        <time>2000-01-01T04:46:06.000Z</time>
      </trkpt>
      <trkpt lat="45.1198" lon="5.87435">
        <ele>1617</ele>
        <time>2000-01-01T04:46:16.000Z</time>
      </trkpt>
      <trkpt lat="45.11993" lon="5.8744">
        <ele>1622.8</ele>
        <time>2000-01-01T04:46:26.000Z</time>
      </trkpt>
      <trkpt lat="45.11998" lon="5.8744">
        <ele>1622.6</ele>
        <time>2000-01-01T04:46:36.000Z</time>
      </trkpt>
      <trkpt lat="45.12002" lon="5.87436">
        <ele>1619</ele>
        <time>2000-01-01T04:46:46.000Z</time>
      </trkpt>
      <trkpt lat="45.1201" lon="5.87431">
        <ele>1619.3</ele>
        <time>2000-01-01T04:46:56.000Z</time>
      </trkpt>
      <trkpt lat="45.12014" lon="5.87432">
        <ele>1619.5</ele>
        <time>2000-01-01T04:47:06.000Z</time>
      </trkpt>
      <trkpt lat="45.12014" lon="5.87433">
        <ele>1619.9</ele>
        <time>2000-01-01T04:47:16.000Z</time>
      </trkpt>
      <trkpt lat="45.12021" lon="5.87432">
        <ele>1619</ele>
        <time>2000-01-01T04:47:26.000Z</time>
      </trkpt>
      <trkpt lat="45.12028" lon="5.87435">
        <ele>1620.2</ele>
        <time>2000-01-01T04:47:36.000Z</time>
      </trkpt>
      <trkpt lat="45.12036" lon="5.87435">
        <ele>1619.4</ele>
        <time>2000-01-01T04:47:46.000Z</time>
      </trkpt>
      <trkpt lat="45.12041" lon="5.87437">
        <ele>1622</ele>
        <time>2000-01-01T04:47:56.000Z</time>
      </trkpt>
      <trkpt lat="45.12053" lon="5.87449">
        <ele>1622.9</ele>
        <time>2000-01-01T04:48:06.000Z</time>
      </trkpt>
      <trkpt lat="45.12062" lon="5.87462">
        <ele>1625</ele>
        <time>2000-01-01T04:48:16.000Z</time>
      </trkpt>
      <trkpt lat="45.12068" lon="5.87473">
        <ele>1627.7</ele>
        <time>2000-01-01T04:48:26.000Z</time>
      </trkpt>
      <trkpt lat="45.12071" lon="5.87482">
        <ele>1629.5</ele>
        <time>2000-01-01T04:48:36.000Z</time>
      </trkpt>
      <trkpt lat="45.12079" lon="5.87489">
        <ele>1629</ele>
        <time>2000-01-01T04:48:46.000Z</time>
      </trkpt>
      <trkpt lat="45.12086" lon="5.87502">
        <ele>1630.4</ele>
        <time>2000-01-01T04:48:56.000Z</time>
      </trkpt>
      <trkpt lat="45.12087" lon="5.87516">
        <ele>1636</ele>
        <time>2000-01-01T04:49:06.000Z</time>
      </trkpt>
      <trkpt lat="45.12093" lon="5.87526">
        <ele>1635.5</ele>
        <time>2000-01-01T04:49:16.000Z</time>
      </trkpt>
      <trkpt lat="45.12095" lon="5.87536">
        <ele>1638</ele>
        <time>2000-01-01T04:49:26.000Z</time>
      </trkpt>
      <trkpt lat="45.12102" lon="5.8755">
        <ele>1641</ele>
        <time>2000-01-01T04:49:36.000Z</time>
      </trkpt>
      <trkpt lat="45.12103" lon="5.87559">
        <ele>1642.5</ele>
        <time>2000-01-01T04:49:46.000Z</time>
      </trkpt>
      <trkpt lat="45.12111" lon="5.87572">
        <ele>1643.4</ele>
        <time>2000-01-01T04:49:56.000Z</time>
      </trkpt>
      <trkpt lat="45.12147" lon="5.87611">
        <ele>1640</ele>
        <time>2000-01-01T04:50:06.000Z</time>
      </trkpt>
      <trkpt lat="45.12154" lon="5.87621">
        <ele>1640.3</ele>
        <time>2000-01-01T04:50:16.000Z</time>
      </trkpt>
      <trkpt lat="45.12167" lon="5.87633">
        <ele>1640</ele>
        <time>2000-01-01T04:50:26.000Z</time>
      </trkpt>
      <trkpt lat="45.12189" lon="5.87662">
        <ele>1638</ele>
        <time>2000-01-01T04:50:36.000Z</time>
      </trkpt>
      <trkpt lat="45.122" lon="5.87673">
        <ele>1638.8</ele>
        <time>2000-01-01T04:50:46.000Z</time>
      </trkpt>
      <trkpt lat="45.12214" lon="5.87684">
        <ele>1636</ele>
        <time>2000-01-01T04:50:56.000Z</time>
      </trkpt>
      <trkpt lat="45.12227" lon="5.877">
        <ele>1638</ele>
        <time>2000-01-01T04:51:06.000Z</time>
      </trkpt>
      <trkpt lat="45.12244" lon="5.87713">
        <ele>1636</ele>
        <time>2000-01-01T04:51:16.000Z</time>
      </trkpt>
      <trkpt lat="45.12257" lon="5.87721">
        <ele>1636</ele>
        <time>2000-01-01T04:51:26.000Z</time>
      </trkpt>
      <trkpt lat="45.12271" lon="5.87726">
        <ele>1635</ele>
        <time>2000-01-01T04:51:36.000Z</time>
      </trkpt>
      <trkpt lat="45.123" lon="5.87732">
        <ele>1634</ele>
        <time>2000-01-01T04:51:46.000Z</time>
      </trkpt>
      <trkpt lat="45.1231" lon="5.8774">
        <ele>1635</ele>
        <time>2000-01-01T04:51:56.000Z</time>
      </trkpt>
      <trkpt lat="45.12323" lon="5.87742">
        <ele>1634</ele>
        <time>2000-01-01T04:52:06.000Z</time>
      </trkpt>
      <trkpt lat="45.12339" lon="5.8774">
        <ele>1634.6</ele>
        <time>2000-01-01T04:52:16.000Z</time>
      </trkpt>
      <trkpt lat="45.12352" lon="5.8774">
        <ele>1634</ele>
        <time>2000-01-01T04:52:26.000Z</time>
      </trkpt>
      <trkpt lat="45.12367" lon="5.87749">
        <ele>1637.7</ele>
        <time>2000-01-01T04:52:36.000Z</time>
      </trkpt>
      <trkpt lat="45.12375" lon="5.87757">
        <ele>1638</ele>
        <time>2000-01-01T04:52:46.000Z</time>
      </trkpt>
      <trkpt lat="45.12381" lon="5.87758">
        <ele>1640.7</ele>
        <time>2000-01-01T04:52:56.000Z</time>
      </trkpt>
      <trkpt lat="45.1238" lon="5.87804">
        <ele>1641</ele>
        <time>2000-01-01T04:53:06.000Z</time>
      </trkpt>
      <trkpt lat="45.12401" lon="5.87802">
        <ele>1640</ele>
        <time>2000-01-01T04:53:16.000Z</time>
      </trkpt>
      <trkpt lat="45.12405" lon="5.87799">
        <ele>1644.7</ele>
        <time>2000-01-01T04:53:26.000Z</time>
      </trkpt>
      <trkpt lat="45.12406" lon="5.878">
        <ele>1644.7</ele>
        <time>2000-01-01T04:53:36.000Z</time>
      </trkpt>
      <trkpt lat="45.12408" lon="5.87808">
        <ele>1645.2</ele>
        <time>2000-01-01T04:53:46.000Z</time>
      </trkpt>
      <trkpt lat="45.12381" lon="5.87758">
        <ele>1640</ele>
        <time>2000-01-01T04:53:56.000Z</time>
      </trkpt>
      <trkpt lat="45.1238" lon="5.87804">
        <ele>1642</ele>
        <time>2000-01-01T04:54:06.000Z</time>
      </trkpt>
      <trkpt lat="45.12401" lon="5.87802">
        <ele>1644</ele>
        <time>2000-01-01T04:54:16.000Z</time>
      </trkpt>
      <trkpt lat="45.12405" lon="5.87799">
        <ele>1644.7</ele>
        <time>2000-01-01T04:54:26.000Z</time>
      </trkpt>
      <trkpt lat="45.12406" lon="5.878">
        <ele>1644.7</ele>
        <time>2000-01-01T04:54:36.000Z</time>
      </trkpt>
      <trkpt lat="45.1241" lon="5.87815">
        <ele>1645.8</ele>
        <time>2000-01-01T04:54:46.000Z</time>
      </trkpt>
      <trkpt lat="45.12411" lon="5.87816">
        <ele>1645.8</ele>
        <time>2000-01-01T04:54:56.000Z</time>
      </trkpt>
      <trkpt lat="45.12412" lon="5.87812">
        <ele>1644</ele>
        <time>2000-01-01T04:55:06.000Z</time>
      </trkpt>
      <trkpt lat="45.12417" lon="5.87818">
        <ele>1645.9</ele>
        <time>2000-01-01T04:55:16.000Z</time>
      </trkpt>
      <trkpt lat="45.12417" lon="5.87833">
        <ele>1647</ele>
        <time>2000-01-01T04:55:26.000Z</time>
      </trkpt>
      <trkpt lat="45.12423" lon="5.87836">
        <ele>1647</ele>
        <time>2000-01-01T04:55:36.000Z</time>
      </trkpt>
      <trkpt lat="45.12423" lon="5.8784">
        <ele>1648.3</ele>
        <time>2000-01-01T04:55:46.000Z</time>
      </trkpt>
      <trkpt lat="45.12421" lon="5.8785">
        <ele>1649.1</ele>
        <time>2000-01-01T04:55:56.000Z</time>
      </trkpt>
      <trkpt lat="45.12421" lon="5.8786">
        <ele>1650</ele>
        <time>2000-01-01T04:56:06.000Z</time>
      </trkpt>
      <trkpt lat="45.1242" lon="5.87865">
        <ele>1649</ele>
        <time>2000-01-01T04:56:16.000Z</time>
      </trkpt>
      <trkpt lat="45.12413" lon="5.87874">
        <ele>1650.8</ele>
        <time>2000-01-01T04:56:26.000Z</time>
      </trkpt>
      <trkpt lat="45.12406" lon="5.8788">
        <ele>1651.8</ele>
        <time>2000-01-01T04:56:36.000Z</time>
      </trkpt>
      <trkpt lat="45.1239" lon="5.87889">
        <ele>1655</ele>
        <time>2000-01-01T04:56:46.000Z</time>
      </trkpt>
      <trkpt lat="45.12382" lon="5.8789">
        <ele>1657.8</ele>
        <time>2000-01-01T04:56:56.000Z</time>
      </trkpt>
      <trkpt lat="45.1236" lon="5.87877">
        <ele>1658</ele>
        <time>2000-01-01T04:57:06.000Z</time>
      </trkpt>
      <trkpt lat="45.12353" lon="5.8787">
        <ele>1661.5</ele>
        <time>2000-01-01T04:57:16.000Z</time>
      </trkpt>
      <trkpt lat="45.12344" lon="5.87865">
        <ele>1662.4</ele>
        <time>2000-01-01T04:57:26.000Z</time>
      </trkpt>
      <trkpt lat="45.12332" lon="5.87857">
        <ele>1660</ele>
        <time>2000-01-01T04:57:36.000Z</time>
      </trkpt>
      <trkpt lat="45.12321" lon="5.87846">
        <ele>1663.1</ele>
        <time>2000-01-01T04:57:46.000Z</time>
      </trkpt>
      <trkpt lat="45.12309" lon="5.87837">
        <ele>1663</ele>
        <time>2000-01-01T04:57:56.000Z</time>
      </trkpt>
      <trkpt lat="45.123" lon="5.87832">
        <ele>1664.3</ele>
        <time>2000-01-01T04:58:06.000Z</time>
      </trkpt>
      <trkpt lat="45.12289" lon="5.8782">
        <ele>1663</ele>
        <time>2000-01-01T04:58:16.000Z</time>
      </trkpt>
      <trkpt lat="45.12282" lon="5.87815">
        <ele>1663.5</ele>
        <time>2000-01-01T04:58:26.000Z</time>
      </trkpt>
      <trkpt lat="45.12273" lon="5.87812">
        <ele>1665</ele>
        <time>2000-01-01T04:58:36.000Z</time>
      </trkpt>
      <trkpt lat="45.12253" lon="5.87795">
        <ele>1663</ele>
        <time>2000-01-01T04:58:46.000Z</time>
      </trkpt>
      <trkpt lat="45.12238" lon="5.8779">
        <ele>1667.2</ele>
        <time>2000-01-01T04:58:56.000Z</time>
      </trkpt>
      <trkpt lat="45.12237" lon="5.87791">
        <ele>1668.1</ele>
        <time>2000-01-01T04:59:06.000Z</time>
      </trkpt>
      <trkpt lat="45.12225" lon="5.87783">
        <ele>1669</ele>
        <time>2000-01-01T04:59:16.000Z</time>
      </trkpt>
      <trkpt lat="45.12211" lon="5.87768">
        <ele>1670.9</ele>
        <time>2000-01-01T04:59:26.000Z</time>
      </trkpt>
      <trkpt lat="45.12193" lon="5.87755">
        <ele>1674</ele>
        <time>2000-01-01T04:59:36.000Z</time>
      </trkpt>
      <trkpt lat="45.12192" lon="5.87753">
        <ele>1674.6</ele>
        <time>2000-01-01T04:59:46.000Z</time>
      </trkpt>
      <trkpt lat="45.1219" lon="5.87753">
        <ele>1675.6</ele>
        <time>2000-01-01T04:59:56.000Z</time>
      </trkpt>
      <trkpt lat="45.12187" lon="5.87749">
        <ele>1675.3</ele>
        <time>2000-01-01T05:00:06.000Z</time>
      </trkpt>
      <trkpt lat="45.12183" lon="5.87748">
        <ele>1676.9</ele>
        <time>2000-01-01T05:00:16.000Z</time>
      </trkpt>
      <trkpt lat="45.12177" lon="5.87744">
        <ele>1678.3</ele>
        <time>2000-01-01T05:00:26.000Z</time>
      </trkpt>
      <trkpt lat="45.12164" lon="5.87731">
        <ele>1681</ele>
        <time>2000-01-01T05:00:36.000Z</time>
      </trkpt>
      <trkpt lat="45.12157" lon="5.87726">
        <ele>1679.4</ele>
        <time>2000-01-01T05:00:46.000Z</time>
      </trkpt>
      <trkpt lat="45.12153" lon="5.87722">
        <ele>1679.3</ele>
        <time>2000-01-01T05:00:56.000Z</time>
      </trkpt>
      <trkpt lat="45.12142" lon="5.87719">
        <ele>1681</ele>
        <time>2000-01-01T05:01:06.000Z</time>
      </trkpt>
      <trkpt lat="45.12132" lon="5.8772">
        <ele>1685.6</ele>
        <time>2000-01-01T05:01:16.000Z</time>
      </trkpt>
      <trkpt lat="45.12107" lon="5.87737">
        <ele>1693</ele>
        <time>2000-01-01T05:01:26.000Z</time>
      </trkpt>
      <trkpt lat="45.12097" lon="5.87742">
        <ele>1695.4</ele>
        <time>2000-01-01T05:01:36.000Z</time>
      </trkpt>
      <trkpt lat="45.12072" lon="5.87741">
        <ele>1695</ele>
        <time>2000-01-01T05:01:46.000Z</time>
      </trkpt>
      <trkpt lat="45.12049" lon="5.87732">
        <ele>1695</ele>
        <time>2000-01-01T05:01:56.000Z</time>
      </trkpt>
      <trkpt lat="45.12038" lon="5.8773">
        <ele>1698.2</ele>
        <time>2000-01-01T05:02:06.000Z</time>
      </trkpt>
      <trkpt lat="45.12029" lon="5.8773">
        <ele>1696</ele>
        <time>2000-01-01T05:02:16.000Z</time>
      </trkpt>
      <trkpt lat="45.12007" lon="5.87735">
        <ele>1699</ele>
        <time>2000-01-01T05:02:26.000Z</time>
      </trkpt>
      <trkpt lat="45.12" lon="5.87738">
        <ele>1702</ele>
        <time>2000-01-01T05:02:36.000Z</time>
      </trkpt>
      <trkpt lat="45.1199" lon="5.87737">
        <ele>1705</ele>
        <time>2000-01-01T05:02:46.000Z</time>
      </trkpt>
      <trkpt lat="45.11979" lon="5.87725">
        <ele>1706</ele>
        <time>2000-01-01T05:02:56.000Z</time>
      </trkpt>
      <trkpt lat="45.11971" lon="5.87723">
        <ele>1706.8</ele>
        <time>2000-01-01T05:03:06.000Z</time>
      </trkpt>
      <trkpt lat="45.11966" lon="5.87719">
        <ele>1707.9</ele>
        <time>2000-01-01T05:03:16.000Z</time>
      </trkpt>
      <trkpt lat="45.11951" lon="5.87712">
        <ele>1712</ele>
        <time>2000-01-01T05:03:26.000Z</time>
      </trkpt>
      <trkpt lat="45.11946" lon="5.87707">
        <ele>1713</ele>
        <time>2000-01-01T05:03:36.000Z</time>
      </trkpt>
      <trkpt lat="45.11939" lon="5.87702">
        <ele>1713.5</ele>
        <time>2000-01-01T05:03:46.000Z</time>
      </trkpt>
      <trkpt lat="45.11932" lon="5.87701">
        <ele>1716</ele>
        <time>2000-01-01T05:03:56.000Z</time>
      </trkpt>
      <trkpt lat="45.11925" lon="5.87699">
        <ele>1716.1</ele>
        <time>2000-01-01T05:04:06.000Z</time>
      </trkpt>
      <trkpt lat="45.11907" lon="5.87697">
        <ele>1719</ele>
        <time>2000-01-01T05:04:16.000Z</time>
      </trkpt>
      <trkpt lat="45.11895" lon="5.87698">
        <ele>1721.8</ele>
        <time>2000-01-01T05:04:26.000Z</time>
      </trkpt>
      <trkpt lat="45.11881" lon="5.87693">
        <ele>1721</ele>
        <time>2000-01-01T05:04:36.000Z</time>
      </trkpt>
      <trkpt lat="45.11855" lon="5.87687">
        <ele>1725</ele>
        <time>2000-01-01T05:04:46.000Z</time>
      </trkpt>
      <trkpt lat="45.11836" lon="5.87676">
        <ele>1726</ele>
        <time>2000-01-01T05:04:56.000Z</time>
      </trkpt>
      <trkpt lat="45.11824" lon="5.87671">
        <ele>1727.3</ele>
        <time>2000-01-01T05:05:06.000Z</time>
      </trkpt>
      <trkpt lat="45.11814" lon="5.87669">
        <ele>1727</ele>
        <time>2000-01-01T05:05:16.000Z</time>
      </trkpt>
      <trkpt lat="45.11806" lon="5.87669">
        <ele>1729.4</ele>
        <time>2000-01-01T05:05:26.000Z</time>
      </trkpt>
      <trkpt lat="45.11785" lon="5.87692">
        <ele>1735</ele>
        <time>2000-01-01T05:05:36.000Z</time>
      </trkpt>
      <trkpt lat="45.11772" lon="5.87696">
        <ele>1736.2</ele>
        <time>2000-01-01T05:05:46.000Z</time>
      </trkpt>
      <trkpt lat="45.11757" lon="5.87705">
        <ele>1736</ele>
        <time>2000-01-01T05:05:56.000Z</time>
      </trkpt>
      <trkpt lat="45.11751" lon="5.8772">
        <ele>1737.9</ele>
        <time>2000-01-01T05:06:06.000Z</time>
      </trkpt>
      <trkpt lat="45.11745" lon="5.87742">
        <ele>1739</ele>
        <time>2000-01-01T05:06:16.000Z</time>
      </trkpt>
      <trkpt lat="45.11725" lon="5.87783">
        <ele>1747</ele>
        <time>2000-01-01T05:06:26.000Z</time>
      </trkpt>
      <trkpt lat="45.11724" lon="5.87786">
        <ele>1747.6</ele>
        <time>2000-01-01T05:06:36.000Z</time>
      </trkpt>
      <trkpt lat="45.11724" lon="5.87798">
        <ele>1750.2</ele>
        <time>2000-01-01T05:06:46.000Z</time>
      </trkpt>
      <trkpt lat="45.11722" lon="5.87812">
        <ele>1752</ele>
        <time>2000-01-01T05:06:56.000Z</time>
      </trkpt>
      <trkpt lat="45.11722" lon="5.87818">
        <ele>1755.2</ele>
        <time>2000-01-01T05:07:06.000Z</time>
      </trkpt>
      <trkpt lat="45.11721" lon="5.8782">
        <ele>1756</ele>
        <time>2000-01-01T05:07:16.000Z</time>
      </trkpt>
      <trkpt lat="45.11721" lon="5.87834">
        <ele>1759.5</ele>
        <time>2000-01-01T05:07:26.000Z</time>
      </trkpt>
      <trkpt lat="45.11723" lon="5.8784">
        <ele>1761</ele>
        <time>2000-01-01T05:07:36.000Z</time>
      </trkpt>
      <trkpt lat="45.11722" lon="5.87844">
        <ele>1762.1</ele>
        <time>2000-01-01T05:07:46.000Z</time>
      </trkpt>
      <trkpt lat="45.1172" lon="5.87848">
        <ele>1763.9</ele>
        <time>2000-01-01T05:07:56.000Z</time>
      </trkpt>
      <trkpt lat="45.11719" lon="5.87862">
        <ele>1768.1</ele>
        <time>2000-01-01T05:08:06.000Z</time>
      </trkpt>
      <trkpt lat="45.11717" lon="5.87869">
        <ele>1770</ele>
        <time>2000-01-01T05:08:16.000Z</time>
      </trkpt>
      <trkpt lat="45.11715" lon="5.8788">
        <ele>1773</ele>
        <time>2000-01-01T05:08:26.000Z</time>
      </trkpt>
      <trkpt lat="45.1171" lon="5.87882">
        <ele>1774.7</ele>
        <time>2000-01-01T05:08:36.000Z</time>
      </trkpt>
      <trkpt lat="45.1171" lon="5.87885">
        <ele>1775.3</ele>
        <time>2000-01-01T05:08:46.000Z</time>
      </trkpt>
      <trkpt lat="45.11708" lon="5.87888">
        <ele>1776.4</ele>
        <time>2000-01-01T05:08:56.000Z</time>
      </trkpt>
      <trkpt lat="45.11701" lon="5.87892">
        <ele>1778</ele>
        <time>2000-01-01T05:09:06.000Z</time>
      </trkpt>
      <trkpt lat="45.11701" lon="5.87899">
        <ele>1780.3</ele>
        <time>2000-01-01T05:09:16.000Z</time>
      </trkpt>
      <trkpt lat="45.11697" lon="5.87899">
        <ele>1781.2</ele>
        <time>2000-01-01T05:09:26.000Z</time>
      </trkpt>
      <trkpt lat="45.11693" lon="5.879">
        <ele>1782.3</ele>
        <time>2000-01-01T05:09:36.000Z</time>
      </trkpt>
      <trkpt lat="45.11688" lon="5.87904">
        <ele>1784</ele>
        <time>2000-01-01T05:09:46.000Z</time>
      </trkpt>
      <trkpt lat="45.11679" lon="5.87908">
        <ele>1786</ele>
        <time>2000-01-01T05:09:56.000Z</time>
      </trkpt>
      <trkpt lat="45.11679" lon="5.8791">
        <ele>1786.7</ele>
        <time>2000-01-01T05:10:06.000Z</time>
      </trkpt>
      <trkpt lat="45.11672" lon="5.87918">
        <ele>1789.3</ele>
        <time>2000-01-01T05:10:16.000Z</time>
      </trkpt>
      <trkpt lat="45.11668" lon="5.87925">
        <ele>1791.3</ele>
        <time>2000-01-01T05:10:26.000Z</time>
      </trkpt>
      <trkpt lat="45.11655" lon="5.8794">
        <ele>1794</ele>
        <time>2000-01-01T05:10:36.000Z</time>
      </trkpt>
      <trkpt lat="45.11643" lon="5.87947">
        <ele>1798.9</ele>
        <time>2000-01-01T05:10:46.000Z</time>
      </trkpt>
      <trkpt lat="45.11625" lon="5.8795">
        <ele>1797</ele>
        <time>2000-01-01T05:10:56.000Z</time>
      </trkpt>
      <trkpt lat="45.11599" lon="5.87945">
        <ele>1801</ele>
        <time>2000-01-01T05:11:06.000Z</time>
      </trkpt>
      <trkpt lat="45.11585" lon="5.87946">
        <ele>1803.2</ele>
        <time>2000-01-01T05:11:16.000Z</time>
      </trkpt>
      <trkpt lat="45.11564" lon="5.87943">
        <ele>1803</ele>
        <time>2000-01-01T05:11:26.000Z</time>
      </trkpt>
      <trkpt lat="45.11551" lon="5.87942">
        <ele>1805</ele>
        <time>2000-01-01T05:11:36.000Z</time>
      </trkpt>
      <trkpt lat="45.11538" lon="5.87939">
        <ele>1804</ele>
        <time>2000-01-01T05:11:46.000Z</time>
      </trkpt>
      <trkpt lat="45.11529" lon="5.87938">
        <ele>1806.5</ele>
        <time>2000-01-01T05:11:56.000Z</time>
      </trkpt>
      <trkpt lat="45.11502" lon="5.87932">
        <ele>1802</ele>
        <time>2000-01-01T05:12:06.000Z</time>
      </trkpt>
      <trkpt lat="45.11484" lon="5.87932">
        <ele>1804.4</ele>
        <time>2000-01-01T05:12:16.000Z</time>
      </trkpt>
      <trkpt lat="45.11466" lon="5.87934">
        <ele>1801</ele>
        <time>2000-01-01T05:12:26.000Z</time>
      </trkpt>
      <trkpt lat="45.1144" lon="5.87942">
        <ele>1801</ele>
        <time>2000-01-01T05:12:36.000Z</time>
      </trkpt>
      <trkpt lat="45.11424" lon="5.87945">
        <ele>1801.3</ele>
        <time>2000-01-01T05:12:46.000Z</time>
      </trkpt>
      <trkpt lat="45.11413" lon="5.87951">
        <ele>1801</ele>
        <time>2000-01-01T05:12:56.000Z</time>
      </trkpt>
      <trkpt lat="45.11408" lon="5.87952">
        <ele>1801.5</ele>
        <time>2000-01-01T05:13:06.000Z</time>
      </trkpt>
      <trkpt lat="45.11403" lon="5.8795">
        <ele>1800.9</ele>
        <time>2000-01-01T05:13:16.000Z</time>
      </trkpt>
      <trkpt lat="45.11396" lon="5.87946">
        <ele>1799.8</ele>
        <time>2000-01-01T05:13:26.000Z</time>
      </trkpt>
      <trkpt lat="45.11389" lon="5.87945">
        <ele>1797</ele>
        <time>2000-01-01T05:13:36.000Z</time>
      </trkpt>
      <trkpt lat="45.1138" lon="5.87937">
        <ele>1797.5</ele>
        <time>2000-01-01T05:13:46.000Z</time>
      </trkpt>
      <trkpt lat="45.1137" lon="5.87937">
        <ele>1795</ele>
        <time>2000-01-01T05:13:56.000Z</time>
      </trkpt>
      <trkpt lat="45.11368" lon="5.87944">
        <ele>1798.2</ele>
        <time>2000-01-01T05:14:06.000Z</time>
      </trkpt>
      <trkpt lat="45.11365" lon="5.87949">
        <ele>1798.8</ele>
        <time>2000-01-01T05:14:16.000Z</time>
      </trkpt>
      <trkpt lat="45.11361" lon="5.87939">
        <ele>1797</ele>
        <time>2000-01-01T05:14:26.000Z</time>
      </trkpt>
      <trkpt lat="45.11355" lon="5.87929">
        <ele>1793</ele>
        <time>2000-01-01T05:14:36.000Z</time>
      </trkpt>
      <trkpt lat="45.11344" lon="5.87927">
        <ele>1794.6</ele>
        <time>2000-01-01T05:14:46.000Z</time>
      </trkpt>
      <trkpt lat="45.11314" lon="5.87915">
        <ele>1792</ele>
        <time>2000-01-01T05:14:56.000Z</time>
      </trkpt>
      <trkpt lat="45.11302" lon="5.87908">
        <ele>1791.8</ele>
        <time>2000-01-01T05:15:06.000Z</time>
      </trkpt>
      <trkpt lat="45.11279" lon="5.87905">
        <ele>1789</ele>
        <time>2000-01-01T05:15:16.000Z</time>
      </trkpt>
      <trkpt lat="45.11258" lon="5.879">
        <ele>1787</ele>
        <time>2000-01-01T05:15:26.000Z</time>
      </trkpt>
      <trkpt lat="45.11245" lon="5.87904">
        <ele>1787.6</ele>
        <time>2000-01-01T05:15:36.000Z</time>
      </trkpt>
      <trkpt lat="45.11236" lon="5.87915">
        <ele>1788</ele>
        <time>2000-01-01T05:15:46.000Z</time>
      </trkpt>
      <trkpt lat="45.11228" lon="5.8793">
        <ele>1787.6</ele>
        <time>2000-01-01T05:15:56.000Z</time>
      </trkpt>
      <trkpt lat="45.11226" lon="5.87986">
        <ele>1790</ele>
        <time>2000-01-01T05:16:06.000Z</time>
      </trkpt>
      <trkpt lat="45.11227" lon="5.8803">
        <ele>1793</ele>
        <time>2000-01-01T05:16:16.000Z</time>
      </trkpt>
      <trkpt lat="45.11224" lon="5.88047">
        <ele>1795.3</ele>
        <time>2000-01-01T05:16:26.000Z</time>
      </trkpt>
      <trkpt lat="45.11218" lon="5.8806">
        <ele>1795</ele>
        <time>2000-01-01T05:16:36.000Z</time>
      </trkpt>
      <trkpt lat="45.11209" lon="5.88068">
        <ele>1797.5</ele>
        <time>2000-01-01T05:16:46.000Z</time>
      </trkpt>
      <trkpt lat="45.11198" lon="5.88071">
        <ele>1796</ele>
        <time>2000-01-01T05:16:56.000Z</time>
      </trkpt>
      <trkpt lat="45.11173" lon="5.88067">
        <ele>1797</ele>
        <time>2000-01-01T05:17:06.000Z</time>
      </trkpt>
      <trkpt lat="45.11171" lon="5.88065">
        <ele>1798.9</ele>
        <time>2000-01-01T05:17:16.000Z</time>
      </trkpt>
      <trkpt lat="45.11164" lon="5.88064">
        <ele>1799.1</ele>
        <time>2000-01-01T05:17:26.000Z</time>
      </trkpt>
      <trkpt lat="45.11155" lon="5.8807">
        <ele>1800</ele>
        <time>2000-01-01T05:17:36.000Z</time>
      </trkpt>
      <trkpt lat="45.11148" lon="5.8808">
        <ele>1801.4</ele>
        <time>2000-01-01T05:17:46.000Z</time>
      </trkpt>
      <trkpt lat="45.11146" lon="5.88092">
        <ele>1803</ele>
        <time>2000-01-01T05:17:56.000Z</time>
      </trkpt>
      <trkpt lat="45.11146" lon="5.88105">
        <ele>1803</ele>
        <time>2000-01-01T05:18:06.000Z</time>
      </trkpt>
      <trkpt lat="45.11147" lon="5.88115">
        <ele>1805.9</ele>
        <time>2000-01-01T05:18:16.000Z</time>
      </trkpt>
      <trkpt lat="45.11146" lon="5.88126">
        <ele>1807.5</ele>
        <time>2000-01-01T05:18:26.000Z</time>
      </trkpt>
      <trkpt lat="45.11148" lon="5.88139">
        <ele>1807</ele>
        <time>2000-01-01T05:18:36.000Z</time>
      </trkpt>
      <trkpt lat="45.11146" lon="5.88151">
        <ele>1811.4</ele>
        <time>2000-01-01T05:18:46.000Z</time>
      </trkpt>
      <trkpt lat="45.11142" lon="5.88169">
        <ele>1811</ele>
        <time>2000-01-01T05:18:56.000Z</time>
      </trkpt>
      <trkpt lat="45.11115" lon="5.88198">
        <ele>1814</ele>
        <time>2000-01-01T05:19:06.000Z</time>
      </trkpt>
      <trkpt lat="45.11107" lon="5.88209">
        <ele>1817.3</ele>
        <time>2000-01-01T05:19:16.000Z</time>
      </trkpt>
      <trkpt lat="45.11102" lon="5.88218">
        <ele>1817</ele>
        <time>2000-01-01T05:19:26.000Z</time>
      </trkpt>
      <trkpt lat="45.11094" lon="5.88226">
        <ele>1819.5</ele>
        <time>2000-01-01T05:19:36.000Z</time>
      </trkpt>
      <trkpt lat="45.11071" lon="5.88243">
        <ele>1820</ele>
        <time>2000-01-01T05:19:46.000Z</time>
      </trkpt>
      <trkpt lat="45.11061" lon="5.88253">
        <ele>1822.4</ele>
        <time>2000-01-01T05:19:56.000Z</time>
      </trkpt>
      <trkpt lat="45.1106" lon="5.88259">
        <ele>1823.1</ele>
        <time>2000-01-01T05:20:06.000Z</time>
      </trkpt>
      <trkpt lat="45.11052" lon="5.88272">
        <ele>1823</ele>
        <time>2000-01-01T05:20:16.000Z</time>
      </trkpt>
      <trkpt lat="45.11043" lon="5.88298">
        <ele>1826</ele>
        <time>2000-01-01T05:20:26.000Z</time>
      </trkpt>
      <trkpt lat="45.11041" lon="5.8831">
        <ele>1829.6</ele>
        <time>2000-01-01T05:20:36.000Z</time>
      </trkpt>
      <trkpt lat="45.11042" lon="5.88312">
        <ele>1830</ele>
        <time>2000-01-01T05:20:46.000Z</time>
      </trkpt>
      <trkpt lat="45.1104" lon="5.88328">
        <ele>1830</ele>
        <time>2000-01-01T05:20:56.000Z</time>
      </trkpt>
      <trkpt lat="45.11035" lon="5.88348">
        <ele>1834.4</ele>
        <time>2000-01-01T05:21:06.000Z</time>
      </trkpt>
      <trkpt lat="45.11035" lon="5.88365">
        <ele>1835</ele>
        <time>2000-01-01T05:21:16.000Z</time>
      </trkpt>
      <trkpt lat="45.11033" lon="5.88371">
        <ele>1837.5</ele>
        <time>2000-01-01T05:21:26.000Z</time>
      </trkpt>
      <trkpt lat="45.11033" lon="5.88377">
        <ele>1838.4</ele>
        <time>2000-01-01T05:21:36.000Z</time>
      </trkpt>
      <trkpt lat="45.1103" lon="5.88385">
        <ele>1839.5</ele>
        <time>2000-01-01T05:21:46.000Z</time>
      </trkpt>
      <trkpt lat="45.1103" lon="5.88391">
        <ele>1840</ele>
        <time>2000-01-01T05:21:56.000Z</time>
      </trkpt>
      <trkpt lat="45.11021" lon="5.88424">
        <ele>1843</ele>
        <time>2000-01-01T05:22:06.000Z</time>
      </trkpt>
      <trkpt lat="45.1101" lon="5.88462">
        <ele>1845</ele>
        <time>2000-01-01T05:22:16.000Z</time>
      </trkpt>
      <trkpt lat="45.11003" lon="5.88476">
        <ele>1846.1</ele>
        <time>2000-01-01T05:22:26.000Z</time>
      </trkpt>
      <trkpt lat="45.10995" lon="5.88477">
        <ele>1842</ele>
        <time>2000-01-01T05:22:36.000Z</time>
      </trkpt>
      <trkpt lat="45.10982" lon="5.88472">
        <ele>1845.3</ele>
        <time>2000-01-01T05:22:46.000Z</time>
      </trkpt>
      <trkpt lat="45.10936" lon="5.88446">
        <ele>1840</ele>
        <time>2000-01-01T05:22:56.000Z</time>
      </trkpt>
      <trkpt lat="45.10917" lon="5.8843">
        <ele>1839</ele>
        <time>2000-01-01T05:23:06.000Z</time>
      </trkpt>
      <trkpt lat="45.10886" lon="5.88408">
        <ele>1835</ele>
        <time>2000-01-01T05:23:16.000Z</time>
      </trkpt>
      <trkpt lat="45.10863" lon="5.88404">
        <ele>1831</ele>
        <time>2000-01-01T05:23:26.000Z</time>
      </trkpt>
      <trkpt lat="45.10846" lon="5.88402">
        <ele>1828.3</ele>
        <time>2000-01-01T05:23:36.000Z</time>
      </trkpt>
      <trkpt lat="45.1083" lon="5.88397">
        <ele>1823</ele>
        <time>2000-01-01T05:23:46.000Z</time>
      </trkpt>
      <trkpt lat="45.10815" lon="5.88387">
        <ele>1822.6</ele>
        <time>2000-01-01T05:23:56.000Z</time>
      </trkpt>
      <trkpt lat="45.108" lon="5.88379">
        <ele>1820</ele>
        <time>2000-01-01T05:24:06.000Z</time>
      </trkpt>
      <trkpt lat="45.10784" lon="5.88368">
        <ele>1816.2</ele>
        <time>2000-01-01T05:24:16.000Z</time>
      </trkpt>
      <trkpt lat="45.10773" lon="5.88355">
        <ele>1813</ele>
        <time>2000-01-01T05:24:26.000Z</time>
      </trkpt>
      <trkpt lat="45.10746" lon="5.88328">
        <ele>1805</ele>
        <time>2000-01-01T05:24:36.000Z</time>
      </trkpt>
      <trkpt lat="45.10719" lon="5.88311">
        <ele>1798</ele>
        <time>2000-01-01T05:24:46.000Z</time>
      </trkpt>
      <trkpt lat="45.10709" lon="5.88302">
        <ele>1797.7</ele>
        <time>2000-01-01T05:24:56.000Z</time>
      </trkpt>
      <trkpt lat="45.10696" lon="5.88293">
        <ele>1792</ele>
        <time>2000-01-01T05:25:06.000Z</time>
      </trkpt>
      <trkpt lat="45.10662" lon="5.8826">
        <ele>1790</ele>
        <time>2000-01-01T05:25:16.000Z</time>
      </trkpt>
      <trkpt lat="45.10645" lon="5.88247">
        <ele>1789</ele>
        <time>2000-01-01T05:25:26.000Z</time>
      </trkpt>
      <trkpt lat="45.10626" lon="5.88227">
        <ele>1786</ele>
        <time>2000-01-01T05:25:36.000Z</time>
      </trkpt>
      <trkpt lat="45.10613" lon="5.88216">
        <ele>1785.1</ele>
        <time>2000-01-01T05:25:46.000Z</time>
      </trkpt>
      <trkpt lat="45.10595" lon="5.88209">
        <ele>1780</ele>
        <time>2000-01-01T05:25:56.000Z</time>
      </trkpt>
      <trkpt lat="45.10581" lon="5.88207">
        <ele>1778.5</ele>
        <time>2000-01-01T05:26:06.000Z</time>
      </trkpt>
      <trkpt lat="45.10558" lon="5.88217">
        <ele>1771</ele>
        <time>2000-01-01T05:26:16.000Z</time>
      </trkpt>
      <trkpt lat="45.10542" lon="5.88236">
        <ele>1768</ele>
        <time>2000-01-01T05:26:26.000Z</time>
      </trkpt>
      <trkpt lat="45.10534" lon="5.88244">
        <ele>1767.3</ele>
        <time>2000-01-01T05:26:36.000Z</time>
      </trkpt>
      <trkpt lat="45.10528" lon="5.88257">
        <ele>1763</ele>
        <time>2000-01-01T05:26:46.000Z</time>
      </trkpt>
      <trkpt lat="45.1052" lon="5.88261">
        <ele>1762.3</ele>
        <time>2000-01-01T05:26:56.000Z</time>
      </trkpt>
      <trkpt lat="45.10513" lon="5.88266">
        <ele>1759.7</ele>
        <time>2000-01-01T05:27:06.000Z</time>
      </trkpt>
      <trkpt lat="45.105" lon="5.88271">
        <ele>1752</ele>
        <time>2000-01-01T05:27:16.000Z</time>
      </trkpt>
      <trkpt lat="45.10499" lon="5.8827">
        <ele>1755.5</ele>
        <time>2000-01-01T05:27:26.000Z</time>
      </trkpt>
      <trkpt lat="45.10496" lon="5.88271">
        <ele>1754.4</ele>
        <time>2000-01-01T05:27:36.000Z</time>
      </trkpt>
      <trkpt lat="45.1049" lon="5.88271">
        <ele>1752.5</ele>
        <time>2000-01-01T05:27:46.000Z</time>
      </trkpt>
      <trkpt lat="45.10479" lon="5.88277">
        <ele>1745</ele>
        <time>2000-01-01T05:27:56.000Z</time>
      </trkpt>
      <trkpt lat="45.10474" lon="5.88283">
        <ele>1746</ele>
        <time>2000-01-01T05:28:06.000Z</time>
      </trkpt>
      <trkpt lat="45.10469" lon="5.88292">
        <ele>1743.4</ele>
        <time>2000-01-01T05:28:16.000Z</time>
      </trkpt>
      <trkpt lat="45.10452" lon="5.88313">
        <ele>1735</ele>
        <time>2000-01-01T05:28:26.000Z</time>
      </trkpt>
      <trkpt lat="45.10443" lon="5.88317">
        <ele>1732.3</ele>
        <time>2000-01-01T05:28:36.000Z</time>
      </trkpt>
      <trkpt lat="45.10434" lon="5.88319">
        <ele>1729.2</ele>
        <time>2000-01-01T05:28:46.000Z</time>
      </trkpt>
      <trkpt lat="45.10426" lon="5.88324">
        <ele>1725</ele>
        <time>2000-01-01T05:28:56.000Z</time>
      </trkpt>
      <trkpt lat="45.10426" lon="5.88325">
        <ele>1725.9</ele>
        <time>2000-01-01T05:29:06.000Z</time>
      </trkpt>
      <trkpt lat="45.10414" lon="5.88342">
        <ele>1720.9</ele>
        <time>2000-01-01T05:29:16.000Z</time>
      </trkpt>
      <trkpt lat="45.10409" lon="5.88358">
        <ele>1716</ele>
        <time>2000-01-01T05:29:26.000Z</time>
      </trkpt>
      <trkpt lat="45.10399" lon="5.8838">
        <ele>1713.9</ele>
        <time>2000-01-01T05:29:36.000Z</time>
      </trkpt>
      <trkpt lat="45.10395" lon="5.88395">
        <ele>1711</ele>
        <time>2000-01-01T05:29:46.000Z</time>
      </trkpt>
      <trkpt lat="45.10392" lon="5.88404">
        <ele>1709.8</ele>
        <time>2000-01-01T05:29:56.000Z</time>
      </trkpt>
      <trkpt lat="45.10385" lon="5.88413">
        <ele>1707.1</ele>
        <time>2000-01-01T05:30:06.000Z</time>
      </trkpt>
      <trkpt lat="45.10379" lon="5.88417">
        <ele>1703</ele>
        <time>2000-01-01T05:30:16.000Z</time>
      </trkpt>
      <trkpt lat="45.10369" lon="5.88419">
        <ele>1702</ele>
        <time>2000-01-01T05:30:26.000Z</time>
      </trkpt>
      <trkpt lat="45.10357" lon="5.88424">
        <ele>1696</ele>
        <time>2000-01-01T05:30:36.000Z</time>
      </trkpt>
      <trkpt lat="45.10346" lon="5.8843">
        <ele>1694.2</ele>
        <time>2000-01-01T05:30:46.000Z</time>
      </trkpt>
      <trkpt lat="45.10323" lon="5.88446">
        <ele>1685</ele>
        <time>2000-01-01T05:30:56.000Z</time>
      </trkpt>
      <trkpt lat="45.10306" lon="5.88451">
        <ele>1680.9</ele>
        <time>2000-01-01T05:31:06.000Z</time>
      </trkpt>
      <trkpt lat="45.10293" lon="5.88449">
        <ele>1676</ele>
        <time>2000-01-01T05:31:16.000Z</time>
      </trkpt>
      <trkpt lat="45.10265" lon="5.88431">
        <ele>1670</ele>
        <time>2000-01-01T05:31:26.000Z</time>
      </trkpt>
      <trkpt lat="45.10253" lon="5.88419">
        <ele>1669.7</ele>
        <time>2000-01-01T05:31:36.000Z</time>
      </trkpt>
      <trkpt lat="45.10248" lon="5.88411">
        <ele>1668</ele>
        <time>2000-01-01T05:31:46.000Z</time>
      </trkpt>
      <trkpt lat="45.1024" lon="5.88396">
        <ele>1669.2</ele>
        <time>2000-01-01T05:31:56.000Z</time>
      </trkpt>
      <trkpt lat="45.10236" lon="5.88392">
        <ele>1668.7</ele>
        <time>2000-01-01T05:32:06.000Z</time>
      </trkpt>
      <trkpt lat="45.10225" lon="5.88385">
        <ele>1666</ele>
        <time>2000-01-01T05:32:16.000Z</time>
      </trkpt>
      <trkpt lat="45.10208" lon="5.88372">
        <ele>1662</ele>
        <time>2000-01-01T05:32:26.000Z</time>
      </trkpt>
      <trkpt lat="45.10196" lon="5.88366">
        <ele>1662</ele>
        <time>2000-01-01T05:32:36.000Z</time>
      </trkpt>
      <trkpt lat="45.10184" lon="5.88361">
        <ele>1659</ele>
        <time>2000-01-01T05:32:46.000Z</time>
      </trkpt>
      <trkpt lat="45.10182" lon="5.88359">
        <ele>1660</ele>
        <time>2000-01-01T05:32:56.000Z</time>
      </trkpt>
      <trkpt lat="45.10167" lon="5.88349">
        <ele>1657</ele>
        <time>2000-01-01T05:33:06.000Z</time>
      </trkpt>
      <trkpt lat="45.10154" lon="5.88337">
        <ele>1657</ele>
        <time>2000-01-01T05:33:16.000Z</time>
      </trkpt>
      <trkpt lat="45.1014" lon="5.88326">
        <ele>1655</ele>
        <time>2000-01-01T05:33:26.000Z</time>
      </trkpt>
      <trkpt lat="45.10123" lon="5.88318">
        <ele>1652.5</ele>
        <time>2000-01-01T05:33:36.000Z</time>
      </trkpt>
      <trkpt lat="45.10112" lon="5.88318">
        <ele>1650</ele>
        <time>2000-01-01T05:33:46.000Z</time>
      </trkpt>
      <trkpt lat="45.10104" lon="5.88312">
        <ele>1649.5</ele>
        <time>2000-01-01T05:33:56.000Z</time>
      </trkpt>
      <trkpt lat="45.10102" lon="5.88309">
        <ele>1649.4</ele>
        <time>2000-01-01T05:34:06.000Z</time>
      </trkpt>
      <trkpt lat="45.10101" lon="5.88294">
        <ele>1649</ele>
        <time>2000-01-01T05:34:16.000Z</time>
      </trkpt>
      <trkpt lat="45.10109" lon="5.88343">
        <ele>1647</ele>
        <time>2000-01-01T05:34:26.000Z</time>
      </trkpt>
      <trkpt lat="45.10114" lon="5.8839">
        <ele>1646</ele>
        <time>2000-01-01T05:34:36.000Z</time>
      </trkpt>
      <trkpt lat="45.10118" lon="5.88437">
        <ele>1644</ele>
        <time>2000-01-01T05:34:46.000Z</time>
      </trkpt>
      <trkpt lat="45.10125" lon="5.88501">
        <ele>1643</ele>
        <time>2000-01-01T05:34:56.000Z</time>
      </trkpt>
      <trkpt lat="45.10126" lon="5.88538">
        <ele>1643</ele>
        <time>2000-01-01T05:35:06.000Z</time>
      </trkpt>
      <trkpt lat="45.10127" lon="5.88585">
        <ele>1643</ele>
        <time>2000-01-01T05:35:16.000Z</time>
      </trkpt>
      <trkpt lat="45.10123" lon="5.8862">
        <ele>1643</ele>
        <time>2000-01-01T05:35:26.000Z</time>
      </trkpt>
      <trkpt lat="45.10121" lon="5.88671">
        <ele>1642</ele>
        <time>2000-01-01T05:35:36.000Z</time>
      </trkpt>
      <trkpt lat="45.10126" lon="5.88688">
        <ele>1642.4</ele>
        <time>2000-01-01T05:35:46.000Z</time>
      </trkpt>
      <trkpt lat="45.10127" lon="5.88705">
        <ele>1641</ele>
        <time>2000-01-01T05:35:56.000Z</time>
      </trkpt>
      <trkpt lat="45.10134" lon="5.88723">
        <ele>1642.3</ele>
        <time>2000-01-01T05:36:06.000Z</time>
      </trkpt>
      <trkpt lat="45.10124" lon="5.88739">
        <ele>1642</ele>
        <time>2000-01-01T05:36:16.000Z</time>
      </trkpt>
      <trkpt lat="45.1008" lon="5.88756">
        <ele>1644</ele>
        <time>2000-01-01T05:36:26.000Z</time>
      </trkpt>
      <trkpt lat="45.10089" lon="5.88772">
        <ele>1645.8</ele>
        <time>2000-01-01T05:36:36.000Z</time>
      </trkpt>
      <trkpt lat="45.10088" lon="5.88781">
        <ele>1646</ele>
        <time>2000-01-01T05:36:46.000Z</time>
      </trkpt>
      <trkpt lat="45.10095" lon="5.88797">
        <ele>1647</ele>
        <time>2000-01-01T05:36:56.000Z</time>
      </trkpt>
      <trkpt lat="45.10105" lon="5.88805">
        <ele>1647</ele>
        <time>2000-01-01T05:37:06.000Z</time>
      </trkpt>
      <trkpt lat="45.10122" lon="5.88829">
        <ele>1647</ele>
        <time>2000-01-01T05:37:16.000Z</time>
      </trkpt>
      <trkpt lat="45.10141" lon="5.88855">
        <ele>1650</ele>
        <time>2000-01-01T05:37:26.000Z</time>
      </trkpt>
      <trkpt lat="45.10143" lon="5.88863">
        <ele>1651.3</ele>
        <time>2000-01-01T05:37:36.000Z</time>
      </trkpt>
      <trkpt lat="45.10153" lon="5.88877">
        <ele>1652</ele>
        <time>2000-01-01T05:37:46.000Z</time>
      </trkpt>
      <trkpt lat="45.10163" lon="5.88885">
        <ele>1654.3</ele>
        <time>2000-01-01T05:37:56.000Z</time>
      </trkpt>
      <trkpt lat="45.10169" lon="5.88907">
        <ele>1655</ele>
        <time>2000-01-01T05:38:06.000Z</time>
      </trkpt>
      <trkpt lat="45.10176" lon="5.88916">
        <ele>1659.6</ele>
        <time>2000-01-01T05:38:16.000Z</time>
      </trkpt>
      <trkpt lat="45.10174" lon="5.88932">
        <ele>1660</ele>
        <time>2000-01-01T05:38:26.000Z</time>
      </trkpt>
      <trkpt lat="45.10175" lon="5.88951">
        <ele>1664.5</ele>
        <time>2000-01-01T05:38:36.000Z</time>
      </trkpt>
      <trkpt lat="45.10193" lon="5.88971">
        <ele>1670</ele>
        <time>2000-01-01T05:38:46.000Z</time>
      </trkpt>
      <trkpt lat="45.10225" lon="5.88993">
        <ele>1675</ele>
        <time>2000-01-01T05:38:56.000Z</time>
      </trkpt>
      <trkpt lat="45.10242" lon="5.89019">
        <ele>1675</ele>
        <time>2000-01-01T05:39:06.000Z</time>
      </trkpt>
      <trkpt lat="45.10245" lon="5.89025">
        <ele>1674.8</ele>
        <time>2000-01-01T05:39:16.000Z</time>
      </trkpt>
      <trkpt lat="45.1025" lon="5.89067">
        <ele>1678</ele>
        <time>2000-01-01T05:39:26.000Z</time>
      </trkpt>
      <trkpt lat="45.10258" lon="5.89084">
        <ele>1677.3</ele>
        <time>2000-01-01T05:39:36.000Z</time>
      </trkpt>
      <trkpt lat="45.1026" lon="5.89108">
        <ele>1680</ele>
        <time>2000-01-01T05:39:46.000Z</time>
      </trkpt>
      <trkpt lat="45.10257" lon="5.89122">
        <ele>1681.5</ele>
        <time>2000-01-01T05:39:56.000Z</time>
      </trkpt>
      <trkpt lat="45.10262" lon="5.89138">
        <ele>1680</ele>
        <time>2000-01-01T05:40:06.000Z</time>
      </trkpt>
      <trkpt lat="45.10266" lon="5.89139">
        <ele>1681.6</ele>
        <time>2000-01-01T05:40:16.000Z</time>
      </trkpt>
      <trkpt lat="45.10271" lon="5.89157">
        <ele>1682.6</ele>
        <time>2000-01-01T05:40:26.000Z</time>
      </trkpt>
      <trkpt lat="45.10282" lon="5.8917">
        <ele>1681</ele>
        <time>2000-01-01T05:40:36.000Z</time>
      </trkpt>
      <trkpt lat="45.1029" lon="5.89186">
        <ele>1684</ele>
        <time>2000-01-01T05:40:46.000Z</time>
      </trkpt>
      <trkpt lat="45.10318" lon="5.89208">
        <ele>1685</ele>
        <time>2000-01-01T05:40:56.000Z</time>
      </trkpt>
      <trkpt lat="45.1032" lon="5.89216">
        <ele>1689.2</ele>
        <time>2000-01-01T05:41:06.000Z</time>
      </trkpt>
      <trkpt lat="45.10335" lon="5.89219">
        <ele>1690</ele>
        <time>2000-01-01T05:41:16.000Z</time>
      </trkpt>
      <trkpt lat="45.10351" lon="5.89218">
        <ele>1695</ele>
        <time>2000-01-01T05:41:26.000Z</time>
      </trkpt>
      <trkpt lat="45.10357" lon="5.89214">
        <ele>1694</ele>
        <time>2000-01-01T05:41:36.000Z</time>
      </trkpt>
      <trkpt lat="45.10389" lon="5.89222">
        <ele>1699</ele>
        <time>2000-01-01T05:41:46.000Z</time>
      </trkpt>
      <trkpt lat="45.10399" lon="5.89226">
        <ele>1703.3</ele>
        <time>2000-01-01T05:41:56.000Z</time>
      </trkpt>
      <trkpt lat="45.10409" lon="5.89237">
        <ele>1704</ele>
        <time>2000-01-01T05:42:06.000Z</time>
      </trkpt>
      <trkpt lat="45.10418" lon="5.8924">
        <ele>1707.2</ele>
        <time>2000-01-01T05:42:16.000Z</time>
      </trkpt>
      <trkpt lat="45.10435" lon="5.89253">
        <ele>1709</ele>
        <time>2000-01-01T05:42:26.000Z</time>
      </trkpt>
      <trkpt lat="45.10459" lon="5.89283">
        <ele>1713</ele>
        <time>2000-01-01T05:42:36.000Z</time>
      </trkpt>
      <trkpt lat="45.10467" lon="5.89297">
        <ele>1714</ele>
        <time>2000-01-01T05:42:46.000Z</time>
      </trkpt>
      <trkpt lat="45.10502" lon="5.8933">
        <ele>1717</ele>
        <time>2000-01-01T05:42:56.000Z</time>
      </trkpt>
      <trkpt lat="45.10511" lon="5.89334">
        <ele>1717.5</ele>
        <time>2000-01-01T05:43:06.000Z</time>
      </trkpt>
      <trkpt lat="45.10516" lon="5.89349">
        <ele>1719</ele>
        <time>2000-01-01T05:43:16.000Z</time>
      </trkpt>
      <trkpt lat="45.10523" lon="5.89358">
        <ele>1723</ele>
        <time>2000-01-01T05:43:26.000Z</time>
      </trkpt>
      <trkpt lat="45.10526" lon="5.89371">
        <ele>1723</ele>
        <time>2000-01-01T05:43:36.000Z</time>
      </trkpt>
      <trkpt lat="45.10532" lon="5.89373">
        <ele>1724.9</ele>
        <time>2000-01-01T05:43:46.000Z</time>
      </trkpt>
      <trkpt lat="45.10537" lon="5.89387">
        <ele>1726.7</ele>
        <time>2000-01-01T05:43:56.000Z</time>
      </trkpt>
      <trkpt lat="45.10542" lon="5.89391">
        <ele>1727</ele>
        <time>2000-01-01T05:44:06.000Z</time>
      </trkpt>
      <trkpt lat="45.10553" lon="5.89409">
        <ele>1730.4</ele>
        <time>2000-01-01T05:44:16.000Z</time>
      </trkpt>
      <trkpt lat="45.10553" lon="5.89415">
        <ele>1730</ele>
        <time>2000-01-01T05:44:26.000Z</time>
      </trkpt>
      <trkpt lat="45.1056" lon="5.89427">
        <ele>1732.1</ele>
        <time>2000-01-01T05:44:36.000Z</time>
      </trkpt>
      <trkpt lat="45.10559" lon="5.89434">
        <ele>1732.9</ele>
        <time>2000-01-01T05:44:46.000Z</time>
      </trkpt>
      <trkpt lat="45.10562" lon="5.8944">
        <ele>1732</ele>
        <time>2000-01-01T05:44:56.000Z</time>
      </trkpt>
      <trkpt lat="45.10577" lon="5.89463">
        <ele>1736</ele>
        <time>2000-01-01T05:45:06.000Z</time>
      </trkpt>
      <trkpt lat="45.10583" lon="5.89468">
        <ele>1735.8</ele>
        <time>2000-01-01T05:45:16.000Z</time>
      </trkpt>
      <trkpt lat="45.10583" lon="5.89474">
        <ele>1736.7</ele>
        <time>2000-01-01T05:45:26.000Z</time>
      </trkpt>
      <trkpt lat="45.10597" lon="5.8948">
        <ele>1738</ele>
        <time>2000-01-01T05:45:36.000Z</time>
      </trkpt>
      <trkpt lat="45.10598" lon="5.89484">
        <ele>1742.7</ele>
        <time>2000-01-01T05:45:46.000Z</time>
      </trkpt>
      <trkpt lat="45.10594" lon="5.8949">
        <ele>1743.9</ele>
        <time>2000-01-01T05:45:56.000Z</time>
      </trkpt>
      <trkpt lat="45.10599" lon="5.89496">
        <ele>1747</ele>
        <time>2000-01-01T05:46:06.000Z</time>
      </trkpt>
      <trkpt lat="45.10602" lon="5.89495">
        <ele>1747.3</ele>
        <time>2000-01-01T05:46:16.000Z</time>
      </trkpt>
      <trkpt lat="45.10606" lon="5.89502">
        <ele>1746</ele>
        <time>2000-01-01T05:46:26.000Z</time>
      </trkpt>
      <trkpt lat="45.10616" lon="5.89502">
        <ele>1753</ele>
        <time>2000-01-01T05:46:36.000Z</time>
      </trkpt>
      <trkpt lat="45.10623" lon="5.89507">
        <ele>1756.6</ele>
        <time>2000-01-01T05:46:46.000Z</time>
      </trkpt>
      <trkpt lat="45.10635" lon="5.89508">
        <ele>1756</ele>
        <time>2000-01-01T05:46:56.000Z</time>
      </trkpt>
      <trkpt lat="45.1064" lon="5.89517">
        <ele>1763.8</ele>
        <time>2000-01-01T05:47:06.000Z</time>
      </trkpt>
      <trkpt lat="45.10638" lon="5.89523">
        <ele>1765.4</ele>
        <time>2000-01-01T05:47:16.000Z</time>
      </trkpt>
      <trkpt lat="45.10641" lon="5.89523">
        <ele>1765.5</ele>
        <time>2000-01-01T05:47:26.000Z</time>
      </trkpt>
      <trkpt lat="45.10643" lon="5.89529">
        <ele>1765</ele>
        <time>2000-01-01T05:47:36.000Z</time>
      </trkpt>
      <trkpt lat="45.1065" lon="5.89535">
        <ele>1769.4</ele>
        <time>2000-01-01T05:47:46.000Z</time>
      </trkpt>
      <trkpt lat="45.10655" lon="5.89549">
        <ele>1770</ele>
        <time>2000-01-01T05:47:56.000Z</time>
      </trkpt>
      <trkpt lat="45.10663" lon="5.89552">
        <ele>1776.4</ele>
        <time>2000-01-01T05:48:06.000Z</time>
      </trkpt>
      <trkpt lat="45.10667" lon="5.8956">
        <ele>1779.8</ele>
        <time>2000-01-01T05:48:16.000Z</time>
      </trkpt>
      <trkpt lat="45.10673" lon="5.89559">
        <ele>1777</ele>
        <time>2000-01-01T05:48:26.000Z</time>
      </trkpt>
      <trkpt lat="45.1068" lon="5.89564">
        <ele>1782.3</ele>
        <time>2000-01-01T05:48:36.000Z</time>
      </trkpt>
      <trkpt lat="45.10682" lon="5.89563">
        <ele>1781.9</ele>
        <time>2000-01-01T05:48:46.000Z</time>
      </trkpt>
      <trkpt lat="45.10689" lon="5.8957">
        <ele>1785.8</ele>
        <time>2000-01-01T05:48:56.000Z</time>
      </trkpt>
      <trkpt lat="45.1069" lon="5.89576">
        <ele>1786</ele>
        <time>2000-01-01T05:49:06.000Z</time>
      </trkpt>
      <trkpt lat="45.10694" lon="5.8958">
        <ele>1791.3</ele>
        <time>2000-01-01T05:49:16.000Z</time>
      </trkpt>
      <trkpt lat="45.10701" lon="5.89584">
        <ele>1793.3</ele>
        <time>2000-01-01T05:49:26.000Z</time>
      </trkpt>
      <trkpt lat="45.10706" lon="5.89581">
        <ele>1791.9</ele>
        <time>2000-01-01T05:49:36.000Z</time>
      </trkpt>
      <trkpt lat="45.10719" lon="5.89591">
        <ele>1795</ele>
        <time>2000-01-01T05:49:46.000Z</time>
      </trkpt>
      <trkpt lat="45.10719" lon="5.89594">
        <ele>1797.6</ele>
        <time>2000-01-01T05:49:56.000Z</time>
      </trkpt>
      <trkpt lat="45.10727" lon="5.89595">
        <ele>1798.2</ele>
        <time>2000-01-01T05:50:06.000Z</time>
      </trkpt>
      <trkpt lat="45.10741" lon="5.89604">
        <ele>1800</ele>
        <time>2000-01-01T05:50:16.000Z</time>
      </trkpt>
      <trkpt lat="45.10755" lon="5.89621">
        <ele>1807.5</ele>
        <time>2000-01-01T05:50:26.000Z</time>
      </trkpt>
      <trkpt lat="45.10755" lon="5.89624">
        <ele>1807</ele>
        <time>2000-01-01T05:50:36.000Z</time>
      </trkpt>
      <trkpt lat="45.10763" lon="5.89626">
        <ele>1809.1</ele>
        <time>2000-01-01T05:50:46.000Z</time>
      </trkpt>
      <trkpt lat="45.10775" lon="5.89635">
        <ele>1808</ele>
        <time>2000-01-01T05:50:56.000Z</time>
      </trkpt>
      <trkpt lat="45.10788" lon="5.89653">
        <ele>1818.3</ele>
        <time>2000-01-01T05:51:06.000Z</time>
      </trkpt>
      <trkpt lat="45.10793" lon="5.89653">
        <ele>1815</ele>
        <time>2000-01-01T05:51:16.000Z</time>
      </trkpt>
      <trkpt lat="45.10793" lon="5.8965">
        <ele>1818.5</ele>
        <time>2000-01-01T05:51:26.000Z</time>
      </trkpt>
      <trkpt lat="45.10795" lon="5.89651">
        <ele>1819.2</ele>
        <time>2000-01-01T05:51:36.000Z</time>
      </trkpt>
      <trkpt lat="45.10793" lon="5.89653">
        <ele>1819.4</ele>
        <time>2000-01-01T05:51:46.000Z</time>
      </trkpt>
      <trkpt lat="45.10795" lon="5.89658">
        <ele>1821.2</ele>
        <time>2000-01-01T05:51:56.000Z</time>
      </trkpt>
      <trkpt lat="45.10803" lon="5.89662">
        <ele>1820</ele>
        <time>2000-01-01T05:52:06.000Z</time>
      </trkpt>
      <trkpt lat="45.10811" lon="5.89662">
        <ele>1826.5</ele>
        <time>2000-01-01T05:52:16.000Z</time>
      </trkpt>
      <trkpt lat="45.10811" lon="5.89665">
        <ele>1827.2</ele>
        <time>2000-01-01T05:52:26.000Z</time>
      </trkpt>
      <trkpt lat="45.10817" lon="5.89665">
        <ele>1829</ele>
        <time>2000-01-01T05:52:36.000Z</time>
      </trkpt>
      <trkpt lat="45.10827" lon="5.89674">
        <ele>1831</ele>
        <time>2000-01-01T05:52:46.000Z</time>
      </trkpt>
      <trkpt lat="45.10831" lon="5.89673">
        <ele>1834.9</ele>
        <time>2000-01-01T05:52:56.000Z</time>
      </trkpt>
      <trkpt lat="45.10839" lon="5.89681">
        <ele>1837.5</ele>
        <time>2000-01-01T05:53:06.000Z</time>
      </trkpt>
      <trkpt lat="45.10841" lon="5.89695">
        <ele>1837</ele>
        <time>2000-01-01T05:53:16.000Z</time>
      </trkpt>
      <trkpt lat="45.10848" lon="5.89706">
        <ele>1843.1</ele>
        <time>2000-01-01T05:53:26.000Z</time>
      </trkpt>
      <trkpt lat="45.10849" lon="5.89713">
        <ele>1845.1</ele>
        <time>2000-01-01T05:53:36.000Z</time>
      </trkpt>
      <trkpt lat="45.10845" lon="5.89717">
        <ele>1847</ele>
        <time>2000-01-01T05:53:46.000Z</time>
      </trkpt>
      <trkpt lat="45.10849" lon="5.89725">
        <ele>1848.7</ele>
        <time>2000-01-01T05:53:56.000Z</time>
      </trkpt>
      <trkpt lat="45.10847" lon="5.89728">
        <ele>1850.2</ele>
        <time>2000-01-01T05:54:06.000Z</time>
      </trkpt>
      <trkpt lat="45.1085" lon="5.89734">
        <ele>1851.2</ele>
        <time>2000-01-01T05:54:16.000Z</time>
      </trkpt>
      <trkpt lat="45.10845" lon="5.89736">
        <ele>1854</ele>
        <time>2000-01-01T05:54:26.000Z</time>
      </trkpt>
      <trkpt lat="45.10845" lon="5.89753">
        <ele>1857.6</ele>
        <time>2000-01-01T05:54:36.000Z</time>
      </trkpt>
      <trkpt lat="45.10848" lon="5.89769">
        <ele>1856</ele>
        <time>2000-01-01T05:54:46.000Z</time>
      </trkpt>
      <trkpt lat="45.10863" lon="5.89789">
        <ele>1859</ele>
        <time>2000-01-01T05:54:56.000Z</time>
      </trkpt>
      <trkpt lat="45.10878" lon="5.89818">
        <ele>1864</ele>
        <time>2000-01-01T05:55:06.000Z</time>
      </trkpt>
      <trkpt lat="45.10888" lon="5.89832">
        <ele>1867.7</ele>
        <time>2000-01-01T05:55:16.000Z</time>
      </trkpt>
      <trkpt lat="45.10893" lon="5.89835">
        <ele>1866</ele>
        <time>2000-01-01T05:55:26.000Z</time>
      </trkpt>
      <trkpt lat="45.10898" lon="5.89849">
        <ele>1871.5</ele>
        <time>2000-01-01T05:55:36.000Z</time>
      </trkpt>
      <trkpt lat="45.10898" lon="5.89858">
        <ele>1873.4</ele>
        <time>2000-01-01T05:55:46.000Z</time>
      </trkpt>
      <trkpt lat="45.10894" lon="5.8987">
        <ele>1870</ele>
        <time>2000-01-01T05:55:56.000Z</time>
      </trkpt>
      <trkpt lat="45.10895" lon="5.89877">
        <ele>1876.2</ele>
        <time>2000-01-01T05:56:06.000Z</time>
      </trkpt>
      <trkpt lat="45.10901" lon="5.89889">
        <ele>1876.7</ele>
        <time>2000-01-01T05:56:16.000Z</time>
      </trkpt>
      <trkpt lat="45.10908" lon="5.89893">
        <ele>1872</ele>
        <time>2000-01-01T05:56:26.000Z</time>
      </trkpt>
      <trkpt lat="45.10913" lon="5.89905">
        <ele>1875</ele>
        <time>2000-01-01T05:56:36.000Z</time>
      </trkpt>
      <trkpt lat="45.10919" lon="5.89911">
        <ele>1875</ele>
        <time>2000-01-01T05:56:46.000Z</time>
      </trkpt>
      <trkpt lat="45.10923" lon="5.89925">
        <ele>1874</ele>
        <time>2000-01-01T05:56:56.000Z</time>
      </trkpt>
      <trkpt lat="45.10927" lon="5.8993">
        <ele>1877.3</ele>
        <time>2000-01-01T05:57:06.000Z</time>
      </trkpt>
      <trkpt lat="45.10927" lon="5.89943">
        <ele>1879.6</ele>
        <time>2000-01-01T05:57:16.000Z</time>
      </trkpt>
      <trkpt lat="45.10934" lon="5.89966">
        <ele>1877</ele>
        <time>2000-01-01T05:57:26.000Z</time>
      </trkpt>
      <trkpt lat="45.10943" lon="5.89978">
        <ele>1882.3</ele>
        <time>2000-01-01T05:57:36.000Z</time>
      </trkpt>
      <trkpt lat="45.10958" lon="5.89983">
        <ele>1876</ele>
        <time>2000-01-01T05:57:46.000Z</time>
      </trkpt>
      <trkpt lat="45.10964" lon="5.89989">
        <ele>1879.5</ele>
        <time>2000-01-01T05:57:56.000Z</time>
      </trkpt>
      <trkpt lat="45.10974" lon="5.8999">
        <ele>1877.6</ele>
        <time>2000-01-01T05:58:06.000Z</time>
      </trkpt>
      <trkpt lat="45.1098" lon="5.90002">
        <ele>1877</ele>
        <time>2000-01-01T05:58:16.000Z</time>
      </trkpt>
      <trkpt lat="45.10993" lon="5.90018">
        <ele>1880</ele>
        <time>2000-01-01T05:58:26.000Z</time>
      </trkpt>
      <trkpt lat="45.10997" lon="5.9002">
        <ele>1878</ele>
        <time>2000-01-01T05:58:36.000Z</time>
      </trkpt>
      <trkpt lat="45.11009" lon="5.90045">
        <ele>1882</ele>
        <time>2000-01-01T05:58:46.000Z</time>
      </trkpt>
      <trkpt lat="45.11035" lon="5.90063">
        <ele>1887</ele>
        <time>2000-01-01T05:58:56.000Z</time>
      </trkpt>
      <trkpt lat="45.11051" lon="5.90069">
        <ele>1888.9</ele>
        <time>2000-01-01T05:59:06.000Z</time>
      </trkpt>
      <trkpt lat="45.11054" lon="5.90078">
        <ele>1888</ele>
        <time>2000-01-01T05:59:16.000Z</time>
      </trkpt>
      <trkpt lat="45.11053" lon="5.90104">
        <ele>1891.8</ele>
        <time>2000-01-01T05:59:26.000Z</time>
      </trkpt>
      <trkpt lat="45.11056" lon="5.90109">
        <ele>1891</ele>
        <time>2000-01-01T05:59:36.000Z</time>
      </trkpt>
      <trkpt lat="45.11064" lon="5.9011">
        <ele>1896</ele>
        <time>2000-01-01T05:59:46.000Z</time>
      </trkpt>
      <trkpt lat="45.11067" lon="5.90116">
        <ele>1897</ele>
        <time>2000-01-01T05:59:56.000Z</time>
      </trkpt>
      <trkpt lat="45.11071" lon="5.90116">
        <ele>1898.4</ele>
        <time>2000-01-01T06:00:06.000Z</time>
      </trkpt>
      <trkpt lat="45.11074" lon="5.90112">
        <ele>1895</ele>
        <time>2000-01-01T06:00:16.000Z</time>
      </trkpt>
      <trkpt lat="45.11081" lon="5.90112">
        <ele>1902.1</ele>
        <time>2000-01-01T06:00:26.000Z</time>
      </trkpt>
      <trkpt lat="45.11089" lon="5.9012">
        <ele>1904.8</ele>
        <time>2000-01-01T06:00:36.000Z</time>
      </trkpt>
      <trkpt lat="45.11093" lon="5.90114">
        <ele>1906</ele>
        <time>2000-01-01T06:00:46.000Z</time>
      </trkpt>
      <trkpt lat="45.11096" lon="5.90116">
        <ele>1907.9</ele>
        <time>2000-01-01T06:00:56.000Z</time>
      </trkpt>
      <trkpt lat="45.111" lon="5.90126">
        <ele>1909.5</ele>
        <time>2000-01-01T06:01:06.000Z</time>
      </trkpt>
      <trkpt lat="45.1111" lon="5.90129">
        <ele>1910</ele>
        <time>2000-01-01T06:01:16.000Z</time>
      </trkpt>
      <trkpt lat="45.1113" lon="5.90141">
        <ele>1915</ele>
        <time>2000-01-01T06:01:26.000Z</time>
      </trkpt>
      <trkpt lat="45.11136" lon="5.90138">
        <ele>1916.7</ele>
        <time>2000-01-01T06:01:36.000Z</time>
      </trkpt>
      <trkpt lat="45.11179" lon="5.90154">
        <ele>1917</ele>
        <time>2000-01-01T06:01:46.000Z</time>
      </trkpt>
      <trkpt lat="45.11194" lon="5.9017">
        <ele>1918</ele>
        <time>2000-01-01T06:01:56.000Z</time>
      </trkpt>
      <trkpt lat="45.112" lon="5.9018">
        <ele>1915</ele>
        <time>2000-01-01T06:02:06.000Z</time>
      </trkpt>
      <trkpt lat="45.11217" lon="5.90189">
        <ele>1917.7</ele>
        <time>2000-01-01T06:02:16.000Z</time>
      </trkpt>
      <trkpt lat="45.11242" lon="5.90169">
        <ele>1915</ele>
        <time>2000-01-01T06:02:26.000Z</time>
      </trkpt>
      <trkpt lat="45.11262" lon="5.90166">
        <ele>1915</ele>
        <time>2000-01-01T06:02:36.000Z</time>
      </trkpt>
      <trkpt lat="45.11281" lon="5.90188">
        <ele>1916</ele>
        <time>2000-01-01T06:02:46.000Z</time>
      </trkpt>
      <trkpt lat="45.11286" lon="5.90201">
        <ele>1918.4</ele>
        <time>2000-01-01T06:02:56.000Z</time>
      </trkpt>
      <trkpt lat="45.1129" lon="5.90204">
        <ele>1918.9</ele>
        <time>2000-01-01T06:03:06.000Z</time>
      </trkpt>
      <trkpt lat="45.11302" lon="5.90236">
        <ele>1920</ele>
        <time>2000-01-01T06:03:16.000Z</time>
      </trkpt>
      <trkpt lat="45.11309" lon="5.90239">
        <ele>1921.7</ele>
        <time>2000-01-01T06:03:26.000Z</time>
      </trkpt>
      <trkpt lat="45.11322" lon="5.90254">
        <ele>1922</ele>
        <time>2000-01-01T06:03:36.000Z</time>
      </trkpt>
      <trkpt lat="45.1133" lon="5.90258">
        <ele>1924.1</ele>
        <time>2000-01-01T06:03:46.000Z</time>
      </trkpt>
      <trkpt lat="45.11342" lon="5.9026">
        <ele>1923</ele>
        <time>2000-01-01T06:03:56.000Z</time>
      </trkpt>
      <trkpt lat="45.11354" lon="5.90267">
        <ele>1927.7</ele>
        <time>2000-01-01T06:04:06.000Z</time>
      </trkpt>
      <trkpt lat="45.11365" lon="5.90281">
        <ele>1931</ele>
        <time>2000-01-01T06:04:16.000Z</time>
      </trkpt>
      <trkpt lat="45.11395" lon="5.90304">
        <ele>1938</ele>
        <time>2000-01-01T06:04:26.000Z</time>
      </trkpt>
      <trkpt lat="45.11405" lon="5.90318">
        <ele>1947</ele>
        <time>2000-01-01T06:04:36.000Z</time>
      </trkpt>
      <trkpt lat="45.1142" lon="5.90326">
        <ele>1944</ele>
        <time>2000-01-01T06:04:46.000Z</time>
      </trkpt>
      <trkpt lat="45.11428" lon="5.90338">
        <ele>1949.5</ele>
        <time>2000-01-01T06:04:56.000Z</time>
      </trkpt>
      <trkpt lat="45.11433" lon="5.90369">
        <ele>1949</ele>
        <time>2000-01-01T06:05:06.000Z</time>
      </trkpt>
      <trkpt lat="45.11436" lon="5.90371">
        <ele>1950.3</ele>
        <time>2000-01-01T06:05:16.000Z</time>
      </trkpt>
      <trkpt lat="45.1145" lon="5.90369">
        <ele>1949.8</ele>
        <time>2000-01-01T06:05:26.000Z</time>
      </trkpt>
      <trkpt lat="45.11461" lon="5.90383">
        <ele>1950</ele>
        <time>2000-01-01T06:05:36.000Z</time>
      </trkpt>
      <trkpt lat="45.11484" lon="5.9039">
        <ele>1952</ele>
        <time>2000-01-01T06:05:46.000Z</time>
      </trkpt>
      <trkpt lat="45.11488" lon="5.90395">
        <ele>1954.5</ele>
        <time>2000-01-01T06:05:56.000Z</time>
      </trkpt>
      <trkpt lat="45.1149" lon="5.90406">
        <ele>1955.1</ele>
        <time>2000-01-01T06:06:06.000Z</time>
      </trkpt>
      <trkpt lat="45.11502" lon="5.90427">
        <ele>1954</ele>
        <time>2000-01-01T06:06:16.000Z</time>
      </trkpt>
      <trkpt lat="45.11516" lon="5.90437">
        <ele>1960</ele>
        <time>2000-01-01T06:06:26.000Z</time>
      </trkpt>
      <trkpt lat="45.11525" lon="5.90448">
        <ele>1958</ele>
        <time>2000-01-01T06:06:36.000Z</time>
      </trkpt>
      <trkpt lat="45.1155" lon="5.90452">
        <ele>1963</ele>
        <time>2000-01-01T06:06:46.000Z</time>
      </trkpt>
      <trkpt lat="45.11578" lon="5.90456">
        <ele>1968</ele>
        <time>2000-01-01T06:06:56.000Z</time>
      </trkpt>
      <trkpt lat="45.11583" lon="5.90459">
        <ele>1972.5</ele>
        <time>2000-01-01T06:07:06.000Z</time>
      </trkpt>
      <trkpt lat="45.11595" lon="5.90455">
        <ele>1973.8</ele>
        <time>2000-01-01T06:07:16.000Z</time>
      </trkpt>
      <trkpt lat="45.11598" lon="5.90459">
        <ele>1971</ele>
        <time>2000-01-01T06:07:26.000Z</time>
      </trkpt>
      <trkpt lat="45.11605" lon="5.90457">
        <ele>1975.5</ele>
        <time>2000-01-01T06:07:36.000Z</time>
      </trkpt>
      <trkpt lat="45.11611" lon="5.90462">
        <ele>1976.9</ele>
        <time>2000-01-01T06:07:46.000Z</time>
      </trkpt>
      <trkpt lat="45.11625" lon="5.90465">
        <ele>1977</ele>
        <time>2000-01-01T06:07:56.000Z</time>
      </trkpt>
      <trkpt lat="45.11638" lon="5.90478">
        <ele>1983.8</ele>
        <time>2000-01-01T06:08:06.000Z</time>
      </trkpt>
      <trkpt lat="45.11662" lon="5.90488">
        <ele>1986</ele>
        <time>2000-01-01T06:08:16.000Z</time>
      </trkpt>
      <trkpt lat="45.11674" lon="5.90488">
        <ele>1991.5</ele>
        <time>2000-01-01T06:08:26.000Z</time>
      </trkpt>
      <trkpt lat="45.11693" lon="5.90501">
        <ele>1996</ele>
        <time>2000-01-01T06:08:36.000Z</time>
      </trkpt>
      <trkpt lat="45.11717" lon="5.9053">
        <ele>2004</ele>
        <time>2000-01-01T06:08:46.000Z</time>
      </trkpt>
      <trkpt lat="45.11724" lon="5.90532">
        <ele>2008.2</ele>
        <time>2000-01-01T06:08:56.000Z</time>
      </trkpt>
      <trkpt lat="45.11734" lon="5.90539">
        <ele>2011.1</ele>
        <time>2000-01-01T06:09:06.000Z</time>
      </trkpt>
      <trkpt lat="45.11743" lon="5.90554">
        <ele>2014</ele>
        <time>2000-01-01T06:09:16.000Z</time>
      </trkpt>
      <trkpt lat="45.1175" lon="5.90561">
        <ele>2020.1</ele>
        <time>2000-01-01T06:09:26.000Z</time>
      </trkpt>
      <trkpt lat="45.11763" lon="5.90565">
        <ele>2019</ele>
        <time>2000-01-01T06:09:36.000Z</time>
      </trkpt>
      <trkpt lat="45.11766" lon="5.90572">
        <ele>2025.8</ele>
        <time>2000-01-01T06:09:46.000Z</time>
      </trkpt>
      <trkpt lat="45.11774" lon="5.90574">
        <ele>2025.9</ele>
        <time>2000-01-01T06:09:56.000Z</time>
      </trkpt>
      <trkpt lat="45.11775" lon="5.9058">
        <ele>2027</ele>
        <time>2000-01-01T06:10:06.000Z</time>
      </trkpt>
      <trkpt lat="45.11789" lon="5.90594">
        <ele>2021</ele>
        <time>2000-01-01T06:10:16.000Z</time>
      </trkpt>
      <trkpt lat="45.11798" lon="5.90612">
        <ele>2025.8</ele>
        <time>2000-01-01T06:10:26.000Z</time>
      </trkpt>
      <trkpt lat="45.11824" lon="5.90643">
        <ele>2023</ele>
        <time>2000-01-01T06:10:36.000Z</time>
      </trkpt>
      <trkpt lat="45.1185" lon="5.90652">
        <ele>2024</ele>
        <time>2000-01-01T06:10:46.000Z</time>
      </trkpt>
      <trkpt lat="45.11866" lon="5.90668">
        <ele>2024</ele>
        <time>2000-01-01T06:10:56.000Z</time>
      </trkpt>
      <trkpt lat="45.11867" lon="5.90689">
        <ele>2023</ele>
        <time>2000-01-01T06:11:06.000Z</time>
      </trkpt>
      <trkpt lat="45.11883" lon="5.9071">
        <ele>2026</ele>
        <time>2000-01-01T06:11:16.000Z</time>
      </trkpt>
      <trkpt lat="45.11896" lon="5.90721">
        <ele>2027.4</ele>
        <time>2000-01-01T06:11:26.000Z</time>
      </trkpt>
      <trkpt lat="45.11902" lon="5.90723">
        <ele>2027</ele>
        <time>2000-01-01T06:11:36.000Z</time>
      </trkpt>
      <trkpt lat="45.11914" lon="5.90735">
        <ele>2031.8</ele>
        <time>2000-01-01T06:11:46.000Z</time>
      </trkpt>
      <trkpt lat="45.1192" lon="5.90748">
        <ele>2033</ele>
        <time>2000-01-01T06:11:56.000Z</time>
      </trkpt>
      <trkpt lat="45.11935" lon="5.90756">
        <ele>2037.1</ele>
        <time>2000-01-01T06:12:06.000Z</time>
      </trkpt>
      <trkpt lat="45.11947" lon="5.90767">
        <ele>2038</ele>
        <time>2000-01-01T06:12:16.000Z</time>
      </trkpt>
      <trkpt lat="45.11956" lon="5.90789">
        <ele>2040.5</ele>
        <time>2000-01-01T06:12:26.000Z</time>
      </trkpt>
      <trkpt lat="45.11962" lon="5.90795">
        <ele>2040</ele>
        <time>2000-01-01T06:12:36.000Z</time>
      </trkpt>
      <trkpt lat="45.11963" lon="5.90814">
        <ele>2042.1</ele>
        <time>2000-01-01T06:12:46.000Z</time>
      </trkpt>
      <trkpt lat="45.11978" lon="5.90838">
        <ele>2045</ele>
        <time>2000-01-01T06:12:56.000Z</time>
      </trkpt>
      <trkpt lat="45.11982" lon="5.90839">
        <ele>2050.9</ele>
        <time>2000-01-01T06:13:06.000Z</time>
      </trkpt>
      <trkpt lat="45.11991" lon="5.9085">
        <ele>2055.6</ele>
        <time>2000-01-01T06:13:16.000Z</time>
      </trkpt>
      <trkpt lat="45.1202" lon="5.90836">
        <ele>2055</ele>
        <time>2000-01-01T06:13:26.000Z</time>
      </trkpt>
      <trkpt lat="45.1203" lon="5.90857">
        <ele>2068.3</ele>
        <time>2000-01-01T06:13:36.000Z</time>
      </trkpt>
      <trkpt lat="45.12061" lon="5.90864">
        <ele>2059</ele>
        <time>2000-01-01T06:13:46.000Z</time>
      </trkpt>
      <trkpt lat="45.12069" lon="5.90872">
        <ele>2065.4</ele>
        <time>2000-01-01T06:13:56.000Z</time>
      </trkpt>
      <trkpt lat="45.12076" lon="5.90874">
        <ele>2065.8</ele>
        <time>2000-01-01T06:14:06.000Z</time>
      </trkpt>
      <trkpt lat="45.12081" lon="5.90882">
        <ele>2063</ele>
        <time>2000-01-01T06:14:16.000Z</time>
      </trkpt>
      <trkpt lat="45.12086" lon="5.90901">
        <ele>2063.3</ele>
        <time>2000-01-01T06:14:26.000Z</time>
      </trkpt>
      <trkpt lat="45.12102" lon="5.9092">
        <ele>2060</ele>
        <time>2000-01-01T06:14:36.000Z</time>
      </trkpt>
      <trkpt lat="45.12113" lon="5.90938">
        <ele>2059.4</ele>
        <time>2000-01-01T06:14:46.000Z</time>
      </trkpt>
      <trkpt lat="45.12113" lon="5.90942">
        <ele>2059</ele>
        <time>2000-01-01T06:14:56.000Z</time>
      </trkpt>
      <trkpt lat="45.12137" lon="5.90944">
        <ele>2059</ele>
        <time>2000-01-01T06:15:06.000Z</time>
      </trkpt>
      <trkpt lat="45.12146" lon="5.9095">
        <ele>2059.1</ele>
        <time>2000-01-01T06:15:16.000Z</time>
      </trkpt>
      <trkpt lat="45.12161" lon="5.9097">
        <ele>2061</ele>
        <time>2000-01-01T06:15:26.000Z</time>
      </trkpt>
      <trkpt lat="45.12198" lon="5.90979">
        <ele>2067</ele>
        <time>2000-01-01T06:15:36.000Z</time>
      </trkpt>
      <trkpt lat="45.12202" lon="5.90977">
        <ele>2069.2</ele>
        <time>2000-01-01T06:15:46.000Z</time>
      </trkpt>
      <trkpt lat="45.12209" lon="5.90981">
        <ele>2070.2</ele>
        <time>2000-01-01T06:15:56.000Z</time>
      </trkpt>
      <trkpt lat="45.12215" lon="5.90992">
        <ele>2072</ele>
        <time>2000-01-01T06:16:06.000Z</time>
      </trkpt>
      <trkpt lat="45.12228" lon="5.91">
        <ele>2072.8</ele>
        <time>2000-01-01T06:16:16.000Z</time>
      </trkpt>
      <trkpt lat="45.12252" lon="5.91001">
        <ele>2072</ele>
        <time>2000-01-01T06:16:26.000Z</time>
      </trkpt>
      <trkpt lat="45.12264" lon="5.91006">
        <ele>2071.2</ele>
        <time>2000-01-01T06:16:36.000Z</time>
      </trkpt>
      <trkpt lat="45.12291" lon="5.91035">
        <ele>2072</ele>
        <time>2000-01-01T06:16:46.000Z</time>
      </trkpt>
      <trkpt lat="45.12308" lon="5.91048">
        <ele>2072</ele>
        <time>2000-01-01T06:16:56.000Z</time>
      </trkpt>
      <trkpt lat="45.12332" lon="5.91049">
        <ele>2077</ele>
        <time>2000-01-01T06:17:06.000Z</time>
      </trkpt>
      <trkpt lat="45.12351" lon="5.91046">
        <ele>2076</ele>
        <time>2000-01-01T06:17:16.000Z</time>
      </trkpt>
      <trkpt lat="45.12383" lon="5.91025">
        <ele>2076</ele>
        <time>2000-01-01T06:17:26.000Z</time>
      </trkpt>
      <trkpt lat="45.12399" lon="5.90986">
        <ele>2080</ele>
        <time>2000-01-01T06:17:36.000Z</time>
      </trkpt>
      <trkpt lat="45.12406" lon="5.90979">
        <ele>2086.4</ele>
        <time>2000-01-01T06:17:46.000Z</time>
      </trkpt>
      <trkpt lat="45.12409" lon="5.9097">
        <ele>2088.7</ele>
        <time>2000-01-01T06:17:56.000Z</time>
      </trkpt>
      <trkpt lat="45.12413" lon="5.90928">
        <ele>2095</ele>
        <time>2000-01-01T06:18:06.000Z</time>
      </trkpt>
      <trkpt lat="45.12422" lon="5.90911">
        <ele>2102.6</ele>
        <time>2000-01-01T06:18:16.000Z</time>
      </trkpt>
      <trkpt lat="45.12433" lon="5.90906">
        <ele>2106</ele>
        <time>2000-01-01T06:18:26.000Z</time>
      </trkpt>
      <trkpt lat="45.12444" lon="5.90895">
        <ele>2113.4</ele>
        <time>2000-01-01T06:18:36.000Z</time>
      </trkpt>
      <trkpt lat="45.12448" lon="5.90898">
        <ele>2116.1</ele>
        <time>2000-01-01T06:18:46.000Z</time>
      </trkpt>
      <trkpt lat="45.12451" lon="5.90905">
        <ele>2118</ele>
        <time>2000-01-01T06:18:56.000Z</time>
      </trkpt>
      <trkpt lat="45.12446" lon="5.90919">
        <ele>2116.8</ele>
        <time>2000-01-01T06:19:06.000Z</time>
      </trkpt>
      <trkpt lat="45.12455" lon="5.90929">
        <ele>2120</ele>
        <time>2000-01-01T06:19:16.000Z</time>
      </trkpt>
      <trkpt lat="45.12465" lon="5.90948">
        <ele>2125.5</ele>
        <time>2000-01-01T06:19:26.000Z</time>
      </trkpt>
      <trkpt lat="45.12469" lon="5.90947">
        <ele>2124</ele>
        <time>2000-01-01T06:19:36.000Z</time>
      </trkpt>
      <trkpt lat="45.12471" lon="5.90933">
        <ele>2129.8</ele>
        <time>2000-01-01T06:19:46.000Z</time>
      </trkpt>
      <trkpt lat="45.12477" lon="5.90921">
        <ele>2130</ele>
        <time>2000-01-01T06:19:56.000Z</time>
      </trkpt>
      <trkpt lat="45.12482" lon="5.90923">
        <ele>2135.3</ele>
        <time>2000-01-01T06:20:06.000Z</time>
      </trkpt>
      <trkpt lat="45.12485" lon="5.90937">
        <ele>2135.9</ele>
        <time>2000-01-01T06:20:16.000Z</time>
      </trkpt>
      <trkpt lat="45.12511" lon="5.90984">
        <ele>2144</ele>
        <time>2000-01-01T06:20:26.000Z</time>
      </trkpt>
      <trkpt lat="45.1252" lon="5.91024">
        <ele>2148</ele>
        <time>2000-01-01T06:20:36.000Z</time>
      </trkpt>
      <trkpt lat="45.12516" lon="5.91059">
        <ele>2148</ele>
        <time>2000-01-01T06:20:46.000Z</time>
      </trkpt>
      <trkpt lat="45.12512" lon="5.91097">
        <ele>2150</ele>
        <time>2000-01-01T06:20:56.000Z</time>
      </trkpt>
      <trkpt lat="45.12506" lon="5.91128">
        <ele>2153</ele>
        <time>2000-01-01T06:21:06.000Z</time>
      </trkpt>
      <trkpt lat="45.12506" lon="5.91158">
        <ele>2154</ele>
        <time>2000-01-01T06:21:16.000Z</time>
      </trkpt>
      <trkpt lat="45.12501" lon="5.91185">
        <ele>2157</ele>
        <time>2000-01-01T06:21:26.000Z</time>
      </trkpt>
      <trkpt lat="45.12507" lon="5.9118">
        <ele>2163.6</ele>
        <time>2000-01-01T06:21:36.000Z</time>
      </trkpt>
      <trkpt lat="45.12515" lon="5.91167">
        <ele>2161</ele>
        <time>2000-01-01T06:21:46.000Z</time>
      </trkpt>
      <trkpt lat="45.12525" lon="5.91145">
        <ele>2168.2</ele>
        <time>2000-01-01T06:21:56.000Z</time>
      </trkpt>
      <trkpt lat="45.12529" lon="5.9112">
        <ele>2163</ele>
        <time>2000-01-01T06:22:06.000Z</time>
      </trkpt>
      <trkpt lat="45.12544" lon="5.91076">
        <ele>2167</ele>
        <time>2000-01-01T06:22:16.000Z</time>
      </trkpt>
      <trkpt lat="45.12554" lon="5.91055">
        <ele>2170.1</ele>
        <time>2000-01-01T06:22:26.000Z</time>
      </trkpt>
      <trkpt lat="45.12577" lon="5.91018">
        <ele>2169</ele>
        <time>2000-01-01T06:22:36.000Z</time>
      </trkpt>
      <trkpt lat="45.12585" lon="5.90992">
        <ele>2172</ele>
        <time>2000-01-01T06:22:46.000Z</time>
      </trkpt>
      <trkpt lat="45.12591" lon="5.90948">
        <ele>2173</ele>
        <time>2000-01-01T06:22:56.000Z</time>
      </trkpt>
      <trkpt lat="45.12589" lon="5.90882">
        <ele>2179</ele>
        <time>2000-01-01T06:23:06.000Z</time>
      </trkpt>
      <trkpt lat="45.12591" lon="5.90829">
        <ele>2192</ele>
        <time>2000-01-01T06:23:16.000Z</time>
      </trkpt>
      <trkpt lat="45.12597" lon="5.9081">
        <ele>2193.4</ele>
        <time>2000-01-01T06:23:26.000Z</time>
      </trkpt>
      <trkpt lat="45.12604" lon="5.90798">
        <ele>2197</ele>
        <time>2000-01-01T06:23:36.000Z</time>
      </trkpt>
      <trkpt lat="45.12624" lon="5.90747">
        <ele>2204</ele>
        <time>2000-01-01T06:23:46.000Z</time>
      </trkpt>
      <trkpt lat="45.12629" lon="5.90712">
        <ele>2209</ele>
        <time>2000-01-01T06:23:56.000Z</time>
      </trkpt>
      <trkpt lat="45.12627" lon="5.90669">
        <ele>2218</ele>
        <time>2000-01-01T06:24:06.000Z</time>
      </trkpt>
      <trkpt lat="45.12617" lon="5.90643">
        <ele>2222</ele>
        <time>2000-01-01T06:24:16.000Z</time>
      </trkpt>
      <trkpt lat="45.12617" lon="5.90636">
        <ele>2222.4</ele>
        <time>2000-01-01T06:24:26.000Z</time>
      </trkpt>
      <trkpt lat="45.12609" lon="5.90611">
        <ele>2228</ele>
        <time>2000-01-01T06:24:36.000Z</time>
      </trkpt>
      <trkpt lat="45.12603" lon="5.90577">
        <ele>2233</ele>
        <time>2000-01-01T06:24:46.000Z</time>
      </trkpt>
      <trkpt lat="45.12597" lon="5.90541">
        <ele>2238</ele>
        <time>2000-01-01T06:24:56.000Z</time>
      </trkpt>
      <trkpt lat="45.12596" lon="5.90503">
        <ele>2242</ele>
        <time>2000-01-01T06:25:06.000Z</time>
      </trkpt>
      <trkpt lat="45.12595" lon="5.90455">
        <ele>2246</ele>
        <time>2000-01-01T06:25:16.000Z</time>
      </trkpt>
      <trkpt lat="45.1259" lon="5.90418">
        <ele>2246</ele>
        <time>2000-01-01T06:25:26.000Z</time>
      </trkpt>
      <trkpt lat="45.12583" lon="5.90369">
        <ele>2246</ele>
        <time>2000-01-01T06:25:36.000Z</time>
      </trkpt>
      <trkpt lat="45.12576" lon="5.90349">
        <ele>2245.5</ele>
        <time>2000-01-01T06:25:46.000Z</time>
      </trkpt>
      <trkpt lat="45.12563" lon="5.90324">
        <ele>2244</ele>
        <time>2000-01-01T06:25:56.000Z</time>
      </trkpt>
      <trkpt lat="45.1256" lon="5.90321">
        <ele>2244.3</ele>
        <time>2000-01-01T06:26:06.000Z</time>
      </trkpt>
      <trkpt lat="45.12549" lon="5.9032">
        <ele>2242.8</ele>
        <time>2000-01-01T06:26:16.000Z</time>
      </trkpt>
      <trkpt lat="45.12546" lon="5.90313">
        <ele>2241</ele>
        <time>2000-01-01T06:26:26.000Z</time>
      </trkpt>
      <trkpt lat="45.1254" lon="5.90279">
        <ele>2239</ele>
        <time>2000-01-01T06:26:36.000Z</time>
      </trkpt>
      <trkpt lat="45.1254" lon="5.90262">
        <ele>2241</ele>
        <time>2000-01-01T06:26:46.000Z</time>
      </trkpt>
      <trkpt lat="45.12535" lon="5.90245">
        <ele>2239</ele>
        <time>2000-01-01T06:26:56.000Z</time>
      </trkpt>
      <trkpt lat="45.12538" lon="5.90255">
        <ele>2240.5</ele>
        <time>2000-01-01T06:27:06.000Z</time>
      </trkpt>
      <trkpt lat="45.12542" lon="5.90258">
        <ele>2241.2</ele>
        <time>2000-01-01T06:27:16.000Z</time>
      </trkpt>
      <trkpt lat="45.12535" lon="5.90267">
        <ele>2239</ele>
        <time>2000-01-01T06:27:26.000Z</time>
      </trkpt>
      <trkpt lat="45.1254" lon="5.90288">
        <ele>2241.2</ele>
        <time>2000-01-01T06:27:36.000Z</time>
      </trkpt>
      <trkpt lat="45.12552" lon="5.90319">
        <ele>2243</ele>
        <time>2000-01-01T06:27:46.000Z</time>
      </trkpt>
      <trkpt lat="45.1257" lon="5.90322">
        <ele>2245</ele>
        <time>2000-01-01T06:27:56.000Z</time>
      </trkpt>
      <trkpt lat="45.12576" lon="5.90331">
        <ele>2245</ele>
        <time>2000-01-01T06:28:06.000Z</time>
      </trkpt>
      <trkpt lat="45.12589" lon="5.90367">
        <ele>2246</ele>
        <time>2000-01-01T06:28:16.000Z</time>
      </trkpt>
      <trkpt lat="45.12595" lon="5.90404">
        <ele>2246</ele>
        <time>2000-01-01T06:28:26.000Z</time>
      </trkpt>
      <trkpt lat="45.12603" lon="5.90451">
        <ele>2245</ele>
        <time>2000-01-01T06:28:36.000Z</time>
      </trkpt>
      <trkpt lat="45.12604" lon="5.90492">
        <ele>2241</ele>
        <time>2000-01-01T06:28:46.000Z</time>
      </trkpt>
      <trkpt lat="45.12605" lon="5.90554">
        <ele>2233</ele>
        <time>2000-01-01T06:28:56.000Z</time>
      </trkpt>
      <trkpt lat="45.12616" lon="5.90592">
        <ele>2229</ele>
        <time>2000-01-01T06:29:06.000Z</time>
      </trkpt>
      <trkpt lat="45.12625" lon="5.90623">
        <ele>2224</ele>
        <time>2000-01-01T06:29:16.000Z</time>
      </trkpt>
      <trkpt lat="45.12635" lon="5.90654">
        <ele>2216</ele>
        <time>2000-01-01T06:29:26.000Z</time>
      </trkpt>
      <trkpt lat="45.12637" lon="5.90672">
        <ele>2212.4</ele>
        <time>2000-01-01T06:29:36.000Z</time>
      </trkpt>
      <trkpt lat="45.12637" lon="5.90713">
        <ele>2206</ele>
        <time>2000-01-01T06:29:46.000Z</time>
      </trkpt>
      <trkpt lat="45.12623" lon="5.90749">
        <ele>2204</ele>
        <time>2000-01-01T06:29:56.000Z</time>
      </trkpt>
      <trkpt lat="45.126" lon="5.90807">
        <ele>2195</ele>
        <time>2000-01-01T06:30:06.000Z</time>
      </trkpt>
      <trkpt lat="45.12596" lon="5.90831">
        <ele>2188.4</ele>
        <time>2000-01-01T06:30:16.000Z</time>
      </trkpt>
      <trkpt lat="45.12598" lon="5.90949">
        <ele>2173</ele>
        <time>2000-01-01T06:30:26.000Z</time>
      </trkpt>
      <trkpt lat="45.1259" lon="5.90965">
        <ele>2171.6</ele>
        <time>2000-01-01T06:30:36.000Z</time>
      </trkpt>
      <trkpt lat="45.12607" lon="5.90952">
        <ele>2172</ele>
        <time>2000-01-01T06:30:46.000Z</time>
      </trkpt>
      <trkpt lat="45.12619" lon="5.90923">
        <ele>2169</ele>
        <time>2000-01-01T06:30:56.000Z</time>
      </trkpt>
      <trkpt lat="45.12644" lon="5.90884">
        <ele>2158</ele>
        <time>2000-01-01T06:31:06.000Z</time>
      </trkpt>
      <trkpt lat="45.12663" lon="5.90868">
        <ele>2152</ele>
        <time>2000-01-01T06:31:16.000Z</time>
      </trkpt>
      <trkpt lat="45.12675" lon="5.90866">
        <ele>2146.8</ele>
        <time>2000-01-01T06:31:26.000Z</time>
      </trkpt>
      <trkpt lat="45.12684" lon="5.90873">
        <ele>2143</ele>
        <time>2000-01-01T06:31:36.000Z</time>
      </trkpt>
      <trkpt lat="45.12709" lon="5.90922">
        <ele>2133</ele>
        <time>2000-01-01T06:31:46.000Z</time>
      </trkpt>
      <trkpt lat="45.12719" lon="5.90931">
        <ele>2127.9</ele>
        <time>2000-01-01T06:31:56.000Z</time>
      </trkpt>
      <trkpt lat="45.12749" lon="5.90981">
        <ele>2118</ele>
        <time>2000-01-01T06:32:06.000Z</time>
      </trkpt>
      <trkpt lat="45.12768" lon="5.91006">
        <ele>2111</ele>
        <time>2000-01-01T06:32:16.000Z</time>
      </trkpt>
      <trkpt lat="45.12791" lon="5.91036">
        <ele>2107</ele>
        <time>2000-01-01T06:32:26.000Z</time>
      </trkpt>
      <trkpt lat="45.12808" lon="5.9107">
        <ele>2107</ele>
        <time>2000-01-01T06:32:36.000Z</time>
      </trkpt>
      <trkpt lat="45.12822" lon="5.91097">
        <ele>2106</ele>
        <time>2000-01-01T06:32:46.000Z</time>
      </trkpt>
      <trkpt lat="45.12836" lon="5.91125">
        <ele>2101</ele>
        <time>2000-01-01T06:32:56.000Z</time>
      </trkpt>
      <trkpt lat="45.1285" lon="5.91142">
        <ele>2096.5</ele>
        <time>2000-01-01T06:33:06.000Z</time>
      </trkpt>
      <trkpt lat="45.1286" lon="5.91161">
        <ele>2093</ele>
        <time>2000-01-01T06:33:16.000Z</time>
      </trkpt>
      <trkpt lat="45.12877" lon="5.91198">
        <ele>2089</ele>
        <time>2000-01-01T06:33:26.000Z</time>
      </trkpt>
      <trkpt lat="45.12892" lon="5.9123">
        <ele>2081</ele>
        <time>2000-01-01T06:33:36.000Z</time>
      </trkpt>
      <trkpt lat="45.12911" lon="5.91271">
        <ele>2072</ele>
        <time>2000-01-01T06:33:46.000Z</time>
      </trkpt>
      <trkpt lat="45.12921" lon="5.91312">
        <ele>2065</ele>
        <time>2000-01-01T06:33:56.000Z</time>
      </trkpt>
      <trkpt lat="45.12927" lon="5.9135">
        <ele>2058</ele>
        <time>2000-01-01T06:34:06.000Z</time>
      </trkpt>
      <trkpt lat="45.12942" lon="5.91394">
        <ele>2049</ele>
        <time>2000-01-01T06:34:16.000Z</time>
      </trkpt>
      <trkpt lat="45.1296" lon="5.91433">
        <ele>2041</ele>
        <time>2000-01-01T06:34:26.000Z</time>
      </trkpt>
      <trkpt lat="45.12978" lon="5.91472">
        <ele>2032</ele>
        <time>2000-01-01T06:34:36.000Z</time>
      </trkpt>
      <trkpt lat="45.13" lon="5.9152">
        <ele>2021</ele>
        <time>2000-01-01T06:34:46.000Z</time>
      </trkpt>
      <trkpt lat="45.13007" lon="5.91546">
        <ele>2013</ele>
        <time>2000-01-01T06:34:56.000Z</time>
      </trkpt>
      <trkpt lat="45.13021" lon="5.91582">
        <ele>2006</ele>
        <time>2000-01-01T06:35:06.000Z</time>
      </trkpt>
      <trkpt lat="45.13037" lon="5.91614">
        <ele>2003</ele>
        <time>2000-01-01T06:35:16.000Z</time>
      </trkpt>
      <trkpt lat="45.13058" lon="5.91657">
        <ele>2001</ele>
        <time>2000-01-01T06:35:26.000Z</time>
      </trkpt>
      <trkpt lat="45.13068" lon="5.91687">
        <ele>1998</ele>
        <time>2000-01-01T06:35:36.000Z</time>
      </trkpt>
      <trkpt lat="45.13091" lon="5.91721">
        <ele>1995</ele>
        <time>2000-01-01T06:35:46.000Z</time>
      </trkpt>
      <trkpt lat="45.13103" lon="5.91733">
        <ele>1994.5</ele>
        <time>2000-01-01T06:35:56.000Z</time>
      </trkpt>
      <trkpt lat="45.13111" lon="5.91736">
        <ele>1995</ele>
        <time>2000-01-01T06:36:06.000Z</time>
      </trkpt>
      <trkpt lat="45.13126" lon="5.91728">
        <ele>1995.8</ele>
        <time>2000-01-01T06:36:16.000Z</time>
      </trkpt>
      <trkpt lat="45.13134" lon="5.91719">
        <ele>1994</ele>
        <time>2000-01-01T06:36:26.000Z</time>
      </trkpt>
      <trkpt lat="45.13155" lon="5.91719">
        <ele>1994</ele>
        <time>2000-01-01T06:36:36.000Z</time>
      </trkpt>
      <trkpt lat="45.13188" lon="5.91741">
        <ele>1996</ele>
        <time>2000-01-01T06:36:46.000Z</time>
      </trkpt>
      <trkpt lat="45.13193" lon="5.91737">
        <ele>1997</ele>
        <time>2000-01-01T06:36:56.000Z</time>
      </trkpt>
      <trkpt lat="45.13198" lon="5.9172">
        <ele>1997.5</ele>
        <time>2000-01-01T06:37:06.000Z</time>
      </trkpt>
      <trkpt lat="45.13203" lon="5.91718">
        <ele>1998</ele>
        <time>2000-01-01T06:37:16.000Z</time>
      </trkpt>
      <trkpt lat="45.13212" lon="5.9173">
        <ele>1999.2</ele>
        <time>2000-01-01T06:37:26.000Z</time>
      </trkpt>
      <trkpt lat="45.1322" lon="5.91734">
        <ele>1999</ele>
        <time>2000-01-01T06:37:36.000Z</time>
      </trkpt>
      <trkpt lat="45.13225" lon="5.91734">
        <ele>2000.2</ele>
        <time>2000-01-01T06:37:46.000Z</time>
      </trkpt>
      <trkpt lat="45.13234" lon="5.91726">
        <ele>2001.1</ele>
        <time>2000-01-01T06:37:56.000Z</time>
      </trkpt>
      <trkpt lat="45.1325" lon="5.91727">
        <ele>2001</ele>
        <time>2000-01-01T06:38:06.000Z</time>
      </trkpt>
      <trkpt lat="45.13271" lon="5.91733">
        <ele>2003</ele>
        <time>2000-01-01T06:38:16.000Z</time>
      </trkpt>
      <trkpt lat="45.13279" lon="5.91744">
        <ele>2005.7</ele>
        <time>2000-01-01T06:38:26.000Z</time>
      </trkpt>
      <trkpt lat="45.13302" lon="5.91757">
        <ele>2010</ele>
        <time>2000-01-01T06:38:36.000Z</time>
      </trkpt>
      <trkpt lat="45.13318" lon="5.91759">
        <ele>2011.9</ele>
        <time>2000-01-01T06:38:46.000Z</time>
      </trkpt>
      <trkpt lat="45.13328" lon="5.91774">
        <ele>2011</ele>
        <time>2000-01-01T06:38:56.000Z</time>
      </trkpt>
      <trkpt lat="45.13341" lon="5.91781">
        <ele>2013</ele>
        <time>2000-01-01T06:39:06.000Z</time>
      </trkpt>
      <trkpt lat="45.13345" lon="5.91787">
        <ele>2011</ele>
        <time>2000-01-01T06:39:16.000Z</time>
      </trkpt>
      <trkpt lat="45.13356" lon="5.91792">
        <ele>2012.4</ele>
        <time>2000-01-01T06:39:26.000Z</time>
      </trkpt>
      <trkpt lat="45.13363" lon="5.91801">
        <ele>2011</ele>
        <time>2000-01-01T06:39:36.000Z</time>
      </trkpt>
      <trkpt lat="45.13371" lon="5.91802">
        <ele>2010.7</ele>
        <time>2000-01-01T06:39:46.000Z</time>
      </trkpt>
      <trkpt lat="45.13376" lon="5.91808">
        <ele>2009.4</ele>
        <time>2000-01-01T06:39:56.000Z</time>
      </trkpt>
      <trkpt lat="45.13395" lon="5.91837">
        <ele>2005</ele>
        <time>2000-01-01T06:40:06.000Z</time>
      </trkpt>
      <trkpt lat="45.13398" lon="5.91853">
        <ele>2004.3</ele>
        <time>2000-01-01T06:40:16.000Z</time>
      </trkpt>
      <trkpt lat="45.13418" lon="5.91883">
        <ele>2007</ele>
        <time>2000-01-01T06:40:26.000Z</time>
      </trkpt>
      <trkpt lat="45.13437" lon="5.91906">
        <ele>2009</ele>
        <time>2000-01-01T06:40:36.000Z</time>
      </trkpt>
      <trkpt lat="45.13438" lon="5.91915">
        <ele>2009.1</ele>
        <time>2000-01-01T06:40:46.000Z</time>
      </trkpt>
      <trkpt lat="45.13442" lon="5.91919">
        <ele>2009.2</ele>
        <time>2000-01-01T06:40:56.000Z</time>
      </trkpt>
      <trkpt lat="45.13446" lon="5.91917">
        <ele>2010.3</ele>
        <time>2000-01-01T06:41:06.000Z</time>
      </trkpt>
      <trkpt lat="45.13451" lon="5.91925">
        <ele>2010</ele>
        <time>2000-01-01T06:41:16.000Z</time>
      </trkpt>
      <trkpt lat="45.13471" lon="5.91939">
        <ele>2009</ele>
        <time>2000-01-01T06:41:26.000Z</time>
      </trkpt>
      <trkpt lat="45.13488" lon="5.91957">
        <ele>2008</ele>
        <time>2000-01-01T06:41:36.000Z</time>
      </trkpt>
      <trkpt lat="45.13499" lon="5.91964">
        <ele>2006.6</ele>
        <time>2000-01-01T06:41:46.000Z</time>
      </trkpt>
      <trkpt lat="45.13509" lon="5.91967">
        <ele>2006</ele>
        <time>2000-01-01T06:41:56.000Z</time>
      </trkpt>
      <trkpt lat="45.13533" lon="5.91992">
        <ele>1999</ele>
        <time>2000-01-01T06:42:06.000Z</time>
      </trkpt>
      <trkpt lat="45.13548" lon="5.91998">
        <ele>1993.4</ele>
        <time>2000-01-01T06:42:16.000Z</time>
      </trkpt>
      <trkpt lat="45.13552" lon="5.92004">
        <ele>1992</ele>
        <time>2000-01-01T06:42:26.000Z</time>
      </trkpt>
      <trkpt lat="45.13562" lon="5.92003">
        <ele>1987.2</ele>
        <time>2000-01-01T06:42:36.000Z</time>
      </trkpt>
      <trkpt lat="45.13562" lon="5.92011">
        <ele>1983.7</ele>
        <time>2000-01-01T06:42:46.000Z</time>
      </trkpt>
      <trkpt lat="45.13567" lon="5.92012">
        <ele>1985</ele>
        <time>2000-01-01T06:42:56.000Z</time>
      </trkpt>
      <trkpt lat="45.13567" lon="5.92019">
        <ele>1977.8</ele>
        <time>2000-01-01T06:43:06.000Z</time>
      </trkpt>
      <trkpt lat="45.13562" lon="5.92027">
        <ele>1976.9</ele>
        <time>2000-01-01T06:43:16.000Z</time>
      </trkpt>
      <trkpt lat="45.13566" lon="5.92032">
        <ele>1973.1</ele>
        <time>2000-01-01T06:43:26.000Z</time>
      </trkpt>
      <trkpt lat="45.13562" lon="5.92037">
        <ele>1975</ele>
        <time>2000-01-01T06:43:36.000Z</time>
      </trkpt>
      <trkpt lat="45.13559" lon="5.92051">
        <ele>1970.2</ele>
        <time>2000-01-01T06:43:46.000Z</time>
      </trkpt>
      <trkpt lat="45.1357" lon="5.92051">
        <ele>1968</ele>
        <time>2000-01-01T06:43:56.000Z</time>
      </trkpt>
      <trkpt lat="45.13576" lon="5.92058">
        <ele>1961.1</ele>
        <time>2000-01-01T06:44:06.000Z</time>
      </trkpt>
      <trkpt lat="45.13582" lon="5.92056">
        <ele>1959.4</ele>
        <time>2000-01-01T06:44:16.000Z</time>
      </trkpt>
      <trkpt lat="45.13591" lon="5.92057">
        <ele>1957</ele>
        <time>2000-01-01T06:44:26.000Z</time>
      </trkpt>
      <trkpt lat="45.13594" lon="5.92053">
        <ele>1954.5</ele>
        <time>2000-01-01T06:44:36.000Z</time>
      </trkpt>
      <trkpt lat="45.13597" lon="5.92053">
        <ele>1953</ele>
        <time>2000-01-01T06:44:46.000Z</time>
      </trkpt>
      <trkpt lat="45.13603" lon="5.92062">
        <ele>1948.3</ele>
        <time>2000-01-01T06:44:56.000Z</time>
      </trkpt>
      <trkpt lat="45.13607" lon="5.9206">
        <ele>1950</ele>
        <time>2000-01-01T06:45:06.000Z</time>
      </trkpt>
      <trkpt lat="45.13617" lon="5.92061">
        <ele>1942.7</ele>
        <time>2000-01-01T06:45:16.000Z</time>
      </trkpt>
      <trkpt lat="45.13616" lon="5.92069">
        <ele>1941.3</ele>
        <time>2000-01-01T06:45:26.000Z</time>
      </trkpt>
      <trkpt lat="45.13623" lon="5.9207">
        <ele>1938</ele>
        <time>2000-01-01T06:45:36.000Z</time>
      </trkpt>
      <trkpt lat="45.13629" lon="5.92088">
        <ele>1933.7</ele>
        <time>2000-01-01T06:45:46.000Z</time>
      </trkpt>
      <trkpt lat="45.13646" lon="5.92087">
        <ele>1929</ele>
        <time>2000-01-01T06:45:56.000Z</time>
      </trkpt>
      <trkpt lat="45.13667" lon="5.92092">
        <ele>1926</ele>
        <time>2000-01-01T06:46:06.000Z</time>
      </trkpt>
      <trkpt lat="45.13675" lon="5.92102">
        <ele>1929.4</ele>
        <time>2000-01-01T06:46:16.000Z</time>
      </trkpt>
      <trkpt lat="45.13685" lon="5.92133">
        <ele>1926</ele>
        <time>2000-01-01T06:46:26.000Z</time>
      </trkpt>
      <trkpt lat="45.13694" lon="5.92138">
        <ele>1931</ele>
        <time>2000-01-01T06:46:36.000Z</time>
      </trkpt>
      <trkpt lat="45.13703" lon="5.92162">
        <ele>1926</ele>
        <time>2000-01-01T06:46:46.000Z</time>
      </trkpt>
      <trkpt lat="45.13717" lon="5.92185">
        <ele>1926</ele>
        <time>2000-01-01T06:46:56.000Z</time>
      </trkpt>
      <trkpt lat="45.13726" lon="5.92193">
        <ele>1925.9</ele>
        <time>2000-01-01T06:47:06.000Z</time>
      </trkpt>
      <trkpt lat="45.13754" lon="5.92198">
        <ele>1923</ele>
        <time>2000-01-01T06:47:16.000Z</time>
      </trkpt>
      <trkpt lat="45.13763" lon="5.92214">
        <ele>1924.3</ele>
        <time>2000-01-01T06:47:26.000Z</time>
      </trkpt>
      <trkpt lat="45.13772" lon="5.92222">
        <ele>1922</ele>
        <time>2000-01-01T06:47:36.000Z</time>
      </trkpt>
      <trkpt lat="45.13786" lon="5.92225">
        <ele>1920.8</ele>
        <time>2000-01-01T06:47:46.000Z</time>
      </trkpt>
      <trkpt lat="45.13807" lon="5.92257">
        <ele>1922</ele>
        <time>2000-01-01T06:47:56.000Z</time>
      </trkpt>
      <trkpt lat="45.13819" lon="5.92263">
        <ele>1923.8</ele>
        <time>2000-01-01T06:48:06.000Z</time>
      </trkpt>
      <trkpt lat="45.13836" lon="5.92267">
        <ele>1920</ele>
        <time>2000-01-01T06:48:16.000Z</time>
      </trkpt>
      <trkpt lat="45.13864" lon="5.9226">
        <ele>1919</ele>
        <time>2000-01-01T06:48:26.000Z</time>
      </trkpt>
      <trkpt lat="45.13869" lon="5.92272">
        <ele>1920.5</ele>
        <time>2000-01-01T06:48:36.000Z</time>
      </trkpt>
      <trkpt lat="45.13875" lon="5.92268">
        <ele>1920.4</ele>
        <time>2000-01-01T06:48:46.000Z</time>
      </trkpt>
      <trkpt lat="45.1388" lon="5.92253">
        <ele>1919</ele>
        <time>2000-01-01T06:48:56.000Z</time>
      </trkpt>
      <trkpt lat="45.13886" lon="5.92255">
        <ele>1920.1</ele>
        <time>2000-01-01T06:49:06.000Z</time>
      </trkpt>
      <trkpt lat="45.13887" lon="5.92258">
        <ele>1920.6</ele>
        <time>2000-01-01T06:49:16.000Z</time>
      </trkpt>
      <trkpt lat="45.13891" lon="5.92258">
        <ele>1920.8</ele>
        <time>2000-01-01T06:49:26.000Z</time>
      </trkpt>
      <trkpt lat="45.13893" lon="5.92264">
        <ele>1921.4</ele>
        <time>2000-01-01T06:49:36.000Z</time>
      </trkpt>
      <trkpt lat="45.13899" lon="5.9227">
        <ele>1919</ele>
        <time>2000-01-01T06:49:46.000Z</time>
      </trkpt>
      <trkpt lat="45.13908" lon="5.92269">
        <ele>1921.8</ele>
        <time>2000-01-01T06:49:56.000Z</time>
      </trkpt>
      <trkpt lat="45.13914" lon="5.92271">
        <ele>1922</ele>
        <time>2000-01-01T06:50:06.000Z</time>
      </trkpt>
      <trkpt lat="45.13927" lon="5.92268">
        <ele>1920</ele>
        <time>2000-01-01T06:50:16.000Z</time>
      </trkpt>
      <trkpt lat="45.13941" lon="5.9227">
        <ele>1919</ele>
        <time>2000-01-01T06:50:26.000Z</time>
      </trkpt>
      <trkpt lat="45.13954" lon="5.92288">
        <ele>1920</ele>
        <time>2000-01-01T06:50:36.000Z</time>
      </trkpt>
      <trkpt lat="45.13956" lon="5.92331">
        <ele>1924</ele>
        <time>2000-01-01T06:50:46.000Z</time>
      </trkpt>
      <trkpt lat="45.13965" lon="5.92351">
        <ele>1929.9</ele>
        <time>2000-01-01T06:50:56.000Z</time>
      </trkpt>
      <trkpt lat="45.13984" lon="5.92358">
        <ele>1924</ele>
        <time>2000-01-01T06:51:06.000Z</time>
      </trkpt>
      <trkpt lat="45.14016" lon="5.92352">
        <ele>1919</ele>
        <time>2000-01-01T06:51:16.000Z</time>
      </trkpt>
      <trkpt lat="45.14031" lon="5.92359">
        <ele>1922.8</ele>
        <time>2000-01-01T06:51:26.000Z</time>
      </trkpt>
      <trkpt lat="45.14057" lon="5.92357">
        <ele>1920</ele>
        <time>2000-01-01T06:51:36.000Z</time>
      </trkpt>
      <trkpt lat="45.14062" lon="5.92364">
        <ele>1921.4</ele>
        <time>2000-01-01T06:51:46.000Z</time>
      </trkpt>
      <trkpt lat="45.14072" lon="5.9237">
        <ele>1920.9</ele>
        <time>2000-01-01T06:51:56.000Z</time>
      </trkpt>
      <trkpt lat="45.14073" lon="5.92377">
        <ele>1919</ele>
        <time>2000-01-01T06:52:06.000Z</time>
      </trkpt>
      <trkpt lat="45.14077" lon="5.9238">
        <ele>1922.9</ele>
        <time>2000-01-01T06:52:16.000Z</time>
      </trkpt>
      <trkpt lat="45.1408" lon="5.92381">
        <ele>1922.4</ele>
        <time>2000-01-01T06:52:26.000Z</time>
      </trkpt>
      <trkpt lat="45.14082" lon="5.92378">
        <ele>1920.8</ele>
        <time>2000-01-01T06:52:36.000Z</time>
      </trkpt>
      <trkpt lat="45.14087" lon="5.92378">
        <ele>1919</ele>
        <time>2000-01-01T06:52:46.000Z</time>
      </trkpt>
      <trkpt lat="45.14093" lon="5.92383">
        <ele>1921</ele>
        <time>2000-01-01T06:52:56.000Z</time>
      </trkpt>
      <trkpt lat="45.141" lon="5.92385">
        <ele>1916.6</ele>
        <time>2000-01-01T06:53:06.000Z</time>
      </trkpt>
      <trkpt lat="45.14119" lon="5.9241">
        <ele>1920</ele>
        <time>2000-01-01T06:53:16.000Z</time>
      </trkpt>
      <trkpt lat="45.14128" lon="5.92411">
        <ele>1918.7</ele>
        <time>2000-01-01T06:53:26.000Z</time>
      </trkpt>
      <trkpt lat="45.1413" lon="5.92419">
        <ele>1922.4</ele>
        <time>2000-01-01T06:53:36.000Z</time>
      </trkpt>
      <trkpt lat="45.14137" lon="5.92422">
        <ele>1920</ele>
        <time>2000-01-01T06:53:46.000Z</time>
      </trkpt>
      <trkpt lat="45.14142" lon="5.9242">
        <ele>1921</ele>
        <time>2000-01-01T06:53:56.000Z</time>
      </trkpt>
      <trkpt lat="45.14149" lon="5.92428">
        <ele>1925.8</ele>
        <time>2000-01-01T06:54:06.000Z</time>
      </trkpt>
      <trkpt lat="45.14156" lon="5.92424">
        <ele>1920</ele>
        <time>2000-01-01T06:54:16.000Z</time>
      </trkpt>
      <trkpt lat="45.14172" lon="5.92447">
        <ele>1931</ele>
        <time>2000-01-01T06:54:26.000Z</time>
      </trkpt>
      <trkpt lat="45.1418" lon="5.92453">
        <ele>1936.2</ele>
        <time>2000-01-01T06:54:36.000Z</time>
      </trkpt>
      <trkpt lat="45.1418" lon="5.92457">
        <ele>1938.5</ele>
        <time>2000-01-01T06:54:46.000Z</time>
      </trkpt>
      <trkpt lat="45.14196" lon="5.92467">
        <ele>1933</ele>
        <time>2000-01-01T06:54:56.000Z</time>
      </trkpt>
      <trkpt lat="45.14199" lon="5.92474">
        <ele>1939.4</ele>
        <time>2000-01-01T06:55:06.000Z</time>
      </trkpt>
      <trkpt lat="45.14209" lon="5.92477">
        <ele>1939.3</ele>
        <time>2000-01-01T06:55:16.000Z</time>
      </trkpt>
      <trkpt lat="45.1422" lon="5.92489">
        <ele>1936</ele>
        <time>2000-01-01T06:55:26.000Z</time>
      </trkpt>
      <trkpt lat="45.14233" lon="5.92493">
        <ele>1942.8</ele>
        <time>2000-01-01T06:55:36.000Z</time>
      </trkpt>
      <trkpt lat="45.14235" lon="5.92498">
        <ele>1944.4</ele>
        <time>2000-01-01T06:55:46.000Z</time>
      </trkpt>
      <trkpt lat="45.14248" lon="5.9251">
        <ele>1939</ele>
        <time>2000-01-01T06:55:56.000Z</time>
      </trkpt>
      <trkpt lat="45.1426" lon="5.92515">
        <ele>1942.8</ele>
        <time>2000-01-01T06:56:06.000Z</time>
      </trkpt>
      <trkpt lat="45.14269" lon="5.92524">
        <ele>1935</ele>
        <time>2000-01-01T06:56:16.000Z</time>
      </trkpt>
      <trkpt lat="45.14273" lon="5.92521">
        <ele>1938.4</ele>
        <time>2000-01-01T06:56:26.000Z</time>
      </trkpt>
      <trkpt lat="45.1429" lon="5.92527">
        <ele>1934</ele>
        <time>2000-01-01T06:56:36.000Z</time>
      </trkpt>
      <trkpt lat="45.14291" lon="5.92523">
        <ele>1931.9</ele>
        <time>2000-01-01T06:56:46.000Z</time>
      </trkpt>
      <trkpt lat="45.14288" lon="5.92519">
        <ele>1932.4</ele>
        <time>2000-01-01T06:56:56.000Z</time>
      </trkpt>
      <trkpt lat="45.14286" lon="5.92502">
        <ele>1933</ele>
        <time>2000-01-01T06:57:06.000Z</time>
      </trkpt>
      <trkpt lat="45.14297" lon="5.92495">
        <ele>1925.3</ele>
        <time>2000-01-01T06:57:16.000Z</time>
      </trkpt>
      <trkpt lat="45.14302" lon="5.92497">
        <ele>1922.5</ele>
        <time>2000-01-01T06:57:26.000Z</time>
      </trkpt>
      <trkpt lat="45.14313" lon="5.92492">
        <ele>1918</ele>
        <time>2000-01-01T06:57:36.000Z</time>
      </trkpt>
      <trkpt lat="45.14332" lon="5.92497">
        <ele>1914</ele>
        <time>2000-01-01T06:57:46.000Z</time>
      </trkpt>
      <trkpt lat="45.14349" lon="5.92506">
        <ele>1908.9</ele>
        <time>2000-01-01T06:57:56.000Z</time>
      </trkpt>
      <trkpt lat="45.14353" lon="5.92518">
        <ele>1907</ele>
        <time>2000-01-01T06:58:06.000Z</time>
      </trkpt>
      <trkpt lat="45.14354" lon="5.92531">
        <ele>1906</ele>
        <time>2000-01-01T06:58:16.000Z</time>
      </trkpt>
      <trkpt lat="45.14359" lon="5.92542">
        <ele>1904.3</ele>
        <time>2000-01-01T06:58:26.000Z</time>
      </trkpt>
      <trkpt lat="45.14373" lon="5.92559">
        <ele>1900</ele>
        <time>2000-01-01T06:58:36.000Z</time>
      </trkpt>
      <trkpt lat="45.14384" lon="5.92587">
        <ele>1899</ele>
        <time>2000-01-01T06:58:46.000Z</time>
      </trkpt>
      <trkpt lat="45.14394" lon="5.92592">
        <ele>1892.7</ele>
        <time>2000-01-01T06:58:56.000Z</time>
      </trkpt>
      <trkpt lat="45.14397" lon="5.92597">
        <ele>1891.9</ele>
        <time>2000-01-01T06:59:06.000Z</time>
      </trkpt>
      <trkpt lat="45.14404" lon="5.92616">
        <ele>1899</ele>
        <time>2000-01-01T06:59:16.000Z</time>
      </trkpt>
      <trkpt lat="45.14411" lon="5.92624">
        <ele>1892.9</ele>
        <time>2000-01-01T06:59:26.000Z</time>
      </trkpt>
      <trkpt lat="45.14416" lon="5.92637">
        <ele>1882</ele>
        <time>2000-01-01T06:59:36.000Z</time>
      </trkpt>
      <trkpt lat="45.14418" lon="5.92637">
        <ele>1895</ele>
        <time>2000-01-01T06:59:46.000Z</time>
      </trkpt>
      <trkpt lat="45.14418" lon="5.92642">
        <ele>1898.3</ele>
        <time>2000-01-01T06:59:56.000Z</time>
      </trkpt>
      <trkpt lat="45.14422" lon="5.92643">
        <ele>1893.4</ele>
        <time>2000-01-01T07:00:06.000Z</time>
      </trkpt>
      <trkpt lat="45.1442" lon="5.92646">
        <ele>1898.2</ele>
        <time>2000-01-01T07:00:16.000Z</time>
      </trkpt>
      <trkpt lat="45.14424" lon="5.92648">
        <ele>1893.9</ele>
        <time>2000-01-01T07:00:26.000Z</time>
      </trkpt>
      <trkpt lat="45.14432" lon="5.92646">
        <ele>1865</ele>
        <time>2000-01-01T07:00:36.000Z</time>
      </trkpt>
      <trkpt lat="45.1445" lon="5.92647">
        <ele>1862</ele>
        <time>2000-01-01T07:00:46.000Z</time>
      </trkpt>
      <trkpt lat="45.14458" lon="5.9265">
        <ele>1863</ele>
        <time>2000-01-01T07:00:56.000Z</time>
      </trkpt>
      <trkpt lat="45.14493" lon="5.9267">
        <ele>1852</ele>
        <time>2000-01-01T07:01:06.000Z</time>
      </trkpt>
      <trkpt lat="45.14497" lon="5.92676">
        <ele>1850.2</ele>
        <time>2000-01-01T07:01:16.000Z</time>
      </trkpt>
      <trkpt lat="45.14504" lon="5.9268">
        <ele>1847.7</ele>
        <time>2000-01-01T07:01:26.000Z</time>
      </trkpt>
      <trkpt lat="45.14508" lon="5.92689">
        <ele>1850</ele>
        <time>2000-01-01T07:01:36.000Z</time>
      </trkpt>
      <trkpt lat="45.14515" lon="5.92696">
        <ele>1847.5</ele>
        <time>2000-01-01T07:01:46.000Z</time>
      </trkpt>
      <trkpt lat="45.14537" lon="5.92702">
        <ele>1840</ele>
        <time>2000-01-01T07:01:56.000Z</time>
      </trkpt>
      <trkpt lat="45.14549" lon="5.92718">
        <ele>1837.1</ele>
        <time>2000-01-01T07:02:06.000Z</time>
      </trkpt>
      <trkpt lat="45.1455" lon="5.92725">
        <ele>1839</ele>
        <time>2000-01-01T07:02:16.000Z</time>
      </trkpt>
      <trkpt lat="45.14565" lon="5.92754">
        <ele>1839</ele>
        <time>2000-01-01T07:02:26.000Z</time>
      </trkpt>
      <trkpt lat="45.14581" lon="5.92786">
        <ele>1839</ele>
        <time>2000-01-01T07:02:36.000Z</time>
      </trkpt>
      <trkpt lat="45.14594" lon="5.92801">
        <ele>1842.3</ele>
        <time>2000-01-01T07:02:46.000Z</time>
      </trkpt>
      <trkpt lat="45.14596" lon="5.92808">
        <ele>1840</ele>
        <time>2000-01-01T07:02:56.000Z</time>
      </trkpt>
      <trkpt lat="45.14602" lon="5.92815">
        <ele>1844.3</ele>
        <time>2000-01-01T07:03:06.000Z</time>
      </trkpt>
      <trkpt lat="45.14607" lon="5.92817">
        <ele>1842.1</ele>
        <time>2000-01-01T07:03:16.000Z</time>
      </trkpt>
      <trkpt lat="45.14609" lon="5.92822">
        <ele>1843.1</ele>
        <time>2000-01-01T07:03:26.000Z</time>
      </trkpt>
      <trkpt lat="45.14623" lon="5.92836">
        <ele>1841</ele>
        <time>2000-01-01T07:03:36.000Z</time>
      </trkpt>
      <trkpt lat="45.14626" lon="5.92845">
        <ele>1848.8</ele>
        <time>2000-01-01T07:03:46.000Z</time>
      </trkpt>
      <trkpt lat="45.14638" lon="5.9286">
        <ele>1856</ele>
        <time>2000-01-01T07:03:56.000Z</time>
      </trkpt>
      <trkpt lat="45.1464" lon="5.92865">
        <ele>1856.9</ele>
        <time>2000-01-01T07:04:06.000Z</time>
      </trkpt>
      <trkpt lat="45.14637" lon="5.92867">
        <ele>1859.1</ele>
        <time>2000-01-01T07:04:16.000Z</time>
      </trkpt>
      <trkpt lat="45.14641" lon="5.92868">
        <ele>1859.7</ele>
        <time>2000-01-01T07:04:26.000Z</time>
      </trkpt>
      <trkpt lat="45.14643" lon="5.92865">
        <ele>1858.3</ele>
        <time>2000-01-01T07:04:36.000Z</time>
      </trkpt>
      <trkpt lat="45.14643" lon="5.92871">
        <ele>1862.5</ele>
        <time>2000-01-01T07:04:46.000Z</time>
      </trkpt>
      <trkpt lat="45.14648" lon="5.92874">
        <ele>1858</ele>
        <time>2000-01-01T07:04:56.000Z</time>
      </trkpt>
      <trkpt lat="45.14649" lon="5.9287">
        <ele>1863.4</ele>
        <time>2000-01-01T07:05:06.000Z</time>
      </trkpt>
      <trkpt lat="45.14651" lon="5.92874">
        <ele>1865.3</ele>
        <time>2000-01-01T07:05:16.000Z</time>
      </trkpt>
      <trkpt lat="45.14656" lon="5.92875">
        <ele>1865.9</ele>
        <time>2000-01-01T07:05:26.000Z</time>
      </trkpt>
      <trkpt lat="45.1467" lon="5.9289">
        <ele>1864</ele>
        <time>2000-01-01T07:05:36.000Z</time>
      </trkpt>
      <trkpt lat="45.14675" lon="5.9289">
        <ele>1867.3</ele>
        <time>2000-01-01T07:05:46.000Z</time>
      </trkpt>
      <trkpt lat="45.1468" lon="5.92899">
        <ele>1872.9</ele>
        <time>2000-01-01T07:05:56.000Z</time>
      </trkpt>
      <trkpt lat="45.14685" lon="5.92902">
        <ele>1875</ele>
        <time>2000-01-01T07:06:06.000Z</time>
      </trkpt>
      <trkpt lat="45.14688" lon="5.92901">
        <ele>1866</ele>
        <time>2000-01-01T07:06:16.000Z</time>
      </trkpt>
      <trkpt lat="45.14691" lon="5.92905">
        <ele>1876.4</ele>
        <time>2000-01-01T07:06:26.000Z</time>
      </trkpt>
      <trkpt lat="45.14693" lon="5.92904">
        <ele>1876.7</ele>
        <time>2000-01-01T07:06:36.000Z</time>
      </trkpt>
      <trkpt lat="45.14696" lon="5.9291">
        <ele>1876.8</ele>
        <time>2000-01-01T07:06:46.000Z</time>
      </trkpt>
      <trkpt lat="45.14711" lon="5.92906">
        <ele>1880</ele>
        <time>2000-01-01T07:06:56.000Z</time>
      </trkpt>
      <trkpt lat="45.14719" lon="5.9291">
        <ele>1881.3</ele>
        <time>2000-01-01T07:07:06.000Z</time>
      </trkpt>
      <trkpt lat="45.1472" lon="5.92915">
        <ele>1880.1</ele>
        <time>2000-01-01T07:07:16.000Z</time>
      </trkpt>
      <trkpt lat="45.14726" lon="5.92904">
        <ele>1884</ele>
        <time>2000-01-01T07:07:26.000Z</time>
      </trkpt>
      <trkpt lat="45.14728" lon="5.92911">
        <ele>1884</ele>
        <time>2000-01-01T07:07:36.000Z</time>
      </trkpt>
      <trkpt lat="45.1474" lon="5.92919">
        <ele>1887</ele>
        <time>2000-01-01T07:07:46.000Z</time>
      </trkpt>
      <trkpt lat="45.14748" lon="5.92938">
        <ele>1886</ele>
        <time>2000-01-01T07:07:56.000Z</time>
      </trkpt>
      <trkpt lat="45.14754" lon="5.92946">
        <ele>1889.2</ele>
        <time>2000-01-01T07:08:06.000Z</time>
      </trkpt>
      <trkpt lat="45.14755" lon="5.9296">
        <ele>1887.4</ele>
        <time>2000-01-01T07:08:16.000Z</time>
      </trkpt>
      <trkpt lat="45.14764" lon="5.92968">
        <ele>1885</ele>
        <time>2000-01-01T07:08:26.000Z</time>
      </trkpt>
      <trkpt lat="45.14768" lon="5.92981">
        <ele>1887.8</ele>
        <time>2000-01-01T07:08:36.000Z</time>
      </trkpt>
      <trkpt lat="45.14784" lon="5.93005">
        <ele>1885</ele>
        <time>2000-01-01T07:08:46.000Z</time>
      </trkpt>
      <trkpt lat="45.14798" lon="5.93048">
        <ele>1890</ele>
        <time>2000-01-01T07:08:56.000Z</time>
      </trkpt>
      <trkpt lat="45.14806" lon="5.93066">
        <ele>1896.2</ele>
        <time>2000-01-01T07:09:06.000Z</time>
      </trkpt>
      <trkpt lat="45.14814" lon="5.93075">
        <ele>1894</ele>
        <time>2000-01-01T07:09:16.000Z</time>
      </trkpt>
      <trkpt lat="45.14815" lon="5.93082">
        <ele>1899.7</ele>
        <time>2000-01-01T07:09:26.000Z</time>
      </trkpt>
      <trkpt lat="45.14812" lon="5.93079">
        <ele>1898.4</ele>
        <time>2000-01-01T07:09:36.000Z</time>
      </trkpt>
      <trkpt lat="45.14808" lon="5.93085">
        <ele>1895.7</ele>
        <time>2000-01-01T07:09:46.000Z</time>
      </trkpt>
      <trkpt lat="45.14809" lon="5.93089">
        <ele>1896.9</ele>
        <time>2000-01-01T07:09:56.000Z</time>
      </trkpt>
      <trkpt lat="45.14823" lon="5.93104">
        <ele>1900</ele>
        <time>2000-01-01T07:10:06.000Z</time>
      </trkpt>
      <trkpt lat="45.1483" lon="5.93122">
        <ele>1912.1</ele>
        <time>2000-01-01T07:10:16.000Z</time>
      </trkpt>
      <trkpt lat="45.14832" lon="5.93169">
        <ele>1928</ele>
        <time>2000-01-01T07:10:26.000Z</time>
      </trkpt>
      <trkpt lat="45.14834" lon="5.93173">
        <ele>1939.6</ele>
        <time>2000-01-01T07:10:36.000Z</time>
      </trkpt>
      <trkpt lat="45.14848" lon="5.93176">
        <ele>1947.5</ele>
        <time>2000-01-01T07:10:46.000Z</time>
      </trkpt>
      <trkpt lat="45.14865" lon="5.93165">
        <ele>1933</ele>
        <time>2000-01-01T07:10:56.000Z</time>
      </trkpt>
      <trkpt lat="45.14873" lon="5.93155">
        <ele>1946.4</ele>
        <time>2000-01-01T07:11:06.000Z</time>
      </trkpt>
      <trkpt lat="45.14871" lon="5.93134">
        <ele>1938</ele>
        <time>2000-01-01T07:11:16.000Z</time>
      </trkpt>
      <trkpt lat="45.1487" lon="5.93148">
        <ele>1943.2</ele>
        <time>2000-01-01T07:11:26.000Z</time>
      </trkpt>
      <trkpt lat="45.14879" lon="5.93158">
        <ele>1941</ele>
        <time>2000-01-01T07:11:36.000Z</time>
      </trkpt>
      <trkpt lat="45.14885" lon="5.93172">
        <ele>1956.6</ele>
        <time>2000-01-01T07:11:46.000Z</time>
      </trkpt>
      <trkpt lat="45.14894" lon="5.93168">
        <ele>1952</ele>
        <time>2000-01-01T07:11:56.000Z</time>
      </trkpt>
      <trkpt lat="45.14898" lon="5.93154">
        <ele>1962.2</ele>
        <time>2000-01-01T07:12:06.000Z</time>
      </trkpt>
      <trkpt lat="45.149" lon="5.93154">
        <ele>1963.9</ele>
        <time>2000-01-01T07:12:16.000Z</time>
      </trkpt>
      <trkpt lat="45.14897" lon="5.93185">
        <ele>1960</ele>
        <time>2000-01-01T07:12:26.000Z</time>
      </trkpt>
      <trkpt lat="45.14901" lon="5.93199">
        <ele>1975</ele>
        <time>2000-01-01T07:12:36.000Z</time>
      </trkpt>
      <trkpt lat="45.14904" lon="5.93196">
        <ele>1974</ele>
        <time>2000-01-01T07:12:46.000Z</time>
      </trkpt>
      <trkpt lat="45.14912" lon="5.93221">
        <ele>1969</ele>
        <time>2000-01-01T07:12:56.000Z</time>
      </trkpt>
      <trkpt lat="45.14925" lon="5.93209">
        <ele>1982.5</ele>
        <time>2000-01-01T07:13:06.000Z</time>
      </trkpt>
      <trkpt lat="45.14927" lon="5.93219">
        <ele>1978</ele>
        <time>2000-01-01T07:13:16.000Z</time>
      </trkpt>
      <trkpt lat="45.14939" lon="5.93243">
        <ele>1981</ele>
        <time>2000-01-01T07:13:26.000Z</time>
      </trkpt>
      <trkpt lat="45.14943" lon="5.93246">
        <ele>1986.9</ele>
        <time>2000-01-01T07:13:36.000Z</time>
      </trkpt>
      <trkpt lat="45.14949" lon="5.93261">
        <ele>1989.9</ele>
        <time>2000-01-01T07:13:46.000Z</time>
      </trkpt>
      <trkpt lat="45.14956" lon="5.93261">
        <ele>1989</ele>
        <time>2000-01-01T07:13:56.000Z</time>
      </trkpt>
      <trkpt lat="45.14957" lon="5.93256">
        <ele>1992.2</ele>
        <time>2000-01-01T07:14:06.000Z</time>
      </trkpt>
      <trkpt lat="45.14965" lon="5.93265">
        <ele>1994.9</ele>
        <time>2000-01-01T07:14:16.000Z</time>
      </trkpt>
      <trkpt lat="45.14969" lon="5.93262">
        <ele>1996.3</ele>
        <time>2000-01-01T07:14:26.000Z</time>
      </trkpt>
      <trkpt lat="45.14987" lon="5.93274">
        <ele>1996</ele>
        <time>2000-01-01T07:14:36.000Z</time>
      </trkpt>
      <trkpt lat="45.14997" lon="5.93269">
        <ele>1999.9</ele>
        <time>2000-01-01T07:14:46.000Z</time>
      </trkpt>
      <trkpt lat="45.15012" lon="5.93227">
        <ele>2000</ele>
        <time>2000-01-01T07:14:56.000Z</time>
      </trkpt>
      <trkpt lat="45.15031" lon="5.93193">
        <ele>2004</ele>
        <time>2000-01-01T07:15:06.000Z</time>
      </trkpt>
      <trkpt lat="45.15034" lon="5.93189">
        <ele>2005.2</ele>
        <time>2000-01-01T07:15:16.000Z</time>
      </trkpt>
      <trkpt lat="45.15045" lon="5.93183">
        <ele>2006.3</ele>
        <time>2000-01-01T07:15:26.000Z</time>
      </trkpt>
      <trkpt lat="45.15041" lon="5.93201">
        <ele>2008</ele>
        <time>2000-01-01T07:15:36.000Z</time>
      </trkpt>
      <trkpt lat="45.15049" lon="5.93224">
        <ele>2013.9</ele>
        <time>2000-01-01T07:15:46.000Z</time>
      </trkpt>
      <trkpt lat="45.15059" lon="5.93232">
        <ele>2015</ele>
        <time>2000-01-01T07:15:56.000Z</time>
      </trkpt>
      <trkpt lat="45.1506" lon="5.93265">
        <ele>2020</ele>
        <time>2000-01-01T07:16:06.000Z</time>
      </trkpt>
      <trkpt lat="45.15063" lon="5.93278">
        <ele>2022.8</ele>
        <time>2000-01-01T07:16:16.000Z</time>
      </trkpt>
      <trkpt lat="45.15072" lon="5.933">
        <ele>2024</ele>
        <time>2000-01-01T07:16:26.000Z</time>
      </trkpt>
      <trkpt lat="45.15079" lon="5.93309">
        <ele>2028.5</ele>
        <time>2000-01-01T07:16:36.000Z</time>
      </trkpt>
      <trkpt lat="45.15079" lon="5.93316">
        <ele>2029.6</ele>
        <time>2000-01-01T07:16:46.000Z</time>
      </trkpt>
      <trkpt lat="45.15072" lon="5.93333">
        <ele>2029</ele>
        <time>2000-01-01T07:16:56.000Z</time>
      </trkpt>
      <trkpt lat="45.15078" lon="5.93349">
        <ele>2034.6</ele>
        <time>2000-01-01T07:17:06.000Z</time>
      </trkpt>
      <trkpt lat="45.15085" lon="5.9336">
        <ele>2036</ele>
        <time>2000-01-01T07:17:16.000Z</time>
      </trkpt>
      <trkpt lat="45.15088" lon="5.93374">
        <ele>2041</ele>
        <time>2000-01-01T07:17:26.000Z</time>
      </trkpt>
      <trkpt lat="45.15095" lon="5.93385">
        <ele>2043</ele>
        <time>2000-01-01T07:17:36.000Z</time>
      </trkpt>
      <trkpt lat="45.15127" lon="5.93401">
        <ele>2039</ele>
        <time>2000-01-01T07:17:46.000Z</time>
      </trkpt>
      <trkpt lat="45.15161" lon="5.93441">
        <ele>2035</ele>
        <time>2000-01-01T07:17:56.000Z</time>
      </trkpt>
      <trkpt lat="45.15187" lon="5.93445">
        <ele>2033</ele>
        <time>2000-01-01T07:18:06.000Z</time>
      </trkpt>
      <trkpt lat="45.15206" lon="5.93466">
        <ele>2028</ele>
        <time>2000-01-01T07:18:16.000Z</time>
      </trkpt>
      <trkpt lat="45.15212" lon="5.93462">
        <ele>2028</ele>
        <time>2000-01-01T07:18:26.000Z</time>
      </trkpt>
      <trkpt lat="45.15227" lon="5.93479">
        <ele>2028</ele>
        <time>2000-01-01T07:18:36.000Z</time>
      </trkpt>
      <trkpt lat="45.15234" lon="5.93477">
        <ele>2025.9</ele>
        <time>2000-01-01T07:18:46.000Z</time>
      </trkpt>
      <trkpt lat="45.15247" lon="5.93489">
        <ele>2027</ele>
        <time>2000-01-01T07:18:56.000Z</time>
      </trkpt>
      <trkpt lat="45.15251" lon="5.93511">
        <ele>2027.9</ele>
        <time>2000-01-01T07:19:06.000Z</time>
      </trkpt>
      <trkpt lat="45.15249" lon="5.93534">
        <ele>2027</ele>
        <time>2000-01-01T07:19:16.000Z</time>
      </trkpt>
      <trkpt lat="45.1526" lon="5.93557">
        <ele>2030</ele>
        <time>2000-01-01T07:19:26.000Z</time>
      </trkpt>
      <trkpt lat="45.15262" lon="5.9358">
        <ele>2032.4</ele>
        <time>2000-01-01T07:19:36.000Z</time>
      </trkpt>
      <trkpt lat="45.15268" lon="5.93589">
        <ele>2030</ele>
        <time>2000-01-01T07:19:46.000Z</time>
      </trkpt>
      <trkpt lat="45.15277" lon="5.93595">
        <ele>2036.1</ele>
        <time>2000-01-01T07:19:56.000Z</time>
      </trkpt>
      <trkpt lat="45.15288" lon="5.93616">
        <ele>2035</ele>
        <time>2000-01-01T07:20:06.000Z</time>
      </trkpt>
      <trkpt lat="45.15288" lon="5.93622">
        <ele>2035.6</ele>
        <time>2000-01-01T07:20:16.000Z</time>
      </trkpt>
      <trkpt lat="45.153" lon="5.93633">
        <ele>2038.5</ele>
        <time>2000-01-01T07:20:26.000Z</time>
      </trkpt>
      <trkpt lat="45.15313" lon="5.93639">
        <ele>2038</ele>
        <time>2000-01-01T07:20:36.000Z</time>
      </trkpt>
      <trkpt lat="45.15321" lon="5.93649">
        <ele>2039.4</ele>
        <time>2000-01-01T07:20:46.000Z</time>
      </trkpt>
      <trkpt lat="45.15332" lon="5.93655">
        <ele>2038</ele>
        <time>2000-01-01T07:20:56.000Z</time>
      </trkpt>
      <trkpt lat="45.15338" lon="5.93675">
        <ele>2038.4</ele>
        <time>2000-01-01T07:21:06.000Z</time>
      </trkpt>
      <trkpt lat="45.15365" lon="5.93725">
        <ele>2038</ele>
        <time>2000-01-01T07:21:16.000Z</time>
      </trkpt>
      <trkpt lat="45.15371" lon="5.93729">
        <ele>2038.5</ele>
        <time>2000-01-01T07:21:26.000Z</time>
      </trkpt>
      <trkpt lat="45.15384" lon="5.93749">
        <ele>2042</ele>
        <time>2000-01-01T07:21:36.000Z</time>
      </trkpt>
      <trkpt lat="45.15394" lon="5.93753">
        <ele>2044.9</ele>
        <time>2000-01-01T07:21:46.000Z</time>
      </trkpt>
      <trkpt lat="45.15397" lon="5.93758">
        <ele>2044.8</ele>
        <time>2000-01-01T07:21:56.000Z</time>
      </trkpt>
      <trkpt lat="45.15405" lon="5.93785">
        <ele>2043</ele>
        <time>2000-01-01T07:22:06.000Z</time>
      </trkpt>
      <trkpt lat="45.1541" lon="5.9382">
        <ele>2044</ele>
        <time>2000-01-01T07:22:16.000Z</time>
      </trkpt>
      <trkpt lat="45.15416" lon="5.93831">
        <ele>2043.8</ele>
        <time>2000-01-01T07:22:26.000Z</time>
      </trkpt>
      <trkpt lat="45.15423" lon="5.93842">
        <ele>2045</ele>
        <time>2000-01-01T07:22:36.000Z</time>
      </trkpt>
      <trkpt lat="45.15434" lon="5.93855">
        <ele>2046.4</ele>
        <time>2000-01-01T07:22:46.000Z</time>
      </trkpt>
      <trkpt lat="45.15439" lon="5.93857">
        <ele>2045</ele>
        <time>2000-01-01T07:22:56.000Z</time>
      </trkpt>
      <trkpt lat="45.15445" lon="5.93866">
        <ele>2048.8</ele>
        <time>2000-01-01T07:23:06.000Z</time>
      </trkpt>
      <trkpt lat="45.15455" lon="5.93893">
        <ele>2045</ele>
        <time>2000-01-01T07:23:16.000Z</time>
      </trkpt>
      <trkpt lat="45.15462" lon="5.93904">
        <ele>2044.2</ele>
        <time>2000-01-01T07:23:26.000Z</time>
      </trkpt>
      <trkpt lat="45.15478" lon="5.93911">
        <ele>2045</ele>
        <time>2000-01-01T07:23:36.000Z</time>
      </trkpt>
      <trkpt lat="45.15485" lon="5.93921">
        <ele>2047.1</ele>
        <time>2000-01-01T07:23:46.000Z</time>
      </trkpt>
      <trkpt lat="45.15488" lon="5.93931">
        <ele>2048.7</ele>
        <time>2000-01-01T07:23:56.000Z</time>
      </trkpt>
      <trkpt lat="45.15507" lon="5.93947">
        <ele>2051</ele>
        <time>2000-01-01T07:24:06.000Z</time>
      </trkpt>
      <trkpt lat="45.15514" lon="5.93993">
        <ele>2051</ele>
        <time>2000-01-01T07:24:16.000Z</time>
      </trkpt>
      <trkpt lat="45.15516" lon="5.94035">
        <ele>2051</ele>
        <time>2000-01-01T07:24:26.000Z</time>
      </trkpt>
      <trkpt lat="45.15525" lon="5.94052">
        <ele>2050.1</ele>
        <time>2000-01-01T07:24:36.000Z</time>
      </trkpt>
      <trkpt lat="45.15532" lon="5.94079">
        <ele>2051</ele>
        <time>2000-01-01T07:24:46.000Z</time>
      </trkpt>
      <trkpt lat="45.15538" lon="5.94093">
        <ele>2051.8</ele>
        <time>2000-01-01T07:24:56.000Z</time>
      </trkpt>
      <trkpt lat="45.15553" lon="5.94099">
        <ele>2051</ele>
        <time>2000-01-01T07:25:06.000Z</time>
      </trkpt>
      <trkpt lat="45.15564" lon="5.94109">
        <ele>2052.4</ele>
        <time>2000-01-01T07:25:16.000Z</time>
      </trkpt>
      <trkpt lat="45.15575" lon="5.94115">
        <ele>2051</ele>
        <time>2000-01-01T07:25:26.000Z</time>
      </trkpt>
      <trkpt lat="45.15588" lon="5.94119">
        <ele>2048.9</ele>
        <time>2000-01-01T07:25:36.000Z</time>
      </trkpt>
      <trkpt lat="45.15602" lon="5.9416">
        <ele>2050</ele>
        <time>2000-01-01T07:25:46.000Z</time>
      </trkpt>
      <trkpt lat="45.15606" lon="5.94191">
        <ele>2050</ele>
        <time>2000-01-01T07:25:56.000Z</time>
      </trkpt>
      <trkpt lat="45.15619" lon="5.94192">
        <ele>2049.7</ele>
        <time>2000-01-01T07:26:06.000Z</time>
      </trkpt>
      <trkpt lat="45.15625" lon="5.94189">
        <ele>2049</ele>
        <time>2000-01-01T07:26:16.000Z</time>
      </trkpt>
      <trkpt lat="45.15636" lon="5.94188">
        <ele>2048.5</ele>
        <time>2000-01-01T07:26:26.000Z</time>
      </trkpt>
      <trkpt lat="45.15647" lon="5.94191">
        <ele>2049</ele>
        <time>2000-01-01T07:26:36.000Z</time>
      </trkpt>
      <trkpt lat="45.15666" lon="5.94204">
        <ele>2049</ele>
        <time>2000-01-01T07:26:46.000Z</time>
      </trkpt>
      <trkpt lat="45.15682" lon="5.94211">
        <ele>2051.7</ele>
        <time>2000-01-01T07:26:56.000Z</time>
      </trkpt>
      <trkpt lat="45.15707" lon="5.94206">
        <ele>2049</ele>
        <time>2000-01-01T07:27:06.000Z</time>
      </trkpt>
      <trkpt lat="45.15715" lon="5.94209">
        <ele>2052.7</ele>
        <time>2000-01-01T07:27:16.000Z</time>
      </trkpt>
      <trkpt lat="45.15733" lon="5.94209">
        <ele>2050</ele>
        <time>2000-01-01T07:27:26.000Z</time>
      </trkpt>
      <trkpt lat="45.15752" lon="5.94217">
        <ele>2055</ele>
        <time>2000-01-01T07:27:36.000Z</time>
      </trkpt>
      <trkpt lat="45.15758" lon="5.94241">
        <ele>2066.9</ele>
        <time>2000-01-01T07:27:46.000Z</time>
      </trkpt>
      <trkpt lat="45.15784" lon="5.94278">
        <ele>2074</ele>
        <time>2000-01-01T07:27:56.000Z</time>
      </trkpt>
      <trkpt lat="45.15789" lon="5.94292">
        <ele>2077.2</ele>
        <time>2000-01-01T07:28:06.000Z</time>
      </trkpt>
      <trkpt lat="45.15806" lon="5.94294">
        <ele>2077</ele>
        <time>2000-01-01T07:28:16.000Z</time>
      </trkpt>
      <trkpt lat="45.15831" lon="5.94305">
        <ele>2079</ele>
        <time>2000-01-01T07:28:26.000Z</time>
      </trkpt>
      <trkpt lat="45.15855" lon="5.94327">
        <ele>2081</ele>
        <time>2000-01-01T07:28:36.000Z</time>
      </trkpt>
      <trkpt lat="45.15863" lon="5.94331">
        <ele>2081.8</ele>
        <time>2000-01-01T07:28:46.000Z</time>
      </trkpt>
      <trkpt lat="45.15897" lon="5.94358">
        <ele>2082</ele>
        <time>2000-01-01T07:28:56.000Z</time>
      </trkpt>
      <trkpt lat="45.15918" lon="5.94368">
        <ele>2083</ele>
        <time>2000-01-01T07:29:06.000Z</time>
      </trkpt>
      <trkpt lat="45.15927" lon="5.94379">
        <ele>2084.4</ele>
        <time>2000-01-01T07:29:16.000Z</time>
      </trkpt>
      <trkpt lat="45.15952" lon="5.94392">
        <ele>2085</ele>
        <time>2000-01-01T07:29:26.000Z</time>
      </trkpt>
      <trkpt lat="45.15968" lon="5.94407">
        <ele>2085</ele>
        <time>2000-01-01T07:29:36.000Z</time>
      </trkpt>
      <trkpt lat="45.15974" lon="5.94417">
        <ele>2086.1</ele>
        <time>2000-01-01T07:29:46.000Z</time>
      </trkpt>
      <trkpt lat="45.16001" lon="5.94445">
        <ele>2088</ele>
        <time>2000-01-01T07:29:56.000Z</time>
      </trkpt>
      <trkpt lat="45.16011" lon="5.94452">
        <ele>2089.9</ele>
        <time>2000-01-01T07:30:06.000Z</time>
      </trkpt>
      <trkpt lat="45.16029" lon="5.94471">
        <ele>2090</ele>
        <time>2000-01-01T07:30:16.000Z</time>
      </trkpt>
      <trkpt lat="45.16064" lon="5.9448">
        <ele>2094</ele>
        <time>2000-01-01T07:30:26.000Z</time>
      </trkpt>
      <trkpt lat="45.16072" lon="5.94478">
        <ele>2096.8</ele>
        <time>2000-01-01T07:30:36.000Z</time>
      </trkpt>
      <trkpt lat="45.16083" lon="5.94471">
        <ele>2096</ele>
        <time>2000-01-01T07:30:46.000Z</time>
      </trkpt>
      <trkpt lat="45.16088" lon="5.94463">
        <ele>2098.3</ele>
        <time>2000-01-01T07:30:56.000Z</time>
      </trkpt>
      <trkpt lat="45.16101" lon="5.94459">
        <ele>2099</ele>
        <time>2000-01-01T07:31:06.000Z</time>
      </trkpt>
      <trkpt lat="45.16103" lon="5.94456">
        <ele>2102</ele>
        <time>2000-01-01T07:31:16.000Z</time>
      </trkpt>
      <trkpt lat="45.16109" lon="5.94456">
        <ele>2103.8</ele>
        <time>2000-01-01T07:31:26.000Z</time>
      </trkpt>
      <trkpt lat="45.16111" lon="5.9445">
        <ele>2104.2</ele>
        <time>2000-01-01T07:31:36.000Z</time>
      </trkpt>
      <trkpt lat="45.16117" lon="5.94449">
        <ele>2102</ele>
        <time>2000-01-01T07:31:46.000Z</time>
      </trkpt>
      <trkpt lat="45.16124" lon="5.94443">
        <ele>2107.1</ele>
        <time>2000-01-01T07:31:56.000Z</time>
      </trkpt>
      <trkpt lat="45.16125" lon="5.94436">
        <ele>2106.4</ele>
        <time>2000-01-01T07:32:06.000Z</time>
      </trkpt>
      <trkpt lat="45.16167" lon="5.94471">
        <ele>2118</ele>
        <time>2000-01-01T07:32:16.000Z</time>
      </trkpt>
      <trkpt lat="45.16176" lon="5.94496">
        <ele>2123</ele>
        <time>2000-01-01T07:32:26.000Z</time>
      </trkpt>
      <trkpt lat="45.16193" lon="5.94526">
        <ele>2128</ele>
        <time>2000-01-01T07:32:36.000Z</time>
      </trkpt>
      <trkpt lat="45.16209" lon="5.9454">
        <ele>2132.7</ele>
        <time>2000-01-01T07:32:46.000Z</time>
      </trkpt>
      <trkpt lat="45.16257" lon="5.94544">
        <ele>2138</ele>
        <time>2000-01-01T07:32:56.000Z</time>
      </trkpt>
      <trkpt lat="45.16283" lon="5.94551">
        <ele>2143</ele>
        <time>2000-01-01T07:33:06.000Z</time>
      </trkpt>
      <trkpt lat="45.16288" lon="5.94555">
        <ele>2146.6</ele>
        <time>2000-01-01T07:33:16.000Z</time>
      </trkpt>
      <trkpt lat="45.1629" lon="5.94551">
        <ele>2148.5</ele>
        <time>2000-01-01T07:33:26.000Z</time>
      </trkpt>
      <trkpt lat="45.16297" lon="5.94553">
        <ele>2150.8</ele>
        <time>2000-01-01T07:33:36.000Z</time>
      </trkpt>
      <trkpt lat="45.16315" lon="5.94543">
        <ele>2153</ele>
        <time>2000-01-01T07:33:46.000Z</time>
      </trkpt>
      <trkpt lat="45.16321" lon="5.94547">
        <ele>2160.8</ele>
        <time>2000-01-01T07:33:56.000Z</time>
      </trkpt>
      <trkpt lat="45.1634" lon="5.94539">
        <ele>2164</ele>
        <time>2000-01-01T07:34:06.000Z</time>
      </trkpt>
      <trkpt lat="45.16353" lon="5.94536">
        <ele>2167</ele>
        <time>2000-01-01T07:34:16.000Z</time>
      </trkpt>
      <trkpt lat="45.16351" lon="5.94537">
        <ele>2166.9</ele>
        <time>2000-01-01T07:34:26.000Z</time>
      </trkpt>
      <trkpt lat="45.16355" lon="5.94546">
        <ele>2168</ele>
        <time>2000-01-01T07:34:36.000Z</time>
      </trkpt>
      <trkpt lat="45.16365" lon="5.9456">
        <ele>2170.3</ele>
        <time>2000-01-01T07:34:46.000Z</time>
      </trkpt>
      <trkpt lat="45.16372" lon="5.94574">
        <ele>2170</ele>
        <time>2000-01-01T07:34:56.000Z</time>
      </trkpt>
      <trkpt lat="45.16376" lon="5.9458">
        <ele>2171.7</ele>
        <time>2000-01-01T07:35:06.000Z</time>
      </trkpt>
      <trkpt lat="45.1638" lon="5.94588">
        <ele>2173.6</ele>
        <time>2000-01-01T07:35:16.000Z</time>
      </trkpt>
      <trkpt lat="45.1638" lon="5.94599">
        <ele>2172</ele>
        <time>2000-01-01T07:35:26.000Z</time>
      </trkpt>
      <trkpt lat="45.16381" lon="5.94611">
        <ele>2178.6</ele>
        <time>2000-01-01T07:35:36.000Z</time>
      </trkpt>
      <trkpt lat="45.16387" lon="5.94622">
        <ele>2181.6</ele>
        <time>2000-01-01T07:35:46.000Z</time>
      </trkpt>
      <trkpt lat="45.16394" lon="5.94637">
        <ele>2184</ele>
        <time>2000-01-01T07:35:56.000Z</time>
      </trkpt>
      <trkpt lat="45.164" lon="5.94642">
        <ele>2186.1</ele>
        <time>2000-01-01T07:36:06.000Z</time>
      </trkpt>
      <trkpt lat="45.16406" lon="5.94645">
        <ele>2187.5</ele>
        <time>2000-01-01T07:36:16.000Z</time>
      </trkpt>
      <trkpt lat="45.16413" lon="5.94655">
        <ele>2188</ele>
        <time>2000-01-01T07:36:26.000Z</time>
      </trkpt>
      <trkpt lat="45.16416" lon="5.94662">
        <ele>2187.6</ele>
        <time>2000-01-01T07:36:36.000Z</time>
      </trkpt>
      <trkpt lat="45.1642" lon="5.94665">
        <ele>2188.3</ele>
        <time>2000-01-01T07:36:46.000Z</time>
      </trkpt>
      <trkpt lat="45.16426" lon="5.94666">
        <ele>2190.1</ele>
        <time>2000-01-01T07:36:56.000Z</time>
      </trkpt>
      <trkpt lat="45.16437" lon="5.94673">
        <ele>2191</ele>
        <time>2000-01-01T07:37:06.000Z</time>
      </trkpt>
      <trkpt lat="45.16455" lon="5.94694">
        <ele>2193</ele>
        <time>2000-01-01T07:37:16.000Z</time>
      </trkpt>
      <trkpt lat="45.1647" lon="5.94705">
        <ele>2196.9</ele>
        <time>2000-01-01T07:37:26.000Z</time>
      </trkpt>
      <trkpt lat="45.16491" lon="5.94707">
        <ele>2202</ele>
        <time>2000-01-01T07:37:36.000Z</time>
      </trkpt>
      <trkpt lat="45.16504" lon="5.94709">
        <ele>2204</ele>
        <time>2000-01-01T07:37:46.000Z</time>
      </trkpt>
      <trkpt lat="45.16517" lon="5.94712">
        <ele>2204</ele>
        <time>2000-01-01T07:37:56.000Z</time>
      </trkpt>
      <trkpt lat="45.16527" lon="5.94724">
        <ele>2205.1</ele>
        <time>2000-01-01T07:38:06.000Z</time>
      </trkpt>
      <trkpt lat="45.16531" lon="5.9473">
        <ele>2206.2</ele>
        <time>2000-01-01T07:38:16.000Z</time>
      </trkpt>
      <trkpt lat="45.16537" lon="5.9473">
        <ele>2205</ele>
        <time>2000-01-01T07:38:26.000Z</time>
      </trkpt>
      <trkpt lat="45.16538" lon="5.94731">
        <ele>2207.7</ele>
        <time>2000-01-01T07:38:36.000Z</time>
      </trkpt>
      <trkpt lat="45.1654" lon="5.94736">
        <ele>2208.4</ele>
        <time>2000-01-01T07:38:46.000Z</time>
      </trkpt>
      <trkpt lat="45.16548" lon="5.9475">
        <ele>2210.6</ele>
        <time>2000-01-01T07:38:56.000Z</time>
      </trkpt>
      <trkpt lat="45.16555" lon="5.94765">
        <ele>2210</ele>
        <time>2000-01-01T07:39:06.000Z</time>
      </trkpt>
      <trkpt lat="45.16561" lon="5.94785">
        <ele>2215.4</ele>
        <time>2000-01-01T07:39:16.000Z</time>
      </trkpt>
      <trkpt lat="45.16561" lon="5.94791">
        <ele>2214</ele>
        <time>2000-01-01T07:39:26.000Z</time>
      </trkpt>
      <trkpt lat="45.16556" lon="5.94797">
        <ele>2217</ele>
        <time>2000-01-01T07:39:36.000Z</time>
      </trkpt>
      <trkpt lat="45.16564" lon="5.94809">
        <ele>2223.1</ele>
        <time>2000-01-01T07:39:46.000Z</time>
      </trkpt>
      <trkpt lat="45.16569" lon="5.94813">
        <ele>2221</ele>
        <time>2000-01-01T07:39:56.000Z</time>
      </trkpt>
      <trkpt lat="45.16572" lon="5.94823">
        <ele>2231.8</ele>
        <time>2000-01-01T07:40:06.000Z</time>
      </trkpt>
      <trkpt lat="45.16575" lon="5.94823">
        <ele>2232.5</ele>
        <time>2000-01-01T07:40:16.000Z</time>
      </trkpt>
      <trkpt lat="45.16581" lon="5.94827">
        <ele>2235.7</ele>
        <time>2000-01-01T07:40:26.000Z</time>
      </trkpt>
      <trkpt lat="45.16586" lon="5.94833">
        <ele>2236</ele>
        <time>2000-01-01T07:40:36.000Z</time>
      </trkpt>
      <trkpt lat="45.16594" lon="5.94827">
        <ele>2241.4</ele>
        <time>2000-01-01T07:40:46.000Z</time>
      </trkpt>
      <trkpt lat="45.16598" lon="5.94827">
        <ele>2243.4</ele>
        <time>2000-01-01T07:40:56.000Z</time>
      </trkpt>
      <trkpt lat="45.16603" lon="5.94831">
        <ele>2247.3</ele>
        <time>2000-01-01T07:41:06.000Z</time>
      </trkpt>
      <trkpt lat="45.16605" lon="5.94831">
        <ele>2244</ele>
        <time>2000-01-01T07:41:16.000Z</time>
      </trkpt>
      <trkpt lat="45.1661" lon="5.94829">
        <ele>2249.9</ele>
        <time>2000-01-01T07:41:26.000Z</time>
      </trkpt>
      <trkpt lat="45.16611" lon="5.94828">
        <ele>2250</ele>
        <time>2000-01-01T07:41:36.000Z</time>
      </trkpt>
      <trkpt lat="45.16611" lon="5.94833">
        <ele>2251.8</ele>
        <time>2000-01-01T07:41:46.000Z</time>
      </trkpt>
      <trkpt lat="45.1661" lon="5.94838">
        <ele>2252.7</ele>
        <time>2000-01-01T07:41:56.000Z</time>
      </trkpt>
      <trkpt lat="45.1661" lon="5.94847">
        <ele>2247</ele>
        <time>2000-01-01T07:42:06.000Z</time>
      </trkpt>
      <trkpt lat="45.16608" lon="5.94851">
        <ele>2255.2</ele>
        <time>2000-01-01T07:42:16.000Z</time>
      </trkpt>
      <trkpt lat="45.16604" lon="5.94854">
        <ele>2254.5</ele>
        <time>2000-01-01T07:42:26.000Z</time>
      </trkpt>
      <trkpt lat="45.16603" lon="5.94861">
        <ele>2256</ele>
        <time>2000-01-01T07:42:36.000Z</time>
      </trkpt>
      <trkpt lat="45.166" lon="5.94868">
        <ele>2256.7</ele>
        <time>2000-01-01T07:42:46.000Z</time>
      </trkpt>
      <trkpt lat="45.16592" lon="5.94875">
        <ele>2252</ele>
        <time>2000-01-01T07:42:56.000Z</time>
      </trkpt>
      <trkpt lat="45.16594" lon="5.9488">
        <ele>2257.6</ele>
        <time>2000-01-01T07:43:06.000Z</time>
      </trkpt>
      <trkpt lat="45.16592" lon="5.94882">
        <ele>2257.4</ele>
        <time>2000-01-01T07:43:16.000Z</time>
      </trkpt>
      <trkpt lat="45.16592" lon="5.94908">
        <ele>2258</ele>
        <time>2000-01-01T07:43:26.000Z</time>
      </trkpt>
      <trkpt lat="45.16591" lon="5.94922">
        <ele>2260.6</ele>
        <time>2000-01-01T07:43:36.000Z</time>
      </trkpt>
      <trkpt lat="45.16594" lon="5.94933">
        <ele>2260.6</ele>
        <time>2000-01-01T07:43:46.000Z</time>
      </trkpt>
      <trkpt lat="45.16596" lon="5.94944">
        <ele>2258</ele>
        <time>2000-01-01T07:43:56.000Z</time>
      </trkpt>
      <trkpt lat="45.16603" lon="5.94971">
        <ele>2258</ele>
        <time>2000-01-01T07:44:06.000Z</time>
      </trkpt>
      <trkpt lat="45.16604" lon="5.94984">
        <ele>2258.8</ele>
        <time>2000-01-01T07:44:16.000Z</time>
      </trkpt>
      <trkpt lat="45.16601" lon="5.95017">
        <ele>2258</ele>
        <time>2000-01-01T07:44:26.000Z</time>
      </trkpt>
      <trkpt lat="45.16602" lon="5.95035">
        <ele>2260.9</ele>
        <time>2000-01-01T07:44:36.000Z</time>
      </trkpt>
      <trkpt lat="45.16605" lon="5.95049">
        <ele>2261</ele>
        <time>2000-01-01T07:44:46.000Z</time>
      </trkpt>
      <trkpt lat="45.16611" lon="5.95065">
        <ele>2263.3</ele>
        <time>2000-01-01T07:44:56.000Z</time>
      </trkpt>
      <trkpt lat="45.16619" lon="5.9508">
        <ele>2263</ele>
        <time>2000-01-01T07:45:06.000Z</time>
      </trkpt>
      <trkpt lat="45.16621" lon="5.95092">
        <ele>2265.6</ele>
        <time>2000-01-01T07:45:16.000Z</time>
      </trkpt>
      <trkpt lat="45.16619" lon="5.95106">
        <ele>2266.1</ele>
        <time>2000-01-01T07:45:26.000Z</time>
      </trkpt>
      <trkpt lat="45.16621" lon="5.95115">
        <ele>2265</ele>
        <time>2000-01-01T07:45:36.000Z</time>
      </trkpt>
      <trkpt lat="45.16628" lon="5.95129">
        <ele>2269.1</ele>
        <time>2000-01-01T07:45:46.000Z</time>
      </trkpt>
      <trkpt lat="45.1663" lon="5.95136">
        <ele>2269.9</ele>
        <time>2000-01-01T07:45:56.000Z</time>
      </trkpt>
      <trkpt lat="45.16649" lon="5.9517">
        <ele>2273</ele>
        <time>2000-01-01T07:46:06.000Z</time>
      </trkpt>
      <trkpt lat="45.1665" lon="5.95186">
        <ele>2278.8</ele>
        <time>2000-01-01T07:46:16.000Z</time>
      </trkpt>
      <trkpt lat="45.16654" lon="5.95192">
        <ele>2280.7</ele>
        <time>2000-01-01T07:46:26.000Z</time>
      </trkpt>
      <trkpt lat="45.16656" lon="5.95205">
        <ele>2279</ele>
        <time>2000-01-01T07:46:36.000Z</time>
      </trkpt>
      <trkpt lat="45.16662" lon="5.95216">
        <ele>2287</ele>
        <time>2000-01-01T07:46:46.000Z</time>
      </trkpt>
      <trkpt lat="45.16668" lon="5.95242">
        <ele>2293</ele>
        <time>2000-01-01T07:46:56.000Z</time>
      </trkpt>
      <trkpt lat="45.16661" lon="5.95264">
        <ele>2303.2</ele>
        <time>2000-01-01T07:47:06.000Z</time>
      </trkpt>
      <trkpt lat="45.16644" lon="5.95305">
        <ele>2312</ele>
        <time>2000-01-01T07:47:16.000Z</time>
      </trkpt>
      <trkpt lat="45.16632" lon="5.9532">
        <ele>2323.7</ele>
        <time>2000-01-01T07:47:26.000Z</time>
      </trkpt>
      <trkpt lat="45.16614" lon="5.95319">
        <ele>2318</ele>
        <time>2000-01-01T07:47:36.000Z</time>
      </trkpt>
      <trkpt lat="45.16615" lon="5.95326">
        <ele>2326.4</ele>
        <time>2000-01-01T07:47:46.000Z</time>
      </trkpt>
      <trkpt lat="45.16621" lon="5.95335">
        <ele>2331.4</ele>
        <time>2000-01-01T07:47:56.000Z</time>
      </trkpt>
      <trkpt lat="45.16626" lon="5.95338">
        <ele>2326</ele>
        <time>2000-01-01T07:48:06.000Z</time>
      </trkpt>
      <trkpt lat="45.16609" lon="5.95339">
        <ele>2333.9</ele>
        <time>2000-01-01T07:48:16.000Z</time>
      </trkpt>
      <trkpt lat="45.16621" lon="5.95348">
        <ele>2334</ele>
        <time>2000-01-01T07:48:26.000Z</time>
      </trkpt>
      <trkpt lat="45.16635" lon="5.95354">
        <ele>2344.1</ele>
        <time>2000-01-01T07:48:36.000Z</time>
      </trkpt>
      <trkpt lat="45.16651" lon="5.95371">
        <ele>2359</ele>
        <time>2000-01-01T07:48:46.000Z</time>
      </trkpt>
      <trkpt lat="45.16643" lon="5.9538">
        <ele>2365.1</ele>
        <time>2000-01-01T07:48:56.000Z</time>
      </trkpt>
      <trkpt lat="45.16632" lon="5.95386">
        <ele>2356</ele>
        <time>2000-01-01T07:49:06.000Z</time>
      </trkpt>
      <trkpt lat="45.16622" lon="5.95379">
        <ele>2361.2</ele>
        <time>2000-01-01T07:49:16.000Z</time>
      </trkpt>
      <trkpt lat="45.16613" lon="5.95378">
        <ele>2358</ele>
        <time>2000-01-01T07:49:26.000Z</time>
      </trkpt>
      <trkpt lat="45.16602" lon="5.95379">
        <ele>2360.1</ele>
        <time>2000-01-01T07:49:36.000Z</time>
      </trkpt>
      <trkpt lat="45.16591" lon="5.95383">
        <ele>2360</ele>
        <time>2000-01-01T07:49:46.000Z</time>
      </trkpt>
      <trkpt lat="45.16578" lon="5.95392">
        <ele>2367.6</ele>
        <time>2000-01-01T07:49:56.000Z</time>
      </trkpt>
      <trkpt lat="45.16575" lon="5.95388">
        <ele>2365.6</ele>
        <time>2000-01-01T07:50:06.000Z</time>
      </trkpt>
      <trkpt lat="45.16568" lon="5.95382">
        <ele>2362</ele>
        <time>2000-01-01T07:50:16.000Z</time>
      </trkpt>
      <trkpt lat="45.16563" lon="5.95381">
        <ele>2363</ele>
        <time>2000-01-01T07:50:26.000Z</time>
      </trkpt>
      <trkpt lat="45.16556" lon="5.95382">
        <ele>2363.7</ele>
        <time>2000-01-01T07:50:36.000Z</time>
      </trkpt>
      <trkpt lat="45.16543" lon="5.95392">
        <ele>2365</ele>
        <time>2000-01-01T07:50:46.000Z</time>
      </trkpt>
      <trkpt lat="45.16537" lon="5.95393">
        <ele>2366.2</ele>
        <time>2000-01-01T07:50:56.000Z</time>
      </trkpt>
      <trkpt lat="45.16529" lon="5.95397">
        <ele>2366.3</ele>
        <time>2000-01-01T07:51:06.000Z</time>
      </trkpt>
      <trkpt lat="45.1652" lon="5.95404">
        <ele>2365</ele>
        <time>2000-01-01T07:51:16.000Z</time>
      </trkpt>
      <trkpt lat="45.16517" lon="5.95413">
        <ele>2367</ele>
        <time>2000-01-01T07:51:26.000Z</time>
      </trkpt>
      <trkpt lat="45.16512" lon="5.95423">
        <ele>2368.1</ele>
        <time>2000-01-01T07:51:36.000Z</time>
      </trkpt>
      <trkpt lat="45.16506" lon="5.95427">
        <ele>2364</ele>
        <time>2000-01-01T07:51:46.000Z</time>
      </trkpt>
      <trkpt lat="45.165" lon="5.9543">
        <ele>2366.9</ele>
        <time>2000-01-01T07:51:56.000Z</time>
      </trkpt>
      <trkpt lat="45.16493" lon="5.95435">
        <ele>2366.6</ele>
        <time>2000-01-01T07:52:06.000Z</time>
      </trkpt>
      <trkpt lat="45.16486" lon="5.95443">
        <ele>2364</ele>
        <time>2000-01-01T07:52:16.000Z</time>
      </trkpt>
      <trkpt lat="45.16472" lon="5.95476">
        <ele>2364</ele>
        <time>2000-01-01T07:52:26.000Z</time>
      </trkpt>
      <trkpt lat="45.16469" lon="5.95482">
        <ele>2367.8</ele>
        <time>2000-01-01T07:52:36.000Z</time>
      </trkpt>
      <trkpt lat="45.16462" lon="5.95492">
        <ele>2367.3</ele>
        <time>2000-01-01T07:52:46.000Z</time>
      </trkpt>
      <trkpt lat="45.16451" lon="5.9551">
        <ele>2365</ele>
        <time>2000-01-01T07:52:56.000Z</time>
      </trkpt>
      <trkpt lat="45.1645" lon="5.9552">
        <ele>2367</ele>
        <time>2000-01-01T07:53:06.000Z</time>
      </trkpt>
      <trkpt lat="45.16453" lon="5.95544">
        <ele>2370</ele>
        <time>2000-01-01T07:53:16.000Z</time>
      </trkpt>
      <trkpt lat="45.16455" lon="5.95555">
        <ele>2371.4</ele>
        <time>2000-01-01T07:53:26.000Z</time>
      </trkpt>
      <trkpt lat="45.16454" lon="5.95563">
        <ele>2370.2</ele>
        <time>2000-01-01T07:53:36.000Z</time>
      </trkpt>
      <trkpt lat="45.16451" lon="5.95577">
        <ele>2370</ele>
        <time>2000-01-01T07:53:46.000Z</time>
      </trkpt>
      <trkpt lat="45.16449" lon="5.956">
        <ele>2367.8</ele>
        <time>2000-01-01T07:53:56.000Z</time>
      </trkpt>
      <trkpt lat="45.16449" lon="5.95655">
        <ele>2363</ele>
        <time>2000-01-01T07:54:06.000Z</time>
      </trkpt>
      <trkpt lat="45.16448" lon="5.95666">
        <ele>2368.1</ele>
        <time>2000-01-01T07:54:16.000Z</time>
      </trkpt>
      <trkpt lat="45.16437" lon="5.95688">
        <ele>2363</ele>
        <time>2000-01-01T07:54:26.000Z</time>
      </trkpt>
      <trkpt lat="45.16433" lon="5.95698">
        <ele>2371.7</ele>
        <time>2000-01-01T07:54:36.000Z</time>
      </trkpt>
      <trkpt lat="45.1643" lon="5.95717">
        <ele>2364</ele>
        <time>2000-01-01T07:54:46.000Z</time>
      </trkpt>
      <trkpt lat="45.16428" lon="5.95726">
        <ele>2372.1</ele>
        <time>2000-01-01T07:54:56.000Z</time>
      </trkpt>
      <trkpt lat="45.16423" lon="5.95739">
        <ele>2372.4</ele>
        <time>2000-01-01T07:55:06.000Z</time>
      </trkpt>
      <trkpt lat="45.16416" lon="5.95749">
        <ele>2365</ele>
        <time>2000-01-01T07:55:16.000Z</time>
      </trkpt>
      <trkpt lat="45.16407" lon="5.95759">
        <ele>2374</ele>
        <time>2000-01-01T07:55:26.000Z</time>
      </trkpt>
      <trkpt lat="45.16392" lon="5.9577">
        <ele>2373</ele>
        <time>2000-01-01T07:55:36.000Z</time>
      </trkpt>
      <trkpt lat="45.16384" lon="5.95778">
        <ele>2374.9</ele>
        <time>2000-01-01T07:55:46.000Z</time>
      </trkpt>
      <trkpt lat="45.16373" lon="5.95792">
        <ele>2374</ele>
        <time>2000-01-01T07:55:56.000Z</time>
      </trkpt>
      <trkpt lat="45.16362" lon="5.95811">
        <ele>2380.6</ele>
        <time>2000-01-01T07:56:06.000Z</time>
      </trkpt>
      <trkpt lat="45.16359" lon="5.95819">
        <ele>2375</ele>
        <time>2000-01-01T07:56:16.000Z</time>
      </trkpt>
      <trkpt lat="45.16352" lon="5.95829">
        <ele>2384.1</ele>
        <time>2000-01-01T07:56:26.000Z</time>
      </trkpt>
      <trkpt lat="45.16346" lon="5.95843">
        <ele>2380</ele>
        <time>2000-01-01T07:56:36.000Z</time>
      </trkpt>
      <trkpt lat="45.16341" lon="5.95859">
        <ele>2385.1</ele>
        <time>2000-01-01T07:56:46.000Z</time>
      </trkpt>
      <trkpt lat="45.16338" lon="5.95875">
        <ele>2380</ele>
        <time>2000-01-01T07:56:56.000Z</time>
      </trkpt>
      <trkpt lat="45.16336" lon="5.95897">
        <ele>2384.9</ele>
        <time>2000-01-01T07:57:06.000Z</time>
      </trkpt>
      <trkpt lat="45.16338" lon="5.95911">
        <ele>2383</ele>
        <time>2000-01-01T07:57:16.000Z</time>
      </trkpt>
      <trkpt lat="45.16349" lon="5.95955">
        <ele>2387</ele>
        <time>2000-01-01T07:57:26.000Z</time>
      </trkpt>
      <trkpt lat="45.16358" lon="5.96004">
        <ele>2390</ele>
        <time>2000-01-01T07:57:36.000Z</time>
      </trkpt>
      <trkpt lat="45.16369" lon="5.96036">
        <ele>2394</ele>
        <time>2000-01-01T07:57:46.000Z</time>
      </trkpt>
      <trkpt lat="45.1638" lon="5.9607">
        <ele>2397</ele>
        <time>2000-01-01T07:57:56.000Z</time>
      </trkpt>
      <trkpt lat="45.16393" lon="5.96101">
        <ele>2399</ele>
        <time>2000-01-01T07:58:06.000Z</time>
      </trkpt>
      <trkpt lat="45.16408" lon="5.96136">
        <ele>2399</ele>
        <time>2000-01-01T07:58:16.000Z</time>
      </trkpt>
      <trkpt lat="45.16419" lon="5.96165">
        <ele>2400</ele>
        <time>2000-01-01T07:58:26.000Z</time>
      </trkpt>
      <trkpt lat="45.16427" lon="5.96184">
        <ele>2405.1</ele>
        <time>2000-01-01T07:58:36.000Z</time>
      </trkpt>
      <trkpt lat="45.16429" lon="5.96198">
        <ele>2402</ele>
        <time>2000-01-01T07:58:46.000Z</time>
      </trkpt>
      <trkpt lat="45.16435" lon="5.96217">
        <ele>2404.5</ele>
        <time>2000-01-01T07:58:56.000Z</time>
      </trkpt>
      <trkpt lat="45.1644" lon="5.96229">
        <ele>2403</ele>
        <time>2000-01-01T07:59:06.000Z</time>
      </trkpt>
      <trkpt lat="45.16447" lon="5.96237">
        <ele>2405.7</ele>
        <time>2000-01-01T07:59:16.000Z</time>
      </trkpt>
      <trkpt lat="45.16452" lon="5.96244">
        <ele>2405.1</ele>
        <time>2000-01-01T07:59:26.000Z</time>
      </trkpt>
      <trkpt lat="45.16453" lon="5.96251">
        <ele>2404</ele>
        <time>2000-01-01T07:59:36.000Z</time>
      </trkpt>
      <trkpt lat="45.16461" lon="5.9627">
        <ele>2403.8</ele>
        <time>2000-01-01T07:59:46.000Z</time>
      </trkpt>
      <trkpt lat="45.16468" lon="5.96279">
        <ele>2404</ele>
        <time>2000-01-01T07:59:56.000Z</time>
      </trkpt>
      <trkpt lat="45.16483" lon="5.96303">
        <ele>2404</ele>
        <time>2000-01-01T08:00:06.000Z</time>
      </trkpt>
      <trkpt lat="45.16492" lon="5.9633">
        <ele>2404</ele>
        <time>2000-01-01T08:00:16.000Z</time>
      </trkpt>
      <trkpt lat="45.16493" lon="5.96341">
        <ele>2404.4</ele>
        <time>2000-01-01T08:00:26.000Z</time>
      </trkpt>
      <trkpt lat="45.16495" lon="5.96346">
        <ele>2404.1</ele>
        <time>2000-01-01T08:00:36.000Z</time>
      </trkpt>
      <trkpt lat="45.16514" lon="5.9636">
        <ele>2404</ele>
        <time>2000-01-01T08:00:46.000Z</time>
      </trkpt>
      <trkpt lat="45.16536" lon="5.96374">
        <ele>2402</ele>
        <time>2000-01-01T08:00:56.000Z</time>
      </trkpt>
      <trkpt lat="45.16538" lon="5.96379">
        <ele>2402.4</ele>
        <time>2000-01-01T08:01:06.000Z</time>
      </trkpt>
      <trkpt lat="45.16538" lon="5.96389">
        <ele>2401.4</ele>
        <time>2000-01-01T08:01:16.000Z</time>
      </trkpt>
      <trkpt lat="45.16537" lon="5.96399">
        <ele>2402.1</ele>
        <time>2000-01-01T08:01:26.000Z</time>
      </trkpt>
      <trkpt lat="45.16535" lon="5.96408">
        <ele>2402</ele>
        <time>2000-01-01T08:01:36.000Z</time>
      </trkpt>
      <trkpt lat="45.16532" lon="5.96411">
        <ele>2402.7</ele>
        <time>2000-01-01T08:01:46.000Z</time>
      </trkpt>
      <trkpt lat="45.16529" lon="5.96418">
        <ele>2403.2</ele>
        <time>2000-01-01T08:01:56.000Z</time>
      </trkpt>
      <trkpt lat="45.16522" lon="5.96431">
        <ele>2403</ele>
        <time>2000-01-01T08:02:06.000Z</time>
      </trkpt>
      <trkpt lat="45.16518" lon="5.96444">
        <ele>2403.5</ele>
        <time>2000-01-01T08:02:16.000Z</time>
      </trkpt>
      <trkpt lat="45.16519" lon="5.96449">
        <ele>2404.1</ele>
        <time>2000-01-01T08:02:26.000Z</time>
      </trkpt>
      <trkpt lat="45.1652" lon="5.9646">
        <ele>2405</ele>
        <time>2000-01-01T08:02:36.000Z</time>
      </trkpt>
      <trkpt lat="45.1652" lon="5.96494">
        <ele>2404</ele>
        <time>2000-01-01T08:02:46.000Z</time>
      </trkpt>
      <trkpt lat="45.16522" lon="5.9653">
        <ele>2404</ele>
        <time>2000-01-01T08:02:56.000Z</time>
      </trkpt>
      <trkpt lat="45.16526" lon="5.96544">
        <ele>2406.9</ele>
        <time>2000-01-01T08:03:06.000Z</time>
      </trkpt>
      <trkpt lat="45.16537" lon="5.96567">
        <ele>2407</ele>
        <time>2000-01-01T08:03:16.000Z</time>
      </trkpt>
      <trkpt lat="45.16546" lon="5.9658">
        <ele>2411.7</ele>
        <time>2000-01-01T08:03:26.000Z</time>
      </trkpt>
      <trkpt lat="45.16556" lon="5.96598">
        <ele>2412</ele>
        <time>2000-01-01T08:03:36.000Z</time>
      </trkpt>
      <trkpt lat="45.16559" lon="5.96607">
        <ele>2412.9</ele>
        <time>2000-01-01T08:03:46.000Z</time>
      </trkpt>
      <trkpt lat="45.16578" lon="5.96629">
        <ele>2414</ele>
        <time>2000-01-01T08:03:56.000Z</time>
      </trkpt>
      <trkpt lat="45.16583" lon="5.96664">
        <ele>2417</ele>
        <time>2000-01-01T08:04:06.000Z</time>
      </trkpt>
      <trkpt lat="45.16588" lon="5.96675">
        <ele>2419.9</ele>
        <time>2000-01-01T08:04:16.000Z</time>
      </trkpt>
      <trkpt lat="45.16597" lon="5.96684">
        <ele>2420</ele>
        <time>2000-01-01T08:04:26.000Z</time>
      </trkpt>
      <trkpt lat="45.16605" lon="5.96704">
        <ele>2425.5</ele>
        <time>2000-01-01T08:04:36.000Z</time>
      </trkpt>
      <trkpt lat="45.16611" lon="5.96724">
        <ele>2427</ele>
        <time>2000-01-01T08:04:46.000Z</time>
      </trkpt>
      <trkpt lat="45.16621" lon="5.96746">
        <ele>2430.4</ele>
        <time>2000-01-01T08:04:56.000Z</time>
      </trkpt>
      <trkpt lat="45.16627" lon="5.96756">
        <ele>2430</ele>
        <time>2000-01-01T08:05:06.000Z</time>
      </trkpt>
      <trkpt lat="45.16631" lon="5.96772">
        <ele>2432.7</ele>
        <time>2000-01-01T08:05:16.000Z</time>
      </trkpt>
      <trkpt lat="45.16631" lon="5.96782">
        <ele>2433</ele>
        <time>2000-01-01T08:05:26.000Z</time>
      </trkpt>
      <trkpt lat="45.16632" lon="5.96786">
        <ele>2434</ele>
        <time>2000-01-01T08:05:36.000Z</time>
      </trkpt>
      <trkpt lat="45.16634" lon="5.96788">
        <ele>2434.2</ele>
        <time>2000-01-01T08:05:46.000Z</time>
      </trkpt>
      <trkpt lat="45.16635" lon="5.96793">
        <ele>2434.7</ele>
        <time>2000-01-01T08:05:56.000Z</time>
      </trkpt>
      <trkpt lat="45.16637" lon="5.96798">
        <ele>2435.2</ele>
        <time>2000-01-01T08:06:06.000Z</time>
      </trkpt>
      <trkpt lat="45.16642" lon="5.96802">
        <ele>2435.9</ele>
        <time>2000-01-01T08:06:16.000Z</time>
      </trkpt>
      <trkpt lat="45.16642" lon="5.9682">
        <ele>2437</ele>
        <time>2000-01-01T08:06:26.000Z</time>
      </trkpt>
      <trkpt lat="45.16635" lon="5.96833">
        <ele>2439.1</ele>
        <time>2000-01-01T08:06:36.000Z</time>
      </trkpt>
      <trkpt lat="45.16632" lon="5.9686">
        <ele>2441</ele>
        <time>2000-01-01T08:06:46.000Z</time>
      </trkpt>
      <trkpt lat="45.16629" lon="5.96868">
        <ele>2443.1</ele>
        <time>2000-01-01T08:06:56.000Z</time>
      </trkpt>
      <trkpt lat="45.16631" lon="5.96875">
        <ele>2444.2</ele>
        <time>2000-01-01T08:07:06.000Z</time>
      </trkpt>
      <trkpt lat="45.1663" lon="5.96881">
        <ele>2445.1</ele>
        <time>2000-01-01T08:07:16.000Z</time>
      </trkpt>
      <trkpt lat="45.16623" lon="5.96896">
        <ele>2445</ele>
        <time>2000-01-01T08:07:26.000Z</time>
      </trkpt>
      <trkpt lat="45.16618" lon="5.96902">
        <ele>2447</ele>
        <time>2000-01-01T08:07:36.000Z</time>
      </trkpt>
      <trkpt lat="45.16618" lon="5.96927">
        <ele>2448</ele>
        <time>2000-01-01T08:07:46.000Z</time>
      </trkpt>
      <trkpt lat="45.16627" lon="5.9695">
        <ele>2454</ele>
        <time>2000-01-01T08:07:56.000Z</time>
      </trkpt>
      <trkpt lat="45.16628" lon="5.96958">
        <ele>2453</ele>
        <time>2000-01-01T08:08:06.000Z</time>
      </trkpt>
      <trkpt lat="45.16627" lon="5.96968">
        <ele>2457.1</ele>
        <time>2000-01-01T08:08:16.000Z</time>
      </trkpt>
      <trkpt lat="45.16627" lon="5.96998">
        <ele>2460</ele>
        <time>2000-01-01T08:08:26.000Z</time>
      </trkpt>
      <trkpt lat="45.1663" lon="5.97003">
        <ele>2462.2</ele>
        <time>2000-01-01T08:08:36.000Z</time>
      </trkpt>
      <trkpt lat="45.16632" lon="5.97008">
        <ele>2463.3</ele>
        <time>2000-01-01T08:08:46.000Z</time>
      </trkpt>
      <trkpt lat="45.16627" lon="5.97021">
        <ele>2462</ele>
        <time>2000-01-01T08:08:56.000Z</time>
      </trkpt>
      <trkpt lat="45.16627" lon="5.9703">
        <ele>2466.2</ele>
        <time>2000-01-01T08:09:06.000Z</time>
      </trkpt>
      <trkpt lat="45.1663" lon="5.97038">
        <ele>2467.5</ele>
        <time>2000-01-01T08:09:16.000Z</time>
      </trkpt>
      <trkpt lat="45.16631" lon="5.97048">
        <ele>2468</ele>
        <time>2000-01-01T08:09:26.000Z</time>
      </trkpt>
      <trkpt lat="45.16635" lon="5.97059">
        <ele>2469.6</ele>
        <time>2000-01-01T08:09:36.000Z</time>
      </trkpt>
      <trkpt lat="45.1664" lon="5.97067">
        <ele>2469.4</ele>
        <time>2000-01-01T08:09:46.000Z</time>
      </trkpt>
      <trkpt lat="45.16645" lon="5.9708">
        <ele>2468</ele>
        <time>2000-01-01T08:09:56.000Z</time>
      </trkpt>
      <trkpt lat="45.16648" lon="5.97086">
        <ele>2467.8</ele>
        <time>2000-01-01T08:10:06.000Z</time>
      </trkpt>
      <trkpt lat="45.16654" lon="5.97096">
        <ele>2468</ele>
        <time>2000-01-01T08:10:16.000Z</time>
      </trkpt>
      <trkpt lat="45.1666" lon="5.97099">
        <ele>2468</ele>
        <time>2000-01-01T08:10:26.000Z</time>
      </trkpt>
      <trkpt lat="45.16665" lon="5.97133">
        <ele>2468</ele>
        <time>2000-01-01T08:10:36.000Z</time>
      </trkpt>
      <trkpt lat="45.16665" lon="5.9715">
        <ele>2471.2</ele>
        <time>2000-01-01T08:10:46.000Z</time>
      </trkpt>
      <trkpt lat="45.1667" lon="5.97153">
        <ele>2472.9</ele>
        <time>2000-01-01T08:10:56.000Z</time>
      </trkpt>
      <trkpt lat="45.16673" lon="5.97154">
        <ele>2473</ele>
        <time>2000-01-01T08:11:06.000Z</time>
      </trkpt>
      <trkpt lat="45.16678" lon="5.97158">
        <ele>2476.6</ele>
        <time>2000-01-01T08:11:16.000Z</time>
      </trkpt>
      <trkpt lat="45.16682" lon="5.9716">
        <ele>2478.5</ele>
        <time>2000-01-01T08:11:26.000Z</time>
      </trkpt>
      <trkpt lat="45.16684" lon="5.97162">
        <ele>2479.6</ele>
        <time>2000-01-01T08:11:36.000Z</time>
      </trkpt>
      <trkpt lat="45.16693" lon="5.97168">
        <ele>2483</ele>
        <time>2000-01-01T08:11:46.000Z</time>
      </trkpt>
      <trkpt lat="45.16696" lon="5.97171">
        <ele>2485.8</ele>
        <time>2000-01-01T08:11:56.000Z</time>
      </trkpt>
      <trkpt lat="45.16697" lon="5.97174">
        <ele>2486.4</ele>
        <time>2000-01-01T08:12:06.000Z</time>
      </trkpt>
      <trkpt lat="45.16707" lon="5.97194">
        <ele>2489</ele>
        <time>2000-01-01T08:12:16.000Z</time>
      </trkpt>
      <trkpt lat="45.16716" lon="5.97209">
        <ele>2497</ele>
        <time>2000-01-01T08:12:26.000Z</time>
      </trkpt>
      <trkpt lat="45.16718" lon="5.97217">
        <ele>2493</ele>
        <time>2000-01-01T08:12:36.000Z</time>
      </trkpt>
      <trkpt lat="45.16728" lon="5.97242">
        <ele>2500</ele>
        <time>2000-01-01T08:12:46.000Z</time>
      </trkpt>
      <trkpt lat="45.16731" lon="5.97248">
        <ele>2504.1</ele>
        <time>2000-01-01T08:12:56.000Z</time>
      </trkpt>
      <trkpt lat="45.16739" lon="5.9727">
        <ele>2503</ele>
        <time>2000-01-01T08:13:06.000Z</time>
      </trkpt>
      <trkpt lat="45.16742" lon="5.97281">
        <ele>2508.6</ele>
        <time>2000-01-01T08:13:16.000Z</time>
      </trkpt>
      <trkpt lat="45.1675" lon="5.97302">
        <ele>2507</ele>
        <time>2000-01-01T08:13:26.000Z</time>
      </trkpt>
      <trkpt lat="45.16754" lon="5.97316">
        <ele>2514.5</ele>
        <time>2000-01-01T08:13:36.000Z</time>
      </trkpt>
      <trkpt lat="45.16756" lon="5.97325">
        <ele>2515.8</ele>
        <time>2000-01-01T08:13:46.000Z</time>
      </trkpt>
      <trkpt lat="45.16758" lon="5.97331">
        <ele>2513</ele>
        <time>2000-01-01T08:13:56.000Z</time>
      </trkpt>
      <trkpt lat="45.16767" lon="5.97348">
        <ele>2521.1</ele>
        <time>2000-01-01T08:14:06.000Z</time>
      </trkpt>
      <trkpt lat="45.16772" lon="5.97363">
        <ele>2521</ele>
        <time>2000-01-01T08:14:16.000Z</time>
      </trkpt>
      <trkpt lat="45.16781" lon="5.97387">
        <ele>2527</ele>
        <time>2000-01-01T08:14:26.000Z</time>
      </trkpt>
      <trkpt lat="45.16788" lon="5.97404">
        <ele>2533.3</ele>
        <time>2000-01-01T08:14:36.000Z</time>
      </trkpt>
      <trkpt lat="45.16797" lon="5.97423">
        <ele>2533</ele>
        <time>2000-01-01T08:14:46.000Z</time>
      </trkpt>
      <trkpt lat="45.16802" lon="5.97435">
        <ele>2541.9</ele>
        <time>2000-01-01T08:14:56.000Z</time>
      </trkpt>
      <trkpt lat="45.16813" lon="5.97467">
        <ele>2547</ele>
        <time>2000-01-01T08:15:06.000Z</time>
      </trkpt>
      <trkpt lat="45.16831" lon="5.97501">
        <ele>2559</ele>
        <time>2000-01-01T08:15:16.000Z</time>
      </trkpt>
      <trkpt lat="45.16839" lon="5.97514">
        <ele>2568.5</ele>
        <time>2000-01-01T08:15:26.000Z</time>
      </trkpt>
      <trkpt lat="45.16843" lon="5.97524">
        <ele>2568</ele>
        <time>2000-01-01T08:15:36.000Z</time>
      </trkpt>
      <trkpt lat="45.16846" lon="5.97528">
        <ele>2574.4</ele>
        <time>2000-01-01T08:15:46.000Z</time>
      </trkpt>
      <trkpt lat="45.16848" lon="5.97535">
        <ele>2576.8</ele>
        <time>2000-01-01T08:15:56.000Z</time>
      </trkpt>
      <trkpt lat="45.16858" lon="5.97554">
        <ele>2578</ele>
        <time>2000-01-01T08:16:06.000Z</time>
      </trkpt>
      <trkpt lat="45.1687" lon="5.97575">
        <ele>2585</ele>
        <time>2000-01-01T08:16:16.000Z</time>
      </trkpt>
      <trkpt lat="45.16876" lon="5.97596">
        <ele>2602.4</ele>
        <time>2000-01-01T08:16:26.000Z</time>
      </trkpt>
      <trkpt lat="45.16884" lon="5.97612">
        <ele>2609</ele>
        <time>2000-01-01T08:16:36.000Z</time>
      </trkpt>
      <trkpt lat="45.16897" lon="5.97633">
        <ele>2618</ele>
        <time>2000-01-01T08:16:46.000Z</time>
      </trkpt>
      <trkpt lat="45.169" lon="5.97645">
        <ele>2626.8</ele>
        <time>2000-01-01T08:16:56.000Z</time>
      </trkpt>
      <trkpt lat="45.16905" lon="5.9767">
        <ele>2634</ele>
        <time>2000-01-01T08:17:06.000Z</time>
      </trkpt>
      <trkpt lat="45.16908" lon="5.9767">
        <ele>2635</ele>
        <time>2000-01-01T08:17:16.000Z</time>
      </trkpt>
      <trkpt lat="45.16911" lon="5.97677">
        <ele>2637.2</ele>
        <time>2000-01-01T08:17:26.000Z</time>
      </trkpt>
      <trkpt lat="45.16917" lon="5.97684">
        <ele>2639.8</ele>
        <time>2000-01-01T08:17:36.000Z</time>
      </trkpt>
      <trkpt lat="45.16919" lon="5.97688">
        <ele>2638</ele>
        <time>2000-01-01T08:17:46.000Z</time>
      </trkpt>
      <trkpt lat="45.16923" lon="5.97706">
        <ele>2643.8</ele>
        <time>2000-01-01T08:17:56.000Z</time>
      </trkpt>
      <trkpt lat="45.16932" lon="5.97719">
        <ele>2639</ele>
        <time>2000-01-01T08:18:06.000Z</time>
      </trkpt>
      <trkpt lat="45.16936" lon="5.97733">
        <ele>2642.7</ele>
        <time>2000-01-01T08:18:16.000Z</time>
      </trkpt>
      <trkpt lat="45.1694" lon="5.97736">
        <ele>2641.3</ele>
        <time>2000-01-01T08:18:26.000Z</time>
      </trkpt>
      <trkpt lat="45.16942" lon="5.97741">
        <ele>2641</ele>
        <time>2000-01-01T08:18:36.000Z</time>
      </trkpt>
      <trkpt lat="45.16941" lon="5.97748">
        <ele>2641.6</ele>
        <time>2000-01-01T08:18:46.000Z</time>
      </trkpt>
      <trkpt lat="45.16942" lon="5.97754">
        <ele>2641.7</ele>
        <time>2000-01-01T08:18:56.000Z</time>
      </trkpt>
      <trkpt lat="45.16945" lon="5.97764">
        <ele>2641.5</ele>
        <time>2000-01-01T08:19:06.000Z</time>
      </trkpt>
      <trkpt lat="45.16942" lon="5.97782">
        <ele>2642</ele>
        <time>2000-01-01T08:19:16.000Z</time>
      </trkpt>
      <trkpt lat="45.16942" lon="5.97789">
        <ele>2645.5</ele>
        <time>2000-01-01T08:19:26.000Z</time>
      </trkpt>
      <trkpt lat="45.16944" lon="5.97799">
        <ele>2644.9</ele>
        <time>2000-01-01T08:19:36.000Z</time>
      </trkpt>
      <trkpt lat="45.16952" lon="5.97816">
        <ele>2639</ele>
        <time>2000-01-01T08:19:46.000Z</time>
      </trkpt>
      <trkpt lat="45.16961" lon="5.97831">
        <ele>2639.5</ele>
        <time>2000-01-01T08:19:56.000Z</time>
      </trkpt>
      <trkpt lat="45.16964" lon="5.97835">
        <ele>2638.6</ele>
        <time>2000-01-01T08:20:06.000Z</time>
      </trkpt>
      <trkpt lat="45.16981" lon="5.97847">
        <ele>2636</ele>
        <time>2000-01-01T08:20:16.000Z</time>
      </trkpt>
      <trkpt lat="45.1702" lon="5.97885">
        <ele>2628</ele>
        <time>2000-01-01T08:20:26.000Z</time>
      </trkpt>
      <trkpt lat="45.17029" lon="5.97892">
        <ele>2622.5</ele>
        <time>2000-01-01T08:20:36.000Z</time>
      </trkpt>
      <trkpt lat="45.1703" lon="5.97894">
        <ele>2621.5</ele>
        <time>2000-01-01T08:20:46.000Z</time>
      </trkpt>
      <trkpt lat="45.1703" lon="5.97897">
        <ele>2620.5</ele>
        <time>2000-01-01T08:20:56.000Z</time>
      </trkpt>
      <trkpt lat="45.17033" lon="5.97898">
        <ele>2619</ele>
        <time>2000-01-01T08:21:06.000Z</time>
      </trkpt>
      <trkpt lat="45.17036" lon="5.97898">
        <ele>2623</ele>
        <time>2000-01-01T08:21:16.000Z</time>
      </trkpt>
      <trkpt lat="45.17039" lon="5.979">
        <ele>2616.1</ele>
        <time>2000-01-01T08:21:26.000Z</time>
      </trkpt>
      <trkpt lat="45.1704" lon="5.97902">
        <ele>2615.1</ele>
        <time>2000-01-01T08:21:36.000Z</time>
      </trkpt>
      <trkpt lat="45.17042" lon="5.97904">
        <ele>2613.8</ele>
        <time>2000-01-01T08:21:46.000Z</time>
      </trkpt>
      <trkpt lat="45.17042" lon="5.97909">
        <ele>2612.2</ele>
        <time>2000-01-01T08:21:56.000Z</time>
      </trkpt>
      <trkpt lat="45.17043" lon="5.97913">
        <ele>2610.6</ele>
        <time>2000-01-01T08:22:06.000Z</time>
      </trkpt>
      <trkpt lat="45.17043" lon="5.97916">
        <ele>2609.7</ele>
        <time>2000-01-01T08:22:16.000Z</time>
      </trkpt>
      <trkpt lat="45.17044" lon="5.97919">
        <ele>2608.6</ele>
        <time>2000-01-01T08:22:26.000Z</time>
      </trkpt>
      <trkpt lat="45.17048" lon="5.9792">
        <ele>2614</ele>
        <time>2000-01-01T08:22:36.000Z</time>
      </trkpt>
      <trkpt lat="45.17054" lon="5.97918">
        <ele>2605.3</ele>
        <time>2000-01-01T08:22:46.000Z</time>
      </trkpt>
      <trkpt lat="45.17056" lon="5.97918">
        <ele>2604.5</ele>
        <time>2000-01-01T08:22:56.000Z</time>
      </trkpt>
      <trkpt lat="45.17059" lon="5.9792">
        <ele>2602.3</ele>
        <time>2000-01-01T08:23:06.000Z</time>
      </trkpt>
      <trkpt lat="45.1706" lon="5.97922">
        <ele>2601.3</ele>
        <time>2000-01-01T08:23:16.000Z</time>
      </trkpt>
      <trkpt lat="45.17064" lon="5.97921">
        <ele>2599</ele>
        <time>2000-01-01T08:23:26.000Z</time>
      </trkpt>
      <trkpt lat="45.17068" lon="5.97921">
        <ele>2600</ele>
        <time>2000-01-01T08:23:36.000Z</time>
      </trkpt>
      <trkpt lat="45.17076" lon="5.97927">
        <ele>2590.1</ele>
        <time>2000-01-01T08:23:46.000Z</time>
      </trkpt>
      <trkpt lat="45.17079" lon="5.97925">
        <ele>2588.6</ele>
        <time>2000-01-01T08:23:56.000Z</time>
      </trkpt>
      <trkpt lat="45.17081" lon="5.97931">
        <ele>2585.9</ele>
        <time>2000-01-01T08:24:06.000Z</time>
      </trkpt>
      <trkpt lat="45.17084" lon="5.97934">
        <ele>2588</ele>
        <time>2000-01-01T08:24:16.000Z</time>
      </trkpt>
      <trkpt lat="45.17086" lon="5.97935">
        <ele>2581.7</ele>
        <time>2000-01-01T08:24:26.000Z</time>
      </trkpt>
      <trkpt lat="45.17089" lon="5.97932">
        <ele>2580.6</ele>
        <time>2000-01-01T08:24:36.000Z</time>
      </trkpt>
      <trkpt lat="45.1709" lon="5.97932">
        <ele>2580</ele>
        <time>2000-01-01T08:24:46.000Z</time>
      </trkpt>
      <trkpt lat="45.17091" lon="5.97937">
        <ele>2578.1</ele>
        <time>2000-01-01T08:24:56.000Z</time>
      </trkpt>
      <trkpt lat="45.17093" lon="5.97939">
        <ele>2576.2</ele>
        <time>2000-01-01T08:25:06.000Z</time>
      </trkpt>
      <trkpt lat="45.17098" lon="5.97938">
        <ele>2573.4</ele>
        <time>2000-01-01T08:25:16.000Z</time>
      </trkpt>
      <trkpt lat="45.17098" lon="5.97941">
        <ele>2575</ele>
        <time>2000-01-01T08:25:26.000Z</time>
      </trkpt>
      <trkpt lat="45.17101" lon="5.97941">
        <ele>2570.6</ele>
        <time>2000-01-01T08:25:36.000Z</time>
      </trkpt>
      <trkpt lat="45.17106" lon="5.97943">
        <ele>2566.8</ele>
        <time>2000-01-01T08:25:46.000Z</time>
      </trkpt>
      <trkpt lat="45.17109" lon="5.97943">
        <ele>2564.8</ele>
        <time>2000-01-01T08:25:56.000Z</time>
      </trkpt>
      <trkpt lat="45.1711" lon="5.97959">
        <ele>2568</ele>
        <time>2000-01-01T08:26:06.000Z</time>
      </trkpt>
      <trkpt lat="45.17111" lon="5.97963">
        <ele>2560.4</ele>
        <time>2000-01-01T08:26:16.000Z</time>
      </trkpt>
      <trkpt lat="45.1711" lon="5.97967">
        <ele>2560.5</ele>
        <time>2000-01-01T08:26:26.000Z</time>
      </trkpt>
      <trkpt lat="45.1711" lon="5.97984">
        <ele>2558.5</ele>
        <time>2000-01-01T08:26:36.000Z</time>
      </trkpt>
      <trkpt lat="45.17111" lon="5.97987">
        <ele>2560</ele>
        <time>2000-01-01T08:26:46.000Z</time>
      </trkpt>
      <trkpt lat="45.17111" lon="5.9799">
        <ele>2557.2</ele>
        <time>2000-01-01T08:26:56.000Z</time>
      </trkpt>
      <trkpt lat="45.17113" lon="5.97992">
        <ele>2555.7</ele>
        <time>2000-01-01T08:27:06.000Z</time>
      </trkpt>
      <trkpt lat="45.17116" lon="5.97993">
        <ele>2553.8</ele>
        <time>2000-01-01T08:27:16.000Z</time>
      </trkpt>
      <trkpt lat="45.1712" lon="5.97987">
        <ele>2552</ele>
        <time>2000-01-01T08:27:26.000Z</time>
      </trkpt>
      <trkpt lat="45.17123" lon="5.97984">
        <ele>2550.5</ele>
        <time>2000-01-01T08:27:36.000Z</time>
      </trkpt>
      <trkpt lat="45.17125" lon="5.97979">
        <ele>2553</ele>
        <time>2000-01-01T08:27:46.000Z</time>
      </trkpt>
      <trkpt lat="45.17128" lon="5.97976">
        <ele>2548.3</ele>
        <time>2000-01-01T08:27:56.000Z</time>
      </trkpt>
      <trkpt lat="45.17128" lon="5.97978">
        <ele>2548</ele>
        <time>2000-01-01T08:28:06.000Z</time>
      </trkpt>
      <trkpt lat="45.17132" lon="5.97984">
        <ele>2544.9</ele>
        <time>2000-01-01T08:28:16.000Z</time>
      </trkpt>
      <trkpt lat="45.17135" lon="5.97973">
        <ele>2548</ele>
        <time>2000-01-01T08:28:26.000Z</time>
      </trkpt>
      <trkpt lat="45.17137" lon="5.97973">
        <ele>2543.1</ele>
        <time>2000-01-01T08:28:36.000Z</time>
      </trkpt>
      <trkpt lat="45.17137" lon="5.97976">
        <ele>2542.7</ele>
        <time>2000-01-01T08:28:46.000Z</time>
      </trkpt>
      <trkpt lat="45.1714" lon="5.97985">
        <ele>2540</ele>
        <time>2000-01-01T08:28:56.000Z</time>
      </trkpt>
      <trkpt lat="45.17142" lon="5.97994">
        <ele>2538</ele>
        <time>2000-01-01T08:29:06.000Z</time>
      </trkpt>
      <trkpt lat="45.17142" lon="5.98001">
        <ele>2539</ele>
        <time>2000-01-01T08:29:16.000Z</time>
      </trkpt>
      <trkpt lat="45.17146" lon="5.98001">
        <ele>2535.6</ele>
        <time>2000-01-01T08:29:26.000Z</time>
      </trkpt>
      <trkpt lat="45.17154" lon="5.97998">
        <ele>2531.5</ele>
        <time>2000-01-01T08:29:36.000Z</time>
      </trkpt>
      <trkpt lat="45.17162" lon="5.97989">
        <ele>2528</ele>
        <time>2000-01-01T08:29:46.000Z</time>
      </trkpt>
      <trkpt lat="45.17164" lon="5.97991">
        <ele>2526.7</ele>
        <time>2000-01-01T08:29:56.000Z</time>
      </trkpt>
      <trkpt lat="45.17173" lon="5.97992">
        <ele>2522.8</ele>
        <time>2000-01-01T08:30:06.000Z</time>
      </trkpt>
      <trkpt lat="45.1718" lon="5.97998">
        <ele>2524</ele>
        <time>2000-01-01T08:30:16.000Z</time>
      </trkpt>
      <trkpt lat="45.17184" lon="5.97994">
        <ele>2518.5</ele>
        <time>2000-01-01T08:30:26.000Z</time>
      </trkpt>
      <trkpt lat="45.17186" lon="5.97996">
        <ele>2517.6</ele>
        <time>2000-01-01T08:30:36.000Z</time>
      </trkpt>
      <trkpt lat="45.17192" lon="5.97995">
        <ele>2515.3</ele>
        <time>2000-01-01T08:30:46.000Z</time>
      </trkpt>
      <trkpt lat="45.17197" lon="5.97998">
        <ele>2513.4</ele>
        <time>2000-01-01T08:30:56.000Z</time>
      </trkpt>
      <trkpt lat="45.17201" lon="5.97996">
        <ele>2514</ele>
        <time>2000-01-01T08:31:06.000Z</time>
      </trkpt>
      <trkpt lat="45.17204" lon="5.97996">
        <ele>2511.5</ele>
        <time>2000-01-01T08:31:16.000Z</time>
      </trkpt>
      <trkpt lat="45.1721" lon="5.97998">
        <ele>2509.6</ele>
        <time>2000-01-01T08:31:26.000Z</time>
      </trkpt>
      <trkpt lat="45.17217" lon="5.97998">
        <ele>2507.6</ele>
        <time>2000-01-01T08:31:36.000Z</time>
      </trkpt>
      <trkpt lat="45.17223" lon="5.97997">
        <ele>2507</ele>
        <time>2000-01-01T08:31:46.000Z</time>
      </trkpt>
      <trkpt lat="45.17226" lon="5.98001">
        <ele>2503.7</ele>
        <time>2000-01-01T08:31:56.000Z</time>
      </trkpt>
      <trkpt lat="45.17232" lon="5.97999">
        <ele>2500.1</ele>
        <time>2000-01-01T08:32:06.000Z</time>
      </trkpt>
      <trkpt lat="45.17233" lon="5.98001">
        <ele>2499.4</ele>
        <time>2000-01-01T08:32:16.000Z</time>
      </trkpt>
      <trkpt lat="45.17235" lon="5.98002">
        <ele>2498.2</ele>
        <time>2000-01-01T08:32:26.000Z</time>
      </trkpt>
      <trkpt lat="45.17236" lon="5.97999">
        <ele>2497.6</ele>
        <time>2000-01-01T08:32:36.000Z</time>
      </trkpt>
      <trkpt lat="45.17237" lon="5.97999">
        <ele>2497</ele>
        <time>2000-01-01T08:32:46.000Z</time>
      </trkpt>
      <trkpt lat="45.1724" lon="5.97996">
        <ele>2495</ele>
        <time>2000-01-01T08:32:56.000Z</time>
      </trkpt>
      <trkpt lat="45.17242" lon="5.97997">
        <ele>2494.1</ele>
        <time>2000-01-01T08:33:06.000Z</time>
      </trkpt>
      <trkpt lat="45.17242" lon="5.97999">
        <ele>2494</ele>
        <time>2000-01-01T08:33:16.000Z</time>
      </trkpt>
      <trkpt lat="45.17246" lon="5.98004">
        <ele>2491.6</ele>
        <time>2000-01-01T08:33:26.000Z</time>
      </trkpt>
      <trkpt lat="45.17247" lon="5.98004">
        <ele>2490.9</ele>
        <time>2000-01-01T08:33:36.000Z</time>
      </trkpt>
      <trkpt lat="45.17249" lon="5.98001">
        <ele>2489.6</ele>
        <time>2000-01-01T08:33:46.000Z</time>
      </trkpt>
      <trkpt lat="45.17249" lon="5.98007">
        <ele>2489.8</ele>
        <time>2000-01-01T08:33:56.000Z</time>
      </trkpt>
      <trkpt lat="45.1725" lon="5.98009">
        <ele>2489.3</ele>
        <time>2000-01-01T08:34:06.000Z</time>
      </trkpt>
      <trkpt lat="45.17252" lon="5.98008">
        <ele>2489</ele>
        <time>2000-01-01T08:34:16.000Z</time>
      </trkpt>
      <trkpt lat="45.17253" lon="5.98004">
        <ele>2487.1</ele>
        <time>2000-01-01T08:34:26.000Z</time>
      </trkpt>
      <trkpt lat="45.17254" lon="5.98006">
        <ele>2486.5</ele>
        <time>2000-01-01T08:34:36.000Z</time>
      </trkpt>
      <trkpt lat="45.17256" lon="5.98006">
        <ele>2485.1</ele>
        <time>2000-01-01T08:34:46.000Z</time>
      </trkpt>
      <trkpt lat="45.17258" lon="5.98003">
        <ele>2483.6</ele>
        <time>2000-01-01T08:34:56.000Z</time>
      </trkpt>
      <trkpt lat="45.17258" lon="5.98">
        <ele>2483.5</ele>
        <time>2000-01-01T08:35:06.000Z</time>
      </trkpt>
      <trkpt lat="45.1726" lon="5.97996">
        <ele>2482.4</ele>
        <time>2000-01-01T08:35:16.000Z</time>
      </trkpt>
      <trkpt lat="45.1726" lon="5.97999">
        <ele>2482.2</ele>
        <time>2000-01-01T08:35:26.000Z</time>
      </trkpt>
      <trkpt lat="45.17263" lon="5.98001">
        <ele>2483</ele>
        <time>2000-01-01T08:35:36.000Z</time>
      </trkpt>
      <trkpt lat="45.17265" lon="5.97996">
        <ele>2479</ele>
        <time>2000-01-01T08:35:46.000Z</time>
      </trkpt>
      <trkpt lat="45.17268" lon="5.97995">
        <ele>2477</ele>
        <time>2000-01-01T08:35:56.000Z</time>
      </trkpt>
      <trkpt lat="45.17271" lon="5.97989">
        <ele>2475.4</ele>
        <time>2000-01-01T08:36:06.000Z</time>
      </trkpt>
      <trkpt lat="45.17273" lon="5.97988">
        <ele>2474.1</ele>
        <time>2000-01-01T08:36:16.000Z</time>
      </trkpt>
      <trkpt lat="45.17275" lon="5.97988">
        <ele>2472.8</ele>
        <time>2000-01-01T08:36:26.000Z</time>
      </trkpt>
      <trkpt lat="45.17277" lon="5.97985">
        <ele>2475</ele>
        <time>2000-01-01T08:36:36.000Z</time>
      </trkpt>
      <trkpt lat="45.17278" lon="5.97987">
        <ele>2470.8</ele>
        <time>2000-01-01T08:36:46.000Z</time>
      </trkpt>
      <trkpt lat="45.1728" lon="5.97982">
        <ele>2469.8</ele>
        <time>2000-01-01T08:36:56.000Z</time>
      </trkpt>
      <trkpt lat="45.17284" lon="5.97987">
        <ele>2466.8</ele>
        <time>2000-01-01T08:37:06.000Z</time>
      </trkpt>
      <trkpt lat="45.17286" lon="5.97984">
        <ele>2465.7</ele>
        <time>2000-01-01T08:37:16.000Z</time>
      </trkpt>
      <trkpt lat="45.17287" lon="5.97987">
        <ele>2464.8</ele>
        <time>2000-01-01T08:37:26.000Z</time>
      </trkpt>
      <trkpt lat="45.1729" lon="5.9799">
        <ele>2469</ele>
        <time>2000-01-01T08:37:36.000Z</time>
      </trkpt>
      <trkpt lat="45.17292" lon="5.97988">
        <ele>2461.4</ele>
        <time>2000-01-01T08:37:46.000Z</time>
      </trkpt>
      <trkpt lat="45.17293" lon="5.97986">
        <ele>2460.9</ele>
        <time>2000-01-01T08:37:56.000Z</time>
      </trkpt>
      <trkpt lat="45.17296" lon="5.97985">
        <ele>2459</ele>
        <time>2000-01-01T08:38:06.000Z</time>
      </trkpt>
      <trkpt lat="45.17298" lon="5.97982">
        <ele>2457.9</ele>
        <time>2000-01-01T08:38:16.000Z</time>
      </trkpt>
      <trkpt lat="45.17301" lon="5.97979">
        <ele>2456.3</ele>
        <time>2000-01-01T08:38:26.000Z</time>
      </trkpt>
      <trkpt lat="45.17303" lon="5.97978">
        <ele>2455.1</ele>
        <time>2000-01-01T08:38:36.000Z</time>
      </trkpt>
      <trkpt lat="45.17303" lon="5.97981">
        <ele>2454.7</ele>
        <time>2000-01-01T08:38:46.000Z</time>
      </trkpt>
      <trkpt lat="45.17306" lon="5.97988">
        <ele>2456</ele>
        <time>2000-01-01T08:38:56.000Z</time>
      </trkpt>
      <trkpt lat="45.17308" lon="5.9799">
        <ele>2450.7</ele>
        <time>2000-01-01T08:39:06.000Z</time>
      </trkpt>
      <trkpt lat="45.17313" lon="5.97984">
        <ele>2448.4</ele>
        <time>2000-01-01T08:39:16.000Z</time>
      </trkpt>
      <trkpt lat="45.17315" lon="5.97985">
        <ele>2447.2</ele>
        <time>2000-01-01T08:39:26.000Z</time>
      </trkpt>
      <trkpt lat="45.17315" lon="5.97988">
        <ele>2446.9</ele>
        <time>2000-01-01T08:39:36.000Z</time>
      </trkpt>
      <trkpt lat="45.17316" lon="5.9799">
        <ele>2446.1</ele>
        <time>2000-01-01T08:39:46.000Z</time>
      </trkpt>
      <trkpt lat="45.17319" lon="5.97993">
        <ele>2444</ele>
        <time>2000-01-01T08:39:56.000Z</time>
      </trkpt>
      <trkpt lat="45.17318" lon="5.97998">
        <ele>2449</ele>
        <time>2000-01-01T08:40:06.000Z</time>
      </trkpt>
      <trkpt lat="45.17318" lon="5.98001">
        <ele>2443.9</ele>
        <time>2000-01-01T08:40:16.000Z</time>
      </trkpt>
      <trkpt lat="45.17319" lon="5.98005">
        <ele>2443.3</ele>
        <time>2000-01-01T08:40:26.000Z</time>
      </trkpt>
      <trkpt lat="45.17319" lon="5.98007">
        <ele>2443.4</ele>
        <time>2000-01-01T08:40:36.000Z</time>
      </trkpt>
      <trkpt lat="45.17323" lon="5.98005">
        <ele>2441</ele>
        <time>2000-01-01T08:40:46.000Z</time>
      </trkpt>
      <trkpt lat="45.17327" lon="5.98007">
        <ele>2438.7</ele>
        <time>2000-01-01T08:40:56.000Z</time>
      </trkpt>
      <trkpt lat="45.17328" lon="5.98009">
        <ele>2438.1</ele>
        <time>2000-01-01T08:41:06.000Z</time>
      </trkpt>
      <trkpt lat="45.17331" lon="5.98012">
        <ele>2435</ele>
        <time>2000-01-01T08:41:16.000Z</time>
      </trkpt>
      <trkpt lat="45.17332" lon="5.98017">
        <ele>2435.8</ele>
        <time>2000-01-01T08:41:26.000Z</time>
      </trkpt>
      <trkpt lat="45.17334" lon="5.98019">
        <ele>2434.7</ele>
        <time>2000-01-01T08:41:36.000Z</time>
      </trkpt>
      <trkpt lat="45.17337" lon="5.98021">
        <ele>2433.5</ele>
        <time>2000-01-01T08:41:46.000Z</time>
      </trkpt>
      <trkpt lat="45.17341" lon="5.98021">
        <ele>2431.9</ele>
        <time>2000-01-01T08:41:56.000Z</time>
      </trkpt>
      <trkpt lat="45.17343" lon="5.98023">
        <ele>2431</ele>
        <time>2000-01-01T08:42:06.000Z</time>
      </trkpt>
      <trkpt lat="45.17344" lon="5.98027">
        <ele>2430.4</ele>
        <time>2000-01-01T08:42:16.000Z</time>
      </trkpt>
      <trkpt lat="45.17344" lon="5.98031">
        <ele>2431</ele>
        <time>2000-01-01T08:42:26.000Z</time>
      </trkpt>
      <trkpt lat="45.17343" lon="5.98033">
        <ele>2430.3</ele>
        <time>2000-01-01T08:42:36.000Z</time>
      </trkpt>
      <trkpt lat="45.17344" lon="5.98035">
        <ele>2429.6</ele>
        <time>2000-01-01T08:42:46.000Z</time>
      </trkpt>
      <trkpt lat="45.17346" lon="5.98037">
        <ele>2428.4</ele>
        <time>2000-01-01T08:42:56.000Z</time>
      </trkpt>
      <trkpt lat="45.17348" lon="5.98035">
        <ele>2427.7</ele>
        <time>2000-01-01T08:43:06.000Z</time>
      </trkpt>
      <trkpt lat="45.17358" lon="5.98042">
        <ele>2426</ele>
        <time>2000-01-01T08:43:16.000Z</time>
      </trkpt>
      <trkpt lat="45.1736" lon="5.98045">
        <ele>2420.5</ele>
        <time>2000-01-01T08:43:26.000Z</time>
      </trkpt>
      <trkpt lat="45.17361" lon="5.98049">
        <ele>2419.2</ele>
        <time>2000-01-01T08:43:36.000Z</time>
      </trkpt>
      <trkpt lat="45.17364" lon="5.98048">
        <ele>2418</ele>
        <time>2000-01-01T08:43:46.000Z</time>
      </trkpt>
      <trkpt lat="45.17366" lon="5.98051">
        <ele>2416.5</ele>
        <time>2000-01-01T08:43:56.000Z</time>
      </trkpt>
      <trkpt lat="45.17368" lon="5.98057">
        <ele>2414.1</ele>
        <time>2000-01-01T08:44:06.000Z</time>
      </trkpt>
      <trkpt lat="45.17366" lon="5.98061">
        <ele>2416</ele>
        <time>2000-01-01T08:44:16.000Z</time>
      </trkpt>
      <trkpt lat="45.17367" lon="5.98063">
        <ele>2413</ele>
        <time>2000-01-01T08:44:26.000Z</time>
      </trkpt>
      <trkpt lat="45.17371" lon="5.98066">
        <ele>2410</ele>
        <time>2000-01-01T08:44:36.000Z</time>
      </trkpt>
      <trkpt lat="45.17372" lon="5.98066">
        <ele>2409.4</ele>
        <time>2000-01-01T08:44:46.000Z</time>
      </trkpt>
      <trkpt lat="45.17371" lon="5.98071">
        <ele>2408.5</ele>
        <time>2000-01-01T08:44:56.000Z</time>
      </trkpt>
      <trkpt lat="45.17379" lon="5.98066">
        <ele>2411</ele>
        <time>2000-01-01T08:45:06.000Z</time>
      </trkpt>
      <trkpt lat="45.1738" lon="5.98071">
        <ele>2403.5</ele>
        <time>2000-01-01T08:45:16.000Z</time>
      </trkpt>
      <trkpt lat="45.1738" lon="5.98075">
        <ele>2402.2</ele>
        <time>2000-01-01T08:45:26.000Z</time>
      </trkpt>
      <trkpt lat="45.17381" lon="5.98072">
        <ele>2402.6</ele>
        <time>2000-01-01T08:45:36.000Z</time>
      </trkpt>
      <trkpt lat="45.17383" lon="5.9807">
        <ele>2402.1</ele>
        <time>2000-01-01T08:45:46.000Z</time>
      </trkpt>
      <trkpt lat="45.17385" lon="5.98077">
        <ele>2398.6</ele>
        <time>2000-01-01T08:45:56.000Z</time>
      </trkpt>
      <trkpt lat="45.17388" lon="5.98077">
        <ele>2404</ele>
        <time>2000-01-01T08:46:06.000Z</time>
      </trkpt>
      <trkpt lat="45.17397" lon="5.98071">
        <ele>2393.4</ele>
        <time>2000-01-01T08:46:16.000Z</time>
      </trkpt>
      <trkpt lat="45.17405" lon="5.98067">
        <ele>2390.1</ele>
        <time>2000-01-01T08:46:26.000Z</time>
      </trkpt>
      <trkpt lat="45.1741" lon="5.98063">
        <ele>2395</ele>
        <time>2000-01-01T08:46:36.000Z</time>
      </trkpt>
      <trkpt lat="45.17417" lon="5.98059">
        <ele>2386.3</ele>
        <time>2000-01-01T08:46:46.000Z</time>
      </trkpt>
      <trkpt lat="45.17424" lon="5.98054">
        <ele>2383.7</ele>
        <time>2000-01-01T08:46:56.000Z</time>
      </trkpt>
      <trkpt lat="45.17427" lon="5.9805">
        <ele>2388</ele>
        <time>2000-01-01T08:47:06.000Z</time>
      </trkpt>
      <trkpt lat="45.17427" lon="5.98056">
        <ele>2380.8</ele>
        <time>2000-01-01T08:47:16.000Z</time>
      </trkpt>
      <trkpt lat="45.1744" lon="5.98048">
        <ele>2375.3</ele>
        <time>2000-01-01T08:47:26.000Z</time>
      </trkpt>
      <trkpt lat="45.17444" lon="5.98049">
        <ele>2381</ele>
        <time>2000-01-01T08:47:36.000Z</time>
      </trkpt>
      <trkpt lat="45.17453" lon="5.98043">
        <ele>2366.9</ele>
        <time>2000-01-01T08:47:46.000Z</time>
      </trkpt>
      <trkpt lat="45.17456" lon="5.98039">
        <ele>2365.3</ele>
        <time>2000-01-01T08:47:56.000Z</time>
      </trkpt>
      <trkpt lat="45.17463" lon="5.98032">
        <ele>2362</ele>
        <time>2000-01-01T08:48:06.000Z</time>
      </trkpt>
      <trkpt lat="45.17465" lon="5.98032">
        <ele>2357.6</ele>
        <time>2000-01-01T08:48:16.000Z</time>
      </trkpt>
      <trkpt lat="45.17467" lon="5.98031">
        <ele>2355.6</ele>
        <time>2000-01-01T08:48:26.000Z</time>
      </trkpt>
      <trkpt lat="45.17469" lon="5.98032">
        <ele>2353.4</ele>
        <time>2000-01-01T08:48:36.000Z</time>
      </trkpt>
      <trkpt lat="45.17471" lon="5.98035">
        <ele>2351.2</ele>
        <time>2000-01-01T08:48:46.000Z</time>
      </trkpt>
      <trkpt lat="45.17472" lon="5.98032">
        <ele>2350.2</ele>
        <time>2000-01-01T08:48:56.000Z</time>
      </trkpt>
      <trkpt lat="45.17473" lon="5.98032">
        <ele>2349.6</ele>
        <time>2000-01-01T08:49:06.000Z</time>
      </trkpt>
      <trkpt lat="45.17473" lon="5.98036">
        <ele>2349.6</ele>
        <time>2000-01-01T08:49:16.000Z</time>
      </trkpt>
      <trkpt lat="45.17474" lon="5.98036">
        <ele>2349</ele>
        <time>2000-01-01T08:49:26.000Z</time>
      </trkpt>
      <trkpt lat="45.17477" lon="5.98034">
        <ele>2353</ele>
        <time>2000-01-01T08:49:36.000Z</time>
      </trkpt>
      <trkpt lat="45.1748" lon="5.98029">
        <ele>2345.5</ele>
        <time>2000-01-01T08:49:46.000Z</time>
      </trkpt>
      <trkpt lat="45.17485" lon="5.98031">
        <ele>2342.7</ele>
        <time>2000-01-01T08:49:56.000Z</time>
      </trkpt>
      <trkpt lat="45.17489" lon="5.98035">
        <ele>2340.5</ele>
        <time>2000-01-01T08:50:06.000Z</time>
      </trkpt>
      <trkpt lat="45.17491" lon="5.98036">
        <ele>2339.4</ele>
        <time>2000-01-01T08:50:16.000Z</time>
      </trkpt>
      <trkpt lat="45.17491" lon="5.98033">
        <ele>2339.3</ele>
        <time>2000-01-01T08:50:26.000Z</time>
      </trkpt>
      <trkpt lat="45.17492" lon="5.98028">
        <ele>2337</ele>
        <time>2000-01-01T08:50:36.000Z</time>
      </trkpt>
      <trkpt lat="45.17491" lon="5.98026">
        <ele>2338.9</ele>
        <time>2000-01-01T08:50:46.000Z</time>
      </trkpt>
      <trkpt lat="45.17491" lon="5.98017">
        <ele>2337.6</ele>
        <time>2000-01-01T08:50:56.000Z</time>
      </trkpt>
      <trkpt lat="45.17493" lon="5.98012">
        <ele>2335.8</ele>
        <time>2000-01-01T08:51:06.000Z</time>
      </trkpt>
      <trkpt lat="45.17496" lon="5.98013">
        <ele>2334.2</ele>
        <time>2000-01-01T08:51:16.000Z</time>
      </trkpt>
      <trkpt lat="45.17497" lon="5.98012">
        <ele>2333.5</ele>
        <time>2000-01-01T08:51:26.000Z</time>
      </trkpt>
      <trkpt lat="45.17497" lon="5.98008">
        <ele>2335</ele>
        <time>2000-01-01T08:51:36.000Z</time>
      </trkpt>
      <trkpt lat="45.17498" lon="5.98007">
        <ele>2332.2</ele>
        <time>2000-01-01T08:51:46.000Z</time>
      </trkpt>
      <trkpt lat="45.17501" lon="5.98008">
        <ele>2330.8</ele>
        <time>2000-01-01T08:51:56.000Z</time>
      </trkpt>
      <trkpt lat="45.17503" lon="5.98005">
        <ele>2329.6</ele>
        <time>2000-01-01T08:52:06.000Z</time>
      </trkpt>
      <trkpt lat="45.17505" lon="5.98008">
        <ele>2329.2</ele>
        <time>2000-01-01T08:52:16.000Z</time>
      </trkpt>
      <trkpt lat="45.17507" lon="5.98007">
        <ele>2328.4</ele>
        <time>2000-01-01T08:52:26.000Z</time>
      </trkpt>
      <trkpt lat="45.1751" lon="5.98009">
        <ele>2327.5</ele>
        <time>2000-01-01T08:52:36.000Z</time>
      </trkpt>
      <trkpt lat="45.17511" lon="5.98008">
        <ele>2327</ele>
        <time>2000-01-01T08:52:46.000Z</time>
      </trkpt>
      <trkpt lat="45.1751" lon="5.98006">
        <ele>2327.1</ele>
        <time>2000-01-01T08:52:56.000Z</time>
      </trkpt>
      <trkpt lat="45.17516" lon="5.98002">
        <ele>2325</ele>
        <time>2000-01-01T08:53:06.000Z</time>
      </trkpt>
      <trkpt lat="45.17516" lon="5.97996">
        <ele>2323.8</ele>
        <time>2000-01-01T08:53:16.000Z</time>
      </trkpt>
      <trkpt lat="45.17517" lon="5.97996">
        <ele>2323.4</ele>
        <time>2000-01-01T08:53:26.000Z</time>
      </trkpt>
      <trkpt lat="45.1752" lon="5.97998">
        <ele>2322.5</ele>
        <time>2000-01-01T08:53:36.000Z</time>
      </trkpt>
      <trkpt lat="45.17522" lon="5.97997">
        <ele>2321.6</ele>
        <time>2000-01-01T08:53:46.000Z</time>
      </trkpt>
      <trkpt lat="45.17525" lon="5.9799">
        <ele>2319.3</ele>
        <time>2000-01-01T08:53:56.000Z</time>
      </trkpt>
      <trkpt lat="45.1753" lon="5.97983">
        <ele>2318</ele>
        <time>2000-01-01T08:54:06.000Z</time>
      </trkpt>
      <trkpt lat="45.17531" lon="5.97979">
        <ele>2315</ele>
        <time>2000-01-01T08:54:16.000Z</time>
      </trkpt>
      <trkpt lat="45.17535" lon="5.97972">
        <ele>2312.4</ele>
        <time>2000-01-01T08:54:26.000Z</time>
      </trkpt>
      <trkpt lat="45.17538" lon="5.97969">
        <ele>2311.4</ele>
        <time>2000-01-01T08:54:36.000Z</time>
      </trkpt>
      <trkpt lat="45.17542" lon="5.97962">
        <ele>2308</ele>
        <time>2000-01-01T08:54:46.000Z</time>
      </trkpt>
      <trkpt lat="45.17545" lon="5.97958">
        <ele>2308.7</ele>
        <time>2000-01-01T08:54:56.000Z</time>
      </trkpt>
      <trkpt lat="45.17547" lon="5.97958">
        <ele>2307.9</ele>
        <time>2000-01-01T08:55:06.000Z</time>
      </trkpt>
      <trkpt lat="45.17549" lon="5.9796">
        <ele>2307.1</ele>
        <time>2000-01-01T08:55:16.000Z</time>
      </trkpt>
      <trkpt lat="45.17551" lon="5.97958">
        <ele>2306.3</ele>
        <time>2000-01-01T08:55:26.000Z</time>
      </trkpt>
      <trkpt lat="45.17552" lon="5.97954">
        <ele>2305.8</ele>
        <time>2000-01-01T08:55:36.000Z</time>
      </trkpt>
      <trkpt lat="45.17555" lon="5.97951">
        <ele>2304.5</ele>
        <time>2000-01-01T08:55:46.000Z</time>
      </trkpt>
      <trkpt lat="45.17558" lon="5.97946">
        <ele>2305</ele>
        <time>2000-01-01T08:55:56.000Z</time>
      </trkpt>
      <trkpt lat="45.17561" lon="5.97949">
        <ele>2302.9</ele>
        <time>2000-01-01T08:56:06.000Z</time>
      </trkpt>
      <trkpt lat="45.17566" lon="5.97943">
        <ele>2301.3</ele>
        <time>2000-01-01T08:56:16.000Z</time>
      </trkpt>
      <trkpt lat="45.17569" lon="5.97942">
        <ele>2300.4</ele>
        <time>2000-01-01T08:56:26.000Z</time>
      </trkpt>
      <trkpt lat="45.17572" lon="5.97939">
        <ele>2299.4</ele>
        <time>2000-01-01T08:56:36.000Z</time>
      </trkpt>
      <trkpt lat="45.17574" lon="5.97934">
        <ele>2298</ele>
        <time>2000-01-01T08:56:46.000Z</time>
      </trkpt>
      <trkpt lat="45.1758" lon="5.97925">
        <ele>2295.9</ele>
        <time>2000-01-01T08:56:56.000Z</time>
      </trkpt>
      <trkpt lat="45.17584" lon="5.97922">
        <ele>2294.4</ele>
        <time>2000-01-01T08:57:06.000Z</time>
      </trkpt>
      <trkpt lat="45.17593" lon="5.97925">
        <ele>2292</ele>
        <time>2000-01-01T08:57:16.000Z</time>
      </trkpt>
      <trkpt lat="45.17595" lon="5.97927">
        <ele>2292.8</ele>
        <time>2000-01-01T08:57:26.000Z</time>
      </trkpt>
      <trkpt lat="45.17596" lon="5.97924">
        <ele>2292.2</ele>
        <time>2000-01-01T08:57:36.000Z</time>
      </trkpt>
      <trkpt lat="45.176" lon="5.9792">
        <ele>2290.8</ele>
        <time>2000-01-01T08:57:46.000Z</time>
      </trkpt>
      <trkpt lat="45.17607" lon="5.97915">
        <ele>2288.7</ele>
        <time>2000-01-01T08:57:56.000Z</time>
      </trkpt>
      <trkpt lat="45.17613" lon="5.97913">
        <ele>2287</ele>
        <time>2000-01-01T08:58:06.000Z</time>
      </trkpt>
      <trkpt lat="45.17622" lon="5.97905">
        <ele>2284.5</ele>
        <time>2000-01-01T08:58:16.000Z</time>
      </trkpt>
      <trkpt lat="45.17626" lon="5.97903">
        <ele>2283.3</ele>
        <time>2000-01-01T08:58:26.000Z</time>
      </trkpt>
      <trkpt lat="45.17631" lon="5.97898">
        <ele>2279</ele>
        <time>2000-01-01T08:58:36.000Z</time>
      </trkpt>
      <trkpt lat="45.17644" lon="5.97889">
        <ele>2277.5</ele>
        <time>2000-01-01T08:58:46.000Z</time>
      </trkpt>
      <trkpt lat="45.17646" lon="5.97886">
        <ele>2277</ele>
        <time>2000-01-01T08:58:56.000Z</time>
      </trkpt>
      <trkpt lat="45.17653" lon="5.97884">
        <ele>2275</ele>
        <time>2000-01-01T08:59:06.000Z</time>
      </trkpt>
      <trkpt lat="45.17658" lon="5.9788">
        <ele>2275.1</ele>
        <time>2000-01-01T08:59:16.000Z</time>
      </trkpt>
      <trkpt lat="45.1766" lon="5.97877">
        <ele>2274.5</ele>
        <time>2000-01-01T08:59:26.000Z</time>
      </trkpt>
      <trkpt lat="45.17663" lon="5.97875">
        <ele>2274</ele>
        <time>2000-01-01T08:59:36.000Z</time>
      </trkpt>
      <trkpt lat="45.17668" lon="5.97873">
        <ele>2273.3</ele>
        <time>2000-01-01T08:59:46.000Z</time>
      </trkpt>
      <trkpt lat="45.17669" lon="5.97871">
        <ele>2273</ele>
        <time>2000-01-01T08:59:56.000Z</time>
      </trkpt>
      <trkpt lat="45.17677" lon="5.97865">
        <ele>2271</ele>
        <time>2000-01-01T09:00:06.000Z</time>
      </trkpt>
      <trkpt lat="45.17686" lon="5.97857">
        <ele>2270.9</ele>
        <time>2000-01-01T09:00:16.000Z</time>
      </trkpt>
      <trkpt lat="45.17689" lon="5.97853">
        <ele>2270.3</ele>
        <time>2000-01-01T09:00:26.000Z</time>
      </trkpt>
      <trkpt lat="45.17692" lon="5.97851">
        <ele>2270</ele>
        <time>2000-01-01T09:00:36.000Z</time>
      </trkpt>
      <trkpt lat="45.17694" lon="5.97846">
        <ele>2268</ele>
        <time>2000-01-01T09:00:46.000Z</time>
      </trkpt>
      <trkpt lat="45.17696" lon="5.97846">
        <ele>2269.3</ele>
        <time>2000-01-01T09:00:56.000Z</time>
      </trkpt>
      <trkpt lat="45.17708" lon="5.97824">
        <ele>2265</ele>
        <time>2000-01-01T09:01:06.000Z</time>
      </trkpt>
      <trkpt lat="45.17711" lon="5.97823">
        <ele>2265.3</ele>
        <time>2000-01-01T09:01:16.000Z</time>
      </trkpt>
      <trkpt lat="45.17713" lon="5.97821">
        <ele>2264.9</ele>
        <time>2000-01-01T09:01:26.000Z</time>
      </trkpt>
      <trkpt lat="45.17716" lon="5.97822">
        <ele>2264.8</ele>
        <time>2000-01-01T09:01:36.000Z</time>
      </trkpt>
      <trkpt lat="45.17719" lon="5.97822">
        <ele>2264.6</ele>
        <time>2000-01-01T09:01:46.000Z</time>
      </trkpt>
      <trkpt lat="45.17722" lon="5.9782">
        <ele>2264.1</ele>
        <time>2000-01-01T09:01:56.000Z</time>
      </trkpt>
      <trkpt lat="45.17726" lon="5.9782">
        <ele>2264</ele>
        <time>2000-01-01T09:02:06.000Z</time>
      </trkpt>
      <trkpt lat="45.17728" lon="5.97817">
        <ele>2262</ele>
        <time>2000-01-01T09:02:16.000Z</time>
      </trkpt>
      <trkpt lat="45.17733" lon="5.97816">
        <ele>2263.5</ele>
        <time>2000-01-01T09:02:26.000Z</time>
      </trkpt>
      <trkpt lat="45.17737" lon="5.97813">
        <ele>2263.2</ele>
        <time>2000-01-01T09:02:36.000Z</time>
      </trkpt>
      <trkpt lat="45.17739" lon="5.97807">
        <ele>2262.7</ele>
        <time>2000-01-01T09:02:46.000Z</time>
      </trkpt>
      <trkpt lat="45.17745" lon="5.97806">
        <ele>2262</ele>
        <time>2000-01-01T09:02:56.000Z</time>
      </trkpt>
      <trkpt lat="45.17746" lon="5.97803">
        <ele>2262.3</ele>
        <time>2000-01-01T09:03:06.000Z</time>
      </trkpt>
      <trkpt lat="45.17751" lon="5.97802">
        <ele>2262</ele>
        <time>2000-01-01T09:03:16.000Z</time>
      </trkpt>
      <trkpt lat="45.17754" lon="5.97805">
        <ele>2262.4</ele>
        <time>2000-01-01T09:03:26.000Z</time>
      </trkpt>
      <trkpt lat="45.17761" lon="5.97808">
        <ele>2262.1</ele>
        <time>2000-01-01T09:03:36.000Z</time>
      </trkpt>
      <trkpt lat="45.17766" lon="5.97809">
        <ele>2263</ele>
        <time>2000-01-01T09:03:46.000Z</time>
      </trkpt>
      <trkpt lat="45.17773" lon="5.97817">
        <ele>2263</ele>
        <time>2000-01-01T09:03:56.000Z</time>
      </trkpt>
      <trkpt lat="45.1778" lon="5.97822">
        <ele>2264</ele>
        <time>2000-01-01T09:04:06.000Z</time>
      </trkpt>
      <trkpt lat="45.17783" lon="5.97822">
        <ele>2264</ele>
        <time>2000-01-01T09:04:16.000Z</time>
      </trkpt>
      <trkpt lat="45.17786" lon="5.97826">
        <ele>2264.8</ele>
        <time>2000-01-01T09:04:26.000Z</time>
      </trkpt>
      <trkpt lat="45.17786" lon="5.9783">
        <ele>2266</ele>
        <time>2000-01-01T09:04:36.000Z</time>
      </trkpt>
      <trkpt lat="45.17788" lon="5.97833">
        <ele>2266.9</ele>
        <time>2000-01-01T09:04:46.000Z</time>
      </trkpt>
      <trkpt lat="45.1779" lon="5.97834">
        <ele>2267.2</ele>
        <time>2000-01-01T09:04:56.000Z</time>
      </trkpt>
      <trkpt lat="45.17793" lon="5.97834">
        <ele>2267.2</ele>
        <time>2000-01-01T09:05:06.000Z</time>
      </trkpt>
      <trkpt lat="45.178" lon="5.97831">
        <ele>2262</ele>
        <time>2000-01-01T09:05:16.000Z</time>
      </trkpt>
      <trkpt lat="45.17799" lon="5.97835">
        <ele>2267.4</ele>
        <time>2000-01-01T09:05:26.000Z</time>
      </trkpt>
      <trkpt lat="45.17801" lon="5.97827">
        <ele>2264.6</ele>
        <time>2000-01-01T09:05:36.000Z</time>
      </trkpt>
      <trkpt lat="45.17811" lon="5.97826">
        <ele>2260</ele>
        <time>2000-01-01T09:05:46.000Z</time>
      </trkpt>
      <trkpt lat="45.17813" lon="5.97828">
        <ele>2263.3</ele>
        <time>2000-01-01T09:05:56.000Z</time>
      </trkpt>
      <trkpt lat="45.17822" lon="5.97841">
        <ele>2266.3</ele>
        <time>2000-01-01T09:06:06.000Z</time>
      </trkpt>
      <trkpt lat="45.17823" lon="5.97837">
        <ele>2264.6</ele>
        <time>2000-01-01T09:06:16.000Z</time>
      </trkpt>
      <trkpt lat="45.17829" lon="5.9783">
        <ele>2260</ele>
        <time>2000-01-01T09:06:26.000Z</time>
      </trkpt>
      <trkpt lat="45.17831" lon="5.97823">
        <ele>2257.4</ele>
        <time>2000-01-01T09:06:36.000Z</time>
      </trkpt>
      <trkpt lat="45.17846" lon="5.97808">
        <ele>2247</ele>
        <time>2000-01-01T09:06:46.000Z</time>
      </trkpt>
      <trkpt lat="45.17857" lon="5.97799">
        <ele>2250</ele>
        <time>2000-01-01T09:06:56.000Z</time>
      </trkpt>
      <trkpt lat="45.17859" lon="5.97796">
        <ele>2249</ele>
        <time>2000-01-01T09:07:06.000Z</time>
      </trkpt>
      <trkpt lat="45.17861" lon="5.97791">
        <ele>2246</ele>
        <time>2000-01-01T09:07:16.000Z</time>
      </trkpt>
      <trkpt lat="45.17866" lon="5.97786">
        <ele>2245.8</ele>
        <time>2000-01-01T09:07:26.000Z</time>
      </trkpt>
      <trkpt lat="45.1787" lon="5.97783">
        <ele>2245.1</ele>
        <time>2000-01-01T09:07:36.000Z</time>
      </trkpt>
      <trkpt lat="45.17873" lon="5.97777">
        <ele>2243</ele>
        <time>2000-01-01T09:07:46.000Z</time>
      </trkpt>
      <trkpt lat="45.1789" lon="5.9777">
        <ele>2238</ele>
        <time>2000-01-01T09:07:56.000Z</time>
      </trkpt>
      <trkpt lat="45.17895" lon="5.97763">
        <ele>2240.1</ele>
        <time>2000-01-01T09:08:06.000Z</time>
      </trkpt>
      <trkpt lat="45.179" lon="5.97758">
        <ele>2239</ele>
        <time>2000-01-01T09:08:16.000Z</time>
      </trkpt>
      <trkpt lat="45.17907" lon="5.97747">
        <ele>2233</ele>
        <time>2000-01-01T09:08:26.000Z</time>
      </trkpt>
      <trkpt lat="45.17914" lon="5.9774">
        <ele>2236</ele>
        <time>2000-01-01T09:08:36.000Z</time>
      </trkpt>
      <trkpt lat="45.17918" lon="5.97737">
        <ele>2235.6</ele>
        <time>2000-01-01T09:08:46.000Z</time>
      </trkpt>
      <trkpt lat="45.17921" lon="5.9773">
        <ele>2233.6</ele>
        <time>2000-01-01T09:08:56.000Z</time>
      </trkpt>
      <trkpt lat="45.17923" lon="5.97721">
        <ele>2231</ele>
        <time>2000-01-01T09:09:06.000Z</time>
      </trkpt>
      <trkpt lat="45.17926" lon="5.97717">
        <ele>2230.7</ele>
        <time>2000-01-01T09:09:16.000Z</time>
      </trkpt>
      <trkpt lat="45.17932" lon="5.97715">
        <ele>2230.3</ele>
        <time>2000-01-01T09:09:26.000Z</time>
      </trkpt>
      <trkpt lat="45.17935" lon="5.97712">
        <ele>2229.9</ele>
        <time>2000-01-01T09:09:36.000Z</time>
      </trkpt>
      <trkpt lat="45.17936" lon="5.97706">
        <ele>2229</ele>
        <time>2000-01-01T09:09:46.000Z</time>
      </trkpt>
      <trkpt lat="45.17942" lon="5.97703">
        <ele>2229</ele>
        <time>2000-01-01T09:09:56.000Z</time>
      </trkpt>
      <trkpt lat="45.17942" lon="5.97686">
        <ele>2226.3</ele>
        <time>2000-01-01T09:10:06.000Z</time>
      </trkpt>
      <trkpt lat="45.17943" lon="5.97683">
        <ele>2225.8</ele>
        <time>2000-01-01T09:10:16.000Z</time>
      </trkpt>
      <trkpt lat="45.17955" lon="5.97676">
        <ele>2223</ele>
        <time>2000-01-01T09:10:26.000Z</time>
      </trkpt>
      <trkpt lat="45.17961" lon="5.97674">
        <ele>2220.6</ele>
        <time>2000-01-01T09:10:36.000Z</time>
      </trkpt>
      <trkpt lat="45.17964" lon="5.97675">
        <ele>2220.1</ele>
        <time>2000-01-01T09:10:46.000Z</time>
      </trkpt>
      <trkpt lat="45.17969" lon="5.97673">
        <ele>2218.6</ele>
        <time>2000-01-01T09:10:56.000Z</time>
      </trkpt>
      <trkpt lat="45.17972" lon="5.97669">
        <ele>2217.4</ele>
        <time>2000-01-01T09:11:06.000Z</time>
      </trkpt>
      <trkpt lat="45.17974" lon="5.97669">
        <ele>2215</ele>
        <time>2000-01-01T09:11:16.000Z</time>
      </trkpt>
      <trkpt lat="45.17978" lon="5.97666">
        <ele>2215.8</ele>
        <time>2000-01-01T09:11:26.000Z</time>
      </trkpt>
      <trkpt lat="45.17982" lon="5.97666">
        <ele>2215.1</ele>
        <time>2000-01-01T09:11:36.000Z</time>
      </trkpt>
      <trkpt lat="45.17985" lon="5.97664">
        <ele>2214.2</ele>
        <time>2000-01-01T09:11:46.000Z</time>
      </trkpt>
      <trkpt lat="45.17988" lon="5.97663">
        <ele>2213.5</ele>
        <time>2000-01-01T09:11:56.000Z</time>
      </trkpt>
      <trkpt lat="45.17992" lon="5.97659">
        <ele>2211</ele>
        <time>2000-01-01T09:12:06.000Z</time>
      </trkpt>
      <trkpt lat="45.17997" lon="5.97656">
        <ele>2210.9</ele>
        <time>2000-01-01T09:12:16.000Z</time>
      </trkpt>
      <trkpt lat="45.18" lon="5.97655">
        <ele>2210.3</ele>
        <time>2000-01-01T09:12:26.000Z</time>
      </trkpt>
      <trkpt lat="45.18003" lon="5.97652">
        <ele>2209.2</ele>
        <time>2000-01-01T09:12:36.000Z</time>
      </trkpt>
      <trkpt lat="45.18022" lon="5.97646">
        <ele>2204</ele>
        <time>2000-01-01T09:12:46.000Z</time>
      </trkpt>
      <trkpt lat="45.18025" lon="5.97644">
        <ele>2203.9</ele>
        <time>2000-01-01T09:12:56.000Z</time>
      </trkpt>
      <trkpt lat="45.18031" lon="5.97636">
        <ele>2203.7</ele>
        <time>2000-01-01T09:13:06.000Z</time>
      </trkpt>
      <trkpt lat="45.18032" lon="5.97631">
        <ele>2203.8</ele>
        <time>2000-01-01T09:13:16.000Z</time>
      </trkpt>
      <trkpt lat="45.18032" lon="5.97626">
        <ele>2203.7</ele>
        <time>2000-01-01T09:13:26.000Z</time>
      </trkpt>
      <trkpt lat="45.18033" lon="5.9762">
        <ele>2202</ele>
        <time>2000-01-01T09:13:36.000Z</time>
      </trkpt>
      <trkpt lat="45.18033" lon="5.97602">
        <ele>2202.9</ele>
        <time>2000-01-01T09:13:46.000Z</time>
      </trkpt>
      <trkpt lat="45.18034" lon="5.97596">
        <ele>2202.9</ele>
        <time>2000-01-01T09:13:56.000Z</time>
      </trkpt>
      <trkpt lat="45.18034" lon="5.97572">
        <ele>2199</ele>
        <time>2000-01-01T09:14:06.000Z</time>
      </trkpt>
      <trkpt lat="45.18037" lon="5.97557">
        <ele>2202.4</ele>
        <time>2000-01-01T09:14:16.000Z</time>
      </trkpt>
      <trkpt lat="45.18039" lon="5.9755">
        <ele>2202.7</ele>
        <time>2000-01-01T09:14:26.000Z</time>
      </trkpt>
      <trkpt lat="45.18039" lon="5.97546">
        <ele>2198</ele>
        <time>2000-01-01T09:14:36.000Z</time>
      </trkpt>
      <trkpt lat="45.18041" lon="5.97539">
        <ele>2202.5</ele>
        <time>2000-01-01T09:14:46.000Z</time>
      </trkpt>
      <trkpt lat="45.18041" lon="5.97536">
        <ele>2202.1</ele>
        <time>2000-01-01T09:14:56.000Z</time>
      </trkpt>
      <trkpt lat="45.18043" lon="5.97529">
        <ele>2202.5</ele>
        <time>2000-01-01T09:15:06.000Z</time>
      </trkpt>
      <trkpt lat="45.18043" lon="5.97526">
        <ele>2202.2</ele>
        <time>2000-01-01T09:15:16.000Z</time>
      </trkpt>
      <trkpt lat="45.18046" lon="5.97516">
        <ele>2199</ele>
        <time>2000-01-01T09:15:26.000Z</time>
      </trkpt>
      <trkpt lat="45.18049" lon="5.97513">
        <ele>2204.6</ele>
        <time>2000-01-01T09:15:36.000Z</time>
      </trkpt>
      <trkpt lat="45.18051" lon="5.97504">
        <ele>2204.9</ele>
        <time>2000-01-01T09:15:46.000Z</time>
      </trkpt>
      <trkpt lat="45.18051" lon="5.97499">
        <ele>2204.5</ele>
        <time>2000-01-01T09:15:56.000Z</time>
      </trkpt>
      <trkpt lat="45.1805" lon="5.97495">
        <ele>2204</ele>
        <time>2000-01-01T09:16:06.000Z</time>
      </trkpt>
      <trkpt lat="45.1805" lon="5.9749">
        <ele>2201</ele>
        <time>2000-01-01T09:16:16.000Z</time>
      </trkpt>
      <trkpt lat="45.18047" lon="5.97478">
        <ele>2202.6</ele>
        <time>2000-01-01T09:16:26.000Z</time>
      </trkpt>
      <trkpt lat="45.18045" lon="5.97466">
        <ele>2202.5</ele>
        <time>2000-01-01T09:16:36.000Z</time>
      </trkpt>
      <trkpt lat="45.18041" lon="5.97454">
        <ele>2200</ele>
        <time>2000-01-01T09:16:46.000Z</time>
      </trkpt>
      <trkpt lat="45.18038" lon="5.97449">
        <ele>2200.7</ele>
        <time>2000-01-01T09:16:56.000Z</time>
      </trkpt>
      <trkpt lat="45.18036" lon="5.97444">
        <ele>2200.1</ele>
        <time>2000-01-01T09:17:06.000Z</time>
      </trkpt>
      <trkpt lat="45.18035" lon="5.97441">
        <ele>2199.8</ele>
        <time>2000-01-01T09:17:16.000Z</time>
      </trkpt>
      <trkpt lat="45.18035" lon="5.97438">
        <ele>2200.1</ele>
        <time>2000-01-01T09:17:26.000Z</time>
      </trkpt>
      <trkpt lat="45.18032" lon="5.97431">
        <ele>2199</ele>
        <time>2000-01-01T09:17:36.000Z</time>
      </trkpt>
      <trkpt lat="45.18032" lon="5.97411">
        <ele>2200</ele>
        <time>2000-01-01T09:17:46.000Z</time>
      </trkpt>
      <trkpt lat="45.18031" lon="5.97406">
        <ele>2201</ele>
        <time>2000-01-01T09:17:56.000Z</time>
      </trkpt>
      <trkpt lat="45.18031" lon="5.97401">
        <ele>2201.5</ele>
        <time>2000-01-01T09:18:06.000Z</time>
      </trkpt>
      <trkpt lat="45.18028" lon="5.97398">
        <ele>2200.1</ele>
        <time>2000-01-01T09:18:16.000Z</time>
      </trkpt>
      <trkpt lat="45.18028" lon="5.97393">
        <ele>2200.7</ele>
        <time>2000-01-01T09:18:26.000Z</time>
      </trkpt>
      <trkpt lat="45.18027" lon="5.97388">
        <ele>2200.5</ele>
        <time>2000-01-01T09:18:36.000Z</time>
      </trkpt>
      <trkpt lat="45.18024" lon="5.97378">
        <ele>2196</ele>
        <time>2000-01-01T09:18:46.000Z</time>
      </trkpt>
      <trkpt lat="45.18021" lon="5.97371">
        <ele>2197.1</ele>
        <time>2000-01-01T09:18:56.000Z</time>
      </trkpt>
      <trkpt lat="45.18021" lon="5.97367">
        <ele>2197.3</ele>
        <time>2000-01-01T09:19:06.000Z</time>
      </trkpt>
      <trkpt lat="45.1802" lon="5.97363">
        <ele>2196.9</ele>
        <time>2000-01-01T09:19:16.000Z</time>
      </trkpt>
      <trkpt lat="45.1802" lon="5.97346">
        <ele>2196</ele>
        <time>2000-01-01T09:19:26.000Z</time>
      </trkpt>
      <trkpt lat="45.18022" lon="5.97341">
        <ele>2198</ele>
        <time>2000-01-01T09:19:36.000Z</time>
      </trkpt>
      <trkpt lat="45.18023" lon="5.97335">
        <ele>2198.6</ele>
        <time>2000-01-01T09:19:46.000Z</time>
      </trkpt>
      <trkpt lat="45.18025" lon="5.97329">
        <ele>2200.1</ele>
        <time>2000-01-01T09:19:56.000Z</time>
      </trkpt>
      <trkpt lat="45.18025" lon="5.97323">
        <ele>2200.3</ele>
        <time>2000-01-01T09:20:06.000Z</time>
      </trkpt>
      <trkpt lat="45.18024" lon="5.97319">
        <ele>2196</ele>
        <time>2000-01-01T09:20:16.000Z</time>
      </trkpt>
      <trkpt lat="45.18026" lon="5.97316">
        <ele>2201.3</ele>
        <time>2000-01-01T09:20:26.000Z</time>
      </trkpt>
      <trkpt lat="45.18026" lon="5.97312">
        <ele>2201.4</ele>
        <time>2000-01-01T09:20:36.000Z</time>
      </trkpt>
      <trkpt lat="45.18025" lon="5.9731">
        <ele>2200.7</ele>
        <time>2000-01-01T09:20:46.000Z</time>
      </trkpt>
      <trkpt lat="45.18025" lon="5.97307">
        <ele>2200.8</ele>
        <time>2000-01-01T09:20:56.000Z</time>
      </trkpt>
      <trkpt lat="45.1803" lon="5.973">
        <ele>2203.7</ele>
        <time>2000-01-01T09:21:06.000Z</time>
      </trkpt>
      <trkpt lat="45.1803" lon="5.97294">
        <ele>2198</ele>
        <time>2000-01-01T09:21:16.000Z</time>
      </trkpt>
      <trkpt lat="45.18031" lon="5.9729">
        <ele>2203.4</ele>
        <time>2000-01-01T09:21:26.000Z</time>
      </trkpt>
      <trkpt lat="45.18031" lon="5.97282">
        <ele>2202.6</ele>
        <time>2000-01-01T09:21:36.000Z</time>
      </trkpt>
      <trkpt lat="45.18032" lon="5.97277">
        <ele>2202.9</ele>
        <time>2000-01-01T09:21:46.000Z</time>
      </trkpt>
      <trkpt lat="45.18032" lon="5.97267">
        <ele>2199</ele>
        <time>2000-01-01T09:21:56.000Z</time>
      </trkpt>
      <trkpt lat="45.18033" lon="5.97262">
        <ele>2204</ele>
        <time>2000-01-01T09:22:06.000Z</time>
      </trkpt>
      <trkpt lat="45.18033" lon="5.97256">
        <ele>2204.2</ele>
        <time>2000-01-01T09:22:16.000Z</time>
      </trkpt>
      <trkpt lat="45.18032" lon="5.9725">
        <ele>2203.7</ele>
        <time>2000-01-01T09:22:26.000Z</time>
      </trkpt>
      <trkpt lat="45.18033" lon="5.97246">
        <ele>2205.2</ele>
        <time>2000-01-01T09:22:36.000Z</time>
      </trkpt>
      <trkpt lat="45.1803" lon="5.97233">
        <ele>2200</ele>
        <time>2000-01-01T09:22:46.000Z</time>
      </trkpt>
      <trkpt lat="45.18028" lon="5.9723">
        <ele>2206.1</ele>
        <time>2000-01-01T09:22:56.000Z</time>
      </trkpt>
      <trkpt lat="45.18026" lon="5.97219">
        <ele>2207.1</ele>
        <time>2000-01-01T09:23:06.000Z</time>
      </trkpt>
      <trkpt lat="45.18024" lon="5.97213">
        <ele>2206.7</ele>
        <time>2000-01-01T09:23:16.000Z</time>
      </trkpt>
      <trkpt lat="45.18022" lon="5.9721">
        <ele>2205.8</ele>
        <time>2000-01-01T09:23:26.000Z</time>
      </trkpt>
      <trkpt lat="45.18021" lon="5.97207">
        <ele>2201</ele>
        <time>2000-01-01T09:23:36.000Z</time>
      </trkpt>
      <trkpt lat="45.18014" lon="5.97194">
        <ele>2203.6</ele>
        <time>2000-01-01T09:23:46.000Z</time>
      </trkpt>
      <trkpt lat="45.18012" lon="5.97187">
        <ele>2202.4</ele>
        <time>2000-01-01T09:23:56.000Z</time>
      </trkpt>
      <trkpt lat="45.18012" lon="5.97184">
        <ele>2202.4</ele>
        <time>2000-01-01T09:24:06.000Z</time>
      </trkpt>
      <trkpt lat="45.18013" lon="5.9718">
        <ele>2201</ele>
        <time>2000-01-01T09:24:16.000Z</time>
      </trkpt>
      <trkpt lat="45.18016" lon="5.97174">
        <ele>2204.6</ele>
        <time>2000-01-01T09:24:26.000Z</time>
      </trkpt>
      <trkpt lat="45.18018" lon="5.97165">
        <ele>2205.3</ele>
        <time>2000-01-01T09:24:36.000Z</time>
      </trkpt>
      <trkpt lat="45.18018" lon="5.97153">
        <ele>2202</ele>
        <time>2000-01-01T09:24:46.000Z</time>
      </trkpt>
      <trkpt lat="45.18019" lon="5.97147">
        <ele>2204.7</ele>
        <time>2000-01-01T09:24:56.000Z</time>
      </trkpt>
      <trkpt lat="45.18019" lon="5.97138">
        <ele>2204.1</ele>
        <time>2000-01-01T09:25:06.000Z</time>
      </trkpt>
      <trkpt lat="45.18022" lon="5.97135">
        <ele>2204.8</ele>
        <time>2000-01-01T09:25:16.000Z</time>
      </trkpt>
      <trkpt lat="45.18024" lon="5.97131">
        <ele>2205</ele>
        <time>2000-01-01T09:25:26.000Z</time>
      </trkpt>
      <trkpt lat="45.18027" lon="5.97117">
        <ele>2202</ele>
        <time>2000-01-01T09:25:36.000Z</time>
      </trkpt>
      <trkpt lat="45.18034" lon="5.97104">
        <ele>2204.8</ele>
        <time>2000-01-01T09:25:46.000Z</time>
      </trkpt>
      <trkpt lat="45.18035" lon="5.971">
        <ele>2204.5</ele>
        <time>2000-01-01T09:25:56.000Z</time>
      </trkpt>
      <trkpt lat="45.18035" lon="5.97052">
        <ele>2195</ele>
        <time>2000-01-01T09:26:06.000Z</time>
      </trkpt>
      <trkpt lat="45.18034" lon="5.97048">
        <ele>2194.9</ele>
        <time>2000-01-01T09:26:16.000Z</time>
      </trkpt>
      <trkpt lat="45.18034" lon="5.97043">
        <ele>2193.8</ele>
        <time>2000-01-01T09:26:26.000Z</time>
      </trkpt>
      <trkpt lat="45.18033" lon="5.97038">
        <ele>2192.6</ele>
        <time>2000-01-01T09:26:36.000Z</time>
      </trkpt>
      <trkpt lat="45.18033" lon="5.97032">
        <ele>2191.3</ele>
        <time>2000-01-01T09:26:46.000Z</time>
      </trkpt>
      <trkpt lat="45.18031" lon="5.97022">
        <ele>2187</ele>
        <time>2000-01-01T09:26:56.000Z</time>
      </trkpt>
      <trkpt lat="45.18031" lon="5.97013">
        <ele>2185.8</ele>
        <time>2000-01-01T09:27:06.000Z</time>
      </trkpt>
      <trkpt lat="45.18034" lon="5.97">
        <ele>2181.8</ele>
        <time>2000-01-01T09:27:16.000Z</time>
      </trkpt>
      <trkpt lat="45.18037" lon="5.96991">
        <ele>2180</ele>
        <time>2000-01-01T09:27:26.000Z</time>
      </trkpt>
      <trkpt lat="45.18046" lon="5.96979">
        <ele>2177.3</ele>
        <time>2000-01-01T09:27:36.000Z</time>
      </trkpt>
      <trkpt lat="45.18051" lon="5.96974">
        <ele>2175.9</ele>
        <time>2000-01-01T09:27:46.000Z</time>
      </trkpt>
      <trkpt lat="45.18053" lon="5.96971">
        <ele>2176</ele>
        <time>2000-01-01T09:27:56.000Z</time>
      </trkpt>
      <trkpt lat="45.18055" lon="5.9697">
        <ele>2175</ele>
        <time>2000-01-01T09:28:06.000Z</time>
      </trkpt>
      <trkpt lat="45.18058" lon="5.96969">
        <ele>2174.5</ele>
        <time>2000-01-01T09:28:16.000Z</time>
      </trkpt>
      <trkpt lat="45.18061" lon="5.9697">
        <ele>2174</ele>
        <time>2000-01-01T09:28:26.000Z</time>
      </trkpt>
      <trkpt lat="45.18064" lon="5.9697">
        <ele>2173.5</ele>
        <time>2000-01-01T09:28:36.000Z</time>
      </trkpt>
      <trkpt lat="45.18067" lon="5.96972">
        <ele>2172.9</ele>
        <time>2000-01-01T09:28:46.000Z</time>
      </trkpt>
      <trkpt lat="45.18077" lon="5.96975">
        <ele>2172</ele>
        <time>2000-01-01T09:28:56.000Z</time>
      </trkpt>
      <trkpt lat="45.181" lon="5.96975">
        <ele>2169</ele>
        <time>2000-01-01T09:29:06.000Z</time>
      </trkpt>
      <trkpt lat="45.18103" lon="5.96976">
        <ele>2166.2</ele>
        <time>2000-01-01T09:29:16.000Z</time>
      </trkpt>
      <trkpt lat="45.18107" lon="5.96976">
        <ele>2165.4</ele>
        <time>2000-01-01T09:29:26.000Z</time>
      </trkpt>
      <trkpt lat="45.18119" lon="5.96978">
        <ele>2165</ele>
        <time>2000-01-01T09:29:36.000Z</time>
      </trkpt>
      <trkpt lat="45.18123" lon="5.96978">
        <ele>2159.2</ele>
        <time>2000-01-01T09:29:46.000Z</time>
      </trkpt>
      <trkpt lat="45.1813" lon="5.96976">
        <ele>2156.1</ele>
        <time>2000-01-01T09:29:56.000Z</time>
      </trkpt>
      <trkpt lat="45.18139" lon="5.96971">
        <ele>2157</ele>
        <time>2000-01-01T09:30:06.000Z</time>
      </trkpt>
      <trkpt lat="45.18142" lon="5.96967">
        <ele>2151.4</ele>
        <time>2000-01-01T09:30:16.000Z</time>
      </trkpt>
      <trkpt lat="45.18146" lon="5.96959">
        <ele>2150.3</ele>
        <time>2000-01-01T09:30:26.000Z</time>
      </trkpt>
      <trkpt lat="45.1815" lon="5.96949">
        <ele>2153</ele>
        <time>2000-01-01T09:30:36.000Z</time>
      </trkpt>
      <trkpt lat="45.18153" lon="5.96945">
        <ele>2147.4</ele>
        <time>2000-01-01T09:30:46.000Z</time>
      </trkpt>
      <trkpt lat="45.18159" lon="5.96932">
        <ele>2143.5</ele>
        <time>2000-01-01T09:30:56.000Z</time>
      </trkpt>
      <trkpt lat="45.18162" lon="5.96928">
        <ele>2141</ele>
        <time>2000-01-01T09:31:06.000Z</time>
      </trkpt>
      <trkpt lat="45.18166" lon="5.96925">
        <ele>2139.5</ele>
        <time>2000-01-01T09:31:16.000Z</time>
      </trkpt>
      <trkpt lat="45.18168" lon="5.96922">
        <ele>2138</ele>
        <time>2000-01-01T09:31:26.000Z</time>
      </trkpt>
      <trkpt lat="45.18171" lon="5.96921">
        <ele>2136.1</ele>
        <time>2000-01-01T09:31:36.000Z</time>
      </trkpt>
      <trkpt lat="45.18174" lon="5.96919">
        <ele>2134</ele>
        <time>2000-01-01T09:31:46.000Z</time>
      </trkpt>
      <trkpt lat="45.18175" lon="5.96914">
        <ele>2132.2</ele>
        <time>2000-01-01T09:31:56.000Z</time>
      </trkpt>
      <trkpt lat="45.18175" lon="5.9691">
        <ele>2136</ele>
        <time>2000-01-01T09:32:06.000Z</time>
      </trkpt>
      <trkpt lat="45.18174" lon="5.96907">
        <ele>2131</ele>
        <time>2000-01-01T09:32:16.000Z</time>
      </trkpt>
      <trkpt lat="45.18174" lon="5.96903">
        <ele>2129.9</ele>
        <time>2000-01-01T09:32:26.000Z</time>
      </trkpt>
      <trkpt lat="45.18175" lon="5.969">
        <ele>2128.5</ele>
        <time>2000-01-01T09:32:36.000Z</time>
      </trkpt>
      <trkpt lat="45.18175" lon="5.96895">
        <ele>2127.2</ele>
        <time>2000-01-01T09:32:46.000Z</time>
      </trkpt>
      <trkpt lat="45.18176" lon="5.96891">
        <ele>2125.5</ele>
        <time>2000-01-01T09:32:56.000Z</time>
      </trkpt>
      <trkpt lat="45.18176" lon="5.96888">
        <ele>2124.6</ele>
        <time>2000-01-01T09:33:06.000Z</time>
      </trkpt>
      <trkpt lat="45.18178" lon="5.96879">
        <ele>2122</ele>
        <time>2000-01-01T09:33:16.000Z</time>
      </trkpt>
      <trkpt lat="45.18178" lon="5.96873">
        <ele>2117.7</ele>
        <time>2000-01-01T09:33:26.000Z</time>
      </trkpt>
      <trkpt lat="45.18177" lon="5.96868">
        <ele>2116.5</ele>
        <time>2000-01-01T09:33:36.000Z</time>
      </trkpt>
      <trkpt lat="45.18174" lon="5.96865">
        <ele>2117.4</ele>
        <time>2000-01-01T09:33:46.000Z</time>
      </trkpt>
      <trkpt lat="45.18178" lon="5.96864">
        <ele>2114.3</ele>
        <time>2000-01-01T09:33:56.000Z</time>
      </trkpt>
      <trkpt lat="45.18181" lon="5.96862">
        <ele>2111.5</ele>
        <time>2000-01-01T09:34:06.000Z</time>
      </trkpt>
      <trkpt lat="45.18181" lon="5.96857">
        <ele>2116</ele>
        <time>2000-01-01T09:34:16.000Z</time>
      </trkpt>
      <trkpt lat="45.18179" lon="5.96851">
        <ele>2107.5</ele>
        <time>2000-01-01T09:34:26.000Z</time>
      </trkpt>
      <trkpt lat="45.18177" lon="5.96847">
        <ele>2107</ele>
        <time>2000-01-01T09:34:36.000Z</time>
      </trkpt>
      <trkpt lat="45.18171" lon="5.96839">
        <ele>2107.4</ele>
        <time>2000-01-01T09:34:46.000Z</time>
      </trkpt>
      <trkpt lat="45.1817" lon="5.96836">
        <ele>2106.8</ele>
        <time>2000-01-01T09:34:56.000Z</time>
      </trkpt>
      <trkpt lat="45.18168" lon="5.96833">
        <ele>2111</ele>
        <time>2000-01-01T09:35:06.000Z</time>
      </trkpt>
      <trkpt lat="45.18163" lon="5.96828">
        <ele>2108.2</ele>
        <time>2000-01-01T09:35:16.000Z</time>
      </trkpt>
      <trkpt lat="45.1816" lon="5.96823">
        <ele>2108.1</ele>
        <time>2000-01-01T09:35:26.000Z</time>
      </trkpt>
      <trkpt lat="45.18157" lon="5.96816">
        <ele>2107.1</ele>
        <time>2000-01-01T09:35:36.000Z</time>
      </trkpt>
      <trkpt lat="45.18154" lon="5.96807">
        <ele>2103</ele>
        <time>2000-01-01T09:35:46.000Z</time>
      </trkpt>
      <trkpt lat="45.18154" lon="5.96803">
        <ele>2103.3</ele>
        <time>2000-01-01T09:35:56.000Z</time>
      </trkpt>
      <trkpt lat="45.18153" lon="5.96798">
        <ele>2101.9</ele>
        <time>2000-01-01T09:36:06.000Z</time>
      </trkpt>
      <trkpt lat="45.18151" lon="5.96793">
        <ele>2101.4</ele>
        <time>2000-01-01T09:36:16.000Z</time>
      </trkpt>
      <trkpt lat="45.18148" lon="5.96791">
        <ele>2103</ele>
        <time>2000-01-01T09:36:26.000Z</time>
      </trkpt>
      <trkpt lat="45.18145" lon="5.96786">
        <ele>2103.1</ele>
        <time>2000-01-01T09:36:36.000Z</time>
      </trkpt>
      <trkpt lat="45.18143" lon="5.96779">
        <ele>2100</ele>
        <time>2000-01-01T09:36:46.000Z</time>
      </trkpt>
      <trkpt lat="45.18138" lon="5.96766">
        <ele>2101.9</ele>
        <time>2000-01-01T09:36:56.000Z</time>
      </trkpt>
      <trkpt lat="45.18135" lon="5.96755">
        <ele>2101.7</ele>
        <time>2000-01-01T09:37:06.000Z</time>
      </trkpt>
      <trkpt lat="45.18135" lon="5.96749">
        <ele>2100</ele>
        <time>2000-01-01T09:37:16.000Z</time>
      </trkpt>
      <trkpt lat="45.18118" lon="5.96714">
        <ele>2097</ele>
        <time>2000-01-01T09:37:26.000Z</time>
      </trkpt>
      <trkpt lat="45.18112" lon="5.96706">
        <ele>2100.9</ele>
        <time>2000-01-01T09:37:36.000Z</time>
      </trkpt>
      <trkpt lat="45.18107" lon="5.96696">
        <ele>2099.1</ele>
        <time>2000-01-01T09:37:46.000Z</time>
      </trkpt>
      <trkpt lat="45.18101" lon="5.96686">
        <ele>2095</ele>
        <time>2000-01-01T09:37:56.000Z</time>
      </trkpt>
      <trkpt lat="45.18095" lon="5.9668">
        <ele>2097.7</ele>
        <time>2000-01-01T09:38:06.000Z</time>
      </trkpt>
      <trkpt lat="45.1809" lon="5.96676">
        <ele>2098.4</ele>
        <time>2000-01-01T09:38:16.000Z</time>
      </trkpt>
      <trkpt lat="45.18089" lon="5.96671">
        <ele>2096.2</ele>
        <time>2000-01-01T09:38:26.000Z</time>
      </trkpt>
      <trkpt lat="45.18087" lon="5.96667">
        <ele>2094</ele>
        <time>2000-01-01T09:38:36.000Z</time>
      </trkpt>
      <trkpt lat="45.18083" lon="5.96664">
        <ele>2095.4</ele>
        <time>2000-01-01T09:38:46.000Z</time>
      </trkpt>
      <trkpt lat="45.18081" lon="5.96659">
        <ele>2093</ele>
        <time>2000-01-01T09:38:56.000Z</time>
      </trkpt>
      <trkpt lat="45.18079" lon="5.96657">
        <ele>2092.6</ele>
        <time>2000-01-01T09:39:06.000Z</time>
      </trkpt>
      <trkpt lat="45.18078" lon="5.96655">
        <ele>2091.7</ele>
        <time>2000-01-01T09:39:16.000Z</time>
      </trkpt>
      <trkpt lat="45.18076" lon="5.96654">
        <ele>2091.9</ele>
        <time>2000-01-01T09:39:26.000Z</time>
      </trkpt>
      <trkpt lat="45.18072" lon="5.9665">
        <ele>2093</ele>
        <time>2000-01-01T09:39:36.000Z</time>
      </trkpt>
      <trkpt lat="45.18072" lon="5.96647">
        <ele>2089.3</ele>
        <time>2000-01-01T09:39:46.000Z</time>
      </trkpt>
      <trkpt lat="45.18069" lon="5.9664">
        <ele>2086.4</ele>
        <time>2000-01-01T09:39:56.000Z</time>
      </trkpt>
      <trkpt lat="45.18069" lon="5.96635">
        <ele>2083</ele>
        <time>2000-01-01T09:40:06.000Z</time>
      </trkpt>
      <trkpt lat="45.1807" lon="5.96631">
        <ele>2079.7</ele>
        <time>2000-01-01T09:40:16.000Z</time>
      </trkpt>
      <trkpt lat="45.1807" lon="5.96625">
        <ele>2075.5</ele>
        <time>2000-01-01T09:40:26.000Z</time>
      </trkpt>
      <trkpt lat="45.18069" lon="5.96616">
        <ele>2070</ele>
        <time>2000-01-01T09:40:36.000Z</time>
      </trkpt>
      <trkpt lat="45.18071" lon="5.96611">
        <ele>2065.1</ele>
        <time>2000-01-01T09:40:46.000Z</time>
      </trkpt>
      <trkpt lat="45.18075" lon="5.9661">
        <ele>2062.3</ele>
        <time>2000-01-01T09:40:56.000Z</time>
      </trkpt>
      <trkpt lat="45.18082" lon="5.96613">
        <ele>2061</ele>
        <time>2000-01-01T09:41:06.000Z</time>
      </trkpt>
      <trkpt lat="45.18091" lon="5.96621">
        <ele>2061</ele>
        <time>2000-01-01T09:41:16.000Z</time>
      </trkpt>
      <trkpt lat="45.18093" lon="5.96622">
        <ele>2061.8</ele>
        <time>2000-01-01T09:41:26.000Z</time>
      </trkpt>
      <trkpt lat="45.1811" lon="5.96626">
        <ele>2052</ele>
        <time>2000-01-01T09:41:36.000Z</time>
      </trkpt>
      <trkpt lat="45.18124" lon="5.96636">
        <ele>2055.7</ele>
        <time>2000-01-01T09:41:46.000Z</time>
      </trkpt>
      <trkpt lat="45.18132" lon="5.96637">
        <ele>2048</ele>
        <time>2000-01-01T09:41:56.000Z</time>
      </trkpt>
      <trkpt lat="45.18139" lon="5.96639">
        <ele>2050</ele>
        <time>2000-01-01T09:42:06.000Z</time>
      </trkpt>
      <trkpt lat="45.18145" lon="5.96632">
        <ele>2043.1</ele>
        <time>2000-01-01T09:42:16.000Z</time>
      </trkpt>
      <trkpt lat="45.1815" lon="5.96628">
        <ele>2040</ele>
        <time>2000-01-01T09:42:26.000Z</time>
      </trkpt>
      <trkpt lat="45.18155" lon="5.96627">
        <ele>2035.8</ele>
        <time>2000-01-01T09:42:36.000Z</time>
      </trkpt>
      <trkpt lat="45.18163" lon="5.96627">
        <ele>2031.9</ele>
        <time>2000-01-01T09:42:46.000Z</time>
      </trkpt>
      <trkpt lat="45.1817" lon="5.96628">
        <ele>2026</ele>
        <time>2000-01-01T09:42:56.000Z</time>
      </trkpt>
      <trkpt lat="45.18174" lon="5.9663">
        <ele>2026.5</ele>
        <time>2000-01-01T09:43:06.000Z</time>
      </trkpt>
      <trkpt lat="45.18185" lon="5.96633">
        <ele>2020.4</ele>
        <time>2000-01-01T09:43:16.000Z</time>
      </trkpt>
      <trkpt lat="45.18186" lon="5.9663">
        <ele>2018.8</ele>
        <time>2000-01-01T09:43:26.000Z</time>
      </trkpt>
      <trkpt lat="45.18187" lon="5.96629">
        <ele>2019</ele>
        <time>2000-01-01T09:43:36.000Z</time>
      </trkpt>
      <trkpt lat="45.18196" lon="5.96635">
        <ele>2013.6</ele>
        <time>2000-01-01T09:43:46.000Z</time>
      </trkpt>
      <trkpt lat="45.18203" lon="5.96641">
        <ele>2009.7</ele>
        <time>2000-01-01T09:43:56.000Z</time>
      </trkpt>
      <trkpt lat="45.18211" lon="5.96653">
        <ele>2005</ele>
        <time>2000-01-01T09:44:06.000Z</time>
      </trkpt>
      <trkpt lat="45.18216" lon="5.96661">
        <ele>2004.3</ele>
        <time>2000-01-01T09:44:16.000Z</time>
      </trkpt>
      <trkpt lat="45.18224" lon="5.96684">
        <ele>2005</ele>
        <time>2000-01-01T09:44:26.000Z</time>
      </trkpt>
      <trkpt lat="45.18229" lon="5.96693">
        <ele>2003.2</ele>
        <time>2000-01-01T09:44:36.000Z</time>
      </trkpt>
      <trkpt lat="45.18234" lon="5.967">
        <ele>2003.1</ele>
        <time>2000-01-01T09:44:46.000Z</time>
      </trkpt>
      <trkpt lat="45.18242" lon="5.96709">
        <ele>1997</ele>
        <time>2000-01-01T09:44:56.000Z</time>
      </trkpt>
      <trkpt lat="45.18252" lon="5.96714">
        <ele>1998.1</ele>
        <time>2000-01-01T09:45:06.000Z</time>
      </trkpt>
      <trkpt lat="45.18255" lon="5.96713">
        <ele>1996.1</ele>
        <time>2000-01-01T09:45:16.000Z</time>
      </trkpt>
      <trkpt lat="45.18255" lon="5.9671">
        <ele>1994.7</ele>
        <time>2000-01-01T09:45:26.000Z</time>
      </trkpt>
      <trkpt lat="45.18254" lon="5.96706">
        <ele>1993.4</ele>
        <time>2000-01-01T09:45:36.000Z</time>
      </trkpt>
      <trkpt lat="45.1826" lon="5.96704">
        <ele>1987</ele>
        <time>2000-01-01T09:45:46.000Z</time>
      </trkpt>
      <trkpt lat="45.1826" lon="5.96702">
        <ele>1988.7</ele>
        <time>2000-01-01T09:45:56.000Z</time>
      </trkpt>
      <trkpt lat="45.18257" lon="5.96699">
        <ele>1988.8</ele>
        <time>2000-01-01T09:46:06.000Z</time>
      </trkpt>
      <trkpt lat="45.18257" lon="5.96696">
        <ele>1987.4</ele>
        <time>2000-01-01T09:46:16.000Z</time>
      </trkpt>
      <trkpt lat="45.1826" lon="5.96693">
        <ele>1984.8</ele>
        <time>2000-01-01T09:46:26.000Z</time>
      </trkpt>
      <trkpt lat="45.18265" lon="5.96691">
        <ele>1981.6</ele>
        <time>2000-01-01T09:46:36.000Z</time>
      </trkpt>
      <trkpt lat="45.18267" lon="5.96688">
        <ele>1979.4</ele>
        <time>2000-01-01T09:46:46.000Z</time>
      </trkpt>
      <trkpt lat="45.18267" lon="5.96686">
        <ele>1979</ele>
        <time>2000-01-01T09:46:56.000Z</time>
      </trkpt>
      <trkpt lat="45.18268" lon="5.96682">
        <ele>1976.5</ele>
        <time>2000-01-01T09:47:06.000Z</time>
      </trkpt>
      <trkpt lat="45.18265" lon="5.96673">
        <ele>1974.4</ele>
        <time>2000-01-01T09:47:16.000Z</time>
      </trkpt>
      <trkpt lat="45.18262" lon="5.96669">
        <ele>1974.4</ele>
        <time>2000-01-01T09:47:26.000Z</time>
      </trkpt>
      <trkpt lat="45.1826" lon="5.96665">
        <ele>1974</ele>
        <time>2000-01-01T09:47:36.000Z</time>
      </trkpt>
      <trkpt lat="45.18257" lon="5.96662">
        <ele>1977</ele>
        <time>2000-01-01T09:47:46.000Z</time>
      </trkpt>
      <trkpt lat="45.18255" lon="5.96656">
        <ele>1973.7</ele>
        <time>2000-01-01T09:47:56.000Z</time>
      </trkpt>
      <trkpt lat="45.18253" lon="5.96655">
        <ele>1974.5</ele>
        <time>2000-01-01T09:48:06.000Z</time>
      </trkpt>
      <trkpt lat="45.18253" lon="5.96653">
        <ele>1973.8</ele>
        <time>2000-01-01T09:48:16.000Z</time>
      </trkpt>
      <trkpt lat="45.1825" lon="5.96646">
        <ele>1973.3</ele>
        <time>2000-01-01T09:48:26.000Z</time>
      </trkpt>
      <trkpt lat="45.1825" lon="5.96642">
        <ele>1972</ele>
        <time>2000-01-01T09:48:36.000Z</time>
      </trkpt>
      <trkpt lat="45.18249" lon="5.96636">
        <ele>1973</ele>
        <time>2000-01-01T09:48:46.000Z</time>
      </trkpt>
      <trkpt lat="45.18245" lon="5.96622">
        <ele>1968.1</ele>
        <time>2000-01-01T09:48:56.000Z</time>
      </trkpt>
      <trkpt lat="45.18265" lon="5.96619">
        <ele>1952</ele>
        <time>2000-01-01T09:49:06.000Z</time>
      </trkpt>
      <trkpt lat="45.18286" lon="5.96617">
        <ele>1940</ele>
        <time>2000-01-01T09:49:16.000Z</time>
      </trkpt>
      <trkpt lat="45.183" lon="5.96619">
        <ele>1936.2</ele>
        <time>2000-01-01T09:49:26.000Z</time>
      </trkpt>
      <trkpt lat="45.18303" lon="5.96624">
        <ele>1936.7</ele>
        <time>2000-01-01T09:49:36.000Z</time>
      </trkpt>
      <trkpt lat="45.18308" lon="5.96636">
        <ele>1940</ele>
        <time>2000-01-01T09:49:46.000Z</time>
      </trkpt>
      <trkpt lat="45.18312" lon="5.96641">
        <ele>1938</ele>
        <time>2000-01-01T09:49:56.000Z</time>
      </trkpt>
      <trkpt lat="45.18323" lon="5.96651">
        <ele>1934.9</ele>
        <time>2000-01-01T09:50:06.000Z</time>
      </trkpt>
      <trkpt lat="45.18328" lon="5.96662">
        <ele>1934</ele>
        <time>2000-01-01T09:50:16.000Z</time>
      </trkpt>
      <trkpt lat="45.18346" lon="5.96666">
        <ele>1928.2</ele>
        <time>2000-01-01T09:50:26.000Z</time>
      </trkpt>
      <trkpt lat="45.18351" lon="5.9667">
        <ele>1928</ele>
        <time>2000-01-01T09:50:36.000Z</time>
      </trkpt>
      <trkpt lat="45.18359" lon="5.96672">
        <ele>1925.9</ele>
        <time>2000-01-01T09:50:46.000Z</time>
      </trkpt>
      <trkpt lat="45.18368" lon="5.96677">
        <ele>1923.8</ele>
        <time>2000-01-01T09:50:56.000Z</time>
      </trkpt>
      <trkpt lat="45.18372" lon="5.96678">
        <ele>1921</ele>
        <time>2000-01-01T09:51:06.000Z</time>
      </trkpt>
      <trkpt lat="45.18379" lon="5.96675">
        <ele>1917.7</ele>
        <time>2000-01-01T09:51:16.000Z</time>
      </trkpt>
      <trkpt lat="45.18394" lon="5.96675">
        <ele>1916</ele>
        <time>2000-01-01T09:51:26.000Z</time>
      </trkpt>
      <trkpt lat="45.184" lon="5.96677">
        <ele>1907.2</ele>
        <time>2000-01-01T09:51:36.000Z</time>
      </trkpt>
      <trkpt lat="45.18403" lon="5.96681">
        <ele>1907.3</ele>
        <time>2000-01-01T09:51:46.000Z</time>
      </trkpt>
      <trkpt lat="45.18405" lon="5.96694">
        <ele>1912</ele>
        <time>2000-01-01T09:51:56.000Z</time>
      </trkpt>
      <trkpt lat="45.18405" lon="5.96702">
        <ele>1915.6</ele>
        <time>2000-01-01T09:52:06.000Z</time>
      </trkpt>
      <trkpt lat="45.18408" lon="5.96706">
        <ele>1915.6</ele>
        <time>2000-01-01T09:52:16.000Z</time>
      </trkpt>
      <trkpt lat="45.18419" lon="5.96698">
        <ele>1907</ele>
        <time>2000-01-01T09:52:26.000Z</time>
      </trkpt>
      <trkpt lat="45.18428" lon="5.967">
        <ele>1905.1</ele>
        <time>2000-01-01T09:52:36.000Z</time>
      </trkpt>
      <trkpt lat="45.18434" lon="5.967">
        <ele>1903.2</ele>
        <time>2000-01-01T09:52:46.000Z</time>
      </trkpt>
      <trkpt lat="45.18441" lon="5.96701">
        <ele>1901</ele>
        <time>2000-01-01T09:52:56.000Z</time>
      </trkpt>
      <trkpt lat="45.18448" lon="5.96699">
        <ele>1899.1</ele>
        <time>2000-01-01T09:53:06.000Z</time>
      </trkpt>
      <trkpt lat="45.18458" lon="5.96692">
        <ele>1894.1</ele>
        <time>2000-01-01T09:53:16.000Z</time>
      </trkpt>
      <trkpt lat="45.18474" lon="5.96685">
        <ele>1885</ele>
        <time>2000-01-01T09:53:26.000Z</time>
      </trkpt>
      <trkpt lat="45.18486" lon="5.96684">
        <ele>1888.5</ele>
        <time>2000-01-01T09:53:36.000Z</time>
      </trkpt>
      <trkpt lat="45.18502" lon="5.96681">
        <ele>1885</ele>
        <time>2000-01-01T09:53:46.000Z</time>
      </trkpt>
      <trkpt lat="45.18511" lon="5.96683">
        <ele>1889.5</ele>
        <time>2000-01-01T09:53:56.000Z</time>
      </trkpt>
      <trkpt lat="45.18514" lon="5.96674">
        <ele>1882.7</ele>
        <time>2000-01-01T09:54:06.000Z</time>
      </trkpt>
      <trkpt lat="45.18527" lon="5.96664">
        <ele>1871</ele>
        <time>2000-01-01T09:54:16.000Z</time>
      </trkpt>
      <trkpt lat="45.18531" lon="5.96656">
        <ele>1870.4</ele>
        <time>2000-01-01T09:54:26.000Z</time>
      </trkpt>
      <trkpt lat="45.18558" lon="5.96639">
        <ele>1854</ele>
        <time>2000-01-01T09:54:36.000Z</time>
      </trkpt>
      <trkpt lat="45.18568" lon="5.96634">
        <ele>1861.3</ele>
        <time>2000-01-01T09:54:46.000Z</time>
      </trkpt>
      <trkpt lat="45.18575" lon="5.96629">
        <ele>1859.7</ele>
        <time>2000-01-01T09:54:56.000Z</time>
      </trkpt>
      <trkpt lat="45.18577" lon="5.96619">
        <ele>1848</ele>
        <time>2000-01-01T09:55:06.000Z</time>
      </trkpt>
      <trkpt lat="45.18576" lon="5.96611">
        <ele>1849.4</ele>
        <time>2000-01-01T09:55:16.000Z</time>
      </trkpt>
      <trkpt lat="45.18575" lon="5.96608">
        <ele>1847.6</ele>
        <time>2000-01-01T09:55:26.000Z</time>
      </trkpt>
      <trkpt lat="45.18576" lon="5.96605">
        <ele>1846.3</ele>
        <time>2000-01-01T09:55:36.000Z</time>
      </trkpt>
      <trkpt lat="45.1858" lon="5.96602">
        <ele>1845.6</ele>
        <time>2000-01-01T09:55:46.000Z</time>
      </trkpt>
      <trkpt lat="45.18579" lon="5.96598">
        <ele>1843.4</ele>
        <time>2000-01-01T09:55:56.000Z</time>
      </trkpt>
      <trkpt lat="45.1858" lon="5.96591">
        <ele>1839</ele>
        <time>2000-01-01T09:56:06.000Z</time>
      </trkpt>
      <trkpt lat="45.18586" lon="5.96576">
        <ele>1833.7</ele>
        <time>2000-01-01T09:56:16.000Z</time>
      </trkpt>
      <trkpt lat="45.1858" lon="5.96574">
        <ele>1831.2</ele>
        <time>2000-01-01T09:56:26.000Z</time>
      </trkpt>
      <trkpt lat="45.18578" lon="5.96572">
        <ele>1826</ele>
        <time>2000-01-01T09:56:36.000Z</time>
      </trkpt>
      <trkpt lat="45.18584" lon="5.96565">
        <ele>1827.3</ele>
        <time>2000-01-01T09:56:46.000Z</time>
      </trkpt>
      <trkpt lat="45.18576" lon="5.9656">
        <ele>1822.8</ele>
        <time>2000-01-01T09:56:56.000Z</time>
      </trkpt>
      <trkpt lat="45.18584" lon="5.96549">
        <ele>1812</ele>
        <time>2000-01-01T09:57:06.000Z</time>
      </trkpt>
      <trkpt lat="45.18589" lon="5.96544">
        <ele>1817.4</ele>
        <time>2000-01-01T09:57:16.000Z</time>
      </trkpt>
      <trkpt lat="45.18587" lon="5.96541">
        <ele>1815.4</ele>
        <time>2000-01-01T09:57:26.000Z</time>
      </trkpt>
      <trkpt lat="45.18587" lon="5.96539">
        <ele>1814.4</ele>
        <time>2000-01-01T09:57:36.000Z</time>
      </trkpt>
      <trkpt lat="45.18607" lon="5.96527">
        <ele>1805</ele>
        <time>2000-01-01T09:57:46.000Z</time>
      </trkpt>
      <trkpt lat="45.18605" lon="5.96523">
        <ele>1809</ele>
        <time>2000-01-01T09:57:56.000Z</time>
      </trkpt>
      <trkpt lat="45.18604" lon="5.96519">
        <ele>1806.4</ele>
        <time>2000-01-01T09:58:06.000Z</time>
      </trkpt>
      <trkpt lat="45.18609" lon="5.96516">
        <ele>1805.1</ele>
        <time>2000-01-01T09:58:16.000Z</time>
      </trkpt>
      <trkpt lat="45.18607" lon="5.96512">
        <ele>1802.4</ele>
        <time>2000-01-01T09:58:26.000Z</time>
      </trkpt>
      <trkpt lat="45.18608" lon="5.96511">
        <ele>1801.8</ele>
        <time>2000-01-01T09:58:36.000Z</time>
      </trkpt>
      <trkpt lat="45.18607" lon="5.96508">
        <ele>1799.9</ele>
        <time>2000-01-01T09:58:46.000Z</time>
      </trkpt>
      <trkpt lat="45.18607" lon="5.96506">
        <ele>1794</ele>
        <time>2000-01-01T09:58:56.000Z</time>
      </trkpt>
      <trkpt lat="45.18631" lon="5.96481">
        <ele>1789</ele>
        <time>2000-01-01T09:59:06.000Z</time>
      </trkpt>
      <trkpt lat="45.18634" lon="5.96472">
        <ele>1786.6</ele>
        <time>2000-01-01T09:59:16.000Z</time>
      </trkpt>
      <trkpt lat="45.18642" lon="5.96455">
        <ele>1773</ele>
        <time>2000-01-01T09:59:26.000Z</time>
      </trkpt>
      <trkpt lat="45.18656" lon="5.96447">
        <ele>1775.5</ele>
        <time>2000-01-01T09:59:36.000Z</time>
      </trkpt>
      <trkpt lat="45.18667" lon="5.96437">
        <ele>1764</ele>
        <time>2000-01-01T09:59:46.000Z</time>
      </trkpt>
      <trkpt lat="45.18674" lon="5.96423">
        <ele>1766.3</ele>
        <time>2000-01-01T09:59:56.000Z</time>
      </trkpt>
      <trkpt lat="45.18678" lon="5.96404">
        <ele>1753</ele>
        <time>2000-01-01T10:00:06.000Z</time>
      </trkpt>
      <trkpt lat="45.18682" lon="5.96388">
        <ele>1752.2</ele>
        <time>2000-01-01T10:00:16.000Z</time>
      </trkpt>
      <trkpt lat="45.18687" lon="5.96377">
        <ele>1741</ele>
        <time>2000-01-01T10:00:26.000Z</time>
      </trkpt>
      <trkpt lat="45.18691" lon="5.96363">
        <ele>1742.6</ele>
        <time>2000-01-01T10:00:36.000Z</time>
      </trkpt>
      <trkpt lat="45.18687" lon="5.96343">
        <ele>1726</ele>
        <time>2000-01-01T10:00:46.000Z</time>
      </trkpt>
      <trkpt lat="45.18674" lon="5.96334">
        <ele>1722.4</ele>
        <time>2000-01-01T10:00:56.000Z</time>
      </trkpt>
      <trkpt lat="45.18692" lon="5.96305">
        <ele>1711</ele>
        <time>2000-01-01T10:01:06.000Z</time>
      </trkpt>
      <trkpt lat="45.18701" lon="5.96293">
        <ele>1711.8</ele>
        <time>2000-01-01T10:01:16.000Z</time>
      </trkpt>
      <trkpt lat="45.18701" lon="5.96291">
        <ele>1711</ele>
        <time>2000-01-01T10:01:26.000Z</time>
      </trkpt>
      <trkpt lat="45.18686" lon="5.96288">
        <ele>1701</ele>
        <time>2000-01-01T10:01:36.000Z</time>
      </trkpt>
      <trkpt lat="45.18675" lon="5.96278">
        <ele>1700.6</ele>
        <time>2000-01-01T10:01:46.000Z</time>
      </trkpt>
      <trkpt lat="45.18668" lon="5.96261">
        <ele>1694</ele>
        <time>2000-01-01T10:01:56.000Z</time>
      </trkpt>
      <trkpt lat="45.18665" lon="5.96244">
        <ele>1692</ele>
        <time>2000-01-01T10:02:06.000Z</time>
      </trkpt>
      <trkpt lat="45.18663" lon="5.96236">
        <ele>1690.7</ele>
        <time>2000-01-01T10:02:16.000Z</time>
      </trkpt>
      <trkpt lat="45.18662" lon="5.9622">
        <ele>1687</ele>
        <time>2000-01-01T10:02:26.000Z</time>
      </trkpt>
      <trkpt lat="45.18667" lon="5.96202">
        <ele>1684.4</ele>
        <time>2000-01-01T10:02:36.000Z</time>
      </trkpt>
      <trkpt lat="45.18676" lon="5.96185">
        <ele>1680</ele>
        <time>2000-01-01T10:02:46.000Z</time>
      </trkpt>
      <trkpt lat="45.18678" lon="5.96174">
        <ele>1679.4</ele>
        <time>2000-01-01T10:02:56.000Z</time>
      </trkpt>
      <trkpt lat="45.18677" lon="5.96161">
        <ele>1677</ele>
        <time>2000-01-01T10:03:06.000Z</time>
      </trkpt>
      <trkpt lat="45.1867" lon="5.96148">
        <ele>1673</ele>
        <time>2000-01-01T10:03:16.000Z</time>
      </trkpt>
      <trkpt lat="45.18665" lon="5.96147">
        <ele>1676.4</ele>
        <time>2000-01-01T10:03:26.000Z</time>
      </trkpt>
      <trkpt lat="45.18664" lon="5.96149">
        <ele>1676.9</ele>
        <time>2000-01-01T10:03:36.000Z</time>
      </trkpt>
      <trkpt lat="45.18665" lon="5.96147">
        <ele>1676.4</ele>
        <time>2000-01-01T10:03:46.000Z</time>
      </trkpt>
      <trkpt lat="45.1867" lon="5.96148">
        <ele>1675.6</ele>
        <time>2000-01-01T10:03:56.000Z</time>
      </trkpt>
      <trkpt lat="45.18676" lon="5.96131">
        <ele>1672</ele>
        <time>2000-01-01T10:04:06.000Z</time>
      </trkpt>
      <trkpt lat="45.18676" lon="5.96122">
        <ele>1671.7</ele>
        <time>2000-01-01T10:04:16.000Z</time>
      </trkpt>
      <trkpt lat="45.18679" lon="5.96117">
        <ele>1670.2</ele>
        <time>2000-01-01T10:04:26.000Z</time>
      </trkpt>
      <trkpt lat="45.18688" lon="5.96109">
        <ele>1670</ele>
        <time>2000-01-01T10:04:36.000Z</time>
      </trkpt>
      <trkpt lat="45.18692" lon="5.96102">
        <ele>1665.2</ele>
        <time>2000-01-01T10:04:46.000Z</time>
      </trkpt>
      <trkpt lat="45.18701" lon="5.96093">
        <ele>1662.7</ele>
        <time>2000-01-01T10:04:56.000Z</time>
      </trkpt>
      <trkpt lat="45.18704" lon="5.96087">
        <ele>1663</ele>
        <time>2000-01-01T10:05:06.000Z</time>
      </trkpt>
      <trkpt lat="45.18707" lon="5.96074">
        <ele>1660.1</ele>
        <time>2000-01-01T10:05:16.000Z</time>
      </trkpt>
      <trkpt lat="45.1871" lon="5.96065">
        <ele>1658.9</ele>
        <time>2000-01-01T10:05:26.000Z</time>
      </trkpt>
      <trkpt lat="45.18714" lon="5.96057">
        <ele>1657</ele>
        <time>2000-01-01T10:05:36.000Z</time>
      </trkpt>
      <trkpt lat="45.18721" lon="5.96038">
        <ele>1653.1</ele>
        <time>2000-01-01T10:05:46.000Z</time>
      </trkpt>
      <trkpt lat="45.18721" lon="5.96022">
        <ele>1649</ele>
        <time>2000-01-01T10:05:56.000Z</time>
      </trkpt>
      <trkpt lat="45.18723" lon="5.9601">
        <ele>1648.3</ele>
        <time>2000-01-01T10:06:06.000Z</time>
      </trkpt>
      <trkpt lat="45.1873" lon="5.95997">
        <ele>1645</ele>
        <time>2000-01-01T10:06:16.000Z</time>
      </trkpt>
      <trkpt lat="45.18746" lon="5.95978">
        <ele>1640</ele>
        <time>2000-01-01T10:06:26.000Z</time>
      </trkpt>
      <trkpt lat="45.18751" lon="5.9597">
        <ele>1637.6</ele>
        <time>2000-01-01T10:06:36.000Z</time>
      </trkpt>
      <trkpt lat="45.18753" lon="5.95964">
        <ele>1636.7</ele>
        <time>2000-01-01T10:06:46.000Z</time>
      </trkpt>
      <trkpt lat="45.18753" lon="5.95958">
        <ele>1636.2</ele>
        <time>2000-01-01T10:06:56.000Z</time>
      </trkpt>
      <trkpt lat="45.18749" lon="5.95934">
        <ele>1638</ele>
        <time>2000-01-01T10:07:06.000Z</time>
      </trkpt>
      <trkpt lat="45.1875" lon="5.95926">
        <ele>1634.7</ele>
        <time>2000-01-01T10:07:16.000Z</time>
      </trkpt>
      <trkpt lat="45.18755" lon="5.95905">
        <ele>1632</ele>
        <time>2000-01-01T10:07:26.000Z</time>
      </trkpt>
      <trkpt lat="45.1876" lon="5.95895">
        <ele>1628.3</ele>
        <time>2000-01-01T10:07:36.000Z</time>
      </trkpt>
      <trkpt lat="45.18765" lon="5.95882">
        <ele>1627</ele>
        <time>2000-01-01T10:07:46.000Z</time>
      </trkpt>
      <trkpt lat="45.18766" lon="5.95874">
        <ele>1623.7</ele>
        <time>2000-01-01T10:07:56.000Z</time>
      </trkpt>
      <trkpt lat="45.18768" lon="5.95869">
        <ele>1622.3</ele>
        <time>2000-01-01T10:08:06.000Z</time>
      </trkpt>
      <trkpt lat="45.18782" lon="5.9586">
        <ele>1614</ele>
        <time>2000-01-01T10:08:16.000Z</time>
      </trkpt>
      <trkpt lat="45.18793" lon="5.95852">
        <ele>1607.8</ele>
        <time>2000-01-01T10:08:26.000Z</time>
      </trkpt>
      <trkpt lat="45.18793" lon="5.95846">
        <ele>1606.9</ele>
        <time>2000-01-01T10:08:36.000Z</time>
      </trkpt>
      <trkpt lat="45.18794" lon="5.95842">
        <ele>1607</ele>
        <time>2000-01-01T10:08:46.000Z</time>
      </trkpt>
      <trkpt lat="45.18802" lon="5.95842">
        <ele>1601.4</ele>
        <time>2000-01-01T10:08:56.000Z</time>
      </trkpt>
      <trkpt lat="45.18803" lon="5.95838">
        <ele>1600.2</ele>
        <time>2000-01-01T10:09:06.000Z</time>
      </trkpt>
      <trkpt lat="45.18809" lon="5.95838">
        <ele>1597.1</ele>
        <time>2000-01-01T10:09:16.000Z</time>
      </trkpt>
      <trkpt lat="45.18812" lon="5.95831">
        <ele>1594</ele>
        <time>2000-01-01T10:09:26.000Z</time>
      </trkpt>
      <trkpt lat="45.18813" lon="5.95825">
        <ele>1592.7</ele>
        <time>2000-01-01T10:09:36.000Z</time>
      </trkpt>
      <trkpt lat="45.18812" lon="5.9582">
        <ele>1592.2</ele>
        <time>2000-01-01T10:09:46.000Z</time>
      </trkpt>
      <trkpt lat="45.18823" lon="5.95808">
        <ele>1583</ele>
        <time>2000-01-01T10:09:56.000Z</time>
      </trkpt>
      <trkpt lat="45.18823" lon="5.95781">
        <ele>1583</ele>
        <time>2000-01-01T10:10:06.000Z</time>
      </trkpt>
      <trkpt lat="45.18828" lon="5.95753">
        <ele>1583</ele>
        <time>2000-01-01T10:10:16.000Z</time>
      </trkpt>
      <trkpt lat="45.18832" lon="5.9574">
        <ele>1578.9</ele>
        <time>2000-01-01T10:10:26.000Z</time>
      </trkpt>
      <trkpt lat="45.18839" lon="5.95727">
        <ele>1575</ele>
        <time>2000-01-01T10:10:36.000Z</time>
      </trkpt>
      <trkpt lat="45.18847" lon="5.95721">
        <ele>1573.9</ele>
        <time>2000-01-01T10:10:46.000Z</time>
      </trkpt>
      <trkpt lat="45.18852" lon="5.95715">
        <ele>1572.2</ele>
        <time>2000-01-01T10:10:56.000Z</time>
      </trkpt>
      <trkpt lat="45.18871" lon="5.95686">
        <ele>1567</ele>
        <time>2000-01-01T10:11:06.000Z</time>
      </trkpt>
      <trkpt lat="45.18877" lon="5.95679">
        <ele>1565.2</ele>
        <time>2000-01-01T10:11:16.000Z</time>
      </trkpt>
      <trkpt lat="45.18884" lon="5.95674">
        <ele>1562.4</ele>
        <time>2000-01-01T10:11:26.000Z</time>
      </trkpt>
      <trkpt lat="45.18914" lon="5.95645">
        <ele>1553</ele>
        <time>2000-01-01T10:11:36.000Z</time>
      </trkpt>
      <trkpt lat="45.18941" lon="5.95622">
        <ele>1536</ele>
        <time>2000-01-01T10:11:46.000Z</time>
      </trkpt>
      <trkpt lat="45.18958" lon="5.9561">
        <ele>1529.1</ele>
        <time>2000-01-01T10:11:56.000Z</time>
      </trkpt>
      <trkpt lat="45.18965" lon="5.95609">
        <ele>1533</ele>
        <time>2000-01-01T10:12:06.000Z</time>
      </trkpt>
      <trkpt lat="45.18977" lon="5.9561">
        <ele>1518.8</ele>
        <time>2000-01-01T10:12:16.000Z</time>
      </trkpt>
      <trkpt lat="45.18988" lon="5.956">
        <ele>1521</ele>
        <time>2000-01-01T10:12:26.000Z</time>
      </trkpt>
      <trkpt lat="45.18998" lon="5.95592">
        <ele>1512.6</ele>
        <time>2000-01-01T10:12:36.000Z</time>
      </trkpt>
      <trkpt lat="45.19008" lon="5.95591">
        <ele>1511</ele>
        <time>2000-01-01T10:12:46.000Z</time>
      </trkpt>
      <trkpt lat="45.19017" lon="5.95578">
        <ele>1506.1</ele>
        <time>2000-01-01T10:12:56.000Z</time>
      </trkpt>
      <trkpt lat="45.19022" lon="5.95569">
        <ele>1509</ele>
        <time>2000-01-01T10:13:06.000Z</time>
      </trkpt>
      <trkpt lat="45.19028" lon="5.95564">
        <ele>1503</ele>
        <time>2000-01-01T10:13:16.000Z</time>
      </trkpt>
      <trkpt lat="45.19036" lon="5.95565">
        <ele>1498.2</ele>
        <time>2000-01-01T10:13:26.000Z</time>
      </trkpt>
      <trkpt lat="45.19071" lon="5.95503">
        <ele>1493</ele>
        <time>2000-01-01T10:13:36.000Z</time>
      </trkpt>
      <trkpt lat="45.19095" lon="5.95477">
        <ele>1490</ele>
        <time>2000-01-01T10:13:46.000Z</time>
      </trkpt>
      <trkpt lat="45.19122" lon="5.95449">
        <ele>1488</ele>
        <time>2000-01-01T10:13:56.000Z</time>
      </trkpt>
      <trkpt lat="45.19154" lon="5.95403">
        <ele>1486</ele>
        <time>2000-01-01T10:14:06.000Z</time>
      </trkpt>
      <trkpt lat="45.19182" lon="5.95392">
        <ele>1474</ele>
        <time>2000-01-01T10:14:16.000Z</time>
      </trkpt>
      <trkpt lat="45.19227" lon="5.95374">
        <ele>1471</ele>
        <time>2000-01-01T10:14:26.000Z</time>
      </trkpt>
      <trkpt lat="45.19241" lon="5.95375">
        <ele>1467.3</ele>
        <time>2000-01-01T10:14:36.000Z</time>
      </trkpt>
      <trkpt lat="45.19277" lon="5.95389">
        <ele>1462</ele>
        <time>2000-01-01T10:14:46.000Z</time>
      </trkpt>
      <trkpt lat="45.19298" lon="5.95403">
        <ele>1449</ele>
        <time>2000-01-01T10:14:56.000Z</time>
      </trkpt>
      <trkpt lat="45.19338" lon="5.95419">
        <ele>1444</ele>
        <time>2000-01-01T10:15:06.000Z</time>
      </trkpt>
      <trkpt lat="45.19365" lon="5.95441">
        <ele>1428</ele>
        <time>2000-01-01T10:15:16.000Z</time>
      </trkpt>
      <trkpt lat="45.19404" lon="5.95463">
        <ele>1418</ele>
        <time>2000-01-01T10:15:26.000Z</time>
      </trkpt>
      <trkpt lat="45.19431" lon="5.95507">
        <ele>1397</ele>
        <time>2000-01-01T10:15:36.000Z</time>
      </trkpt>
      <trkpt lat="45.19451" lon="5.95518">
        <ele>1389</ele>
        <time>2000-01-01T10:15:46.000Z</time>
      </trkpt>
      <trkpt lat="45.19468" lon="5.95515">
        <ele>1381.2</ele>
        <time>2000-01-01T10:15:56.000Z</time>
      </trkpt>
      <trkpt lat="45.19498" lon="5.95532">
        <ele>1365</ele>
        <time>2000-01-01T10:16:06.000Z</time>
      </trkpt>
      <trkpt lat="45.19511" lon="5.95541">
        <ele>1350.6</ele>
        <time>2000-01-01T10:16:16.000Z</time>
      </trkpt>
      <trkpt lat="45.19518" lon="5.95552">
        <ele>1361</ele>
        <time>2000-01-01T10:16:26.000Z</time>
      </trkpt>
      <trkpt lat="45.19524" lon="5.95552">
        <ele>1338.7</ele>
        <time>2000-01-01T10:16:36.000Z</time>
      </trkpt>
      <trkpt lat="45.19528" lon="5.95544">
        <ele>1340.3</ele>
        <time>2000-01-01T10:16:46.000Z</time>
      </trkpt>
      <trkpt lat="45.19537" lon="5.95518">
        <ele>1365</ele>
        <time>2000-01-01T10:16:56.000Z</time>
      </trkpt>
      <trkpt lat="45.1954" lon="5.95483">
        <ele>1369</ele>
        <time>2000-01-01T10:17:06.000Z</time>
      </trkpt>
      <trkpt lat="45.19534" lon="5.95438">
        <ele>1404</ele>
        <time>2000-01-01T10:17:16.000Z</time>
      </trkpt>
      <trkpt lat="45.19534" lon="5.95404">
        <ele>1408</ele>
        <time>2000-01-01T10:17:26.000Z</time>
      </trkpt>
      <trkpt lat="45.19539" lon="5.95394">
        <ele>1423.4</ele>
        <time>2000-01-01T10:17:36.000Z</time>
      </trkpt>
      <trkpt lat="45.19575" lon="5.95399">
        <ele>1412</ele>
        <time>2000-01-01T10:17:46.000Z</time>
      </trkpt>
      <trkpt lat="45.19601" lon="5.95361">
        <ele>1413</ele>
        <time>2000-01-01T10:17:56.000Z</time>
      </trkpt>
      <trkpt lat="45.19608" lon="5.95321">
        <ele>1434</ele>
        <time>2000-01-01T10:18:06.000Z</time>
      </trkpt>
      <trkpt lat="45.19612" lon="5.9529">
        <ele>1435</ele>
        <time>2000-01-01T10:18:16.000Z</time>
      </trkpt>
      <trkpt lat="45.1963" lon="5.95255">
        <ele>1435</ele>
        <time>2000-01-01T10:18:26.000Z</time>
      </trkpt>
      <trkpt lat="45.19645" lon="5.95224">
        <ele>1435</ele>
        <time>2000-01-01T10:18:36.000Z</time>
      </trkpt>
      <trkpt lat="45.19663" lon="5.95186">
        <ele>1419</ele>
        <time>2000-01-01T10:18:46.000Z</time>
      </trkpt>
      <trkpt lat="45.19663" lon="5.95126">
        <ele>1419</ele>
        <time>2000-01-01T10:18:56.000Z</time>
      </trkpt>
      <trkpt lat="45.19655" lon="5.95094">
        <ele>1427</ele>
        <time>2000-01-01T10:19:06.000Z</time>
      </trkpt>
      <trkpt lat="45.19648" lon="5.95053">
        <ele>1427</ele>
        <time>2000-01-01T10:19:16.000Z</time>
      </trkpt>
      <trkpt lat="45.19641" lon="5.95021">
        <ele>1428</ele>
        <time>2000-01-01T10:19:26.000Z</time>
      </trkpt>
      <trkpt lat="45.19645" lon="5.94987">
        <ele>1428</ele>
        <time>2000-01-01T10:19:36.000Z</time>
      </trkpt>
      <trkpt lat="45.19649" lon="5.9495">
        <ele>1425</ele>
        <time>2000-01-01T10:19:46.000Z</time>
      </trkpt>
      <trkpt lat="45.1965" lon="5.94898">
        <ele>1425</ele>
        <time>2000-01-01T10:19:56.000Z</time>
      </trkpt>
      <trkpt lat="45.19649" lon="5.94854">
        <ele>1425</ele>
        <time>2000-01-01T10:20:06.000Z</time>
      </trkpt>
      <trkpt lat="45.19645" lon="5.94798">
        <ele>1418</ele>
        <time>2000-01-01T10:20:16.000Z</time>
      </trkpt>
      <trkpt lat="45.19638" lon="5.94766">
        <ele>1415</ele>
        <time>2000-01-01T10:20:26.000Z</time>
      </trkpt>
      <trkpt lat="45.19627" lon="5.94745">
        <ele>1412.9</ele>
        <time>2000-01-01T10:20:36.000Z</time>
      </trkpt>
      <trkpt lat="45.19618" lon="5.94689">
        <ele>1413</ele>
        <time>2000-01-01T10:20:46.000Z</time>
      </trkpt>
      <trkpt lat="45.19617" lon="5.94637">
        <ele>1411</ele>
        <time>2000-01-01T10:20:56.000Z</time>
      </trkpt>
      <trkpt lat="45.19603" lon="5.94628">
        <ele>1409.5</ele>
        <time>2000-01-01T10:21:06.000Z</time>
      </trkpt>
      <trkpt lat="45.19599" lon="5.94569">
        <ele>1409</ele>
        <time>2000-01-01T10:21:16.000Z</time>
      </trkpt>
      <trkpt lat="45.196" lon="5.94545">
        <ele>1398.7</ele>
        <time>2000-01-01T10:21:26.000Z</time>
      </trkpt>
      <trkpt lat="45.19592" lon="5.94524">
        <ele>1405</ele>
        <time>2000-01-01T10:21:36.000Z</time>
      </trkpt>
      <trkpt lat="45.19593" lon="5.94479">
        <ele>1399</ele>
        <time>2000-01-01T10:21:46.000Z</time>
      </trkpt>
      <trkpt lat="45.19594" lon="5.94442">
        <ele>1398</ele>
        <time>2000-01-01T10:21:56.000Z</time>
      </trkpt>
      <trkpt lat="45.19596" lon="5.94393">
        <ele>1398</ele>
        <time>2000-01-01T10:22:06.000Z</time>
      </trkpt>
      <trkpt lat="45.19608" lon="5.94364">
        <ele>1391</ele>
        <time>2000-01-01T10:22:16.000Z</time>
      </trkpt>
      <trkpt lat="45.1962" lon="5.94334">
        <ele>1390</ele>
        <time>2000-01-01T10:22:26.000Z</time>
      </trkpt>
      <trkpt lat="45.19623" lon="5.94322">
        <ele>1383.5</ele>
        <time>2000-01-01T10:22:36.000Z</time>
      </trkpt>
      <trkpt lat="45.19624" lon="5.94313">
        <ele>1384.6</ele>
        <time>2000-01-01T10:22:46.000Z</time>
      </trkpt>
      <trkpt lat="45.19626" lon="5.94302">
        <ele>1390</ele>
        <time>2000-01-01T10:22:56.000Z</time>
      </trkpt>
      <trkpt lat="45.1963" lon="5.94289">
        <ele>1385.4</ele>
        <time>2000-01-01T10:23:06.000Z</time>
      </trkpt>
      <trkpt lat="45.19661" lon="5.94209">
        <ele>1388</ele>
        <time>2000-01-01T10:23:16.000Z</time>
      </trkpt>
      <trkpt lat="45.19666" lon="5.94191">
        <ele>1379.9</ele>
        <time>2000-01-01T10:23:26.000Z</time>
      </trkpt>
      <trkpt lat="45.19668" lon="5.94167">
        <ele>1387</ele>
        <time>2000-01-01T10:23:36.000Z</time>
      </trkpt>
      <trkpt lat="45.19671" lon="5.94153">
        <ele>1382.5</ele>
        <time>2000-01-01T10:23:46.000Z</time>
      </trkpt>
      <trkpt lat="45.19676" lon="5.9414">
        <ele>1385</ele>
        <time>2000-01-01T10:23:56.000Z</time>
      </trkpt>
      <trkpt lat="45.19693" lon="5.94087">
        <ele>1383</ele>
        <time>2000-01-01T10:24:06.000Z</time>
      </trkpt>
      <trkpt lat="45.19695" lon="5.94079">
        <ele>1375</ele>
        <time>2000-01-01T10:24:16.000Z</time>
      </trkpt>
      <trkpt lat="45.19696" lon="5.94071">
        <ele>1375</ele>
        <time>2000-01-01T10:24:26.000Z</time>
      </trkpt>
      <trkpt lat="45.19696" lon="5.94014">
        <ele>1382</ele>
        <time>2000-01-01T10:24:36.000Z</time>
      </trkpt>
      <trkpt lat="45.19695" lon="5.93984">
        <ele>1385</ele>
        <time>2000-01-01T10:24:46.000Z</time>
      </trkpt>
      <trkpt lat="45.19693" lon="5.93972">
        <ele>1379.1</ele>
        <time>2000-01-01T10:24:56.000Z</time>
      </trkpt>
      <trkpt lat="45.19687" lon="5.9395">
        <ele>1373</ele>
        <time>2000-01-01T10:25:06.000Z</time>
      </trkpt>
      <trkpt lat="45.19685" lon="5.93935">
        <ele>1381.4</ele>
        <time>2000-01-01T10:25:16.000Z</time>
      </trkpt>
      <trkpt lat="45.19656" lon="5.93686">
        <ele>1362</ele>
        <time>2000-01-01T10:25:26.000Z</time>
      </trkpt>
      <trkpt lat="45.19664" lon="5.9363">
        <ele>1351</ele>
        <time>2000-01-01T10:25:36.000Z</time>
      </trkpt>
      <trkpt lat="45.19665" lon="5.93614">
        <ele>1349.8</ele>
        <time>2000-01-01T10:25:46.000Z</time>
      </trkpt>
      <trkpt lat="45.19663" lon="5.93604">
        <ele>1349.6</ele>
        <time>2000-01-01T10:25:56.000Z</time>
      </trkpt>
      <trkpt lat="45.19662" lon="5.93594">
        <ele>1348</ele>
        <time>2000-01-01T10:26:06.000Z</time>
      </trkpt>
      <trkpt lat="45.19662" lon="5.93586">
        <ele>1348.6</ele>
        <time>2000-01-01T10:26:16.000Z</time>
      </trkpt>
      <trkpt lat="45.19663" lon="5.93583">
        <ele>1348</ele>
        <time>2000-01-01T10:26:26.000Z</time>
      </trkpt>
      <trkpt lat="45.19673" lon="5.93534">
        <ele>1343</ele>
        <time>2000-01-01T10:26:36.000Z</time>
      </trkpt>
      <trkpt lat="45.19682" lon="5.935">
        <ele>1341</ele>
        <time>2000-01-01T10:26:46.000Z</time>
      </trkpt>
      <trkpt lat="45.19692" lon="5.93462">
        <ele>1338</ele>
        <time>2000-01-01T10:26:56.000Z</time>
      </trkpt>
      <trkpt lat="45.19696" lon="5.93451">
        <ele>1338.4</ele>
        <time>2000-01-01T10:27:06.000Z</time>
      </trkpt>
      <trkpt lat="45.19701" lon="5.9344">
        <ele>1337.5</ele>
        <time>2000-01-01T10:27:16.000Z</time>
      </trkpt>
      <trkpt lat="45.19706" lon="5.93431">
        <ele>1337</ele>
        <time>2000-01-01T10:27:26.000Z</time>
      </trkpt>
      <trkpt lat="45.19723" lon="5.93395">
        <ele>1337</ele>
        <time>2000-01-01T10:27:36.000Z</time>
      </trkpt>
      <trkpt lat="45.19736" lon="5.93354">
        <ele>1337</ele>
        <time>2000-01-01T10:27:46.000Z</time>
      </trkpt>
      <trkpt lat="45.19741" lon="5.93342">
        <ele>1336.7</ele>
        <time>2000-01-01T10:27:56.000Z</time>
      </trkpt>
      <trkpt lat="45.19746" lon="5.93321">
        <ele>1339</ele>
        <time>2000-01-01T10:28:06.000Z</time>
      </trkpt>
      <trkpt lat="45.19749" lon="5.93305">
        <ele>1339.3</ele>
        <time>2000-01-01T10:28:16.000Z</time>
      </trkpt>
      <trkpt lat="45.1975" lon="5.93289">
        <ele>1344</ele>
        <time>2000-01-01T10:28:26.000Z</time>
      </trkpt>
      <trkpt lat="45.19754" lon="5.93271">
        <ele>1343.3</ele>
        <time>2000-01-01T10:28:36.000Z</time>
      </trkpt>
      <trkpt lat="45.19763" lon="5.93254">
        <ele>1344</ele>
        <time>2000-01-01T10:28:46.000Z</time>
      </trkpt>
      <trkpt lat="45.19775" lon="5.93237">
        <ele>1344.4</ele>
        <time>2000-01-01T10:28:56.000Z</time>
      </trkpt>
      <trkpt lat="45.19792" lon="5.93221">
        <ele>1344</ele>
        <time>2000-01-01T10:29:06.000Z</time>
      </trkpt>
      <trkpt lat="45.19804" lon="5.93211">
        <ele>1344.2</ele>
        <time>2000-01-01T10:29:16.000Z</time>
      </trkpt>
      <trkpt lat="45.19832" lon="5.93208">
        <ele>1344</ele>
        <time>2000-01-01T10:29:26.000Z</time>
      </trkpt>
      <trkpt lat="45.19848" lon="5.93194">
        <ele>1345.6</ele>
        <time>2000-01-01T10:29:36.000Z</time>
      </trkpt>
      <trkpt lat="45.19857" lon="5.93169">
        <ele>1346</ele>
        <time>2000-01-01T10:29:46.000Z</time>
      </trkpt>
      <trkpt lat="45.1986" lon="5.93171">
        <ele>1350.9</ele>
        <time>2000-01-01T10:29:56.000Z</time>
      </trkpt>
      <trkpt lat="45.19862" lon="5.93177">
        <ele>1349.4</ele>
        <time>2000-01-01T10:30:06.000Z</time>
      </trkpt>
      <trkpt lat="45.19879" lon="5.93188">
        <ele>1346</ele>
        <time>2000-01-01T10:30:16.000Z</time>
      </trkpt>
      <trkpt lat="45.19885" lon="5.93185">
        <ele>1346</ele>
        <time>2000-01-01T10:30:26.000Z</time>
      </trkpt>
      <trkpt lat="45.19903" lon="5.93183">
        <ele>1346</ele>
        <time>2000-01-01T10:30:36.000Z</time>
      </trkpt>
      <trkpt lat="45.19929" lon="5.93171">
        <ele>1346</ele>
        <time>2000-01-01T10:30:46.000Z</time>
      </trkpt>
      <trkpt lat="45.19939" lon="5.93171">
        <ele>1342.6</ele>
        <time>2000-01-01T10:30:56.000Z</time>
      </trkpt>
      <trkpt lat="45.1995" lon="5.93162">
        <ele>1345</ele>
        <time>2000-01-01T10:31:06.000Z</time>
      </trkpt>
      <trkpt lat="45.19969" lon="5.93152">
        <ele>1344</ele>
        <time>2000-01-01T10:31:16.000Z</time>
      </trkpt>
      <trkpt lat="45.19992" lon="5.93134">
        <ele>1340</ele>
        <time>2000-01-01T10:31:26.000Z</time>
      </trkpt>
      <trkpt lat="45.20013" lon="5.93116">
        <ele>1340</ele>
        <time>2000-01-01T10:31:36.000Z</time>
      </trkpt>
      <trkpt lat="45.20027" lon="5.93099">
        <ele>1336.8</ele>
        <time>2000-01-01T10:31:46.000Z</time>
      </trkpt>
      <trkpt lat="45.20042" lon="5.9307">
        <ele>1340</ele>
        <time>2000-01-01T10:31:56.000Z</time>
      </trkpt>
      <trkpt lat="45.20047" lon="5.93065">
        <ele>1339.1</ele>
        <time>2000-01-01T10:32:06.000Z</time>
      </trkpt>
      <trkpt lat="45.2005" lon="5.93065">
        <ele>1338</ele>
        <time>2000-01-01T10:32:16.000Z</time>
      </trkpt>
      <trkpt lat="45.20062" lon="5.93052">
        <ele>1340</ele>
        <time>2000-01-01T10:32:26.000Z</time>
      </trkpt>
      <trkpt lat="45.20092" lon="5.93005">
        <ele>1340</ele>
        <time>2000-01-01T10:32:36.000Z</time>
      </trkpt>
      <trkpt lat="45.20103" lon="5.92999">
        <ele>1337.1</ele>
        <time>2000-01-01T10:32:46.000Z</time>
      </trkpt>
      <trkpt lat="45.20115" lon="5.93001">
        <ele>1334</ele>
        <time>2000-01-01T10:32:56.000Z</time>
      </trkpt>
      <trkpt lat="45.20129" lon="5.92997">
        <ele>1328.2</ele>
        <time>2000-01-01T10:33:06.000Z</time>
      </trkpt>
      <trkpt lat="45.20141" lon="5.93">
        <ele>1324</ele>
        <time>2000-01-01T10:33:16.000Z</time>
      </trkpt>
      <trkpt lat="45.20153" lon="5.92997">
        <ele>1319.1</ele>
        <time>2000-01-01T10:33:26.000Z</time>
      </trkpt>
      <trkpt lat="45.20162" lon="5.92982">
        <ele>1322</ele>
        <time>2000-01-01T10:33:36.000Z</time>
      </trkpt>
      <trkpt lat="45.20172" lon="5.92972">
        <ele>1316.5</ele>
        <time>2000-01-01T10:33:46.000Z</time>
      </trkpt>
      <trkpt lat="45.20176" lon="5.92957">
        <ele>1321</ele>
        <time>2000-01-01T10:33:56.000Z</time>
      </trkpt>
      <trkpt lat="45.20193" lon="5.92947">
        <ele>1310.3</ele>
        <time>2000-01-01T10:34:06.000Z</time>
      </trkpt>
      <trkpt lat="45.20196" lon="5.92941">
        <ele>1320</ele>
        <time>2000-01-01T10:34:16.000Z</time>
      </trkpt>
      <trkpt lat="45.20197" lon="5.92933">
        <ele>1309</ele>
        <time>2000-01-01T10:34:26.000Z</time>
      </trkpt>
      <trkpt lat="45.20174" lon="5.92864">
        <ele>1320</ele>
        <time>2000-01-01T10:34:36.000Z</time>
      </trkpt>
      <trkpt lat="45.20174" lon="5.92842">
        <ele>1313.9</ele>
        <time>2000-01-01T10:34:46.000Z</time>
      </trkpt>
      <trkpt lat="45.20178" lon="5.9283">
        <ele>1314</ele>
        <time>2000-01-01T10:34:56.000Z</time>
      </trkpt>
      <trkpt lat="45.20173" lon="5.92818">
        <ele>1309.1</ele>
        <time>2000-01-01T10:35:06.000Z</time>
      </trkpt>
      <trkpt lat="45.20173" lon="5.92809">
        <ele>1306.9</ele>
        <time>2000-01-01T10:35:16.000Z</time>
      </trkpt>
      <trkpt lat="45.20165" lon="5.92774">
        <ele>1302</ele>
        <time>2000-01-01T10:35:26.000Z</time>
      </trkpt>
      <trkpt lat="45.20152" lon="5.92742">
        <ele>1297</ele>
        <time>2000-01-01T10:35:36.000Z</time>
      </trkpt>
      <trkpt lat="45.20145" lon="5.92712">
        <ele>1294</ele>
        <time>2000-01-01T10:35:46.000Z</time>
      </trkpt>
      <trkpt lat="45.20138" lon="5.92699">
        <ele>1292.3</ele>
        <time>2000-01-01T10:35:56.000Z</time>
      </trkpt>
      <trkpt lat="45.20125" lon="5.92663">
        <ele>1290</ele>
        <time>2000-01-01T10:36:06.000Z</time>
      </trkpt>
      <trkpt lat="45.20122" lon="5.92647">
        <ele>1287.8</ele>
        <time>2000-01-01T10:36:16.000Z</time>
      </trkpt>
      <trkpt lat="45.20129" lon="5.9264">
        <ele>1287</ele>
        <time>2000-01-01T10:36:26.000Z</time>
      </trkpt>
      <trkpt lat="45.20124" lon="5.92632">
        <ele>1285.1</ele>
        <time>2000-01-01T10:36:36.000Z</time>
      </trkpt>
      <trkpt lat="45.20127" lon="5.92626">
        <ele>1283.5</ele>
        <time>2000-01-01T10:36:46.000Z</time>
      </trkpt>
      <trkpt lat="45.20119" lon="5.92608">
        <ele>1286</ele>
        <time>2000-01-01T10:36:56.000Z</time>
      </trkpt>
      <trkpt lat="45.20115" lon="5.92577">
        <ele>1285</ele>
        <time>2000-01-01T10:37:06.000Z</time>
      </trkpt>
      <trkpt lat="45.20116" lon="5.92574">
        <ele>1283.1</ele>
        <time>2000-01-01T10:37:16.000Z</time>
      </trkpt>
      <trkpt lat="45.20135" lon="5.92565">
        <ele>1278</ele>
        <time>2000-01-01T10:37:26.000Z</time>
      </trkpt>
      <trkpt lat="45.20137" lon="5.9256">
        <ele>1275.8</ele>
        <time>2000-01-01T10:37:36.000Z</time>
      </trkpt>
      <trkpt lat="45.2015" lon="5.92552">
        <ele>1271.3</ele>
        <time>2000-01-01T10:37:46.000Z</time>
      </trkpt>
      <trkpt lat="45.20152" lon="5.92546">
        <ele>1270</ele>
        <time>2000-01-01T10:37:56.000Z</time>
      </trkpt>
      <trkpt lat="45.20161" lon="5.92546">
        <ele>1267.5</ele>
        <time>2000-01-01T10:38:06.000Z</time>
      </trkpt>
      <trkpt lat="45.20177" lon="5.92537">
        <ele>1264</ele>
        <time>2000-01-01T10:38:16.000Z</time>
      </trkpt>
      <trkpt lat="45.20179" lon="5.92532">
        <ele>1260.3</ele>
        <time>2000-01-01T10:38:26.000Z</time>
      </trkpt>
      <trkpt lat="45.20177" lon="5.92489">
        <ele>1262</ele>
        <time>2000-01-01T10:38:36.000Z</time>
      </trkpt>
      <trkpt lat="45.20185" lon="5.92487">
        <ele>1256</ele>
        <time>2000-01-01T10:38:46.000Z</time>
      </trkpt>
      <trkpt lat="45.20185" lon="5.92476">
        <ele>1255.3</ele>
        <time>2000-01-01T10:38:56.000Z</time>
      </trkpt>
      <trkpt lat="45.20192" lon="5.92457">
        <ele>1252</ele>
        <time>2000-01-01T10:39:06.000Z</time>
      </trkpt>
      <trkpt lat="45.20191" lon="5.92451">
        <ele>1251.7</ele>
        <time>2000-01-01T10:39:16.000Z</time>
      </trkpt>
      <trkpt lat="45.20193" lon="5.92446">
        <ele>1250.7</ele>
        <time>2000-01-01T10:39:26.000Z</time>
      </trkpt>
      <trkpt lat="45.202" lon="5.92442">
        <ele>1246.8</ele>
        <time>2000-01-01T10:39:36.000Z</time>
      </trkpt>
      <trkpt lat="45.20211" lon="5.92445">
        <ele>1240</ele>
        <time>2000-01-01T10:39:46.000Z</time>
      </trkpt>
      <trkpt lat="45.20209" lon="5.92437">
        <ele>1241.7</ele>
        <time>2000-01-01T10:39:56.000Z</time>
      </trkpt>
      <trkpt lat="45.20215" lon="5.9241">
        <ele>1239</ele>
        <time>2000-01-01T10:40:06.000Z</time>
      </trkpt>
      <trkpt lat="45.20213" lon="5.92404">
        <ele>1237.9</ele>
        <time>2000-01-01T10:40:16.000Z</time>
      </trkpt>
      <trkpt lat="45.2022" lon="5.92392">
        <ele>1233.4</ele>
        <time>2000-01-01T10:40:26.000Z</time>
      </trkpt>
      <trkpt lat="45.20222" lon="5.92371">
        <ele>1232</ele>
        <time>2000-01-01T10:40:36.000Z</time>
      </trkpt>
      <trkpt lat="45.20231" lon="5.9234">
        <ele>1226</ele>
        <time>2000-01-01T10:40:46.000Z</time>
      </trkpt>
      <trkpt lat="45.20227" lon="5.92321">
        <ele>1227.3</ele>
        <time>2000-01-01T10:40:56.000Z</time>
      </trkpt>
      <trkpt lat="45.20232" lon="5.92303">
        <ele>1226</ele>
        <time>2000-01-01T10:41:06.000Z</time>
      </trkpt>
      <trkpt lat="45.20234" lon="5.92302">
        <ele>1223.2</ele>
        <time>2000-01-01T10:41:16.000Z</time>
      </trkpt>
      <trkpt lat="45.20233" lon="5.92282">
        <ele>1223.5</ele>
        <time>2000-01-01T10:41:26.000Z</time>
      </trkpt>
      <trkpt lat="45.20236" lon="5.92276">
        <ele>1226</ele>
        <time>2000-01-01T10:41:36.000Z</time>
      </trkpt>
      <trkpt lat="45.20231" lon="5.92262">
        <ele>1224.6</ele>
        <time>2000-01-01T10:41:46.000Z</time>
      </trkpt>
      <trkpt lat="45.20234" lon="5.92263">
        <ele>1222.8</ele>
        <time>2000-01-01T10:41:56.000Z</time>
      </trkpt>
      <trkpt lat="45.20237" lon="5.9225">
        <ele>1226</ele>
        <time>2000-01-01T10:42:06.000Z</time>
      </trkpt>
      <trkpt lat="45.20252" lon="5.92227">
        <ele>1213</ele>
        <time>2000-01-01T10:42:16.000Z</time>
      </trkpt>
      <trkpt lat="45.20262" lon="5.92187">
        <ele>1212</ele>
        <time>2000-01-01T10:42:26.000Z</time>
      </trkpt>
      <trkpt lat="45.20271" lon="5.92166">
        <ele>1206.2</ele>
        <time>2000-01-01T10:42:36.000Z</time>
      </trkpt>
      <trkpt lat="45.20272" lon="5.92153">
        <ele>1211</ele>
        <time>2000-01-01T10:42:46.000Z</time>
      </trkpt>
      <trkpt lat="45.20278" lon="5.92142">
        <ele>1204.5</ele>
        <time>2000-01-01T10:42:56.000Z</time>
      </trkpt>
      <trkpt lat="45.2028" lon="5.92129">
        <ele>1210</ele>
        <time>2000-01-01T10:43:06.000Z</time>
      </trkpt>
      <trkpt lat="45.20293" lon="5.92101">
        <ele>1201</ele>
        <time>2000-01-01T10:43:16.000Z</time>
      </trkpt>
      <trkpt lat="45.20307" lon="5.92073">
        <ele>1196</ele>
        <time>2000-01-01T10:43:26.000Z</time>
      </trkpt>
      <trkpt lat="45.2031" lon="5.92029">
        <ele>1195</ele>
        <time>2000-01-01T10:43:36.000Z</time>
      </trkpt>
      <trkpt lat="45.20303" lon="5.91992">
        <ele>1195</ele>
        <time>2000-01-01T10:43:46.000Z</time>
      </trkpt>
      <trkpt lat="45.20294" lon="5.91942">
        <ele>1194</ele>
        <time>2000-01-01T10:43:56.000Z</time>
      </trkpt>
      <trkpt lat="45.20293" lon="5.91919">
        <ele>1190</ele>
        <time>2000-01-01T10:44:06.000Z</time>
      </trkpt>
      <trkpt lat="45.20273" lon="5.91888">
        <ele>1189</ele>
        <time>2000-01-01T10:44:16.000Z</time>
      </trkpt>
      <trkpt lat="45.20271" lon="5.91879">
        <ele>1189</ele>
        <time>2000-01-01T10:44:26.000Z</time>
      </trkpt>
      <trkpt lat="45.20269" lon="5.9186">
        <ele>1188</ele>
        <time>2000-01-01T10:44:36.000Z</time>
      </trkpt>
      <trkpt lat="45.20271" lon="5.91857">
        <ele>1186.1</ele>
        <time>2000-01-01T10:44:46.000Z</time>
      </trkpt>
      <trkpt lat="45.20271" lon="5.91835">
        <ele>1185.8</ele>
        <time>2000-01-01T10:44:56.000Z</time>
      </trkpt>
      <trkpt lat="45.20274" lon="5.91825">
        <ele>1185</ele>
        <time>2000-01-01T10:45:06.000Z</time>
      </trkpt>
      <trkpt lat="45.20271" lon="5.91821">
        <ele>1186</ele>
        <time>2000-01-01T10:45:16.000Z</time>
      </trkpt>
      <trkpt lat="45.20269" lon="5.91824">
        <ele>1186.1</ele>
        <time>2000-01-01T10:45:26.000Z</time>
      </trkpt>
      <trkpt lat="45.20275" lon="5.91825">
        <ele>1185.5</ele>
        <time>2000-01-01T10:45:36.000Z</time>
      </trkpt>
      <trkpt lat="45.20285" lon="5.9182">
        <ele>1185</ele>
        <time>2000-01-01T10:45:46.000Z</time>
      </trkpt>
      <trkpt lat="45.20315" lon="5.91823">
        <ele>1184</ele>
        <time>2000-01-01T10:45:56.000Z</time>
      </trkpt>
      <trkpt lat="45.20321" lon="5.91815">
        <ele>1182.8</ele>
        <time>2000-01-01T10:46:06.000Z</time>
      </trkpt>
      <trkpt lat="45.2032" lon="5.91804">
        <ele>1183.7</ele>
        <time>2000-01-01T10:46:16.000Z</time>
      </trkpt>
      <trkpt lat="45.20332" lon="5.91802">
        <ele>1183</ele>
        <time>2000-01-01T10:46:26.000Z</time>
      </trkpt>
      <trkpt lat="45.20343" lon="5.91807">
        <ele>1182.9</ele>
        <time>2000-01-01T10:46:36.000Z</time>
      </trkpt>
      <trkpt lat="45.20353" lon="5.91808">
        <ele>1183</ele>
        <time>2000-01-01T10:46:46.000Z</time>
      </trkpt>
      <trkpt lat="45.20373" lon="5.91793">
        <ele>1184</ele>
        <time>2000-01-01T10:46:56.000Z</time>
      </trkpt>
      <trkpt lat="45.20376" lon="5.91793">
        <ele>1184.8</ele>
        <time>2000-01-01T10:47:06.000Z</time>
      </trkpt>
      <trkpt lat="45.20375" lon="5.9179">
        <ele>1185.2</ele>
        <time>2000-01-01T10:47:16.000Z</time>
      </trkpt>
      <trkpt lat="45.20377" lon="5.91791">
        <ele>1185.1</ele>
        <time>2000-01-01T10:47:26.000Z</time>
      </trkpt>
      <trkpt lat="45.20371" lon="5.91791">
        <ele>1185.1</ele>
        <time>2000-01-01T10:47:36.000Z</time>
      </trkpt>
      <trkpt lat="45.20368" lon="5.91783">
        <ele>1186</ele>
        <time>2000-01-01T10:47:46.000Z</time>
      </trkpt>
      <trkpt lat="45.20369" lon="5.91768">
        <ele>1188.9</ele>
        <time>2000-01-01T10:47:56.000Z</time>
      </trkpt>
      <trkpt lat="45.20367" lon="5.91762">
        <ele>1190</ele>
        <time>2000-01-01T10:48:06.000Z</time>
      </trkpt>
      <trkpt lat="45.20363" lon="5.91761">
        <ele>1189</ele>
        <time>2000-01-01T10:48:16.000Z</time>
      </trkpt>
      <trkpt lat="45.20363" lon="5.91742">
        <ele>1193.8</ele>
        <time>2000-01-01T10:48:26.000Z</time>
      </trkpt>
      <trkpt lat="45.20353" lon="5.91732">
        <ele>1195</ele>
        <time>2000-01-01T10:48:36.000Z</time>
      </trkpt>
      <trkpt lat="45.20353" lon="5.91722">
        <ele>1198.1</ele>
        <time>2000-01-01T10:48:46.000Z</time>
      </trkpt>
      <trkpt lat="45.20348" lon="5.91712">
        <ele>1200.6</ele>
        <time>2000-01-01T10:48:56.000Z</time>
      </trkpt>
      <trkpt lat="45.20353" lon="5.91693">
        <ele>1206</ele>
        <time>2000-01-01T10:49:06.000Z</time>
      </trkpt>
      <trkpt lat="45.20353" lon="5.91676">
        <ele>1209.6</ele>
        <time>2000-01-01T10:49:16.000Z</time>
      </trkpt>
      <trkpt lat="45.20363" lon="5.91659">
        <ele>1215</ele>
        <time>2000-01-01T10:49:26.000Z</time>
      </trkpt>
      <trkpt lat="45.2037" lon="5.91635">
        <ele>1219.8</ele>
        <time>2000-01-01T10:49:36.000Z</time>
      </trkpt>
      <trkpt lat="45.20376" lon="5.91628">
        <ele>1223</ele>
        <time>2000-01-01T10:49:46.000Z</time>
      </trkpt>
      <trkpt lat="45.20376" lon="5.91625">
        <ele>1222</ele>
        <time>2000-01-01T10:49:56.000Z</time>
      </trkpt>
      <trkpt lat="45.2038" lon="5.91625">
        <ele>1222</ele>
        <time>2000-01-01T10:50:06.000Z</time>
      </trkpt>
      <trkpt lat="45.20385" lon="5.91616">
        <ele>1223.9</ele>
        <time>2000-01-01T10:50:16.000Z</time>
      </trkpt>
      <trkpt lat="45.2039" lon="5.91596">
        <ele>1229</ele>
        <time>2000-01-01T10:50:26.000Z</time>
      </trkpt>
      <trkpt lat="45.20393" lon="5.91592">
        <ele>1228.5</ele>
        <time>2000-01-01T10:50:36.000Z</time>
      </trkpt>
      <trkpt lat="45.20413" lon="5.91583">
        <ele>1230</ele>
        <time>2000-01-01T10:50:46.000Z</time>
      </trkpt>
      <trkpt lat="45.20427" lon="5.91572">
        <ele>1231.7</ele>
        <time>2000-01-01T10:50:56.000Z</time>
      </trkpt>
      <trkpt lat="45.20428" lon="5.91569">
        <ele>1231.9</ele>
        <time>2000-01-01T10:51:06.000Z</time>
      </trkpt>
      <trkpt lat="45.20436" lon="5.91567">
        <ele>1232</ele>
        <time>2000-01-01T10:51:16.000Z</time>
      </trkpt>
      <trkpt lat="45.20445" lon="5.9156">
        <ele>1232.9</ele>
        <time>2000-01-01T10:51:26.000Z</time>
      </trkpt>
      <trkpt lat="45.20456" lon="5.91546">
        <ele>1234</ele>
        <time>2000-01-01T10:51:36.000Z</time>
      </trkpt>
      <trkpt lat="45.20462" lon="5.91544">
        <ele>1234.4</ele>
        <time>2000-01-01T10:51:46.000Z</time>
      </trkpt>
      <trkpt lat="45.20481" lon="5.91526">
        <ele>1234</ele>
        <time>2000-01-01T10:51:56.000Z</time>
      </trkpt>
      <trkpt lat="45.20516" lon="5.91484">
        <ele>1234</ele>
        <time>2000-01-01T10:52:06.000Z</time>
      </trkpt>
      <trkpt lat="45.20531" lon="5.91474">
        <ele>1235.6</ele>
        <time>2000-01-01T10:52:16.000Z</time>
      </trkpt>
      <trkpt lat="45.20566" lon="5.91467">
        <ele>1234</ele>
        <time>2000-01-01T10:52:26.000Z</time>
      </trkpt>
      <trkpt lat="45.20588" lon="5.91459">
        <ele>1235</ele>
        <time>2000-01-01T10:52:36.000Z</time>
      </trkpt>
      <trkpt lat="45.20603" lon="5.91449">
        <ele>1236.5</ele>
        <time>2000-01-01T10:52:46.000Z</time>
      </trkpt>
      <trkpt lat="45.20658" lon="5.91453">
        <ele>1235</ele>
        <time>2000-01-01T10:52:56.000Z</time>
      </trkpt>
      <trkpt lat="45.20689" lon="5.91449">
        <ele>1235</ele>
        <time>2000-01-01T10:53:06.000Z</time>
      </trkpt>
      <trkpt lat="45.20686" lon="5.9145">
        <ele>1236.8</ele>
        <time>2000-01-01T10:53:16.000Z</time>
      </trkpt>
      <trkpt lat="45.20692" lon="5.91454">
        <ele>1237.4</ele>
        <time>2000-01-01T10:53:26.000Z</time>
      </trkpt>
      <trkpt lat="45.20693" lon="5.91451">
        <ele>1236.9</ele>
        <time>2000-01-01T10:53:36.000Z</time>
      </trkpt>
      <trkpt lat="45.20695" lon="5.91458">
        <ele>1237.9</ele>
        <time>2000-01-01T10:53:46.000Z</time>
      </trkpt>
      <trkpt lat="45.20705" lon="5.91451">
        <ele>1232</ele>
        <time>2000-01-01T10:53:56.000Z</time>
      </trkpt>
      <trkpt lat="45.20718" lon="5.91435">
        <ele>1233.5</ele>
        <time>2000-01-01T10:54:06.000Z</time>
      </trkpt>
      <trkpt lat="45.20727" lon="5.91428">
        <ele>1230</ele>
        <time>2000-01-01T10:54:16.000Z</time>
      </trkpt>
      <trkpt lat="45.20728" lon="5.91422">
        <ele>1230.9</ele>
        <time>2000-01-01T10:54:26.000Z</time>
      </trkpt>
      <trkpt lat="45.20741" lon="5.91408">
        <ele>1227</ele>
        <time>2000-01-01T10:54:36.000Z</time>
      </trkpt>
      <trkpt lat="45.20781" lon="5.91412">
        <ele>1227</ele>
        <time>2000-01-01T10:54:46.000Z</time>
      </trkpt>
      <trkpt lat="45.2081" lon="5.91401">
        <ele>1225</ele>
        <time>2000-01-01T10:54:56.000Z</time>
      </trkpt>
      <trkpt lat="45.20826" lon="5.91403">
        <ele>1225.5</ele>
        <time>2000-01-01T10:55:06.000Z</time>
      </trkpt>
      <trkpt lat="45.20834" lon="5.914">
        <ele>1225</ele>
        <time>2000-01-01T10:55:16.000Z</time>
      </trkpt>
      <trkpt lat="45.20853" lon="5.91401">
        <ele>1224</ele>
        <time>2000-01-01T10:55:26.000Z</time>
      </trkpt>
      <trkpt lat="45.20869" lon="5.9139">
        <ele>1222.2</ele>
        <time>2000-01-01T10:55:36.000Z</time>
      </trkpt>
      <trkpt lat="45.20874" lon="5.9139">
        <ele>1222</ele>
        <time>2000-01-01T10:55:46.000Z</time>
      </trkpt>
      <trkpt lat="45.20883" lon="5.91381">
        <ele>1220.6</ele>
        <time>2000-01-01T10:55:56.000Z</time>
      </trkpt>
      <trkpt lat="45.20901" lon="5.91375">
        <ele>1218</ele>
        <time>2000-01-01T10:56:06.000Z</time>
      </trkpt>
      <trkpt lat="45.20907" lon="5.91371">
        <ele>1218.1</ele>
        <time>2000-01-01T10:56:16.000Z</time>
      </trkpt>
      <trkpt lat="45.20912" lon="5.91359">
        <ele>1215.9</ele>
        <time>2000-01-01T10:56:26.000Z</time>
      </trkpt>
      <trkpt lat="45.20917" lon="5.91358">
        <ele>1214</ele>
        <time>2000-01-01T10:56:36.000Z</time>
      </trkpt>
      <trkpt lat="45.20922" lon="5.91351">
        <ele>1214.4</ele>
        <time>2000-01-01T10:56:46.000Z</time>
      </trkpt>
      <trkpt lat="45.20935" lon="5.91341">
        <ele>1212</ele>
        <time>2000-01-01T10:56:56.000Z</time>
      </trkpt>
      <trkpt lat="45.2094" lon="5.91331">
        <ele>1210.8</ele>
        <time>2000-01-01T10:57:06.000Z</time>
      </trkpt>
      <trkpt lat="45.20939" lon="5.91321">
        <ele>1209.4</ele>
        <time>2000-01-01T10:57:16.000Z</time>
      </trkpt>
      <trkpt lat="45.20944" lon="5.91302">
        <ele>1205</ele>
        <time>2000-01-01T10:57:26.000Z</time>
      </trkpt>
      <trkpt lat="45.20951" lon="5.91292">
        <ele>1204.1</ele>
        <time>2000-01-01T10:57:36.000Z</time>
      </trkpt>
      <trkpt lat="45.2096" lon="5.91291">
        <ele>1203.3</ele>
        <time>2000-01-01T10:57:46.000Z</time>
      </trkpt>
      <trkpt lat="45.20964" lon="5.91279">
        <ele>1198</ele>
        <time>2000-01-01T10:57:56.000Z</time>
      </trkpt>
      <trkpt lat="45.20963" lon="5.9127">
        <ele>1199.2</ele>
        <time>2000-01-01T10:58:06.000Z</time>
      </trkpt>
      <trkpt lat="45.20968" lon="5.91269">
        <ele>1198.7</ele>
        <time>2000-01-01T10:58:16.000Z</time>
      </trkpt>
      <trkpt lat="45.20971" lon="5.91263">
        <ele>1197.4</ele>
        <time>2000-01-01T10:58:26.000Z</time>
      </trkpt>
      <trkpt lat="45.20978" lon="5.91259">
        <ele>1194</ele>
        <time>2000-01-01T10:58:36.000Z</time>
      </trkpt>
      <trkpt lat="45.20985" lon="5.91259">
        <ele>1195.4</ele>
        <time>2000-01-01T10:58:46.000Z</time>
      </trkpt>
      <trkpt lat="45.20994" lon="5.91249">
        <ele>1192.4</ele>
        <time>2000-01-01T10:58:56.000Z</time>
      </trkpt>
      <trkpt lat="45.21012" lon="5.91238">
        <ele>1186</ele>
        <time>2000-01-01T10:59:06.000Z</time>
      </trkpt>
      <trkpt lat="45.21019" lon="5.91238">
        <ele>1187.1</ele>
        <time>2000-01-01T10:59:16.000Z</time>
      </trkpt>
      <trkpt lat="45.21046" lon="5.9123">
        <ele>1180</ele>
        <time>2000-01-01T10:59:26.000Z</time>
      </trkpt>
      <trkpt lat="45.2106" lon="5.91238">
        <ele>1181.7</ele>
        <time>2000-01-01T10:59:36.000Z</time>
      </trkpt>
      <trkpt lat="45.21069" lon="5.91239">
        <ele>1181</ele>
        <time>2000-01-01T10:59:46.000Z</time>
      </trkpt>
      <trkpt lat="45.21071" lon="5.91245">
        <ele>1181.6</ele>
        <time>2000-01-01T10:59:56.000Z</time>
      </trkpt>
      <trkpt lat="45.21086" lon="5.91254">
        <ele>1181</ele>
        <time>2000-01-01T11:00:06.000Z</time>
      </trkpt>
      <trkpt lat="45.211" lon="5.91257">
        <ele>1180.2</ele>
        <time>2000-01-01T11:00:16.000Z</time>
      </trkpt>
      <trkpt lat="45.21106" lon="5.91266">
        <ele>1181</ele>
        <time>2000-01-01T11:00:26.000Z</time>
      </trkpt>
      <trkpt lat="45.21115" lon="5.91261">
        <ele>1178.7</ele>
        <time>2000-01-01T11:00:36.000Z</time>
      </trkpt>
      <trkpt lat="45.21135" lon="5.91262">
        <ele>1176</ele>
        <time>2000-01-01T11:00:46.000Z</time>
      </trkpt>
      <trkpt lat="45.21147" lon="5.91257">
        <ele>1172</ele>
        <time>2000-01-01T11:00:56.000Z</time>
      </trkpt>
      <trkpt lat="45.2116" lon="5.91262">
        <ele>1170</ele>
        <time>2000-01-01T11:01:06.000Z</time>
      </trkpt>
      <trkpt lat="45.21168" lon="5.91257">
        <ele>1167.4</ele>
        <time>2000-01-01T11:01:16.000Z</time>
      </trkpt>
      <trkpt lat="45.21169" lon="5.91259">
        <ele>1167.7</ele>
        <time>2000-01-01T11:01:26.000Z</time>
      </trkpt>
      <trkpt lat="45.21172" lon="5.91258">
        <ele>1166.7</ele>
        <time>2000-01-01T11:01:36.000Z</time>
      </trkpt>
      <trkpt lat="45.21173" lon="5.91255">
        <ele>1165.7</ele>
        <time>2000-01-01T11:01:46.000Z</time>
      </trkpt>
      <trkpt lat="45.21177" lon="5.91256">
        <ele>1165</ele>
        <time>2000-01-01T11:01:56.000Z</time>
      </trkpt>
      <trkpt lat="45.21188" lon="5.91253">
        <ele>1161.5</ele>
        <time>2000-01-01T11:02:06.000Z</time>
      </trkpt>
      <trkpt lat="45.21193" lon="5.91255">
        <ele>1160.8</ele>
        <time>2000-01-01T11:02:16.000Z</time>
      </trkpt>
      <trkpt lat="45.21224" lon="5.91249">
        <ele>1148</ele>
        <time>2000-01-01T11:02:26.000Z</time>
      </trkpt>
      <trkpt lat="45.2123" lon="5.91252">
        <ele>1150.6</ele>
        <time>2000-01-01T11:02:36.000Z</time>
      </trkpt>
      <trkpt lat="45.21241" lon="5.91249">
        <ele>1146.9</ele>
        <time>2000-01-01T11:02:46.000Z</time>
      </trkpt>
      <trkpt lat="45.21246" lon="5.91252">
        <ele>1147</ele>
        <time>2000-01-01T11:02:56.000Z</time>
      </trkpt>
      <trkpt lat="45.21258" lon="5.91248">
        <ele>1142.6</ele>
        <time>2000-01-01T11:03:06.000Z</time>
      </trkpt>
      <trkpt lat="45.21259" lon="5.91251">
        <ele>1143.3</ele>
        <time>2000-01-01T11:03:16.000Z</time>
      </trkpt>
      <trkpt lat="45.21277" lon="5.91248">
        <ele>1137</ele>
        <time>2000-01-01T11:03:26.000Z</time>
      </trkpt>
      <trkpt lat="45.21284" lon="5.91242">
        <ele>1135.6</ele>
        <time>2000-01-01T11:03:36.000Z</time>
      </trkpt>
      <trkpt lat="45.21286" lon="5.91244">
        <ele>1135.8</ele>
        <time>2000-01-01T11:03:46.000Z</time>
      </trkpt>
      <trkpt lat="45.21289" lon="5.91233">
        <ele>1132.1</ele>
        <time>2000-01-01T11:03:56.000Z</time>
      </trkpt>
      <trkpt lat="45.21294" lon="5.91229">
        <ele>1128</ele>
        <time>2000-01-01T11:04:06.000Z</time>
      </trkpt>
      <trkpt lat="45.21294" lon="5.91226">
        <ele>1129.2</ele>
        <time>2000-01-01T11:04:16.000Z</time>
      </trkpt>
      <trkpt lat="45.213" lon="5.91223">
        <ele>1127.2</ele>
        <time>2000-01-01T11:04:26.000Z</time>
      </trkpt>
      <trkpt lat="45.21307" lon="5.91224">
        <ele>1126.3</ele>
        <time>2000-01-01T11:04:36.000Z</time>
      </trkpt>
      <trkpt lat="45.21312" lon="5.91215">
        <ele>1121</ele>
        <time>2000-01-01T11:04:46.000Z</time>
      </trkpt>
      <trkpt lat="45.21322" lon="5.91212">
        <ele>1120.1</ele>
        <time>2000-01-01T11:04:56.000Z</time>
      </trkpt>
      <trkpt lat="45.21326" lon="5.91203">
        <ele>1116.8</ele>
        <time>2000-01-01T11:05:06.000Z</time>
      </trkpt>
      <trkpt lat="45.21348" lon="5.91194">
        <ele>1110</ele>
        <time>2000-01-01T11:05:16.000Z</time>
      </trkpt>
      <trkpt lat="45.21362" lon="5.91192">
        <ele>1106.1</ele>
        <time>2000-01-01T11:05:26.000Z</time>
      </trkpt>
      <trkpt lat="45.21366" lon="5.91185">
        <ele>1102</ele>
        <time>2000-01-01T11:05:36.000Z</time>
      </trkpt>
      <trkpt lat="45.21375" lon="5.9118">
        <ele>1100.3</ele>
        <time>2000-01-01T11:05:46.000Z</time>
      </trkpt>
      <trkpt lat="45.21375" lon="5.91176">
        <ele>1099.2</ele>
        <time>2000-01-01T11:05:56.000Z</time>
      </trkpt>
      <trkpt lat="45.21389" lon="5.91161">
        <ele>1093</ele>
        <time>2000-01-01T11:06:06.000Z</time>
      </trkpt>
      <trkpt lat="45.21401" lon="5.91161">
        <ele>1090.4</ele>
        <time>2000-01-01T11:06:16.000Z</time>
      </trkpt>
      <trkpt lat="45.2141" lon="5.91148">
        <ele>1082</ele>
        <time>2000-01-01T11:06:26.000Z</time>
      </trkpt>
      <trkpt lat="45.21407" lon="5.91141">
        <ele>1083.1</ele>
        <time>2000-01-01T11:06:36.000Z</time>
      </trkpt>
      <trkpt lat="45.21408" lon="5.91138">
        <ele>1082</ele>
        <time>2000-01-01T11:06:46.000Z</time>
      </trkpt>
      <trkpt lat="45.21406" lon="5.91137">
        <ele>1081.9</ele>
        <time>2000-01-01T11:06:56.000Z</time>
      </trkpt>
      <trkpt lat="45.2141" lon="5.9113">
        <ele>1079.1</ele>
        <time>2000-01-01T11:07:06.000Z</time>
      </trkpt>
      <trkpt lat="45.21423" lon="5.91134">
        <ele>1077</ele>
        <time>2000-01-01T11:07:16.000Z</time>
      </trkpt>
      <trkpt lat="45.21435" lon="5.91128">
        <ele>1074.8</ele>
        <time>2000-01-01T11:07:26.000Z</time>
      </trkpt>
      <trkpt lat="45.21437" lon="5.9113">
        <ele>1075.2</ele>
        <time>2000-01-01T11:07:36.000Z</time>
      </trkpt>
      <trkpt lat="45.21442" lon="5.91129">
        <ele>1071</ele>
        <time>2000-01-01T11:07:46.000Z</time>
      </trkpt>
      <trkpt lat="45.2145" lon="5.91121">
        <ele>1070.6</ele>
        <time>2000-01-01T11:07:56.000Z</time>
      </trkpt>
      <trkpt lat="45.21458" lon="5.91123">
        <ele>1070.4</ele>
        <time>2000-01-01T11:08:06.000Z</time>
      </trkpt>
      <trkpt lat="45.21473" lon="5.9112">
        <ele>1067</ele>
        <time>2000-01-01T11:08:16.000Z</time>
      </trkpt>
      <trkpt lat="45.21488" lon="5.91097">
        <ele>1055</ele>
        <time>2000-01-01T11:08:26.000Z</time>
      </trkpt>
      <trkpt lat="45.21488" lon="5.91084">
        <ele>1053.5</ele>
        <time>2000-01-01T11:08:36.000Z</time>
      </trkpt>
      <trkpt lat="45.21492" lon="5.91084">
        <ele>1053.1</ele>
        <time>2000-01-01T11:08:46.000Z</time>
      </trkpt>
      <trkpt lat="45.215" lon="5.91071">
        <ele>1047</ele>
        <time>2000-01-01T11:08:56.000Z</time>
      </trkpt>
      <trkpt lat="45.2151" lon="5.91065">
        <ele>1044.3</ele>
        <time>2000-01-01T11:09:06.000Z</time>
      </trkpt>
      <trkpt lat="45.21516" lon="5.91054">
        <ele>1039</ele>
        <time>2000-01-01T11:09:16.000Z</time>
      </trkpt>
      <trkpt lat="45.2152" lon="5.91025">
        <ele>1027</ele>
        <time>2000-01-01T11:09:26.000Z</time>
      </trkpt>
      <trkpt lat="45.21525" lon="5.9102">
        <ele>1026.6</ele>
        <time>2000-01-01T11:09:36.000Z</time>
      </trkpt>
      <trkpt lat="45.21524" lon="5.91018">
        <ele>1026</ele>
        <time>2000-01-01T11:09:46.000Z</time>
      </trkpt>
      <trkpt lat="45.21529" lon="5.91015">
        <ele>1024.2</ele>
        <time>2000-01-01T11:09:56.000Z</time>
      </trkpt>
      <trkpt lat="45.2153" lon="5.9101">
        <ele>1022.3</ele>
        <time>2000-01-01T11:10:06.000Z</time>
      </trkpt>
      <trkpt lat="45.2154" lon="5.91005">
        <ele>1018</ele>
        <time>2000-01-01T11:10:16.000Z</time>
      </trkpt>
      <trkpt lat="45.21553" lon="5.91003">
        <ele>1016.4</ele>
        <time>2000-01-01T11:10:26.000Z</time>
      </trkpt>
      <trkpt lat="45.21555" lon="5.91005">
        <ele>1016.9</ele>
        <time>2000-01-01T11:10:36.000Z</time>
      </trkpt>
      <trkpt lat="45.21575" lon="5.91002">
        <ele>1011</ele>
        <time>2000-01-01T11:10:46.000Z</time>
      </trkpt>
      <trkpt lat="45.21586" lon="5.91005">
        <ele>1010.4</ele>
        <time>2000-01-01T11:10:56.000Z</time>
      </trkpt>
      <trkpt lat="45.21592" lon="5.91001">
        <ele>1007.5</ele>
        <time>2000-01-01T11:11:06.000Z</time>
      </trkpt>
      <trkpt lat="45.2159" lon="5.90997">
        <ele>1004</ele>
        <time>2000-01-01T11:11:16.000Z</time>
      </trkpt>
      <trkpt lat="45.21608" lon="5.90995">
        <ele>1002.1</ele>
        <time>2000-01-01T11:11:26.000Z</time>
      </trkpt>
      <trkpt lat="45.21612" lon="5.90986">
        <ele>1000</ele>
        <time>2000-01-01T11:11:36.000Z</time>
      </trkpt>
      <trkpt lat="45.21613" lon="5.90997">
        <ele>1001.5</ele>
        <time>2000-01-01T11:11:46.000Z</time>
      </trkpt>
      <trkpt lat="45.21625" lon="5.9099">
        <ele>997</ele>
        <time>2000-01-01T11:11:56.000Z</time>
      </trkpt>
      <trkpt lat="45.21635" lon="5.90972">
        <ele>987.9</ele>
        <time>2000-01-01T11:12:06.000Z</time>
      </trkpt>
      <trkpt lat="45.21633" lon="5.90944">
        <ele>980</ele>
        <time>2000-01-01T11:12:16.000Z</time>
      </trkpt>
      <trkpt lat="45.21617" lon="5.90919">
        <ele>978</ele>
        <time>2000-01-01T11:12:26.000Z</time>
      </trkpt>
      <trkpt lat="45.21611" lon="5.90905">
        <ele>976.9</ele>
        <time>2000-01-01T11:12:36.000Z</time>
      </trkpt>
      <trkpt lat="45.2161" lon="5.90883">
        <ele>974</ele>
        <time>2000-01-01T11:12:46.000Z</time>
      </trkpt>
      <trkpt lat="45.21604" lon="5.90879">
        <ele>973.5</ele>
        <time>2000-01-01T11:12:56.000Z</time>
      </trkpt>
      <trkpt lat="45.21586" lon="5.90849">
        <ele>973</ele>
        <time>2000-01-01T11:13:06.000Z</time>
      </trkpt>
      <trkpt lat="45.21568" lon="5.90835">
        <ele>972</ele>
        <time>2000-01-01T11:13:16.000Z</time>
      </trkpt>
      <trkpt lat="45.21557" lon="5.90817">
        <ele>969.9</ele>
        <time>2000-01-01T11:13:26.000Z</time>
      </trkpt>
      <trkpt lat="45.21556" lon="5.90811">
        <ele>969</ele>
        <time>2000-01-01T11:13:36.000Z</time>
      </trkpt>
      <trkpt lat="45.21548" lon="5.90801">
        <ele>967.9</ele>
        <time>2000-01-01T11:13:46.000Z</time>
      </trkpt>
      <trkpt lat="45.21549" lon="5.90796">
        <ele>966.7</ele>
        <time>2000-01-01T11:13:56.000Z</time>
      </trkpt>
      <trkpt lat="45.21546" lon="5.90783">
        <ele>964</ele>
        <time>2000-01-01T11:14:06.000Z</time>
      </trkpt>
      <trkpt lat="45.2155" lon="5.90775">
        <ele>962.3</ele>
        <time>2000-01-01T11:14:16.000Z</time>
      </trkpt>
      <trkpt lat="45.21541" lon="5.90745">
        <ele>956</ele>
        <time>2000-01-01T11:14:26.000Z</time>
      </trkpt>
      <trkpt lat="45.21538" lon="5.90726">
        <ele>953.7</ele>
        <time>2000-01-01T11:14:36.000Z</time>
      </trkpt>
      <trkpt lat="45.21538" lon="5.90709">
        <ele>949</ele>
        <time>2000-01-01T11:14:46.000Z</time>
      </trkpt>
      <trkpt lat="45.2154" lon="5.90711">
        <ele>950.4</ele>
        <time>2000-01-01T11:14:56.000Z</time>
      </trkpt>
      <trkpt lat="45.21543" lon="5.90706">
        <ele>949.2</ele>
        <time>2000-01-01T11:15:06.000Z</time>
      </trkpt>
      <trkpt lat="45.21544" lon="5.90668">
        <ele>940</ele>
        <time>2000-01-01T11:15:16.000Z</time>
      </trkpt>
      <trkpt lat="45.21535" lon="5.9066">
        <ele>941</ele>
        <time>2000-01-01T11:15:26.000Z</time>
      </trkpt>
      <trkpt lat="45.21529" lon="5.90638">
        <ele>935</ele>
        <time>2000-01-01T11:15:36.000Z</time>
      </trkpt>
      <trkpt lat="45.21508" lon="5.90607">
        <ele>932</ele>
        <time>2000-01-01T11:15:46.000Z</time>
      </trkpt>
      <trkpt lat="45.21515" lon="5.90597">
        <ele>929.8</ele>
        <time>2000-01-01T11:15:56.000Z</time>
      </trkpt>
      <trkpt lat="45.21524" lon="5.90593">
        <ele>929</ele>
        <time>2000-01-01T11:16:06.000Z</time>
      </trkpt>
      <trkpt lat="45.21528" lon="5.90584">
        <ele>929.1</ele>
        <time>2000-01-01T11:16:16.000Z</time>
      </trkpt>
      <trkpt lat="45.21545" lon="5.90562">
        <ele>926</ele>
        <time>2000-01-01T11:16:26.000Z</time>
      </trkpt>
      <trkpt lat="45.21557" lon="5.90553">
        <ele>926.6</ele>
        <time>2000-01-01T11:16:36.000Z</time>
      </trkpt>
      <trkpt lat="45.21566" lon="5.90554">
        <ele>926</ele>
        <time>2000-01-01T11:16:46.000Z</time>
      </trkpt>
      <trkpt lat="45.21571" lon="5.90551">
        <ele>926.3</ele>
        <time>2000-01-01T11:16:56.000Z</time>
      </trkpt>
      <trkpt lat="45.21571" lon="5.90541">
        <ele>924.9</ele>
        <time>2000-01-01T11:17:06.000Z</time>
      </trkpt>
      <trkpt lat="45.21563" lon="5.90529">
        <ele>921</ele>
        <time>2000-01-01T11:17:16.000Z</time>
      </trkpt>
      <trkpt lat="45.21564" lon="5.90501">
        <ele>917</ele>
        <time>2000-01-01T11:17:26.000Z</time>
      </trkpt>
      <trkpt lat="45.2156" lon="5.90493">
        <ele>915.9</ele>
        <time>2000-01-01T11:17:36.000Z</time>
      </trkpt>
      <trkpt lat="45.21565" lon="5.90492">
        <ele>915.8</ele>
        <time>2000-01-01T11:17:46.000Z</time>
      </trkpt>
      <trkpt lat="45.21581" lon="5.90475">
        <ele>911</ele>
        <time>2000-01-01T11:17:56.000Z</time>
      </trkpt>
      <trkpt lat="45.21585" lon="5.90466">
        <ele>910.5</ele>
        <time>2000-01-01T11:18:06.000Z</time>
      </trkpt>
      <trkpt lat="45.2158" lon="5.90448">
        <ele>905</ele>
        <time>2000-01-01T11:18:16.000Z</time>
      </trkpt>
      <trkpt lat="45.21553" lon="5.9043">
        <ele>902</ele>
        <time>2000-01-01T11:18:26.000Z</time>
      </trkpt>
      <trkpt lat="45.21549" lon="5.9042">
        <ele>900.5</ele>
        <time>2000-01-01T11:18:36.000Z</time>
      </trkpt>
      <trkpt lat="45.21539" lon="5.90409">
        <ele>895</ele>
        <time>2000-01-01T11:18:46.000Z</time>
      </trkpt>
      <trkpt lat="45.21529" lon="5.90389">
        <ele>893.1</ele>
        <time>2000-01-01T11:18:56.000Z</time>
      </trkpt>
      <trkpt lat="45.21526" lon="5.9039">
        <ele>892</ele>
        <time>2000-01-01T11:19:06.000Z</time>
      </trkpt>
      <trkpt lat="45.21521" lon="5.90386">
        <ele>891.9</ele>
        <time>2000-01-01T11:19:16.000Z</time>
      </trkpt>
      <trkpt lat="45.21517" lon="5.90387">
        <ele>891.8</ele>
        <time>2000-01-01T11:19:26.000Z</time>
      </trkpt>
      <trkpt lat="45.21515" lon="5.90381">
        <ele>890.4</ele>
        <time>2000-01-01T11:19:36.000Z</time>
      </trkpt>
      <trkpt lat="45.21503" lon="5.90369">
        <ele>884</ele>
        <time>2000-01-01T11:19:46.000Z</time>
      </trkpt>
      <trkpt lat="45.215" lon="5.90368">
        <ele>886.5</ele>
        <time>2000-01-01T11:19:56.000Z</time>
      </trkpt>
      <trkpt lat="45.21489" lon="5.90372">
        <ele>886.2</ele>
        <time>2000-01-01T11:20:06.000Z</time>
      </trkpt>
      <trkpt lat="45.21489" lon="5.90365">
        <ele>882</ele>
        <time>2000-01-01T11:20:16.000Z</time>
      </trkpt>
      <trkpt lat="45.21494" lon="5.90364">
        <ele>885</ele>
        <time>2000-01-01T11:20:26.000Z</time>
      </trkpt>
      <trkpt lat="45.21491" lon="5.9036">
        <ele>883.8</ele>
        <time>2000-01-01T11:20:36.000Z</time>
      </trkpt>
      <trkpt lat="45.21469" lon="5.9036">
        <ele>880</ele>
        <time>2000-01-01T11:20:46.000Z</time>
      </trkpt>
      <trkpt lat="45.21463" lon="5.90302">
        <ele>869</ele>
        <time>2000-01-01T11:20:56.000Z</time>
      </trkpt>
      <trkpt lat="45.21457" lon="5.90281">
        <ele>865.5</ele>
        <time>2000-01-01T11:21:06.000Z</time>
      </trkpt>
      <trkpt lat="45.21458" lon="5.90276">
        <ele>862</ele>
        <time>2000-01-01T11:21:16.000Z</time>
      </trkpt>
      <trkpt lat="45.21466" lon="5.90266">
        <ele>863.1</ele>
        <time>2000-01-01T11:21:26.000Z</time>
      </trkpt>
      <trkpt lat="45.21466" lon="5.9026">
        <ele>861.9</ele>
        <time>2000-01-01T11:21:36.000Z</time>
      </trkpt>
      <trkpt lat="45.21471" lon="5.90249">
        <ele>858</ele>
        <time>2000-01-01T11:21:46.000Z</time>
      </trkpt>
      <trkpt lat="45.21469" lon="5.90231">
        <ele>856.5</ele>
        <time>2000-01-01T11:21:56.000Z</time>
      </trkpt>
      <trkpt lat="45.21463" lon="5.90226">
        <ele>854</ele>
        <time>2000-01-01T11:22:06.000Z</time>
      </trkpt>
      <trkpt lat="45.21451" lon="5.90226">
        <ele>854.9</ele>
        <time>2000-01-01T11:22:16.000Z</time>
      </trkpt>
      <trkpt lat="45.21433" lon="5.90232">
        <ele>854</ele>
        <time>2000-01-01T11:22:26.000Z</time>
      </trkpt>
      <trkpt lat="45.21417" lon="5.90231">
        <ele>853.6</ele>
        <time>2000-01-01T11:22:36.000Z</time>
      </trkpt>
      <trkpt lat="45.2141" lon="5.90228">
        <ele>851</ele>
        <time>2000-01-01T11:22:46.000Z</time>
      </trkpt>
      <trkpt lat="45.21388" lon="5.90211">
        <ele>846</ele>
        <time>2000-01-01T11:22:56.000Z</time>
      </trkpt>
      <trkpt lat="45.21362" lon="5.90192">
        <ele>840</ele>
        <time>2000-01-01T11:23:06.000Z</time>
      </trkpt>
      <trkpt lat="45.2135" lon="5.90186">
        <ele>837.6</ele>
        <time>2000-01-01T11:23:16.000Z</time>
      </trkpt>
      <trkpt lat="45.21345" lon="5.90186">
        <ele>837</ele>
        <time>2000-01-01T11:23:26.000Z</time>
      </trkpt>
      <trkpt lat="45.21342" lon="5.90182">
        <ele>834</ele>
        <time>2000-01-01T11:23:36.000Z</time>
      </trkpt>
      <trkpt lat="45.21331" lon="5.90184">
        <ele>834.7</ele>
        <time>2000-01-01T11:23:46.000Z</time>
      </trkpt>
      <trkpt lat="45.21316" lon="5.90171">
        <ele>828</ele>
        <time>2000-01-01T11:23:56.000Z</time>
      </trkpt>
      <trkpt lat="45.21313" lon="5.90172">
        <ele>829.2</ele>
        <time>2000-01-01T11:24:06.000Z</time>
      </trkpt>
      <trkpt lat="45.21309" lon="5.90169">
        <ele>828</ele>
        <time>2000-01-01T11:24:16.000Z</time>
      </trkpt>
      <trkpt lat="45.21293" lon="5.90154">
        <ele>820</ele>
        <time>2000-01-01T11:24:26.000Z</time>
      </trkpt>
      <trkpt lat="45.21285" lon="5.9014">
        <ele>817.8</ele>
        <time>2000-01-01T11:24:36.000Z</time>
      </trkpt>
      <trkpt lat="45.21275" lon="5.90131">
        <ele>814</ele>
        <time>2000-01-01T11:24:46.000Z</time>
      </trkpt>
      <trkpt lat="45.21273" lon="5.90124">
        <ele>812.5</ele>
        <time>2000-01-01T11:24:56.000Z</time>
      </trkpt>
      <trkpt lat="45.21265" lon="5.90117">
        <ele>810.1</ele>
        <time>2000-01-01T11:25:06.000Z</time>
      </trkpt>
      <trkpt lat="45.21256" lon="5.90104">
        <ele>804</ele>
        <time>2000-01-01T11:25:16.000Z</time>
      </trkpt>
      <trkpt lat="45.21252" lon="5.901">
        <ele>804.1</ele>
        <time>2000-01-01T11:25:26.000Z</time>
      </trkpt>
      <trkpt lat="45.21244" lon="5.90104">
        <ele>805.3</ele>
        <time>2000-01-01T11:25:36.000Z</time>
      </trkpt>
      <trkpt lat="45.21241" lon="5.90101">
        <ele>804.2</ele>
        <time>2000-01-01T11:25:46.000Z</time>
      </trkpt>
      <trkpt lat="45.21241" lon="5.9009">
        <ele>799</ele>
        <time>2000-01-01T11:25:56.000Z</time>
      </trkpt>
      <trkpt lat="45.21248" lon="5.90081">
        <ele>797.3</ele>
        <time>2000-01-01T11:26:06.000Z</time>
      </trkpt>
      <trkpt lat="45.2127" lon="5.90081">
        <ele>797</ele>
        <time>2000-01-01T11:26:16.000Z</time>
      </trkpt>
      <trkpt lat="45.21276" lon="5.90079">
        <ele>798.5</ele>
        <time>2000-01-01T11:26:26.000Z</time>
      </trkpt>
      <trkpt lat="45.2127" lon="5.90062">
        <ele>790</ele>
        <time>2000-01-01T11:26:36.000Z</time>
      </trkpt>
      <trkpt lat="45.21264" lon="5.90056">
        <ele>790.6</ele>
        <time>2000-01-01T11:26:46.000Z</time>
      </trkpt>
      <trkpt lat="45.21251" lon="5.90051">
        <ele>789</ele>
        <time>2000-01-01T11:26:56.000Z</time>
      </trkpt>
      <trkpt lat="45.21221" lon="5.90027">
        <ele>789</ele>
        <time>2000-01-01T11:27:06.000Z</time>
      </trkpt>
      <trkpt lat="45.21207" lon="5.90022">
        <ele>788.6</ele>
        <time>2000-01-01T11:27:16.000Z</time>
      </trkpt>
      <trkpt lat="45.21192" lon="5.90019">
        <ele>784</ele>
        <time>2000-01-01T11:27:26.000Z</time>
      </trkpt>
      <trkpt lat="45.21186" lon="5.9002">
        <ele>786.4</ele>
        <time>2000-01-01T11:27:36.000Z</time>
      </trkpt>
      <trkpt lat="45.21184" lon="5.90018">
        <ele>785.8</ele>
        <time>2000-01-01T11:27:46.000Z</time>
      </trkpt>
      <trkpt lat="45.2115" lon="5.90023">
        <ele>784</ele>
        <time>2000-01-01T11:27:56.000Z</time>
      </trkpt>
      <trkpt lat="45.21109" lon="5.90004">
        <ele>777</ele>
        <time>2000-01-01T11:28:06.000Z</time>
      </trkpt>
      <trkpt lat="45.21103" lon="5.89998">
        <ele>777.5</ele>
        <time>2000-01-01T11:28:16.000Z</time>
      </trkpt>
      <trkpt lat="45.21091" lon="5.89992">
        <ele>775</ele>
        <time>2000-01-01T11:28:26.000Z</time>
      </trkpt>
      <trkpt lat="45.2105" lon="5.89982">
        <ele>773</ele>
        <time>2000-01-01T11:28:36.000Z</time>
      </trkpt>
      <trkpt lat="45.2104" lon="5.89976">
        <ele>773</ele>
        <time>2000-01-01T11:28:46.000Z</time>
      </trkpt>
      <trkpt lat="45.21038" lon="5.89971">
        <ele>772.2</ele>
        <time>2000-01-01T11:28:56.000Z</time>
      </trkpt>
      <trkpt lat="45.21036" lon="5.89954">
        <ele>769</ele>
        <time>2000-01-01T11:29:06.000Z</time>
      </trkpt>
      <trkpt lat="45.21037" lon="5.89946">
        <ele>769.2</ele>
        <time>2000-01-01T11:29:16.000Z</time>
      </trkpt>
      <trkpt lat="45.21042" lon="5.89938">
        <ele>768.4</ele>
        <time>2000-01-01T11:29:26.000Z</time>
      </trkpt>
      <trkpt lat="45.21055" lon="5.89926">
        <ele>766</ele>
        <time>2000-01-01T11:29:36.000Z</time>
      </trkpt>
      <trkpt lat="45.21068" lon="5.8992">
        <ele>765.9</ele>
        <time>2000-01-01T11:29:46.000Z</time>
      </trkpt>
      <trkpt lat="45.21091" lon="5.89901">
        <ele>763</ele>
        <time>2000-01-01T11:29:56.000Z</time>
      </trkpt>
      <trkpt lat="45.21097" lon="5.89911">
        <ele>763.6</ele>
        <time>2000-01-01T11:30:06.000Z</time>
      </trkpt>
      <trkpt lat="45.21108" lon="5.89782">
        <ele>754</ele>
        <time>2000-01-01T11:30:16.000Z</time>
      </trkpt>
      <trkpt lat="45.21109" lon="5.89742">
        <ele>749</ele>
        <time>2000-01-01T11:30:26.000Z</time>
      </trkpt>
      <trkpt lat="45.21092" lon="5.89715">
        <ele>744</ele>
        <time>2000-01-01T11:30:36.000Z</time>
      </trkpt>
      <trkpt lat="45.21072" lon="5.89685">
        <ele>740</ele>
        <time>2000-01-01T11:30:46.000Z</time>
      </trkpt>
      <trkpt lat="45.21076" lon="5.89649">
        <ele>740</ele>
        <time>2000-01-01T11:30:56.000Z</time>
      </trkpt>
      <trkpt lat="45.21097" lon="5.89625">
        <ele>737</ele>
        <time>2000-01-01T11:31:06.000Z</time>
      </trkpt>
      <trkpt lat="45.21125" lon="5.89592">
        <ele>732</ele>
        <time>2000-01-01T11:31:16.000Z</time>
      </trkpt>
      <trkpt lat="45.21142" lon="5.89561">
        <ele>732</ele>
        <time>2000-01-01T11:31:26.000Z</time>
      </trkpt>
      <trkpt lat="45.21167" lon="5.89517">
        <ele>732</ele>
        <time>2000-01-01T11:31:36.000Z</time>
      </trkpt>
      <trkpt lat="45.21182" lon="5.89489">
        <ele>733</ele>
        <time>2000-01-01T11:31:46.000Z</time>
      </trkpt>
      <trkpt lat="45.21199" lon="5.8946">
        <ele>733</ele>
        <time>2000-01-01T11:31:56.000Z</time>
      </trkpt>
      <trkpt lat="45.21235" lon="5.89443">
        <ele>729</ele>
        <time>2000-01-01T11:32:06.000Z</time>
      </trkpt>
      <trkpt lat="45.21271" lon="5.89427">
        <ele>728</ele>
        <time>2000-01-01T11:32:16.000Z</time>
      </trkpt>
      <trkpt lat="45.21307" lon="5.8941">
        <ele>728</ele>
        <time>2000-01-01T11:32:26.000Z</time>
      </trkpt>
      <trkpt lat="45.21334" lon="5.89398">
        <ele>728</ele>
        <time>2000-01-01T11:32:36.000Z</time>
      </trkpt>
      <trkpt lat="45.21377" lon="5.89378">
        <ele>728</ele>
        <time>2000-01-01T11:32:46.000Z</time>
      </trkpt>
      <trkpt lat="45.21397" lon="5.89348">
        <ele>728</ele>
        <time>2000-01-01T11:32:56.000Z</time>
      </trkpt>
      <trkpt lat="45.21429" lon="5.89302">
        <ele>728</ele>
        <time>2000-01-01T11:33:06.000Z</time>
      </trkpt>
      <trkpt lat="45.21435" lon="5.893">
        <ele>727.7</ele>
        <time>2000-01-01T11:33:16.000Z</time>
      </trkpt>
      <trkpt lat="45.21447" lon="5.893">
        <ele>726.7</ele>
        <time>2000-01-01T11:33:26.000Z</time>
      </trkpt>
      <trkpt lat="45.21491" lon="5.89313">
        <ele>722</ele>
        <time>2000-01-01T11:33:36.000Z</time>
      </trkpt>
      <trkpt lat="45.21517" lon="5.89312">
        <ele>720</ele>
        <time>2000-01-01T11:33:46.000Z</time>
      </trkpt>
      <trkpt lat="45.21546" lon="5.89329">
        <ele>715</ele>
        <time>2000-01-01T11:33:56.000Z</time>
      </trkpt>
      <trkpt lat="45.21553" lon="5.89328">
        <ele>713.1</ele>
        <time>2000-01-01T11:34:06.000Z</time>
      </trkpt>
      <trkpt lat="45.21556" lon="5.8933">
        <ele>712.4</ele>
        <time>2000-01-01T11:34:16.000Z</time>
      </trkpt>
      <trkpt lat="45.21573" lon="5.89324">
        <ele>711</ele>
        <time>2000-01-01T11:34:26.000Z</time>
      </trkpt>
      <trkpt lat="45.21589" lon="5.89311">
        <ele>710</ele>
        <time>2000-01-01T11:34:36.000Z</time>
      </trkpt>
      <trkpt lat="45.21603" lon="5.8931">
        <ele>707</ele>
        <time>2000-01-01T11:34:46.000Z</time>
      </trkpt>
      <trkpt lat="45.21621" lon="5.89301">
        <ele>706</ele>
        <time>2000-01-01T11:34:56.000Z</time>
      </trkpt>
      <trkpt lat="45.21641" lon="5.89301">
        <ele>702</ele>
        <time>2000-01-01T11:35:06.000Z</time>
      </trkpt>
      <trkpt lat="45.2165" lon="5.89304">
        <ele>699.8</ele>
        <time>2000-01-01T11:35:16.000Z</time>
      </trkpt>
      <trkpt lat="45.21677" lon="5.89287">
        <ele>699</ele>
        <time>2000-01-01T11:35:26.000Z</time>
      </trkpt>
      <trkpt lat="45.21696" lon="5.89284">
        <ele>695</ele>
        <time>2000-01-01T11:35:36.000Z</time>
      </trkpt>
      <trkpt lat="45.21718" lon="5.89285">
        <ele>691</ele>
        <time>2000-01-01T11:35:46.000Z</time>
      </trkpt>
      <trkpt lat="45.21721" lon="5.89287">
        <ele>688.3</ele>
        <time>2000-01-01T11:35:56.000Z</time>
      </trkpt>
      <trkpt lat="45.21745" lon="5.89287">
        <ele>685</ele>
        <time>2000-01-01T11:36:06.000Z</time>
      </trkpt>
      <trkpt lat="45.21765" lon="5.89291">
        <ele>678</ele>
        <time>2000-01-01T11:36:16.000Z</time>
      </trkpt>
      <trkpt lat="45.21794" lon="5.89313">
        <ele>669</ele>
        <time>2000-01-01T11:36:26.000Z</time>
      </trkpt>
      <trkpt lat="45.21818" lon="5.89323">
        <ele>666</ele>
        <time>2000-01-01T11:36:36.000Z</time>
      </trkpt>
      <trkpt lat="45.21858" lon="5.89322">
        <ele>664</ele>
        <time>2000-01-01T11:36:46.000Z</time>
      </trkpt>
      <trkpt lat="45.21871" lon="5.89321">
        <ele>661.8</ele>
        <time>2000-01-01T11:36:56.000Z</time>
      </trkpt>
      <trkpt lat="45.21894" lon="5.89303">
        <ele>663</ele>
        <time>2000-01-01T11:37:06.000Z</time>
      </trkpt>
      <trkpt lat="45.21919" lon="5.89289">
        <ele>663</ele>
        <time>2000-01-01T11:37:16.000Z</time>
      </trkpt>
      <trkpt lat="45.2195" lon="5.89286">
        <ele>661</ele>
        <time>2000-01-01T11:37:26.000Z</time>
      </trkpt>
      <trkpt lat="45.21963" lon="5.89287">
        <ele>660.1</ele>
        <time>2000-01-01T11:37:36.000Z</time>
      </trkpt>
      <trkpt lat="45.21991" lon="5.89282">
        <ele>659</ele>
        <time>2000-01-01T11:37:46.000Z</time>
      </trkpt>
      <trkpt lat="45.22008" lon="5.89285">
        <ele>658.3</ele>
        <time>2000-01-01T11:37:56.000Z</time>
      </trkpt>
      <trkpt lat="45.22022" lon="5.89293">
        <ele>656</ele>
        <time>2000-01-01T11:38:06.000Z</time>
      </trkpt>
      <trkpt lat="45.22034" lon="5.89306">
        <ele>652.2</ele>
        <time>2000-01-01T11:38:16.000Z</time>
      </trkpt>
      <trkpt lat="45.22053" lon="5.89312">
        <ele>653</ele>
        <time>2000-01-01T11:38:26.000Z</time>
      </trkpt>
      <trkpt lat="45.2208" lon="5.89306">
        <ele>650</ele>
        <time>2000-01-01T11:38:36.000Z</time>
      </trkpt>
      <trkpt lat="45.22115" lon="5.89299">
        <ele>645</ele>
        <time>2000-01-01T11:38:46.000Z</time>
      </trkpt>
      <trkpt lat="45.22134" lon="5.89299">
        <ele>643</ele>
        <time>2000-01-01T11:38:56.000Z</time>
      </trkpt>
      <trkpt lat="45.22157" lon="5.89292">
        <ele>639</ele>
        <time>2000-01-01T11:39:06.000Z</time>
      </trkpt>
      <trkpt lat="45.22181" lon="5.89286">
        <ele>635</ele>
        <time>2000-01-01T11:39:16.000Z</time>
      </trkpt>
      <trkpt lat="45.22192" lon="5.8928">
        <ele>633</ele>
        <time>2000-01-01T11:39:26.000Z</time>
      </trkpt>
      <trkpt lat="45.22214" lon="5.89258">
        <ele>633</ele>
        <time>2000-01-01T11:39:36.000Z</time>
      </trkpt>
      <trkpt lat="45.22231" lon="5.89245">
        <ele>631</ele>
        <time>2000-01-01T11:39:46.000Z</time>
      </trkpt>
      <trkpt lat="45.22246" lon="5.89221">
        <ele>631</ele>
        <time>2000-01-01T11:39:56.000Z</time>
      </trkpt>
      <trkpt lat="45.2229" lon="5.89198">
        <ele>625</ele>
        <time>2000-01-01T11:40:06.000Z</time>
      </trkpt>
      <trkpt lat="45.22302" lon="5.89195">
        <ele>622.5</ele>
        <time>2000-01-01T11:40:16.000Z</time>
      </trkpt>
      <trkpt lat="45.22343" lon="5.89189">
        <ele>621</ele>
        <time>2000-01-01T11:40:26.000Z</time>
      </trkpt>
      <trkpt lat="45.22368" lon="5.89195">
        <ele>617</ele>
        <time>2000-01-01T11:40:36.000Z</time>
      </trkpt>
      <trkpt lat="45.22396" lon="5.89201">
        <ele>613</ele>
        <time>2000-01-01T11:40:46.000Z</time>
      </trkpt>
      <trkpt lat="45.22421" lon="5.89202">
        <ele>612</ele>
        <time>2000-01-01T11:40:56.000Z</time>
      </trkpt>
      <trkpt lat="45.22449" lon="5.89204">
        <ele>612</ele>
        <time>2000-01-01T11:41:06.000Z</time>
      </trkpt>
      <trkpt lat="45.22466" lon="5.89212">
        <ele>609.1</ele>
        <time>2000-01-01T11:41:16.000Z</time>
      </trkpt>
      <trkpt lat="45.22531" lon="5.89227">
        <ele>608</ele>
        <time>2000-01-01T11:41:26.000Z</time>
      </trkpt>
      <trkpt lat="45.22559" lon="5.89237">
        <ele>603</ele>
        <time>2000-01-01T11:41:36.000Z</time>
      </trkpt>
      <trkpt lat="45.22588" lon="5.8924">
        <ele>603</ele>
        <time>2000-01-01T11:41:46.000Z</time>
      </trkpt>
      <trkpt lat="45.226" lon="5.89236">
        <ele>593.7</ele>
        <time>2000-01-01T11:41:56.000Z</time>
      </trkpt>
      <trkpt lat="45.22628" lon="5.89219">
        <ele>603</ele>
        <time>2000-01-01T11:42:06.000Z</time>
      </trkpt>
      <trkpt lat="45.22641" lon="5.89215">
        <ele>595.6</ele>
        <time>2000-01-01T11:42:16.000Z</time>
      </trkpt>
      <trkpt lat="45.22662" lon="5.89215">
        <ele>593</ele>
        <time>2000-01-01T11:42:26.000Z</time>
      </trkpt>
      <trkpt lat="45.22689" lon="5.89206">
        <ele>592</ele>
        <time>2000-01-01T11:42:36.000Z</time>
      </trkpt>
      <trkpt lat="45.2273" lon="5.89192">
        <ele>583</ele>
        <time>2000-01-01T11:42:46.000Z</time>
      </trkpt>
      <trkpt lat="45.22736" lon="5.89187">
        <ele>580.5</ele>
        <time>2000-01-01T11:42:56.000Z</time>
      </trkpt>
      <trkpt lat="45.22765" lon="5.89132">
        <ele>583</ele>
        <time>2000-01-01T11:43:06.000Z</time>
      </trkpt>
      <trkpt lat="45.22799" lon="5.89109">
        <ele>573</ele>
        <time>2000-01-01T11:43:16.000Z</time>
      </trkpt>
      <trkpt lat="45.22809" lon="5.89099">
        <ele>564.4</ele>
        <time>2000-01-01T11:43:26.000Z</time>
      </trkpt>
      <trkpt lat="45.22813" lon="5.89091">
        <ele>569</ele>
        <time>2000-01-01T11:43:36.000Z</time>
      </trkpt>
      <trkpt lat="45.22812" lon="5.89066">
        <ele>561</ele>
        <time>2000-01-01T11:43:46.000Z</time>
      </trkpt>
      <trkpt lat="45.22803" lon="5.89057">
        <ele>565</ele>
        <time>2000-01-01T11:43:56.000Z</time>
      </trkpt>
      <trkpt lat="45.22791" lon="5.89031">
        <ele>563</ele>
        <time>2000-01-01T11:44:06.000Z</time>
      </trkpt>
      <trkpt lat="45.22772" lon="5.89009">
        <ele>562</ele>
        <time>2000-01-01T11:44:16.000Z</time>
      </trkpt>
      <trkpt lat="45.22764" lon="5.88994">
        <ele>563.4</ele>
        <time>2000-01-01T11:44:26.000Z</time>
      </trkpt>
      <trkpt lat="45.22743" lon="5.88941">
        <ele>546</ele>
        <time>2000-01-01T11:44:36.000Z</time>
      </trkpt>
      <trkpt lat="45.22723" lon="5.88916">
        <ele>537</ele>
        <time>2000-01-01T11:44:46.000Z</time>
      </trkpt>
      <trkpt lat="45.2272" lon="5.889">
        <ele>533.9</ele>
        <time>2000-01-01T11:44:56.000Z</time>
      </trkpt>
      <trkpt lat="45.2271" lon="5.8888">
        <ele>530</ele>
        <time>2000-01-01T11:45:06.000Z</time>
      </trkpt>
      <trkpt lat="45.22706" lon="5.88866">
        <ele>521.9</ele>
        <time>2000-01-01T11:45:16.000Z</time>
      </trkpt>
      <trkpt lat="45.22686" lon="5.88842">
        <ele>520</ele>
        <time>2000-01-01T11:45:26.000Z</time>
      </trkpt>
      <trkpt lat="45.22678" lon="5.88828">
        <ele>515.4</ele>
        <time>2000-01-01T11:45:36.000Z</time>
      </trkpt>
      <trkpt lat="45.22642" lon="5.88791">
        <ele>516</ele>
        <time>2000-01-01T11:45:46.000Z</time>
      </trkpt>
      <trkpt lat="45.22625" lon="5.88762">
        <ele>510</ele>
        <time>2000-01-01T11:45:56.000Z</time>
      </trkpt>
      <trkpt lat="45.22602" lon="5.88724">
        <ele>499</ele>
        <time>2000-01-01T11:46:06.000Z</time>
      </trkpt>
      <trkpt lat="45.22594" lon="5.88704">
        <ele>497.4</ele>
        <time>2000-01-01T11:46:16.000Z</time>
      </trkpt>
      <trkpt lat="45.22571" lon="5.88672">
        <ele>494</ele>
        <time>2000-01-01T11:46:26.000Z</time>
      </trkpt>
      <trkpt lat="45.22551" lon="5.88637">
        <ele>491</ele>
        <time>2000-01-01T11:46:36.000Z</time>
      </trkpt>
      <trkpt lat="45.2252" lon="5.88612">
        <ele>489</ele>
        <time>2000-01-01T11:46:46.000Z</time>
      </trkpt>
      <trkpt lat="45.22498" lon="5.88581">
        <ele>487</ele>
        <time>2000-01-01T11:46:56.000Z</time>
      </trkpt>
      <trkpt lat="45.22477" lon="5.88562">
        <ele>487</ele>
        <time>2000-01-01T11:47:06.000Z</time>
      </trkpt>
      <trkpt lat="45.22457" lon="5.88525">
        <ele>479</ele>
        <time>2000-01-01T11:47:16.000Z</time>
      </trkpt>
      <trkpt lat="45.22453" lon="5.88482">
        <ele>466</ele>
        <time>2000-01-01T11:47:26.000Z</time>
      </trkpt>
      <trkpt lat="45.22472" lon="5.88506">
        <ele>466</ele>
        <time>2000-01-01T11:47:36.000Z</time>
      </trkpt>
      <trkpt lat="45.22494" lon="5.88535">
        <ele>466</ele>
        <time>2000-01-01T11:47:46.000Z</time>
      </trkpt>
      <trkpt lat="45.22528" lon="5.88569">
        <ele>464</ele>
        <time>2000-01-01T11:47:56.000Z</time>
      </trkpt>
      <trkpt lat="45.22558" lon="5.88578">
        <ele>464</ele>
        <time>2000-01-01T11:48:06.000Z</time>
      </trkpt>
      <trkpt lat="45.22593" lon="5.88595">
        <ele>464</ele>
        <time>2000-01-01T11:48:16.000Z</time>
      </trkpt>
      <trkpt lat="45.2262" lon="5.88621">
        <ele>463</ele>
        <time>2000-01-01T11:48:26.000Z</time>
      </trkpt>
      <trkpt lat="45.22648" lon="5.88646">
        <ele>463</ele>
        <time>2000-01-01T11:48:36.000Z</time>
      </trkpt>
      <trkpt lat="45.22682" lon="5.88678">
        <ele>462</ele>
        <time>2000-01-01T11:48:46.000Z</time>
      </trkpt>
      <trkpt lat="45.22704" lon="5.88694">
        <ele>462</ele>
        <time>2000-01-01T11:48:56.000Z</time>
      </trkpt>
      <trkpt lat="45.22728" lon="5.88711">
        <ele>462</ele>
        <time>2000-01-01T11:49:06.000Z</time>
      </trkpt>
      <trkpt lat="45.22754" lon="5.88737">
        <ele>460</ele>
        <time>2000-01-01T11:49:16.000Z</time>
      </trkpt>
      <trkpt lat="45.2278" lon="5.88763">
        <ele>460</ele>
        <time>2000-01-01T11:49:26.000Z</time>
      </trkpt>
      <trkpt lat="45.22809" lon="5.88792">
        <ele>461</ele>
        <time>2000-01-01T11:49:36.000Z</time>
      </trkpt>
      <trkpt lat="45.22833" lon="5.88805">
        <ele>462</ele>
        <time>2000-01-01T11:49:46.000Z</time>
      </trkpt>
      <trkpt lat="45.2286" lon="5.88821">
        <ele>452</ele>
        <time>2000-01-01T11:49:56.000Z</time>
      </trkpt>
      <trkpt lat="45.22885" lon="5.88787">
        <ele>442</ele>
        <time>2000-01-01T11:50:06.000Z</time>
      </trkpt>
      <trkpt lat="45.229" lon="5.88745">
        <ele>429</ele>
        <time>2000-01-01T11:50:16.000Z</time>
      </trkpt>
      <trkpt lat="45.22905" lon="5.88702">
        <ele>419</ele>
        <time>2000-01-01T11:50:26.000Z</time>
      </trkpt>
      <trkpt lat="45.2288" lon="5.88689">
        <ele>421</ele>
        <time>2000-01-01T11:50:36.000Z</time>
      </trkpt>
      <trkpt lat="45.22846" lon="5.88673">
        <ele>419</ele>
        <time>2000-01-01T11:50:46.000Z</time>
      </trkpt>
      <trkpt lat="45.22838" lon="5.88666">
        <ele>423</ele>
        <time>2000-01-01T11:50:56.000Z</time>
      </trkpt>
      <trkpt lat="45.2282" lon="5.88633">
        <ele>418</ele>
        <time>2000-01-01T11:51:06.000Z</time>
      </trkpt>
      <trkpt lat="45.22809" lon="5.88595">
        <ele>414</ele>
        <time>2000-01-01T11:51:16.000Z</time>
      </trkpt>
      <trkpt lat="45.22802" lon="5.88554">
        <ele>403</ele>
        <time>2000-01-01T11:51:26.000Z</time>
      </trkpt>
      <trkpt lat="45.22791" lon="5.88517">
        <ele>391</ele>
        <time>2000-01-01T11:51:36.000Z</time>
      </trkpt>
      <trkpt lat="45.22777" lon="5.88498">
        <ele>389</ele>
        <time>2000-01-01T11:51:46.000Z</time>
      </trkpt>
      <trkpt lat="45.22753" lon="5.88452">
        <ele>374</ele>
        <time>2000-01-01T11:51:56.000Z</time>
      </trkpt>
      <trkpt lat="45.22749" lon="5.8844">
        <ele>371.3</ele>
        <time>2000-01-01T11:52:06.000Z</time>
      </trkpt>
      <trkpt lat="45.22742" lon="5.88432">
        <ele>369.2</ele>
        <time>2000-01-01T11:52:16.000Z</time>
      </trkpt>
      <trkpt lat="45.22732" lon="5.88407">
        <ele>359</ele>
        <time>2000-01-01T11:52:26.000Z</time>
      </trkpt>
      <trkpt lat="45.22729" lon="5.88394">
        <ele>357.2</ele>
        <time>2000-01-01T11:52:36.000Z</time>
      </trkpt>
      <trkpt lat="45.22742" lon="5.88373">
        <ele>346</ele>
        <time>2000-01-01T11:52:46.000Z</time>
      </trkpt>
      <trkpt lat="45.2276" lon="5.88362">
        <ele>336</ele>
        <time>2000-01-01T11:52:56.000Z</time>
      </trkpt>
      <trkpt lat="45.2277" lon="5.88367">
        <ele>337.1</ele>
        <time>2000-01-01T11:53:06.000Z</time>
      </trkpt>
      <trkpt lat="45.2278" lon="5.88364">
        <ele>331</ele>
        <time>2000-01-01T11:53:16.000Z</time>
      </trkpt>
      <trkpt lat="45.22789" lon="5.88368">
        <ele>332.7</ele>
        <time>2000-01-01T11:53:26.000Z</time>
      </trkpt>
      <trkpt lat="45.22799" lon="5.88367">
        <ele>329</ele>
        <time>2000-01-01T11:53:36.000Z</time>
      </trkpt>
      <trkpt lat="45.22808" lon="5.88371">
        <ele>329</ele>
        <time>2000-01-01T11:53:46.000Z</time>
      </trkpt>
      <trkpt lat="45.22828" lon="5.88371">
        <ele>326</ele>
        <time>2000-01-01T11:53:56.000Z</time>
      </trkpt>
      <trkpt lat="45.22855" lon="5.88379">
        <ele>318</ele>
        <time>2000-01-01T11:54:06.000Z</time>
      </trkpt>
      <trkpt lat="45.22865" lon="5.88379">
        <ele>317.1</ele>
        <time>2000-01-01T11:54:16.000Z</time>
      </trkpt>
      <trkpt lat="45.22874" lon="5.88385">
        <ele>315</ele>
        <time>2000-01-01T11:54:26.000Z</time>
      </trkpt>
      <trkpt lat="45.22883" lon="5.88387">
        <ele>314.2</ele>
        <time>2000-01-01T11:54:36.000Z</time>
      </trkpt>
      <trkpt lat="45.22892" lon="5.88384">
        <ele>309.8</ele>
        <time>2000-01-01T11:54:46.000Z</time>
      </trkpt>
      <trkpt lat="45.22903" lon="5.88385">
        <ele>304</ele>
        <time>2000-01-01T11:54:56.000Z</time>
      </trkpt>
      <trkpt lat="45.22912" lon="5.88383">
        <ele>301.5</ele>
        <time>2000-01-01T11:55:06.000Z</time>
      </trkpt>
      <trkpt lat="45.22922" lon="5.88386">
        <ele>297</ele>
        <time>2000-01-01T11:55:16.000Z</time>
      </trkpt>
      <trkpt lat="45.22953" lon="5.88402">
        <ele>291</ele>
        <time>2000-01-01T11:55:26.000Z</time>
      </trkpt>
      <trkpt lat="45.22979" lon="5.88422">
        <ele>287</ele>
        <time>2000-01-01T11:55:36.000Z</time>
      </trkpt>
      <trkpt lat="45.22989" lon="5.88425">
        <ele>281.4</ele>
        <time>2000-01-01T11:55:46.000Z</time>
      </trkpt>
      <trkpt lat="45.23008" lon="5.88417">
        <ele>270</ele>
        <time>2000-01-01T11:55:56.000Z</time>
      </trkpt>
      <trkpt lat="45.23017" lon="5.88419">
        <ele>266.5</ele>
        <time>2000-01-01T11:56:06.000Z</time>
      </trkpt>
      <trkpt lat="45.23044" lon="5.88433">
        <ele>262</ele>
        <time>2000-01-01T11:56:16.000Z</time>
      </trkpt>
      <trkpt lat="45.2306" lon="5.88449">
        <ele>258</ele>
        <time>2000-01-01T11:56:26.000Z</time>
      </trkpt>
      <trkpt lat="45.2307" lon="5.88455">
        <ele>260.2</ele>
        <time>2000-01-01T11:56:36.000Z</time>
      </trkpt>
      <trkpt lat="45.2309" lon="5.8846">
        <ele>258</ele>
        <time>2000-01-01T11:56:46.000Z</time>
      </trkpt>
      <trkpt lat="45.231" lon="5.88467">
        <ele>255.5</ele>
        <time>2000-01-01T11:56:56.000Z</time>
      </trkpt>
      <trkpt lat="45.2312" lon="5.88472">
        <ele>251</ele>
        <time>2000-01-01T11:57:06.000Z</time>
      </trkpt>
      <trkpt lat="45.2315" lon="5.88473">
        <ele>248</ele>
        <time>2000-01-01T11:57:16.000Z</time>
      </trkpt>
      <trkpt lat="45.23156" lon="5.88483">
        <ele>248.2</ele>
        <time>2000-01-01T11:57:26.000Z</time>
      </trkpt>
      <trkpt lat="45.23159" lon="5.88495">
        <ele>248.9</ele>
        <time>2000-01-01T11:57:36.000Z</time>
      </trkpt>
      <trkpt lat="45.23279" lon="5.88544">
        <ele>246</ele>
        <time>2000-01-01T11:57:46.000Z</time>
      </trkpt>
      <trkpt lat="45.23291" lon="5.88518">
        <ele>244</ele>
        <time>2000-01-01T11:57:56.000Z</time>
      </trkpt>
      <trkpt lat="45.23291" lon="5.88488">
        <ele>243</ele>
        <time>2000-01-01T11:58:06.000Z</time>
      </trkpt>
      <trkpt lat="45.23283" lon="5.88463">
        <ele>242</ele>
        <time>2000-01-01T11:58:16.000Z</time>
      </trkpt>
      <trkpt lat="45.2328" lon="5.88437">
        <ele>240.4</ele>
        <time>2000-01-01T11:58:26.000Z</time>
      </trkpt>
      <trkpt lat="45.23281" lon="5.88408">
        <ele>239</ele>
        <time>2000-01-01T11:58:36.000Z</time>
      </trkpt>
      <trkpt lat="45.23265" lon="5.8837">
        <ele>238</ele>
        <time>2000-01-01T11:58:46.000Z</time>
      </trkpt>
      <trkpt lat="45.23239" lon="5.88318">
        <ele>235</ele>
        <time>2000-01-01T11:58:56.000Z</time>
      </trkpt>
      <trkpt lat="45.23234" lon="5.88288">
        <ele>235</ele>
        <time>2000-01-01T11:59:06.000Z</time>
      </trkpt>
      <trkpt lat="45.23229" lon="5.88276">
        <ele>234.9</ele>
        <time>2000-01-01T11:59:16.000Z</time>
      </trkpt>
      <trkpt lat="45.23163" lon="5.88247">
        <ele>234</ele>
        <time>2000-01-01T11:59:26.000Z</time>
      </trkpt>
      <trkpt lat="45.23143" lon="5.88231">
        <ele>233</ele>
        <time>2000-01-01T11:59:36.000Z</time>
      </trkpt>
      <trkpt lat="45.23117" lon="5.88206">
        <ele>232</ele>
        <time>2000-01-01T11:59:46.000Z</time>
      </trkpt>
      <trkpt lat="45.2309" lon="5.88181">
        <ele>231</ele>
        <time>2000-01-01T11:59:56.000Z</time>
      </trkpt>
      <trkpt lat="45.23063" lon="5.88155">
        <ele>230</ele>
        <time>2000-01-01T12:00:06.000Z</time>
      </trkpt>
      <trkpt lat="45.23064" lon="5.88141">
        <ele>230.4</ele>
        <time>2000-01-01T12:00:16.000Z</time>
      </trkpt>
      <trkpt lat="45.23083" lon="5.88116">
        <ele>229</ele>
        <time>2000-01-01T12:00:26.000Z</time>
      </trkpt>
      <trkpt lat="45.23102" lon="5.8808">
        <ele>229</ele>
        <time>2000-01-01T12:00:36.000Z</time>
      </trkpt>
      <trkpt lat="45.23121" lon="5.88044">
        <ele>228</ele>
        <time>2000-01-01T12:00:46.000Z</time>
      </trkpt>
      <trkpt lat="45.23141" lon="5.88007">
        <ele>228</ele>
        <time>2000-01-01T12:00:56.000Z</time>
      </trkpt>
      <trkpt lat="45.23161" lon="5.87968">
        <ele>227</ele>
        <time>2000-01-01T12:01:06.000Z</time>
      </trkpt>
      <trkpt lat="45.23164" lon="5.87954">
        <ele>228</ele>
        <time>2000-01-01T12:01:16.000Z</time>
      </trkpt>
      <trkpt lat="45.23154" lon="5.87946">
        <ele>227</ele>
        <time>2000-01-01T12:01:26.000Z</time>
      </trkpt>
      <trkpt lat="45.23154" lon="5.87931">
        <ele>227.5</ele>
        <time>2000-01-01T12:01:36.000Z</time>
      </trkpt>
      <trkpt lat="45.23181" lon="5.87884">
        <ele>226</ele>
        <time>2000-01-01T12:01:46.000Z</time>
      </trkpt>
      <trkpt lat="45.23198" lon="5.87864">
        <ele>225</ele>
        <time>2000-01-01T12:01:56.000Z</time>
      </trkpt>
      <trkpt lat="45.23228" lon="5.87835">
        <ele>225</ele>
        <time>2000-01-01T12:02:06.000Z</time>
      </trkpt>
      <trkpt lat="45.23238" lon="5.87832">
        <ele>225.6</ele>
        <time>2000-01-01T12:02:16.000Z</time>
      </trkpt>
      <trkpt lat="45.23245" lon="5.87844">
        <ele>225</ele>
        <time>2000-01-01T12:02:26.000Z</time>
      </trkpt>
      <trkpt lat="45.23243" lon="5.87832">
        <ele>225.7</ele>
        <time>2000-01-01T12:02:36.000Z</time>
      </trkpt>
      <trkpt lat="45.23278" lon="5.87788">
        <ele>225</ele>
        <time>2000-01-01T12:02:46.000Z</time>
      </trkpt>
      <trkpt lat="45.23291" lon="5.8781">
        <ele>225</ele>
        <time>2000-01-01T12:02:56.000Z</time>
      </trkpt>
      <trkpt lat="45.2326" lon="5.87771">
        <ele>225</ele>
        <time>2000-01-01T12:03:06.000Z</time>
      </trkpt>
      <trkpt lat="45.2324" lon="5.87735">
        <ele>224</ele>
        <time>2000-01-01T12:03:16.000Z</time>
      </trkpt>
      <trkpt lat="45.2322" lon="5.87699">
        <ele>224</ele>
        <time>2000-01-01T12:03:26.000Z</time>
      </trkpt>
      <trkpt lat="45.23198" lon="5.8766">
        <ele>223</ele>
        <time>2000-01-01T12:03:36.000Z</time>
      </trkpt>
      <trkpt lat="45.2318" lon="5.87638">
        <ele>224</ele>
        <time>2000-01-01T12:03:46.000Z</time>
      </trkpt>
      <trkpt lat="45.23164" lon="5.87611">
        <ele>224</ele>
        <time>2000-01-01T12:03:56.000Z</time>
      </trkpt>
      <trkpt lat="45.23147" lon="5.87582">
        <ele>224</ele>
        <time>2000-01-01T12:04:06.000Z</time>
      </trkpt>
      <trkpt lat="45.23119" lon="5.87542">
        <ele>224</ele>
        <time>2000-01-01T12:04:16.000Z</time>
      </trkpt>
      <trkpt lat="45.23104" lon="5.87515">
        <ele>222</ele>
        <time>2000-01-01T12:04:26.000Z</time>
      </trkpt>
      <trkpt lat="45.23087" lon="5.87485">
        <ele>222</ele>
        <time>2000-01-01T12:04:36.000Z</time>
      </trkpt>
      <trkpt lat="45.23062" lon="5.87447">
        <ele>222</ele>
        <time>2000-01-01T12:04:46.000Z</time>
      </trkpt>
      <trkpt lat="45.23038" lon="5.87409">
        <ele>222</ele>
        <time>2000-01-01T12:04:56.000Z</time>
      </trkpt>
      <trkpt lat="45.23013" lon="5.87372">
        <ele>222</ele>
        <time>2000-01-01T12:05:06.000Z</time>
      </trkpt>
      <trkpt lat="45.22983" lon="5.87325">
        <ele>222</ele>
        <time>2000-01-01T12:05:16.000Z</time>
      </trkpt>
      <trkpt lat="45.22967" lon="5.87297">
        <ele>221</ele>
        <time>2000-01-01T12:05:26.000Z</time>
      </trkpt>
      <trkpt lat="45.2295" lon="5.87267">
        <ele>222</ele>
        <time>2000-01-01T12:05:36.000Z</time>
      </trkpt>
      <trkpt lat="45.22928" lon="5.87234">
        <ele>222</ele>
        <time>2000-01-01T12:05:46.000Z</time>
      </trkpt>
      <trkpt lat="45.22906" lon="5.872">
        <ele>222</ele>
        <time>2000-01-01T12:05:56.000Z</time>
      </trkpt>
      <trkpt lat="45.22883" lon="5.87165">
        <ele>222</ele>
        <time>2000-01-01T12:06:06.000Z</time>
      </trkpt>
      <trkpt lat="45.22864" lon="5.87131">
        <ele>222</ele>
        <time>2000-01-01T12:06:16.000Z</time>
      </trkpt>
      <trkpt lat="45.22847" lon="5.87103">
        <ele>223</ele>
        <time>2000-01-01T12:06:26.000Z</time>
      </trkpt>
      <trkpt lat="45.22828" lon="5.8707">
        <ele>223</ele>
        <time>2000-01-01T12:06:36.000Z</time>
      </trkpt>
      <trkpt lat="45.22805" lon="5.87047">
        <ele>223</ele>
        <time>2000-01-01T12:06:46.000Z</time>
      </trkpt>
      <trkpt lat="45.22778" lon="5.87005">
        <ele>223</ele>
        <time>2000-01-01T12:06:56.000Z</time>
      </trkpt>
      <trkpt lat="45.22775" lon="5.86981">
        <ele>221.5</ele>
        <time>2000-01-01T12:07:06.000Z</time>
      </trkpt>
      <trkpt lat="45.22792" lon="5.86987">
        <ele>223</ele>
        <time>2000-01-01T12:07:16.000Z</time>
      </trkpt>
      <trkpt lat="45.22804" lon="5.86985">
        <ele>224.9</ele>
        <time>2000-01-01T12:07:26.000Z</time>
      </trkpt>
      <trkpt lat="45.22877" lon="5.86889">
        <ele>220</ele>
        <time>2000-01-01T12:07:36.000Z</time>
      </trkpt>
      <trkpt lat="45.22906" lon="5.86847">
        <ele>220</ele>
        <time>2000-01-01T12:07:46.000Z</time>
      </trkpt>
      <trkpt lat="45.22931" lon="5.86805">
        <ele>220</ele>
        <time>2000-01-01T12:07:56.000Z</time>
      </trkpt>
      <trkpt lat="45.22944" lon="5.86776">
        <ele>220</ele>
        <time>2000-01-01T12:08:06.000Z</time>
      </trkpt>
      <trkpt lat="45.22963" lon="5.86723">
        <ele>220</ele>
        <time>2000-01-01T12:08:16.000Z</time>
      </trkpt>
      <trkpt lat="45.22972" lon="5.86687">
        <ele>220</ele>
        <time>2000-01-01T12:08:26.000Z</time>
      </trkpt>
      <trkpt lat="45.22984" lon="5.86642">
        <ele>220</ele>
        <time>2000-01-01T12:08:36.000Z</time>
      </trkpt>
      <trkpt lat="45.22994" lon="5.86588">
        <ele>220</ele>
        <time>2000-01-01T12:08:46.000Z</time>
      </trkpt>
      <trkpt lat="45.22999" lon="5.8655">
        <ele>220</ele>
        <time>2000-01-01T12:08:56.000Z</time>
      </trkpt>
      <trkpt lat="45.23005" lon="5.86499">
        <ele>220</ele>
        <time>2000-01-01T12:09:06.000Z</time>
      </trkpt>
      <trkpt lat="45.23006" lon="5.86467">
        <ele>220</ele>
        <time>2000-01-01T12:09:16.000Z</time>
      </trkpt>
      <trkpt lat="45.23005" lon="5.86432">
        <ele>223</ele>
        <time>2000-01-01T12:09:26.000Z</time>
      </trkpt>
      <trkpt lat="45.23004" lon="5.86394">
        <ele>223</ele>
        <time>2000-01-01T12:09:36.000Z</time>
      </trkpt>
      <trkpt lat="45.22992" lon="5.86355">
        <ele>222</ele>
        <time>2000-01-01T12:09:46.000Z</time>
      </trkpt>
      <trkpt lat="45.23001" lon="5.86309">
        <ele>222</ele>
        <time>2000-01-01T12:09:56.000Z</time>
      </trkpt>
      <trkpt lat="45.22998" lon="5.86278">
        <ele>220</ele>
        <time>2000-01-01T12:10:06.000Z</time>
      </trkpt>
      <trkpt lat="45.22992" lon="5.86226">
        <ele>220</ele>
        <time>2000-01-01T12:10:16.000Z</time>
      </trkpt>
      <trkpt lat="45.22985" lon="5.86189">
        <ele>220</ele>
        <time>2000-01-01T12:10:26.000Z</time>
      </trkpt>
      <trkpt lat="45.22977" lon="5.86142">
        <ele>220</ele>
        <time>2000-01-01T12:10:36.000Z</time>
      </trkpt>
      <trkpt lat="45.22969" lon="5.86106">
        <ele>220</ele>
        <time>2000-01-01T12:10:46.000Z</time>
      </trkpt>
      <trkpt lat="45.22959" lon="5.86062">
        <ele>220</ele>
        <time>2000-01-01T12:10:56.000Z</time>
      </trkpt>
      <trkpt lat="45.22949" lon="5.86012">
        <ele>220</ele>
        <time>2000-01-01T12:11:06.000Z</time>
      </trkpt>
      <trkpt lat="45.2294" lon="5.85963">
        <ele>220</ele>
        <time>2000-01-01T12:11:16.000Z</time>
      </trkpt>
      <trkpt lat="45.2293" lon="5.85913">
        <ele>220</ele>
        <time>2000-01-01T12:11:26.000Z</time>
      </trkpt>
      <trkpt lat="45.22918" lon="5.85851">
        <ele>220</ele>
        <time>2000-01-01T12:11:36.000Z</time>
      </trkpt>
      <trkpt lat="45.22915" lon="5.85814">
        <ele>220</ele>
        <time>2000-01-01T12:11:46.000Z</time>
      </trkpt>
      <trkpt lat="45.22911" lon="5.85768">
        <ele>220</ele>
        <time>2000-01-01T12:11:56.000Z</time>
      </trkpt>
      <trkpt lat="45.22914" lon="5.85731">
        <ele>220</ele>
        <time>2000-01-01T12:12:06.000Z</time>
      </trkpt>
      <trkpt lat="45.22917" lon="5.85687">
        <ele>220</ele>
        <time>2000-01-01T12:12:16.000Z</time>
      </trkpt>
      <trkpt lat="45.22927" lon="5.85629">
        <ele>220</ele>
        <time>2000-01-01T12:12:26.000Z</time>
      </trkpt>
      <trkpt lat="45.22934" lon="5.85603">
        <ele>220</ele>
        <time>2000-01-01T12:12:36.000Z</time>
      </trkpt>
      <trkpt lat="45.22949" lon="5.85571">
        <ele>220</ele>
        <time>2000-01-01T12:12:46.000Z</time>
      </trkpt>
      <trkpt lat="45.22969" lon="5.85529">
        <ele>220</ele>
        <time>2000-01-01T12:12:56.000Z</time>
      </trkpt>
      <trkpt lat="45.22983" lon="5.85521">
        <ele>223.6</ele>
        <time>2000-01-01T12:13:06.000Z</time>
      </trkpt>
      <trkpt lat="45.23" lon="5.85496">
        <ele>219</ele>
        <time>2000-01-01T12:13:16.000Z</time>
      </trkpt>
      <trkpt lat="45.23023" lon="5.85455">
        <ele>218</ele>
        <time>2000-01-01T12:13:26.000Z</time>
      </trkpt>
      <trkpt lat="45.23043" lon="5.85427">
        <ele>218</ele>
        <time>2000-01-01T12:13:36.000Z</time>
      </trkpt>
      <trkpt lat="45.23071" lon="5.85388">
        <ele>223</ele>
        <time>2000-01-01T12:13:46.000Z</time>
      </trkpt>
      <trkpt lat="45.23084" lon="5.85353">
        <ele>223</ele>
        <time>2000-01-01T12:13:56.000Z</time>
      </trkpt>
      <trkpt lat="45.23064" lon="5.85328">
        <ele>223</ele>
        <time>2000-01-01T12:14:06.000Z</time>
      </trkpt>
      <trkpt lat="45.23034" lon="5.85307">
        <ele>223</ele>
        <time>2000-01-01T12:14:16.000Z</time>
      </trkpt>
      <trkpt lat="45.23026" lon="5.85299">
        <ele>222.5</ele>
        <time>2000-01-01T12:14:26.000Z</time>
      </trkpt>
      <trkpt lat="45.23022" lon="5.85289">
        <ele>221.9</ele>
        <time>2000-01-01T12:14:36.000Z</time>
      </trkpt>
      <trkpt lat="45.23021" lon="5.85269">
        <ele>222</ele>
        <time>2000-01-01T12:14:46.000Z</time>
      </trkpt>
      <trkpt lat="45.23039" lon="5.85247">
        <ele>222</ele>
        <time>2000-01-01T12:14:56.000Z</time>
      </trkpt>
      <trkpt lat="45.23057" lon="5.85224">
        <ele>222</ele>
        <time>2000-01-01T12:15:06.000Z</time>
      </trkpt>
      <trkpt lat="45.23079" lon="5.852">
        <ele>222</ele>
        <time>2000-01-01T12:15:16.000Z</time>
      </trkpt>
      <trkpt lat="45.23112" lon="5.85164">
        <ele>222</ele>
        <time>2000-01-01T12:15:26.000Z</time>
      </trkpt>
      <trkpt lat="45.23133" lon="5.8514">
        <ele>222</ele>
        <time>2000-01-01T12:15:36.000Z</time>
      </trkpt>
      <trkpt lat="45.2316" lon="5.85111">
        <ele>222</ele>
        <time>2000-01-01T12:15:46.000Z</time>
      </trkpt>
      <trkpt lat="45.23167" lon="5.85096">
        <ele>221.5</ele>
        <time>2000-01-01T12:15:56.000Z</time>
      </trkpt>
      <trkpt lat="45.23209" lon="5.85059">
        <ele>222</ele>
        <time>2000-01-01T12:16:06.000Z</time>
      </trkpt>
      <trkpt lat="45.23242" lon="5.85046">
        <ele>222</ele>
        <time>2000-01-01T12:16:16.000Z</time>
      </trkpt>
      <trkpt lat="45.23285" lon="5.85038">
        <ele>222</ele>
        <time>2000-01-01T12:16:26.000Z</time>
      </trkpt>
      <trkpt lat="45.23307" lon="5.85024">
        <ele>222</ele>
        <time>2000-01-01T12:16:36.000Z</time>
      </trkpt>
      <trkpt lat="45.23315" lon="5.85022">
        <ele>222</ele>
        <time>2000-01-01T12:16:46.000Z</time>
      </trkpt>
      <trkpt lat="45.23348" lon="5.84984">
        <ele>222</ele>
        <time>2000-01-01T12:16:56.000Z</time>
      </trkpt>
      <trkpt lat="45.23367" lon="5.84966">
        <ele>221</ele>
        <time>2000-01-01T12:17:06.000Z</time>
      </trkpt>
      <trkpt lat="45.2339" lon="5.84948">
        <ele>221</ele>
        <time>2000-01-01T12:17:16.000Z</time>
      </trkpt>
      <trkpt lat="45.2342" lon="5.84925">
        <ele>221</ele>
        <time>2000-01-01T12:17:26.000Z</time>
      </trkpt>
      <trkpt lat="45.2343" lon="5.84913">
        <ele>220.6</ele>
        <time>2000-01-01T12:17:36.000Z</time>
      </trkpt>
      <trkpt lat="45.23432" lon="5.84868">
        <ele>221</ele>
        <time>2000-01-01T12:17:46.000Z</time>
      </trkpt>
      <trkpt lat="45.23431" lon="5.84824">
        <ele>221</ele>
        <time>2000-01-01T12:17:56.000Z</time>
      </trkpt>
      <trkpt lat="45.23429" lon="5.84786">
        <ele>221</ele>
        <time>2000-01-01T12:18:06.000Z</time>
      </trkpt>
      <trkpt lat="45.23428" lon="5.8474">
        <ele>221</ele>
        <time>2000-01-01T12:18:16.000Z</time>
      </trkpt>
      <trkpt lat="45.23424" lon="5.84713">
        <ele>221</ele>
        <time>2000-01-01T12:18:26.000Z</time>
      </trkpt>
      <trkpt lat="45.23423" lon="5.84685">
        <ele>221</ele>
        <time>2000-01-01T12:18:36.000Z</time>
      </trkpt>
      <trkpt lat="45.23413" lon="5.84627">
        <ele>221</ele>
        <time>2000-01-01T12:18:46.000Z</time>
      </trkpt>
      <trkpt lat="45.23408" lon="5.84613">
        <ele>222</ele>
        <time>2000-01-01T12:18:56.000Z</time>
      </trkpt>
      <trkpt lat="45.23416" lon="5.84602">
        <ele>221</ele>
        <time>2000-01-01T12:19:06.000Z</time>
      </trkpt>
      <trkpt lat="45.23441" lon="5.84586">
        <ele>223</ele>
        <time>2000-01-01T12:19:16.000Z</time>
      </trkpt>
      <trkpt lat="45.23475" lon="5.84564">
        <ele>223</ele>
        <time>2000-01-01T12:19:26.000Z</time>
      </trkpt>
      <trkpt lat="45.23497" lon="5.84551">
        <ele>223</ele>
        <time>2000-01-01T12:19:36.000Z</time>
      </trkpt>
      <trkpt lat="45.2352" lon="5.84538">
        <ele>224</ele>
        <time>2000-01-01T12:19:46.000Z</time>
      </trkpt>
      <trkpt lat="45.23525" lon="5.84538">
        <ele>224.5</ele>
        <time>2000-01-01T12:19:56.000Z</time>
      </trkpt>
      <trkpt lat="45.23551" lon="5.84518">
        <ele>225</ele>
        <time>2000-01-01T12:20:06.000Z</time>
      </trkpt>
      <trkpt lat="45.23575" lon="5.84503">
        <ele>226</ele>
        <time>2000-01-01T12:20:16.000Z</time>
      </trkpt>
      <trkpt lat="45.23604" lon="5.84486">
        <ele>227</ele>
        <time>2000-01-01T12:20:26.000Z</time>
      </trkpt>
      <trkpt lat="45.23629" lon="5.84464">
        <ele>228</ele>
        <time>2000-01-01T12:20:36.000Z</time>
      </trkpt>
      <trkpt lat="45.2365" lon="5.84446">
        <ele>228</ele>
        <time>2000-01-01T12:20:46.000Z</time>
      </trkpt>
      <trkpt lat="45.23671" lon="5.84428">
        <ele>230</ele>
        <time>2000-01-01T12:20:56.000Z</time>
      </trkpt>
      <trkpt lat="45.23696" lon="5.84422">
        <ele>230</ele>
        <time>2000-01-01T12:21:06.000Z</time>
      </trkpt>
      <trkpt lat="45.23704" lon="5.84423">
        <ele>231.6</ele>
        <time>2000-01-01T12:21:16.000Z</time>
      </trkpt>
      <trkpt lat="45.23719" lon="5.84438">
        <ele>232</ele>
        <time>2000-01-01T12:21:26.000Z</time>
      </trkpt>
      <trkpt lat="45.2373" lon="5.84441">
        <ele>232.6</ele>
        <time>2000-01-01T12:21:36.000Z</time>
      </trkpt>
      <trkpt lat="45.23771" lon="5.84475">
        <ele>235</ele>
        <time>2000-01-01T12:21:46.000Z</time>
      </trkpt>
      <trkpt lat="45.23783" lon="5.84492">
        <ele>237.1</ele>
        <time>2000-01-01T12:21:56.000Z</time>
      </trkpt>
      <trkpt lat="45.23793" lon="5.84516">
        <ele>235</ele>
        <time>2000-01-01T12:22:06.000Z</time>
      </trkpt>
      <trkpt lat="45.2381" lon="5.8454">
        <ele>235</ele>
        <time>2000-01-01T12:22:16.000Z</time>
      </trkpt>
      <trkpt lat="45.23828" lon="5.84565">
        <ele>237</ele>
        <time>2000-01-01T12:22:26.000Z</time>
      </trkpt>
      <trkpt lat="45.23834" lon="5.84582">
        <ele>238.1</ele>
        <time>2000-01-01T12:22:36.000Z</time>
      </trkpt>
      <trkpt lat="45.23863" lon="5.84636">
        <ele>238</ele>
        <time>2000-01-01T12:22:46.000Z</time>
      </trkpt>
      <trkpt lat="45.23879" lon="5.84682">
        <ele>238</ele>
        <time>2000-01-01T12:22:56.000Z</time>
      </trkpt>
      <trkpt lat="45.23894" lon="5.84715">
        <ele>239</ele>
        <time>2000-01-01T12:23:06.000Z</time>
      </trkpt>
      <trkpt lat="45.23909" lon="5.84732">
        <ele>240</ele>
        <time>2000-01-01T12:23:16.000Z</time>
      </trkpt>
      <trkpt lat="45.23936" lon="5.84755">
        <ele>242</ele>
        <time>2000-01-01T12:23:26.000Z</time>
      </trkpt>
      <trkpt lat="45.23949" lon="5.84763">
        <ele>244.2</ele>
        <time>2000-01-01T12:23:36.000Z</time>
      </trkpt>
      <trkpt lat="45.2396" lon="5.84762">
        <ele>244</ele>
        <time>2000-01-01T12:23:46.000Z</time>
      </trkpt>
      <trkpt lat="45.23977" lon="5.84747">
        <ele>242</ele>
        <time>2000-01-01T12:23:56.000Z</time>
      </trkpt>
      <trkpt lat="45.24002" lon="5.8473">
        <ele>244</ele>
        <time>2000-01-01T12:24:06.000Z</time>
      </trkpt>
      <trkpt lat="45.24035" lon="5.84708">
        <ele>247</ele>
        <time>2000-01-01T12:24:16.000Z</time>
      </trkpt>
      <trkpt lat="45.24048" lon="5.84703">
        <ele>247.6</ele>
        <time>2000-01-01T12:24:26.000Z</time>
      </trkpt>
      <trkpt lat="45.24061" lon="5.84703">
        <ele>248</ele>
        <time>2000-01-01T12:24:36.000Z</time>
      </trkpt>
      <trkpt lat="45.24078" lon="5.84709">
        <ele>248.8</ele>
        <time>2000-01-01T12:24:46.000Z</time>
      </trkpt>
      <trkpt lat="45.2409" lon="5.84709">
        <ele>249</ele>
        <time>2000-01-01T12:24:56.000Z</time>
      </trkpt>
      <trkpt lat="45.24102" lon="5.84714">
        <ele>249.7</ele>
        <time>2000-01-01T12:25:06.000Z</time>
      </trkpt>
      <trkpt lat="45.24109" lon="5.84726">
        <ele>249</ele>
        <time>2000-01-01T12:25:16.000Z</time>
      </trkpt>
      <trkpt lat="45.24119" lon="5.8477">
        <ele>249</ele>
        <time>2000-01-01T12:25:26.000Z</time>
      </trkpt>
      <trkpt lat="45.24126" lon="5.8479">
        <ele>249.6</ele>
        <time>2000-01-01T12:25:36.000Z</time>
      </trkpt>
      <trkpt lat="45.24132" lon="5.84803">
        <ele>249</ele>
        <time>2000-01-01T12:25:46.000Z</time>
      </trkpt>
      <trkpt lat="45.24142" lon="5.84816">
        <ele>250</ele>
        <time>2000-01-01T12:25:56.000Z</time>
      </trkpt>
      <trkpt lat="45.24175" lon="5.8484">
        <ele>250</ele>
        <time>2000-01-01T12:26:06.000Z</time>
      </trkpt>
      <trkpt lat="45.2422" lon="5.84839">
        <ele>250</ele>
        <time>2000-01-01T12:26:16.000Z</time>
      </trkpt>
      <trkpt lat="45.24239" lon="5.8486">
        <ele>250</ele>
        <time>2000-01-01T12:26:26.000Z</time>
      </trkpt>
      <trkpt lat="45.24266" lon="5.84869">
        <ele>251</ele>
        <time>2000-01-01T12:26:36.000Z</time>
      </trkpt>
      <trkpt lat="45.24296" lon="5.84878">
        <ele>252</ele>
        <time>2000-01-01T12:26:46.000Z</time>
      </trkpt>
      <trkpt lat="45.24313" lon="5.8488">
        <ele>253.4</ele>
        <time>2000-01-01T12:26:56.000Z</time>
      </trkpt>
      <trkpt lat="45.24315" lon="5.84878">
        <ele>252</ele>
        <time>2000-01-01T12:27:06.000Z</time>
      </trkpt>
      <trkpt lat="45.24345" lon="5.84879">
        <ele>254</ele>
        <time>2000-01-01T12:27:16.000Z</time>
      </trkpt>
      <trkpt lat="45.24368" lon="5.84861">
        <ele>257</ele>
        <time>2000-01-01T12:27:26.000Z</time>
      </trkpt>
      <trkpt lat="45.24379" lon="5.84845">
        <ele>258.5</ele>
        <time>2000-01-01T12:27:36.000Z</time>
      </trkpt>
      <trkpt lat="45.2439" lon="5.84835">
        <ele>257</ele>
        <time>2000-01-01T12:27:46.000Z</time>
      </trkpt>
      <trkpt lat="45.24404" lon="5.84827">
        <ele>259</ele>
        <time>2000-01-01T12:27:56.000Z</time>
      </trkpt>
      <trkpt lat="45.2443" lon="5.84822">
        <ele>259</ele>
        <time>2000-01-01T12:28:06.000Z</time>
      </trkpt>
      <trkpt lat="45.24474" lon="5.84828">
        <ele>261</ele>
        <time>2000-01-01T12:28:16.000Z</time>
      </trkpt>
      <trkpt lat="45.24485" lon="5.84834">
        <ele>263.1</ele>
        <time>2000-01-01T12:28:26.000Z</time>
      </trkpt>
      <trkpt lat="45.24497" lon="5.84844">
        <ele>263</ele>
        <time>2000-01-01T12:28:36.000Z</time>
      </trkpt>
      <trkpt lat="45.24505" lon="5.84858">
        <ele>265.7</ele>
        <time>2000-01-01T12:28:46.000Z</time>
      </trkpt>
      <trkpt lat="45.24537" lon="5.84899">
        <ele>268</ele>
        <time>2000-01-01T12:28:56.000Z</time>
      </trkpt>
      <trkpt lat="45.2454" lon="5.84914">
        <ele>271.2</ele>
        <time>2000-01-01T12:29:06.000Z</time>
      </trkpt>
      <trkpt lat="45.24539" lon="5.8493">
        <ele>272</ele>
        <time>2000-01-01T12:29:16.000Z</time>
      </trkpt>
      <trkpt lat="45.24533" lon="5.84957">
        <ele>275</ele>
        <time>2000-01-01T12:29:26.000Z</time>
      </trkpt>
      <trkpt lat="45.24529" lon="5.84962">
        <ele>276.8</ele>
        <time>2000-01-01T12:29:36.000Z</time>
      </trkpt>
      <trkpt lat="45.24521" lon="5.84992">
        <ele>280</ele>
        <time>2000-01-01T12:29:46.000Z</time>
      </trkpt>
      <trkpt lat="45.24519" lon="5.85009">
        <ele>280.9</ele>
        <time>2000-01-01T12:29:56.000Z</time>
      </trkpt>
      <trkpt lat="45.24522" lon="5.85016">
        <ele>280.9</ele>
        <time>2000-01-01T12:30:06.000Z</time>
      </trkpt>
      <trkpt lat="45.24523" lon="5.85031">
        <ele>280</ele>
        <time>2000-01-01T12:30:16.000Z</time>
      </trkpt>
      <trkpt lat="45.24516" lon="5.85043">
        <ele>279.2</ele>
        <time>2000-01-01T12:30:26.000Z</time>
      </trkpt>
      <trkpt lat="45.24519" lon="5.85053">
        <ele>278.6</ele>
        <time>2000-01-01T12:30:36.000Z</time>
      </trkpt>
      <trkpt lat="45.24555" lon="5.85078">
        <ele>279</ele>
        <time>2000-01-01T12:30:46.000Z</time>
      </trkpt>
      <trkpt lat="45.24579" lon="5.85099">
        <ele>278</ele>
        <time>2000-01-01T12:30:56.000Z</time>
      </trkpt>
      <trkpt lat="45.24614" lon="5.8513">
        <ele>278</ele>
        <time>2000-01-01T12:31:06.000Z</time>
      </trkpt>
      <trkpt lat="45.24622" lon="5.85124">
        <ele>278.2</ele>
        <time>2000-01-01T12:31:16.000Z</time>
      </trkpt>
      <trkpt lat="45.2464" lon="5.85096">
        <ele>279</ele>
        <time>2000-01-01T12:31:26.000Z</time>
      </trkpt>
      <trkpt lat="45.24648" lon="5.85099">
        <ele>279.9</ele>
        <time>2000-01-01T12:31:36.000Z</time>
      </trkpt>
      <trkpt lat="45.24652" lon="5.85108">
        <ele>279.9</ele>
        <time>2000-01-01T12:31:46.000Z</time>
      </trkpt>
      <trkpt lat="45.24669" lon="5.85131">
        <ele>279</ele>
        <time>2000-01-01T12:31:56.000Z</time>
      </trkpt>
      <trkpt lat="45.24696" lon="5.85152">
        <ele>279</ele>
        <time>2000-01-01T12:32:06.000Z</time>
      </trkpt>
      <trkpt lat="45.24713" lon="5.85172">
        <ele>279</ele>
        <time>2000-01-01T12:32:16.000Z</time>
      </trkpt>
      <trkpt lat="45.24723" lon="5.85177">
        <ele>280</ele>
        <time>2000-01-01T12:32:26.000Z</time>
      </trkpt>
      <trkpt lat="45.24732" lon="5.85178">
        <ele>279</ele>
        <time>2000-01-01T12:32:36.000Z</time>
      </trkpt>
      <trkpt lat="45.24769" lon="5.85142">
        <ele>279</ele>
        <time>2000-01-01T12:32:46.000Z</time>
      </trkpt>
      <trkpt lat="45.24784" lon="5.85131">
        <ele>279.8</ele>
        <time>2000-01-01T12:32:56.000Z</time>
      </trkpt>
      <trkpt lat="45.24833" lon="5.85119">
        <ele>280</ele>
        <time>2000-01-01T12:33:06.000Z</time>
      </trkpt>
      <trkpt lat="45.24867" lon="5.85122">
        <ele>281</ele>
        <time>2000-01-01T12:33:16.000Z</time>
      </trkpt>
      <trkpt lat="45.24877" lon="5.85126">
        <ele>282.4</ele>
        <time>2000-01-01T12:33:26.000Z</time>
      </trkpt>
      <trkpt lat="45.24904" lon="5.85155">
        <ele>283</ele>
        <time>2000-01-01T12:33:36.000Z</time>
      </trkpt>
      <trkpt lat="45.24917" lon="5.85151">
        <ele>284.6</ele>
        <time>2000-01-01T12:33:46.000Z</time>
      </trkpt>
      <trkpt lat="45.24889" lon="5.8514">
        <ele>283</ele>
        <time>2000-01-01T12:33:56.000Z</time>
      </trkpt>
      <trkpt lat="45.24903" lon="5.85155">
        <ele>284</ele>
        <time>2000-01-01T12:34:06.000Z</time>
      </trkpt>
      <trkpt lat="45.24917" lon="5.85151">
        <ele>284</ele>
        <time>2000-01-01T12:34:16.000Z</time>
      </trkpt>
      <trkpt lat="45.2494" lon="5.85135">
        <ele>285</ele>
        <time>2000-01-01T12:34:26.000Z</time>
      </trkpt>
      <trkpt lat="45.24949" lon="5.85135">
        <ele>286.5</ele>
        <time>2000-01-01T12:34:36.000Z</time>
      </trkpt>
      <trkpt lat="45.24966" lon="5.85138">
        <ele>286</ele>
        <time>2000-01-01T12:34:46.000Z</time>
      </trkpt>
      <trkpt lat="45.24975" lon="5.85137">
        <ele>288.3</ele>
        <time>2000-01-01T12:34:56.000Z</time>
      </trkpt>
      <trkpt lat="45.25" lon="5.85145">
        <ele>290</ele>
        <time>2000-01-01T12:35:06.000Z</time>
      </trkpt>
      <trkpt lat="45.25027" lon="5.85149">
        <ele>291</ele>
        <time>2000-01-01T12:35:16.000Z</time>
      </trkpt>
      <trkpt lat="45.25063" lon="5.85155">
        <ele>294</ele>
        <time>2000-01-01T12:35:26.000Z</time>
      </trkpt>
      <trkpt lat="45.25096" lon="5.85161">
        <ele>296</ele>
        <time>2000-01-01T12:35:36.000Z</time>
      </trkpt>
      <trkpt lat="45.25103" lon="5.85157">
        <ele>297.5</ele>
        <time>2000-01-01T12:35:46.000Z</time>
      </trkpt>
      <trkpt lat="45.25104" lon="5.85154">
        <ele>297.6</ele>
        <time>2000-01-01T12:35:56.000Z</time>
      </trkpt>
      <trkpt lat="45.25104" lon="5.85135">
        <ele>297</ele>
        <time>2000-01-01T12:36:06.000Z</time>
      </trkpt>
      <trkpt lat="45.25099" lon="5.85115">
        <ele>298</ele>
        <time>2000-01-01T12:36:16.000Z</time>
      </trkpt>
      <trkpt lat="45.2507" lon="5.85065">
        <ele>297</ele>
        <time>2000-01-01T12:36:26.000Z</time>
      </trkpt>
      <trkpt lat="45.25061" lon="5.85055">
        <ele>297.6</ele>
        <time>2000-01-01T12:36:36.000Z</time>
      </trkpt>
      <trkpt lat="45.25044" lon="5.85028">
        <ele>297</ele>
        <time>2000-01-01T12:36:46.000Z</time>
      </trkpt>
      <trkpt lat="45.25035" lon="5.85007">
        <ele>297.5</ele>
        <time>2000-01-01T12:36:56.000Z</time>
      </trkpt>
      <trkpt lat="45.25028" lon="5.84964">
        <ele>297</ele>
        <time>2000-01-01T12:37:06.000Z</time>
      </trkpt>
      <trkpt lat="45.25031" lon="5.8495">
        <ele>298.2</ele>
        <time>2000-01-01T12:37:16.000Z</time>
      </trkpt>
      <trkpt lat="45.2503" lon="5.8493">
        <ele>297</ele>
        <time>2000-01-01T12:37:26.000Z</time>
      </trkpt>
      <trkpt lat="45.25037" lon="5.84899">
        <ele>297</ele>
        <time>2000-01-01T12:37:36.000Z</time>
      </trkpt>
      <trkpt lat="45.25048" lon="5.84867">
        <ele>297</ele>
        <time>2000-01-01T12:37:46.000Z</time>
      </trkpt>
      <trkpt lat="45.2506" lon="5.84831">
        <ele>297</ele>
        <time>2000-01-01T12:37:56.000Z</time>
      </trkpt>
      <trkpt lat="45.25071" lon="5.8481">
        <ele>298.1</ele>
        <time>2000-01-01T12:38:06.000Z</time>
      </trkpt>
      <trkpt lat="45.25093" lon="5.84756">
        <ele>299</ele>
        <time>2000-01-01T12:38:16.000Z</time>
      </trkpt>
      <trkpt lat="45.251" lon="5.84718">
        <ele>301</ele>
        <time>2000-01-01T12:38:26.000Z</time>
      </trkpt>
      <trkpt lat="45.25106" lon="5.84702">
        <ele>302.2</ele>
        <time>2000-01-01T12:38:36.000Z</time>
      </trkpt>
      <trkpt lat="45.25125" lon="5.84676">
        <ele>304</ele>
        <time>2000-01-01T12:38:46.000Z</time>
      </trkpt>
      <trkpt lat="45.25147" lon="5.84655">
        <ele>306</ele>
        <time>2000-01-01T12:38:56.000Z</time>
      </trkpt>
      <trkpt lat="45.25176" lon="5.84629">
        <ele>309</ele>
        <time>2000-01-01T12:39:06.000Z</time>
      </trkpt>
      <trkpt lat="45.25192" lon="5.84618">
        <ele>310.8</ele>
        <time>2000-01-01T12:39:16.000Z</time>
      </trkpt>
      <trkpt lat="45.25232" lon="5.84593">
        <ele>314</ele>
        <time>2000-01-01T12:39:26.000Z</time>
      </trkpt>
      <trkpt lat="45.25255" lon="5.84582">
        <ele>316</ele>
        <time>2000-01-01T12:39:36.000Z</time>
      </trkpt>
      <trkpt lat="45.2528" lon="5.8457">
        <ele>318</ele>
        <time>2000-01-01T12:39:46.000Z</time>
      </trkpt>
      <trkpt lat="45.2529" lon="5.84562">
        <ele>319.6</ele>
        <time>2000-01-01T12:39:56.000Z</time>
      </trkpt>
      <trkpt lat="45.25328" lon="5.84546">
        <ele>322</ele>
        <time>2000-01-01T12:40:06.000Z</time>
      </trkpt>
      <trkpt lat="45.25349" lon="5.84533">
        <ele>324</ele>
        <time>2000-01-01T12:40:16.000Z</time>
      </trkpt>
      <trkpt lat="45.25373" lon="5.84513">
        <ele>328</ele>
        <time>2000-01-01T12:40:26.000Z</time>
      </trkpt>
      <trkpt lat="45.25405" lon="5.84486">
        <ele>331</ele>
        <time>2000-01-01T12:40:36.000Z</time>
      </trkpt>
      <trkpt lat="45.25415" lon="5.8448">
        <ele>332.9</ele>
        <time>2000-01-01T12:40:46.000Z</time>
      </trkpt>
      <trkpt lat="45.25439" lon="5.84472">
        <ele>334</ele>
        <time>2000-01-01T12:40:56.000Z</time>
      </trkpt>
      <trkpt lat="45.25446" lon="5.84473">
        <ele>336.1</ele>
        <time>2000-01-01T12:41:06.000Z</time>
      </trkpt>
      <trkpt lat="45.255" lon="5.84499">
        <ele>339</ele>
        <time>2000-01-01T12:41:16.000Z</time>
      </trkpt>
      <trkpt lat="45.25517" lon="5.8451">
        <ele>342.5</ele>
        <time>2000-01-01T12:41:26.000Z</time>
      </trkpt>
      <trkpt lat="45.25545" lon="5.84505">
        <ele>344</ele>
        <time>2000-01-01T12:41:36.000Z</time>
      </trkpt>
      <trkpt lat="45.25562" lon="5.84485">
        <ele>347</ele>
        <time>2000-01-01T12:41:46.000Z</time>
      </trkpt>
      <trkpt lat="45.25588" lon="5.8446">
        <ele>349</ele>
        <time>2000-01-01T12:41:56.000Z</time>
      </trkpt>
      <trkpt lat="45.25619" lon="5.84433">
        <ele>352</ele>
        <time>2000-01-01T12:42:06.000Z</time>
      </trkpt>
      <trkpt lat="45.25649" lon="5.84407">
        <ele>356</ele>
        <time>2000-01-01T12:42:16.000Z</time>
      </trkpt>
      <trkpt lat="45.2568" lon="5.8438">
        <ele>359</ele>
        <time>2000-01-01T12:42:26.000Z</time>
      </trkpt>
      <trkpt lat="45.25714" lon="5.84351">
        <ele>364</ele>
        <time>2000-01-01T12:42:36.000Z</time>
      </trkpt>
      <trkpt lat="45.25733" lon="5.84341">
        <ele>366</ele>
        <time>2000-01-01T12:42:46.000Z</time>
      </trkpt>
      <trkpt lat="45.25753" lon="5.84335">
        <ele>368</ele>
        <time>2000-01-01T12:42:56.000Z</time>
      </trkpt>
      <trkpt lat="45.25782" lon="5.84336">
        <ele>371</ele>
        <time>2000-01-01T12:43:06.000Z</time>
      </trkpt>
      <trkpt lat="45.25799" lon="5.8433">
        <ele>373.3</ele>
        <time>2000-01-01T12:43:16.000Z</time>
      </trkpt>
      <trkpt lat="45.25808" lon="5.84324">
        <ele>373</ele>
        <time>2000-01-01T12:43:26.000Z</time>
      </trkpt>
      <trkpt lat="45.25838" lon="5.84287">
        <ele>377</ele>
        <time>2000-01-01T12:43:36.000Z</time>
      </trkpt>
      <trkpt lat="45.25863" lon="5.84266">
        <ele>381</ele>
        <time>2000-01-01T12:43:46.000Z</time>
      </trkpt>
      <trkpt lat="45.259" lon="5.84247">
        <ele>384</ele>
        <time>2000-01-01T12:43:56.000Z</time>
      </trkpt>
      <trkpt lat="45.25927" lon="5.8423">
        <ele>388</ele>
        <time>2000-01-01T12:44:06.000Z</time>
      </trkpt>
      <trkpt lat="45.25949" lon="5.84216">
        <ele>390</ele>
        <time>2000-01-01T12:44:16.000Z</time>
      </trkpt>
      <trkpt lat="45.25972" lon="5.84201">
        <ele>394</ele>
        <time>2000-01-01T12:44:26.000Z</time>
      </trkpt>
      <trkpt lat="45.25995" lon="5.84189">
        <ele>397</ele>
        <time>2000-01-01T12:44:36.000Z</time>
      </trkpt>
      <trkpt lat="45.26015" lon="5.84186">
        <ele>399</ele>
        <time>2000-01-01T12:44:46.000Z</time>
      </trkpt>
      <trkpt lat="45.26048" lon="5.84166">
        <ele>403</ele>
        <time>2000-01-01T12:44:56.000Z</time>
      </trkpt>
      <trkpt lat="45.26074" lon="5.84152">
        <ele>406</ele>
        <time>2000-01-01T12:45:06.000Z</time>
      </trkpt>
      <trkpt lat="45.26109" lon="5.84134">
        <ele>410</ele>
        <time>2000-01-01T12:45:16.000Z</time>
      </trkpt>
      <trkpt lat="45.26124" lon="5.84132">
        <ele>413.6</ele>
        <time>2000-01-01T12:45:26.000Z</time>
      </trkpt>
      <trkpt lat="45.26124" lon="5.84123">
        <ele>413</ele>
        <time>2000-01-01T12:45:36.000Z</time>
      </trkpt>
      <trkpt lat="45.26112" lon="5.84094">
        <ele>413</ele>
        <time>2000-01-01T12:45:46.000Z</time>
      </trkpt>
      <trkpt lat="45.26103" lon="5.84048">
        <ele>414</ele>
        <time>2000-01-01T12:45:56.000Z</time>
      </trkpt>
      <trkpt lat="45.26088" lon="5.83996">
        <ele>414</ele>
        <time>2000-01-01T12:46:06.000Z</time>
      </trkpt>
      <trkpt lat="45.26072" lon="5.83954">
        <ele>414</ele>
        <time>2000-01-01T12:46:16.000Z</time>
      </trkpt>
      <trkpt lat="45.26052" lon="5.8392">
        <ele>414</ele>
        <time>2000-01-01T12:46:26.000Z</time>
      </trkpt>
      <trkpt lat="45.26049" lon="5.83911">
        <ele>414.1</ele>
        <time>2000-01-01T12:46:36.000Z</time>
      </trkpt>
      <trkpt lat="45.26028" lon="5.83819">
        <ele>411</ele>
        <time>2000-01-01T12:46:46.000Z</time>
      </trkpt>
      <trkpt lat="45.26029" lon="5.83788">
        <ele>412</ele>
        <time>2000-01-01T12:46:56.000Z</time>
      </trkpt>
      <trkpt lat="45.26064" lon="5.8377">
        <ele>414</ele>
        <time>2000-01-01T12:47:06.000Z</time>
      </trkpt>
      <trkpt lat="45.26088" lon="5.83762">
        <ele>416</ele>
        <time>2000-01-01T12:47:16.000Z</time>
      </trkpt>
      <trkpt lat="45.26114" lon="5.83753">
        <ele>420</ele>
        <time>2000-01-01T12:47:26.000Z</time>
      </trkpt>
      <trkpt lat="45.26123" lon="5.83761">
        <ele>422.1</ele>
        <time>2000-01-01T12:47:36.000Z</time>
      </trkpt>
      <trkpt lat="45.26128" lon="5.8377">
        <ele>423.2</ele>
        <time>2000-01-01T12:47:46.000Z</time>
      </trkpt>
      <trkpt lat="45.26135" lon="5.83775">
        <ele>422</ele>
        <time>2000-01-01T12:47:56.000Z</time>
      </trkpt>
      <trkpt lat="45.26143" lon="5.83778">
        <ele>425.6</ele>
        <time>2000-01-01T12:48:06.000Z</time>
      </trkpt>
      <trkpt lat="45.26153" lon="5.83777">
        <ele>427</ele>
        <time>2000-01-01T12:48:16.000Z</time>
      </trkpt>
      <trkpt lat="45.26178" lon="5.83768">
        <ele>429</ele>
        <time>2000-01-01T12:48:26.000Z</time>
      </trkpt>
      <trkpt lat="45.26211" lon="5.8376">
        <ele>434</ele>
        <time>2000-01-01T12:48:36.000Z</time>
      </trkpt>
      <trkpt lat="45.26242" lon="5.83749">
        <ele>438</ele>
        <time>2000-01-01T12:48:46.000Z</time>
      </trkpt>
      <trkpt lat="45.26274" lon="5.83737">
        <ele>442</ele>
        <time>2000-01-01T12:48:56.000Z</time>
      </trkpt>
      <trkpt lat="45.26311" lon="5.83724">
        <ele>448</ele>
        <time>2000-01-01T12:49:06.000Z</time>
      </trkpt>
      <trkpt lat="45.26317" lon="5.83714">
        <ele>449.6</ele>
        <time>2000-01-01T12:49:16.000Z</time>
      </trkpt>
      <trkpt lat="45.26311" lon="5.83671">
        <ele>448</ele>
        <time>2000-01-01T12:49:26.000Z</time>
      </trkpt>
      <trkpt lat="45.26311" lon="5.83638">
        <ele>449</ele>
        <time>2000-01-01T12:49:36.000Z</time>
      </trkpt>
      <trkpt lat="45.26308" lon="5.83632">
        <ele>449.7</ele>
        <time>2000-01-01T12:49:46.000Z</time>
      </trkpt>
      <trkpt lat="45.26301" lon="5.83628">
        <ele>449.4</ele>
        <time>2000-01-01T12:49:56.000Z</time>
      </trkpt>
      <trkpt lat="45.263" lon="5.83622">
        <ele>449.7</ele>
        <time>2000-01-01T12:50:06.000Z</time>
      </trkpt>
      <trkpt lat="45.26303" lon="5.83609">
        <ele>451</ele>
        <time>2000-01-01T12:50:16.000Z</time>
      </trkpt>
      <trkpt lat="45.26311" lon="5.83602">
        <ele>452</ele>
        <time>2000-01-01T12:50:26.000Z</time>
      </trkpt>
      <trkpt lat="45.26319" lon="5.83599">
        <ele>452.8</ele>
        <time>2000-01-01T12:50:36.000Z</time>
      </trkpt>
      <trkpt lat="45.26374" lon="5.83563">
        <ele>459</ele>
        <time>2000-01-01T12:50:46.000Z</time>
      </trkpt>
      <trkpt lat="45.26404" lon="5.8354">
        <ele>462</ele>
        <time>2000-01-01T12:50:56.000Z</time>
      </trkpt>
      <trkpt lat="45.26425" lon="5.83531">
        <ele>464</ele>
        <time>2000-01-01T12:51:06.000Z</time>
      </trkpt>
      <trkpt lat="45.26462" lon="5.8352">
        <ele>469</ele>
        <time>2000-01-01T12:51:16.000Z</time>
      </trkpt>
      <trkpt lat="45.26482" lon="5.83506">
        <ele>473</ele>
        <time>2000-01-01T12:51:26.000Z</time>
      </trkpt>
      <trkpt lat="45.2649" lon="5.83503">
        <ele>473.7</ele>
        <time>2000-01-01T12:51:36.000Z</time>
      </trkpt>
      <trkpt lat="45.26509" lon="5.83488">
        <ele>476</ele>
        <time>2000-01-01T12:51:46.000Z</time>
      </trkpt>
      <trkpt lat="45.26533" lon="5.83479">
        <ele>479</ele>
        <time>2000-01-01T12:51:56.000Z</time>
      </trkpt>
      <trkpt lat="45.2656" lon="5.83469">
        <ele>483</ele>
        <time>2000-01-01T12:52:06.000Z</time>
      </trkpt>
      <trkpt lat="45.26585" lon="5.83453">
        <ele>487</ele>
        <time>2000-01-01T12:52:16.000Z</time>
      </trkpt>
      <trkpt lat="45.26622" lon="5.83429">
        <ele>494</ele>
        <time>2000-01-01T12:52:26.000Z</time>
      </trkpt>
      <trkpt lat="45.26647" lon="5.83418">
        <ele>497</ele>
        <time>2000-01-01T12:52:36.000Z</time>
      </trkpt>
      <trkpt lat="45.26676" lon="5.83405">
        <ele>501</ele>
        <time>2000-01-01T12:52:46.000Z</time>
      </trkpt>
      <trkpt lat="45.26686" lon="5.83403">
        <ele>503.4</ele>
        <time>2000-01-01T12:52:56.000Z</time>
      </trkpt>
      <trkpt lat="45.26709" lon="5.83387">
        <ele>506</ele>
        <time>2000-01-01T12:53:06.000Z</time>
      </trkpt>
      <trkpt lat="45.26722" lon="5.83371">
        <ele>508.6</ele>
        <time>2000-01-01T12:53:16.000Z</time>
      </trkpt>
      <trkpt lat="45.26737" lon="5.83362">
        <ele>509</ele>
        <time>2000-01-01T12:53:26.000Z</time>
      </trkpt>
      <trkpt lat="45.26764" lon="5.83327">
        <ele>511</ele>
        <time>2000-01-01T12:53:36.000Z</time>
      </trkpt>
      <trkpt lat="45.26777" lon="5.83315">
        <ele>513.6</ele>
        <time>2000-01-01T12:53:46.000Z</time>
      </trkpt>
      <trkpt lat="45.26783" lon="5.8331">
        <ele>513</ele>
        <time>2000-01-01T12:53:56.000Z</time>
      </trkpt>
      <trkpt lat="45.26794" lon="5.83309">
        <ele>515.7</ele>
        <time>2000-01-01T12:54:06.000Z</time>
      </trkpt>
      <trkpt lat="45.26799" lon="5.83306">
        <ele>516.3</ele>
        <time>2000-01-01T12:54:16.000Z</time>
      </trkpt>
      <trkpt lat="45.26802" lon="5.83294">
        <ele>517</ele>
        <time>2000-01-01T12:54:26.000Z</time>
      </trkpt>
      <trkpt lat="45.26794" lon="5.83289">
        <ele>517.3</ele>
        <time>2000-01-01T12:54:36.000Z</time>
      </trkpt>
      <trkpt lat="45.26786" lon="5.83276">
        <ele>517</ele>
        <time>2000-01-01T12:54:46.000Z</time>
      </trkpt>
      <trkpt lat="45.26788" lon="5.83261">
        <ele>520.3</ele>
        <time>2000-01-01T12:54:56.000Z</time>
      </trkpt>
      <trkpt lat="45.26821" lon="5.83236">
        <ele>534</ele>
        <time>2000-01-01T12:55:06.000Z</time>
      </trkpt>
      <trkpt lat="45.26834" lon="5.83239">
        <ele>534.2</ele>
        <time>2000-01-01T12:55:16.000Z</time>
      </trkpt>
      <trkpt lat="45.26858" lon="5.83226">
        <ele>540</ele>
        <time>2000-01-01T12:55:26.000Z</time>
      </trkpt>
      <trkpt lat="45.26861" lon="5.83223">
        <ele>540.8</ele>
        <time>2000-01-01T12:55:36.000Z</time>
      </trkpt>
      <trkpt lat="45.26867" lon="5.83206">
        <ele>545.5</ele>
        <time>2000-01-01T12:55:46.000Z</time>
      </trkpt>
      <trkpt lat="45.26871" lon="5.83202">
        <ele>547</ele>
        <time>2000-01-01T12:55:56.000Z</time>
      </trkpt>
      <trkpt lat="45.26872" lon="5.83196">
        <ele>548.2</ele>
        <time>2000-01-01T12:56:06.000Z</time>
      </trkpt>
      <trkpt lat="45.26867" lon="5.83191">
        <ele>549.9</ele>
        <time>2000-01-01T12:56:16.000Z</time>
      </trkpt>
      <trkpt lat="45.2686" lon="5.83177">
        <ele>556</ele>
        <time>2000-01-01T12:56:26.000Z</time>
      </trkpt>
      <trkpt lat="45.26861" lon="5.83167">
        <ele>557.9</ele>
        <time>2000-01-01T12:56:36.000Z</time>
      </trkpt>
      <trkpt lat="45.26857" lon="5.83148">
        <ele>565</ele>
        <time>2000-01-01T12:56:46.000Z</time>
      </trkpt>
      <trkpt lat="45.26844" lon="5.83129">
        <ele>568.5</ele>
        <time>2000-01-01T12:56:56.000Z</time>
      </trkpt>
      <trkpt lat="45.26846" lon="5.83078">
        <ele>589</ele>
        <time>2000-01-01T12:57:06.000Z</time>
      </trkpt>
      <trkpt lat="45.26848" lon="5.83073">
        <ele>590.2</ele>
        <time>2000-01-01T12:57:16.000Z</time>
      </trkpt>
      <trkpt lat="45.26846" lon="5.83064">
        <ele>593.5</ele>
        <time>2000-01-01T12:57:26.000Z</time>
      </trkpt>
      <trkpt lat="45.26847" lon="5.83054">
        <ele>598.1</ele>
        <time>2000-01-01T12:57:36.000Z</time>
      </trkpt>
      <trkpt lat="45.26853" lon="5.83042">
        <ele>604</ele>
        <time>2000-01-01T12:57:46.000Z</time>
      </trkpt>
      <trkpt lat="45.26855" lon="5.83044">
        <ele>605.3</ele>
        <time>2000-01-01T12:57:56.000Z</time>
      </trkpt>
      <trkpt lat="45.26854" lon="5.83033">
        <ele>610</ele>
        <time>2000-01-01T12:58:06.000Z</time>
      </trkpt>
      <trkpt lat="45.26837" lon="5.83025">
        <ele>605</ele>
        <time>2000-01-01T12:58:16.000Z</time>
      </trkpt>
      <trkpt lat="45.26832" lon="5.83014">
        <ele>609.7</ele>
        <time>2000-01-01T12:58:26.000Z</time>
      </trkpt>
      <trkpt lat="45.26834" lon="5.8301">
        <ele>612.3</ele>
        <time>2000-01-01T12:58:36.000Z</time>
      </trkpt>
      <trkpt lat="45.26838" lon="5.83009">
        <ele>614.2</ele>
        <time>2000-01-01T12:58:46.000Z</time>
      </trkpt>
      <trkpt lat="45.26838" lon="5.83002">
        <ele>607</ele>
        <time>2000-01-01T12:58:56.000Z</time>
      </trkpt>
      <trkpt lat="45.26829" lon="5.82998">
        <ele>614.2</ele>
        <time>2000-01-01T12:59:06.000Z</time>
      </trkpt>
      <trkpt lat="45.26818" lon="5.82989">
        <ele>610</ele>
        <time>2000-01-01T12:59:16.000Z</time>
      </trkpt>
      <trkpt lat="45.2683" lon="5.82978">
        <ele>621.9</ele>
        <time>2000-01-01T12:59:26.000Z</time>
      </trkpt>
      <trkpt lat="45.26836" lon="5.82978">
        <ele>616</ele>
        <time>2000-01-01T12:59:36.000Z</time>
      </trkpt>
      <trkpt lat="45.26842" lon="5.82974">
        <ele>629.1</ele>
        <time>2000-01-01T12:59:46.000Z</time>
      </trkpt>
      <trkpt lat="45.26841" lon="5.82969">
        <ele>630.1</ele>
        <time>2000-01-01T12:59:56.000Z</time>
      </trkpt>
      <trkpt lat="45.26837" lon="5.82965">
        <ele>629.4</ele>
        <time>2000-01-01T13:00:06.000Z</time>
      </trkpt>
      <trkpt lat="45.26825" lon="5.82959">
        <ele>623</ele>
        <time>2000-01-01T13:00:16.000Z</time>
      </trkpt>
      <trkpt lat="45.26821" lon="5.82945">
        <ele>625.3</ele>
        <time>2000-01-01T13:00:26.000Z</time>
      </trkpt>
      <trkpt lat="45.26823" lon="5.82937">
        <ele>627.1</ele>
        <time>2000-01-01T13:00:36.000Z</time>
      </trkpt>
      <trkpt lat="45.26829" lon="5.82933">
        <ele>626</ele>
        <time>2000-01-01T13:00:46.000Z</time>
      </trkpt>
      <trkpt lat="45.26838" lon="5.82937">
        <ele>635.3</ele>
        <time>2000-01-01T13:00:56.000Z</time>
      </trkpt>
      <trkpt lat="45.26856" lon="5.82939">
        <ele>642</ele>
        <time>2000-01-01T13:01:06.000Z</time>
      </trkpt>
      <trkpt lat="45.26866" lon="5.82935">
        <ele>647.3</ele>
        <time>2000-01-01T13:01:16.000Z</time>
      </trkpt>
      <trkpt lat="45.26882" lon="5.8292">
        <ele>654</ele>
        <time>2000-01-01T13:01:26.000Z</time>
      </trkpt>
      <trkpt lat="45.26897" lon="5.82928">
        <ele>658.1</ele>
        <time>2000-01-01T13:01:36.000Z</time>
      </trkpt>
      <trkpt lat="45.26906" lon="5.82928">
        <ele>661</ele>
        <time>2000-01-01T13:01:46.000Z</time>
      </trkpt>
      <trkpt lat="45.2691" lon="5.82923">
        <ele>662.6</ele>
        <time>2000-01-01T13:01:56.000Z</time>
      </trkpt>
      <trkpt lat="45.26915" lon="5.82923">
        <ele>664</ele>
        <time>2000-01-01T13:02:06.000Z</time>
      </trkpt>
      <trkpt lat="45.26922" lon="5.82918">
        <ele>666.8</ele>
        <time>2000-01-01T13:02:16.000Z</time>
      </trkpt>
      <trkpt lat="45.26922" lon="5.82914">
        <ele>668</ele>
        <time>2000-01-01T13:02:26.000Z</time>
      </trkpt>
      <trkpt lat="45.26926" lon="5.82909">
        <ele>670</ele>
        <time>2000-01-01T13:02:36.000Z</time>
      </trkpt>
      <trkpt lat="45.26927" lon="5.82896">
        <ele>673.5</ele>
        <time>2000-01-01T13:02:46.000Z</time>
      </trkpt>
      <trkpt lat="45.26929" lon="5.82896">
        <ele>674.1</ele>
        <time>2000-01-01T13:02:56.000Z</time>
      </trkpt>
      <trkpt lat="45.26925" lon="5.82888">
        <ele>674</ele>
        <time>2000-01-01T13:03:06.000Z</time>
      </trkpt>
      <trkpt lat="45.26924" lon="5.82861">
        <ele>678</ele>
        <time>2000-01-01T13:03:16.000Z</time>
      </trkpt>
      <trkpt lat="45.26951" lon="5.82863">
        <ele>690</ele>
        <time>2000-01-01T13:03:26.000Z</time>
      </trkpt>
      <trkpt lat="45.26954" lon="5.82868">
        <ele>689.2</ele>
        <time>2000-01-01T13:03:36.000Z</time>
      </trkpt>
      <trkpt lat="45.26967" lon="5.82875">
        <ele>689.5</ele>
        <time>2000-01-01T13:03:46.000Z</time>
      </trkpt>
      <trkpt lat="45.26977" lon="5.82871">
        <ele>692</ele>
        <time>2000-01-01T13:03:56.000Z</time>
      </trkpt>
      <trkpt lat="45.26986" lon="5.82871">
        <ele>693</ele>
        <time>2000-01-01T13:04:06.000Z</time>
      </trkpt>
      <trkpt lat="45.26988" lon="5.82855">
        <ele>702</ele>
        <time>2000-01-01T13:04:16.000Z</time>
      </trkpt>
      <trkpt lat="45.26994" lon="5.82841">
        <ele>706.7</ele>
        <time>2000-01-01T13:04:26.000Z</time>
      </trkpt>
      <trkpt lat="45.26999" lon="5.82837">
        <ele>709.2</ele>
        <time>2000-01-01T13:04:36.000Z</time>
      </trkpt>
      <trkpt lat="45.27004" lon="5.82814">
        <ele>720</ele>
        <time>2000-01-01T13:04:46.000Z</time>
      </trkpt>
      <trkpt lat="45.27009" lon="5.82813">
        <ele>719.9</ele>
        <time>2000-01-01T13:04:56.000Z</time>
      </trkpt>
      <trkpt lat="45.27012" lon="5.82816">
        <ele>719</ele>
        <time>2000-01-01T13:05:06.000Z</time>
      </trkpt>
      <trkpt lat="45.27039" lon="5.82788">
        <ele>735</ele>
        <time>2000-01-01T13:05:16.000Z</time>
      </trkpt>
      <trkpt lat="45.27037" lon="5.82783">
        <ele>734.5</ele>
        <time>2000-01-01T13:05:26.000Z</time>
      </trkpt>
      <trkpt lat="45.27039" lon="5.82764">
        <ele>742</ele>
        <time>2000-01-01T13:05:36.000Z</time>
      </trkpt>
      <trkpt lat="45.27058" lon="5.8276">
        <ele>745</ele>
        <time>2000-01-01T13:05:46.000Z</time>
      </trkpt>
      <trkpt lat="45.27071" lon="5.8276">
        <ele>746</ele>
        <time>2000-01-01T13:05:56.000Z</time>
      </trkpt>
      <trkpt lat="45.27088" lon="5.82768">
        <ele>747</ele>
        <time>2000-01-01T13:06:06.000Z</time>
      </trkpt>
      <trkpt lat="45.27099" lon="5.82767">
        <ele>744.2</ele>
        <time>2000-01-01T13:06:16.000Z</time>
      </trkpt>
      <trkpt lat="45.27109" lon="5.82769">
        <ele>744</ele>
        <time>2000-01-01T13:06:26.000Z</time>
      </trkpt>
      <trkpt lat="45.27114" lon="5.82773">
        <ele>742.1</ele>
        <time>2000-01-01T13:06:36.000Z</time>
      </trkpt>
      <trkpt lat="45.27133" lon="5.8277">
        <ele>746</ele>
        <time>2000-01-01T13:06:46.000Z</time>
      </trkpt>
      <trkpt lat="45.27161" lon="5.82754">
        <ele>744</ele>
        <time>2000-01-01T13:06:56.000Z</time>
      </trkpt>
      <trkpt lat="45.27171" lon="5.82754">
        <ele>744</ele>
        <time>2000-01-01T13:07:06.000Z</time>
      </trkpt>
      <trkpt lat="45.27177" lon="5.82758">
        <ele>740.4</ele>
        <time>2000-01-01T13:07:16.000Z</time>
      </trkpt>
      <trkpt lat="45.27182" lon="5.82757">
        <ele>742</ele>
        <time>2000-01-01T13:07:26.000Z</time>
      </trkpt>
      <trkpt lat="45.27194" lon="5.8276">
        <ele>733.6</ele>
        <time>2000-01-01T13:07:36.000Z</time>
      </trkpt>
      <trkpt lat="45.27198" lon="5.82758">
        <ele>732.2</ele>
        <time>2000-01-01T13:07:46.000Z</time>
      </trkpt>
      <trkpt lat="45.27207" lon="5.82739">
        <ele>747</ele>
        <time>2000-01-01T13:07:56.000Z</time>
      </trkpt>
      <trkpt lat="45.27205" lon="5.82734">
        <ele>736.7</ele>
        <time>2000-01-01T13:08:06.000Z</time>
      </trkpt>
      <trkpt lat="45.27209" lon="5.82693">
        <ele>752</ele>
        <time>2000-01-01T13:08:16.000Z</time>
      </trkpt>
      <trkpt lat="45.27217" lon="5.8266">
        <ele>757</ele>
        <time>2000-01-01T13:08:26.000Z</time>
      </trkpt>
      <trkpt lat="45.27214" lon="5.82643">
        <ele>761.3</ele>
        <time>2000-01-01T13:08:36.000Z</time>
      </trkpt>
      <trkpt lat="45.27215" lon="5.82637">
        <ele>762.7</ele>
        <time>2000-01-01T13:08:46.000Z</time>
      </trkpt>
      <trkpt lat="45.27219" lon="5.82636">
        <ele>767</ele>
        <time>2000-01-01T13:08:56.000Z</time>
      </trkpt>
      <trkpt lat="45.27225" lon="5.82628">
        <ele>761.3</ele>
        <time>2000-01-01T13:09:06.000Z</time>
      </trkpt>
      <trkpt lat="45.27223" lon="5.82623">
        <ele>763.8</ele>
        <time>2000-01-01T13:09:16.000Z</time>
      </trkpt>
      <trkpt lat="45.2722" lon="5.82623">
        <ele>765.1</ele>
        <time>2000-01-01T13:09:26.000Z</time>
      </trkpt>
      <trkpt lat="45.27213" lon="5.82629">
        <ele>769</ele>
        <time>2000-01-01T13:09:36.000Z</time>
      </trkpt>
      <trkpt lat="45.27204" lon="5.82628">
        <ele>770.4</ele>
        <time>2000-01-01T13:09:46.000Z</time>
      </trkpt>
      <trkpt lat="45.27205" lon="5.8263">
        <ele>769.3</ele>
        <time>2000-01-01T13:09:56.000Z</time>
      </trkpt>
      <trkpt lat="45.272" lon="5.82635">
        <ele>769.9</ele>
        <time>2000-01-01T13:10:06.000Z</time>
      </trkpt>
      <trkpt lat="45.27197" lon="5.82629">
        <ele>771</ele>
        <time>2000-01-01T13:10:16.000Z</time>
      </trkpt>
      <trkpt lat="45.272" lon="5.82619">
        <ele>775</ele>
        <time>2000-01-01T13:10:26.000Z</time>
      </trkpt>
      <trkpt lat="45.27209" lon="5.8261">
        <ele>774.1</ele>
        <time>2000-01-01T13:10:36.000Z</time>
      </trkpt>
      <trkpt lat="45.27213" lon="5.82611">
        <ele>774</ele>
        <time>2000-01-01T13:10:46.000Z</time>
      </trkpt>
      <trkpt lat="45.27219" lon="5.82599">
        <ele>773.8</ele>
        <time>2000-01-01T13:10:56.000Z</time>
      </trkpt>
      <trkpt lat="45.27218" lon="5.82581">
        <ele>785</ele>
        <time>2000-01-01T13:11:06.000Z</time>
      </trkpt>
      <trkpt lat="45.27222" lon="5.82569">
        <ele>784.3</ele>
        <time>2000-01-01T13:11:16.000Z</time>
      </trkpt>
      <trkpt lat="45.27208" lon="5.82572">
        <ele>793</ele>
        <time>2000-01-01T13:11:26.000Z</time>
      </trkpt>
      <trkpt lat="45.27205" lon="5.82581">
        <ele>787.1</ele>
        <time>2000-01-01T13:11:36.000Z</time>
      </trkpt>
      <trkpt lat="45.27195" lon="5.82581">
        <ele>791.8</ele>
        <time>2000-01-01T13:11:46.000Z</time>
      </trkpt>
      <trkpt lat="45.27174" lon="5.82589">
        <ele>805</ele>
        <time>2000-01-01T13:11:56.000Z</time>
      </trkpt>
      <trkpt lat="45.27171" lon="5.82587">
        <ele>801.1</ele>
        <time>2000-01-01T13:12:06.000Z</time>
      </trkpt>
      <trkpt lat="45.27177" lon="5.82587">
        <ele>798.2</ele>
        <time>2000-01-01T13:12:16.000Z</time>
      </trkpt>
      <trkpt lat="45.27187" lon="5.82567">
        <ele>809</ele>
        <time>2000-01-01T13:12:26.000Z</time>
      </trkpt>
      <trkpt lat="45.27187" lon="5.82561">
        <ele>805.4</ele>
        <time>2000-01-01T13:12:36.000Z</time>
      </trkpt>
      <trkpt lat="45.27191" lon="5.82553">
        <ele>807.1</ele>
        <time>2000-01-01T13:12:46.000Z</time>
      </trkpt>
      <trkpt lat="45.2719" lon="5.82544">
        <ele>811.8</ele>
        <time>2000-01-01T13:12:56.000Z</time>
      </trkpt>
      <trkpt lat="45.27196" lon="5.82523">
        <ele>822</ele>
        <time>2000-01-01T13:13:06.000Z</time>
      </trkpt>
      <trkpt lat="45.27195" lon="5.82514">
        <ele>823.7</ele>
        <time>2000-01-01T13:13:16.000Z</time>
      </trkpt>
      <trkpt lat="45.27204" lon="5.82494">
        <ele>830</ele>
        <time>2000-01-01T13:13:26.000Z</time>
      </trkpt>
      <trkpt lat="45.27213" lon="5.82487">
        <ele>827.6</ele>
        <time>2000-01-01T13:13:36.000Z</time>
      </trkpt>
      <trkpt lat="45.27222" lon="5.82472">
        <ele>832</ele>
        <time>2000-01-01T13:13:46.000Z</time>
      </trkpt>
      <trkpt lat="45.27222" lon="5.82468">
        <ele>832.1</ele>
        <time>2000-01-01T13:13:56.000Z</time>
      </trkpt>
      <trkpt lat="45.27212" lon="5.82466">
        <ele>837.6</ele>
        <time>2000-01-01T13:14:06.000Z</time>
      </trkpt>
      <trkpt lat="45.272" lon="5.82475">
        <ele>846</ele>
        <time>2000-01-01T13:14:16.000Z</time>
      </trkpt>
      <trkpt lat="45.27195" lon="5.82471">
        <ele>843.3</ele>
        <time>2000-01-01T13:14:26.000Z</time>
      </trkpt>
      <trkpt lat="45.27186" lon="5.8247">
        <ele>848.2</ele>
        <time>2000-01-01T13:14:36.000Z</time>
      </trkpt>
      <trkpt lat="45.27182" lon="5.82477">
        <ele>848</ele>
        <time>2000-01-01T13:14:46.000Z</time>
      </trkpt>
      <trkpt lat="45.27176" lon="5.82481">
        <ele>848.3</ele>
        <time>2000-01-01T13:14:56.000Z</time>
      </trkpt>
      <trkpt lat="45.27172" lon="5.82489">
        <ele>846.6</ele>
        <time>2000-01-01T13:15:06.000Z</time>
      </trkpt>
      <trkpt lat="45.27167" lon="5.82492">
        <ele>847.6</ele>
        <time>2000-01-01T13:15:16.000Z</time>
      </trkpt>
      <trkpt lat="45.27159" lon="5.82506">
        <ele>850</ele>
        <time>2000-01-01T13:15:26.000Z</time>
      </trkpt>
      <trkpt lat="45.27147" lon="5.8251">
        <ele>846.1</ele>
        <time>2000-01-01T13:15:36.000Z</time>
      </trkpt>
      <trkpt lat="45.27134" lon="5.82494">
        <ele>857</ele>
        <time>2000-01-01T13:15:46.000Z</time>
      </trkpt>
      <trkpt lat="45.27124" lon="5.82486">
        <ele>859.3</ele>
        <time>2000-01-01T13:15:56.000Z</time>
      </trkpt>
      <trkpt lat="45.2712" lon="5.82471">
        <ele>865</ele>
        <time>2000-01-01T13:16:06.000Z</time>
      </trkpt>
      <trkpt lat="45.27107" lon="5.82465">
        <ele>867.1</ele>
        <time>2000-01-01T13:16:16.000Z</time>
      </trkpt>
      <trkpt lat="45.2709" lon="5.82445">
        <ele>871</ele>
        <time>2000-01-01T13:16:26.000Z</time>
      </trkpt>
      <trkpt lat="45.27076" lon="5.82436">
        <ele>871.2</ele>
        <time>2000-01-01T13:16:36.000Z</time>
      </trkpt>
      <trkpt lat="45.27067" lon="5.82422">
        <ele>873</ele>
        <time>2000-01-01T13:16:46.000Z</time>
      </trkpt>
      <trkpt lat="45.27062" lon="5.82421">
        <ele>872.5</ele>
        <time>2000-01-01T13:16:56.000Z</time>
      </trkpt>
      <trkpt lat="45.27058" lon="5.82417">
        <ele>872.7</ele>
        <time>2000-01-01T13:17:06.000Z</time>
      </trkpt>
      <trkpt lat="45.27057" lon="5.82413">
        <ele>873.8</ele>
        <time>2000-01-01T13:17:16.000Z</time>
      </trkpt>
      <trkpt lat="45.27067" lon="5.82399">
        <ele>884</ele>
        <time>2000-01-01T13:17:26.000Z</time>
      </trkpt>
      <trkpt lat="45.27082" lon="5.824">
        <ele>887.7</ele>
        <time>2000-01-01T13:17:36.000Z</time>
      </trkpt>
      <trkpt lat="45.27086" lon="5.82406">
        <ele>886</ele>
        <time>2000-01-01T13:17:46.000Z</time>
      </trkpt>
      <trkpt lat="45.27099" lon="5.82413">
        <ele>886</ele>
        <time>2000-01-01T13:17:56.000Z</time>
      </trkpt>
      <trkpt lat="45.27106" lon="5.82413">
        <ele>887</ele>
        <time>2000-01-01T13:18:06.000Z</time>
      </trkpt>
      <trkpt lat="45.27106" lon="5.82408">
        <ele>889.6</ele>
        <time>2000-01-01T13:18:16.000Z</time>
      </trkpt>
      <trkpt lat="45.27097" lon="5.824">
        <ele>891.2</ele>
        <time>2000-01-01T13:18:26.000Z</time>
      </trkpt>
      <trkpt lat="45.27092" lon="5.82383">
        <ele>890</ele>
        <time>2000-01-01T13:18:36.000Z</time>
      </trkpt>
      <trkpt lat="45.27088" lon="5.82378">
        <ele>898.3</ele>
        <time>2000-01-01T13:18:46.000Z</time>
      </trkpt>
      <trkpt lat="45.27071" lon="5.82375">
        <ele>894</ele>
        <time>2000-01-01T13:18:56.000Z</time>
      </trkpt>
      <trkpt lat="45.2705" lon="5.82353">
        <ele>894</ele>
        <time>2000-01-01T13:19:06.000Z</time>
      </trkpt>
      <trkpt lat="45.27049" lon="5.82349">
        <ele>894.1</ele>
        <time>2000-01-01T13:19:16.000Z</time>
      </trkpt>
      <trkpt lat="45.27044" lon="5.82347">
        <ele>892.3</ele>
        <time>2000-01-01T13:19:26.000Z</time>
      </trkpt>
      <trkpt lat="45.27039" lon="5.82331">
        <ele>891</ele>
        <time>2000-01-01T13:19:36.000Z</time>
      </trkpt>
      <trkpt lat="45.27039" lon="5.82318">
        <ele>900.1</ele>
        <time>2000-01-01T13:19:46.000Z</time>
      </trkpt>
      <trkpt lat="45.2702" lon="5.82295">
        <ele>893</ele>
        <time>2000-01-01T13:19:56.000Z</time>
      </trkpt>
      <trkpt lat="45.27016" lon="5.82297">
        <ele>893.1</ele>
        <time>2000-01-01T13:20:06.000Z</time>
      </trkpt>
      <trkpt lat="45.27013" lon="5.82276">
        <ele>896</ele>
        <time>2000-01-01T13:20:16.000Z</time>
      </trkpt>
      <trkpt lat="45.27015" lon="5.82267">
        <ele>902</ele>
        <time>2000-01-01T13:20:26.000Z</time>
      </trkpt>
      <trkpt lat="45.27014" lon="5.82256">
        <ele>905</ele>
        <time>2000-01-01T13:20:36.000Z</time>
      </trkpt>
      <trkpt lat="45.27008" lon="5.82238">
        <ele>894</ele>
        <time>2000-01-01T13:20:46.000Z</time>
      </trkpt>
      <trkpt lat="45.27012" lon="5.82258">
        <ele>902.8</ele>
        <time>2000-01-01T13:20:56.000Z</time>
      </trkpt>
      <trkpt lat="45.2701" lon="5.82286">
        <ele>895</ele>
        <time>2000-01-01T13:21:06.000Z</time>
      </trkpt>
      <trkpt lat="45.27016" lon="5.82294">
        <ele>894</ele>
        <time>2000-01-01T13:21:16.000Z</time>
      </trkpt>
      <trkpt lat="45.2702" lon="5.82305">
        <ele>893.1</ele>
        <time>2000-01-01T13:21:26.000Z</time>
      </trkpt>
      <trkpt lat="45.27028" lon="5.82309">
        <ele>896</ele>
        <time>2000-01-01T13:21:36.000Z</time>
      </trkpt>
      <trkpt lat="45.27059" lon="5.82293">
        <ele>917</ele>
        <time>2000-01-01T13:21:46.000Z</time>
      </trkpt>
      <trkpt lat="45.2708" lon="5.82286">
        <ele>935</ele>
        <time>2000-01-01T13:21:56.000Z</time>
      </trkpt>
      <trkpt lat="45.27087" lon="5.82289">
        <ele>934.3</ele>
        <time>2000-01-01T13:22:06.000Z</time>
      </trkpt>
      <trkpt lat="45.27101" lon="5.82271">
        <ele>947</ele>
        <time>2000-01-01T13:22:16.000Z</time>
      </trkpt>
      <trkpt lat="45.27109" lon="5.82266">
        <ele>951.8</ele>
        <time>2000-01-01T13:22:26.000Z</time>
      </trkpt>
      <trkpt lat="45.27118" lon="5.82271">
        <ele>951</ele>
        <time>2000-01-01T13:22:36.000Z</time>
      </trkpt>
      <trkpt lat="45.27131" lon="5.82288">
        <ele>947</ele>
        <time>2000-01-01T13:22:46.000Z</time>
      </trkpt>
      <trkpt lat="45.27145" lon="5.82298">
        <ele>937.9</ele>
        <time>2000-01-01T13:22:56.000Z</time>
      </trkpt>
      <trkpt lat="45.27147" lon="5.82293">
        <ele>952</ele>
        <time>2000-01-01T13:23:06.000Z</time>
      </trkpt>
      <trkpt lat="45.27146" lon="5.82282">
        <ele>946.6</ele>
        <time>2000-01-01T13:23:16.000Z</time>
      </trkpt>
      <trkpt lat="45.27134" lon="5.82262">
        <ele>958</ele>
        <time>2000-01-01T13:23:26.000Z</time>
      </trkpt>
      <trkpt lat="45.27133" lon="5.82252">
        <ele>962.9</ele>
        <time>2000-01-01T13:23:36.000Z</time>
      </trkpt>
      <trkpt lat="45.27127" lon="5.82238">
        <ele>969</ele>
        <time>2000-01-01T13:23:46.000Z</time>
      </trkpt>
      <trkpt lat="45.27116" lon="5.82234">
        <ele>969</ele>
        <time>2000-01-01T13:23:56.000Z</time>
      </trkpt>
      <trkpt lat="45.27109" lon="5.82234">
        <ele>966.6</ele>
        <time>2000-01-01T13:24:06.000Z</time>
      </trkpt>
      <trkpt lat="45.27099" lon="5.8222">
        <ele>969</ele>
        <time>2000-01-01T13:24:16.000Z</time>
      </trkpt>
      <trkpt lat="45.27093" lon="5.82218">
        <ele>966.8</ele>
        <time>2000-01-01T13:24:26.000Z</time>
      </trkpt>
      <trkpt lat="45.27086" lon="5.82207">
        <ele>967.7</ele>
        <time>2000-01-01T13:24:36.000Z</time>
      </trkpt>
      <trkpt lat="45.27082" lon="5.82205">
        <ele>970</ele>
        <time>2000-01-01T13:24:46.000Z</time>
      </trkpt>
      <trkpt lat="45.27072" lon="5.82175">
        <ele>971</ele>
        <time>2000-01-01T13:24:56.000Z</time>
      </trkpt>
      <trkpt lat="45.27073" lon="5.82167">
        <ele>974.2</ele>
        <time>2000-01-01T13:25:06.000Z</time>
      </trkpt>
      <trkpt lat="45.27076" lon="5.82175">
        <ele>973.4</ele>
        <time>2000-01-01T13:25:16.000Z</time>
      </trkpt>
      <trkpt lat="45.27087" lon="5.82184">
        <ele>976</ele>
        <time>2000-01-01T13:25:26.000Z</time>
      </trkpt>
      <trkpt lat="45.27094" lon="5.82188">
        <ele>978.7</ele>
        <time>2000-01-01T13:25:36.000Z</time>
      </trkpt>
      <trkpt lat="45.27097" lon="5.82184">
        <ele>981.6</ele>
        <time>2000-01-01T13:25:46.000Z</time>
      </trkpt>
      <trkpt lat="45.27109" lon="5.82192">
        <ele>980</ele>
        <time>2000-01-01T13:25:56.000Z</time>
      </trkpt>
      <trkpt lat="45.27126" lon="5.82186">
        <ele>993.2</ele>
        <time>2000-01-01T13:26:06.000Z</time>
      </trkpt>
      <trkpt lat="45.27141" lon="5.82189">
        <ele>987</ele>
        <time>2000-01-01T13:26:16.000Z</time>
      </trkpt>
      <trkpt lat="45.27143" lon="5.82186">
        <ele>997.9</ele>
        <time>2000-01-01T13:26:26.000Z</time>
      </trkpt>
      <trkpt lat="45.27143" lon="5.82182">
        <ele>999.7</ele>
        <time>2000-01-01T13:26:36.000Z</time>
      </trkpt>
      <trkpt lat="45.27124" lon="5.82181">
        <ele>989</ele>
        <time>2000-01-01T13:26:46.000Z</time>
      </trkpt>
      <trkpt lat="45.27118" lon="5.82178">
        <ele>993.4</ele>
        <time>2000-01-01T13:26:56.000Z</time>
      </trkpt>
      <trkpt lat="45.27111" lon="5.82167">
        <ele>994.8</ele>
        <time>2000-01-01T13:27:06.000Z</time>
      </trkpt>
      <trkpt lat="45.27101" lon="5.8216">
        <ele>991</ele>
        <time>2000-01-01T13:27:16.000Z</time>
      </trkpt>
      <trkpt lat="45.27093" lon="5.82129">
        <ele>998</ele>
        <time>2000-01-01T13:27:26.000Z</time>
      </trkpt>
      <trkpt lat="45.27094" lon="5.82114">
        <ele>1001.8</ele>
        <time>2000-01-01T13:27:36.000Z</time>
      </trkpt>
      <trkpt lat="45.27097" lon="5.82129">
        <ele>998</ele>
        <time>2000-01-01T13:27:46.000Z</time>
      </trkpt>
      <trkpt lat="45.27104" lon="5.82137">
        <ele>1001.4</ele>
        <time>2000-01-01T13:27:56.000Z</time>
      </trkpt>
      <trkpt lat="45.27125" lon="5.82139">
        <ele>1012</ele>
        <time>2000-01-01T13:28:06.000Z</time>
      </trkpt>
      <trkpt lat="45.27129" lon="5.82142">
        <ele>1011.5</ele>
        <time>2000-01-01T13:28:16.000Z</time>
      </trkpt>
      <trkpt lat="45.27148" lon="5.82138">
        <ele>1021</ele>
        <time>2000-01-01T13:28:26.000Z</time>
      </trkpt>
      <trkpt lat="45.27159" lon="5.82133">
        <ele>1024.5</ele>
        <time>2000-01-01T13:28:36.000Z</time>
      </trkpt>
      <trkpt lat="45.2717" lon="5.82134">
        <ele>1027</ele>
        <time>2000-01-01T13:28:46.000Z</time>
      </trkpt>
      <trkpt lat="45.27173" lon="5.8213">
        <ele>1027.6</ele>
        <time>2000-01-01T13:28:56.000Z</time>
      </trkpt>
      <trkpt lat="45.27172" lon="5.82127">
        <ele>1029</ele>
        <time>2000-01-01T13:29:06.000Z</time>
      </trkpt>
      <trkpt lat="45.27165" lon="5.82132">
        <ele>1026.5</ele>
        <time>2000-01-01T13:29:16.000Z</time>
      </trkpt>
      <trkpt lat="45.27156" lon="5.82129">
        <ele>1026</ele>
        <time>2000-01-01T13:29:26.000Z</time>
      </trkpt>
      <trkpt lat="45.27151" lon="5.82113">
        <ele>1030.2</ele>
        <time>2000-01-01T13:29:36.000Z</time>
      </trkpt>
      <trkpt lat="45.27137" lon="5.82108">
        <ele>1027</ele>
        <time>2000-01-01T13:29:46.000Z</time>
      </trkpt>
      <trkpt lat="45.27124" lon="5.82078">
        <ele>1029</ele>
        <time>2000-01-01T13:29:56.000Z</time>
      </trkpt>
      <trkpt lat="45.27125" lon="5.82072">
        <ele>1031.3</ele>
        <time>2000-01-01T13:30:06.000Z</time>
      </trkpt>
      <trkpt lat="45.27132" lon="5.82079">
        <ele>1033.4</ele>
        <time>2000-01-01T13:30:16.000Z</time>
      </trkpt>
      <trkpt lat="45.27146" lon="5.82082">
        <ele>1038</ele>
        <time>2000-01-01T13:30:26.000Z</time>
      </trkpt>
      <trkpt lat="45.27163" lon="5.82072">
        <ele>1049.9</ele>
        <time>2000-01-01T13:30:36.000Z</time>
      </trkpt>
      <trkpt lat="45.27167" lon="5.82075">
        <ele>1049</ele>
        <time>2000-01-01T13:30:46.000Z</time>
      </trkpt>
      <trkpt lat="45.27186" lon="5.82078">
        <ele>1055</ele>
        <time>2000-01-01T13:30:56.000Z</time>
      </trkpt>
      <trkpt lat="45.2719" lon="5.82077">
        <ele>1053.3</ele>
        <time>2000-01-01T13:31:06.000Z</time>
      </trkpt>
      <trkpt lat="45.27196" lon="5.82069">
        <ele>1057.8</ele>
        <time>2000-01-01T13:31:16.000Z</time>
      </trkpt>
      <trkpt lat="45.27196" lon="5.82064">
        <ele>1060.2</ele>
        <time>2000-01-01T13:31:26.000Z</time>
      </trkpt>
      <trkpt lat="45.2719" lon="5.82068">
        <ele>1058</ele>
        <time>2000-01-01T13:31:36.000Z</time>
      </trkpt>
      <trkpt lat="45.27185" lon="5.82068">
        <ele>1056.4</ele>
        <time>2000-01-01T13:31:46.000Z</time>
      </trkpt>
      <trkpt lat="45.27176" lon="5.82057">
        <ele>1059.4</ele>
        <time>2000-01-01T13:31:56.000Z</time>
      </trkpt>
      <trkpt lat="45.2717" lon="5.82055">
        <ele>1058</ele>
        <time>2000-01-01T13:32:06.000Z</time>
      </trkpt>
      <trkpt lat="45.27159" lon="5.82031">
        <ele>1059</ele>
        <time>2000-01-01T13:32:16.000Z</time>
      </trkpt>
      <trkpt lat="45.27159" lon="5.82018">
        <ele>1066.7</ele>
        <time>2000-01-01T13:32:26.000Z</time>
      </trkpt>
      <trkpt lat="45.27173" lon="5.82027">
        <ele>1072</ele>
        <time>2000-01-01T13:32:36.000Z</time>
      </trkpt>
      <trkpt lat="45.27176" lon="5.82024">
        <ele>1072.4</ele>
        <time>2000-01-01T13:32:46.000Z</time>
      </trkpt>
      <trkpt lat="45.27181" lon="5.82028">
        <ele>1072.6</ele>
        <time>2000-01-01T13:32:56.000Z</time>
      </trkpt>
      <trkpt lat="45.27191" lon="5.82027">
        <ele>1078</ele>
        <time>2000-01-01T13:33:06.000Z</time>
      </trkpt>
      <trkpt lat="45.27196" lon="5.82024">
        <ele>1079</ele>
        <time>2000-01-01T13:33:16.000Z</time>
      </trkpt>
      <trkpt lat="45.2721" lon="5.82027">
        <ele>1082</ele>
        <time>2000-01-01T13:33:26.000Z</time>
      </trkpt>
      <trkpt lat="45.27215" lon="5.82025">
        <ele>1083.6</ele>
        <time>2000-01-01T13:33:36.000Z</time>
      </trkpt>
      <trkpt lat="45.27227" lon="5.8203">
        <ele>1084</ele>
        <time>2000-01-01T13:33:46.000Z</time>
      </trkpt>
      <trkpt lat="45.27237" lon="5.82031">
        <ele>1081</ele>
        <time>2000-01-01T13:33:56.000Z</time>
      </trkpt>
      <trkpt lat="45.27258" lon="5.82042">
        <ele>1081</ele>
        <time>2000-01-01T13:34:06.000Z</time>
      </trkpt>
      <trkpt lat="45.27273" lon="5.82044">
        <ele>1084.3</ele>
        <time>2000-01-01T13:34:16.000Z</time>
      </trkpt>
      <trkpt lat="45.27284" lon="5.82042">
        <ele>1087</ele>
        <time>2000-01-01T13:34:26.000Z</time>
      </trkpt>
      <trkpt lat="45.27289" lon="5.82046">
        <ele>1086.1</ele>
        <time>2000-01-01T13:34:36.000Z</time>
      </trkpt>
      <trkpt lat="45.27299" lon="5.82046">
        <ele>1088.4</ele>
        <time>2000-01-01T13:34:46.000Z</time>
      </trkpt>
      <trkpt lat="45.27311" lon="5.82042">
        <ele>1089</ele>
        <time>2000-01-01T13:34:56.000Z</time>
      </trkpt>
      <trkpt lat="45.27319" lon="5.82043">
        <ele>1095.3</ele>
        <time>2000-01-01T13:35:06.000Z</time>
      </trkpt>
      <trkpt lat="45.27332" lon="5.8205">
        <ele>1089</ele>
        <time>2000-01-01T13:35:16.000Z</time>
      </trkpt>
      <trkpt lat="45.27337" lon="5.8205">
        <ele>1093.5</ele>
        <time>2000-01-01T13:35:26.000Z</time>
      </trkpt>
      <trkpt lat="45.27343" lon="5.82062">
        <ele>1085.4</ele>
        <time>2000-01-01T13:35:36.000Z</time>
      </trkpt>
      <trkpt lat="45.27345" lon="5.82059">
        <ele>1088.3</ele>
        <time>2000-01-01T13:35:46.000Z</time>
      </trkpt>
      <trkpt lat="45.27357" lon="5.82062">
        <ele>1090</ele>
        <time>2000-01-01T13:35:56.000Z</time>
      </trkpt>
      <trkpt lat="45.27362" lon="5.82069">
        <ele>1085.1</ele>
        <time>2000-01-01T13:36:06.000Z</time>
      </trkpt>
      <trkpt lat="45.27374" lon="5.82063">
        <ele>1094</ele>
        <time>2000-01-01T13:36:16.000Z</time>
      </trkpt>
      <trkpt lat="45.27396" lon="5.82064">
        <ele>1096</ele>
        <time>2000-01-01T13:36:26.000Z</time>
      </trkpt>
      <trkpt lat="45.27408" lon="5.82073">
        <ele>1098.6</ele>
        <time>2000-01-01T13:36:36.000Z</time>
      </trkpt>
      <trkpt lat="45.27414" lon="5.82072">
        <ele>1098</ele>
        <time>2000-01-01T13:36:46.000Z</time>
      </trkpt>
      <trkpt lat="45.2742" lon="5.8208">
        <ele>1099.3</ele>
        <time>2000-01-01T13:36:56.000Z</time>
      </trkpt>
      <trkpt lat="45.27424" lon="5.82075">
        <ele>1103.9</ele>
        <time>2000-01-01T13:37:06.000Z</time>
      </trkpt>
      <trkpt lat="45.27435" lon="5.82082">
        <ele>1103</ele>
        <time>2000-01-01T13:37:16.000Z</time>
      </trkpt>
      <trkpt lat="45.27442" lon="5.82083">
        <ele>1107.1</ele>
        <time>2000-01-01T13:37:26.000Z</time>
      </trkpt>
      <trkpt lat="45.27466" lon="5.82077">
        <ele>1120</ele>
        <time>2000-01-01T13:37:36.000Z</time>
      </trkpt>
      <trkpt lat="45.27483" lon="5.82076">
        <ele>1127.9</ele>
        <time>2000-01-01T13:37:46.000Z</time>
      </trkpt>
      <trkpt lat="45.27489" lon="5.82082">
        <ele>1125</ele>
        <time>2000-01-01T13:37:56.000Z</time>
      </trkpt>
      <trkpt lat="45.27495" lon="5.82082">
        <ele>1129</ele>
        <time>2000-01-01T13:38:06.000Z</time>
      </trkpt>
      <trkpt lat="45.275" lon="5.82085">
        <ele>1129.1</ele>
        <time>2000-01-01T13:38:16.000Z</time>
      </trkpt>
      <trkpt lat="45.27501" lon="5.82089">
        <ele>1127.3</ele>
        <time>2000-01-01T13:38:26.000Z</time>
      </trkpt>
      <trkpt lat="45.27506" lon="5.82092">
        <ele>1123</ele>
        <time>2000-01-01T13:38:36.000Z</time>
      </trkpt>
      <trkpt lat="45.27524" lon="5.82115">
        <ele>1126</ele>
        <time>2000-01-01T13:38:46.000Z</time>
      </trkpt>
      <trkpt lat="45.27545" lon="5.82119">
        <ele>1130</ele>
        <time>2000-01-01T13:38:56.000Z</time>
      </trkpt>
      <trkpt lat="45.27561" lon="5.82112">
        <ele>1134.9</ele>
        <time>2000-01-01T13:39:06.000Z</time>
      </trkpt>
      <trkpt lat="45.27575" lon="5.82109">
        <ele>1143</ele>
        <time>2000-01-01T13:39:16.000Z</time>
      </trkpt>
      <trkpt lat="45.27584" lon="5.82112">
        <ele>1140.6</ele>
        <time>2000-01-01T13:39:26.000Z</time>
      </trkpt>
      <trkpt lat="45.27607" lon="5.82108">
        <ele>1150</ele>
        <time>2000-01-01T13:39:36.000Z</time>
      </trkpt>
      <trkpt lat="45.27622" lon="5.82101">
        <ele>1153.4</ele>
        <time>2000-01-01T13:39:46.000Z</time>
      </trkpt>
      <trkpt lat="45.27637" lon="5.82103">
        <ele>1153</ele>
        <time>2000-01-01T13:39:56.000Z</time>
      </trkpt>
      <trkpt lat="45.27648" lon="5.82096">
        <ele>1158.9</ele>
        <time>2000-01-01T13:40:06.000Z</time>
      </trkpt>
      <trkpt lat="45.27685" lon="5.82087">
        <ele>1171</ele>
        <time>2000-01-01T13:40:16.000Z</time>
      </trkpt>
      <trkpt lat="45.2769" lon="5.82081">
        <ele>1170.4</ele>
        <time>2000-01-01T13:40:26.000Z</time>
      </trkpt>
      <trkpt lat="45.27706" lon="5.82081">
        <ele>1171</ele>
        <time>2000-01-01T13:40:36.000Z</time>
      </trkpt>
      <trkpt lat="45.27715" lon="5.82088">
        <ele>1165.2</ele>
        <time>2000-01-01T13:40:46.000Z</time>
      </trkpt>
      <trkpt lat="45.2772" lon="5.82087">
        <ele>1165.7</ele>
        <time>2000-01-01T13:40:56.000Z</time>
      </trkpt>
      <trkpt lat="45.27744" lon="5.82074">
        <ele>1173</ele>
        <time>2000-01-01T13:41:06.000Z</time>
      </trkpt>
      <trkpt lat="45.2775" lon="5.82067">
        <ele>1175</ele>
        <time>2000-01-01T13:41:16.000Z</time>
      </trkpt>
      <trkpt lat="45.27755" lon="5.82055">
        <ele>1181.3</ele>
        <time>2000-01-01T13:41:26.000Z</time>
      </trkpt>
      <trkpt lat="45.27791" lon="5.82035">
        <ele>1172</ele>
        <time>2000-01-01T13:41:36.000Z</time>
      </trkpt>
      <trkpt lat="45.27831" lon="5.82041">
        <ele>1172</ele>
        <time>2000-01-01T13:41:46.000Z</time>
      </trkpt>
      <trkpt lat="45.27839" lon="5.82034">
        <ele>1174.2</ele>
        <time>2000-01-01T13:41:56.000Z</time>
      </trkpt>
      <trkpt lat="45.27843" lon="5.82026">
        <ele>1178.3</ele>
        <time>2000-01-01T13:42:06.000Z</time>
      </trkpt>
      <trkpt lat="45.27844" lon="5.82016">
        <ele>1186</ele>
        <time>2000-01-01T13:42:16.000Z</time>
      </trkpt>
      <trkpt lat="45.27856" lon="5.82002">
        <ele>1189.8</ele>
        <time>2000-01-01T13:42:26.000Z</time>
      </trkpt>
      <trkpt lat="45.2786" lon="5.81985">
        <ele>1202</ele>
        <time>2000-01-01T13:42:36.000Z</time>
      </trkpt>
      <trkpt lat="45.27866" lon="5.81975">
        <ele>1204.9</ele>
        <time>2000-01-01T13:42:46.000Z</time>
      </trkpt>
      <trkpt lat="45.27873" lon="5.81971">
        <ele>1208</ele>
        <time>2000-01-01T13:42:56.000Z</time>
      </trkpt>
      <trkpt lat="45.27876" lon="5.81966">
        <ele>1203</ele>
        <time>2000-01-01T13:43:06.000Z</time>
      </trkpt>
      <trkpt lat="45.27885" lon="5.81964">
        <ele>1213.1</ele>
        <time>2000-01-01T13:43:16.000Z</time>
      </trkpt>
      <trkpt lat="45.27889" lon="5.81976">
        <ele>1207</ele>
        <time>2000-01-01T13:43:26.000Z</time>
      </trkpt>
      <trkpt lat="45.27916" lon="5.82003">
        <ele>1205</ele>
        <time>2000-01-01T13:43:36.000Z</time>
      </trkpt>
      <trkpt lat="45.27922" lon="5.81996">
        <ele>1214.9</ele>
        <time>2000-01-01T13:43:46.000Z</time>
      </trkpt>
      <trkpt lat="45.27923" lon="5.8198">
        <ele>1218</ele>
        <time>2000-01-01T13:43:56.000Z</time>
      </trkpt>
      <trkpt lat="45.27913" lon="5.81969">
        <ele>1221.9</ele>
        <time>2000-01-01T13:44:06.000Z</time>
      </trkpt>
      <trkpt lat="45.27912" lon="5.81957">
        <ele>1228</ele>
        <time>2000-01-01T13:44:16.000Z</time>
      </trkpt>
      <trkpt lat="45.27902" lon="5.8195">
        <ele>1226.8</ele>
        <time>2000-01-01T13:44:26.000Z</time>
      </trkpt>
      <trkpt lat="45.27895" lon="5.8193">
        <ele>1232</ele>
        <time>2000-01-01T13:44:36.000Z</time>
      </trkpt>
      <trkpt lat="45.27897" lon="5.81931">
        <ele>1235</ele>
        <time>2000-01-01T13:44:46.000Z</time>
      </trkpt>
      <trkpt lat="45.27907" lon="5.81924">
        <ele>1242.6</ele>
        <time>2000-01-01T13:44:56.000Z</time>
      </trkpt>
      <trkpt lat="45.27911" lon="5.81926">
        <ele>1243.1</ele>
        <time>2000-01-01T13:45:06.000Z</time>
      </trkpt>
      <trkpt lat="45.27914" lon="5.81932">
        <ele>1240</ele>
        <time>2000-01-01T13:45:16.000Z</time>
      </trkpt>
      <trkpt lat="45.27917" lon="5.81932">
        <ele>1242.5</ele>
        <time>2000-01-01T13:45:26.000Z</time>
      </trkpt>
      <trkpt lat="45.27922" lon="5.81938">
        <ele>1242.5</ele>
        <time>2000-01-01T13:45:36.000Z</time>
      </trkpt>
      <trkpt lat="45.27927" lon="5.8194">
        <ele>1244.6</ele>
        <time>2000-01-01T13:45:46.000Z</time>
      </trkpt>
      <trkpt lat="45.27934" lon="5.8195">
        <ele>1239</ele>
        <time>2000-01-01T13:45:56.000Z</time>
      </trkpt>
      <trkpt lat="45.27946" lon="5.81978">
        <ele>1239</ele>
        <time>2000-01-01T13:46:06.000Z</time>
      </trkpt>
      <trkpt lat="45.27952" lon="5.81984">
        <ele>1243.8</ele>
        <time>2000-01-01T13:46:16.000Z</time>
      </trkpt>
      <trkpt lat="45.27973" lon="5.82041">
        <ele>1239</ele>
        <time>2000-01-01T13:46:26.000Z</time>
      </trkpt>
      <trkpt lat="45.27985" lon="5.82045">
        <ele>1237.5</ele>
        <time>2000-01-01T13:46:36.000Z</time>
      </trkpt>
      <trkpt lat="45.27993" lon="5.82051">
        <ele>1239</ele>
        <time>2000-01-01T13:46:46.000Z</time>
      </trkpt>
      <trkpt lat="45.28004" lon="5.82049">
        <ele>1249.8</ele>
        <time>2000-01-01T13:46:56.000Z</time>
      </trkpt>
      <trkpt lat="45.28019" lon="5.82059">
        <ele>1241</ele>
        <time>2000-01-01T13:47:06.000Z</time>
      </trkpt>
      <trkpt lat="45.28025" lon="5.82068">
        <ele>1244</ele>
        <time>2000-01-01T13:47:16.000Z</time>
      </trkpt>
      <trkpt lat="45.2803" lon="5.82068">
        <ele>1246.8</ele>
        <time>2000-01-01T13:47:26.000Z</time>
      </trkpt>
      <trkpt lat="45.28038" lon="5.82073">
        <ele>1243</ele>
        <time>2000-01-01T13:47:36.000Z</time>
      </trkpt>
      <trkpt lat="45.28049" lon="5.82069">
        <ele>1254.1</ele>
        <time>2000-01-01T13:47:46.000Z</time>
      </trkpt>
      <trkpt lat="45.28057" lon="5.82059">
        <ele>1277</ele>
        <time>2000-01-01T13:47:56.000Z</time>
      </trkpt>
      <trkpt lat="45.2807" lon="5.82059">
        <ele>1271.6</ele>
        <time>2000-01-01T13:48:06.000Z</time>
      </trkpt>
      <trkpt lat="45.28078" lon="5.82052">
        <ele>1281</ele>
        <time>2000-01-01T13:48:16.000Z</time>
      </trkpt>
      <trkpt lat="45.28087" lon="5.82051">
        <ele>1281.6</ele>
        <time>2000-01-01T13:48:26.000Z</time>
      </trkpt>
      <trkpt lat="45.28098" lon="5.82046">
        <ele>1289</ele>
        <time>2000-01-01T13:48:36.000Z</time>
      </trkpt>
      <trkpt lat="45.28105" lon="5.82048">
        <ele>1284.3</ele>
        <time>2000-01-01T13:48:46.000Z</time>
      </trkpt>
      <trkpt lat="45.28114" lon="5.82046">
        <ele>1286.1</ele>
        <time>2000-01-01T13:48:56.000Z</time>
      </trkpt>
      <trkpt lat="45.28118" lon="5.82039">
        <ele>1289</ele>
        <time>2000-01-01T13:49:06.000Z</time>
      </trkpt>
      <trkpt lat="45.28122" lon="5.82037">
        <ele>1293</ele>
        <time>2000-01-01T13:49:16.000Z</time>
      </trkpt>
      <trkpt lat="45.28131" lon="5.82038">
        <ele>1292.9</ele>
        <time>2000-01-01T13:49:26.000Z</time>
      </trkpt>
      <trkpt lat="45.28138" lon="5.82044">
        <ele>1290</ele>
        <time>2000-01-01T13:49:36.000Z</time>
      </trkpt>
      <trkpt lat="45.28155" lon="5.8204">
        <ele>1295.5</ele>
        <time>2000-01-01T13:49:46.000Z</time>
      </trkpt>
      <trkpt lat="45.28167" lon="5.82042">
        <ele>1295</ele>
        <time>2000-01-01T13:49:56.000Z</time>
      </trkpt>
      <trkpt lat="45.28183" lon="5.82041">
        <ele>1302.4</ele>
        <time>2000-01-01T13:50:06.000Z</time>
      </trkpt>
      <trkpt lat="45.28185" lon="5.82038">
        <ele>1304.6</ele>
        <time>2000-01-01T13:50:16.000Z</time>
      </trkpt>
      <trkpt lat="45.28183" lon="5.82029">
        <ele>1312</ele>
        <time>2000-01-01T13:50:26.000Z</time>
      </trkpt>
      <trkpt lat="45.28175" lon="5.82008">
        <ele>1317.4</ele>
        <time>2000-01-01T13:50:36.000Z</time>
      </trkpt>
      <trkpt lat="45.2817" lon="5.82004">
        <ele>1320</ele>
        <time>2000-01-01T13:50:46.000Z</time>
      </trkpt>
      <trkpt lat="45.2817" lon="5.82">
        <ele>1320</ele>
        <time>2000-01-01T13:50:56.000Z</time>
      </trkpt>
      <trkpt lat="45.28173" lon="5.81994">
        <ele>1323.6</ele>
        <time>2000-01-01T13:51:06.000Z</time>
      </trkpt>
      <trkpt lat="45.28186" lon="5.82001">
        <ele>1323</ele>
        <time>2000-01-01T13:51:16.000Z</time>
      </trkpt>
      <trkpt lat="45.28191" lon="5.82001">
        <ele>1325.5</ele>
        <time>2000-01-01T13:51:26.000Z</time>
      </trkpt>
      <trkpt lat="45.282" lon="5.82008">
        <ele>1325.2</ele>
        <time>2000-01-01T13:51:36.000Z</time>
      </trkpt>
      <trkpt lat="45.28199" lon="5.81989">
        <ele>1333</ele>
        <time>2000-01-01T13:51:46.000Z</time>
      </trkpt>
      <trkpt lat="45.28201" lon="5.81982">
        <ele>1337.9</ele>
        <time>2000-01-01T13:51:56.000Z</time>
      </trkpt>
      <trkpt lat="45.28198" lon="5.81967">
        <ele>1343.5</ele>
        <time>2000-01-01T13:52:06.000Z</time>
      </trkpt>
      <trkpt lat="45.28189" lon="5.81964">
        <ele>1340</ele>
        <time>2000-01-01T13:52:16.000Z</time>
      </trkpt>
      <trkpt lat="45.28183" lon="5.81947">
        <ele>1347.2</ele>
        <time>2000-01-01T13:52:26.000Z</time>
      </trkpt>
      <trkpt lat="45.28185" lon="5.81943">
        <ele>1349.6</ele>
        <time>2000-01-01T13:52:36.000Z</time>
      </trkpt>
      <trkpt lat="45.28188" lon="5.81949">
        <ele>1349</ele>
        <time>2000-01-01T13:52:46.000Z</time>
      </trkpt>
      <trkpt lat="45.28195" lon="5.81951">
        <ele>1349.4</ele>
        <time>2000-01-01T13:52:56.000Z</time>
      </trkpt>
      <trkpt lat="45.28199" lon="5.81952">
        <ele>1350.4</ele>
        <time>2000-01-01T13:53:06.000Z</time>
      </trkpt>
      <trkpt lat="45.28203" lon="5.81948">
        <ele>1353.5</ele>
        <time>2000-01-01T13:53:16.000Z</time>
      </trkpt>
      <trkpt lat="45.2821" lon="5.8195">
        <ele>1349</ele>
        <time>2000-01-01T13:53:26.000Z</time>
      </trkpt>
      <trkpt lat="45.28219" lon="5.81971">
        <ele>1349.4</ele>
        <time>2000-01-01T13:53:36.000Z</time>
      </trkpt>
      <trkpt lat="45.28225" lon="5.81977">
        <ele>1350</ele>
        <time>2000-01-01T13:53:46.000Z</time>
      </trkpt>
      <trkpt lat="45.28231" lon="5.81977">
        <ele>1351.1</ele>
        <time>2000-01-01T13:53:56.000Z</time>
      </trkpt>
      <trkpt lat="45.28242" lon="5.81983">
        <ele>1352.5</ele>
        <time>2000-01-01T13:54:06.000Z</time>
      </trkpt>
      <trkpt lat="45.28246" lon="5.81981">
        <ele>1352</ele>
        <time>2000-01-01T13:54:16.000Z</time>
      </trkpt>
      <trkpt lat="45.28258" lon="5.81993">
        <ele>1353.3</ele>
        <time>2000-01-01T13:54:26.000Z</time>
      </trkpt>
      <trkpt lat="45.28261" lon="5.81989">
        <ele>1355.9</ele>
        <time>2000-01-01T13:54:36.000Z</time>
      </trkpt>
      <trkpt lat="45.28265" lon="5.81989">
        <ele>1359</ele>
        <time>2000-01-01T13:54:46.000Z</time>
      </trkpt>
      <trkpt lat="45.2827" lon="5.81992">
        <ele>1357.2</ele>
        <time>2000-01-01T13:54:56.000Z</time>
      </trkpt>
      <trkpt lat="45.28278" lon="5.81993">
        <ele>1359.1</ele>
        <time>2000-01-01T13:55:06.000Z</time>
      </trkpt>
      <trkpt lat="45.28279" lon="5.81991">
        <ele>1360.1</ele>
        <time>2000-01-01T13:55:16.000Z</time>
      </trkpt>
      <trkpt lat="45.28287" lon="5.81993">
        <ele>1360</ele>
        <time>2000-01-01T13:55:26.000Z</time>
      </trkpt>
      <trkpt lat="45.28287" lon="5.81997">
        <ele>1359</ele>
        <time>2000-01-01T13:55:36.000Z</time>
      </trkpt>
      <trkpt lat="45.28288" lon="5.81986">
        <ele>1364.1</ele>
        <time>2000-01-01T13:55:46.000Z</time>
      </trkpt>
      <trkpt lat="45.28286" lon="5.8198">
        <ele>1366.3</ele>
        <time>2000-01-01T13:55:56.000Z</time>
      </trkpt>
      <trkpt lat="45.28285" lon="5.81982">
        <ele>1365.2</ele>
        <time>2000-01-01T13:56:06.000Z</time>
      </trkpt>
      <trkpt lat="45.2828" lon="5.81977">
        <ele>1369</ele>
        <time>2000-01-01T13:56:16.000Z</time>
      </trkpt>
      <trkpt lat="45.28271" lon="5.81974">
        <ele>1365.3</ele>
        <time>2000-01-01T13:56:26.000Z</time>
      </trkpt>
      <trkpt lat="45.28261" lon="5.81958">
        <ele>1372</ele>
        <time>2000-01-01T13:56:36.000Z</time>
      </trkpt>
      <trkpt lat="45.28257" lon="5.81945">
        <ele>1373.8</ele>
        <time>2000-01-01T13:56:46.000Z</time>
      </trkpt>
      <trkpt lat="45.28252" lon="5.81939">
        <ele>1374.9</ele>
        <time>2000-01-01T13:56:56.000Z</time>
      </trkpt>
      <trkpt lat="45.28263" lon="5.81946">
        <ele>1377</ele>
        <time>2000-01-01T13:57:06.000Z</time>
      </trkpt>
      <trkpt lat="45.28278" lon="5.81946">
        <ele>1379.4</ele>
        <time>2000-01-01T13:57:16.000Z</time>
      </trkpt>
      <trkpt lat="45.28281" lon="5.81948">
        <ele>1379.3</ele>
        <time>2000-01-01T13:57:26.000Z</time>
      </trkpt>
      <trkpt lat="45.28298" lon="5.81946">
        <ele>1386</ele>
        <time>2000-01-01T13:57:36.000Z</time>
      </trkpt>
      <trkpt lat="45.28307" lon="5.81941">
        <ele>1388.9</ele>
        <time>2000-01-01T13:57:46.000Z</time>
      </trkpt>
      <trkpt lat="45.2831" lon="5.81946">
        <ele>1387.1</ele>
        <time>2000-01-01T13:57:56.000Z</time>
      </trkpt>
      <trkpt lat="45.28318" lon="5.81946">
        <ele>1390</ele>
        <time>2000-01-01T13:58:06.000Z</time>
      </trkpt>
      <trkpt lat="45.28333" lon="5.81941">
        <ele>1393.6</ele>
        <time>2000-01-01T13:58:16.000Z</time>
      </trkpt>
      <trkpt lat="45.2834" lon="5.81949">
        <ele>1390</ele>
        <time>2000-01-01T13:58:26.000Z</time>
      </trkpt>
      <trkpt lat="45.2835" lon="5.81948">
        <ele>1391.7</ele>
        <time>2000-01-01T13:58:36.000Z</time>
      </trkpt>
      <trkpt lat="45.28357" lon="5.81957">
        <ele>1390</ele>
        <time>2000-01-01T13:58:46.000Z</time>
      </trkpt>
      <trkpt lat="45.28363" lon="5.81953">
        <ele>1390</ele>
        <time>2000-01-01T13:58:56.000Z</time>
      </trkpt>
      <trkpt lat="45.2835" lon="5.81942">
        <ele>1397</ele>
        <time>2000-01-01T13:59:06.000Z</time>
      </trkpt>
      <trkpt lat="45.28349" lon="5.81937">
        <ele>1397.3</ele>
        <time>2000-01-01T13:59:16.000Z</time>
      </trkpt>
      <trkpt lat="45.28351" lon="5.81933">
        <ele>1399.5</ele>
        <time>2000-01-01T13:59:26.000Z</time>
      </trkpt>
      <trkpt lat="45.28354" lon="5.81935">
        <ele>1398.9</ele>
        <time>2000-01-01T13:59:36.000Z</time>
      </trkpt>
      <trkpt lat="45.28372" lon="5.81928">
        <ele>1408</ele>
        <time>2000-01-01T13:59:46.000Z</time>
      </trkpt>
      <trkpt lat="45.28394" lon="5.8193">
        <ele>1408</ele>
        <time>2000-01-01T13:59:56.000Z</time>
      </trkpt>
      <trkpt lat="45.28413" lon="5.81922">
        <ele>1415</ele>
        <time>2000-01-01T14:00:06.000Z</time>
      </trkpt>
      <trkpt lat="45.28424" lon="5.8192">
        <ele>1415.8</ele>
        <time>2000-01-01T14:00:16.000Z</time>
      </trkpt>
      <trkpt lat="45.2844" lon="5.81908">
        <ele>1420</ele>
        <time>2000-01-01T14:00:26.000Z</time>
      </trkpt>
      <trkpt lat="45.2845" lon="5.81905">
        <ele>1417.9</ele>
        <time>2000-01-01T14:00:36.000Z</time>
      </trkpt>
      <trkpt lat="45.28452" lon="5.81901">
        <ele>1417.7</ele>
        <time>2000-01-01T14:00:46.000Z</time>
      </trkpt>
      <trkpt lat="45.2844" lon="5.81904">
        <ele>1420</ele>
        <time>2000-01-01T14:00:56.000Z</time>
      </trkpt>
      <trkpt lat="45.28419" lon="5.81898">
        <ele>1422</ele>
        <time>2000-01-01T14:01:06.000Z</time>
      </trkpt>
      <trkpt lat="45.28409" lon="5.81898">
        <ele>1420.1</ele>
        <time>2000-01-01T14:01:16.000Z</time>
      </trkpt>
      <trkpt lat="45.28401" lon="5.81895">
        <ele>1420.5</ele>
        <time>2000-01-01T14:01:26.000Z</time>
      </trkpt>
      <trkpt lat="45.28393" lon="5.81888">
        <ele>1423</ele>
        <time>2000-01-01T14:01:36.000Z</time>
      </trkpt>
      <trkpt lat="45.28372" lon="5.81879">
        <ele>1424</ele>
        <time>2000-01-01T14:01:46.000Z</time>
      </trkpt>
      <trkpt lat="45.28364" lon="5.81866">
        <ele>1424</ele>
        <time>2000-01-01T14:01:56.000Z</time>
      </trkpt>
      <trkpt lat="45.28352" lon="5.81853">
        <ele>1423</ele>
        <time>2000-01-01T14:02:06.000Z</time>
      </trkpt>
      <trkpt lat="45.28313" lon="5.81819">
        <ele>1423</ele>
        <time>2000-01-01T14:02:16.000Z</time>
      </trkpt>
      <trkpt lat="45.28295" lon="5.818">
        <ele>1419</ele>
        <time>2000-01-01T14:02:26.000Z</time>
      </trkpt>
      <trkpt lat="45.28275" lon="5.81773">
        <ele>1418</ele>
        <time>2000-01-01T14:02:36.000Z</time>
      </trkpt>
      <trkpt lat="45.2827" lon="5.81772">
        <ele>1418.1</ele>
        <time>2000-01-01T14:02:46.000Z</time>
      </trkpt>
      <trkpt lat="45.28239" lon="5.81726">
        <ele>1413</ele>
        <time>2000-01-01T14:02:56.000Z</time>
      </trkpt>
      <trkpt lat="45.28222" lon="5.81692">
        <ele>1416</ele>
        <time>2000-01-01T14:03:06.000Z</time>
      </trkpt>
      <trkpt lat="45.28198" lon="5.817">
        <ele>1420</ele>
        <time>2000-01-01T14:03:16.000Z</time>
      </trkpt>
      <trkpt lat="45.2817" lon="5.8171">
        <ele>1431</ele>
        <time>2000-01-01T14:03:26.000Z</time>
      </trkpt>
      <trkpt lat="45.28141" lon="5.81686">
        <ele>1434</ele>
        <time>2000-01-01T14:03:36.000Z</time>
      </trkpt>
      <trkpt lat="45.28135" lon="5.8165">
        <ele>1442</ele>
        <time>2000-01-01T14:03:46.000Z</time>
      </trkpt>
      <trkpt lat="45.28131" lon="5.81617">
        <ele>1442</ele>
        <time>2000-01-01T14:03:56.000Z</time>
      </trkpt>
      <trkpt lat="45.28137" lon="5.81562">
        <ele>1438</ele>
        <time>2000-01-01T14:04:06.000Z</time>
      </trkpt>
      <trkpt lat="45.28147" lon="5.81512">
        <ele>1431</ele>
        <time>2000-01-01T14:04:16.000Z</time>
      </trkpt>
      <trkpt lat="45.28179" lon="5.8154">
        <ele>1416</ele>
        <time>2000-01-01T14:04:26.000Z</time>
      </trkpt>
      <trkpt lat="45.28206" lon="5.81529">
        <ele>1408</ele>
        <time>2000-01-01T14:04:36.000Z</time>
      </trkpt>
      <trkpt lat="45.28233" lon="5.81562">
        <ele>1386</ele>
        <time>2000-01-01T14:04:46.000Z</time>
      </trkpt>
      <trkpt lat="45.28254" lon="5.81536">
        <ele>1385</ele>
        <time>2000-01-01T14:04:56.000Z</time>
      </trkpt>
      <trkpt lat="45.28285" lon="5.81499">
        <ele>1382</ele>
        <time>2000-01-01T14:05:06.000Z</time>
      </trkpt>
      <trkpt lat="45.2831" lon="5.81475">
        <ele>1379</ele>
        <time>2000-01-01T14:05:16.000Z</time>
      </trkpt>
      <trkpt lat="45.28332" lon="5.81455">
        <ele>1379</ele>
        <time>2000-01-01T14:05:26.000Z</time>
      </trkpt>
      <trkpt lat="45.28357" lon="5.81431">
        <ele>1383</ele>
        <time>2000-01-01T14:05:36.000Z</time>
      </trkpt>
      <trkpt lat="45.28368" lon="5.81397">
        <ele>1387</ele>
        <time>2000-01-01T14:05:46.000Z</time>
      </trkpt>
      <trkpt lat="45.28381" lon="5.81356">
        <ele>1389</ele>
        <time>2000-01-01T14:05:56.000Z</time>
      </trkpt>
      <trkpt lat="45.28396" lon="5.81311">
        <ele>1394</ele>
        <time>2000-01-01T14:06:06.000Z</time>
      </trkpt>
      <trkpt lat="45.28408" lon="5.81267">
        <ele>1401</ele>
        <time>2000-01-01T14:06:16.000Z</time>
      </trkpt>
      <trkpt lat="45.28419" lon="5.81227">
        <ele>1406</ele>
        <time>2000-01-01T14:06:26.000Z</time>
      </trkpt>
      <trkpt lat="45.28429" lon="5.81194">
        <ele>1408</ele>
        <time>2000-01-01T14:06:36.000Z</time>
      </trkpt>
      <trkpt lat="45.28439" lon="5.81158">
        <ele>1409</ele>
        <time>2000-01-01T14:06:46.000Z</time>
      </trkpt>
      <trkpt lat="45.28407" lon="5.81148">
        <ele>1412</ele>
        <time>2000-01-01T14:06:56.000Z</time>
      </trkpt>
      <trkpt lat="45.28375" lon="5.81138">
        <ele>1414</ele>
        <time>2000-01-01T14:07:06.000Z</time>
      </trkpt>
      <trkpt lat="45.28335" lon="5.81126">
        <ele>1415</ele>
        <time>2000-01-01T14:07:16.000Z</time>
      </trkpt>
      <trkpt lat="45.28307" lon="5.81112">
        <ele>1417</ele>
        <time>2000-01-01T14:07:26.000Z</time>
      </trkpt>
      <trkpt lat="45.28284" lon="5.81101">
        <ele>1417</ele>
        <time>2000-01-01T14:07:36.000Z</time>
      </trkpt>
      <trkpt lat="45.28261" lon="5.8109">
        <ele>1418</ele>
        <time>2000-01-01T14:07:46.000Z</time>
      </trkpt>
      <trkpt lat="45.28236" lon="5.81076">
        <ele>1422</ele>
        <time>2000-01-01T14:07:56.000Z</time>
      </trkpt>
      <trkpt lat="45.28205" lon="5.81059">
        <ele>1427</ele>
        <time>2000-01-01T14:08:06.000Z</time>
      </trkpt>
      <trkpt lat="45.28181" lon="5.81042">
        <ele>1427</ele>
        <time>2000-01-01T14:08:16.000Z</time>
      </trkpt>
      <trkpt lat="45.28149" lon="5.81021">
        <ele>1427</ele>
        <time>2000-01-01T14:08:26.000Z</time>
      </trkpt>
      <trkpt lat="45.28149" lon="5.80984">
        <ele>1423</ele>
        <time>2000-01-01T14:08:36.000Z</time>
      </trkpt>
      <trkpt lat="45.2815" lon="5.80939">
        <ele>1417</ele>
        <time>2000-01-01T14:08:46.000Z</time>
      </trkpt>
      <trkpt lat="45.28161" lon="5.80904">
        <ele>1415</ele>
        <time>2000-01-01T14:08:56.000Z</time>
      </trkpt>
      <trkpt lat="45.28177" lon="5.80856">
        <ele>1412</ele>
        <time>2000-01-01T14:09:06.000Z</time>
      </trkpt>
      <trkpt lat="45.28193" lon="5.80809">
        <ele>1412</ele>
        <time>2000-01-01T14:09:16.000Z</time>
      </trkpt>
      <trkpt lat="45.28207" lon="5.80777">
        <ele>1412</ele>
        <time>2000-01-01T14:09:26.000Z</time>
      </trkpt>
      <trkpt lat="45.28226" lon="5.80734">
        <ele>1412</ele>
        <time>2000-01-01T14:09:36.000Z</time>
      </trkpt>
      <trkpt lat="45.28236" lon="5.80696">
        <ele>1412</ele>
        <time>2000-01-01T14:09:46.000Z</time>
      </trkpt>
      <trkpt lat="45.2825" lon="5.80638">
        <ele>1410</ele>
        <time>2000-01-01T14:09:56.000Z</time>
      </trkpt>
      <trkpt lat="45.28268" lon="5.806">
        <ele>1410</ele>
        <time>2000-01-01T14:10:06.000Z</time>
      </trkpt>
      <trkpt lat="45.28285" lon="5.80563">
        <ele>1408</ele>
        <time>2000-01-01T14:10:16.000Z</time>
      </trkpt>
      <trkpt lat="45.28304" lon="5.80523">
        <ele>1407</ele>
        <time>2000-01-01T14:10:26.000Z</time>
      </trkpt>
      <trkpt lat="45.2832" lon="5.80491">
        <ele>1402</ele>
        <time>2000-01-01T14:10:36.000Z</time>
      </trkpt>
      <trkpt lat="45.28342" lon="5.80447">
        <ele>1388</ele>
        <time>2000-01-01T14:10:46.000Z</time>
      </trkpt>
      <trkpt lat="45.28361" lon="5.80421">
        <ele>1380</ele>
        <time>2000-01-01T14:10:56.000Z</time>
      </trkpt>
      <trkpt lat="45.28386" lon="5.80388">
        <ele>1374</ele>
        <time>2000-01-01T14:11:06.000Z</time>
      </trkpt>
      <trkpt lat="45.28381" lon="5.80369">
        <ele>1374.8</ele>
        <time>2000-01-01T14:11:16.000Z</time>
      </trkpt>
      <trkpt lat="45.28383" lon="5.8038">
        <ele>1374</ele>
        <time>2000-01-01T14:11:26.000Z</time>
      </trkpt>
      <trkpt lat="45.28386" lon="5.80372">
        <ele>1375.5</ele>
        <time>2000-01-01T14:11:36.000Z</time>
      </trkpt>
      <trkpt lat="45.28389" lon="5.80374">
        <ele>1375.7</ele>
        <time>2000-01-01T14:11:46.000Z</time>
      </trkpt>
      <trkpt lat="45.28393" lon="5.80345">
        <ele>1379</ele>
        <time>2000-01-01T14:11:56.000Z</time>
      </trkpt>
      <trkpt lat="45.28399" lon="5.80325">
        <ele>1380</ele>
        <time>2000-01-01T14:12:06.000Z</time>
      </trkpt>
      <trkpt lat="45.28407" lon="5.80318">
        <ele>1380</ele>
        <time>2000-01-01T14:12:16.000Z</time>
      </trkpt>
      <trkpt lat="45.28421" lon="5.80291">
        <ele>1381</ele>
        <time>2000-01-01T14:12:26.000Z</time>
      </trkpt>
      <trkpt lat="45.28445" lon="5.80261">
        <ele>1380</ele>
        <time>2000-01-01T14:12:36.000Z</time>
      </trkpt>
      <trkpt lat="45.28457" lon="5.80236">
        <ele>1380</ele>
        <time>2000-01-01T14:12:46.000Z</time>
      </trkpt>
      <trkpt lat="45.28462" lon="5.80193">
        <ele>1376</ele>
        <time>2000-01-01T14:12:56.000Z</time>
      </trkpt>
      <trkpt lat="45.28469" lon="5.80165">
        <ele>1378</ele>
        <time>2000-01-01T14:13:06.000Z</time>
      </trkpt>
      <trkpt lat="45.28471" lon="5.80127">
        <ele>1381</ele>
        <time>2000-01-01T14:13:16.000Z</time>
      </trkpt>
      <trkpt lat="45.28476" lon="5.80093">
        <ele>1383</ele>
        <time>2000-01-01T14:13:26.000Z</time>
      </trkpt>
      <trkpt lat="45.28474" lon="5.80069">
        <ele>1383.3</ele>
        <time>2000-01-01T14:13:36.000Z</time>
      </trkpt>
      <trkpt lat="45.2847" lon="5.80066">
        <ele>1387</ele>
        <time>2000-01-01T14:13:46.000Z</time>
      </trkpt>
      <trkpt lat="45.28462" lon="5.80047">
        <ele>1388.1</ele>
        <time>2000-01-01T14:13:56.000Z</time>
      </trkpt>
      <trkpt lat="45.28459" lon="5.80002">
        <ele>1401</ele>
        <time>2000-01-01T14:14:06.000Z</time>
      </trkpt>
      <trkpt lat="45.28447" lon="5.79968">
        <ele>1413</ele>
        <time>2000-01-01T14:14:16.000Z</time>
      </trkpt>
      <trkpt lat="45.28446" lon="5.79943">
        <ele>1414.4</ele>
        <time>2000-01-01T14:14:26.000Z</time>
      </trkpt>
      <trkpt lat="45.28441" lon="5.7993">
        <ele>1420</ele>
        <time>2000-01-01T14:14:36.000Z</time>
      </trkpt>
      <trkpt lat="45.28436" lon="5.79894">
        <ele>1431</ele>
        <time>2000-01-01T14:14:46.000Z</time>
      </trkpt>
      <trkpt lat="45.28433" lon="5.79889">
        <ele>1429</ele>
        <time>2000-01-01T14:14:56.000Z</time>
      </trkpt>
      <trkpt lat="45.28433" lon="5.79878">
        <ele>1432.8</ele>
        <time>2000-01-01T14:15:06.000Z</time>
      </trkpt>
      <trkpt lat="45.28429" lon="5.7987">
        <ele>1441</ele>
        <time>2000-01-01T14:15:16.000Z</time>
      </trkpt>
      <trkpt lat="45.28432" lon="5.79866">
        <ele>1437.1</ele>
        <time>2000-01-01T14:15:26.000Z</time>
      </trkpt>
      <trkpt lat="45.28431" lon="5.79851">
        <ele>1442.4</ele>
        <time>2000-01-01T14:15:36.000Z</time>
      </trkpt>
      <trkpt lat="45.28434" lon="5.79839">
        <ele>1451</ele>
        <time>2000-01-01T14:15:46.000Z</time>
      </trkpt>
      <trkpt lat="45.28443" lon="5.79818">
        <ele>1453.2</ele>
        <time>2000-01-01T14:15:56.000Z</time>
      </trkpt>
      <trkpt lat="45.28443" lon="5.79812">
        <ele>1458</ele>
        <time>2000-01-01T14:16:06.000Z</time>
      </trkpt>
      <trkpt lat="45.2844" lon="5.79807">
        <ele>1457.8</ele>
        <time>2000-01-01T14:16:16.000Z</time>
      </trkpt>
      <trkpt lat="45.28442" lon="5.79799">
        <ele>1460.3</ele>
        <time>2000-01-01T14:16:26.000Z</time>
      </trkpt>
      <trkpt lat="45.28429" lon="5.79784">
        <ele>1469</ele>
        <time>2000-01-01T14:16:36.000Z</time>
      </trkpt>
      <trkpt lat="45.28427" lon="5.79785">
        <ele>1466.4</ele>
        <time>2000-01-01T14:16:46.000Z</time>
      </trkpt>
      <trkpt lat="45.28423" lon="5.79782">
        <ele>1467.8</ele>
        <time>2000-01-01T14:16:56.000Z</time>
      </trkpt>
      <trkpt lat="45.28421" lon="5.79774">
        <ele>1470.8</ele>
        <time>2000-01-01T14:17:06.000Z</time>
      </trkpt>
      <trkpt lat="45.28416" lon="5.79767">
        <ele>1470</ele>
        <time>2000-01-01T14:17:16.000Z</time>
      </trkpt>
      <trkpt lat="45.284" lon="5.79751">
        <ele>1471</ele>
        <time>2000-01-01T14:17:26.000Z</time>
      </trkpt>
      <trkpt lat="45.28399" lon="5.79734">
        <ele>1477.9</ele>
        <time>2000-01-01T14:17:36.000Z</time>
      </trkpt>
      <trkpt lat="45.28397" lon="5.79735">
        <ele>1476.9</ele>
        <time>2000-01-01T14:17:46.000Z</time>
      </trkpt>
      <trkpt lat="45.284" lon="5.79738">
        <ele>1477.1</ele>
        <time>2000-01-01T14:17:56.000Z</time>
      </trkpt>
      <trkpt lat="45.28406" lon="5.79735">
        <ele>1480</ele>
        <time>2000-01-01T14:18:06.000Z</time>
      </trkpt>
      <trkpt lat="45.28409" lon="5.79737">
        <ele>1480.3</ele>
        <time>2000-01-01T14:18:16.000Z</time>
      </trkpt>
      <trkpt lat="45.28421" lon="5.79734">
        <ele>1483.1</ele>
        <time>2000-01-01T14:18:26.000Z</time>
      </trkpt>
      <trkpt lat="45.28431" lon="5.79738">
        <ele>1480</ele>
        <time>2000-01-01T14:18:36.000Z</time>
      </trkpt>
      <trkpt lat="45.28438" lon="5.79737">
        <ele>1480.1</ele>
        <time>2000-01-01T14:18:46.000Z</time>
      </trkpt>
      <trkpt lat="45.28449" lon="5.79734">
        <ele>1477.7</ele>
        <time>2000-01-01T14:18:56.000Z</time>
      </trkpt>
      <trkpt lat="45.28454" lon="5.79724">
        <ele>1481</ele>
        <time>2000-01-01T14:19:06.000Z</time>
      </trkpt>
      <trkpt lat="45.28451" lon="5.79708">
        <ele>1483.2</ele>
        <time>2000-01-01T14:19:16.000Z</time>
      </trkpt>
      <trkpt lat="45.28444" lon="5.79703">
        <ele>1491</ele>
        <time>2000-01-01T14:19:26.000Z</time>
      </trkpt>
      <trkpt lat="45.28442" lon="5.79698">
        <ele>1489.5</ele>
        <time>2000-01-01T14:19:36.000Z</time>
      </trkpt>
      <trkpt lat="45.28435" lon="5.79694">
        <ele>1491.8</ele>
        <time>2000-01-01T14:19:46.000Z</time>
      </trkpt>
      <trkpt lat="45.28431" lon="5.79695">
        <ele>1492.3</ele>
        <time>2000-01-01T14:19:56.000Z</time>
      </trkpt>
      <trkpt lat="45.28425" lon="5.7969">
        <ele>1496</ele>
        <time>2000-01-01T14:20:06.000Z</time>
      </trkpt>
      <trkpt lat="45.28424" lon="5.79686">
        <ele>1495.8</ele>
        <time>2000-01-01T14:20:16.000Z</time>
      </trkpt>
      <trkpt lat="45.28426" lon="5.79687">
        <ele>1495.2</ele>
        <time>2000-01-01T14:20:26.000Z</time>
      </trkpt>
      <trkpt lat="45.28433" lon="5.79683">
        <ele>1494.9</ele>
        <time>2000-01-01T14:20:36.000Z</time>
      </trkpt>
      <trkpt lat="45.28437" lon="5.79687">
        <ele>1493.2</ele>
        <time>2000-01-01T14:20:46.000Z</time>
      </trkpt>
      <trkpt lat="45.28444" lon="5.79683">
        <ele>1496</ele>
        <time>2000-01-01T14:20:56.000Z</time>
      </trkpt>
      <trkpt lat="45.28445" lon="5.79661">
        <ele>1497.7</ele>
        <time>2000-01-01T14:21:06.000Z</time>
      </trkpt>
      <trkpt lat="45.28438" lon="5.79642">
        <ele>1508</ele>
        <time>2000-01-01T14:21:16.000Z</time>
      </trkpt>
      <trkpt lat="45.28438" lon="5.79625">
        <ele>1505.7</ele>
        <time>2000-01-01T14:21:26.000Z</time>
      </trkpt>
      <trkpt lat="45.28435" lon="5.79621">
        <ele>1507.3</ele>
        <time>2000-01-01T14:21:36.000Z</time>
      </trkpt>
      <trkpt lat="45.28429" lon="5.79622">
        <ele>1513</ele>
        <time>2000-01-01T14:21:46.000Z</time>
      </trkpt>
      <trkpt lat="45.28425" lon="5.79619">
        <ele>1511.3</ele>
        <time>2000-01-01T14:21:56.000Z</time>
      </trkpt>
      <trkpt lat="45.28426" lon="5.7961">
        <ele>1512.5</ele>
        <time>2000-01-01T14:22:06.000Z</time>
      </trkpt>
      <trkpt lat="45.2842" lon="5.79599">
        <ele>1519</ele>
        <time>2000-01-01T14:22:16.000Z</time>
      </trkpt>
      <trkpt lat="45.28421" lon="5.79596">
        <ele>1517.3</ele>
        <time>2000-01-01T14:22:26.000Z</time>
      </trkpt>
      <trkpt lat="45.28419" lon="5.79597">
        <ele>1518</ele>
        <time>2000-01-01T14:22:36.000Z</time>
      </trkpt>
      <trkpt lat="45.28417" lon="5.79562">
        <ele>1526</ele>
        <time>2000-01-01T14:22:46.000Z</time>
      </trkpt>
      <trkpt lat="45.28406" lon="5.79519">
        <ele>1534</ele>
        <time>2000-01-01T14:22:56.000Z</time>
      </trkpt>
      <trkpt lat="45.28408" lon="5.79511">
        <ele>1532.4</ele>
        <time>2000-01-01T14:23:06.000Z</time>
      </trkpt>
      <trkpt lat="45.28405" lon="5.79506">
        <ele>1532.5</ele>
        <time>2000-01-01T14:23:16.000Z</time>
      </trkpt>
      <trkpt lat="45.2841" lon="5.79484">
        <ele>1539</ele>
        <time>2000-01-01T14:23:26.000Z</time>
      </trkpt>
      <trkpt lat="45.28408" lon="5.79475">
        <ele>1539.2</ele>
        <time>2000-01-01T14:23:36.000Z</time>
      </trkpt>
      <trkpt lat="45.28411" lon="5.7943">
        <ele>1559</ele>
        <time>2000-01-01T14:23:46.000Z</time>
      </trkpt>
      <trkpt lat="45.28406" lon="5.79418">
        <ele>1559.9</ele>
        <time>2000-01-01T14:23:56.000Z</time>
      </trkpt>
      <trkpt lat="45.28393" lon="5.79403">
        <ele>1560</ele>
        <time>2000-01-01T14:24:06.000Z</time>
      </trkpt>
      <trkpt lat="45.28379" lon="5.7939">
        <ele>1562.5</ele>
        <time>2000-01-01T14:24:16.000Z</time>
      </trkpt>
      <trkpt lat="45.28364" lon="5.79382">
        <ele>1566</ele>
        <time>2000-01-01T14:24:26.000Z</time>
      </trkpt>
      <trkpt lat="45.28352" lon="5.79389">
        <ele>1564.6</ele>
        <time>2000-01-01T14:24:36.000Z</time>
      </trkpt>
      <trkpt lat="45.28347" lon="5.79396">
        <ele>1566</ele>
        <time>2000-01-01T14:24:46.000Z</time>
      </trkpt>
      <trkpt lat="45.28335" lon="5.794">
        <ele>1562.9</ele>
        <time>2000-01-01T14:24:56.000Z</time>
      </trkpt>
      <trkpt lat="45.2833" lon="5.79399">
        <ele>1564</ele>
        <time>2000-01-01T14:25:06.000Z</time>
      </trkpt>
      <trkpt lat="45.28323" lon="5.79403">
        <ele>1566</ele>
        <time>2000-01-01T14:25:16.000Z</time>
      </trkpt>
      <trkpt lat="45.28317" lon="5.79401">
        <ele>1564.8</ele>
        <time>2000-01-01T14:25:26.000Z</time>
      </trkpt>
      <trkpt lat="45.28287" lon="5.79373">
        <ele>1575</ele>
        <time>2000-01-01T14:25:36.000Z</time>
      </trkpt>
      <trkpt lat="45.28265" lon="5.79357">
        <ele>1577</ele>
        <time>2000-01-01T14:25:46.000Z</time>
      </trkpt>
      <trkpt lat="45.28242" lon="5.7934">
        <ele>1580</ele>
        <time>2000-01-01T14:25:56.000Z</time>
      </trkpt>
      <trkpt lat="45.28234" lon="5.79337">
        <ele>1581.1</ele>
        <time>2000-01-01T14:26:06.000Z</time>
      </trkpt>
      <trkpt lat="45.28231" lon="5.79329">
        <ele>1583.7</ele>
        <time>2000-01-01T14:26:16.000Z</time>
      </trkpt>
      <trkpt lat="45.28222" lon="5.79317">
        <ele>1587</ele>
        <time>2000-01-01T14:26:26.000Z</time>
      </trkpt>
      <trkpt lat="45.28212" lon="5.7931">
        <ele>1586.4</ele>
        <time>2000-01-01T14:26:36.000Z</time>
      </trkpt>
      <trkpt lat="45.28209" lon="5.79298">
        <ele>1590</ele>
        <time>2000-01-01T14:26:46.000Z</time>
      </trkpt>
      <trkpt lat="45.28195" lon="5.79286">
        <ele>1590.2</ele>
        <time>2000-01-01T14:26:56.000Z</time>
      </trkpt>
      <trkpt lat="45.28188" lon="5.79275">
        <ele>1591</ele>
        <time>2000-01-01T14:27:06.000Z</time>
      </trkpt>
      <trkpt lat="45.28181" lon="5.79271">
        <ele>1591.4</ele>
        <time>2000-01-01T14:27:16.000Z</time>
      </trkpt>
      <trkpt lat="45.28175" lon="5.79256">
        <ele>1587</ele>
        <time>2000-01-01T14:27:26.000Z</time>
      </trkpt>
      <trkpt lat="45.28166" lon="5.7925">
        <ele>1593.8</ele>
        <time>2000-01-01T14:27:36.000Z</time>
      </trkpt>
      <trkpt lat="45.28162" lon="5.79253">
        <ele>1591.7</ele>
        <time>2000-01-01T14:27:46.000Z</time>
      </trkpt>
      <trkpt lat="45.28119" lon="5.79241">
        <ele>1587</ele>
        <time>2000-01-01T14:27:56.000Z</time>
      </trkpt>
      <trkpt lat="45.28089" lon="5.79218">
        <ele>1587</ele>
        <time>2000-01-01T14:28:06.000Z</time>
      </trkpt>
      <trkpt lat="45.28078" lon="5.79214">
        <ele>1586</ele>
        <time>2000-01-01T14:28:16.000Z</time>
      </trkpt>
      <trkpt lat="45.2807" lon="5.79208">
        <ele>1587</ele>
        <time>2000-01-01T14:28:26.000Z</time>
      </trkpt>
      <trkpt lat="45.28059" lon="5.79206">
        <ele>1586.1</ele>
        <time>2000-01-01T14:28:36.000Z</time>
      </trkpt>
      <trkpt lat="45.28048" lon="5.79198">
        <ele>1587</ele>
        <time>2000-01-01T14:28:46.000Z</time>
      </trkpt>
      <trkpt lat="45.28043" lon="5.7919">
        <ele>1588.5</ele>
        <time>2000-01-01T14:28:56.000Z</time>
      </trkpt>
      <trkpt lat="45.28029" lon="5.79182">
        <ele>1587</ele>
        <time>2000-01-01T14:29:06.000Z</time>
      </trkpt>
      <trkpt lat="45.28024" lon="5.79188">
        <ele>1585.8</ele>
        <time>2000-01-01T14:29:16.000Z</time>
      </trkpt>
      <trkpt lat="45.28007" lon="5.79154">
        <ele>1589</ele>
        <time>2000-01-01T14:29:26.000Z</time>
      </trkpt>
      <trkpt lat="45.28031" lon="5.79118">
        <ele>1592</ele>
        <time>2000-01-01T14:29:36.000Z</time>
      </trkpt>
      <trkpt lat="45.28032" lon="5.7911">
        <ele>1594.1</ele>
        <time>2000-01-01T14:29:46.000Z</time>
      </trkpt>
      <trkpt lat="45.28044" lon="5.79062">
        <ele>1594</ele>
        <time>2000-01-01T14:29:56.000Z</time>
      </trkpt>
      <trkpt lat="45.28047" lon="5.79055">
        <ele>1599.4</ele>
        <time>2000-01-01T14:30:06.000Z</time>
      </trkpt>
      <trkpt lat="45.28049" lon="5.79044">
        <ele>1599.4</ele>
        <time>2000-01-01T14:30:16.000Z</time>
      </trkpt>
      <trkpt lat="45.2805" lon="5.79043">
        <ele>1600</ele>
        <time>2000-01-01T14:30:26.000Z</time>
      </trkpt>
      <trkpt lat="45.28055" lon="5.79026">
        <ele>1598</ele>
        <time>2000-01-01T14:30:36.000Z</time>
      </trkpt>
      <trkpt lat="45.28058" lon="5.79021">
        <ele>1602.9</ele>
        <time>2000-01-01T14:30:46.000Z</time>
      </trkpt>
      <trkpt lat="45.28061" lon="5.79006">
        <ele>1603</ele>
        <time>2000-01-01T14:30:56.000Z</time>
      </trkpt>
      <trkpt lat="45.28062" lon="5.79005">
        <ele>1603.6</ele>
        <time>2000-01-01T14:31:06.000Z</time>
      </trkpt>
      <trkpt lat="45.28062" lon="5.79004">
        <ele>1603.4</ele>
        <time>2000-01-01T14:31:16.000Z</time>
      </trkpt>
      <trkpt lat="45.28066" lon="5.78995">
        <ele>1599</ele>
        <time>2000-01-01T14:31:26.000Z</time>
      </trkpt>
      <trkpt lat="45.28066" lon="5.78983">
        <ele>1603.2</ele>
        <time>2000-01-01T14:31:36.000Z</time>
      </trkpt>
      <trkpt lat="45.2807" lon="5.7897">
        <ele>1604</ele>
        <time>2000-01-01T14:31:46.000Z</time>
      </trkpt>
      <trkpt lat="45.28074" lon="5.78961">
        <ele>1601</ele>
        <time>2000-01-01T14:31:56.000Z</time>
      </trkpt>
      <trkpt lat="45.28075" lon="5.7895">
        <ele>1604.2</ele>
        <time>2000-01-01T14:32:06.000Z</time>
      </trkpt>
      <trkpt lat="45.28077" lon="5.78941">
        <ele>1604.6</ele>
        <time>2000-01-01T14:32:16.000Z</time>
      </trkpt>
      <trkpt lat="45.2808" lon="5.78932">
        <ele>1606</ele>
        <time>2000-01-01T14:32:26.000Z</time>
      </trkpt>
      <trkpt lat="45.2808" lon="5.78923">
        <ele>1606.1</ele>
        <time>2000-01-01T14:32:36.000Z</time>
      </trkpt>
      <trkpt lat="45.28085" lon="5.78916">
        <ele>1609.3</ele>
        <time>2000-01-01T14:32:46.000Z</time>
      </trkpt>
      <trkpt lat="45.28088" lon="5.78907">
        <ele>1608</ele>
        <time>2000-01-01T14:32:56.000Z</time>
      </trkpt>
      <trkpt lat="45.28094" lon="5.78899">
        <ele>1617.2</ele>
        <time>2000-01-01T14:33:06.000Z</time>
      </trkpt>
      <trkpt lat="45.28098" lon="5.78889">
        <ele>1620.4</ele>
        <time>2000-01-01T14:33:16.000Z</time>
      </trkpt>
      <trkpt lat="45.28097" lon="5.78887">
        <ele>1620.5</ele>
        <time>2000-01-01T14:33:26.000Z</time>
      </trkpt>
      <trkpt lat="45.28092" lon="5.78883">
        <ele>1610</ele>
        <time>2000-01-01T14:33:36.000Z</time>
      </trkpt>
      <trkpt lat="45.28088" lon="5.78883">
        <ele>1616.7</ele>
        <time>2000-01-01T14:33:46.000Z</time>
      </trkpt>
      <trkpt lat="45.28084" lon="5.78881">
        <ele>1615.2</ele>
        <time>2000-01-01T14:33:56.000Z</time>
      </trkpt>
      <trkpt lat="45.28082" lon="5.78877">
        <ele>1615.7</ele>
        <time>2000-01-01T14:34:06.000Z</time>
      </trkpt>
      <trkpt lat="45.28077" lon="5.78873">
        <ele>1615.1</ele>
        <time>2000-01-01T14:34:16.000Z</time>
      </trkpt>
      <trkpt lat="45.2807" lon="5.78863">
        <ele>1612</ele>
        <time>2000-01-01T14:34:26.000Z</time>
      </trkpt>
      <trkpt lat="45.28065" lon="5.78851">
        <ele>1617.5</ele>
        <time>2000-01-01T14:34:36.000Z</time>
      </trkpt>
      <trkpt lat="45.28059" lon="5.78845">
        <ele>1616.6</ele>
        <time>2000-01-01T14:34:46.000Z</time>
      </trkpt>
      <trkpt lat="45.28055" lon="5.78838">
        <ele>1612</ele>
        <time>2000-01-01T14:34:56.000Z</time>
      </trkpt>
      <trkpt lat="45.28054" lon="5.78838">
        <ele>1616</ele>
        <time>2000-01-01T14:35:06.000Z</time>
      </trkpt>
      <trkpt lat="45.28053" lon="5.78837">
        <ele>1615.7</ele>
        <time>2000-01-01T14:35:16.000Z</time>
      </trkpt>
      <trkpt lat="45.2805" lon="5.78807">
        <ele>1613</ele>
        <time>2000-01-01T14:35:26.000Z</time>
      </trkpt>
      <trkpt lat="45.28052" lon="5.78794">
        <ele>1622.5</ele>
        <time>2000-01-01T14:35:36.000Z</time>
      </trkpt>
      <trkpt lat="45.28052" lon="5.78777">
        <ele>1615</ele>
        <time>2000-01-01T14:35:46.000Z</time>
      </trkpt>
      <trkpt lat="45.28051" lon="5.78776">
        <ele>1624.2</ele>
        <time>2000-01-01T14:35:56.000Z</time>
      </trkpt>
      <trkpt lat="45.28051" lon="5.78764">
        <ele>1625.5</ele>
        <time>2000-01-01T14:36:06.000Z</time>
      </trkpt>
      <trkpt lat="45.28047" lon="5.78743">
        <ele>1618</ele>
        <time>2000-01-01T14:36:16.000Z</time>
      </trkpt>
      <trkpt lat="45.28046" lon="5.78717">
        <ele>1625.4</ele>
        <time>2000-01-01T14:36:26.000Z</time>
      </trkpt>
      <trkpt lat="45.28043" lon="5.78704">
        <ele>1620</ele>
        <time>2000-01-01T14:36:36.000Z</time>
      </trkpt>
      <trkpt lat="45.28041" lon="5.78692">
        <ele>1623.4</ele>
        <time>2000-01-01T14:36:46.000Z</time>
      </trkpt>
      <trkpt lat="45.28043" lon="5.78678">
        <ele>1626.5</ele>
        <time>2000-01-01T14:36:56.000Z</time>
      </trkpt>
      <trkpt lat="45.28043" lon="5.78668">
        <ele>1626</ele>
        <time>2000-01-01T14:37:06.000Z</time>
      </trkpt>
      <trkpt lat="45.28035" lon="5.78645">
        <ele>1628.1</ele>
        <time>2000-01-01T14:37:16.000Z</time>
      </trkpt>
      <trkpt lat="45.28031" lon="5.78636">
        <ele>1628</ele>
        <time>2000-01-01T14:37:26.000Z</time>
      </trkpt>
      <trkpt lat="45.28024" lon="5.78613">
        <ele>1628</ele>
        <time>2000-01-01T14:37:36.000Z</time>
      </trkpt>
      <trkpt lat="45.28024" lon="5.78607">
        <ele>1628</ele>
        <time>2000-01-01T14:37:46.000Z</time>
      </trkpt>
      <trkpt lat="45.28023" lon="5.78597">
        <ele>1630.3</ele>
        <time>2000-01-01T14:37:56.000Z</time>
      </trkpt>
      <trkpt lat="45.28013" lon="5.78581">
        <ele>1627</ele>
        <time>2000-01-01T14:38:06.000Z</time>
      </trkpt>
      <trkpt lat="45.2801" lon="5.78573">
        <ele>1625.9</ele>
        <time>2000-01-01T14:38:16.000Z</time>
      </trkpt>
      <trkpt lat="45.28009" lon="5.78566">
        <ele>1626.7</ele>
        <time>2000-01-01T14:38:26.000Z</time>
      </trkpt>
      <trkpt lat="45.28006" lon="5.78562">
        <ele>1625.5</ele>
        <time>2000-01-01T14:38:36.000Z</time>
      </trkpt>
      <trkpt lat="45.28001" lon="5.78544">
        <ele>1626</ele>
        <time>2000-01-01T14:38:46.000Z</time>
      </trkpt>
      <trkpt lat="45.27998" lon="5.78538">
        <ele>1625.5</ele>
        <time>2000-01-01T14:38:56.000Z</time>
      </trkpt>
      <trkpt lat="45.27993" lon="5.78524">
        <ele>1625.4</ele>
        <time>2000-01-01T14:39:06.000Z</time>
      </trkpt>
      <trkpt lat="45.27989" lon="5.78501">
        <ele>1628</ele>
        <time>2000-01-01T14:39:16.000Z</time>
      </trkpt>
      <trkpt lat="45.27985" lon="5.78487">
        <ele>1630.3</ele>
        <time>2000-01-01T14:39:26.000Z</time>
      </trkpt>
      <trkpt lat="45.27986" lon="5.78484">
        <ele>1631.8</ele>
        <time>2000-01-01T14:39:36.000Z</time>
      </trkpt>
      <trkpt lat="45.27986" lon="5.78475">
        <ele>1631</ele>
        <time>2000-01-01T14:39:46.000Z</time>
      </trkpt>
      <trkpt lat="45.27983" lon="5.78466">
        <ele>1635.5</ele>
        <time>2000-01-01T14:39:56.000Z</time>
      </trkpt>
      <trkpt lat="45.27978" lon="5.78461">
        <ele>1633.9</ele>
        <time>2000-01-01T14:40:06.000Z</time>
      </trkpt>
      <trkpt lat="45.27976" lon="5.78453">
        <ele>1632</ele>
        <time>2000-01-01T14:40:16.000Z</time>
      </trkpt>
      <trkpt lat="45.27971" lon="5.78446">
        <ele>1633.8</ele>
        <time>2000-01-01T14:40:26.000Z</time>
      </trkpt>
      <trkpt lat="45.27965" lon="5.78436">
        <ele>1632.7</ele>
        <time>2000-01-01T14:40:36.000Z</time>
      </trkpt>
      <trkpt lat="45.27964" lon="5.78436">
        <ele>1632</ele>
        <time>2000-01-01T14:40:46.000Z</time>
      </trkpt>
      <trkpt lat="45.27964" lon="5.78432">
        <ele>1632</ele>
        <time>2000-01-01T14:40:56.000Z</time>
      </trkpt>
      <trkpt lat="45.27956" lon="5.78422">
        <ele>1630.5</ele>
        <time>2000-01-01T14:41:06.000Z</time>
      </trkpt>
      <trkpt lat="45.27948" lon="5.78402">
        <ele>1630</ele>
        <time>2000-01-01T14:41:16.000Z</time>
      </trkpt>
      <trkpt lat="45.27948" lon="5.78386">
        <ele>1632.8</ele>
        <time>2000-01-01T14:41:26.000Z</time>
      </trkpt>
      <trkpt lat="45.27945" lon="5.78371">
        <ele>1631</ele>
        <time>2000-01-01T14:41:36.000Z</time>
      </trkpt>
      <trkpt lat="45.27949" lon="5.78353">
        <ele>1636.9</ele>
        <time>2000-01-01T14:41:46.000Z</time>
      </trkpt>
      <trkpt lat="45.27947" lon="5.78313">
        <ele>1630</ele>
        <time>2000-01-01T14:41:56.000Z</time>
      </trkpt>
      <trkpt lat="45.27941" lon="5.78301">
        <ele>1634.9</ele>
        <time>2000-01-01T14:42:06.000Z</time>
      </trkpt>
      <trkpt lat="45.27941" lon="5.7829">
        <ele>1636</ele>
        <time>2000-01-01T14:42:16.000Z</time>
      </trkpt>
      <trkpt lat="45.27937" lon="5.78278">
        <ele>1630</ele>
        <time>2000-01-01T14:42:26.000Z</time>
      </trkpt>
      <trkpt lat="45.27938" lon="5.78276">
        <ele>1635.1</ele>
        <time>2000-01-01T14:42:36.000Z</time>
      </trkpt>
      <trkpt lat="45.27938" lon="5.78272">
        <ele>1635.6</ele>
        <time>2000-01-01T14:42:46.000Z</time>
      </trkpt>
      <trkpt lat="45.27935" lon="5.78256">
        <ele>1635.1</ele>
        <time>2000-01-01T14:42:56.000Z</time>
      </trkpt>
      <trkpt lat="45.2793" lon="5.78244">
        <ele>1630</ele>
        <time>2000-01-01T14:43:06.000Z</time>
      </trkpt>
      <trkpt lat="45.27929" lon="5.78236">
        <ele>1633.3</ele>
        <time>2000-01-01T14:43:16.000Z</time>
      </trkpt>
      <trkpt lat="45.27922" lon="5.78211">
        <ele>1630</ele>
        <time>2000-01-01T14:43:26.000Z</time>
      </trkpt>
      <trkpt lat="45.27918" lon="5.78201">
        <ele>1631.5</ele>
        <time>2000-01-01T14:43:36.000Z</time>
      </trkpt>
      <trkpt lat="45.27915" lon="5.78185">
        <ele>1627</ele>
        <time>2000-01-01T14:43:46.000Z</time>
      </trkpt>
      <trkpt lat="45.27912" lon="5.78175">
        <ele>1635</ele>
        <time>2000-01-01T14:43:56.000Z</time>
      </trkpt>
      <trkpt lat="45.27904" lon="5.78168">
        <ele>1632.7</ele>
        <time>2000-01-01T14:44:06.000Z</time>
      </trkpt>
      <trkpt lat="45.279" lon="5.78161">
        <ele>1627</ele>
        <time>2000-01-01T14:44:16.000Z</time>
      </trkpt>
      <trkpt lat="45.279" lon="5.78158">
        <ele>1633.2</ele>
        <time>2000-01-01T14:44:26.000Z</time>
      </trkpt>
      <trkpt lat="45.27884" lon="5.78142">
        <ele>1626</ele>
        <time>2000-01-01T14:44:36.000Z</time>
      </trkpt>
      <trkpt lat="45.27881" lon="5.7814">
        <ele>1629.5</ele>
        <time>2000-01-01T14:44:46.000Z</time>
      </trkpt>
      <trkpt lat="45.27879" lon="5.78136">
        <ele>1629.6</ele>
        <time>2000-01-01T14:44:56.000Z</time>
      </trkpt>
      <trkpt lat="45.27872" lon="5.78127">
        <ele>1628.5</ele>
        <time>2000-01-01T14:45:06.000Z</time>
      </trkpt>
      <trkpt lat="45.27872" lon="5.78124">
        <ele>1629.1</ele>
        <time>2000-01-01T14:45:16.000Z</time>
      </trkpt>
      <trkpt lat="45.27868" lon="5.7812">
        <ele>1626</ele>
        <time>2000-01-01T14:45:26.000Z</time>
      </trkpt>
      <trkpt lat="45.27866" lon="5.78112">
        <ele>1629.4</ele>
        <time>2000-01-01T14:45:36.000Z</time>
      </trkpt>
      <trkpt lat="45.27865" lon="5.78111">
        <ele>1629.3</ele>
        <time>2000-01-01T14:45:46.000Z</time>
      </trkpt>
      <trkpt lat="45.27863" lon="5.78105">
        <ele>1628.8</ele>
        <time>2000-01-01T14:45:56.000Z</time>
      </trkpt>
      <trkpt lat="45.27873" lon="5.78065">
        <ele>1626</ele>
        <time>2000-01-01T14:46:06.000Z</time>
      </trkpt>
      <trkpt lat="45.27876" lon="5.78057">
        <ele>1629.1</ele>
        <time>2000-01-01T14:46:16.000Z</time>
      </trkpt>
      <trkpt lat="45.27878" lon="5.78057">
        <ele>1629.7</ele>
        <time>2000-01-01T14:46:26.000Z</time>
      </trkpt>
      <trkpt lat="45.27882" lon="5.78052">
        <ele>1629.7</ele>
        <time>2000-01-01T14:46:36.000Z</time>
      </trkpt>
      <trkpt lat="45.27886" lon="5.78044">
        <ele>1626</ele>
        <time>2000-01-01T14:46:46.000Z</time>
      </trkpt>
      <trkpt lat="45.27889" lon="5.78029">
        <ele>1625.4</ele>
        <time>2000-01-01T14:46:56.000Z</time>
      </trkpt>
      <trkpt lat="45.27893" lon="5.78028">
        <ele>1627</ele>
        <time>2000-01-01T14:47:06.000Z</time>
      </trkpt>
      <trkpt lat="45.27894" lon="5.78029">
        <ele>1627.7</ele>
        <time>2000-01-01T14:47:16.000Z</time>
      </trkpt>
      <trkpt lat="45.279" lon="5.78029">
        <ele>1626</ele>
        <time>2000-01-01T14:47:26.000Z</time>
      </trkpt>
      <trkpt lat="45.27905" lon="5.78031">
        <ele>1633.4</ele>
        <time>2000-01-01T14:47:36.000Z</time>
      </trkpt>
      <trkpt lat="45.27906" lon="5.78029">
        <ele>1633.3</ele>
        <time>2000-01-01T14:47:46.000Z</time>
      </trkpt>
      <trkpt lat="45.27915" lon="5.78018">
        <ele>1634.7</ele>
        <time>2000-01-01T14:47:56.000Z</time>
      </trkpt>
      <trkpt lat="45.27918" lon="5.78006">
        <ele>1626</ele>
        <time>2000-01-01T14:48:06.000Z</time>
      </trkpt>
      <trkpt lat="45.27921" lon="5.77999">
        <ele>1633.6</ele>
        <time>2000-01-01T14:48:16.000Z</time>
      </trkpt>
      <trkpt lat="45.27924" lon="5.77986">
        <ele>1632.5</ele>
        <time>2000-01-01T14:48:26.000Z</time>
      </trkpt>
      <trkpt lat="45.27925" lon="5.77978">
        <ele>1624</ele>
        <time>2000-01-01T14:48:36.000Z</time>
      </trkpt>
      <trkpt lat="45.27927" lon="5.77976">
        <ele>1632.3</ele>
        <time>2000-01-01T14:48:46.000Z</time>
      </trkpt>
      <trkpt lat="45.2793" lon="5.77967">
        <ele>1632.6</ele>
        <time>2000-01-01T14:48:56.000Z</time>
      </trkpt>
      <trkpt lat="45.27929" lon="5.77958">
        <ele>1630.1</ele>
        <time>2000-01-01T14:49:06.000Z</time>
      </trkpt>
      <trkpt lat="45.27927" lon="5.77953">
        <ele>1624</ele>
        <time>2000-01-01T14:49:16.000Z</time>
      </trkpt>
      <trkpt lat="45.27928" lon="5.77941">
        <ele>1626</ele>
        <time>2000-01-01T14:49:26.000Z</time>
      </trkpt>
      <trkpt lat="45.2793" lon="5.77933">
        <ele>1625.7</ele>
        <time>2000-01-01T14:49:36.000Z</time>
      </trkpt>
      <trkpt lat="45.27931" lon="5.7792">
        <ele>1624</ele>
        <time>2000-01-01T14:49:46.000Z</time>
      </trkpt>
      <trkpt lat="45.27936" lon="5.77912">
        <ele>1624.5</ele>
        <time>2000-01-01T14:49:56.000Z</time>
      </trkpt>
      <trkpt lat="45.27939" lon="5.77904">
        <ele>1624.1</ele>
        <time>2000-01-01T14:50:06.000Z</time>
      </trkpt>
      <trkpt lat="45.27943" lon="5.77897">
        <ele>1623</ele>
        <time>2000-01-01T14:50:16.000Z</time>
      </trkpt>
      <trkpt lat="45.27956" lon="5.77883">
        <ele>1628.1</ele>
        <time>2000-01-01T14:50:26.000Z</time>
      </trkpt>
      <trkpt lat="45.27965" lon="5.77865">
        <ele>1623</ele>
        <time>2000-01-01T14:50:36.000Z</time>
      </trkpt>
      <trkpt lat="45.27967" lon="5.77864">
        <ele>1628</ele>
        <time>2000-01-01T14:50:46.000Z</time>
      </trkpt>
      <trkpt lat="45.27969" lon="5.77858">
        <ele>1627</ele>
        <time>2000-01-01T14:50:56.000Z</time>
      </trkpt>
      <trkpt lat="45.27972" lon="5.77854">
        <ele>1627.3</ele>
        <time>2000-01-01T14:51:06.000Z</time>
      </trkpt>
      <trkpt lat="45.27975" lon="5.77851">
        <ele>1627.9</ele>
        <time>2000-01-01T14:51:16.000Z</time>
      </trkpt>
      <trkpt lat="45.27985" lon="5.77844">
        <ele>1622</ele>
        <time>2000-01-01T14:51:26.000Z</time>
      </trkpt>
      <trkpt lat="45.27988" lon="5.77839">
        <ele>1630.7</ele>
        <time>2000-01-01T14:51:36.000Z</time>
      </trkpt>
      <trkpt lat="45.27994" lon="5.77833">
        <ele>1631.6</ele>
        <time>2000-01-01T14:51:46.000Z</time>
      </trkpt>
      <trkpt lat="45.27997" lon="5.77829">
        <ele>1631.7</ele>
        <time>2000-01-01T14:51:56.000Z</time>
      </trkpt>
      <trkpt lat="45.27997" lon="5.77826">
        <ele>1630.5</ele>
        <time>2000-01-01T14:52:06.000Z</time>
      </trkpt>
      <trkpt lat="45.28009" lon="5.77807">
        <ele>1622</ele>
        <time>2000-01-01T14:52:16.000Z</time>
      </trkpt>
      <trkpt lat="45.2801" lon="5.77807">
        <ele>1630.3</ele>
        <time>2000-01-01T14:52:26.000Z</time>
      </trkpt>
      <trkpt lat="45.28011" lon="5.77806">
        <ele>1630.5</ele>
        <time>2000-01-01T14:52:36.000Z</time>
      </trkpt>
      <trkpt lat="45.28013" lon="5.77797">
        <ele>1628.3</ele>
        <time>2000-01-01T14:52:46.000Z</time>
      </trkpt>
      <trkpt lat="45.28018" lon="5.77782">
        <ele>1622</ele>
        <time>2000-01-01T14:52:56.000Z</time>
      </trkpt>
      <trkpt lat="45.2802" lon="5.77781">
        <ele>1626</ele>
        <time>2000-01-01T14:53:06.000Z</time>
      </trkpt>
      <trkpt lat="45.28024" lon="5.77773">
        <ele>1625.1</ele>
        <time>2000-01-01T14:53:16.000Z</time>
      </trkpt>
      <trkpt lat="45.28027" lon="5.77773">
        <ele>1626.7</ele>
        <time>2000-01-01T14:53:26.000Z</time>
      </trkpt>
      <trkpt lat="45.2803" lon="5.77771">
        <ele>1627.5</ele>
        <time>2000-01-01T14:53:36.000Z</time>
      </trkpt>
      <trkpt lat="45.28042" lon="5.77757">
        <ele>1623</ele>
        <time>2000-01-01T14:53:46.000Z</time>
      </trkpt>
      <trkpt lat="45.28053" lon="5.77741">
        <ele>1627.8</ele>
        <time>2000-01-01T14:53:56.000Z</time>
      </trkpt>
      <trkpt lat="45.28064" lon="5.77733">
        <ele>1622</ele>
        <time>2000-01-01T14:54:06.000Z</time>
      </trkpt>
      <trkpt lat="45.2807" lon="5.77718">
        <ele>1625.9</ele>
        <time>2000-01-01T14:54:16.000Z</time>
      </trkpt>
      <trkpt lat="45.28074" lon="5.7771">
        <ele>1622</ele>
        <time>2000-01-01T14:54:26.000Z</time>
      </trkpt>
      <trkpt lat="45.28076" lon="5.77709">
        <ele>1624.5</ele>
        <time>2000-01-01T14:54:36.000Z</time>
      </trkpt>
      <trkpt lat="45.28084" lon="5.77712">
        <ele>1629.5</ele>
        <time>2000-01-01T14:54:46.000Z</time>
      </trkpt>
      <trkpt lat="45.28092" lon="5.77703">
        <ele>1621</ele>
        <time>2000-01-01T14:54:56.000Z</time>
      </trkpt>
      <trkpt lat="45.28101" lon="5.77691">
        <ele>1625.7</ele>
        <time>2000-01-01T14:55:06.000Z</time>
      </trkpt>
      <trkpt lat="45.28106" lon="5.77681">
        <ele>1621</ele>
        <time>2000-01-01T14:55:16.000Z</time>
      </trkpt>
      <trkpt lat="45.28106" lon="5.77675">
        <ele>1620.1</ele>
        <time>2000-01-01T14:55:26.000Z</time>
      </trkpt>
      <trkpt lat="45.28112" lon="5.77673">
        <ele>1621.2</ele>
        <time>2000-01-01T14:55:36.000Z</time>
      </trkpt>
      <trkpt lat="45.28113" lon="5.77674">
        <ele>1621.9</ele>
        <time>2000-01-01T14:55:46.000Z</time>
      </trkpt>
      <trkpt lat="45.2812" lon="5.77673">
        <ele>1623</ele>
        <time>2000-01-01T14:55:56.000Z</time>
      </trkpt>
      <trkpt lat="45.28123" lon="5.77671">
        <ele>1621</ele>
        <time>2000-01-01T14:56:06.000Z</time>
      </trkpt>
      <trkpt lat="45.28126" lon="5.77672">
        <ele>1623.8</ele>
        <time>2000-01-01T14:56:16.000Z</time>
      </trkpt>
      <trkpt lat="45.2813" lon="5.77671">
        <ele>1624.2</ele>
        <time>2000-01-01T14:56:26.000Z</time>
      </trkpt>
      <trkpt lat="45.28133" lon="5.77672">
        <ele>1625.4</ele>
        <time>2000-01-01T14:56:36.000Z</time>
      </trkpt>
      <trkpt lat="45.28137" lon="5.77675">
        <ele>1627.8</ele>
        <time>2000-01-01T14:56:46.000Z</time>
      </trkpt>
      <trkpt lat="45.28163" lon="5.77678">
        <ele>1628</ele>
        <time>2000-01-01T14:56:56.000Z</time>
      </trkpt>
      <trkpt lat="45.28177" lon="5.77685">
        <ele>1636.9</ele>
        <time>2000-01-01T14:57:06.000Z</time>
      </trkpt>
      <trkpt lat="45.28191" lon="5.77695">
        <ele>1639</ele>
        <time>2000-01-01T14:57:16.000Z</time>
      </trkpt>
      <trkpt lat="45.28196" lon="5.77697">
        <ele>1642.1</ele>
        <time>2000-01-01T14:57:26.000Z</time>
      </trkpt>
      <trkpt lat="45.28206" lon="5.77699">
        <ele>1641.7</ele>
        <time>2000-01-01T14:57:36.000Z</time>
      </trkpt>
      <trkpt lat="45.28213" lon="5.77705">
        <ele>1641</ele>
        <time>2000-01-01T14:57:46.000Z</time>
      </trkpt>
      <trkpt lat="45.28223" lon="5.77708">
        <ele>1644.1</ele>
        <time>2000-01-01T14:57:56.000Z</time>
      </trkpt>
      <trkpt lat="45.28226" lon="5.77711">
        <ele>1644.9</ele>
        <time>2000-01-01T14:58:06.000Z</time>
      </trkpt>
      <trkpt lat="45.28227" lon="5.77713">
        <ele>1645.6</ele>
        <time>2000-01-01T14:58:16.000Z</time>
      </trkpt>
      <trkpt lat="45.28231" lon="5.77713">
        <ele>1637</ele>
        <time>2000-01-01T14:58:26.000Z</time>
      </trkpt>
      <trkpt lat="45.28235" lon="5.77717">
        <ele>1645.5</ele>
        <time>2000-01-01T14:58:36.000Z</time>
      </trkpt>
      <trkpt lat="45.28235" lon="5.77713">
        <ele>1643.3</ele>
        <time>2000-01-01T14:58:46.000Z</time>
      </trkpt>
      <trkpt lat="45.28243" lon="5.77715">
        <ele>1642.1</ele>
        <time>2000-01-01T14:58:56.000Z</time>
      </trkpt>
      <trkpt lat="45.28245" lon="5.77707">
        <ele>1634</ele>
        <time>2000-01-01T14:59:06.000Z</time>
      </trkpt>
      <trkpt lat="45.28252" lon="5.77706">
        <ele>1634.6</ele>
        <time>2000-01-01T14:59:16.000Z</time>
      </trkpt>
      <trkpt lat="45.28261" lon="5.77714">
        <ele>1636</ele>
        <time>2000-01-01T14:59:26.000Z</time>
      </trkpt>
      <trkpt lat="45.28268" lon="5.77714">
        <ele>1634</ele>
        <time>2000-01-01T14:59:36.000Z</time>
      </trkpt>
      <trkpt lat="45.2827" lon="5.77716">
        <ele>1634.2</ele>
        <time>2000-01-01T14:59:46.000Z</time>
      </trkpt>
      <trkpt lat="45.2828" lon="5.77718">
        <ele>1631.9</ele>
        <time>2000-01-01T14:59:56.000Z</time>
      </trkpt>
      <trkpt lat="45.28289" lon="5.77726">
        <ele>1636</ele>
        <time>2000-01-01T15:00:06.000Z</time>
      </trkpt>
      <trkpt lat="45.283" lon="5.77739">
        <ele>1636.7</ele>
        <time>2000-01-01T15:00:16.000Z</time>
      </trkpt>
      <trkpt lat="45.28322" lon="5.77761">
        <ele>1639</ele>
        <time>2000-01-01T15:00:26.000Z</time>
      </trkpt>
      <trkpt lat="45.28327" lon="5.77767">
        <ele>1642.1</ele>
        <time>2000-01-01T15:00:36.000Z</time>
      </trkpt>
      <trkpt lat="45.28332" lon="5.77771">
        <ele>1642.1</ele>
        <time>2000-01-01T15:00:46.000Z</time>
      </trkpt>
      <trkpt lat="45.28334" lon="5.7777">
        <ele>1640.8</ele>
        <time>2000-01-01T15:00:56.000Z</time>
      </trkpt>
      <trkpt lat="45.28343" lon="5.77773">
        <ele>1639</ele>
        <time>2000-01-01T15:01:06.000Z</time>
      </trkpt>
      <trkpt lat="45.28346" lon="5.77777">
        <ele>1639.1</ele>
        <time>2000-01-01T15:01:16.000Z</time>
      </trkpt>
      <trkpt lat="45.28349" lon="5.77777">
        <ele>1637.9</ele>
        <time>2000-01-01T15:01:26.000Z</time>
      </trkpt>
      <trkpt lat="45.28353" lon="5.77781">
        <ele>1638</ele>
        <time>2000-01-01T15:01:36.000Z</time>
      </trkpt>
      <trkpt lat="45.28355" lon="5.77781">
        <ele>1637.2</ele>
        <time>2000-01-01T15:01:46.000Z</time>
      </trkpt>
      <trkpt lat="45.28362" lon="5.77788">
        <ele>1639</ele>
        <time>2000-01-01T15:01:56.000Z</time>
      </trkpt>
      <trkpt lat="45.28363" lon="5.77791">
        <ele>1638.3</ele>
        <time>2000-01-01T15:02:06.000Z</time>
      </trkpt>
      <trkpt lat="45.28367" lon="5.77789">
        <ele>1635.5</ele>
        <time>2000-01-01T15:02:16.000Z</time>
      </trkpt>
      <trkpt lat="45.28372" lon="5.77795">
        <ele>1636</ele>
        <time>2000-01-01T15:02:26.000Z</time>
      </trkpt>
      <trkpt lat="45.28373" lon="5.77798">
        <ele>1636.9</ele>
        <time>2000-01-01T15:02:36.000Z</time>
      </trkpt>
      <trkpt lat="45.28379" lon="5.77801">
        <ele>1636</ele>
        <time>2000-01-01T15:02:46.000Z</time>
      </trkpt>
      <trkpt lat="45.28381" lon="5.77804">
        <ele>1636</ele>
        <time>2000-01-01T15:02:56.000Z</time>
      </trkpt>
      <trkpt lat="45.28381" lon="5.77805">
        <ele>1636.4</ele>
        <time>2000-01-01T15:03:06.000Z</time>
      </trkpt>
      <trkpt lat="45.28385" lon="5.7781">
        <ele>1636.9</ele>
        <time>2000-01-01T15:03:16.000Z</time>
      </trkpt>
      <trkpt lat="45.28387" lon="5.77809">
        <ele>1635.5</ele>
        <time>2000-01-01T15:03:26.000Z</time>
      </trkpt>
      <trkpt lat="45.28393" lon="5.77812">
        <ele>1634.1</ele>
        <time>2000-01-01T15:03:36.000Z</time>
      </trkpt>
      <trkpt lat="45.28399" lon="5.77814">
        <ele>1634</ele>
        <time>2000-01-01T15:03:46.000Z</time>
      </trkpt>
      <trkpt lat="45.28405" lon="5.77815">
        <ele>1629.9</ele>
        <time>2000-01-01T15:03:56.000Z</time>
      </trkpt>
      <trkpt lat="45.28409" lon="5.77817">
        <ele>1628.9</ele>
        <time>2000-01-01T15:04:06.000Z</time>
      </trkpt>
      <trkpt lat="45.28413" lon="5.77825">
        <ele>1630.8</ele>
        <time>2000-01-01T15:04:16.000Z</time>
      </trkpt>
      <trkpt lat="45.28417" lon="5.77826">
        <ele>1632</ele>
        <time>2000-01-01T15:04:26.000Z</time>
      </trkpt>
      <trkpt lat="45.28432" lon="5.77845">
        <ele>1632</ele>
        <time>2000-01-01T15:04:36.000Z</time>
      </trkpt>
      <trkpt lat="45.28438" lon="5.77849">
        <ele>1631.7</ele>
        <time>2000-01-01T15:04:46.000Z</time>
      </trkpt>
      <trkpt lat="45.28439" lon="5.77848">
        <ele>1630.7</ele>
        <time>2000-01-01T15:04:56.000Z</time>
      </trkpt>
      <trkpt lat="45.28443" lon="5.77848">
        <ele>1629</ele>
        <time>2000-01-01T15:05:06.000Z</time>
      </trkpt>
      <trkpt lat="45.28456" lon="5.77863">
        <ele>1632</ele>
        <time>2000-01-01T15:05:16.000Z</time>
      </trkpt>
      <trkpt lat="45.28458" lon="5.77863">
        <ele>1630.1</ele>
        <time>2000-01-01T15:05:26.000Z</time>
      </trkpt>
      <trkpt lat="45.28464" lon="5.77867">
        <ele>1629.5</ele>
        <time>2000-01-01T15:05:36.000Z</time>
      </trkpt>
      <trkpt lat="45.28473" lon="5.77871">
        <ele>1627.7</ele>
        <time>2000-01-01T15:05:46.000Z</time>
      </trkpt>
      <trkpt lat="45.2848" lon="5.77877">
        <ele>1629</ele>
        <time>2000-01-01T15:05:56.000Z</time>
      </trkpt>
      <trkpt lat="45.28498" lon="5.77882">
        <ele>1623.8</ele>
        <time>2000-01-01T15:06:06.000Z</time>
      </trkpt>
      <trkpt lat="45.28502" lon="5.77885">
        <ele>1622</ele>
        <time>2000-01-01T15:06:16.000Z</time>
      </trkpt>
      <trkpt lat="45.28511" lon="5.7789">
        <ele>1622.9</ele>
        <time>2000-01-01T15:06:26.000Z</time>
      </trkpt>
      <trkpt lat="45.28519" lon="5.77892">
        <ele>1621.2</ele>
        <time>2000-01-01T15:06:36.000Z</time>
      </trkpt>
      <trkpt lat="45.28527" lon="5.77897">
        <ele>1621</ele>
        <time>2000-01-01T15:06:46.000Z</time>
      </trkpt>
      <trkpt lat="45.2853" lon="5.779">
        <ele>1621.1</ele>
        <time>2000-01-01T15:06:56.000Z</time>
      </trkpt>
      <trkpt lat="45.28544" lon="5.77904">
        <ele>1618.5</ele>
        <time>2000-01-01T15:07:06.000Z</time>
      </trkpt>
      <trkpt lat="45.28552" lon="5.77913">
        <ele>1622</ele>
        <time>2000-01-01T15:07:16.000Z</time>
      </trkpt>
      <trkpt lat="45.28557" lon="5.77915">
        <ele>1619</ele>
        <time>2000-01-01T15:07:26.000Z</time>
      </trkpt>
      <trkpt lat="45.28567" lon="5.77931">
        <ele>1624</ele>
        <time>2000-01-01T15:07:36.000Z</time>
      </trkpt>
      <trkpt lat="45.28575" lon="5.77947">
        <ele>1627.1</ele>
        <time>2000-01-01T15:07:46.000Z</time>
      </trkpt>
      <trkpt lat="45.28576" lon="5.77952">
        <ele>1628.8</ele>
        <time>2000-01-01T15:07:56.000Z</time>
      </trkpt>
      <trkpt lat="45.2858" lon="5.77964">
        <ele>1633</ele>
        <time>2000-01-01T15:08:06.000Z</time>
      </trkpt>
      <trkpt lat="45.2858" lon="5.77969">
        <ele>1634.6</ele>
        <time>2000-01-01T15:08:16.000Z</time>
      </trkpt>
      <trkpt lat="45.28573" lon="5.77962">
        <ele>1633.6</ele>
        <time>2000-01-01T15:08:26.000Z</time>
      </trkpt>
      <trkpt lat="45.28589" lon="5.78013">
        <ele>1651</ele>
        <time>2000-01-01T15:08:36.000Z</time>
      </trkpt>
      <trkpt lat="45.28614" lon="5.78028">
        <ele>1651</ele>
        <time>2000-01-01T15:08:46.000Z</time>
      </trkpt>
      <trkpt lat="45.2865" lon="5.78049">
        <ele>1659</ele>
        <time>2000-01-01T15:08:56.000Z</time>
      </trkpt>
      <trkpt lat="45.28693" lon="5.78025">
        <ele>1663</ele>
        <time>2000-01-01T15:09:06.000Z</time>
      </trkpt>
      <trkpt lat="45.28667" lon="5.78058">
        <ele>1666</ele>
        <time>2000-01-01T15:09:16.000Z</time>
      </trkpt>
      <trkpt lat="45.28634" lon="5.78084">
        <ele>1677</ele>
        <time>2000-01-01T15:09:26.000Z</time>
      </trkpt>
      <trkpt lat="45.28593" lon="5.78109">
        <ele>1689</ele>
        <time>2000-01-01T15:09:36.000Z</time>
      </trkpt>
      <trkpt lat="45.28618" lon="5.78123">
        <ele>1694</ele>
        <time>2000-01-01T15:09:46.000Z</time>
      </trkpt>
      <trkpt lat="45.28649" lon="5.78142">
        <ele>1703</ele>
        <time>2000-01-01T15:09:56.000Z</time>
      </trkpt>
      <trkpt lat="45.28674" lon="5.78141">
        <ele>1708</ele>
        <time>2000-01-01T15:10:06.000Z</time>
      </trkpt>
      <trkpt lat="45.28703" lon="5.78139">
        <ele>1710</ele>
        <time>2000-01-01T15:10:16.000Z</time>
      </trkpt>
      <trkpt lat="45.28677" lon="5.78168">
        <ele>1717</ele>
        <time>2000-01-01T15:10:26.000Z</time>
      </trkpt>
      <trkpt lat="45.28666" lon="5.78184">
        <ele>1726.5</ele>
        <time>2000-01-01T15:10:36.000Z</time>
      </trkpt>
      <trkpt lat="45.28627" lon="5.78188">
        <ele>1729</ele>
        <time>2000-01-01T15:10:46.000Z</time>
      </trkpt>
      <trkpt lat="45.2861" lon="5.78193">
        <ele>1740.6</ele>
        <time>2000-01-01T15:10:56.000Z</time>
      </trkpt>
      <trkpt lat="45.28586" lon="5.78207">
        <ele>1757</ele>
        <time>2000-01-01T15:11:06.000Z</time>
      </trkpt>
      <trkpt lat="45.28558" lon="5.78214">
        <ele>1774</ele>
        <time>2000-01-01T15:11:16.000Z</time>
      </trkpt>
      <trkpt lat="45.28519" lon="5.78223">
        <ele>1793</ele>
        <time>2000-01-01T15:11:26.000Z</time>
      </trkpt>
      <trkpt lat="45.28488" lon="5.7822">
        <ele>1795</ele>
        <time>2000-01-01T15:11:36.000Z</time>
      </trkpt>
      <trkpt lat="45.28456" lon="5.78233">
        <ele>1810</ele>
        <time>2000-01-01T15:11:46.000Z</time>
      </trkpt>
      <trkpt lat="45.28426" lon="5.78241">
        <ele>1819</ele>
        <time>2000-01-01T15:11:56.000Z</time>
      </trkpt>
      <trkpt lat="45.28425" lon="5.78282">
        <ele>1832</ele>
        <time>2000-01-01T15:12:06.000Z</time>
      </trkpt>
      <trkpt lat="45.28394" lon="5.78323">
        <ele>1845</ele>
        <time>2000-01-01T15:12:16.000Z</time>
      </trkpt>
      <trkpt lat="45.28353" lon="5.78339">
        <ele>1858</ele>
        <time>2000-01-01T15:12:26.000Z</time>
      </trkpt>
      <trkpt lat="45.28331" lon="5.7836">
        <ele>1872</ele>
        <time>2000-01-01T15:12:36.000Z</time>
      </trkpt>
      <trkpt lat="45.28303" lon="5.78387">
        <ele>1887</ele>
        <time>2000-01-01T15:12:46.000Z</time>
      </trkpt>
      <trkpt lat="45.28303" lon="5.78396">
        <ele>1891.3</ele>
        <time>2000-01-01T15:12:56.000Z</time>
      </trkpt>
      <trkpt lat="45.28298" lon="5.78397">
        <ele>1891.7</ele>
        <time>2000-01-01T15:13:06.000Z</time>
      </trkpt>
      <trkpt lat="45.28298" lon="5.78408">
        <ele>1893</ele>
        <time>2000-01-01T15:13:16.000Z</time>
      </trkpt>
      <trkpt lat="45.283" lon="5.7841">
        <ele>1895.3</ele>
        <time>2000-01-01T15:13:26.000Z</time>
      </trkpt>
      <trkpt lat="45.28301" lon="5.78426">
        <ele>1900.2</ele>
        <time>2000-01-01T15:13:36.000Z</time>
      </trkpt>
      <trkpt lat="45.28309" lon="5.78439">
        <ele>1903</ele>
        <time>2000-01-01T15:13:46.000Z</time>
      </trkpt>
      <trkpt lat="45.28317" lon="5.78469">
        <ele>1904</ele>
        <time>2000-01-01T15:13:56.000Z</time>
      </trkpt>
      <trkpt lat="45.28337" lon="5.78504">
        <ele>1905</ele>
        <time>2000-01-01T15:14:06.000Z</time>
      </trkpt>
      <trkpt lat="45.28356" lon="5.78532">
        <ele>1917</ele>
        <time>2000-01-01T15:14:16.000Z</time>
      </trkpt>
      <trkpt lat="45.28381" lon="5.78571">
        <ele>1932</ele>
        <time>2000-01-01T15:14:26.000Z</time>
      </trkpt>
      <trkpt lat="45.28384" lon="5.78586">
        <ele>1932.8</ele>
        <time>2000-01-01T15:14:36.000Z</time>
      </trkpt>
      <trkpt lat="45.28423" lon="5.78618">
        <ele>1944</ele>
        <time>2000-01-01T15:14:46.000Z</time>
      </trkpt>
      <trkpt lat="45.28418" lon="5.7862">
        <ele>1944.9</ele>
        <time>2000-01-01T15:14:56.000Z</time>
      </trkpt>
      <trkpt lat="45.28419" lon="5.78623">
        <ele>1945.4</ele>
        <time>2000-01-01T15:15:06.000Z</time>
      </trkpt>
      <trkpt lat="45.28428" lon="5.78623">
        <ele>1947.7</ele>
        <time>2000-01-01T15:15:16.000Z</time>
      </trkpt>
      <trkpt lat="45.28435" lon="5.78634">
        <ele>1951</ele>
        <time>2000-01-01T15:15:26.000Z</time>
      </trkpt>
      <trkpt lat="45.28448" lon="5.78642">
        <ele>1959.4</ele>
        <time>2000-01-01T15:15:36.000Z</time>
      </trkpt>
      <trkpt lat="45.28454" lon="5.78642">
        <ele>1959</ele>
        <time>2000-01-01T15:15:46.000Z</time>
      </trkpt>
      <trkpt lat="45.2848" lon="5.78652">
        <ele>1966</ele>
        <time>2000-01-01T15:15:56.000Z</time>
      </trkpt>
      <trkpt lat="45.28515" lon="5.78665">
        <ele>1975</ele>
        <time>2000-01-01T15:16:06.000Z</time>
      </trkpt>
      <trkpt lat="45.28541" lon="5.7867">
        <ele>1983</ele>
        <time>2000-01-01T15:16:16.000Z</time>
      </trkpt>
      <trkpt lat="45.28572" lon="5.78677">
        <ele>1988</ele>
        <time>2000-01-01T15:16:26.000Z</time>
      </trkpt>
      <trkpt lat="45.28595" lon="5.78685">
        <ele>1997</ele>
        <time>2000-01-01T15:16:36.000Z</time>
      </trkpt>
      <trkpt lat="45.28623" lon="5.78699">
        <ele>1999</ele>
        <time>2000-01-01T15:16:46.000Z</time>
      </trkpt>
      <trkpt lat="45.28632" lon="5.78694">
        <ele>2009.3</ele>
        <time>2000-01-01T15:16:56.000Z</time>
      </trkpt>
      <trkpt lat="45.28634" lon="5.78686">
        <ele>2004.8</ele>
        <time>2000-01-01T15:17:06.000Z</time>
      </trkpt>
      <trkpt lat="45.28647" lon="5.78681">
        <ele>1994</ele>
        <time>2000-01-01T15:17:16.000Z</time>
      </trkpt>
      <trkpt lat="45.28655" lon="5.78674">
        <ele>1998.4</ele>
        <time>2000-01-01T15:17:26.000Z</time>
      </trkpt>
      <trkpt lat="45.28658" lon="5.7867">
        <ele>1996</ele>
        <time>2000-01-01T15:17:36.000Z</time>
      </trkpt>
      <trkpt lat="45.28653" lon="5.78664">
        <ele>1990</ele>
        <time>2000-01-01T15:17:46.000Z</time>
      </trkpt>
      <trkpt lat="45.28649" lon="5.78663">
        <ele>1991.9</ele>
        <time>2000-01-01T15:17:56.000Z</time>
      </trkpt>
      <trkpt lat="45.28652" lon="5.78659">
        <ele>1989.6</ele>
        <time>2000-01-01T15:18:06.000Z</time>
      </trkpt>
      <trkpt lat="45.28657" lon="5.78659">
        <ele>1989.6</ele>
        <time>2000-01-01T15:18:16.000Z</time>
      </trkpt>
      <trkpt lat="45.28657" lon="5.78657">
        <ele>1988.4</ele>
        <time>2000-01-01T15:18:26.000Z</time>
      </trkpt>
      <trkpt lat="45.2865" lon="5.78648">
        <ele>1978</ele>
        <time>2000-01-01T15:18:36.000Z</time>
      </trkpt>
      <trkpt lat="45.28638" lon="5.78646">
        <ele>1982.1</ele>
        <time>2000-01-01T15:18:46.000Z</time>
      </trkpt>
      <trkpt lat="45.28635" lon="5.78638">
        <ele>1977.4</ele>
        <time>2000-01-01T15:18:56.000Z</time>
      </trkpt>
      <trkpt lat="45.28646" lon="5.78632">
        <ele>1973</ele>
        <time>2000-01-01T15:19:06.000Z</time>
      </trkpt>
      <trkpt lat="45.28652" lon="5.78623">
        <ele>1968.8</ele>
        <time>2000-01-01T15:19:16.000Z</time>
      </trkpt>
      <trkpt lat="45.28659" lon="5.78621">
        <ele>1967.7</ele>
        <time>2000-01-01T15:19:26.000Z</time>
      </trkpt>
      <trkpt lat="45.28648" lon="5.78615">
        <ele>1960</ele>
        <time>2000-01-01T15:19:36.000Z</time>
      </trkpt>
      <trkpt lat="45.28643" lon="5.78615">
        <ele>1964.2</ele>
        <time>2000-01-01T15:19:46.000Z</time>
      </trkpt>
      <trkpt lat="45.28628" lon="5.78606">
        <ele>1955</ele>
        <time>2000-01-01T15:19:56.000Z</time>
      </trkpt>
      <trkpt lat="45.28608" lon="5.78602">
        <ele>1955</ele>
        <time>2000-01-01T15:20:06.000Z</time>
      </trkpt>
      <trkpt lat="45.28603" lon="5.78596">
        <ele>1953.7</ele>
        <time>2000-01-01T15:20:16.000Z</time>
      </trkpt>
      <trkpt lat="45.28609" lon="5.78591">
        <ele>1951.1</ele>
        <time>2000-01-01T15:20:26.000Z</time>
      </trkpt>
      <trkpt lat="45.28636" lon="5.78583">
        <ele>1943</ele>
        <time>2000-01-01T15:20:36.000Z</time>
      </trkpt>
      <trkpt lat="45.28609" lon="5.78557">
        <ele>1929</ele>
        <time>2000-01-01T15:20:46.000Z</time>
      </trkpt>
      <trkpt lat="45.2861" lon="5.78554">
        <ele>1932.3</ele>
        <time>2000-01-01T15:20:56.000Z</time>
      </trkpt>
      <trkpt lat="45.28635" lon="5.78546">
        <ele>1923</ele>
        <time>2000-01-01T15:21:06.000Z</time>
      </trkpt>
      <trkpt lat="45.28634" lon="5.78542">
        <ele>1924.5</ele>
        <time>2000-01-01T15:21:16.000Z</time>
      </trkpt>
      <trkpt lat="45.28611" lon="5.78528">
        <ele>1914</ele>
        <time>2000-01-01T15:21:26.000Z</time>
      </trkpt>
      <trkpt lat="45.28586" lon="5.78505">
        <ele>1907</ele>
        <time>2000-01-01T15:21:36.000Z</time>
      </trkpt>
      <trkpt lat="45.28577" lon="5.78504">
        <ele>1909.3</ele>
        <time>2000-01-01T15:21:46.000Z</time>
      </trkpt>
      <trkpt lat="45.28567" lon="5.78497">
        <ele>1903</ele>
        <time>2000-01-01T15:21:56.000Z</time>
      </trkpt>
      <trkpt lat="45.28528" lon="5.78485">
        <ele>1898</ele>
        <time>2000-01-01T15:22:06.000Z</time>
      </trkpt>
      <trkpt lat="45.28527" lon="5.78482">
        <ele>1899.8</ele>
        <time>2000-01-01T15:22:16.000Z</time>
      </trkpt>
      <trkpt lat="45.2854" lon="5.78475">
        <ele>1897.6</ele>
        <time>2000-01-01T15:22:26.000Z</time>
      </trkpt>
      <trkpt lat="45.28529" lon="5.78469">
        <ele>1890</ele>
        <time>2000-01-01T15:22:36.000Z</time>
      </trkpt>
      <trkpt lat="45.2851" lon="5.78466">
        <ele>1889</ele>
        <time>2000-01-01T15:22:46.000Z</time>
      </trkpt>
      <trkpt lat="45.28502" lon="5.7846">
        <ele>1888.8</ele>
        <time>2000-01-01T15:22:56.000Z</time>
      </trkpt>
      <trkpt lat="45.28497" lon="5.78461">
        <ele>1888.7</ele>
        <time>2000-01-01T15:23:06.000Z</time>
      </trkpt>
      <trkpt lat="45.28487" lon="5.78454">
        <ele>1883</ele>
        <time>2000-01-01T15:23:16.000Z</time>
      </trkpt>
      <trkpt lat="45.28479" lon="5.78453">
        <ele>1884</ele>
        <time>2000-01-01T15:23:26.000Z</time>
      </trkpt>
      <trkpt lat="45.28476" lon="5.78448">
        <ele>1881.8</ele>
        <time>2000-01-01T15:23:36.000Z</time>
      </trkpt>
      <trkpt lat="45.28458" lon="5.78438">
        <ele>1873</ele>
        <time>2000-01-01T15:23:46.000Z</time>
      </trkpt>
      <trkpt lat="45.28449" lon="5.78427">
        <ele>1873.5</ele>
        <time>2000-01-01T15:23:56.000Z</time>
      </trkpt>
      <trkpt lat="45.28446" lon="5.78419">
        <ele>1870.8</ele>
        <time>2000-01-01T15:24:06.000Z</time>
      </trkpt>
      <trkpt lat="45.28415" lon="5.78389">
        <ele>1860</ele>
        <time>2000-01-01T15:24:16.000Z</time>
      </trkpt>
      <trkpt lat="45.28414" lon="5.78385">
        <ele>1862.1</ele>
        <time>2000-01-01T15:24:26.000Z</time>
      </trkpt>
      <trkpt lat="45.28444" lon="5.78368">
        <ele>1852</ele>
        <time>2000-01-01T15:24:36.000Z</time>
      </trkpt>
      <trkpt lat="45.28426" lon="5.7834">
        <ele>1847</ele>
        <time>2000-01-01T15:24:46.000Z</time>
      </trkpt>
      <trkpt lat="45.28432" lon="5.78339">
        <ele>1846.6</ele>
        <time>2000-01-01T15:24:56.000Z</time>
      </trkpt>
      <trkpt lat="45.28439" lon="5.78333">
        <ele>1844.3</ele>
        <time>2000-01-01T15:25:06.000Z</time>
      </trkpt>
      <trkpt lat="45.28422" lon="5.78303">
        <ele>1836</ele>
        <time>2000-01-01T15:25:16.000Z</time>
      </trkpt>
      <trkpt lat="45.28434" lon="5.78298">
        <ele>1834.9</ele>
        <time>2000-01-01T15:25:26.000Z</time>
      </trkpt>
      <trkpt lat="45.28438" lon="5.7829">
        <ele>1831</ele>
        <time>2000-01-01T15:25:36.000Z</time>
      </trkpt>
      <trkpt lat="45.28435" lon="5.78276">
        <ele>1828.1</ele>
        <time>2000-01-01T15:25:46.000Z</time>
      </trkpt>
      <trkpt lat="45.28428" lon="5.78261">
        <ele>1826</ele>
        <time>2000-01-01T15:25:56.000Z</time>
      </trkpt>
      <trkpt lat="45.2844" lon="5.78257">
        <ele>1821.1</ele>
        <time>2000-01-01T15:26:06.000Z</time>
      </trkpt>
      <trkpt lat="45.28466" lon="5.78257">
        <ele>1816</ele>
        <time>2000-01-01T15:26:16.000Z</time>
      </trkpt>
      <trkpt lat="45.28478" lon="5.78262">
        <ele>1816.2</ele>
        <time>2000-01-01T15:26:26.000Z</time>
      </trkpt>
      <trkpt lat="45.2847" lon="5.78246">
        <ele>1811</ele>
        <time>2000-01-01T15:26:36.000Z</time>
      </trkpt>
      <trkpt lat="45.28471" lon="5.78244">
        <ele>1811.1</ele>
        <time>2000-01-01T15:26:46.000Z</time>
      </trkpt>
      <trkpt lat="45.28485" lon="5.78247">
        <ele>1809.1</ele>
        <time>2000-01-01T15:26:56.000Z</time>
      </trkpt>
      <trkpt lat="45.28508" lon="5.78246">
        <ele>1803</ele>
        <time>2000-01-01T15:27:06.000Z</time>
      </trkpt>
      <trkpt lat="45.2852" lon="5.7825">
        <ele>1802</ele>
        <time>2000-01-01T15:27:16.000Z</time>
      </trkpt>
      <trkpt lat="45.28526" lon="5.78248">
        <ele>1799.6</ele>
        <time>2000-01-01T15:27:26.000Z</time>
      </trkpt>
      <trkpt lat="45.28544" lon="5.78253">
        <ele>1797</ele>
        <time>2000-01-01T15:27:36.000Z</time>
      </trkpt>
      <trkpt lat="45.28551" lon="5.78251">
        <ele>1793.8</ele>
        <time>2000-01-01T15:27:46.000Z</time>
      </trkpt>
      <trkpt lat="45.28599" lon="5.78258">
        <ele>1782</ele>
        <time>2000-01-01T15:27:56.000Z</time>
      </trkpt>
      <trkpt lat="45.28602" lon="5.78257">
        <ele>1780</ele>
        <time>2000-01-01T15:28:06.000Z</time>
      </trkpt>
      <trkpt lat="45.286" lon="5.78247">
        <ele>1775.3</ele>
        <time>2000-01-01T15:28:16.000Z</time>
      </trkpt>
      <trkpt lat="45.28615" lon="5.7825">
        <ele>1774</ele>
        <time>2000-01-01T15:28:26.000Z</time>
      </trkpt>
      <trkpt lat="45.28619" lon="5.78253">
        <ele>1772.1</ele>
        <time>2000-01-01T15:28:36.000Z</time>
      </trkpt>
      <trkpt lat="45.2862" lon="5.7825">
        <ele>1770.1</ele>
        <time>2000-01-01T15:28:46.000Z</time>
      </trkpt>
      <trkpt lat="45.28615" lon="5.78239">
        <ele>1765.3</ele>
        <time>2000-01-01T15:28:56.000Z</time>
      </trkpt>
      <trkpt lat="45.28618" lon="5.78236">
        <ele>1762</ele>
        <time>2000-01-01T15:29:06.000Z</time>
      </trkpt>
      <trkpt lat="45.28643" lon="5.78238">
        <ele>1762</ele>
        <time>2000-01-01T15:29:16.000Z</time>
      </trkpt>
      <trkpt lat="45.28655" lon="5.7825">
        <ele>1762.3</ele>
        <time>2000-01-01T15:29:26.000Z</time>
      </trkpt>
      <trkpt lat="45.28674" lon="5.78254">
        <ele>1762</ele>
        <time>2000-01-01T15:29:36.000Z</time>
      </trkpt>
      <trkpt lat="45.28687" lon="5.78245">
        <ele>1761.9</ele>
        <time>2000-01-01T15:29:46.000Z</time>
      </trkpt>
      <trkpt lat="45.28672" lon="5.78237">
        <ele>1749</ele>
        <time>2000-01-01T15:29:56.000Z</time>
      </trkpt>
      <trkpt lat="45.28645" lon="5.78203">
        <ele>1734</ele>
        <time>2000-01-01T15:30:06.000Z</time>
      </trkpt>
      <trkpt lat="45.28652" lon="5.78198">
        <ele>1733.4</ele>
        <time>2000-01-01T15:30:16.000Z</time>
      </trkpt>
      <trkpt lat="45.28676" lon="5.78194">
        <ele>1730</ele>
        <time>2000-01-01T15:30:26.000Z</time>
      </trkpt>
      <trkpt lat="45.28682" lon="5.78187">
        <ele>1731.1</ele>
        <time>2000-01-01T15:30:36.000Z</time>
      </trkpt>
      <trkpt lat="45.28686" lon="5.78174">
        <ele>1726.3</ele>
        <time>2000-01-01T15:30:46.000Z</time>
      </trkpt>
      <trkpt lat="45.28697" lon="5.78153">
        <ele>1716</ele>
        <time>2000-01-01T15:30:56.000Z</time>
      </trkpt>
      <trkpt lat="45.28714" lon="5.78137">
        <ele>1711</ele>
        <time>2000-01-01T15:31:06.000Z</time>
      </trkpt>
      <trkpt lat="45.28696" lon="5.7813">
        <ele>1709.3</ele>
        <time>2000-01-01T15:31:16.000Z</time>
      </trkpt>
      <trkpt lat="45.28669" lon="5.78132">
        <ele>1703</ele>
        <time>2000-01-01T15:31:26.000Z</time>
      </trkpt>
      <trkpt lat="45.2864" lon="5.78128">
        <ele>1694</ele>
        <time>2000-01-01T15:31:36.000Z</time>
      </trkpt>
      <trkpt lat="45.28632" lon="5.78125">
        <ele>1696.9</ele>
        <time>2000-01-01T15:31:46.000Z</time>
      </trkpt>
      <trkpt lat="45.28611" lon="5.78108">
        <ele>1685</ele>
        <time>2000-01-01T15:31:56.000Z</time>
      </trkpt>
      <trkpt lat="45.28603" lon="5.78108">
        <ele>1690.3</ele>
        <time>2000-01-01T15:32:06.000Z</time>
      </trkpt>
      <trkpt lat="45.28603" lon="5.78104">
        <ele>1688.4</ele>
        <time>2000-01-01T15:32:16.000Z</time>
      </trkpt>
      <trkpt lat="45.28613" lon="5.78097">
        <ele>1680</ele>
        <time>2000-01-01T15:32:26.000Z</time>
      </trkpt>
      <trkpt lat="45.28646" lon="5.78086">
        <ele>1677</ele>
        <time>2000-01-01T15:32:36.000Z</time>
      </trkpt>
      <trkpt lat="45.28661" lon="5.78075">
        <ele>1677.7</ele>
        <time>2000-01-01T15:32:46.000Z</time>
      </trkpt>
      <trkpt lat="45.28679" lon="5.78057">
        <ele>1668</ele>
        <time>2000-01-01T15:32:56.000Z</time>
      </trkpt>
      <trkpt lat="45.28691" lon="5.7803">
        <ele>1666</ele>
        <time>2000-01-01T15:33:06.000Z</time>
      </trkpt>
      <trkpt lat="45.28703" lon="5.7802">
        <ele>1663.9</ele>
        <time>2000-01-01T15:33:16.000Z</time>
      </trkpt>
      <trkpt lat="45.28694" lon="5.78017">
        <ele>1660</ele>
        <time>2000-01-01T15:33:26.000Z</time>
      </trkpt>
      <trkpt lat="45.28685" lon="5.78019">
        <ele>1660.4</ele>
        <time>2000-01-01T15:33:36.000Z</time>
      </trkpt>
      <trkpt lat="45.28665" lon="5.7803">
        <ele>1657</ele>
        <time>2000-01-01T15:33:46.000Z</time>
      </trkpt>
      <trkpt lat="45.28653" lon="5.78027">
        <ele>1656.2</ele>
        <time>2000-01-01T15:33:56.000Z</time>
      </trkpt>
      <trkpt lat="45.28639" lon="5.78028">
        <ele>1650</ele>
        <time>2000-01-01T15:34:06.000Z</time>
      </trkpt>
      <trkpt lat="45.28633" lon="5.78022">
        <ele>1651.5</ele>
        <time>2000-01-01T15:34:16.000Z</time>
      </trkpt>
      <trkpt lat="45.28619" lon="5.78017">
        <ele>1648</ele>
        <time>2000-01-01T15:34:26.000Z</time>
      </trkpt>
      <trkpt lat="45.28606" lon="5.78005">
        <ele>1645.5</ele>
        <time>2000-01-01T15:34:36.000Z</time>
      </trkpt>
      <trkpt lat="45.28592" lon="5.78001">
        <ele>1645</ele>
        <time>2000-01-01T15:34:46.000Z</time>
      </trkpt>
      <trkpt lat="45.28582" lon="5.77985">
        <ele>1640.4</ele>
        <time>2000-01-01T15:34:56.000Z</time>
      </trkpt>
      <trkpt lat="45.28579" lon="5.7796">
        <ele>1633</ele>
        <time>2000-01-01T15:35:06.000Z</time>
      </trkpt>
      <trkpt lat="45.28589" lon="5.77964">
        <ele>1630.7</ele>
        <time>2000-01-01T15:35:16.000Z</time>
      </trkpt>
      <trkpt lat="45.28596" lon="5.77962">
        <ele>1628.7</ele>
        <time>2000-01-01T15:35:26.000Z</time>
      </trkpt>
      <trkpt lat="45.28598" lon="5.77965">
        <ele>1629</ele>
        <time>2000-01-01T15:35:36.000Z</time>
      </trkpt>
      <trkpt lat="45.28601" lon="5.77964">
        <ele>1628.6</ele>
        <time>2000-01-01T15:35:46.000Z</time>
      </trkpt>
      <trkpt lat="45.28607" lon="5.77958">
        <ele>1625.1</ele>
        <time>2000-01-01T15:35:56.000Z</time>
      </trkpt>
      <trkpt lat="45.28607" lon="5.77956">
        <ele>1624.3</ele>
        <time>2000-01-01T15:36:06.000Z</time>
      </trkpt>
      <trkpt lat="45.28608" lon="5.77956">
        <ele>1624.1</ele>
        <time>2000-01-01T15:36:16.000Z</time>
      </trkpt>
      <trkpt lat="45.28612" lon="5.77952">
        <ele>1622</ele>
        <time>2000-01-01T15:36:26.000Z</time>
      </trkpt>
      <trkpt lat="45.28612" lon="5.77951">
        <ele>1621.6</ele>
        <time>2000-01-01T15:36:36.000Z</time>
      </trkpt>
      <trkpt lat="45.28615" lon="5.77946">
        <ele>1616</ele>
        <time>2000-01-01T15:36:46.000Z</time>
      </trkpt>
      <trkpt lat="45.28616" lon="5.77946">
        <ele>1619.4</ele>
        <time>2000-01-01T15:36:56.000Z</time>
      </trkpt>
      <trkpt lat="45.28627" lon="5.77932">
        <ele>1613.9</ele>
        <time>2000-01-01T15:37:06.000Z</time>
      </trkpt>
      <trkpt lat="45.28632" lon="5.77922">
        <ele>1609</ele>
        <time>2000-01-01T15:37:16.000Z</time>
      </trkpt>
      <trkpt lat="45.28634" lon="5.7792">
        <ele>1609.4</ele>
        <time>2000-01-01T15:37:26.000Z</time>
      </trkpt>
      <trkpt lat="45.28638" lon="5.77913">
        <ele>1606.7</ele>
        <time>2000-01-01T15:37:36.000Z</time>
      </trkpt>
      <trkpt lat="45.28646" lon="5.77904">
        <ele>1602</ele>
        <time>2000-01-01T15:37:46.000Z</time>
      </trkpt>
      <trkpt lat="45.28648" lon="5.77901">
        <ele>1604.1</ele>
        <time>2000-01-01T15:37:56.000Z</time>
      </trkpt>
      <trkpt lat="45.28649" lon="5.77899">
        <ele>1603.6</ele>
        <time>2000-01-01T15:38:06.000Z</time>
      </trkpt>
      <trkpt lat="45.28648" lon="5.77895">
        <ele>1601.9</ele>
        <time>2000-01-01T15:38:16.000Z</time>
      </trkpt>
      <trkpt lat="45.28648" lon="5.77893">
        <ele>1601.2</ele>
        <time>2000-01-01T15:38:26.000Z</time>
      </trkpt>
      <trkpt lat="45.28659" lon="5.7788">
        <ele>1591</ele>
        <time>2000-01-01T15:38:36.000Z</time>
      </trkpt>
      <trkpt lat="45.2867" lon="5.77862">
        <ele>1590.9</ele>
        <time>2000-01-01T15:38:46.000Z</time>
      </trkpt>
      <trkpt lat="45.28675" lon="5.7785">
        <ele>1587</ele>
        <time>2000-01-01T15:38:56.000Z</time>
      </trkpt>
      <trkpt lat="45.28682" lon="5.77847">
        <ele>1585.6</ele>
        <time>2000-01-01T15:39:06.000Z</time>
      </trkpt>
      <trkpt lat="45.28689" lon="5.77847">
        <ele>1586.3</ele>
        <time>2000-01-01T15:39:16.000Z</time>
      </trkpt>
      <trkpt lat="45.28695" lon="5.77846">
        <ele>1583</ele>
        <time>2000-01-01T15:39:26.000Z</time>
      </trkpt>
      <trkpt lat="45.28702" lon="5.77842">
        <ele>1584.6</ele>
        <time>2000-01-01T15:39:36.000Z</time>
      </trkpt>
      <trkpt lat="45.28708" lon="5.77841">
        <ele>1584.4</ele>
        <time>2000-01-01T15:39:46.000Z</time>
      </trkpt>
      <trkpt lat="45.28713" lon="5.77838">
        <ele>1583</ele>
        <time>2000-01-01T15:39:56.000Z</time>
      </trkpt>
      <trkpt lat="45.28717" lon="5.77843">
        <ele>1585.7</ele>
        <time>2000-01-01T15:40:06.000Z</time>
      </trkpt>
      <trkpt lat="45.28722" lon="5.77844">
        <ele>1586.4</ele>
        <time>2000-01-01T15:40:16.000Z</time>
      </trkpt>
      <trkpt lat="45.28725" lon="5.77846">
        <ele>1587.3</ele>
        <time>2000-01-01T15:40:26.000Z</time>
      </trkpt>
      <trkpt lat="45.28728" lon="5.77847">
        <ele>1587.8</ele>
        <time>2000-01-01T15:40:36.000Z</time>
      </trkpt>
      <trkpt lat="45.28727" lon="5.7784">
        <ele>1581</ele>
        <time>2000-01-01T15:40:46.000Z</time>
      </trkpt>
      <trkpt lat="45.28728" lon="5.77839">
        <ele>1583.8</ele>
        <time>2000-01-01T15:40:56.000Z</time>
      </trkpt>
      <trkpt lat="45.28735" lon="5.7784">
        <ele>1584.2</ele>
        <time>2000-01-01T15:41:06.000Z</time>
      </trkpt>
      <trkpt lat="45.28742" lon="5.77843">
        <ele>1585.6</ele>
        <time>2000-01-01T15:41:16.000Z</time>
      </trkpt>
      <trkpt lat="45.28747" lon="5.77839">
        <ele>1580</ele>
        <time>2000-01-01T15:41:26.000Z</time>
      </trkpt>
      <trkpt lat="45.28746" lon="5.77838">
        <ele>1583.2</ele>
        <time>2000-01-01T15:41:36.000Z</time>
      </trkpt>
      <trkpt lat="45.28748" lon="5.77836">
        <ele>1582.3</ele>
        <time>2000-01-01T15:41:46.000Z</time>
      </trkpt>
      <trkpt lat="45.28753" lon="5.77835">
        <ele>1581.6</ele>
        <time>2000-01-01T15:41:56.000Z</time>
      </trkpt>
      <trkpt lat="45.2876" lon="5.77832">
        <ele>1579.6</ele>
        <time>2000-01-01T15:42:06.000Z</time>
      </trkpt>
      <trkpt lat="45.28768" lon="5.77833">
        <ele>1579</ele>
        <time>2000-01-01T15:42:16.000Z</time>
      </trkpt>
      <trkpt lat="45.28769" lon="5.77832">
        <ele>1579</ele>
        <time>2000-01-01T15:42:26.000Z</time>
      </trkpt>
      <trkpt lat="45.28772" lon="5.77832">
        <ele>1578.8</ele>
        <time>2000-01-01T15:42:36.000Z</time>
      </trkpt>
      <trkpt lat="45.28777" lon="5.77829">
        <ele>1577</ele>
        <time>2000-01-01T15:42:46.000Z</time>
      </trkpt>
      <trkpt lat="45.28781" lon="5.7783">
        <ele>1577.3</ele>
        <time>2000-01-01T15:42:56.000Z</time>
      </trkpt>
      <trkpt lat="45.28784" lon="5.77827">
        <ele>1575.8</ele>
        <time>2000-01-01T15:43:06.000Z</time>
      </trkpt>
      <trkpt lat="45.28782" lon="5.77818">
        <ele>1567</ele>
        <time>2000-01-01T15:43:16.000Z</time>
      </trkpt>
      <trkpt lat="45.2878" lon="5.77815">
        <ele>1570.3</ele>
        <time>2000-01-01T15:43:26.000Z</time>
      </trkpt>
      <trkpt lat="45.2878" lon="5.77813">
        <ele>1569.4</ele>
        <time>2000-01-01T15:43:36.000Z</time>
      </trkpt>
      <trkpt lat="45.28778" lon="5.77807">
        <ele>1566.7</ele>
        <time>2000-01-01T15:43:46.000Z</time>
      </trkpt>
      <trkpt lat="45.28773" lon="5.77802">
        <ele>1564.5</ele>
        <time>2000-01-01T15:43:56.000Z</time>
      </trkpt>
      <trkpt lat="45.28771" lon="5.77798">
        <ele>1562.7</ele>
        <time>2000-01-01T15:44:06.000Z</time>
      </trkpt>
      <trkpt lat="45.28763" lon="5.77799">
        <ele>1558</ele>
        <time>2000-01-01T15:44:16.000Z</time>
      </trkpt>
      <trkpt lat="45.28757" lon="5.77794">
        <ele>1561.3</ele>
        <time>2000-01-01T15:44:26.000Z</time>
      </trkpt>
      <trkpt lat="45.28757" lon="5.77791">
        <ele>1559.9</ele>
        <time>2000-01-01T15:44:36.000Z</time>
      </trkpt>
      <trkpt lat="45.28755" lon="5.77781">
        <ele>1555.3</ele>
        <time>2000-01-01T15:44:46.000Z</time>
      </trkpt>
      <trkpt lat="45.28751" lon="5.77777">
        <ele>1551</ele>
        <time>2000-01-01T15:44:56.000Z</time>
      </trkpt>
      <trkpt lat="45.28752" lon="5.77777">
        <ele>1553.6</ele>
        <time>2000-01-01T15:45:06.000Z</time>
      </trkpt>
      <trkpt lat="45.2875" lon="5.77773">
        <ele>1551.9</ele>
        <time>2000-01-01T15:45:16.000Z</time>
      </trkpt>
      <trkpt lat="45.28739" lon="5.77772">
        <ele>1551.4</ele>
        <time>2000-01-01T15:45:26.000Z</time>
      </trkpt>
      <trkpt lat="45.28737" lon="5.77771">
        <ele>1551</ele>
        <time>2000-01-01T15:45:36.000Z</time>
      </trkpt>
      <trkpt lat="45.28735" lon="5.77767">
        <ele>1545</ele>
        <time>2000-01-01T15:45:46.000Z</time>
      </trkpt>
      <trkpt lat="45.28732" lon="5.77768">
        <ele>1549.5</ele>
        <time>2000-01-01T15:45:56.000Z</time>
      </trkpt>
      <trkpt lat="45.28726" lon="5.77767">
        <ele>1549</ele>
        <time>2000-01-01T15:46:06.000Z</time>
      </trkpt>
      <trkpt lat="45.28722" lon="5.7777">
        <ele>1550.3</ele>
        <time>2000-01-01T15:46:16.000Z</time>
      </trkpt>
      <trkpt lat="45.28717" lon="5.77768">
        <ele>1549.1</ele>
        <time>2000-01-01T15:46:26.000Z</time>
      </trkpt>
      <trkpt lat="45.28711" lon="5.77767">
        <ele>1546</ele>
        <time>2000-01-01T15:46:36.000Z</time>
      </trkpt>
      <trkpt lat="45.28708" lon="5.7777">
        <ele>1549.6</ele>
        <time>2000-01-01T15:46:46.000Z</time>
      </trkpt>
      <trkpt lat="45.28708" lon="5.77773">
        <ele>1551.1</ele>
        <time>2000-01-01T15:46:56.000Z</time>
      </trkpt>
      <trkpt lat="45.287" lon="5.77774">
        <ele>1551.2</ele>
        <time>2000-01-01T15:47:06.000Z</time>
      </trkpt>
      <trkpt lat="45.28696" lon="5.77776">
        <ele>1552.1</ele>
        <time>2000-01-01T15:47:16.000Z</time>
      </trkpt>
      <trkpt lat="45.2869" lon="5.77771">
        <ele>1543</ele>
        <time>2000-01-01T15:47:26.000Z</time>
      </trkpt>
      <trkpt lat="45.2868" lon="5.77771">
        <ele>1547.8</ele>
        <time>2000-01-01T15:47:36.000Z</time>
      </trkpt>
      <trkpt lat="45.28679" lon="5.77769">
        <ele>1546.6</ele>
        <time>2000-01-01T15:47:46.000Z</time>
      </trkpt>
      <trkpt lat="45.28682" lon="5.77769">
        <ele>1546.9</ele>
        <time>2000-01-01T15:47:56.000Z</time>
      </trkpt>
      <trkpt lat="45.2868" lon="5.7777">
        <ele>1547.2</ele>
        <time>2000-01-01T15:48:06.000Z</time>
      </trkpt>
      <trkpt lat="45.28686" lon="5.77768">
        <ele>1540</ele>
        <time>2000-01-01T15:48:16.000Z</time>
      </trkpt>
      <trkpt lat="45.28696" lon="5.77769">
        <ele>1548.4</ele>
        <time>2000-01-01T15:48:26.000Z</time>
      </trkpt>
      <trkpt lat="45.287" lon="5.77763">
        <ele>1545.4</ele>
        <time>2000-01-01T15:48:36.000Z</time>
      </trkpt>
      <trkpt lat="45.28707" lon="5.77757">
        <ele>1538</ele>
        <time>2000-01-01T15:48:46.000Z</time>
      </trkpt>
      <trkpt lat="45.28708" lon="5.77754">
        <ele>1541.5</ele>
        <time>2000-01-01T15:48:56.000Z</time>
      </trkpt>
      <trkpt lat="45.28748" lon="5.77735">
        <ele>1532</ele>
        <time>2000-01-01T15:49:06.000Z</time>
      </trkpt>
      <trkpt lat="45.2875" lon="5.77733">
        <ele>1534.7</ele>
        <time>2000-01-01T15:49:16.000Z</time>
      </trkpt>
      <trkpt lat="45.2876" lon="5.77731">
        <ele>1533.3</ele>
        <time>2000-01-01T15:49:26.000Z</time>
      </trkpt>
      <trkpt lat="45.2877" lon="5.7773">
        <ele>1532</ele>
        <time>2000-01-01T15:49:36.000Z</time>
      </trkpt>
      <trkpt lat="45.28775" lon="5.77727">
        <ele>1531</ele>
        <time>2000-01-01T15:49:46.000Z</time>
      </trkpt>
      <trkpt lat="45.28788" lon="5.77721">
        <ele>1528</ele>
        <time>2000-01-01T15:49:56.000Z</time>
      </trkpt>
      <trkpt lat="45.28796" lon="5.7772">
        <ele>1527.5</ele>
        <time>2000-01-01T15:50:06.000Z</time>
      </trkpt>
      <trkpt lat="45.28804" lon="5.77717">
        <ele>1526</ele>
        <time>2000-01-01T15:50:16.000Z</time>
      </trkpt>
      <trkpt lat="45.28805" lon="5.77715">
        <ele>1525.2</ele>
        <time>2000-01-01T15:50:26.000Z</time>
      </trkpt>
      <trkpt lat="45.28809" lon="5.77716">
        <ele>1523</ele>
        <time>2000-01-01T15:50:36.000Z</time>
      </trkpt>
      <trkpt lat="45.28813" lon="5.77712">
        <ele>1523.7</ele>
        <time>2000-01-01T15:50:46.000Z</time>
      </trkpt>
      <trkpt lat="45.28817" lon="5.77713">
        <ele>1523.9</ele>
        <time>2000-01-01T15:50:56.000Z</time>
      </trkpt>
      <trkpt lat="45.28821" lon="5.77709">
        <ele>1522.2</ele>
        <time>2000-01-01T15:51:06.000Z</time>
      </trkpt>
      <trkpt lat="45.28826" lon="5.77707">
        <ele>1517</ele>
        <time>2000-01-01T15:51:16.000Z</time>
      </trkpt>
      <trkpt lat="45.28828" lon="5.77703">
        <ele>1519.6</ele>
        <time>2000-01-01T15:51:26.000Z</time>
      </trkpt>
      <trkpt lat="45.28834" lon="5.777">
        <ele>1518.2</ele>
        <time>2000-01-01T15:51:36.000Z</time>
      </trkpt>
      <trkpt lat="45.28845" lon="5.77676">
        <ele>1507</ele>
        <time>2000-01-01T15:51:46.000Z</time>
      </trkpt>
      <trkpt lat="45.28855" lon="5.77667">
        <ele>1506.9</ele>
        <time>2000-01-01T15:51:56.000Z</time>
      </trkpt>
      <trkpt lat="45.28863" lon="5.77661">
        <ele>1504</ele>
        <time>2000-01-01T15:52:06.000Z</time>
      </trkpt>
      <trkpt lat="45.28871" lon="5.77658">
        <ele>1503.8</ele>
        <time>2000-01-01T15:52:16.000Z</time>
      </trkpt>
      <trkpt lat="45.28875" lon="5.77655">
        <ele>1502.7</ele>
        <time>2000-01-01T15:52:26.000Z</time>
      </trkpt>
      <trkpt lat="45.28887" lon="5.77652">
        <ele>1501</ele>
        <time>2000-01-01T15:52:36.000Z</time>
      </trkpt>
      <trkpt lat="45.28895" lon="5.77646">
        <ele>1498.8</ele>
        <time>2000-01-01T15:52:46.000Z</time>
      </trkpt>
      <trkpt lat="45.28895" lon="5.77644">
        <ele>1498.2</ele>
        <time>2000-01-01T15:52:56.000Z</time>
      </trkpt>
      <trkpt lat="45.289" lon="5.77645">
        <ele>1498.1</ele>
        <time>2000-01-01T15:53:06.000Z</time>
      </trkpt>
      <trkpt lat="45.28915" lon="5.77641">
        <ele>1495</ele>
        <time>2000-01-01T15:53:16.000Z</time>
      </trkpt>
      <trkpt lat="45.28925" lon="5.77641">
        <ele>1494.4</ele>
        <time>2000-01-01T15:53:26.000Z</time>
      </trkpt>
      <trkpt lat="45.28937" lon="5.77646">
        <ele>1492</ele>
        <time>2000-01-01T15:53:36.000Z</time>
      </trkpt>
      <trkpt lat="45.28944" lon="5.77646">
        <ele>1493.1</ele>
        <time>2000-01-01T15:53:46.000Z</time>
      </trkpt>
      <trkpt lat="45.28944" lon="5.77647">
        <ele>1493.4</ele>
        <time>2000-01-01T15:53:56.000Z</time>
      </trkpt>
      <trkpt lat="45.28947" lon="5.77646">
        <ele>1492.6</ele>
        <time>2000-01-01T15:54:06.000Z</time>
      </trkpt>
      <trkpt lat="45.28958" lon="5.77649">
        <ele>1489</ele>
        <time>2000-01-01T15:54:16.000Z</time>
      </trkpt>
      <trkpt lat="45.28965" lon="5.77648">
        <ele>1489.9</ele>
        <time>2000-01-01T15:54:26.000Z</time>
      </trkpt>
      <trkpt lat="45.28975" lon="5.77648">
        <ele>1487.9</ele>
        <time>2000-01-01T15:54:36.000Z</time>
      </trkpt>
      <trkpt lat="45.28978" lon="5.77647">
        <ele>1485</ele>
        <time>2000-01-01T15:54:46.000Z</time>
      </trkpt>
      <trkpt lat="45.2898" lon="5.77648">
        <ele>1486.7</ele>
        <time>2000-01-01T15:54:56.000Z</time>
      </trkpt>
      <trkpt lat="45.28986" lon="5.77645">
        <ele>1484.3</ele>
        <time>2000-01-01T15:55:06.000Z</time>
      </trkpt>
      <trkpt lat="45.2899" lon="5.77645">
        <ele>1483.3</ele>
        <time>2000-01-01T15:55:16.000Z</time>
      </trkpt>
      <trkpt lat="45.28999" lon="5.77649">
        <ele>1483</ele>
        <time>2000-01-01T15:55:26.000Z</time>
      </trkpt>
      <trkpt lat="45.29006" lon="5.77657">
        <ele>1482.5</ele>
        <time>2000-01-01T15:55:36.000Z</time>
      </trkpt>
      <trkpt lat="45.2901" lon="5.7766">
        <ele>1482.2</ele>
        <time>2000-01-01T15:55:46.000Z</time>
      </trkpt>
      <trkpt lat="45.29016" lon="5.77662">
        <ele>1482</ele>
        <time>2000-01-01T15:55:56.000Z</time>
      </trkpt>
      <trkpt lat="45.29023" lon="5.77667">
        <ele>1480.5</ele>
        <time>2000-01-01T15:56:06.000Z</time>
      </trkpt>
      <trkpt lat="45.29031" lon="5.77671">
        <ele>1479.5</ele>
        <time>2000-01-01T15:56:16.000Z</time>
      </trkpt>
      <trkpt lat="45.29037" lon="5.77672">
        <ele>1478</ele>
        <time>2000-01-01T15:56:26.000Z</time>
      </trkpt>
      <trkpt lat="45.29038" lon="5.77673">
        <ele>1478.2</ele>
        <time>2000-01-01T15:56:36.000Z</time>
      </trkpt>
      <trkpt lat="45.29051" lon="5.7767">
        <ele>1473.5</ele>
        <time>2000-01-01T15:56:46.000Z</time>
      </trkpt>
      <trkpt lat="45.29058" lon="5.77667">
        <ele>1470</ele>
        <time>2000-01-01T15:56:56.000Z</time>
      </trkpt>
      <trkpt lat="45.29069" lon="5.7767">
        <ele>1469.2</ele>
        <time>2000-01-01T15:57:06.000Z</time>
      </trkpt>
      <trkpt lat="45.29091" lon="5.77668">
        <ele>1461</ele>
        <time>2000-01-01T15:57:16.000Z</time>
      </trkpt>
      <trkpt lat="45.29102" lon="5.7767">
        <ele>1461.9</ele>
        <time>2000-01-01T15:57:26.000Z</time>
      </trkpt>
      <trkpt lat="45.29106" lon="5.7767">
        <ele>1461</ele>
        <time>2000-01-01T15:57:36.000Z</time>
      </trkpt>
      <trkpt lat="45.2911" lon="5.77669">
        <ele>1457</ele>
        <time>2000-01-01T15:57:46.000Z</time>
      </trkpt>
      <trkpt lat="45.29116" lon="5.77672">
        <ele>1458.9</ele>
        <time>2000-01-01T15:57:56.000Z</time>
      </trkpt>
      <trkpt lat="45.29124" lon="5.7767">
        <ele>1456</ele>
        <time>2000-01-01T15:58:06.000Z</time>
      </trkpt>
      <trkpt lat="45.29125" lon="5.77665">
        <ele>1454.6</ele>
        <time>2000-01-01T15:58:16.000Z</time>
      </trkpt>
      <trkpt lat="45.29121" lon="5.77658">
        <ele>1453</ele>
        <time>2000-01-01T15:58:26.000Z</time>
      </trkpt>
      <trkpt lat="45.29109" lon="5.77644">
        <ele>1453.7</ele>
        <time>2000-01-01T15:58:36.000Z</time>
      </trkpt>
      <trkpt lat="45.29102" lon="5.77633">
        <ele>1452</ele>
        <time>2000-01-01T15:58:46.000Z</time>
      </trkpt>
      <trkpt lat="45.29093" lon="5.7761">
        <ele>1449</ele>
        <time>2000-01-01T15:58:56.000Z</time>
      </trkpt>
      <trkpt lat="45.29087" lon="5.77601">
        <ele>1448</ele>
        <time>2000-01-01T15:59:06.000Z</time>
      </trkpt>
      <trkpt lat="45.2908" lon="5.77582">
        <ele>1444.3</ele>
        <time>2000-01-01T15:59:16.000Z</time>
      </trkpt>
      <trkpt lat="45.29074" lon="5.77554">
        <ele>1437</ele>
        <time>2000-01-01T15:59:26.000Z</time>
      </trkpt>
      <trkpt lat="45.2906" lon="5.7753">
        <ele>1436</ele>
        <time>2000-01-01T15:59:36.000Z</time>
      </trkpt>
      <trkpt lat="45.29055" lon="5.77516">
        <ele>1432.6</ele>
        <time>2000-01-01T15:59:46.000Z</time>
      </trkpt>
      <trkpt lat="45.29054" lon="5.77501">
        <ele>1429</ele>
        <time>2000-01-01T15:59:56.000Z</time>
      </trkpt>
      <trkpt lat="45.29038" lon="5.77468">
        <ele>1423</ele>
        <time>2000-01-01T16:00:06.000Z</time>
      </trkpt>
      <trkpt lat="45.29035" lon="5.77459">
        <ele>1423.2</ele>
        <time>2000-01-01T16:00:16.000Z</time>
      </trkpt>
      <trkpt lat="45.29033" lon="5.77446">
        <ele>1420.4</ele>
        <time>2000-01-01T16:00:26.000Z</time>
      </trkpt>
      <trkpt lat="45.29027" lon="5.7744">
        <ele>1420</ele>
        <time>2000-01-01T16:00:36.000Z</time>
      </trkpt>
      <trkpt lat="45.29008" lon="5.77412">
        <ele>1415</ele>
        <time>2000-01-01T16:00:46.000Z</time>
      </trkpt>
      <trkpt lat="45.29005" lon="5.77409">
        <ele>1415.1</ele>
        <time>2000-01-01T16:00:56.000Z</time>
      </trkpt>
      <trkpt lat="45.29003" lon="5.77404">
        <ele>1414</ele>
        <time>2000-01-01T16:01:06.000Z</time>
      </trkpt>
      <trkpt lat="45.28991" lon="5.77382">
        <ele>1408</ele>
        <time>2000-01-01T16:01:16.000Z</time>
      </trkpt>
      <trkpt lat="45.28987" lon="5.77382">
        <ele>1409.3</ele>
        <time>2000-01-01T16:01:26.000Z</time>
      </trkpt>
      <trkpt lat="45.28981" lon="5.77379">
        <ele>1409</ele>
        <time>2000-01-01T16:01:36.000Z</time>
      </trkpt>
      <trkpt lat="45.28976" lon="5.77373">
        <ele>1407.5</ele>
        <time>2000-01-01T16:01:46.000Z</time>
      </trkpt>
      <trkpt lat="45.28969" lon="5.77368">
        <ele>1404</ele>
        <time>2000-01-01T16:01:56.000Z</time>
      </trkpt>
      <trkpt lat="45.28966" lon="5.77364">
        <ele>1405.4</ele>
        <time>2000-01-01T16:02:06.000Z</time>
      </trkpt>
      <trkpt lat="45.28957" lon="5.77361">
        <ele>1405.1</ele>
        <time>2000-01-01T16:02:16.000Z</time>
      </trkpt>
      <trkpt lat="45.28946" lon="5.77352">
        <ele>1402</ele>
        <time>2000-01-01T16:02:26.000Z</time>
      </trkpt>
      <trkpt lat="45.28944" lon="5.77353">
        <ele>1403.4</ele>
        <time>2000-01-01T16:02:36.000Z</time>
      </trkpt>
      <trkpt lat="45.28941" lon="5.77352">
        <ele>1403.1</ele>
        <time>2000-01-01T16:02:46.000Z</time>
      </trkpt>
      <trkpt lat="45.2892" lon="5.77327">
        <ele>1393</ele>
        <time>2000-01-01T16:02:56.000Z</time>
      </trkpt>
      <trkpt lat="45.2891" lon="5.77323">
        <ele>1394</ele>
        <time>2000-01-01T16:03:06.000Z</time>
      </trkpt>
      <trkpt lat="45.28902" lon="5.77316">
        <ele>1389</ele>
        <time>2000-01-01T16:03:16.000Z</time>
      </trkpt>
      <trkpt lat="45.28896" lon="5.77313">
        <ele>1391.1</ele>
        <time>2000-01-01T16:03:26.000Z</time>
      </trkpt>
      <trkpt lat="45.28886" lon="5.77302">
        <ele>1386</ele>
        <time>2000-01-01T16:03:36.000Z</time>
      </trkpt>
      <trkpt lat="45.2888" lon="5.77299">
        <ele>1386.9</ele>
        <time>2000-01-01T16:03:46.000Z</time>
      </trkpt>
      <trkpt lat="45.28872" lon="5.77293">
        <ele>1385.1</ele>
        <time>2000-01-01T16:03:56.000Z</time>
      </trkpt>
      <trkpt lat="45.28865" lon="5.77284">
        <ele>1382</ele>
        <time>2000-01-01T16:04:06.000Z</time>
      </trkpt>
      <trkpt lat="45.28847" lon="5.77267">
        <ele>1377</ele>
        <time>2000-01-01T16:04:16.000Z</time>
      </trkpt>
      <trkpt lat="45.28845" lon="5.77264">
        <ele>1378</ele>
        <time>2000-01-01T16:04:26.000Z</time>
      </trkpt>
      <trkpt lat="45.28835" lon="5.77256">
        <ele>1376.3</ele>
        <time>2000-01-01T16:04:36.000Z</time>
      </trkpt>
      <trkpt lat="45.28834" lon="5.77254">
        <ele>1375.9</ele>
        <time>2000-01-01T16:04:46.000Z</time>
      </trkpt>
      <trkpt lat="45.28828" lon="5.77253">
        <ele>1375</ele>
        <time>2000-01-01T16:04:56.000Z</time>
      </trkpt>
      <trkpt lat="45.28823" lon="5.77246">
        <ele>1374.3</ele>
        <time>2000-01-01T16:05:06.000Z</time>
      </trkpt>
      <trkpt lat="45.28822" lon="5.77236">
        <ele>1372.5</ele>
        <time>2000-01-01T16:05:16.000Z</time>
      </trkpt>
      <trkpt lat="45.28816" lon="5.77219">
        <ele>1367</ele>
        <time>2000-01-01T16:05:26.000Z</time>
      </trkpt>
      <trkpt lat="45.28815" lon="5.77212">
        <ele>1368.4</ele>
        <time>2000-01-01T16:05:36.000Z</time>
      </trkpt>
      <trkpt lat="45.28808" lon="5.77181">
        <ele>1363</ele>
        <time>2000-01-01T16:05:46.000Z</time>
      </trkpt>
      <trkpt lat="45.28806" lon="5.7717">
        <ele>1361.6</ele>
        <time>2000-01-01T16:05:56.000Z</time>
      </trkpt>
      <trkpt lat="45.28807" lon="5.77151">
        <ele>1359</ele>
        <time>2000-01-01T16:06:06.000Z</time>
      </trkpt>
      <trkpt lat="45.28807" lon="5.77135">
        <ele>1357.2</ele>
        <time>2000-01-01T16:06:16.000Z</time>
      </trkpt>
      <trkpt lat="45.28809" lon="5.77123">
        <ele>1355</ele>
        <time>2000-01-01T16:06:26.000Z</time>
      </trkpt>
      <trkpt lat="45.28809" lon="5.7709">
        <ele>1350</ele>
        <time>2000-01-01T16:06:36.000Z</time>
      </trkpt>
      <trkpt lat="45.28808" lon="5.77074">
        <ele>1347.5</ele>
        <time>2000-01-01T16:06:46.000Z</time>
      </trkpt>
      <trkpt lat="45.28808" lon="5.77063">
        <ele>1345</ele>
        <time>2000-01-01T16:06:56.000Z</time>
      </trkpt>
      <trkpt lat="45.28806" lon="5.77048">
        <ele>1343.9</ele>
        <time>2000-01-01T16:07:06.000Z</time>
      </trkpt>
      <trkpt lat="45.28809" lon="5.77038">
        <ele>1342.3</ele>
        <time>2000-01-01T16:07:16.000Z</time>
      </trkpt>
      <trkpt lat="45.2887" lon="5.76899">
        <ele>1335</ele>
        <time>2000-01-01T16:07:26.000Z</time>
      </trkpt>
      <trkpt lat="45.28873" lon="5.76839">
        <ele>1333</ele>
        <time>2000-01-01T16:07:36.000Z</time>
      </trkpt>
      <trkpt lat="45.28839" lon="5.76869">
        <ele>1334</ele>
        <time>2000-01-01T16:07:46.000Z</time>
      </trkpt>
      <trkpt lat="45.28797" lon="5.76899">
        <ele>1336</ele>
        <time>2000-01-01T16:07:56.000Z</time>
      </trkpt>
      <trkpt lat="45.28771" lon="5.76901">
        <ele>1338</ele>
        <time>2000-01-01T16:08:06.000Z</time>
      </trkpt>
      <trkpt lat="45.28761" lon="5.76903">
        <ele>1338.9</ele>
        <time>2000-01-01T16:08:16.000Z</time>
      </trkpt>
      <trkpt lat="45.28752" lon="5.76906">
        <ele>1338</ele>
        <time>2000-01-01T16:08:26.000Z</time>
      </trkpt>
      <trkpt lat="45.28744" lon="5.76904">
        <ele>1339.4</ele>
        <time>2000-01-01T16:08:36.000Z</time>
      </trkpt>
      <trkpt lat="45.28738" lon="5.769">
        <ele>1339.3</ele>
        <time>2000-01-01T16:08:46.000Z</time>
      </trkpt>
      <trkpt lat="45.28736" lon="5.76901">
        <ele>1339.3</ele>
        <time>2000-01-01T16:08:56.000Z</time>
      </trkpt>
      <trkpt lat="45.28724" lon="5.76901">
        <ele>1338</ele>
        <time>2000-01-01T16:09:06.000Z</time>
      </trkpt>
      <trkpt lat="45.28718" lon="5.76903">
        <ele>1338.6</ele>
        <time>2000-01-01T16:09:16.000Z</time>
      </trkpt>
      <trkpt lat="45.28702" lon="5.76902">
        <ele>1337</ele>
        <time>2000-01-01T16:09:26.000Z</time>
      </trkpt>
      <trkpt lat="45.287" lon="5.76903">
        <ele>1337</ele>
        <time>2000-01-01T16:09:36.000Z</time>
      </trkpt>
      <trkpt lat="45.2869" lon="5.76904">
        <ele>1335.8</ele>
        <time>2000-01-01T16:09:46.000Z</time>
      </trkpt>
      <trkpt lat="45.28668" lon="5.76909">
        <ele>1331</ele>
        <time>2000-01-01T16:09:56.000Z</time>
      </trkpt>
      <trkpt lat="45.28654" lon="5.76909">
        <ele>1330.3</ele>
        <time>2000-01-01T16:10:06.000Z</time>
      </trkpt>
      <trkpt lat="45.28638" lon="5.76911">
        <ele>1326</ele>
        <time>2000-01-01T16:10:16.000Z</time>
      </trkpt>
      <trkpt lat="45.28637" lon="5.76911">
        <ele>1327.7</ele>
        <time>2000-01-01T16:10:26.000Z</time>
      </trkpt>
      <trkpt lat="45.2863" lon="5.76904">
        <ele>1326.4</ele>
        <time>2000-01-01T16:10:36.000Z</time>
      </trkpt>
      <trkpt lat="45.28619" lon="5.76901">
        <ele>1322</ele>
        <time>2000-01-01T16:10:46.000Z</time>
      </trkpt>
      <trkpt lat="45.28616" lon="5.76902">
        <ele>1323.9</ele>
        <time>2000-01-01T16:10:56.000Z</time>
      </trkpt>
      <trkpt lat="45.28612" lon="5.76916">
        <ele>1323.2</ele>
        <time>2000-01-01T16:11:06.000Z</time>
      </trkpt>
      <trkpt lat="45.28607" lon="5.7692">
        <ele>1322</ele>
        <time>2000-01-01T16:11:16.000Z</time>
      </trkpt>
      <trkpt lat="45.28591" lon="5.7694">
        <ele>1322</ele>
        <time>2000-01-01T16:11:26.000Z</time>
      </trkpt>
      <trkpt lat="45.28589" lon="5.76941">
        <ele>1322.5</ele>
        <time>2000-01-01T16:11:36.000Z</time>
      </trkpt>
      <trkpt lat="45.28575" lon="5.76943">
        <ele>1321</ele>
        <time>2000-01-01T16:11:46.000Z</time>
      </trkpt>
      <trkpt lat="45.28564" lon="5.76942">
        <ele>1318</ele>
        <time>2000-01-01T16:11:56.000Z</time>
      </trkpt>
      <trkpt lat="45.28556" lon="5.76943">
        <ele>1318.9</ele>
        <time>2000-01-01T16:12:06.000Z</time>
      </trkpt>
      <trkpt lat="45.2855" lon="5.76947">
        <ele>1318.7</ele>
        <time>2000-01-01T16:12:16.000Z</time>
      </trkpt>
      <trkpt lat="45.28543" lon="5.76943">
        <ele>1315</ele>
        <time>2000-01-01T16:12:26.000Z</time>
      </trkpt>
      <trkpt lat="45.28541" lon="5.76943">
        <ele>1316.7</ele>
        <time>2000-01-01T16:12:36.000Z</time>
      </trkpt>
      <trkpt lat="45.28534" lon="5.76939">
        <ele>1315.2</ele>
        <time>2000-01-01T16:12:46.000Z</time>
      </trkpt>
      <trkpt lat="45.28526" lon="5.76937">
        <ele>1313.7</ele>
        <time>2000-01-01T16:12:56.000Z</time>
      </trkpt>
      <trkpt lat="45.28508" lon="5.76933">
        <ele>1308</ele>
        <time>2000-01-01T16:13:06.000Z</time>
      </trkpt>
      <trkpt lat="45.28503" lon="5.76935">
        <ele>1310.7</ele>
        <time>2000-01-01T16:13:16.000Z</time>
      </trkpt>
      <trkpt lat="45.28502" lon="5.76934">
        <ele>1310.4</ele>
        <time>2000-01-01T16:13:26.000Z</time>
      </trkpt>
      <trkpt lat="45.28493" lon="5.76933">
        <ele>1309.5</ele>
        <time>2000-01-01T16:13:36.000Z</time>
      </trkpt>
      <trkpt lat="45.28488" lon="5.76928">
        <ele>1305</ele>
        <time>2000-01-01T16:13:46.000Z</time>
      </trkpt>
      <trkpt lat="45.28486" lon="5.76929">
        <ele>1308.2</ele>
        <time>2000-01-01T16:13:56.000Z</time>
      </trkpt>
      <trkpt lat="45.28482" lon="5.76925">
        <ele>1306.9</ele>
        <time>2000-01-01T16:14:06.000Z</time>
      </trkpt>
      <trkpt lat="45.28473" lon="5.76912">
        <ele>1302</ele>
        <time>2000-01-01T16:14:16.000Z</time>
      </trkpt>
      <trkpt lat="45.28466" lon="5.76914">
        <ele>1303.6</ele>
        <time>2000-01-01T16:14:26.000Z</time>
      </trkpt>
      <trkpt lat="45.2846" lon="5.76913">
        <ele>1303.4</ele>
        <time>2000-01-01T16:14:36.000Z</time>
      </trkpt>
      <trkpt lat="45.28459" lon="5.76914">
        <ele>1303.5</ele>
        <time>2000-01-01T16:14:46.000Z</time>
      </trkpt>
      <trkpt lat="45.28448" lon="5.76907">
        <ele>1299</ele>
        <time>2000-01-01T16:14:56.000Z</time>
      </trkpt>
      <trkpt lat="45.28432" lon="5.76886">
        <ele>1294</ele>
        <time>2000-01-01T16:15:06.000Z</time>
      </trkpt>
      <trkpt lat="45.28408" lon="5.76867">
        <ele>1290</ele>
        <time>2000-01-01T16:15:16.000Z</time>
      </trkpt>
      <trkpt lat="45.28401" lon="5.76859">
        <ele>1290.1</ele>
        <time>2000-01-01T16:15:26.000Z</time>
      </trkpt>
      <trkpt lat="45.28392" lon="5.76854">
        <ele>1288.9</ele>
        <time>2000-01-01T16:15:36.000Z</time>
      </trkpt>
      <trkpt lat="45.28382" lon="5.76851">
        <ele>1290</ele>
        <time>2000-01-01T16:15:46.000Z</time>
      </trkpt>
      <trkpt lat="45.28373" lon="5.76851">
        <ele>1289.3</ele>
        <time>2000-01-01T16:15:56.000Z</time>
      </trkpt>
      <trkpt lat="45.28372" lon="5.76852">
        <ele>1289.6</ele>
        <time>2000-01-01T16:16:06.000Z</time>
      </trkpt>
      <trkpt lat="45.28357" lon="5.76856">
        <ele>1290</ele>
        <time>2000-01-01T16:16:16.000Z</time>
      </trkpt>
      <trkpt lat="45.28343" lon="5.76864">
        <ele>1294</ele>
        <time>2000-01-01T16:16:26.000Z</time>
      </trkpt>
      <trkpt lat="45.28335" lon="5.76867">
        <ele>1293</ele>
        <time>2000-01-01T16:16:36.000Z</time>
      </trkpt>
      <trkpt lat="45.28323" lon="5.76864">
        <ele>1294.7</ele>
        <time>2000-01-01T16:16:46.000Z</time>
      </trkpt>
      <trkpt lat="45.28311" lon="5.76863">
        <ele>1293</ele>
        <time>2000-01-01T16:16:56.000Z</time>
      </trkpt>
      <trkpt lat="45.28303" lon="5.76866">
        <ele>1295.2</ele>
        <time>2000-01-01T16:17:06.000Z</time>
      </trkpt>
      <trkpt lat="45.28286" lon="5.76865">
        <ele>1293</ele>
        <time>2000-01-01T16:17:16.000Z</time>
      </trkpt>
      <trkpt lat="45.28275" lon="5.76867">
        <ele>1294.8</ele>
        <time>2000-01-01T16:17:26.000Z</time>
      </trkpt>
      <trkpt lat="45.28264" lon="5.7687">
        <ele>1296</ele>
        <time>2000-01-01T16:17:36.000Z</time>
      </trkpt>
      <trkpt lat="45.28255" lon="5.76877">
        <ele>1298.9</ele>
        <time>2000-01-01T16:17:46.000Z</time>
      </trkpt>
      <trkpt lat="45.28246" lon="5.76878">
        <ele>1297</ele>
        <time>2000-01-01T16:17:56.000Z</time>
      </trkpt>
      <trkpt lat="45.2824" lon="5.76881">
        <ele>1301.2</ele>
        <time>2000-01-01T16:18:06.000Z</time>
      </trkpt>
      <trkpt lat="45.28231" lon="5.76884">
        <ele>1302.8</ele>
        <time>2000-01-01T16:18:16.000Z</time>
      </trkpt>
      <trkpt lat="45.28226" lon="5.76881">
        <ele>1302</ele>
        <time>2000-01-01T16:18:26.000Z</time>
      </trkpt>
      <trkpt lat="45.28223" lon="5.76882">
        <ele>1302.7</ele>
        <time>2000-01-01T16:18:36.000Z</time>
      </trkpt>
      <trkpt lat="45.28215" lon="5.76883">
        <ele>1303.6</ele>
        <time>2000-01-01T16:18:46.000Z</time>
      </trkpt>
      <trkpt lat="45.28205" lon="5.76883">
        <ele>1303</ele>
        <time>2000-01-01T16:18:56.000Z</time>
      </trkpt>
      <trkpt lat="45.28199" lon="5.76887">
        <ele>1306</ele>
        <time>2000-01-01T16:19:06.000Z</time>
      </trkpt>
      <trkpt lat="45.2819" lon="5.76888">
        <ele>1306.4</ele>
        <time>2000-01-01T16:19:16.000Z</time>
      </trkpt>
      <trkpt lat="45.28185" lon="5.76887">
        <ele>1303</ele>
        <time>2000-01-01T16:19:26.000Z</time>
      </trkpt>
      <trkpt lat="45.28178" lon="5.76883">
        <ele>1303.9</ele>
        <time>2000-01-01T16:19:36.000Z</time>
      </trkpt>
      <trkpt lat="45.2817" lon="5.76885">
        <ele>1304.1</ele>
        <time>2000-01-01T16:19:46.000Z</time>
      </trkpt>
      <trkpt lat="45.28163" lon="5.76891">
        <ele>1305</ele>
        <time>2000-01-01T16:19:56.000Z</time>
      </trkpt>
      <trkpt lat="45.28146" lon="5.76898">
        <ele>1306.1</ele>
        <time>2000-01-01T16:20:06.000Z</time>
      </trkpt>
      <trkpt lat="45.28132" lon="5.76907">
        <ele>1305</ele>
        <time>2000-01-01T16:20:16.000Z</time>
      </trkpt>
      <trkpt lat="45.28126" lon="5.76908">
        <ele>1308.8</ele>
        <time>2000-01-01T16:20:26.000Z</time>
      </trkpt>
      <trkpt lat="45.28119" lon="5.76906">
        <ele>1308.4</ele>
        <time>2000-01-01T16:20:36.000Z</time>
      </trkpt>
      <trkpt lat="45.28116" lon="5.76906">
        <ele>1308.4</ele>
        <time>2000-01-01T16:20:46.000Z</time>
      </trkpt>
      <trkpt lat="45.28115" lon="5.76907">
        <ele>1308.8</ele>
        <time>2000-01-01T16:20:56.000Z</time>
      </trkpt>
      <trkpt lat="45.28109" lon="5.76906">
        <ele>1307</ele>
        <time>2000-01-01T16:21:06.000Z</time>
      </trkpt>
      <trkpt lat="45.281" lon="5.76903">
        <ele>1308.4</ele>
        <time>2000-01-01T16:21:16.000Z</time>
      </trkpt>
      <trkpt lat="45.2808" lon="5.7691">
        <ele>1308</ele>
        <time>2000-01-01T16:21:26.000Z</time>
      </trkpt>
      <trkpt lat="45.28075" lon="5.76908">
        <ele>1311</ele>
        <time>2000-01-01T16:21:36.000Z</time>
      </trkpt>
      <trkpt lat="45.28071" lon="5.76908">
        <ele>1310.9</ele>
        <time>2000-01-01T16:21:46.000Z</time>
      </trkpt>
      <trkpt lat="45.28064" lon="5.76914">
        <ele>1312.5</ele>
        <time>2000-01-01T16:21:56.000Z</time>
      </trkpt>
      <trkpt lat="45.28046" lon="5.76919">
        <ele>1310</ele>
        <time>2000-01-01T16:22:06.000Z</time>
      </trkpt>
      <trkpt lat="45.2804" lon="5.76923">
        <ele>1314</ele>
        <time>2000-01-01T16:22:16.000Z</time>
      </trkpt>
      <trkpt lat="45.28026" lon="5.76936">
        <ele>1314</ele>
        <time>2000-01-01T16:22:26.000Z</time>
      </trkpt>
      <trkpt lat="45.28008" lon="5.76945">
        <ele>1314</ele>
        <time>2000-01-01T16:22:36.000Z</time>
      </trkpt>
      <trkpt lat="45.28006" lon="5.76947">
        <ele>1317</ele>
        <time>2000-01-01T16:22:46.000Z</time>
      </trkpt>
      <trkpt lat="45.28002" lon="5.76945">
        <ele>1316.3</ele>
        <time>2000-01-01T16:22:56.000Z</time>
      </trkpt>
      <trkpt lat="45.27998" lon="5.76948">
        <ele>1316.6</ele>
        <time>2000-01-01T16:23:06.000Z</time>
      </trkpt>
      <trkpt lat="45.27992" lon="5.76948">
        <ele>1315.9</ele>
        <time>2000-01-01T16:23:16.000Z</time>
      </trkpt>
      <trkpt lat="45.27983" lon="5.76954">
        <ele>1314</ele>
        <time>2000-01-01T16:23:26.000Z</time>
      </trkpt>
      <trkpt lat="45.27981" lon="5.76954">
        <ele>1316</ele>
        <time>2000-01-01T16:23:36.000Z</time>
      </trkpt>
      <trkpt lat="45.27977" lon="5.76958">
        <ele>1316.4</ele>
        <time>2000-01-01T16:23:46.000Z</time>
      </trkpt>
      <trkpt lat="45.27967" lon="5.76963">
        <ele>1316.6</ele>
        <time>2000-01-01T16:23:56.000Z</time>
      </trkpt>
      <trkpt lat="45.27959" lon="5.76964">
        <ele>1314</ele>
        <time>2000-01-01T16:24:06.000Z</time>
      </trkpt>
      <trkpt lat="45.27944" lon="5.76963">
        <ele>1315</ele>
        <time>2000-01-01T16:24:16.000Z</time>
      </trkpt>
      <trkpt lat="45.27938" lon="5.76964">
        <ele>1314</ele>
        <time>2000-01-01T16:24:26.000Z</time>
      </trkpt>
      <trkpt lat="45.27929" lon="5.76964">
        <ele>1315.2</ele>
        <time>2000-01-01T16:24:36.000Z</time>
      </trkpt>
      <trkpt lat="45.27926" lon="5.76963">
        <ele>1315</ele>
        <time>2000-01-01T16:24:46.000Z</time>
      </trkpt>
      <trkpt lat="45.2792" lon="5.76958">
        <ele>1314</ele>
        <time>2000-01-01T16:24:56.000Z</time>
      </trkpt>
      <trkpt lat="45.27912" lon="5.76955">
        <ele>1313.5</ele>
        <time>2000-01-01T16:25:06.000Z</time>
      </trkpt>
      <trkpt lat="45.27889" lon="5.76959">
        <ele>1314</ele>
        <time>2000-01-01T16:25:16.000Z</time>
      </trkpt>
      <trkpt lat="45.27881" lon="5.76962">
        <ele>1317</ele>
        <time>2000-01-01T16:25:26.000Z</time>
      </trkpt>
      <trkpt lat="45.27868" lon="5.76958">
        <ele>1316</ele>
        <time>2000-01-01T16:25:36.000Z</time>
      </trkpt>
      <trkpt lat="45.27849" lon="5.7696">
        <ele>1317</ele>
        <time>2000-01-01T16:25:46.000Z</time>
      </trkpt>
      <trkpt lat="45.27834" lon="5.76954">
        <ele>1318</ele>
        <time>2000-01-01T16:25:56.000Z</time>
      </trkpt>
      <trkpt lat="45.27819" lon="5.76954">
        <ele>1317</ele>
        <time>2000-01-01T16:26:06.000Z</time>
      </trkpt>
      <trkpt lat="45.27808" lon="5.76956">
        <ele>1319</ele>
        <time>2000-01-01T16:26:16.000Z</time>
      </trkpt>
      <trkpt lat="45.27807" lon="5.76958">
        <ele>1319.4</ele>
        <time>2000-01-01T16:26:26.000Z</time>
      </trkpt>
      <trkpt lat="45.27797" lon="5.76954">
        <ele>1317</ele>
        <time>2000-01-01T16:26:36.000Z</time>
      </trkpt>
      <trkpt lat="45.27779" lon="5.76952">
        <ele>1316.2</ele>
        <time>2000-01-01T16:26:46.000Z</time>
      </trkpt>
      <trkpt lat="45.27769" lon="5.76956">
        <ele>1311</ele>
        <time>2000-01-01T16:26:56.000Z</time>
      </trkpt>
      <trkpt lat="45.27748" lon="5.76974">
        <ele>1303</ele>
        <time>2000-01-01T16:27:06.000Z</time>
      </trkpt>
      <trkpt lat="45.27742" lon="5.76987">
        <ele>1306.2</ele>
        <time>2000-01-01T16:27:16.000Z</time>
      </trkpt>
      <trkpt lat="45.27737" lon="5.77">
        <ele>1303</ele>
        <time>2000-01-01T16:27:26.000Z</time>
      </trkpt>
      <trkpt lat="45.27736" lon="5.77014">
        <ele>1305.7</ele>
        <time>2000-01-01T16:27:36.000Z</time>
      </trkpt>
      <trkpt lat="45.27739" lon="5.77026">
        <ele>1308.6</ele>
        <time>2000-01-01T16:27:46.000Z</time>
      </trkpt>
      <trkpt lat="45.27738" lon="5.77039">
        <ele>1301</ele>
        <time>2000-01-01T16:27:56.000Z</time>
      </trkpt>
      <trkpt lat="45.27732" lon="5.77048">
        <ele>1308.2</ele>
        <time>2000-01-01T16:28:06.000Z</time>
      </trkpt>
      <trkpt lat="45.27719" lon="5.77062">
        <ele>1299</ele>
        <time>2000-01-01T16:28:16.000Z</time>
      </trkpt>
      <trkpt lat="45.27706" lon="5.77082">
        <ele>1298</ele>
        <time>2000-01-01T16:28:26.000Z</time>
      </trkpt>
      <trkpt lat="45.27703" lon="5.77088">
        <ele>1300.5</ele>
        <time>2000-01-01T16:28:36.000Z</time>
      </trkpt>
      <trkpt lat="45.27703" lon="5.7709">
        <ele>1300.7</ele>
        <time>2000-01-01T16:28:46.000Z</time>
      </trkpt>
      <trkpt lat="45.27684" lon="5.77113">
        <ele>1291</ele>
        <time>2000-01-01T16:28:56.000Z</time>
      </trkpt>
      <trkpt lat="45.27676" lon="5.77126">
        <ele>1291.8</ele>
        <time>2000-01-01T16:29:06.000Z</time>
      </trkpt>
      <trkpt lat="45.27666" lon="5.7715">
        <ele>1289</ele>
        <time>2000-01-01T16:29:16.000Z</time>
      </trkpt>
      <trkpt lat="45.2766" lon="5.77159">
        <ele>1288.7</ele>
        <time>2000-01-01T16:29:26.000Z</time>
      </trkpt>
      <trkpt lat="45.27651" lon="5.77185">
        <ele>1289</ele>
        <time>2000-01-01T16:29:36.000Z</time>
      </trkpt>
      <trkpt lat="45.27647" lon="5.77192">
        <ele>1290.5</ele>
        <time>2000-01-01T16:29:46.000Z</time>
      </trkpt>
      <trkpt lat="45.27639" lon="5.77197">
        <ele>1290.6</ele>
        <time>2000-01-01T16:29:56.000Z</time>
      </trkpt>
      <trkpt lat="45.27626" lon="5.77198">
        <ele>1286</ele>
        <time>2000-01-01T16:30:06.000Z</time>
      </trkpt>
      <trkpt lat="45.27622" lon="5.7719">
        <ele>1290.2</ele>
        <time>2000-01-01T16:30:16.000Z</time>
      </trkpt>
      <trkpt lat="45.27619" lon="5.77179">
        <ele>1287.9</ele>
        <time>2000-01-01T16:30:26.000Z</time>
      </trkpt>
      <trkpt lat="45.27599" lon="5.77153">
        <ele>1284</ele>
        <time>2000-01-01T16:30:36.000Z</time>
      </trkpt>
      <trkpt lat="45.27589" lon="5.77145">
        <ele>1283.5</ele>
        <time>2000-01-01T16:30:46.000Z</time>
      </trkpt>
      <trkpt lat="45.27578" lon="5.77133">
        <ele>1282</ele>
        <time>2000-01-01T16:30:56.000Z</time>
      </trkpt>
      <trkpt lat="45.27569" lon="5.77125">
        <ele>1280.6</ele>
        <time>2000-01-01T16:31:06.000Z</time>
      </trkpt>
      <trkpt lat="45.27566" lon="5.77118">
        <ele>1278.7</ele>
        <time>2000-01-01T16:31:16.000Z</time>
      </trkpt>
      <trkpt lat="45.27564" lon="5.77117">
        <ele>1278.7</ele>
        <time>2000-01-01T16:31:26.000Z</time>
      </trkpt>
      <trkpt lat="45.27557" lon="5.7711">
        <ele>1278</ele>
        <time>2000-01-01T16:31:36.000Z</time>
      </trkpt>
      <trkpt lat="45.27556" lon="5.77108">
        <ele>1277</ele>
        <time>2000-01-01T16:31:46.000Z</time>
      </trkpt>
      <trkpt lat="45.27547" lon="5.77099">
        <ele>1275.4</ele>
        <time>2000-01-01T16:31:56.000Z</time>
      </trkpt>
      <trkpt lat="45.27538" lon="5.77088">
        <ele>1275</ele>
        <time>2000-01-01T16:32:06.000Z</time>
      </trkpt>
      <trkpt lat="45.27529" lon="5.77092">
        <ele>1275.4</ele>
        <time>2000-01-01T16:32:16.000Z</time>
      </trkpt>
      <trkpt lat="45.27524" lon="5.77092">
        <ele>1275.4</ele>
        <time>2000-01-01T16:32:26.000Z</time>
      </trkpt>
      <trkpt lat="45.27512" lon="5.77085">
        <ele>1272</ele>
        <time>2000-01-01T16:32:36.000Z</time>
      </trkpt>
      <trkpt lat="45.2751" lon="5.77083">
        <ele>1272.3</ele>
        <time>2000-01-01T16:32:46.000Z</time>
      </trkpt>
      <trkpt lat="45.275" lon="5.77079">
        <ele>1270.8</ele>
        <time>2000-01-01T16:32:56.000Z</time>
      </trkpt>
      <trkpt lat="45.27497" lon="5.77074">
        <ele>1269</ele>
        <time>2000-01-01T16:33:06.000Z</time>
      </trkpt>
      <trkpt lat="45.27492" lon="5.77071">
        <ele>1267</ele>
        <time>2000-01-01T16:33:16.000Z</time>
      </trkpt>
      <trkpt lat="45.2749" lon="5.77066">
        <ele>1265.8</ele>
        <time>2000-01-01T16:33:26.000Z</time>
      </trkpt>
      <trkpt lat="45.27485" lon="5.77063">
        <ele>1264.3</ele>
        <time>2000-01-01T16:33:36.000Z</time>
      </trkpt>
      <trkpt lat="45.27481" lon="5.77057">
        <ele>1261.8</ele>
        <time>2000-01-01T16:33:46.000Z</time>
      </trkpt>
      <trkpt lat="45.27473" lon="5.77051">
        <ele>1257</ele>
        <time>2000-01-01T16:33:56.000Z</time>
      </trkpt>
      <trkpt lat="45.27461" lon="5.77039">
        <ele>1253</ele>
        <time>2000-01-01T16:34:06.000Z</time>
      </trkpt>
      <trkpt lat="45.27454" lon="5.77033">
        <ele>1247</ele>
        <time>2000-01-01T16:34:16.000Z</time>
      </trkpt>
      <trkpt lat="45.27447" lon="5.77029">
        <ele>1246.9</ele>
        <time>2000-01-01T16:34:26.000Z</time>
      </trkpt>
      <trkpt lat="45.27438" lon="5.77032">
        <ele>1246.2</ele>
        <time>2000-01-01T16:34:36.000Z</time>
      </trkpt>
      <trkpt lat="45.27433" lon="5.7703">
        <ele>1243</ele>
        <time>2000-01-01T16:34:46.000Z</time>
      </trkpt>
      <trkpt lat="45.2743" lon="5.77026">
        <ele>1243</ele>
        <time>2000-01-01T16:34:56.000Z</time>
      </trkpt>
      <trkpt lat="45.27402" lon="5.77014">
        <ele>1234</ele>
        <time>2000-01-01T16:35:06.000Z</time>
      </trkpt>
      <trkpt lat="45.27395" lon="5.77014">
        <ele>1233.3</ele>
        <time>2000-01-01T16:35:16.000Z</time>
      </trkpt>
      <trkpt lat="45.27379" lon="5.77012">
        <ele>1226</ele>
        <time>2000-01-01T16:35:26.000Z</time>
      </trkpt>
      <trkpt lat="45.27371" lon="5.77013">
        <ele>1227.7</ele>
        <time>2000-01-01T16:35:36.000Z</time>
      </trkpt>
      <trkpt lat="45.27366" lon="5.77011">
        <ele>1226.3</ele>
        <time>2000-01-01T16:35:46.000Z</time>
      </trkpt>
      <trkpt lat="45.27361" lon="5.77013">
        <ele>1225.4</ele>
        <time>2000-01-01T16:35:56.000Z</time>
      </trkpt>
      <trkpt lat="45.27355" lon="5.77017">
        <ele>1222</ele>
        <time>2000-01-01T16:36:06.000Z</time>
      </trkpt>
      <trkpt lat="45.27348" lon="5.7702">
        <ele>1222</ele>
        <time>2000-01-01T16:36:16.000Z</time>
      </trkpt>
      <trkpt lat="45.27342" lon="5.77025">
        <ele>1220.6</ele>
        <time>2000-01-01T16:36:26.000Z</time>
      </trkpt>
      <trkpt lat="45.27336" lon="5.7702">
        <ele>1215</ele>
        <time>2000-01-01T16:36:36.000Z</time>
      </trkpt>
      <trkpt lat="45.27328" lon="5.77019">
        <ele>1215.3</ele>
        <time>2000-01-01T16:36:46.000Z</time>
      </trkpt>
      <trkpt lat="45.27321" lon="5.77022">
        <ele>1212.8</ele>
        <time>2000-01-01T16:36:56.000Z</time>
      </trkpt>
      <trkpt lat="45.27314" lon="5.77026">
        <ele>1207</ele>
        <time>2000-01-01T16:37:06.000Z</time>
      </trkpt>
      <trkpt lat="45.27295" lon="5.77023">
        <ele>1200</ele>
        <time>2000-01-01T16:37:16.000Z</time>
      </trkpt>
      <trkpt lat="45.27284" lon="5.77027">
        <ele>1197.7</ele>
        <time>2000-01-01T16:37:26.000Z</time>
      </trkpt>
      <trkpt lat="45.27275" lon="5.77028">
        <ele>1191</ele>
        <time>2000-01-01T16:37:36.000Z</time>
      </trkpt>
      <trkpt lat="45.27271" lon="5.77027">
        <ele>1192</ele>
        <time>2000-01-01T16:37:46.000Z</time>
      </trkpt>
      <trkpt lat="45.2727" lon="5.77029">
        <ele>1191.9</ele>
        <time>2000-01-01T16:37:56.000Z</time>
      </trkpt>
      <trkpt lat="45.27263" lon="5.7703">
        <ele>1189.1</ele>
        <time>2000-01-01T16:38:06.000Z</time>
      </trkpt>
      <trkpt lat="45.27252" lon="5.77027">
        <ele>1181</ele>
        <time>2000-01-01T16:38:16.000Z</time>
      </trkpt>
      <trkpt lat="45.27241" lon="5.7703">
        <ele>1179.6</ele>
        <time>2000-01-01T16:38:26.000Z</time>
      </trkpt>
      <trkpt lat="45.27215" lon="5.7707">
        <ele>1180</ele>
        <time>2000-01-01T16:38:36.000Z</time>
      </trkpt>
      <trkpt lat="45.2721" lon="5.77075">
        <ele>1182.3</ele>
        <time>2000-01-01T16:38:46.000Z</time>
      </trkpt>
      <trkpt lat="45.2719" lon="5.77077">
        <ele>1174</ele>
        <time>2000-01-01T16:38:56.000Z</time>
      </trkpt>
      <trkpt lat="45.27181" lon="5.77081">
        <ele>1176.3</ele>
        <time>2000-01-01T16:39:06.000Z</time>
      </trkpt>
      <trkpt lat="45.27173" lon="5.77081">
        <ele>1174</ele>
        <time>2000-01-01T16:39:16.000Z</time>
      </trkpt>
      <trkpt lat="45.27162" lon="5.77078">
        <ele>1167</ele>
        <time>2000-01-01T16:39:26.000Z</time>
      </trkpt>
      <trkpt lat="45.27154" lon="5.77079">
        <ele>1168</ele>
        <time>2000-01-01T16:39:36.000Z</time>
      </trkpt>
      <trkpt lat="45.27152" lon="5.7708">
        <ele>1167.8</ele>
        <time>2000-01-01T16:39:46.000Z</time>
      </trkpt>
      <trkpt lat="45.27149" lon="5.77087">
        <ele>1168.9</ele>
        <time>2000-01-01T16:39:56.000Z</time>
      </trkpt>
      <trkpt lat="45.27148" lon="5.77088">
        <ele>1168.9</ele>
        <time>2000-01-01T16:40:06.000Z</time>
      </trkpt>
      <trkpt lat="45.27146" lon="5.77095">
        <ele>1167</ele>
        <time>2000-01-01T16:40:16.000Z</time>
      </trkpt>
      <trkpt lat="45.27138" lon="5.77104">
        <ele>1169.9</ele>
        <time>2000-01-01T16:40:26.000Z</time>
      </trkpt>
      <trkpt lat="45.27132" lon="5.77123">
        <ele>1169</ele>
        <time>2000-01-01T16:40:36.000Z</time>
      </trkpt>
      <trkpt lat="45.27128" lon="5.77142">
        <ele>1175.1</ele>
        <time>2000-01-01T16:40:46.000Z</time>
      </trkpt>
      <trkpt lat="45.27125" lon="5.77149">
        <ele>1171</ele>
        <time>2000-01-01T16:40:56.000Z</time>
      </trkpt>
      <trkpt lat="45.27123" lon="5.77151">
        <ele>1175.4</ele>
        <time>2000-01-01T16:41:06.000Z</time>
      </trkpt>
      <trkpt lat="45.27122" lon="5.77157">
        <ele>1176.7</ele>
        <time>2000-01-01T16:41:16.000Z</time>
      </trkpt>
      <trkpt lat="45.27118" lon="5.77162">
        <ele>1176.4</ele>
        <time>2000-01-01T16:41:26.000Z</time>
      </trkpt>
      <trkpt lat="45.27118" lon="5.77166">
        <ele>1177.5</ele>
        <time>2000-01-01T16:41:36.000Z</time>
      </trkpt>
      <trkpt lat="45.27115" lon="5.77172">
        <ele>1176</ele>
        <time>2000-01-01T16:41:46.000Z</time>
      </trkpt>
      <trkpt lat="45.27112" lon="5.77181">
        <ele>1180.5</ele>
        <time>2000-01-01T16:41:56.000Z</time>
      </trkpt>
      <trkpt lat="45.2711" lon="5.77191">
        <ele>1183.4</ele>
        <time>2000-01-01T16:42:06.000Z</time>
      </trkpt>
      <trkpt lat="45.27103" lon="5.77199">
        <ele>1179</ele>
        <time>2000-01-01T16:42:16.000Z</time>
      </trkpt>
      <trkpt lat="45.27101" lon="5.77203">
        <ele>1185.2</ele>
        <time>2000-01-01T16:42:26.000Z</time>
      </trkpt>
      <trkpt lat="45.27098" lon="5.77205">
        <ele>1185.1</ele>
        <time>2000-01-01T16:42:36.000Z</time>
      </trkpt>
      <trkpt lat="45.27098" lon="5.77209">
        <ele>1186.8</ele>
        <time>2000-01-01T16:42:46.000Z</time>
      </trkpt>
      <trkpt lat="45.27092" lon="5.77218">
        <ele>1188.7</ele>
        <time>2000-01-01T16:42:56.000Z</time>
      </trkpt>
      <trkpt lat="45.27088" lon="5.77221">
        <ele>1187</ele>
        <time>2000-01-01T16:43:06.000Z</time>
      </trkpt>
      <trkpt lat="45.27077" lon="5.7724">
        <ele>1194.4</ele>
        <time>2000-01-01T16:43:16.000Z</time>
      </trkpt>
      <trkpt lat="45.27074" lon="5.7725">
        <ele>1197</ele>
        <time>2000-01-01T16:43:26.000Z</time>
      </trkpt>
      <trkpt lat="45.2707" lon="5.77259">
        <ele>1200.5</ele>
        <time>2000-01-01T16:43:36.000Z</time>
      </trkpt>
      <trkpt lat="45.27068" lon="5.7726">
        <ele>1200.4</ele>
        <time>2000-01-01T16:43:46.000Z</time>
      </trkpt>
      <trkpt lat="45.27061" lon="5.77274">
        <ele>1202</ele>
        <time>2000-01-01T16:43:56.000Z</time>
      </trkpt>
      <trkpt lat="45.2706" lon="5.77277">
        <ele>1204.8</ele>
        <time>2000-01-01T16:44:06.000Z</time>
      </trkpt>
      <trkpt lat="45.27055" lon="5.77284">
        <ele>1205.9</ele>
        <time>2000-01-01T16:44:16.000Z</time>
      </trkpt>
      <trkpt lat="45.27054" lon="5.77289">
        <ele>1207.3</ele>
        <time>2000-01-01T16:44:26.000Z</time>
      </trkpt>
      <trkpt lat="45.27054" lon="5.77292">
        <ele>1208.2</ele>
        <time>2000-01-01T16:44:36.000Z</time>
      </trkpt>
      <trkpt lat="45.27049" lon="5.77296">
        <ele>1201</ele>
        <time>2000-01-01T16:44:46.000Z</time>
      </trkpt>
      <trkpt lat="45.27038" lon="5.77298">
        <ele>1206.3</ele>
        <time>2000-01-01T16:44:56.000Z</time>
      </trkpt>
      <trkpt lat="45.27033" lon="5.77298">
        <ele>1205.1</ele>
        <time>2000-01-01T16:45:06.000Z</time>
      </trkpt>
      <trkpt lat="45.27027" lon="5.77297">
        <ele>1200</ele>
        <time>2000-01-01T16:45:16.000Z</time>
      </trkpt>
      <trkpt lat="45.27021" lon="5.77303">
        <ele>1202.9</ele>
        <time>2000-01-01T16:45:26.000Z</time>
      </trkpt>
      <trkpt lat="45.27014" lon="5.77313">
        <ele>1202.5</ele>
        <time>2000-01-01T16:45:36.000Z</time>
      </trkpt>
      <trkpt lat="45.27012" lon="5.77314">
        <ele>1199</ele>
        <time>2000-01-01T16:45:46.000Z</time>
      </trkpt>
      <trkpt lat="45.27012" lon="5.77317">
        <ele>1202.6</ele>
        <time>2000-01-01T16:45:56.000Z</time>
      </trkpt>
      <trkpt lat="45.27007" lon="5.77324">
        <ele>1202</ele>
        <time>2000-01-01T16:46:06.000Z</time>
      </trkpt>
      <trkpt lat="45.27005" lon="5.77331">
        <ele>1202.5</ele>
        <time>2000-01-01T16:46:16.000Z</time>
      </trkpt>
      <trkpt lat="45.27003" lon="5.77331">
        <ele>1201.8</ele>
        <time>2000-01-01T16:46:26.000Z</time>
      </trkpt>
      <trkpt lat="45.26997" lon="5.77343">
        <ele>1200</ele>
        <time>2000-01-01T16:46:36.000Z</time>
      </trkpt>
      <trkpt lat="45.26993" lon="5.77376">
        <ele>1199</ele>
        <time>2000-01-01T16:46:46.000Z</time>
      </trkpt>
      <trkpt lat="45.26988" lon="5.77389">
        <ele>1203.4</ele>
        <time>2000-01-01T16:46:56.000Z</time>
      </trkpt>
      <trkpt lat="45.26987" lon="5.77397">
        <ele>1203.5</ele>
        <time>2000-01-01T16:47:06.000Z</time>
      </trkpt>
      <trkpt lat="45.26985" lon="5.77402">
        <ele>1199</ele>
        <time>2000-01-01T16:47:16.000Z</time>
      </trkpt>
      <trkpt lat="45.26986" lon="5.77415">
        <ele>1204.3</ele>
        <time>2000-01-01T16:47:26.000Z</time>
      </trkpt>
      <trkpt lat="45.26982" lon="5.77438">
        <ele>1201</ele>
        <time>2000-01-01T16:47:36.000Z</time>
      </trkpt>
      <trkpt lat="45.26983" lon="5.77449">
        <ele>1204.3</ele>
        <time>2000-01-01T16:47:46.000Z</time>
      </trkpt>
      <trkpt lat="45.26986" lon="5.77463">
        <ele>1206.4</ele>
        <time>2000-01-01T16:47:56.000Z</time>
      </trkpt>
      <trkpt lat="45.26987" lon="5.77475">
        <ele>1203</ele>
        <time>2000-01-01T16:48:06.000Z</time>
      </trkpt>
      <trkpt lat="45.26991" lon="5.77485">
        <ele>1209.9</ele>
        <time>2000-01-01T16:48:16.000Z</time>
      </trkpt>
      <trkpt lat="45.2699" lon="5.775">
        <ele>1210</ele>
        <time>2000-01-01T16:48:26.000Z</time>
      </trkpt>
      <trkpt lat="45.26988" lon="5.77514">
        <ele>1202</ele>
        <time>2000-01-01T16:48:36.000Z</time>
      </trkpt>
      <trkpt lat="45.26985" lon="5.77528">
        <ele>1208.9</ele>
        <time>2000-01-01T16:48:46.000Z</time>
      </trkpt>
      <trkpt lat="45.26979" lon="5.7754">
        <ele>1202</ele>
        <time>2000-01-01T16:48:56.000Z</time>
      </trkpt>
      <trkpt lat="45.26974" lon="5.77555">
        <ele>1203.9</ele>
        <time>2000-01-01T16:49:06.000Z</time>
      </trkpt>
      <trkpt lat="45.26974" lon="5.77559">
        <ele>1204.2</ele>
        <time>2000-01-01T16:49:16.000Z</time>
      </trkpt>
      <trkpt lat="45.26972" lon="5.77568">
        <ele>1202</ele>
        <time>2000-01-01T16:49:26.000Z</time>
      </trkpt>
      <trkpt lat="45.26963" lon="5.77586">
        <ele>1201</ele>
        <time>2000-01-01T16:49:36.000Z</time>
      </trkpt>
      <trkpt lat="45.26956" lon="5.77595">
        <ele>1199</ele>
        <time>2000-01-01T16:49:46.000Z</time>
      </trkpt>
      <trkpt lat="45.26953" lon="5.77601">
        <ele>1198.4</ele>
        <time>2000-01-01T16:49:56.000Z</time>
      </trkpt>
      <trkpt lat="45.26948" lon="5.77628">
        <ele>1199</ele>
        <time>2000-01-01T16:50:06.000Z</time>
      </trkpt>
      <trkpt lat="45.26948" lon="5.7763">
        <ele>1201.5</ele>
        <time>2000-01-01T16:50:16.000Z</time>
      </trkpt>
      <trkpt lat="45.26945" lon="5.7764">
        <ele>1202.5</ele>
        <time>2000-01-01T16:50:26.000Z</time>
      </trkpt>
      <trkpt lat="45.26942" lon="5.77645">
        <ele>1202.7</ele>
        <time>2000-01-01T16:50:36.000Z</time>
      </trkpt>
      <trkpt lat="45.26932" lon="5.77653">
        <ele>1197</ele>
        <time>2000-01-01T16:50:46.000Z</time>
      </trkpt>
      <trkpt lat="45.26926" lon="5.77659">
        <ele>1200.4</ele>
        <time>2000-01-01T16:50:56.000Z</time>
      </trkpt>
      <trkpt lat="45.26915" lon="5.77667">
        <ele>1195</ele>
        <time>2000-01-01T16:51:06.000Z</time>
      </trkpt>
      <trkpt lat="45.269" lon="5.77683">
        <ele>1197.7</ele>
        <time>2000-01-01T16:51:16.000Z</time>
      </trkpt>
      <trkpt lat="45.26896" lon="5.77686">
        <ele>1193</ele>
        <time>2000-01-01T16:51:26.000Z</time>
      </trkpt>
      <trkpt lat="45.26892" lon="5.77687">
        <ele>1196</ele>
        <time>2000-01-01T16:51:36.000Z</time>
      </trkpt>
      <trkpt lat="45.26891" lon="5.77689">
        <ele>1196.2</ele>
        <time>2000-01-01T16:51:46.000Z</time>
      </trkpt>
      <trkpt lat="45.26873" lon="5.77701">
        <ele>1190</ele>
        <time>2000-01-01T16:51:56.000Z</time>
      </trkpt>
      <trkpt lat="45.26867" lon="5.77707">
        <ele>1190.7</ele>
        <time>2000-01-01T16:52:06.000Z</time>
      </trkpt>
      <trkpt lat="45.26862" lon="5.77711">
        <ele>1189.6</ele>
        <time>2000-01-01T16:52:16.000Z</time>
      </trkpt>
      <trkpt lat="45.26849" lon="5.77727">
        <ele>1189</ele>
        <time>2000-01-01T16:52:26.000Z</time>
      </trkpt>
      <trkpt lat="45.26845" lon="5.7773">
        <ele>1186.1</ele>
        <time>2000-01-01T16:52:36.000Z</time>
      </trkpt>
      <trkpt lat="45.26843" lon="5.7774">
        <ele>1187.4</ele>
        <time>2000-01-01T16:52:46.000Z</time>
      </trkpt>
      <trkpt lat="45.26843" lon="5.77747">
        <ele>1188.9</ele>
        <time>2000-01-01T16:52:56.000Z</time>
      </trkpt>
      <trkpt lat="45.26841" lon="5.77756">
        <ele>1189</ele>
        <time>2000-01-01T16:53:06.000Z</time>
      </trkpt>
      <trkpt lat="45.26841" lon="5.7776">
        <ele>1190.4</ele>
        <time>2000-01-01T16:53:16.000Z</time>
      </trkpt>
      <trkpt lat="45.26838" lon="5.77766">
        <ele>1190.1</ele>
        <time>2000-01-01T16:53:26.000Z</time>
      </trkpt>
      <trkpt lat="45.26831" lon="5.77774">
        <ele>1188.1</ele>
        <time>2000-01-01T16:53:36.000Z</time>
      </trkpt>
      <trkpt lat="45.26829" lon="5.77785">
        <ele>1187</ele>
        <time>2000-01-01T16:53:46.000Z</time>
      </trkpt>
      <trkpt lat="45.26822" lon="5.77798">
        <ele>1186.1</ele>
        <time>2000-01-01T16:53:56.000Z</time>
      </trkpt>
      <trkpt lat="45.2682" lon="5.77809">
        <ele>1185</ele>
        <time>2000-01-01T16:54:06.000Z</time>
      </trkpt>
      <trkpt lat="45.26816" lon="5.7782">
        <ele>1184.7</ele>
        <time>2000-01-01T16:54:16.000Z</time>
      </trkpt>
      <trkpt lat="45.26814" lon="5.77831">
        <ele>1184.4</ele>
        <time>2000-01-01T16:54:26.000Z</time>
      </trkpt>
      <trkpt lat="45.26809" lon="5.77842">
        <ele>1175</ele>
        <time>2000-01-01T16:54:36.000Z</time>
      </trkpt>
      <trkpt lat="45.26806" lon="5.77857">
        <ele>1180.2</ele>
        <time>2000-01-01T16:54:46.000Z</time>
      </trkpt>
      <trkpt lat="45.26806" lon="5.77861">
        <ele>1180.2</ele>
        <time>2000-01-01T16:54:56.000Z</time>
      </trkpt>
      <trkpt lat="45.26808" lon="5.77864">
        <ele>1181</ele>
        <time>2000-01-01T16:55:06.000Z</time>
      </trkpt>
      <trkpt lat="45.26809" lon="5.77869">
        <ele>1175</ele>
        <time>2000-01-01T16:55:16.000Z</time>
      </trkpt>
      <trkpt lat="45.26809" lon="5.77877">
        <ele>1180.6</ele>
        <time>2000-01-01T16:55:26.000Z</time>
      </trkpt>
      <trkpt lat="45.2681" lon="5.7788">
        <ele>1180.9</ele>
        <time>2000-01-01T16:55:36.000Z</time>
      </trkpt>
      <trkpt lat="45.2681" lon="5.77919">
        <ele>1173</ele>
        <time>2000-01-01T16:55:46.000Z</time>
      </trkpt>
      <trkpt lat="45.26813" lon="5.77932">
        <ele>1174.4</ele>
        <time>2000-01-01T16:55:56.000Z</time>
      </trkpt>
      <trkpt lat="45.26828" lon="5.77952">
        <ele>1172</ele>
        <time>2000-01-01T16:56:06.000Z</time>
      </trkpt>
      <trkpt lat="45.26836" lon="5.77964">
        <ele>1173.5</ele>
        <time>2000-01-01T16:56:16.000Z</time>
      </trkpt>
      <trkpt lat="45.26843" lon="5.77981">
        <ele>1168</ele>
        <time>2000-01-01T16:56:26.000Z</time>
      </trkpt>
      <trkpt lat="45.26844" lon="5.77996">
        <ele>1162.5</ele>
        <time>2000-01-01T16:56:36.000Z</time>
      </trkpt>
      <trkpt lat="45.26845" lon="5.78001">
        <ele>1160.7</ele>
        <time>2000-01-01T16:56:46.000Z</time>
      </trkpt>
      <trkpt lat="45.26848" lon="5.78002">
        <ele>1160.8</ele>
        <time>2000-01-01T16:56:56.000Z</time>
      </trkpt>
      <trkpt lat="45.26845" lon="5.78006">
        <ele>1161</ele>
        <time>2000-01-01T16:57:06.000Z</time>
      </trkpt>
      <trkpt lat="45.26856" lon="5.78016">
        <ele>1156.7</ele>
        <time>2000-01-01T16:57:16.000Z</time>
      </trkpt>
      <trkpt lat="45.26859" lon="5.7802">
        <ele>1155.7</ele>
        <time>2000-01-01T16:57:26.000Z</time>
      </trkpt>
      <trkpt lat="45.26862" lon="5.7802">
        <ele>1155</ele>
        <time>2000-01-01T16:57:36.000Z</time>
      </trkpt>
      <trkpt lat="45.26866" lon="5.78022">
        <ele>1155.8</ele>
        <time>2000-01-01T16:57:46.000Z</time>
      </trkpt>
      <trkpt lat="45.26869" lon="5.78027">
        <ele>1154.2</ele>
        <time>2000-01-01T16:57:56.000Z</time>
      </trkpt>
      <trkpt lat="45.26879" lon="5.78034">
        <ele>1154</ele>
        <time>2000-01-01T16:58:06.000Z</time>
      </trkpt>
      <trkpt lat="45.26883" lon="5.78041">
        <ele>1151.1</ele>
        <time>2000-01-01T16:58:16.000Z</time>
      </trkpt>
      <trkpt lat="45.26884" lon="5.78045">
        <ele>1149.9</ele>
        <time>2000-01-01T16:58:26.000Z</time>
      </trkpt>
      <trkpt lat="45.26884" lon="5.78049">
        <ele>1148.6</ele>
        <time>2000-01-01T16:58:36.000Z</time>
      </trkpt>
      <trkpt lat="45.26885" lon="5.78055">
        <ele>1146.8</ele>
        <time>2000-01-01T16:58:46.000Z</time>
      </trkpt>
      <trkpt lat="45.2689" lon="5.7807">
        <ele>1142</ele>
        <time>2000-01-01T16:58:56.000Z</time>
      </trkpt>
      <trkpt lat="45.2689" lon="5.78077">
        <ele>1141.7</ele>
        <time>2000-01-01T16:59:06.000Z</time>
      </trkpt>
      <trkpt lat="45.26883" lon="5.78098">
        <ele>1137</ele>
        <time>2000-01-01T16:59:16.000Z</time>
      </trkpt>
      <trkpt lat="45.26879" lon="5.78115">
        <ele>1133.9</ele>
        <time>2000-01-01T16:59:26.000Z</time>
      </trkpt>
      <trkpt lat="45.26873" lon="5.78121">
        <ele>1131</ele>
        <time>2000-01-01T16:59:36.000Z</time>
      </trkpt>
      <trkpt lat="45.26871" lon="5.78124">
        <ele>1131.9</ele>
        <time>2000-01-01T16:59:46.000Z</time>
      </trkpt>
      <trkpt lat="45.2687" lon="5.78135">
        <ele>1130.9</ele>
        <time>2000-01-01T16:59:56.000Z</time>
      </trkpt>
      <trkpt lat="45.26862" lon="5.78141">
        <ele>1128</ele>
        <time>2000-01-01T17:00:06.000Z</time>
      </trkpt>
      <trkpt lat="45.26853" lon="5.78143">
        <ele>1127.2</ele>
        <time>2000-01-01T17:00:16.000Z</time>
      </trkpt>
      <trkpt lat="45.26836" lon="5.78153">
        <ele>1121</ele>
        <time>2000-01-01T17:00:26.000Z</time>
      </trkpt>
      <trkpt lat="45.26818" lon="5.78161">
        <ele>1119</ele>
        <time>2000-01-01T17:00:36.000Z</time>
      </trkpt>
      <trkpt lat="45.26805" lon="5.78168">
        <ele>1114</ele>
        <time>2000-01-01T17:00:46.000Z</time>
      </trkpt>
      <trkpt lat="45.26794" lon="5.78172">
        <ele>1113.5</ele>
        <time>2000-01-01T17:00:56.000Z</time>
      </trkpt>
      <trkpt lat="45.26783" lon="5.78173">
        <ele>1110</ele>
        <time>2000-01-01T17:01:06.000Z</time>
      </trkpt>
      <trkpt lat="45.26771" lon="5.78179">
        <ele>1108.7</ele>
        <time>2000-01-01T17:01:16.000Z</time>
      </trkpt>
      <trkpt lat="45.26764" lon="5.78188">
        <ele>1108</ele>
        <time>2000-01-01T17:01:26.000Z</time>
      </trkpt>
      <trkpt lat="45.26771" lon="5.78202">
        <ele>1108.3</ele>
        <time>2000-01-01T17:01:36.000Z</time>
      </trkpt>
      <trkpt lat="45.26772" lon="5.78205">
        <ele>1108.5</ele>
        <time>2000-01-01T17:01:46.000Z</time>
      </trkpt>
      <trkpt lat="45.26775" lon="5.78216">
        <ele>1110</ele>
        <time>2000-01-01T17:01:56.000Z</time>
      </trkpt>
      <trkpt lat="45.26778" lon="5.78236">
        <ele>1109</ele>
        <time>2000-01-01T17:02:06.000Z</time>
      </trkpt>
      <trkpt lat="45.26801" lon="5.78269">
        <ele>1113</ele>
        <time>2000-01-01T17:02:16.000Z</time>
      </trkpt>
      <trkpt lat="45.26804" lon="5.78275">
        <ele>1114.7</ele>
        <time>2000-01-01T17:02:26.000Z</time>
      </trkpt>
      <trkpt lat="45.26807" lon="5.7829">
        <ele>1115.3</ele>
        <time>2000-01-01T17:02:36.000Z</time>
      </trkpt>
      <trkpt lat="45.26813" lon="5.78303">
        <ele>1116</ele>
        <time>2000-01-01T17:02:46.000Z</time>
      </trkpt>
      <trkpt lat="45.26815" lon="5.7831">
        <ele>1117</ele>
        <time>2000-01-01T17:02:56.000Z</time>
      </trkpt>
      <trkpt lat="45.26829" lon="5.78326">
        <ele>1117</ele>
        <time>2000-01-01T17:03:06.000Z</time>
      </trkpt>
      <trkpt lat="45.26843" lon="5.78351">
        <ele>1121</ele>
        <time>2000-01-01T17:03:16.000Z</time>
      </trkpt>
      <trkpt lat="45.26845" lon="5.78353">
        <ele>1122.1</ele>
        <time>2000-01-01T17:03:26.000Z</time>
      </trkpt>
      <trkpt lat="45.26849" lon="5.78364">
        <ele>1122.8</ele>
        <time>2000-01-01T17:03:36.000Z</time>
      </trkpt>
      <trkpt lat="45.26854" lon="5.7837">
        <ele>1123.7</ele>
        <time>2000-01-01T17:03:46.000Z</time>
      </trkpt>
      <trkpt lat="45.26857" lon="5.7838">
        <ele>1123</ele>
        <time>2000-01-01T17:03:56.000Z</time>
      </trkpt>
      <trkpt lat="45.26871" lon="5.78396">
        <ele>1127.3</ele>
        <time>2000-01-01T17:04:06.000Z</time>
      </trkpt>
      <trkpt lat="45.26877" lon="5.78407">
        <ele>1127</ele>
        <time>2000-01-01T17:04:16.000Z</time>
      </trkpt>
      <trkpt lat="45.26886" lon="5.78419">
        <ele>1130.6</ele>
        <time>2000-01-01T17:04:26.000Z</time>
      </trkpt>
      <trkpt lat="45.26889" lon="5.78422">
        <ele>1131.2</ele>
        <time>2000-01-01T17:04:36.000Z</time>
      </trkpt>
      <trkpt lat="45.26895" lon="5.78432">
        <ele>1131</ele>
        <time>2000-01-01T17:04:46.000Z</time>
      </trkpt>
      <trkpt lat="45.26906" lon="5.78447">
        <ele>1134.6</ele>
        <time>2000-01-01T17:04:56.000Z</time>
      </trkpt>
      <trkpt lat="45.26921" lon="5.78475">
        <ele>1136</ele>
        <time>2000-01-01T17:05:06.000Z</time>
      </trkpt>
      <trkpt lat="45.26934" lon="5.78506">
        <ele>1139</ele>
        <time>2000-01-01T17:05:16.000Z</time>
      </trkpt>
      <trkpt lat="45.2694" lon="5.78517">
        <ele>1140.2</ele>
        <time>2000-01-01T17:05:26.000Z</time>
      </trkpt>
      <trkpt lat="45.26952" lon="5.78533">
        <ele>1141</ele>
        <time>2000-01-01T17:05:36.000Z</time>
      </trkpt>
      <trkpt lat="45.26952" lon="5.78535">
        <ele>1142.6</ele>
        <time>2000-01-01T17:05:46.000Z</time>
      </trkpt>
      <trkpt lat="45.26968" lon="5.78542">
        <ele>1145.1</ele>
        <time>2000-01-01T17:05:56.000Z</time>
      </trkpt>
      <trkpt lat="45.2697" lon="5.78544">
        <ele>1144</ele>
        <time>2000-01-01T17:06:06.000Z</time>
      </trkpt>
      <trkpt lat="45.26971" lon="5.78548">
        <ele>1146.1</ele>
        <time>2000-01-01T17:06:16.000Z</time>
      </trkpt>
      <trkpt lat="45.26978" lon="5.78555">
        <ele>1147.8</ele>
        <time>2000-01-01T17:06:26.000Z</time>
      </trkpt>
      <trkpt lat="45.26978" lon="5.78557">
        <ele>1148.1</ele>
        <time>2000-01-01T17:06:36.000Z</time>
      </trkpt>
      <trkpt lat="45.2698" lon="5.78565">
        <ele>1150.1</ele>
        <time>2000-01-01T17:06:46.000Z</time>
      </trkpt>
      <trkpt lat="45.2698" lon="5.78573">
        <ele>1150</ele>
        <time>2000-01-01T17:06:56.000Z</time>
      </trkpt>
      <trkpt lat="45.26977" lon="5.78586">
        <ele>1154.4</ele>
        <time>2000-01-01T17:07:06.000Z</time>
      </trkpt>
      <trkpt lat="45.26976" lon="5.78587">
        <ele>1154.6</ele>
        <time>2000-01-01T17:07:16.000Z</time>
      </trkpt>
      <trkpt lat="45.26965" lon="5.78589">
        <ele>1150</ele>
        <time>2000-01-01T17:07:26.000Z</time>
      </trkpt>
      <trkpt lat="45.2696" lon="5.78587">
        <ele>1152.9</ele>
        <time>2000-01-01T17:07:36.000Z</time>
      </trkpt>
      <trkpt lat="45.26952" lon="5.78591">
        <ele>1153.5</ele>
        <time>2000-01-01T17:07:46.000Z</time>
      </trkpt>
      <trkpt lat="45.26947" lon="5.78597">
        <ele>1152</ele>
        <time>2000-01-01T17:07:56.000Z</time>
      </trkpt>
      <trkpt lat="45.26935" lon="5.786">
        <ele>1155.3</ele>
        <time>2000-01-01T17:08:06.000Z</time>
      </trkpt>
      <trkpt lat="45.26914" lon="5.78612">
        <ele>1156</ele>
        <time>2000-01-01T17:08:16.000Z</time>
      </trkpt>
      <trkpt lat="45.26908" lon="5.78612">
        <ele>1157.7</ele>
        <time>2000-01-01T17:08:26.000Z</time>
      </trkpt>
      <trkpt lat="45.26897" lon="5.78623">
        <ele>1159</ele>
        <time>2000-01-01T17:08:36.000Z</time>
      </trkpt>
      <trkpt lat="45.26892" lon="5.78631">
        <ele>1163.4</ele>
        <time>2000-01-01T17:08:46.000Z</time>
      </trkpt>
      <trkpt lat="45.26888" lon="5.78635">
        <ele>1164.6</ele>
        <time>2000-01-01T17:08:56.000Z</time>
      </trkpt>
      <trkpt lat="45.26873" lon="5.78638">
        <ele>1161</ele>
        <time>2000-01-01T17:09:06.000Z</time>
      </trkpt>
      <trkpt lat="45.26869" lon="5.78635">
        <ele>1163.9</ele>
        <time>2000-01-01T17:09:16.000Z</time>
      </trkpt>
      <trkpt lat="45.26867" lon="5.78638">
        <ele>1164.9</ele>
        <time>2000-01-01T17:09:26.000Z</time>
      </trkpt>
      <trkpt lat="45.2686" lon="5.78641">
        <ele>1165.6</ele>
        <time>2000-01-01T17:09:36.000Z</time>
      </trkpt>
      <trkpt lat="45.26855" lon="5.7865">
        <ele>1168</ele>
        <time>2000-01-01T17:09:46.000Z</time>
      </trkpt>
      <trkpt lat="45.2685" lon="5.78653">
        <ele>1169.2</ele>
        <time>2000-01-01T17:09:56.000Z</time>
      </trkpt>
      <trkpt lat="45.26845" lon="5.78658">
        <ele>1170.6</ele>
        <time>2000-01-01T17:10:06.000Z</time>
      </trkpt>
      <trkpt lat="45.26835" lon="5.78666">
        <ele>1170</ele>
        <time>2000-01-01T17:10:16.000Z</time>
      </trkpt>
      <trkpt lat="45.26828" lon="5.78666">
        <ele>1172.6</ele>
        <time>2000-01-01T17:10:26.000Z</time>
      </trkpt>
      <trkpt lat="45.26828" lon="5.78672">
        <ele>1174.2</ele>
        <time>2000-01-01T17:10:36.000Z</time>
      </trkpt>
      <trkpt lat="45.26821" lon="5.78678">
        <ele>1170</ele>
        <time>2000-01-01T17:10:46.000Z</time>
      </trkpt>
      <trkpt lat="45.26813" lon="5.78688">
        <ele>1177.6</ele>
        <time>2000-01-01T17:10:56.000Z</time>
      </trkpt>
      <trkpt lat="45.26811" lon="5.78692">
        <ele>1178.6</ele>
        <time>2000-01-01T17:11:06.000Z</time>
      </trkpt>
      <trkpt lat="45.26807" lon="5.78695">
        <ele>1179.2</ele>
        <time>2000-01-01T17:11:16.000Z</time>
      </trkpt>
      <trkpt lat="45.26775" lon="5.7867">
        <ele>1168</ele>
        <time>2000-01-01T17:11:26.000Z</time>
      </trkpt>
      <trkpt lat="45.26757" lon="5.78657">
        <ele>1167</ele>
        <time>2000-01-01T17:11:36.000Z</time>
      </trkpt>
      <trkpt lat="45.26726" lon="5.78644">
        <ele>1163</ele>
        <time>2000-01-01T17:11:46.000Z</time>
      </trkpt>
      <trkpt lat="45.2671" lon="5.78632">
        <ele>1160.9</ele>
        <time>2000-01-01T17:11:56.000Z</time>
      </trkpt>
      <trkpt lat="45.26694" lon="5.78611">
        <ele>1154</ele>
        <time>2000-01-01T17:12:06.000Z</time>
      </trkpt>
      <trkpt lat="45.26666" lon="5.78588">
        <ele>1144</ele>
        <time>2000-01-01T17:12:16.000Z</time>
      </trkpt>
      <trkpt lat="45.26658" lon="5.78576">
        <ele>1143.8</ele>
        <time>2000-01-01T17:12:26.000Z</time>
      </trkpt>
      <trkpt lat="45.26639" lon="5.78557">
        <ele>1137</ele>
        <time>2000-01-01T17:12:36.000Z</time>
      </trkpt>
      <trkpt lat="45.26617" lon="5.78545">
        <ele>1136</ele>
        <time>2000-01-01T17:12:46.000Z</time>
      </trkpt>
      <trkpt lat="45.26613" lon="5.78532">
        <ele>1134.7</ele>
        <time>2000-01-01T17:12:56.000Z</time>
      </trkpt>
      <trkpt lat="45.26594" lon="5.785">
        <ele>1129</ele>
        <time>2000-01-01T17:13:06.000Z</time>
      </trkpt>
      <trkpt lat="45.26555" lon="5.78485">
        <ele>1126</ele>
        <time>2000-01-01T17:13:16.000Z</time>
      </trkpt>
      <trkpt lat="45.26536" lon="5.7847">
        <ele>1124</ele>
        <time>2000-01-01T17:13:26.000Z</time>
      </trkpt>
      <trkpt lat="45.26523" lon="5.78456">
        <ele>1121.8</ele>
        <time>2000-01-01T17:13:36.000Z</time>
      </trkpt>
      <trkpt lat="45.26514" lon="5.78437">
        <ele>1116</ele>
        <time>2000-01-01T17:13:46.000Z</time>
      </trkpt>
      <trkpt lat="45.26498" lon="5.78419">
        <ele>1113</ele>
        <time>2000-01-01T17:13:56.000Z</time>
      </trkpt>
      <trkpt lat="45.26488" lon="5.78398">
        <ele>1110.7</ele>
        <time>2000-01-01T17:14:06.000Z</time>
      </trkpt>
      <trkpt lat="45.2646" lon="5.78353">
        <ele>1102</ele>
        <time>2000-01-01T17:14:16.000Z</time>
      </trkpt>
      <trkpt lat="45.26437" lon="5.78337">
        <ele>1099</ele>
        <time>2000-01-01T17:14:26.000Z</time>
      </trkpt>
      <trkpt lat="45.26409" lon="5.78318">
        <ele>1096</ele>
        <time>2000-01-01T17:14:36.000Z</time>
      </trkpt>
      <trkpt lat="45.26403" lon="5.7831">
        <ele>1096.1</ele>
        <time>2000-01-01T17:14:46.000Z</time>
      </trkpt>
      <trkpt lat="45.26385" lon="5.783">
        <ele>1093</ele>
        <time>2000-01-01T17:14:56.000Z</time>
      </trkpt>
      <trkpt lat="45.26361" lon="5.78276">
        <ele>1090</ele>
        <time>2000-01-01T17:15:06.000Z</time>
      </trkpt>
      <trkpt lat="45.26344" lon="5.78269">
        <ele>1088.6</ele>
        <time>2000-01-01T17:15:16.000Z</time>
      </trkpt>
      <trkpt lat="45.26325" lon="5.78255">
        <ele>1084</ele>
        <time>2000-01-01T17:15:26.000Z</time>
      </trkpt>
      <trkpt lat="45.26303" lon="5.78244">
        <ele>1080</ele>
        <time>2000-01-01T17:15:36.000Z</time>
      </trkpt>
      <trkpt lat="45.26265" lon="5.78212">
        <ele>1073</ele>
        <time>2000-01-01T17:15:46.000Z</time>
      </trkpt>
      <trkpt lat="45.26245" lon="5.78209">
        <ele>1069</ele>
        <time>2000-01-01T17:15:56.000Z</time>
      </trkpt>
      <trkpt lat="45.26236" lon="5.78201">
        <ele>1069.2</ele>
        <time>2000-01-01T17:16:06.000Z</time>
      </trkpt>
      <trkpt lat="45.26218" lon="5.78195">
        <ele>1064</ele>
        <time>2000-01-01T17:16:16.000Z</time>
      </trkpt>
      <trkpt lat="45.26197" lon="5.78174">
        <ele>1061</ele>
        <time>2000-01-01T17:16:26.000Z</time>
      </trkpt>
      <trkpt lat="45.26172" lon="5.7815">
        <ele>1058</ele>
        <time>2000-01-01T17:16:36.000Z</time>
      </trkpt>
      <trkpt lat="45.26163" lon="5.78143">
        <ele>1057.5</ele>
        <time>2000-01-01T17:16:46.000Z</time>
      </trkpt>
      <trkpt lat="45.26154" lon="5.7814">
        <ele>1055</ele>
        <time>2000-01-01T17:16:56.000Z</time>
      </trkpt>
      <trkpt lat="45.26145" lon="5.78132">
        <ele>1054.6</ele>
        <time>2000-01-01T17:17:06.000Z</time>
      </trkpt>
      <trkpt lat="45.26103" lon="5.78057">
        <ele>1044</ele>
        <time>2000-01-01T17:17:16.000Z</time>
      </trkpt>
      <trkpt lat="45.26094" lon="5.78035">
        <ele>1042.3</ele>
        <time>2000-01-01T17:17:26.000Z</time>
      </trkpt>
      <trkpt lat="45.26088" lon="5.78032">
        <ele>1039</ele>
        <time>2000-01-01T17:17:36.000Z</time>
      </trkpt>
      <trkpt lat="45.26087" lon="5.78038">
        <ele>1041.6</ele>
        <time>2000-01-01T17:17:46.000Z</time>
      </trkpt>
      <trkpt lat="45.26089" lon="5.78043">
        <ele>1042.5</ele>
        <time>2000-01-01T17:17:56.000Z</time>
      </trkpt>
      <trkpt lat="45.2609" lon="5.78025">
        <ele>1038</ele>
        <time>2000-01-01T17:18:06.000Z</time>
      </trkpt>
      <trkpt lat="45.26074" lon="5.78012">
        <ele>1037</ele>
        <time>2000-01-01T17:18:16.000Z</time>
      </trkpt>
      <trkpt lat="45.26056" lon="5.78004">
        <ele>1032</ele>
        <time>2000-01-01T17:18:26.000Z</time>
      </trkpt>
      <trkpt lat="45.26042" lon="5.77987">
        <ele>1030.6</ele>
        <time>2000-01-01T17:18:36.000Z</time>
      </trkpt>
      <trkpt lat="45.26017" lon="5.77964">
        <ele>1025</ele>
        <time>2000-01-01T17:18:46.000Z</time>
      </trkpt>
      <trkpt lat="45.25994" lon="5.77933">
        <ele>1021</ele>
        <time>2000-01-01T17:18:56.000Z</time>
      </trkpt>
      <trkpt lat="45.25972" lon="5.77888">
        <ele>1012</ele>
        <time>2000-01-01T17:19:06.000Z</time>
      </trkpt>
      <trkpt lat="45.25944" lon="5.77848">
        <ele>1005</ele>
        <time>2000-01-01T17:19:16.000Z</time>
      </trkpt>
      <trkpt lat="45.25932" lon="5.77846">
        <ele>1005.5</ele>
        <time>2000-01-01T17:19:26.000Z</time>
      </trkpt>
      <trkpt lat="45.25934" lon="5.77834">
        <ele>1004</ele>
        <time>2000-01-01T17:19:36.000Z</time>
      </trkpt>
      <trkpt lat="45.25962" lon="5.77811">
        <ele>1003</ele>
        <time>2000-01-01T17:19:46.000Z</time>
      </trkpt>
      <trkpt lat="45.25982" lon="5.77806">
        <ele>1003</ele>
        <time>2000-01-01T17:19:56.000Z</time>
      </trkpt>
      <trkpt lat="45.2599" lon="5.77782">
        <ele>1003.6</ele>
        <time>2000-01-01T17:20:06.000Z</time>
      </trkpt>
      <trkpt lat="45.2599" lon="5.77758">
        <ele>1001</ele>
        <time>2000-01-01T17:20:16.000Z</time>
      </trkpt>
      <trkpt lat="45.25984" lon="5.7773">
        <ele>1001</ele>
        <time>2000-01-01T17:20:26.000Z</time>
      </trkpt>
      <trkpt lat="45.25987" lon="5.77688">
        <ele>1001</ele>
        <time>2000-01-01T17:20:36.000Z</time>
      </trkpt>
      <trkpt lat="45.2599" lon="5.77654">
        <ele>1002</ele>
        <time>2000-01-01T17:20:46.000Z</time>
      </trkpt>
      <trkpt lat="45.25993" lon="5.77619">
        <ele>1003</ele>
        <time>2000-01-01T17:20:56.000Z</time>
      </trkpt>
      <trkpt lat="45.25989" lon="5.77606">
        <ele>1003.2</ele>
        <time>2000-01-01T17:21:06.000Z</time>
      </trkpt>
      <trkpt lat="45.26004" lon="5.77576">
        <ele>1002</ele>
        <time>2000-01-01T17:21:16.000Z</time>
      </trkpt>
      <trkpt lat="45.26" lon="5.77567">
        <ele>1004</ele>
        <time>2000-01-01T17:21:26.000Z</time>
      </trkpt>
      <trkpt lat="45.2599" lon="5.77562">
        <ele>1003.3</ele>
        <time>2000-01-01T17:21:36.000Z</time>
      </trkpt>
      <trkpt lat="45.25977" lon="5.77563">
        <ele>1002</ele>
        <time>2000-01-01T17:21:46.000Z</time>
      </trkpt>
      <trkpt lat="45.25965" lon="5.77608">
        <ele>1001</ele>
        <time>2000-01-01T17:21:56.000Z</time>
      </trkpt>
      <trkpt lat="45.25968" lon="5.77644">
        <ele>1001</ele>
        <time>2000-01-01T17:22:06.000Z</time>
      </trkpt>
      <trkpt lat="45.25972" lon="5.77685">
        <ele>1001</ele>
        <time>2000-01-01T17:22:16.000Z</time>
      </trkpt>
      <trkpt lat="45.25976" lon="5.77722">
        <ele>1000</ele>
        <time>2000-01-01T17:22:26.000Z</time>
      </trkpt>
      <trkpt lat="45.25958" lon="5.77769">
        <ele>1000</ele>
        <time>2000-01-01T17:22:36.000Z</time>
      </trkpt>
      <trkpt lat="45.25934" lon="5.77792">
        <ele>1001</ele>
        <time>2000-01-01T17:22:46.000Z</time>
      </trkpt>
      <trkpt lat="45.25908" lon="5.77822">
        <ele>1002</ele>
        <time>2000-01-01T17:22:56.000Z</time>
      </trkpt>
      <trkpt lat="45.25913" lon="5.7785">
        <ele>1001</ele>
        <time>2000-01-01T17:23:06.000Z</time>
      </trkpt>
      <trkpt lat="45.25888" lon="5.77871">
        <ele>1001</ele>
        <time>2000-01-01T17:23:16.000Z</time>
      </trkpt>
      <trkpt lat="45.25871" lon="5.779">
        <ele>1000</ele>
        <time>2000-01-01T17:23:26.000Z</time>
      </trkpt>
      <trkpt lat="45.25855" lon="5.77913">
        <ele>1000.8</ele>
        <time>2000-01-01T17:23:36.000Z</time>
      </trkpt>
      <trkpt lat="45.25835" lon="5.77919">
        <ele>1000</ele>
        <time>2000-01-01T17:23:46.000Z</time>
      </trkpt>
      <trkpt lat="45.25839" lon="5.77917">
        <ele>1001</ele>
        <time>2000-01-01T17:23:56.000Z</time>
      </trkpt>
      <trkpt lat="45.25826" lon="5.77917">
        <ele>1000.5</ele>
        <time>2000-01-01T17:24:06.000Z</time>
      </trkpt>
      <trkpt lat="45.25809" lon="5.77926">
        <ele>997</ele>
        <time>2000-01-01T17:24:16.000Z</time>
      </trkpt>
      <trkpt lat="45.25797" lon="5.77939">
        <ele>997.5</ele>
        <time>2000-01-01T17:24:26.000Z</time>
      </trkpt>
      <trkpt lat="45.25782" lon="5.77979">
        <ele>994</ele>
        <time>2000-01-01T17:24:36.000Z</time>
      </trkpt>
      <trkpt lat="45.2578" lon="5.78009">
        <ele>992</ele>
        <time>2000-01-01T17:24:46.000Z</time>
      </trkpt>
      <trkpt lat="45.25768" lon="5.78038">
        <ele>990</ele>
        <time>2000-01-01T17:24:56.000Z</time>
      </trkpt>
      <trkpt lat="45.25768" lon="5.78046">
        <ele>991.6</ele>
        <time>2000-01-01T17:25:06.000Z</time>
      </trkpt>
      <trkpt lat="45.25757" lon="5.78057">
        <ele>989</ele>
        <time>2000-01-01T17:25:16.000Z</time>
      </trkpt>
      <trkpt lat="45.2575" lon="5.78068">
        <ele>989</ele>
        <time>2000-01-01T17:25:26.000Z</time>
      </trkpt>
      <trkpt lat="45.25746" lon="5.78076">
        <ele>988.8</ele>
        <time>2000-01-01T17:25:36.000Z</time>
      </trkpt>
      <trkpt lat="45.25743" lon="5.78095">
        <ele>989</ele>
        <time>2000-01-01T17:25:46.000Z</time>
      </trkpt>
      <trkpt lat="45.25735" lon="5.78107">
        <ele>988.9</ele>
        <time>2000-01-01T17:25:56.000Z</time>
      </trkpt>
      <trkpt lat="45.25729" lon="5.7811">
        <ele>989</ele>
        <time>2000-01-01T17:26:06.000Z</time>
      </trkpt>
      <trkpt lat="45.25719" lon="5.78123">
        <ele>990</ele>
        <time>2000-01-01T17:26:16.000Z</time>
      </trkpt>
      <trkpt lat="45.25707" lon="5.78133">
        <ele>991.3</ele>
        <time>2000-01-01T17:26:26.000Z</time>
      </trkpt>
      <trkpt lat="45.25703" lon="5.78143">
        <ele>992</ele>
        <time>2000-01-01T17:26:36.000Z</time>
      </trkpt>
      <trkpt lat="45.25702" lon="5.78136">
        <ele>992</ele>
        <time>2000-01-01T17:26:46.000Z</time>
      </trkpt>
      <trkpt lat="45.25691" lon="5.7812">
        <ele>992</ele>
        <time>2000-01-01T17:26:56.000Z</time>
      </trkpt>
      <trkpt lat="45.25686" lon="5.78119">
        <ele>993.2</ele>
        <time>2000-01-01T17:27:06.000Z</time>
      </trkpt>
      <trkpt lat="45.25681" lon="5.78113">
        <ele>993.6</ele>
        <time>2000-01-01T17:27:16.000Z</time>
      </trkpt>
      <trkpt lat="45.2567" lon="5.78109">
        <ele>995</ele>
        <time>2000-01-01T17:27:26.000Z</time>
      </trkpt>
      <trkpt lat="45.25666" lon="5.7811">
        <ele>996.1</ele>
        <time>2000-01-01T17:27:36.000Z</time>
      </trkpt>
      <trkpt lat="45.25662" lon="5.78107">
        <ele>996.7</ele>
        <time>2000-01-01T17:27:46.000Z</time>
      </trkpt>
      <trkpt lat="45.25663" lon="5.78096">
        <ele>995.7</ele>
        <time>2000-01-01T17:27:56.000Z</time>
      </trkpt>
      <trkpt lat="45.25661" lon="5.78093">
        <ele>995</ele>
        <time>2000-01-01T17:28:06.000Z</time>
      </trkpt>
      <trkpt lat="45.25641" lon="5.78079">
        <ele>999</ele>
        <time>2000-01-01T17:28:16.000Z</time>
      </trkpt>
      <trkpt lat="45.25596" lon="5.78065">
        <ele>1009</ele>
        <time>2000-01-01T17:28:26.000Z</time>
      </trkpt>
      <trkpt lat="45.25585" lon="5.78065">
        <ele>1010.9</ele>
        <time>2000-01-01T17:28:36.000Z</time>
      </trkpt>
      <trkpt lat="45.25547" lon="5.78026">
        <ele>1013</ele>
        <time>2000-01-01T17:28:46.000Z</time>
      </trkpt>
      <trkpt lat="45.25533" lon="5.78019">
        <ele>1015.4</ele>
        <time>2000-01-01T17:28:56.000Z</time>
      </trkpt>
      <trkpt lat="45.25533" lon="5.78016">
        <ele>1014.8</ele>
        <time>2000-01-01T17:29:06.000Z</time>
      </trkpt>
      <trkpt lat="45.25526" lon="5.78012">
        <ele>1016</ele>
        <time>2000-01-01T17:29:16.000Z</time>
      </trkpt>
      <trkpt lat="45.25515" lon="5.78028">
        <ele>1020.4</ele>
        <time>2000-01-01T17:29:26.000Z</time>
      </trkpt>
      <trkpt lat="45.25506" lon="5.78031">
        <ele>1019</ele>
        <time>2000-01-01T17:29:36.000Z</time>
      </trkpt>
      <trkpt lat="45.25504" lon="5.78028">
        <ele>1022.3</ele>
        <time>2000-01-01T17:29:46.000Z</time>
      </trkpt>
      <trkpt lat="45.25489" lon="5.78021">
        <ele>1023.8</ele>
        <time>2000-01-01T17:29:56.000Z</time>
      </trkpt>
      <trkpt lat="45.25485" lon="5.78014">
        <ele>1023</ele>
        <time>2000-01-01T17:30:06.000Z</time>
      </trkpt>
      <trkpt lat="45.25472" lon="5.78005">
        <ele>1023.3</ele>
        <time>2000-01-01T17:30:16.000Z</time>
      </trkpt>
      <trkpt lat="45.25449" lon="5.77998">
        <ele>1025</ele>
        <time>2000-01-01T17:30:26.000Z</time>
      </trkpt>
      <trkpt lat="45.25418" lon="5.77998">
        <ele>1030</ele>
        <time>2000-01-01T17:30:36.000Z</time>
      </trkpt>
      <trkpt lat="45.25411" lon="5.77994">
        <ele>1031.9</ele>
        <time>2000-01-01T17:30:46.000Z</time>
      </trkpt>
      <trkpt lat="45.25404" lon="5.78">
        <ele>1034.8</ele>
        <time>2000-01-01T17:30:56.000Z</time>
      </trkpt>
      <trkpt lat="45.254" lon="5.77999">
        <ele>1033</ele>
        <time>2000-01-01T17:31:06.000Z</time>
      </trkpt>
      <trkpt lat="45.25398" lon="5.78003">
        <ele>1036.7</ele>
        <time>2000-01-01T17:31:16.000Z</time>
      </trkpt>
      <trkpt lat="45.25393" lon="5.78004">
        <ele>1037.7</ele>
        <time>2000-01-01T17:31:26.000Z</time>
      </trkpt>
      <trkpt lat="45.25369" lon="5.77996">
        <ele>1038</ele>
        <time>2000-01-01T17:31:36.000Z</time>
      </trkpt>
      <trkpt lat="45.25358" lon="5.77995">
        <ele>1040.8</ele>
        <time>2000-01-01T17:31:46.000Z</time>
      </trkpt>
      <trkpt lat="45.25346" lon="5.77986">
        <ele>1043</ele>
        <time>2000-01-01T17:31:56.000Z</time>
      </trkpt>
      <trkpt lat="45.25343" lon="5.77989">
        <ele>1043.7</ele>
        <time>2000-01-01T17:32:06.000Z</time>
      </trkpt>
      <trkpt lat="45.25344" lon="5.77991">
        <ele>1043.7</ele>
        <time>2000-01-01T17:32:16.000Z</time>
      </trkpt>
      <trkpt lat="45.2534" lon="5.77992">
        <ele>1044.8</ele>
        <time>2000-01-01T17:32:26.000Z</time>
      </trkpt>
      <trkpt lat="45.25322" lon="5.77985">
        <ele>1051</ele>
        <time>2000-01-01T17:32:36.000Z</time>
      </trkpt>
      <trkpt lat="45.25312" lon="5.77985">
        <ele>1055.2</ele>
        <time>2000-01-01T17:32:46.000Z</time>
      </trkpt>
      <trkpt lat="45.25309" lon="5.77982">
        <ele>1056.5</ele>
        <time>2000-01-01T17:32:56.000Z</time>
      </trkpt>
      <trkpt lat="45.25321" lon="5.7798">
        <ele>1051</ele>
        <time>2000-01-01T17:33:06.000Z</time>
      </trkpt>
      <trkpt lat="45.25334" lon="5.77974">
        <ele>1044.9</ele>
        <time>2000-01-01T17:33:16.000Z</time>
      </trkpt>
      <trkpt lat="45.25335" lon="5.7797">
        <ele>1044.5</ele>
        <time>2000-01-01T17:33:26.000Z</time>
      </trkpt>
      <trkpt lat="45.25325" lon="5.77913">
        <ele>1053</ele>
        <time>2000-01-01T17:33:36.000Z</time>
      </trkpt>
      <trkpt lat="45.25315" lon="5.77887">
        <ele>1053</ele>
        <time>2000-01-01T17:33:46.000Z</time>
      </trkpt>
      <trkpt lat="45.25312" lon="5.77852">
        <ele>1054</ele>
        <time>2000-01-01T17:33:56.000Z</time>
      </trkpt>
      <trkpt lat="45.25305" lon="5.77843">
        <ele>1056.6</ele>
        <time>2000-01-01T17:34:06.000Z</time>
      </trkpt>
      <trkpt lat="45.25305" lon="5.77825">
        <ele>1053</ele>
        <time>2000-01-01T17:34:16.000Z</time>
      </trkpt>
      <trkpt lat="45.2531" lon="5.77806">
        <ele>1052.4</ele>
        <time>2000-01-01T17:34:26.000Z</time>
      </trkpt>
      <trkpt lat="45.25306" lon="5.77783">
        <ele>1053</ele>
        <time>2000-01-01T17:34:36.000Z</time>
      </trkpt>
      <trkpt lat="45.25306" lon="5.77745">
        <ele>1050</ele>
        <time>2000-01-01T17:34:46.000Z</time>
      </trkpt>
      <trkpt lat="45.25294" lon="5.77707">
        <ele>1047</ele>
        <time>2000-01-01T17:34:56.000Z</time>
      </trkpt>
      <trkpt lat="45.25286" lon="5.77698">
        <ele>1047.6</ele>
        <time>2000-01-01T17:35:06.000Z</time>
      </trkpt>
      <trkpt lat="45.2526" lon="5.77679">
        <ele>1043</ele>
        <time>2000-01-01T17:35:16.000Z</time>
      </trkpt>
      <trkpt lat="45.25249" lon="5.77668">
        <ele>1044.3</ele>
        <time>2000-01-01T17:35:26.000Z</time>
      </trkpt>
      <trkpt lat="45.25237" lon="5.77651">
        <ele>1040</ele>
        <time>2000-01-01T17:35:36.000Z</time>
      </trkpt>
      <trkpt lat="45.25233" lon="5.7764">
        <ele>1037.9</ele>
        <time>2000-01-01T17:35:46.000Z</time>
      </trkpt>
      <trkpt lat="45.25211" lon="5.77601">
        <ele>1028</ele>
        <time>2000-01-01T17:35:56.000Z</time>
      </trkpt>
      <trkpt lat="45.25208" lon="5.77583">
        <ele>1024.4</ele>
        <time>2000-01-01T17:36:06.000Z</time>
      </trkpt>
      <trkpt lat="45.25212" lon="5.77536">
        <ele>1011</ele>
        <time>2000-01-01T17:36:16.000Z</time>
      </trkpt>
      <trkpt lat="45.25211" lon="5.77519">
        <ele>1009.1</ele>
        <time>2000-01-01T17:36:26.000Z</time>
      </trkpt>
      <trkpt lat="45.25196" lon="5.77493">
        <ele>1005</ele>
        <time>2000-01-01T17:36:36.000Z</time>
      </trkpt>
      <trkpt lat="45.25185" lon="5.77466">
        <ele>1003</ele>
        <time>2000-01-01T17:36:46.000Z</time>
      </trkpt>
      <trkpt lat="45.25176" lon="5.77434">
        <ele>1002</ele>
        <time>2000-01-01T17:36:56.000Z</time>
      </trkpt>
      <trkpt lat="45.25166" lon="5.77401">
        <ele>1002</ele>
        <time>2000-01-01T17:37:06.000Z</time>
      </trkpt>
      <trkpt lat="45.25162" lon="5.7736">
        <ele>1002</ele>
        <time>2000-01-01T17:37:16.000Z</time>
      </trkpt>
      <trkpt lat="45.25165" lon="5.77315">
        <ele>1000</ele>
        <time>2000-01-01T17:37:26.000Z</time>
      </trkpt>
      <trkpt lat="45.25164" lon="5.77296">
        <ele>998.8</ele>
        <time>2000-01-01T17:37:36.000Z</time>
      </trkpt>
      <trkpt lat="45.25159" lon="5.7727">
        <ele>999</ele>
        <time>2000-01-01T17:37:46.000Z</time>
      </trkpt>
      <trkpt lat="45.25145" lon="5.77245">
        <ele>997</ele>
        <time>2000-01-01T17:37:56.000Z</time>
      </trkpt>
      <trkpt lat="45.25125" lon="5.77222">
        <ele>997</ele>
        <time>2000-01-01T17:38:06.000Z</time>
      </trkpt>
      <trkpt lat="45.25103" lon="5.77196">
        <ele>995</ele>
        <time>2000-01-01T17:38:16.000Z</time>
      </trkpt>
      <trkpt lat="45.25085" lon="5.77182">
        <ele>995</ele>
        <time>2000-01-01T17:38:26.000Z</time>
      </trkpt>
      <trkpt lat="45.25066" lon="5.77158">
        <ele>992</ele>
        <time>2000-01-01T17:38:36.000Z</time>
      </trkpt>
      <trkpt lat="45.25043" lon="5.7713">
        <ele>992</ele>
        <time>2000-01-01T17:38:46.000Z</time>
      </trkpt>
      <trkpt lat="45.25037" lon="5.77117">
        <ele>991.5</ele>
        <time>2000-01-01T17:38:56.000Z</time>
      </trkpt>
      <trkpt lat="45.25016" lon="5.77042">
        <ele>991</ele>
        <time>2000-01-01T17:39:06.000Z</time>
      </trkpt>
      <trkpt lat="45.25005" lon="5.7703">
        <ele>989.6</ele>
        <time>2000-01-01T17:39:16.000Z</time>
      </trkpt>
      <trkpt lat="45.24998" lon="5.77017">
        <ele>991</ele>
        <time>2000-01-01T17:39:26.000Z</time>
      </trkpt>
      <trkpt lat="45.24986" lon="5.76987">
        <ele>991</ele>
        <time>2000-01-01T17:39:36.000Z</time>
      </trkpt>
      <trkpt lat="45.24974" lon="5.76956">
        <ele>994</ele>
        <time>2000-01-01T17:39:46.000Z</time>
      </trkpt>
      <trkpt lat="45.24967" lon="5.76947">
        <ele>990.7</ele>
        <time>2000-01-01T17:39:56.000Z</time>
      </trkpt>
      <trkpt lat="45.24958" lon="5.76943">
        <ele>992.9</ele>
        <time>2000-01-01T17:40:06.000Z</time>
      </trkpt>
      <trkpt lat="45.24943" lon="5.76953">
        <ele>998</ele>
        <time>2000-01-01T17:40:16.000Z</time>
      </trkpt>
      <trkpt lat="45.24933" lon="5.76954">
        <ele>1000.1</ele>
        <time>2000-01-01T17:40:26.000Z</time>
      </trkpt>
      <trkpt lat="45.24929" lon="5.76931">
        <ele>1003</ele>
        <time>2000-01-01T17:40:36.000Z</time>
      </trkpt>
      <trkpt lat="45.24911" lon="5.76899">
        <ele>1003</ele>
        <time>2000-01-01T17:40:46.000Z</time>
      </trkpt>
      <trkpt lat="45.24887" lon="5.76889">
        <ele>1009</ele>
        <time>2000-01-01T17:40:56.000Z</time>
      </trkpt>
      <trkpt lat="45.24859" lon="5.76889">
        <ele>1013</ele>
        <time>2000-01-01T17:41:06.000Z</time>
      </trkpt>
      <trkpt lat="45.24847" lon="5.76893">
        <ele>1017.8</ele>
        <time>2000-01-01T17:41:16.000Z</time>
      </trkpt>
      <trkpt lat="45.24818" lon="5.76926">
        <ele>1026</ele>
        <time>2000-01-01T17:41:26.000Z</time>
      </trkpt>
      <trkpt lat="45.24802" lon="5.76939">
        <ele>1027.6</ele>
        <time>2000-01-01T17:41:36.000Z</time>
      </trkpt>
      <trkpt lat="45.24801" lon="5.76946">
        <ele>1028</ele>
        <time>2000-01-01T17:41:46.000Z</time>
      </trkpt>
      <trkpt lat="45.24796" lon="5.76955">
        <ele>1028.6</ele>
        <time>2000-01-01T17:41:56.000Z</time>
      </trkpt>
      <trkpt lat="45.24771" lon="5.76969">
        <ele>1028</ele>
        <time>2000-01-01T17:42:06.000Z</time>
      </trkpt>
      <trkpt lat="45.2477" lon="5.76967">
        <ele>1029.2</ele>
        <time>2000-01-01T17:42:16.000Z</time>
      </trkpt>
      <trkpt lat="45.24768" lon="5.76968">
        <ele>1029.1</ele>
        <time>2000-01-01T17:42:26.000Z</time>
      </trkpt>
      <trkpt lat="45.24744" lon="5.76987">
        <ele>1028</ele>
        <time>2000-01-01T17:42:36.000Z</time>
      </trkpt>
      <trkpt lat="45.24717" lon="5.77017">
        <ele>1033</ele>
        <time>2000-01-01T17:42:46.000Z</time>
      </trkpt>
      <trkpt lat="45.24683" lon="5.77033">
        <ele>1036</ele>
        <time>2000-01-01T17:42:56.000Z</time>
      </trkpt>
      <trkpt lat="45.24678" lon="5.77038">
        <ele>1037.1</ele>
        <time>2000-01-01T17:43:06.000Z</time>
      </trkpt>
      <trkpt lat="45.24665" lon="5.77041">
        <ele>1038</ele>
        <time>2000-01-01T17:43:16.000Z</time>
      </trkpt>
      <trkpt lat="45.24662" lon="5.77047">
        <ele>1040</ele>
        <time>2000-01-01T17:43:26.000Z</time>
      </trkpt>
      <trkpt lat="45.24637" lon="5.77062">
        <ele>1046</ele>
        <time>2000-01-01T17:43:36.000Z</time>
      </trkpt>
      <trkpt lat="45.24626" lon="5.77072">
        <ele>1050.3</ele>
        <time>2000-01-01T17:43:46.000Z</time>
      </trkpt>
      <trkpt lat="45.24613" lon="5.77077">
        <ele>1051</ele>
        <time>2000-01-01T17:43:56.000Z</time>
      </trkpt>
      <trkpt lat="45.24606" lon="5.77084">
        <ele>1055.4</ele>
        <time>2000-01-01T17:44:06.000Z</time>
      </trkpt>
      <trkpt lat="45.24585" lon="5.7709">
        <ele>1057</ele>
        <time>2000-01-01T17:44:16.000Z</time>
      </trkpt>
      <trkpt lat="45.24577" lon="5.77101">
        <ele>1061.6</ele>
        <time>2000-01-01T17:44:26.000Z</time>
      </trkpt>
      <trkpt lat="45.24565" lon="5.77104">
        <ele>1061</ele>
        <time>2000-01-01T17:44:36.000Z</time>
      </trkpt>
      <trkpt lat="45.24553" lon="5.77112">
        <ele>1064.2</ele>
        <time>2000-01-01T17:44:46.000Z</time>
      </trkpt>
      <trkpt lat="45.24548" lon="5.7711">
        <ele>1063.4</ele>
        <time>2000-01-01T17:44:56.000Z</time>
      </trkpt>
      <trkpt lat="45.24535" lon="5.77111">
        <ele>1062</ele>
        <time>2000-01-01T17:45:06.000Z</time>
      </trkpt>
      <trkpt lat="45.24526" lon="5.77117">
        <ele>1064.8</ele>
        <time>2000-01-01T17:45:16.000Z</time>
      </trkpt>
      <trkpt lat="45.24523" lon="5.77122">
        <ele>1066.3</ele>
        <time>2000-01-01T17:45:26.000Z</time>
      </trkpt>
      <trkpt lat="45.24515" lon="5.77126">
        <ele>1065</ele>
        <time>2000-01-01T17:45:36.000Z</time>
      </trkpt>
      <trkpt lat="45.24514" lon="5.77132">
        <ele>1069.5</ele>
        <time>2000-01-01T17:45:46.000Z</time>
      </trkpt>
      <trkpt lat="45.24506" lon="5.77138">
        <ele>1071.5</ele>
        <time>2000-01-01T17:45:56.000Z</time>
      </trkpt>
      <trkpt lat="45.24497" lon="5.77137">
        <ele>1071</ele>
        <time>2000-01-01T17:46:06.000Z</time>
      </trkpt>
      <trkpt lat="45.24473" lon="5.77145">
        <ele>1077</ele>
        <time>2000-01-01T17:46:16.000Z</time>
      </trkpt>
      <trkpt lat="45.24458" lon="5.77145">
        <ele>1082.1</ele>
        <time>2000-01-01T17:46:26.000Z</time>
      </trkpt>
      <trkpt lat="45.2445" lon="5.77142">
        <ele>1082</ele>
        <time>2000-01-01T17:46:36.000Z</time>
      </trkpt>
      <trkpt lat="45.24447" lon="5.77143">
        <ele>1084.6</ele>
        <time>2000-01-01T17:46:46.000Z</time>
      </trkpt>
      <trkpt lat="45.24442" lon="5.77135">
        <ele>1083.7</ele>
        <time>2000-01-01T17:46:56.000Z</time>
      </trkpt>
      <trkpt lat="45.24436" lon="5.77133">
        <ele>1085.6</ele>
        <time>2000-01-01T17:47:06.000Z</time>
      </trkpt>
      <trkpt lat="45.2442" lon="5.77112">
        <ele>1085</ele>
        <time>2000-01-01T17:47:16.000Z</time>
      </trkpt>
      <trkpt lat="45.24402" lon="5.77101">
        <ele>1094</ele>
        <time>2000-01-01T17:47:26.000Z</time>
      </trkpt>
      <trkpt lat="45.24393" lon="5.77104">
        <ele>1099.2</ele>
        <time>2000-01-01T17:47:36.000Z</time>
      </trkpt>
      <trkpt lat="45.24391" lon="5.77102">
        <ele>1099.9</ele>
        <time>2000-01-01T17:47:46.000Z</time>
      </trkpt>
      <trkpt lat="45.24387" lon="5.77108">
        <ele>1103.3</ele>
        <time>2000-01-01T17:47:56.000Z</time>
      </trkpt>
      <trkpt lat="45.24383" lon="5.77101">
        <ele>1107</ele>
        <time>2000-01-01T17:48:06.000Z</time>
      </trkpt>
      <trkpt lat="45.24369" lon="5.77095">
        <ele>1109.5</ele>
        <time>2000-01-01T17:48:16.000Z</time>
      </trkpt>
      <trkpt lat="45.24368" lon="5.77091">
        <ele>1109.2</ele>
        <time>2000-01-01T17:48:26.000Z</time>
      </trkpt>
      <trkpt lat="45.24355" lon="5.7708">
        <ele>1115</ele>
        <time>2000-01-01T17:48:36.000Z</time>
      </trkpt>
      <trkpt lat="45.24346" lon="5.77075">
        <ele>1115</ele>
        <time>2000-01-01T17:48:46.000Z</time>
      </trkpt>
      <trkpt lat="45.24342" lon="5.77076">
        <ele>1116.9</ele>
        <time>2000-01-01T17:48:56.000Z</time>
      </trkpt>
      <trkpt lat="45.24339" lon="5.77074">
        <ele>1117.7</ele>
        <time>2000-01-01T17:49:06.000Z</time>
      </trkpt>
      <trkpt lat="45.24339" lon="5.77072">
        <ele>1117.2</ele>
        <time>2000-01-01T17:49:16.000Z</time>
      </trkpt>
      <trkpt lat="45.24321" lon="5.7706">
        <ele>1122</ele>
        <time>2000-01-01T17:49:26.000Z</time>
      </trkpt>
      <trkpt lat="45.24309" lon="5.77047">
        <ele>1123.5</ele>
        <time>2000-01-01T17:49:36.000Z</time>
      </trkpt>
      <trkpt lat="45.24299" lon="5.77046">
        <ele>1130</ele>
        <time>2000-01-01T17:49:46.000Z</time>
      </trkpt>
      <trkpt lat="45.24285" lon="5.77032">
        <ele>1129.8</ele>
        <time>2000-01-01T17:49:56.000Z</time>
      </trkpt>
      <trkpt lat="45.24281" lon="5.7703">
        <ele>1131</ele>
        <time>2000-01-01T17:50:06.000Z</time>
      </trkpt>
      <trkpt lat="45.24276" lon="5.77033">
        <ele>1133.8</ele>
        <time>2000-01-01T17:50:16.000Z</time>
      </trkpt>
      <trkpt lat="45.24259" lon="5.7703">
        <ele>1135</ele>
        <time>2000-01-01T17:50:26.000Z</time>
      </trkpt>
      <trkpt lat="45.24248" lon="5.77007">
        <ele>1139</ele>
        <time>2000-01-01T17:50:36.000Z</time>
      </trkpt>
      <trkpt lat="45.24226" lon="5.76998">
        <ele>1145</ele>
        <time>2000-01-01T17:50:46.000Z</time>
      </trkpt>
      <trkpt lat="45.24221" lon="5.76993">
        <ele>1145.9</ele>
        <time>2000-01-01T17:50:56.000Z</time>
      </trkpt>
      <trkpt lat="45.2422" lon="5.76995">
        <ele>1146.6</ele>
        <time>2000-01-01T17:51:06.000Z</time>
      </trkpt>
      <trkpt lat="45.24213" lon="5.76986">
        <ele>1146.8</ele>
        <time>2000-01-01T17:51:16.000Z</time>
      </trkpt>
      <trkpt lat="45.24211" lon="5.76987">
        <ele>1146</ele>
        <time>2000-01-01T17:51:26.000Z</time>
      </trkpt>
      <trkpt lat="45.24195" lon="5.76979">
        <ele>1151</ele>
        <time>2000-01-01T17:51:36.000Z</time>
      </trkpt>
      <trkpt lat="45.24186" lon="5.76978">
        <ele>1152</ele>
        <time>2000-01-01T17:51:46.000Z</time>
      </trkpt>
      <trkpt lat="45.24174" lon="5.7697">
        <ele>1154.7</ele>
        <time>2000-01-01T17:51:56.000Z</time>
      </trkpt>
      <trkpt lat="45.2416" lon="5.76956">
        <ele>1155</ele>
        <time>2000-01-01T17:52:06.000Z</time>
      </trkpt>
      <trkpt lat="45.24135" lon="5.76942">
        <ele>1160</ele>
        <time>2000-01-01T17:52:16.000Z</time>
      </trkpt>
      <trkpt lat="45.24125" lon="5.76929">
        <ele>1160.3</ele>
        <time>2000-01-01T17:52:26.000Z</time>
      </trkpt>
      <trkpt lat="45.24118" lon="5.76926">
        <ele>1162</ele>
        <time>2000-01-01T17:52:36.000Z</time>
      </trkpt>
      <trkpt lat="45.24105" lon="5.76928">
        <ele>1165.2</ele>
        <time>2000-01-01T17:52:46.000Z</time>
      </trkpt>
      <trkpt lat="45.24104" lon="5.76925">
        <ele>1165</ele>
        <time>2000-01-01T17:52:56.000Z</time>
      </trkpt>
      <trkpt lat="45.2409" lon="5.76918">
        <ele>1166</ele>
        <time>2000-01-01T17:53:06.000Z</time>
      </trkpt>
      <trkpt lat="45.24078" lon="5.76923">
        <ele>1171.4</ele>
        <time>2000-01-01T17:53:16.000Z</time>
      </trkpt>
      <trkpt lat="45.24069" lon="5.76914">
        <ele>1169</ele>
        <time>2000-01-01T17:53:26.000Z</time>
      </trkpt>
      <trkpt lat="45.24053" lon="5.76886">
        <ele>1172</ele>
        <time>2000-01-01T17:53:36.000Z</time>
      </trkpt>
      <trkpt lat="45.24031" lon="5.7687">
        <ele>1178</ele>
        <time>2000-01-01T17:53:46.000Z</time>
      </trkpt>
      <trkpt lat="45.24007" lon="5.7686">
        <ele>1186</ele>
        <time>2000-01-01T17:53:56.000Z</time>
      </trkpt>
      <trkpt lat="45.24001" lon="5.7685">
        <ele>1184.5</ele>
        <time>2000-01-01T17:54:06.000Z</time>
      </trkpt>
      <trkpt lat="45.23997" lon="5.76851">
        <ele>1185.9</ele>
        <time>2000-01-01T17:54:16.000Z</time>
      </trkpt>
      <trkpt lat="45.23979" lon="5.76843">
        <ele>1193</ele>
        <time>2000-01-01T17:54:26.000Z</time>
      </trkpt>
      <trkpt lat="45.23974" lon="5.76847">
        <ele>1192.9</ele>
        <time>2000-01-01T17:54:36.000Z</time>
      </trkpt>
      <trkpt lat="45.23969" lon="5.76845">
        <ele>1194.3</ele>
        <time>2000-01-01T17:54:46.000Z</time>
      </trkpt>
      <trkpt lat="45.23958" lon="5.76846">
        <ele>1199</ele>
        <time>2000-01-01T17:54:56.000Z</time>
      </trkpt>
      <trkpt lat="45.23938" lon="5.76834">
        <ele>1204</ele>
        <time>2000-01-01T17:55:06.000Z</time>
      </trkpt>
      <trkpt lat="45.2393" lon="5.76835">
        <ele>1205.9</ele>
        <time>2000-01-01T17:55:16.000Z</time>
      </trkpt>
      <trkpt lat="45.2392" lon="5.76831">
        <ele>1208.7</ele>
        <time>2000-01-01T17:55:26.000Z</time>
      </trkpt>
      <trkpt lat="45.239" lon="5.76811">
        <ele>1213</ele>
        <time>2000-01-01T17:55:36.000Z</time>
      </trkpt>
      <trkpt lat="45.23879" lon="5.76799">
        <ele>1222</ele>
        <time>2000-01-01T17:55:46.000Z</time>
      </trkpt>
      <trkpt lat="45.23853" lon="5.76775">
        <ele>1228</ele>
        <time>2000-01-01T17:55:56.000Z</time>
      </trkpt>
      <trkpt lat="45.23843" lon="5.76772">
        <ele>1231.1</ele>
        <time>2000-01-01T17:56:06.000Z</time>
      </trkpt>
      <trkpt lat="45.23825" lon="5.76775">
        <ele>1239</ele>
        <time>2000-01-01T17:56:16.000Z</time>
      </trkpt>
      <trkpt lat="45.23814" lon="5.76764">
        <ele>1240.6</ele>
        <time>2000-01-01T17:56:26.000Z</time>
      </trkpt>
      <trkpt lat="45.23786" lon="5.76756">
        <ele>1250</ele>
        <time>2000-01-01T17:56:36.000Z</time>
      </trkpt>
      <trkpt lat="45.23772" lon="5.7676">
        <ele>1254.7</ele>
        <time>2000-01-01T17:56:46.000Z</time>
      </trkpt>
      <trkpt lat="45.23749" lon="5.76754">
        <ele>1264</ele>
        <time>2000-01-01T17:56:56.000Z</time>
      </trkpt>
      <trkpt lat="45.23745" lon="5.76756">
        <ele>1263.4</ele>
        <time>2000-01-01T17:57:06.000Z</time>
      </trkpt>
      <trkpt lat="45.23742" lon="5.76754">
        <ele>1264.3</ele>
        <time>2000-01-01T17:57:16.000Z</time>
      </trkpt>
      <trkpt lat="45.23744" lon="5.76752">
        <ele>1263.4</ele>
        <time>2000-01-01T17:57:26.000Z</time>
      </trkpt>
      <trkpt lat="45.23738" lon="5.7675">
        <ele>1265.3</ele>
        <time>2000-01-01T17:57:36.000Z</time>
      </trkpt>
      <trkpt lat="45.23727" lon="5.7674">
        <ele>1268</ele>
        <time>2000-01-01T17:57:46.000Z</time>
      </trkpt>
      <trkpt lat="45.23723" lon="5.76741">
        <ele>1269.8</ele>
        <time>2000-01-01T17:57:56.000Z</time>
      </trkpt>
      <trkpt lat="45.23715" lon="5.76738">
        <ele>1272.3</ele>
        <time>2000-01-01T17:58:06.000Z</time>
      </trkpt>
      <trkpt lat="45.23705" lon="5.76727">
        <ele>1275</ele>
        <time>2000-01-01T17:58:16.000Z</time>
      </trkpt>
      <trkpt lat="45.23704" lon="5.76723">
        <ele>1274.6</ele>
        <time>2000-01-01T17:58:26.000Z</time>
      </trkpt>
      <trkpt lat="45.23692" lon="5.76718">
        <ele>1278.5</ele>
        <time>2000-01-01T17:58:36.000Z</time>
      </trkpt>
      <trkpt lat="45.23681" lon="5.76709">
        <ele>1282</ele>
        <time>2000-01-01T17:58:46.000Z</time>
      </trkpt>
      <trkpt lat="45.23663" lon="5.76705">
        <ele>1289.2</ele>
        <time>2000-01-01T17:58:56.000Z</time>
      </trkpt>
      <trkpt lat="45.23659" lon="5.76709">
        <ele>1294</ele>
        <time>2000-01-01T17:59:06.000Z</time>
      </trkpt>
      <trkpt lat="45.23652" lon="5.76703">
        <ele>1293.4</ele>
        <time>2000-01-01T17:59:16.000Z</time>
      </trkpt>
      <trkpt lat="45.23646" lon="5.76705">
        <ele>1295.9</ele>
        <time>2000-01-01T17:59:26.000Z</time>
      </trkpt>
      <trkpt lat="45.23639" lon="5.76698">
        <ele>1300</ele>
        <time>2000-01-01T17:59:36.000Z</time>
      </trkpt>
      <trkpt lat="45.23633" lon="5.76706">
        <ele>1300.7</ele>
        <time>2000-01-01T17:59:46.000Z</time>
      </trkpt>
      <trkpt lat="45.23627" lon="5.76708">
        <ele>1302.8</ele>
        <time>2000-01-01T17:59:56.000Z</time>
      </trkpt>
      <trkpt lat="45.23624" lon="5.76702">
        <ele>1305</ele>
        <time>2000-01-01T18:00:06.000Z</time>
      </trkpt>
      <trkpt lat="45.23616" lon="5.76702">
        <ele>1306</ele>
        <time>2000-01-01T18:00:16.000Z</time>
      </trkpt>
      <trkpt lat="45.23608" lon="5.76692">
        <ele>1307.4</ele>
        <time>2000-01-01T18:00:26.000Z</time>
      </trkpt>
      <trkpt lat="45.23591" lon="5.76682">
        <ele>1307</ele>
        <time>2000-01-01T18:00:36.000Z</time>
      </trkpt>
      <trkpt lat="45.23585" lon="5.7667">
        <ele>1310.7</ele>
        <time>2000-01-01T18:00:46.000Z</time>
      </trkpt>
      <trkpt lat="45.23574" lon="5.76669">
        <ele>1302</ele>
        <time>2000-01-01T18:00:56.000Z</time>
      </trkpt>
      <trkpt lat="45.23568" lon="5.76666">
        <ele>1305.6</ele>
        <time>2000-01-01T18:01:06.000Z</time>
      </trkpt>
      <trkpt lat="45.23549" lon="5.76621">
        <ele>1306</ele>
        <time>2000-01-01T18:01:16.000Z</time>
      </trkpt>
      <trkpt lat="45.23549" lon="5.76586">
        <ele>1310</ele>
        <time>2000-01-01T18:01:26.000Z</time>
      </trkpt>
      <trkpt lat="45.23558" lon="5.7655">
        <ele>1314</ele>
        <time>2000-01-01T18:01:36.000Z</time>
      </trkpt>
      <trkpt lat="45.23555" lon="5.76536">
        <ele>1313.3</ele>
        <time>2000-01-01T18:01:46.000Z</time>
      </trkpt>
      <trkpt lat="45.2355" lon="5.76537">
        <ele>1313.1</ele>
        <time>2000-01-01T18:01:56.000Z</time>
      </trkpt>
      <trkpt lat="45.23544" lon="5.76553">
        <ele>1314</ele>
        <time>2000-01-01T18:02:06.000Z</time>
      </trkpt>
      <trkpt lat="45.23542" lon="5.76552">
        <ele>1311</ele>
        <time>2000-01-01T18:02:16.000Z</time>
      </trkpt>
      <trkpt lat="45.23538" lon="5.7654">
        <ele>1312.2</ele>
        <time>2000-01-01T18:02:26.000Z</time>
      </trkpt>
      <trkpt lat="45.23539" lon="5.76527">
        <ele>1316</ele>
        <time>2000-01-01T18:02:36.000Z</time>
      </trkpt>
      <trkpt lat="45.23533" lon="5.76495">
        <ele>1313</ele>
        <time>2000-01-01T18:02:46.000Z</time>
      </trkpt>
      <trkpt lat="45.23508" lon="5.76445">
        <ele>1315</ele>
        <time>2000-01-01T18:02:56.000Z</time>
      </trkpt>
      <trkpt lat="45.23502" lon="5.76417">
        <ele>1318</ele>
        <time>2000-01-01T18:03:06.000Z</time>
      </trkpt>
      <trkpt lat="45.23505" lon="5.76402">
        <ele>1319.8</ele>
        <time>2000-01-01T18:03:16.000Z</time>
      </trkpt>
      <trkpt lat="45.23516" lon="5.76403">
        <ele>1317</ele>
        <time>2000-01-01T18:03:26.000Z</time>
      </trkpt>
      <trkpt lat="45.2352" lon="5.76397">
        <ele>1318.9</ele>
        <time>2000-01-01T18:03:36.000Z</time>
      </trkpt>
      <trkpt lat="45.23537" lon="5.7639">
        <ele>1317</ele>
        <time>2000-01-01T18:03:46.000Z</time>
      </trkpt>
      <trkpt lat="45.23541" lon="5.76385">
        <ele>1312.7</ele>
        <time>2000-01-01T18:03:56.000Z</time>
      </trkpt>
      <trkpt lat="45.23544" lon="5.76372">
        <ele>1311.2</ele>
        <time>2000-01-01T18:04:06.000Z</time>
      </trkpt>
      <trkpt lat="45.23543" lon="5.76353">
        <ele>1312</ele>
        <time>2000-01-01T18:04:16.000Z</time>
      </trkpt>
      <trkpt lat="45.23553" lon="5.76325">
        <ele>1307</ele>
        <time>2000-01-01T18:04:26.000Z</time>
      </trkpt>
      <trkpt lat="45.2356" lon="5.76315">
        <ele>1304.8</ele>
        <time>2000-01-01T18:04:36.000Z</time>
      </trkpt>
      <trkpt lat="45.23566" lon="5.76299">
        <ele>1309</ele>
        <time>2000-01-01T18:04:46.000Z</time>
      </trkpt>
      <trkpt lat="45.23561" lon="5.76275">
        <ele>1307.4</ele>
        <time>2000-01-01T18:04:56.000Z</time>
      </trkpt>
      <trkpt lat="45.23573" lon="5.76246">
        <ele>1312</ele>
        <time>2000-01-01T18:05:06.000Z</time>
      </trkpt>
      <trkpt lat="45.23577" lon="5.76222">
        <ele>1316.2</ele>
        <time>2000-01-01T18:05:16.000Z</time>
      </trkpt>
      <trkpt lat="45.23584" lon="5.76213">
        <ele>1318</ele>
        <time>2000-01-01T18:05:26.000Z</time>
      </trkpt>
      <trkpt lat="45.23587" lon="5.762">
        <ele>1321.9</ele>
        <time>2000-01-01T18:05:36.000Z</time>
      </trkpt>
      <trkpt lat="45.23576" lon="5.76186">
        <ele>1329</ele>
        <time>2000-01-01T18:05:46.000Z</time>
      </trkpt>
      <trkpt lat="45.2357" lon="5.76185">
        <ele>1328</ele>
        <time>2000-01-01T18:05:56.000Z</time>
      </trkpt>
      <trkpt lat="45.23569" lon="5.76179">
        <ele>1329.7</ele>
        <time>2000-01-01T18:06:06.000Z</time>
      </trkpt>
      <trkpt lat="45.23565" lon="5.76177">
        <ele>1330.2</ele>
        <time>2000-01-01T18:06:16.000Z</time>
      </trkpt>
      <trkpt lat="45.23562" lon="5.76166">
        <ele>1330</ele>
        <time>2000-01-01T18:06:26.000Z</time>
      </trkpt>
      <trkpt lat="45.23553" lon="5.76156">
        <ele>1331.4</ele>
        <time>2000-01-01T18:06:36.000Z</time>
      </trkpt>
      <trkpt lat="45.23556" lon="5.76144">
        <ele>1329</ele>
        <time>2000-01-01T18:06:46.000Z</time>
      </trkpt>
      <trkpt lat="45.23558" lon="5.76145">
        <ele>1332.5</ele>
        <time>2000-01-01T18:06:56.000Z</time>
      </trkpt>
      <trkpt lat="45.2356" lon="5.76142">
        <ele>1332.9</ele>
        <time>2000-01-01T18:07:06.000Z</time>
      </trkpt>
      <trkpt lat="45.2356" lon="5.76132">
        <ele>1329.1</ele>
        <time>2000-01-01T18:07:16.000Z</time>
      </trkpt>
      <trkpt lat="45.23561" lon="5.76135">
        <ele>1331</ele>
        <time>2000-01-01T18:07:26.000Z</time>
      </trkpt>
      <trkpt lat="45.23559" lon="5.76138">
        <ele>1332.2</ele>
        <time>2000-01-01T18:07:36.000Z</time>
      </trkpt>
      <trkpt lat="45.23551" lon="5.76132">
        <ele>1328</ele>
        <time>2000-01-01T18:07:46.000Z</time>
      </trkpt>
      <trkpt lat="45.23553" lon="5.76127">
        <ele>1323.4</ele>
        <time>2000-01-01T18:07:56.000Z</time>
      </trkpt>
      <trkpt lat="45.2356" lon="5.76122">
        <ele>1323.5</ele>
        <time>2000-01-01T18:08:06.000Z</time>
      </trkpt>
      <trkpt lat="45.23567" lon="5.76123">
        <ele>1326.9</ele>
        <time>2000-01-01T18:08:16.000Z</time>
      </trkpt>
      <trkpt lat="45.23583" lon="5.76117">
        <ele>1327</ele>
        <time>2000-01-01T18:08:26.000Z</time>
      </trkpt>
      <trkpt lat="45.23586" lon="5.76106">
        <ele>1328.1</ele>
        <time>2000-01-01T18:08:36.000Z</time>
      </trkpt>
      <trkpt lat="45.23584" lon="5.761">
        <ele>1323.5</ele>
        <time>2000-01-01T18:08:46.000Z</time>
      </trkpt>
      <trkpt lat="45.2357" lon="5.76105">
        <ele>1317</ele>
        <time>2000-01-01T18:08:56.000Z</time>
      </trkpt>
      <trkpt lat="45.2356" lon="5.76106">
        <ele>1314.7</ele>
        <time>2000-01-01T18:09:06.000Z</time>
      </trkpt>
      <trkpt lat="45.23559" lon="5.76104">
        <ele>1313.2</ele>
        <time>2000-01-01T18:09:16.000Z</time>
      </trkpt>
      <trkpt lat="45.2356" lon="5.761">
        <ele>1311.6</ele>
        <time>2000-01-01T18:09:26.000Z</time>
      </trkpt>
      <trkpt lat="45.23576" lon="5.76088">
        <ele>1305</ele>
        <time>2000-01-01T18:09:36.000Z</time>
      </trkpt>
      <trkpt lat="45.23588" lon="5.76072">
        <ele>1309.8</ele>
        <time>2000-01-01T18:09:46.000Z</time>
      </trkpt>
      <trkpt lat="45.23591" lon="5.76058">
        <ele>1298</ele>
        <time>2000-01-01T18:09:56.000Z</time>
      </trkpt>
      <trkpt lat="45.23577" lon="5.76059">
        <ele>1297.1</ele>
        <time>2000-01-01T18:10:06.000Z</time>
      </trkpt>
      <trkpt lat="45.23567" lon="5.76063">
        <ele>1293</ele>
        <time>2000-01-01T18:10:16.000Z</time>
      </trkpt>
      <trkpt lat="45.23565" lon="5.76061">
        <ele>1293</ele>
        <time>2000-01-01T18:10:26.000Z</time>
      </trkpt>
      <trkpt lat="45.23573" lon="5.76046">
        <ele>1288.9</ele>
        <time>2000-01-01T18:10:36.000Z</time>
      </trkpt>
      <trkpt lat="45.23582" lon="5.76041">
        <ele>1289</ele>
        <time>2000-01-01T18:10:46.000Z</time>
      </trkpt>
      <trkpt lat="45.23587" lon="5.76033">
        <ele>1289.4</ele>
        <time>2000-01-01T18:10:56.000Z</time>
      </trkpt>
      <trkpt lat="45.23593" lon="5.76016">
        <ele>1280</ele>
        <time>2000-01-01T18:11:06.000Z</time>
      </trkpt>
      <trkpt lat="45.23606" lon="5.75991">
        <ele>1277</ele>
        <time>2000-01-01T18:11:16.000Z</time>
      </trkpt>
      <trkpt lat="45.23619" lon="5.75976">
        <ele>1279.6</ele>
        <time>2000-01-01T18:11:26.000Z</time>
      </trkpt>
      <trkpt lat="45.23623" lon="5.75965">
        <ele>1274</ele>
        <time>2000-01-01T18:11:36.000Z</time>
      </trkpt>
      <trkpt lat="45.23632" lon="5.75954">
        <ele>1275.9</ele>
        <time>2000-01-01T18:11:46.000Z</time>
      </trkpt>
      <trkpt lat="45.23632" lon="5.75946">
        <ele>1272.6</ele>
        <time>2000-01-01T18:11:56.000Z</time>
      </trkpt>
      <trkpt lat="45.2363" lon="5.75944">
        <ele>1270</ele>
        <time>2000-01-01T18:12:06.000Z</time>
      </trkpt>
      <trkpt lat="45.23624" lon="5.7595">
        <ele>1271.8</ele>
        <time>2000-01-01T18:12:16.000Z</time>
      </trkpt>
      <trkpt lat="45.2362" lon="5.75946">
        <ele>1269.1</ele>
        <time>2000-01-01T18:12:26.000Z</time>
      </trkpt>
      <trkpt lat="45.23595" lon="5.75951">
        <ele>1259</ele>
        <time>2000-01-01T18:12:36.000Z</time>
      </trkpt>
      <trkpt lat="45.23578" lon="5.7596">
        <ele>1256.2</ele>
        <time>2000-01-01T18:12:46.000Z</time>
      </trkpt>
      <trkpt lat="45.23574" lon="5.75969">
        <ele>1253</ele>
        <time>2000-01-01T18:12:56.000Z</time>
      </trkpt>
      <trkpt lat="45.23566" lon="5.75968">
        <ele>1252.3</ele>
        <time>2000-01-01T18:13:06.000Z</time>
      </trkpt>
      <trkpt lat="45.23553" lon="5.75972">
        <ele>1243</ele>
        <time>2000-01-01T18:13:16.000Z</time>
      </trkpt>
      <trkpt lat="45.2352" lon="5.75995">
        <ele>1231</ele>
        <time>2000-01-01T18:13:26.000Z</time>
      </trkpt>
      <trkpt lat="45.23509" lon="5.7601">
        <ele>1237.9</ele>
        <time>2000-01-01T18:13:36.000Z</time>
      </trkpt>
      <trkpt lat="45.23516" lon="5.75989">
        <ele>1228</ele>
        <time>2000-01-01T18:13:46.000Z</time>
      </trkpt>
      <trkpt lat="45.23534" lon="5.75958">
        <ele>1227</ele>
        <time>2000-01-01T18:13:56.000Z</time>
      </trkpt>
      <trkpt lat="45.23538" lon="5.75945">
        <ele>1230.3</ele>
        <time>2000-01-01T18:14:06.000Z</time>
      </trkpt>
      <trkpt lat="45.23539" lon="5.7592">
        <ele>1218</ele>
        <time>2000-01-01T18:14:16.000Z</time>
      </trkpt>
      <trkpt lat="45.23551" lon="5.75886">
        <ele>1213</ele>
        <time>2000-01-01T18:14:26.000Z</time>
      </trkpt>
      <trkpt lat="45.23569" lon="5.75857">
        <ele>1206</ele>
        <time>2000-01-01T18:14:36.000Z</time>
      </trkpt>
      <trkpt lat="45.23578" lon="5.75836">
        <ele>1209.6</ele>
        <time>2000-01-01T18:14:46.000Z</time>
      </trkpt>
      <trkpt lat="45.23585" lon="5.75811">
        <ele>1198</ele>
        <time>2000-01-01T18:14:56.000Z</time>
      </trkpt>
      <trkpt lat="45.23607" lon="5.75789">
        <ele>1189</ele>
        <time>2000-01-01T18:15:06.000Z</time>
      </trkpt>
      <trkpt lat="45.23606" lon="5.75783">
        <ele>1192.2</ele>
        <time>2000-01-01T18:15:16.000Z</time>
      </trkpt>
      <trkpt lat="45.23602" lon="5.75786">
        <ele>1192.6</ele>
        <time>2000-01-01T18:15:26.000Z</time>
      </trkpt>
      <trkpt lat="45.23567" lon="5.75795">
        <ele>1178</ele>
        <time>2000-01-01T18:15:36.000Z</time>
      </trkpt>
      <trkpt lat="45.23563" lon="5.75798">
        <ele>1185</ele>
        <time>2000-01-01T18:15:46.000Z</time>
      </trkpt>
      <trkpt lat="45.2356" lon="5.75797">
        <ele>1183.2</ele>
        <time>2000-01-01T18:15:56.000Z</time>
      </trkpt>
      <trkpt lat="45.2353" lon="5.75814">
        <ele>1171</ele>
        <time>2000-01-01T18:16:06.000Z</time>
      </trkpt>
      <trkpt lat="45.23521" lon="5.75815">
        <ele>1174.1</ele>
        <time>2000-01-01T18:16:16.000Z</time>
      </trkpt>
      <trkpt lat="45.2351" lon="5.75824">
        <ele>1165</ele>
        <time>2000-01-01T18:16:26.000Z</time>
      </trkpt>
      <trkpt lat="45.23492" lon="5.75833">
        <ele>1165</ele>
        <time>2000-01-01T18:16:36.000Z</time>
      </trkpt>
      <trkpt lat="45.2349" lon="5.75837">
        <ele>1167.1</ele>
        <time>2000-01-01T18:16:46.000Z</time>
      </trkpt>
      <trkpt lat="45.23478" lon="5.75838">
        <ele>1160.2</ele>
        <time>2000-01-01T18:16:56.000Z</time>
      </trkpt>
      <trkpt lat="45.23469" lon="5.75846">
        <ele>1150</ele>
        <time>2000-01-01T18:17:06.000Z</time>
      </trkpt>
      <trkpt lat="45.23459" lon="5.75851">
        <ele>1154.8</ele>
        <time>2000-01-01T18:17:16.000Z</time>
      </trkpt>
      <trkpt lat="45.2345" lon="5.7586">
        <ele>1148</ele>
        <time>2000-01-01T18:17:26.000Z</time>
      </trkpt>
      <trkpt lat="45.2344" lon="5.75865">
        <ele>1151</ele>
        <time>2000-01-01T18:17:36.000Z</time>
      </trkpt>
      <trkpt lat="45.23433" lon="5.75876">
        <ele>1147</ele>
        <time>2000-01-01T18:17:46.000Z</time>
      </trkpt>
      <trkpt lat="45.23416" lon="5.75879">
        <ele>1143.5</ele>
        <time>2000-01-01T18:17:56.000Z</time>
      </trkpt>
      <trkpt lat="45.23408" lon="5.75883">
        <ele>1136</ele>
        <time>2000-01-01T18:18:06.000Z</time>
      </trkpt>
      <trkpt lat="45.23399" lon="5.75882">
        <ele>1137.1</ele>
        <time>2000-01-01T18:18:16.000Z</time>
      </trkpt>
      <trkpt lat="45.23388" lon="5.75885">
        <ele>1127</ele>
        <time>2000-01-01T18:18:26.000Z</time>
      </trkpt>
      <trkpt lat="45.23382" lon="5.75894">
        <ele>1132.1</ele>
        <time>2000-01-01T18:18:36.000Z</time>
      </trkpt>
      <trkpt lat="45.23374" lon="5.75931">
        <ele>1126</ele>
        <time>2000-01-01T18:18:46.000Z</time>
      </trkpt>
      <trkpt lat="45.23372" lon="5.75937">
        <ele>1127.6</ele>
        <time>2000-01-01T18:18:56.000Z</time>
      </trkpt>
      <trkpt lat="45.2337" lon="5.75936">
        <ele>1126.3</ele>
        <time>2000-01-01T18:19:06.000Z</time>
      </trkpt>
      <trkpt lat="45.23367" lon="5.75918">
        <ele>1121</ele>
        <time>2000-01-01T18:19:16.000Z</time>
      </trkpt>
      <trkpt lat="45.23353" lon="5.75884">
        <ele>1112</ele>
        <time>2000-01-01T18:19:26.000Z</time>
      </trkpt>
      <trkpt lat="45.23351" lon="5.75865">
        <ele>1110.5</ele>
        <time>2000-01-01T18:19:36.000Z</time>
      </trkpt>
      <trkpt lat="45.23354" lon="5.75855">
        <ele>1105</ele>
        <time>2000-01-01T18:19:46.000Z</time>
      </trkpt>
      <trkpt lat="45.2337" lon="5.75838">
        <ele>1105</ele>
        <time>2000-01-01T18:19:56.000Z</time>
      </trkpt>
      <trkpt lat="45.23382" lon="5.75833">
        <ele>1110.6</ele>
        <time>2000-01-01T18:20:06.000Z</time>
      </trkpt>
      <trkpt lat="45.23386" lon="5.75835">
        <ele>1112.8</ele>
        <time>2000-01-01T18:20:16.000Z</time>
      </trkpt>
      <trkpt lat="45.23399" lon="5.75819">
        <ele>1101</ele>
        <time>2000-01-01T18:20:26.000Z</time>
      </trkpt>
      <trkpt lat="45.23407" lon="5.75777">
        <ele>1094</ele>
        <time>2000-01-01T18:20:36.000Z</time>
      </trkpt>
      <trkpt lat="45.23415" lon="5.75762">
        <ele>1094.8</ele>
        <time>2000-01-01T18:20:46.000Z</time>
      </trkpt>
      <trkpt lat="45.23422" lon="5.75738">
        <ele>1088</ele>
        <time>2000-01-01T18:20:56.000Z</time>
      </trkpt>
      <trkpt lat="45.23422" lon="5.7573">
        <ele>1089.4</ele>
        <time>2000-01-01T18:21:06.000Z</time>
      </trkpt>
      <trkpt lat="45.23437" lon="5.75691">
        <ele>1081</ele>
        <time>2000-01-01T18:21:16.000Z</time>
      </trkpt>
      <trkpt lat="45.23436" lon="5.75687">
        <ele>1082.3</ele>
        <time>2000-01-01T18:21:26.000Z</time>
      </trkpt>
      <trkpt lat="45.23434" lon="5.75688">
        <ele>1081.7</ele>
        <time>2000-01-01T18:21:36.000Z</time>
      </trkpt>
      <trkpt lat="45.23409" lon="5.75717">
        <ele>1068</ele>
        <time>2000-01-01T18:21:46.000Z</time>
      </trkpt>
      <trkpt lat="45.23399" lon="5.75722">
        <ele>1069.3</ele>
        <time>2000-01-01T18:21:56.000Z</time>
      </trkpt>
      <trkpt lat="45.23406" lon="5.75693">
        <ele>1063</ele>
        <time>2000-01-01T18:22:06.000Z</time>
      </trkpt>
      <trkpt lat="45.23414" lon="5.75679">
        <ele>1068.2</ele>
        <time>2000-01-01T18:22:16.000Z</time>
      </trkpt>
      <trkpt lat="45.23418" lon="5.75661">
        <ele>1063</ele>
        <time>2000-01-01T18:22:26.000Z</time>
      </trkpt>
      <trkpt lat="45.23423" lon="5.75655">
        <ele>1061.8</ele>
        <time>2000-01-01T18:22:36.000Z</time>
      </trkpt>
      <trkpt lat="45.23438" lon="5.75651">
        <ele>1063</ele>
        <time>2000-01-01T18:22:46.000Z</time>
      </trkpt>
      <trkpt lat="45.2345" lon="5.7564">
        <ele>1059.6</ele>
        <time>2000-01-01T18:22:56.000Z</time>
      </trkpt>
      <trkpt lat="45.23458" lon="5.75636">
        <ele>1059</ele>
        <time>2000-01-01T18:23:06.000Z</time>
      </trkpt>
      <trkpt lat="45.23479" lon="5.75633">
        <ele>1055</ele>
        <time>2000-01-01T18:23:16.000Z</time>
      </trkpt>
      <trkpt lat="45.23496" lon="5.75626">
        <ele>1053.1</ele>
        <time>2000-01-01T18:23:26.000Z</time>
      </trkpt>
      <trkpt lat="45.23501" lon="5.75627">
        <ele>1050</ele>
        <time>2000-01-01T18:23:36.000Z</time>
      </trkpt>
      <trkpt lat="45.23508" lon="5.75624">
        <ele>1051.2</ele>
        <time>2000-01-01T18:23:46.000Z</time>
      </trkpt>
      <trkpt lat="45.23512" lon="5.75626">
        <ele>1052.3</ele>
        <time>2000-01-01T18:23:56.000Z</time>
      </trkpt>
      <trkpt lat="45.23526" lon="5.75612">
        <ele>1040</ele>
        <time>2000-01-01T18:24:06.000Z</time>
      </trkpt>
      <trkpt lat="45.23535" lon="5.75611">
        <ele>1041.2</ele>
        <time>2000-01-01T18:24:16.000Z</time>
      </trkpt>
      <trkpt lat="45.23537" lon="5.75608">
        <ele>1039.4</ele>
        <time>2000-01-01T18:24:26.000Z</time>
      </trkpt>
      <trkpt lat="45.23525" lon="5.75597">
        <ele>1028</ele>
        <time>2000-01-01T18:24:36.000Z</time>
      </trkpt>
      <trkpt lat="45.23517" lon="5.75595">
        <ele>1030.9</ele>
        <time>2000-01-01T18:24:46.000Z</time>
      </trkpt>
      <trkpt lat="45.23506" lon="5.75585">
        <ele>1019</ele>
        <time>2000-01-01T18:24:56.000Z</time>
      </trkpt>
      <trkpt lat="45.23493" lon="5.75579">
        <ele>1019.3</ele>
        <time>2000-01-01T18:25:06.000Z</time>
      </trkpt>
      <trkpt lat="45.23486" lon="5.75581">
        <ele>1018</ele>
        <time>2000-01-01T18:25:16.000Z</time>
      </trkpt>
      <trkpt lat="45.23458" lon="5.75576">
        <ele>1009</ele>
        <time>2000-01-01T18:25:26.000Z</time>
      </trkpt>
      <trkpt lat="45.23427" lon="5.75576">
        <ele>1002</ele>
        <time>2000-01-01T18:25:36.000Z</time>
      </trkpt>
      <trkpt lat="45.23417" lon="5.75569">
        <ele>1000.8</ele>
        <time>2000-01-01T18:25:46.000Z</time>
      </trkpt>
      <trkpt lat="45.23409" lon="5.75568">
        <ele>989</ele>
        <time>2000-01-01T18:25:56.000Z</time>
      </trkpt>
      <trkpt lat="45.23398" lon="5.75569">
        <ele>994.3</ele>
        <time>2000-01-01T18:26:06.000Z</time>
      </trkpt>
      <trkpt lat="45.23373" lon="5.75578">
        <ele>983</ele>
        <time>2000-01-01T18:26:16.000Z</time>
      </trkpt>
      <trkpt lat="45.23367" lon="5.75578">
        <ele>986.8</ele>
        <time>2000-01-01T18:26:26.000Z</time>
      </trkpt>
      <trkpt lat="45.2336" lon="5.75584">
        <ele>986.7</ele>
        <time>2000-01-01T18:26:36.000Z</time>
      </trkpt>
      <trkpt lat="45.23338" lon="5.75593">
        <ele>973</ele>
        <time>2000-01-01T18:26:46.000Z</time>
      </trkpt>
      <trkpt lat="45.23347" lon="5.75582">
        <ele>978.2</ele>
        <time>2000-01-01T18:26:56.000Z</time>
      </trkpt>
      <trkpt lat="45.23356" lon="5.75576">
        <ele>972</ele>
        <time>2000-01-01T18:27:06.000Z</time>
      </trkpt>
      <trkpt lat="45.23363" lon="5.75561">
        <ele>975.7</ele>
        <time>2000-01-01T18:27:16.000Z</time>
      </trkpt>
      <trkpt lat="45.23376" lon="5.75554">
        <ele>972</ele>
        <time>2000-01-01T18:27:26.000Z</time>
      </trkpt>
      <trkpt lat="45.23411" lon="5.75513">
        <ele>962</ele>
        <time>2000-01-01T18:27:36.000Z</time>
      </trkpt>
      <trkpt lat="45.23426" lon="5.75506">
        <ele>963</ele>
        <time>2000-01-01T18:27:46.000Z</time>
      </trkpt>
      <trkpt lat="45.23434" lon="5.75506">
        <ele>960</ele>
        <time>2000-01-01T18:27:56.000Z</time>
      </trkpt>
      <trkpt lat="45.23446" lon="5.75499">
        <ele>960.5</ele>
        <time>2000-01-01T18:28:06.000Z</time>
      </trkpt>
      <trkpt lat="45.23457" lon="5.75498">
        <ele>953</ele>
        <time>2000-01-01T18:28:16.000Z</time>
      </trkpt>
      <trkpt lat="45.23463" lon="5.755">
        <ele>963</ele>
        <time>2000-01-01T18:28:26.000Z</time>
      </trkpt>
      <trkpt lat="45.23468" lon="5.75488">
        <ele>955.7</ele>
        <time>2000-01-01T18:28:36.000Z</time>
      </trkpt>
      <trkpt lat="45.2349" lon="5.75472">
        <ele>948</ele>
        <time>2000-01-01T18:28:46.000Z</time>
      </trkpt>
      <trkpt lat="45.23484" lon="5.75467">
        <ele>945.3</ele>
        <time>2000-01-01T18:28:56.000Z</time>
      </trkpt>
      <trkpt lat="45.23476" lon="5.75464">
        <ele>942.2</ele>
        <time>2000-01-01T18:29:06.000Z</time>
      </trkpt>
      <trkpt lat="45.23453" lon="5.75464">
        <ele>934</ele>
        <time>2000-01-01T18:29:16.000Z</time>
      </trkpt>
      <trkpt lat="45.23441" lon="5.75459">
        <ele>934.6</ele>
        <time>2000-01-01T18:29:26.000Z</time>
      </trkpt>
      <trkpt lat="45.23424" lon="5.75458">
        <ele>926</ele>
        <time>2000-01-01T18:29:36.000Z</time>
      </trkpt>
      <trkpt lat="45.23394" lon="5.75448">
        <ele>917</ele>
        <time>2000-01-01T18:29:46.000Z</time>
      </trkpt>
      <trkpt lat="45.23386" lon="5.75453">
        <ele>921.8</ele>
        <time>2000-01-01T18:29:56.000Z</time>
      </trkpt>
      <trkpt lat="45.2337" lon="5.75451">
        <ele>915</ele>
        <time>2000-01-01T18:30:06.000Z</time>
      </trkpt>
      <trkpt lat="45.23359" lon="5.75454">
        <ele>914.8</ele>
        <time>2000-01-01T18:30:16.000Z</time>
      </trkpt>
      <trkpt lat="45.23336" lon="5.75455">
        <ele>904</ele>
        <time>2000-01-01T18:30:26.000Z</time>
      </trkpt>
      <trkpt lat="45.23329" lon="5.75459">
        <ele>907.7</ele>
        <time>2000-01-01T18:30:36.000Z</time>
      </trkpt>
      <trkpt lat="45.23304" lon="5.75462">
        <ele>896</ele>
        <time>2000-01-01T18:30:46.000Z</time>
      </trkpt>
      <trkpt lat="45.23292" lon="5.75473">
        <ele>898</ele>
        <time>2000-01-01T18:30:56.000Z</time>
      </trkpt>
      <trkpt lat="45.23271" lon="5.75484">
        <ele>889</ele>
        <time>2000-01-01T18:31:06.000Z</time>
      </trkpt>
      <trkpt lat="45.23272" lon="5.75479">
        <ele>890</ele>
        <time>2000-01-01T18:31:16.000Z</time>
      </trkpt>
      <trkpt lat="45.23277" lon="5.75476">
        <ele>892</ele>
        <time>2000-01-01T18:31:26.000Z</time>
      </trkpt>
      <trkpt lat="45.23283" lon="5.75466">
        <ele>891.4</ele>
        <time>2000-01-01T18:31:36.000Z</time>
      </trkpt>
      <trkpt lat="45.23286" lon="5.75455">
        <ele>888</ele>
        <time>2000-01-01T18:31:46.000Z</time>
      </trkpt>
      <trkpt lat="45.23299" lon="5.75438">
        <ele>889.1</ele>
        <time>2000-01-01T18:31:56.000Z</time>
      </trkpt>
      <trkpt lat="45.23301" lon="5.7543">
        <ele>887</ele>
        <time>2000-01-01T18:32:06.000Z</time>
      </trkpt>
      <trkpt lat="45.23318" lon="5.754">
        <ele>875</ele>
        <time>2000-01-01T18:32:16.000Z</time>
      </trkpt>
      <trkpt lat="45.23326" lon="5.75391">
        <ele>879.3</ele>
        <time>2000-01-01T18:32:26.000Z</time>
      </trkpt>
      <trkpt lat="45.23332" lon="5.75378">
        <ele>869</ele>
        <time>2000-01-01T18:32:36.000Z</time>
      </trkpt>
      <trkpt lat="45.2334" lon="5.75372">
        <ele>873.2</ele>
        <time>2000-01-01T18:32:46.000Z</time>
      </trkpt>
      <trkpt lat="45.23349" lon="5.75369">
        <ele>873.3</ele>
        <time>2000-01-01T18:32:56.000Z</time>
      </trkpt>
      <trkpt lat="45.23379" lon="5.75343">
        <ele>860</ele>
        <time>2000-01-01T18:33:06.000Z</time>
      </trkpt>
      <trkpt lat="45.23382" lon="5.75345">
        <ele>865.8</ele>
        <time>2000-01-01T18:33:16.000Z</time>
      </trkpt>
      <trkpt lat="45.23386" lon="5.75344">
        <ele>865.8</ele>
        <time>2000-01-01T18:33:26.000Z</time>
      </trkpt>
      <trkpt lat="45.23399" lon="5.75332">
        <ele>860</ele>
        <time>2000-01-01T18:33:36.000Z</time>
      </trkpt>
      <trkpt lat="45.23402" lon="5.75333">
        <ele>863.2</ele>
        <time>2000-01-01T18:33:46.000Z</time>
      </trkpt>
      <trkpt lat="45.23416" lon="5.75324">
        <ele>864.1</ele>
        <time>2000-01-01T18:33:56.000Z</time>
      </trkpt>
      <trkpt lat="45.23421" lon="5.75313">
        <ele>852</ele>
        <time>2000-01-01T18:34:06.000Z</time>
      </trkpt>
      <trkpt lat="45.23421" lon="5.75287">
        <ele>853.2</ele>
        <time>2000-01-01T18:34:16.000Z</time>
      </trkpt>
      <trkpt lat="45.23435" lon="5.75261">
        <ele>844</ele>
        <time>2000-01-01T18:34:26.000Z</time>
      </trkpt>
      <trkpt lat="45.23446" lon="5.75249">
        <ele>843</ele>
        <time>2000-01-01T18:34:36.000Z</time>
      </trkpt>
      <trkpt lat="45.23451" lon="5.75228">
        <ele>833</ele>
        <time>2000-01-01T18:34:46.000Z</time>
      </trkpt>
      <trkpt lat="45.23458" lon="5.75219">
        <ele>835.8</ele>
        <time>2000-01-01T18:34:56.000Z</time>
      </trkpt>
      <trkpt lat="45.23495" lon="5.75189">
        <ele>827</ele>
        <time>2000-01-01T18:35:06.000Z</time>
      </trkpt>
      <trkpt lat="45.23504" lon="5.75176">
        <ele>826.8</ele>
        <time>2000-01-01T18:35:16.000Z</time>
      </trkpt>
      <trkpt lat="45.23518" lon="5.75162">
        <ele>822</ele>
        <time>2000-01-01T18:35:26.000Z</time>
      </trkpt>
      <trkpt lat="45.23531" lon="5.75154">
        <ele>818.7</ele>
        <time>2000-01-01T18:35:36.000Z</time>
      </trkpt>
      <trkpt lat="45.2355" lon="5.75136">
        <ele>808</ele>
        <time>2000-01-01T18:35:46.000Z</time>
      </trkpt>
      <trkpt lat="45.23566" lon="5.75127">
        <ele>803.4</ele>
        <time>2000-01-01T18:35:56.000Z</time>
      </trkpt>
      <trkpt lat="45.2358" lon="5.75126">
        <ele>800</ele>
        <time>2000-01-01T18:36:06.000Z</time>
      </trkpt>
      <trkpt lat="45.23582" lon="5.75116">
        <ele>794.7</ele>
        <time>2000-01-01T18:36:16.000Z</time>
      </trkpt>
      <trkpt lat="45.23569" lon="5.75106">
        <ele>784</ele>
        <time>2000-01-01T18:36:26.000Z</time>
      </trkpt>
      <trkpt lat="45.23544" lon="5.75076">
        <ele>781</ele>
        <time>2000-01-01T18:36:36.000Z</time>
      </trkpt>
      <trkpt lat="45.23559" lon="5.75078">
        <ele>780.8</ele>
        <time>2000-01-01T18:36:46.000Z</time>
      </trkpt>
      <trkpt lat="45.23561" lon="5.7507">
        <ele>781</ele>
        <time>2000-01-01T18:36:56.000Z</time>
      </trkpt>
      <trkpt lat="45.23545" lon="5.75058">
        <ele>787.5</ele>
        <time>2000-01-01T18:37:06.000Z</time>
      </trkpt>
      <trkpt lat="45.23531" lon="5.75052">
        <ele>780</ele>
        <time>2000-01-01T18:37:16.000Z</time>
      </trkpt>
      <trkpt lat="45.23514" lon="5.75052">
        <ele>787.3</ele>
        <time>2000-01-01T18:37:26.000Z</time>
      </trkpt>
      <trkpt lat="45.23489" lon="5.75066">
        <ele>780</ele>
        <time>2000-01-01T18:37:36.000Z</time>
      </trkpt>
      <trkpt lat="45.23452" lon="5.7506">
        <ele>775</ele>
        <time>2000-01-01T18:37:46.000Z</time>
      </trkpt>
      <trkpt lat="45.23439" lon="5.75063">
        <ele>773.9</ele>
        <time>2000-01-01T18:37:56.000Z</time>
      </trkpt>
      <trkpt lat="45.23431" lon="5.75072">
        <ele>771</ele>
        <time>2000-01-01T18:38:06.000Z</time>
      </trkpt>
      <trkpt lat="45.23427" lon="5.75074">
        <ele>772.2</ele>
        <time>2000-01-01T18:38:16.000Z</time>
      </trkpt>
      <trkpt lat="45.23423" lon="5.75072">
        <ele>772.1</ele>
        <time>2000-01-01T18:38:26.000Z</time>
      </trkpt>
      <trkpt lat="45.23425" lon="5.75078">
        <ele>771.7</ele>
        <time>2000-01-01T18:38:36.000Z</time>
      </trkpt>
      <trkpt lat="45.23417" lon="5.75078">
        <ele>771</ele>
        <time>2000-01-01T18:38:46.000Z</time>
      </trkpt>
      <trkpt lat="45.23408" lon="5.7507">
        <ele>772.1</ele>
        <time>2000-01-01T18:38:56.000Z</time>
      </trkpt>
      <trkpt lat="45.23399" lon="5.7507">
        <ele>771</ele>
        <time>2000-01-01T18:39:06.000Z</time>
      </trkpt>
      <trkpt lat="45.23392" lon="5.75067">
        <ele>772.7</ele>
        <time>2000-01-01T18:39:16.000Z</time>
      </trkpt>
      <trkpt lat="45.23385" lon="5.75072">
        <ele>772</ele>
        <time>2000-01-01T18:39:26.000Z</time>
      </trkpt>
      <trkpt lat="45.23384" lon="5.75086">
        <ele>770</ele>
        <time>2000-01-01T18:39:36.000Z</time>
      </trkpt>
      <trkpt lat="45.23377" lon="5.75091">
        <ele>770.7</ele>
        <time>2000-01-01T18:39:46.000Z</time>
      </trkpt>
      <trkpt lat="45.23321" lon="5.75092">
        <ele>768</ele>
        <time>2000-01-01T18:39:56.000Z</time>
      </trkpt>
      <trkpt lat="45.23319" lon="5.75087">
        <ele>766.1</ele>
        <time>2000-01-01T18:40:06.000Z</time>
      </trkpt>
      <trkpt lat="45.23329" lon="5.75064">
        <ele>769</ele>
        <time>2000-01-01T18:40:16.000Z</time>
      </trkpt>
      <trkpt lat="45.23328" lon="5.75036">
        <ele>771</ele>
        <time>2000-01-01T18:40:26.000Z</time>
      </trkpt>
      <trkpt lat="45.23315" lon="5.75016">
        <ele>772</ele>
        <time>2000-01-01T18:40:36.000Z</time>
      </trkpt>
      <trkpt lat="45.233" lon="5.74987">
        <ele>774</ele>
        <time>2000-01-01T18:40:46.000Z</time>
      </trkpt>
      <trkpt lat="45.23282" lon="5.74952">
        <ele>780</ele>
        <time>2000-01-01T18:40:56.000Z</time>
      </trkpt>
      <trkpt lat="45.23253" lon="5.74912">
        <ele>781</ele>
        <time>2000-01-01T18:41:06.000Z</time>
      </trkpt>
      <trkpt lat="45.23246" lon="5.74896">
        <ele>787.6</ele>
        <time>2000-01-01T18:41:16.000Z</time>
      </trkpt>
      <trkpt lat="45.23242" lon="5.74911">
        <ele>782</ele>
        <time>2000-01-01T18:41:26.000Z</time>
      </trkpt>
      <trkpt lat="45.23242" lon="5.74908">
        <ele>783</ele>
        <time>2000-01-01T18:41:36.000Z</time>
      </trkpt>
      <trkpt lat="45.23236" lon="5.74911">
        <ele>780.4</ele>
        <time>2000-01-01T18:41:46.000Z</time>
      </trkpt>
      <trkpt lat="45.2323" lon="5.74896">
        <ele>783</ele>
        <time>2000-01-01T18:41:56.000Z</time>
      </trkpt>
      <trkpt lat="45.2323" lon="5.74886">
        <ele>784.7</ele>
        <time>2000-01-01T18:42:06.000Z</time>
      </trkpt>
      <trkpt lat="45.23225" lon="5.74881">
        <ele>784.3</ele>
        <time>2000-01-01T18:42:16.000Z</time>
      </trkpt>
      <trkpt lat="45.23224" lon="5.74866">
        <ele>787</ele>
        <time>2000-01-01T18:42:26.000Z</time>
      </trkpt>
      <trkpt lat="45.2322" lon="5.74856">
        <ele>790.7</ele>
        <time>2000-01-01T18:42:36.000Z</time>
      </trkpt>
      <trkpt lat="45.23213" lon="5.74851">
        <ele>791.4</ele>
        <time>2000-01-01T18:42:46.000Z</time>
      </trkpt>
      <trkpt lat="45.23199" lon="5.74849">
        <ele>789</ele>
        <time>2000-01-01T18:42:56.000Z</time>
      </trkpt>
      <trkpt lat="45.23186" lon="5.74832">
        <ele>791.8</ele>
        <time>2000-01-01T18:43:06.000Z</time>
      </trkpt>
      <trkpt lat="45.23173" lon="5.74796">
        <ele>793</ele>
        <time>2000-01-01T18:43:16.000Z</time>
      </trkpt>
      <trkpt lat="45.23167" lon="5.74789">
        <ele>797.5</ele>
        <time>2000-01-01T18:43:26.000Z</time>
      </trkpt>
      <trkpt lat="45.23168" lon="5.74787">
        <ele>798.6</ele>
        <time>2000-01-01T18:43:36.000Z</time>
      </trkpt>
      <trkpt lat="45.23147" lon="5.74762">
        <ele>797</ele>
        <time>2000-01-01T18:43:46.000Z</time>
      </trkpt>
      <trkpt lat="45.23146" lon="5.74755">
        <ele>800.3</ele>
        <time>2000-01-01T18:43:56.000Z</time>
      </trkpt>
      <trkpt lat="45.23127" lon="5.74719">
        <ele>804</ele>
        <time>2000-01-01T18:44:06.000Z</time>
      </trkpt>
      <trkpt lat="45.23106" lon="5.74696">
        <ele>804</ele>
        <time>2000-01-01T18:44:16.000Z</time>
      </trkpt>
      <trkpt lat="45.23099" lon="5.74693">
        <ele>802.8</ele>
        <time>2000-01-01T18:44:26.000Z</time>
      </trkpt>
      <trkpt lat="45.23084" lon="5.74661">
        <ele>808</ele>
        <time>2000-01-01T18:44:36.000Z</time>
      </trkpt>
      <trkpt lat="45.23069" lon="5.74636">
        <ele>812</ele>
        <time>2000-01-01T18:44:46.000Z</time>
      </trkpt>
      <trkpt lat="45.23059" lon="5.7463">
        <ele>812.8</ele>
        <time>2000-01-01T18:44:56.000Z</time>
      </trkpt>
      <trkpt lat="45.23034" lon="5.74602">
        <ele>810</ele>
        <time>2000-01-01T18:45:06.000Z</time>
      </trkpt>
      <trkpt lat="45.2302" lon="5.74594">
        <ele>812.9</ele>
        <time>2000-01-01T18:45:16.000Z</time>
      </trkpt>
      <trkpt lat="45.23014" lon="5.74594">
        <ele>815</ele>
        <time>2000-01-01T18:45:26.000Z</time>
      </trkpt>
      <trkpt lat="45.23005" lon="5.74579">
        <ele>813.7</ele>
        <time>2000-01-01T18:45:36.000Z</time>
      </trkpt>
      <trkpt lat="45.22998" lon="5.74552">
        <ele>817</ele>
        <time>2000-01-01T18:45:46.000Z</time>
      </trkpt>
      <trkpt lat="45.22986" lon="5.74552">
        <ele>819.6</ele>
        <time>2000-01-01T18:45:56.000Z</time>
      </trkpt>
      <trkpt lat="45.22974" lon="5.74542">
        <ele>819</ele>
        <time>2000-01-01T18:46:06.000Z</time>
      </trkpt>
      <trkpt lat="45.22971" lon="5.74523">
        <ele>826.8</ele>
        <time>2000-01-01T18:46:16.000Z</time>
      </trkpt>
      <trkpt lat="45.22958" lon="5.74515">
        <ele>824</ele>
        <time>2000-01-01T18:46:26.000Z</time>
      </trkpt>
      <trkpt lat="45.22956" lon="5.74502">
        <ele>830.7</ele>
        <time>2000-01-01T18:46:36.000Z</time>
      </trkpt>
      <trkpt lat="45.22947" lon="5.74494">
        <ele>829</ele>
        <time>2000-01-01T18:46:46.000Z</time>
      </trkpt>
      <trkpt lat="45.22937" lon="5.74489">
        <ele>829.2</ele>
        <time>2000-01-01T18:46:56.000Z</time>
      </trkpt>
      <trkpt lat="45.22939" lon="5.74483">
        <ele>831.9</ele>
        <time>2000-01-01T18:47:06.000Z</time>
      </trkpt>
      <trkpt lat="45.22933" lon="5.74485">
        <ele>830</ele>
        <time>2000-01-01T18:47:16.000Z</time>
      </trkpt>
      <trkpt lat="45.2293" lon="5.74471">
        <ele>834.5</ele>
        <time>2000-01-01T18:47:26.000Z</time>
      </trkpt>
      <trkpt lat="45.22908" lon="5.74463">
        <ele>833</ele>
        <time>2000-01-01T18:47:36.000Z</time>
      </trkpt>
      <trkpt lat="45.22906" lon="5.74453">
        <ele>836.6</ele>
        <time>2000-01-01T18:47:46.000Z</time>
      </trkpt>
      <trkpt lat="45.22896" lon="5.7445">
        <ele>835.4</ele>
        <time>2000-01-01T18:47:56.000Z</time>
      </trkpt>
      <trkpt lat="45.22878" lon="5.74433">
        <ele>838</ele>
        <time>2000-01-01T18:48:06.000Z</time>
      </trkpt>
      <trkpt lat="45.22869" lon="5.74427">
        <ele>838.1</ele>
        <time>2000-01-01T18:48:16.000Z</time>
      </trkpt>
      <trkpt lat="45.22861" lon="5.74425">
        <ele>836.7</ele>
        <time>2000-01-01T18:48:26.000Z</time>
      </trkpt>
      <trkpt lat="45.22853" lon="5.74417">
        <ele>840</ele>
        <time>2000-01-01T18:48:36.000Z</time>
      </trkpt>
      <trkpt lat="45.22846" lon="5.74415">
        <ele>838.2</ele>
        <time>2000-01-01T18:48:46.000Z</time>
      </trkpt>
      <trkpt lat="45.22844" lon="5.74409">
        <ele>841</ele>
        <time>2000-01-01T18:48:56.000Z</time>
      </trkpt>
      <trkpt lat="45.22827" lon="5.74401">
        <ele>843</ele>
        <time>2000-01-01T18:49:06.000Z</time>
      </trkpt>
      <trkpt lat="45.22825" lon="5.74394">
        <ele>845.6</ele>
        <time>2000-01-01T18:49:16.000Z</time>
      </trkpt>
      <trkpt lat="45.22812" lon="5.74394">
        <ele>842.9</ele>
        <time>2000-01-01T18:49:26.000Z</time>
      </trkpt>
      <trkpt lat="45.22801" lon="5.74389">
        <ele>845</ele>
        <time>2000-01-01T18:49:36.000Z</time>
      </trkpt>
      <trkpt lat="45.22795" lon="5.74378">
        <ele>846.4</ele>
        <time>2000-01-01T18:49:46.000Z</time>
      </trkpt>
      <trkpt lat="45.22791" lon="5.74378">
        <ele>845.3</ele>
        <time>2000-01-01T18:49:56.000Z</time>
      </trkpt>
      <trkpt lat="45.2278" lon="5.74371">
        <ele>847</ele>
        <time>2000-01-01T18:50:06.000Z</time>
      </trkpt>
      <trkpt lat="45.22776" lon="5.74364">
        <ele>848.2</ele>
        <time>2000-01-01T18:50:16.000Z</time>
      </trkpt>
      <trkpt lat="45.22764" lon="5.74356">
        <ele>851</ele>
        <time>2000-01-01T18:50:26.000Z</time>
      </trkpt>
      <trkpt lat="45.22761" lon="5.74348">
        <ele>853.2</ele>
        <time>2000-01-01T18:50:36.000Z</time>
      </trkpt>
      <trkpt lat="45.22735" lon="5.74338">
        <ele>854</ele>
        <time>2000-01-01T18:50:46.000Z</time>
      </trkpt>
      <trkpt lat="45.22732" lon="5.74331">
        <ele>855.3</ele>
        <time>2000-01-01T18:50:56.000Z</time>
      </trkpt>
      <trkpt lat="45.22726" lon="5.7433">
        <ele>854.5</ele>
        <time>2000-01-01T18:51:06.000Z</time>
      </trkpt>
      <trkpt lat="45.22725" lon="5.74325">
        <ele>856.8</ele>
        <time>2000-01-01T18:51:16.000Z</time>
      </trkpt>
      <trkpt lat="45.2272" lon="5.7432">
        <ele>858</ele>
        <time>2000-01-01T18:51:26.000Z</time>
      </trkpt>
      <trkpt lat="45.22716" lon="5.74317">
        <ele>858.6</ele>
        <time>2000-01-01T18:51:36.000Z</time>
      </trkpt>
      <trkpt lat="45.22707" lon="5.74316">
        <ele>856.8</ele>
        <time>2000-01-01T18:51:46.000Z</time>
      </trkpt>
      <trkpt lat="45.227" lon="5.74306">
        <ele>862</ele>
        <time>2000-01-01T18:51:56.000Z</time>
      </trkpt>
      <trkpt lat="45.22667" lon="5.74273">
        <ele>865</ele>
        <time>2000-01-01T18:52:06.000Z</time>
      </trkpt>
      <trkpt lat="45.22657" lon="5.74273">
        <ele>864.8</ele>
        <time>2000-01-01T18:52:16.000Z</time>
      </trkpt>
      <trkpt lat="45.22637" lon="5.74265">
        <ele>867</ele>
        <time>2000-01-01T18:52:26.000Z</time>
      </trkpt>
      <trkpt lat="45.22629" lon="5.74265">
        <ele>869.1</ele>
        <time>2000-01-01T18:52:36.000Z</time>
      </trkpt>
      <trkpt lat="45.22624" lon="5.74261">
        <ele>870.6</ele>
        <time>2000-01-01T18:52:46.000Z</time>
      </trkpt>
      <trkpt lat="45.22612" lon="5.74261">
        <ele>869</ele>
        <time>2000-01-01T18:52:56.000Z</time>
      </trkpt>
      <trkpt lat="45.22611" lon="5.74259">
        <ele>871.4</ele>
        <time>2000-01-01T18:53:06.000Z</time>
      </trkpt>
      <trkpt lat="45.22572" lon="5.74248">
        <ele>877</ele>
        <time>2000-01-01T18:53:16.000Z</time>
      </trkpt>
      <trkpt lat="45.22557" lon="5.74236">
        <ele>878.1</ele>
        <time>2000-01-01T18:53:26.000Z</time>
      </trkpt>
      <trkpt lat="45.22536" lon="5.74231">
        <ele>877</ele>
        <time>2000-01-01T18:53:36.000Z</time>
      </trkpt>
      <trkpt lat="45.22522" lon="5.74221">
        <ele>880.4</ele>
        <time>2000-01-01T18:53:46.000Z</time>
      </trkpt>
      <trkpt lat="45.22512" lon="5.74218">
        <ele>883</ele>
        <time>2000-01-01T18:53:56.000Z</time>
      </trkpt>
      <trkpt lat="45.22491" lon="5.74196">
        <ele>884</ele>
        <time>2000-01-01T18:54:06.000Z</time>
      </trkpt>
      <trkpt lat="45.22482" lon="5.74192">
        <ele>884</ele>
        <time>2000-01-01T18:54:16.000Z</time>
      </trkpt>
      <trkpt lat="45.22469" lon="5.74175">
        <ele>886</ele>
        <time>2000-01-01T18:54:26.000Z</time>
      </trkpt>
      <trkpt lat="45.22465" lon="5.74163">
        <ele>889.7</ele>
        <time>2000-01-01T18:54:36.000Z</time>
      </trkpt>
      <trkpt lat="45.22431" lon="5.74124">
        <ele>892</ele>
        <time>2000-01-01T18:54:46.000Z</time>
      </trkpt>
      <trkpt lat="45.22428" lon="5.74114">
        <ele>893.8</ele>
        <time>2000-01-01T18:54:56.000Z</time>
      </trkpt>
      <trkpt lat="45.22423" lon="5.74107">
        <ele>894.5</ele>
        <time>2000-01-01T18:55:06.000Z</time>
      </trkpt>
      <trkpt lat="45.22396" lon="5.74076">
        <ele>897</ele>
        <time>2000-01-01T18:55:16.000Z</time>
      </trkpt>
      <trkpt lat="45.22385" lon="5.74065">
        <ele>897.3</ele>
        <time>2000-01-01T18:55:26.000Z</time>
      </trkpt>
      <trkpt lat="45.22381" lon="5.74064">
        <ele>895.8</ele>
        <time>2000-01-01T18:55:36.000Z</time>
      </trkpt>
      <trkpt lat="45.22374" lon="5.74055">
        <ele>896</ele>
        <time>2000-01-01T18:55:46.000Z</time>
      </trkpt>
      <trkpt lat="45.22365" lon="5.74035">
        <ele>900.5</ele>
        <time>2000-01-01T18:55:56.000Z</time>
      </trkpt>
      <trkpt lat="45.22349" lon="5.74021">
        <ele>896</ele>
        <time>2000-01-01T18:56:06.000Z</time>
      </trkpt>
      <trkpt lat="45.22343" lon="5.7402">
        <ele>898.8</ele>
        <time>2000-01-01T18:56:16.000Z</time>
      </trkpt>
      <trkpt lat="45.22307" lon="5.74002">
        <ele>896</ele>
        <time>2000-01-01T18:56:26.000Z</time>
      </trkpt>
      <trkpt lat="45.22291" lon="5.73999">
        <ele>893.6</ele>
        <time>2000-01-01T18:56:36.000Z</time>
      </trkpt>
      <trkpt lat="45.22273" lon="5.73984">
        <ele>892</ele>
        <time>2000-01-01T18:56:46.000Z</time>
      </trkpt>
      <trkpt lat="45.22267" lon="5.73983">
        <ele>891.3</ele>
        <time>2000-01-01T18:56:56.000Z</time>
      </trkpt>
      <trkpt lat="45.22256" lon="5.73975">
        <ele>890.7</ele>
        <time>2000-01-01T18:57:06.000Z</time>
      </trkpt>
      <trkpt lat="45.22244" lon="5.73973">
        <ele>890</ele>
        <time>2000-01-01T18:57:16.000Z</time>
      </trkpt>
      <trkpt lat="45.22234" lon="5.73963">
        <ele>887.1</ele>
        <time>2000-01-01T18:57:26.000Z</time>
      </trkpt>
      <trkpt lat="45.22222" lon="5.73942">
        <ele>889</ele>
        <time>2000-01-01T18:57:36.000Z</time>
      </trkpt>
      <trkpt lat="45.22214" lon="5.73941">
        <ele>885.3</ele>
        <time>2000-01-01T18:57:46.000Z</time>
      </trkpt>
      <trkpt lat="45.22209" lon="5.73925">
        <ele>888</ele>
        <time>2000-01-01T18:57:56.000Z</time>
      </trkpt>
      <trkpt lat="45.22204" lon="5.73918">
        <ele>888.6</ele>
        <time>2000-01-01T18:58:06.000Z</time>
      </trkpt>
      <trkpt lat="45.22198" lon="5.73917">
        <ele>885.8</ele>
        <time>2000-01-01T18:58:16.000Z</time>
      </trkpt>
      <trkpt lat="45.22191" lon="5.73907">
        <ele>888</ele>
        <time>2000-01-01T18:58:26.000Z</time>
      </trkpt>
      <trkpt lat="45.2218" lon="5.73902">
        <ele>885.4</ele>
        <time>2000-01-01T18:58:36.000Z</time>
      </trkpt>
      <trkpt lat="45.22171" lon="5.73901">
        <ele>881</ele>
        <time>2000-01-01T18:58:46.000Z</time>
      </trkpt>
      <trkpt lat="45.22155" lon="5.73893">
        <ele>881</ele>
        <time>2000-01-01T18:58:56.000Z</time>
      </trkpt>
      <trkpt lat="45.22143" lon="5.73894">
        <ele>880</ele>
        <time>2000-01-01T18:59:06.000Z</time>
      </trkpt>
      <trkpt lat="45.22136" lon="5.73892">
        <ele>876.1</ele>
        <time>2000-01-01T18:59:16.000Z</time>
      </trkpt>
      <trkpt lat="45.22111" lon="5.73878">
        <ele>879</ele>
        <time>2000-01-01T18:59:26.000Z</time>
      </trkpt>
      <trkpt lat="45.22098" lon="5.73877">
        <ele>873.4</ele>
        <time>2000-01-01T18:59:36.000Z</time>
      </trkpt>
      <trkpt lat="45.22089" lon="5.73872">
        <ele>876</ele>
        <time>2000-01-01T18:59:46.000Z</time>
      </trkpt>
      <trkpt lat="45.22077" lon="5.7387">
        <ele>871.1</ele>
        <time>2000-01-01T18:59:56.000Z</time>
      </trkpt>
      <trkpt lat="45.22053" lon="5.73854">
        <ele>873</ele>
        <time>2000-01-01T19:00:06.000Z</time>
      </trkpt>
      <trkpt lat="45.2204" lon="5.73852">
        <ele>870.6</ele>
        <time>2000-01-01T19:00:16.000Z</time>
      </trkpt>
      <trkpt lat="45.22033" lon="5.73847">
        <ele>872</ele>
        <time>2000-01-01T19:00:26.000Z</time>
      </trkpt>
      <trkpt lat="45.2202" lon="5.73831">
        <ele>874.6</ele>
        <time>2000-01-01T19:00:36.000Z</time>
      </trkpt>
      <trkpt lat="45.22011" lon="5.73832">
        <ele>872</ele>
        <time>2000-01-01T19:00:46.000Z</time>
      </trkpt>
      <trkpt lat="45.22007" lon="5.73827">
        <ele>873.8</ele>
        <time>2000-01-01T19:00:56.000Z</time>
      </trkpt>
      <trkpt lat="45.21999" lon="5.73827">
        <ele>872.3</ele>
        <time>2000-01-01T19:01:06.000Z</time>
      </trkpt>
      <trkpt lat="45.21985" lon="5.73813">
        <ele>877</ele>
        <time>2000-01-01T19:01:16.000Z</time>
      </trkpt>
      <trkpt lat="45.21972" lon="5.73775">
        <ele>880</ele>
        <time>2000-01-01T19:01:26.000Z</time>
      </trkpt>
      <trkpt lat="45.21967" lon="5.73764">
        <ele>889.5</ele>
        <time>2000-01-01T19:01:36.000Z</time>
      </trkpt>
      <trkpt lat="45.21957" lon="5.73751">
        <ele>883</ele>
        <time>2000-01-01T19:01:46.000Z</time>
      </trkpt>
      <trkpt lat="45.21955" lon="5.73737">
        <ele>892.2</ele>
        <time>2000-01-01T19:01:56.000Z</time>
      </trkpt>
      <trkpt lat="45.21951" lon="5.73733">
        <ele>891.7</ele>
        <time>2000-01-01T19:02:06.000Z</time>
      </trkpt>
      <trkpt lat="45.21935" lon="5.73729">
        <ele>889</ele>
        <time>2000-01-01T19:02:16.000Z</time>
      </trkpt>
      <trkpt lat="45.21932" lon="5.73715">
        <ele>894</ele>
        <time>2000-01-01T19:02:26.000Z</time>
      </trkpt>
      <trkpt lat="45.2193" lon="5.73716">
        <ele>893.1</ele>
        <time>2000-01-01T19:02:36.000Z</time>
      </trkpt>
      <trkpt lat="45.21919" lon="5.73709">
        <ele>901</ele>
        <time>2000-01-01T19:02:46.000Z</time>
      </trkpt>
      <trkpt lat="45.21913" lon="5.73708">
        <ele>895.2</ele>
        <time>2000-01-01T19:02:56.000Z</time>
      </trkpt>
      <trkpt lat="45.21908" lon="5.73703">
        <ele>897.8</ele>
        <time>2000-01-01T19:03:06.000Z</time>
      </trkpt>
      <trkpt lat="45.21892" lon="5.73698">
        <ele>900</ele>
        <time>2000-01-01T19:03:16.000Z</time>
      </trkpt>
      <trkpt lat="45.2188" lon="5.7368">
        <ele>901.4</ele>
        <time>2000-01-01T19:03:26.000Z</time>
      </trkpt>
      <trkpt lat="45.21857" lon="5.73658">
        <ele>904</ele>
        <time>2000-01-01T19:03:36.000Z</time>
      </trkpt>
      <trkpt lat="45.21851" lon="5.73648">
        <ele>900.4</ele>
        <time>2000-01-01T19:03:46.000Z</time>
      </trkpt>
      <trkpt lat="45.2184" lon="5.73614">
        <ele>903</ele>
        <time>2000-01-01T19:03:56.000Z</time>
      </trkpt>
      <trkpt lat="45.21827" lon="5.73601">
        <ele>903.7</ele>
        <time>2000-01-01T19:04:06.000Z</time>
      </trkpt>
      <trkpt lat="45.21824" lon="5.73593">
        <ele>903</ele>
        <time>2000-01-01T19:04:16.000Z</time>
      </trkpt>
      <trkpt lat="45.21818" lon="5.7359">
        <ele>905.2</ele>
        <time>2000-01-01T19:04:26.000Z</time>
      </trkpt>
      <trkpt lat="45.21808" lon="5.73573">
        <ele>906</ele>
        <time>2000-01-01T19:04:36.000Z</time>
      </trkpt>
      <trkpt lat="45.21805" lon="5.73572">
        <ele>908.2</ele>
        <time>2000-01-01T19:04:46.000Z</time>
      </trkpt>
      <trkpt lat="45.21805" lon="5.73558">
        <ele>913.8</ele>
        <time>2000-01-01T19:04:56.000Z</time>
      </trkpt>
      <trkpt lat="45.21801" lon="5.73556">
        <ele>912.5</ele>
        <time>2000-01-01T19:05:06.000Z</time>
      </trkpt>
      <trkpt lat="45.21798" lon="5.73543">
        <ele>913</ele>
        <time>2000-01-01T19:05:16.000Z</time>
      </trkpt>
      <trkpt lat="45.21786" lon="5.73521">
        <ele>914</ele>
        <time>2000-01-01T19:05:26.000Z</time>
      </trkpt>
      <trkpt lat="45.21752" lon="5.73521">
        <ele>915</ele>
        <time>2000-01-01T19:05:36.000Z</time>
      </trkpt>
      <trkpt lat="45.21743" lon="5.73511">
        <ele>918.3</ele>
        <time>2000-01-01T19:05:46.000Z</time>
      </trkpt>
      <trkpt lat="45.21738" lon="5.73512">
        <ele>916.1</ele>
        <time>2000-01-01T19:05:56.000Z</time>
      </trkpt>
      <trkpt lat="45.21731" lon="5.73509">
        <ele>920</ele>
        <time>2000-01-01T19:06:06.000Z</time>
      </trkpt>
      <trkpt lat="45.21717" lon="5.73492">
        <ele>920</ele>
        <time>2000-01-01T19:06:16.000Z</time>
      </trkpt>
      <trkpt lat="45.21711" lon="5.73488">
        <ele>918</ele>
        <time>2000-01-01T19:06:26.000Z</time>
      </trkpt>
      <trkpt lat="45.21706" lon="5.73486">
        <ele>920.8</ele>
        <time>2000-01-01T19:06:36.000Z</time>
      </trkpt>
      <trkpt lat="45.21698" lon="5.73488">
        <ele>918.2</ele>
        <time>2000-01-01T19:06:46.000Z</time>
      </trkpt>
      <trkpt lat="45.21688" lon="5.73485">
        <ele>916</ele>
        <time>2000-01-01T19:06:56.000Z</time>
      </trkpt>
      <trkpt lat="45.2168" lon="5.73478">
        <ele>915.6</ele>
        <time>2000-01-01T19:07:06.000Z</time>
      </trkpt>
      <trkpt lat="45.21673" lon="5.7347">
        <ele>913.9</ele>
        <time>2000-01-01T19:07:16.000Z</time>
      </trkpt>
      <trkpt lat="45.2167" lon="5.73459">
        <ele>914</ele>
        <time>2000-01-01T19:07:26.000Z</time>
      </trkpt>
      <trkpt lat="45.21666" lon="5.73426">
        <ele>912</ele>
        <time>2000-01-01T19:07:36.000Z</time>
      </trkpt>
      <trkpt lat="45.21649" lon="5.73394">
        <ele>908</ele>
        <time>2000-01-01T19:07:46.000Z</time>
      </trkpt>
      <trkpt lat="45.21638" lon="5.73382">
        <ele>911.5</ele>
        <time>2000-01-01T19:07:56.000Z</time>
      </trkpt>
      <trkpt lat="45.2162" lon="5.7337">
        <ele>907</ele>
        <time>2000-01-01T19:08:06.000Z</time>
      </trkpt>
      <trkpt lat="45.21597" lon="5.73342">
        <ele>897</ele>
        <time>2000-01-01T19:08:16.000Z</time>
      </trkpt>
      <trkpt lat="45.21584" lon="5.73332">
        <ele>898.9</ele>
        <time>2000-01-01T19:08:26.000Z</time>
      </trkpt>
      <trkpt lat="45.21571" lon="5.73324">
        <ele>897</ele>
        <time>2000-01-01T19:08:36.000Z</time>
      </trkpt>
      <trkpt lat="45.21552" lon="5.73325">
        <ele>894</ele>
        <time>2000-01-01T19:08:46.000Z</time>
      </trkpt>
      <trkpt lat="45.21549" lon="5.73318">
        <ele>892.3</ele>
        <time>2000-01-01T19:08:56.000Z</time>
      </trkpt>
      <trkpt lat="45.21539" lon="5.73316">
        <ele>890.3</ele>
        <time>2000-01-01T19:09:06.000Z</time>
      </trkpt>
      <trkpt lat="45.21522" lon="5.73306">
        <ele>891</ele>
        <time>2000-01-01T19:09:16.000Z</time>
      </trkpt>
      <trkpt lat="45.21515" lon="5.7326">
        <ele>891</ele>
        <time>2000-01-01T19:09:26.000Z</time>
      </trkpt>
      <trkpt lat="45.21498" lon="5.73235">
        <ele>882</ele>
        <time>2000-01-01T19:09:36.000Z</time>
      </trkpt>
      <trkpt lat="45.21481" lon="5.7321">
        <ele>879</ele>
        <time>2000-01-01T19:09:46.000Z</time>
      </trkpt>
      <trkpt lat="45.21482" lon="5.73198">
        <ele>881</ele>
        <time>2000-01-01T19:09:56.000Z</time>
      </trkpt>
      <trkpt lat="45.21479" lon="5.73182">
        <ele>870</ele>
        <time>2000-01-01T19:10:06.000Z</time>
      </trkpt>
      <trkpt lat="45.21471" lon="5.7317">
        <ele>876.3</ele>
        <time>2000-01-01T19:10:16.000Z</time>
      </trkpt>
      <trkpt lat="45.21462" lon="5.7317">
        <ele>866</ele>
        <time>2000-01-01T19:10:26.000Z</time>
      </trkpt>
      <trkpt lat="45.21459" lon="5.73166">
        <ele>867.9</ele>
        <time>2000-01-01T19:10:36.000Z</time>
      </trkpt>
      <trkpt lat="45.2145" lon="5.7317">
        <ele>859.5</ele>
        <time>2000-01-01T19:10:46.000Z</time>
      </trkpt>
      <trkpt lat="45.21444" lon="5.73167">
        <ele>867</ele>
        <time>2000-01-01T19:10:56.000Z</time>
      </trkpt>
      <trkpt lat="45.21442" lon="5.73164">
        <ele>856.5</ele>
        <time>2000-01-01T19:11:06.000Z</time>
      </trkpt>
      <trkpt lat="45.21443" lon="5.73149">
        <ele>867.9</ele>
        <time>2000-01-01T19:11:16.000Z</time>
      </trkpt>
      <trkpt lat="45.21422" lon="5.73137">
        <ele>864</ele>
        <time>2000-01-01T19:11:26.000Z</time>
      </trkpt>
      <trkpt lat="45.21418" lon="5.73126">
        <ele>866.5</ele>
        <time>2000-01-01T19:11:36.000Z</time>
      </trkpt>
      <trkpt lat="45.21396" lon="5.73096">
        <ele>862</ele>
        <time>2000-01-01T19:11:46.000Z</time>
      </trkpt>
      <trkpt lat="45.21388" lon="5.7309">
        <ele>859.8</ele>
        <time>2000-01-01T19:11:56.000Z</time>
      </trkpt>
      <trkpt lat="45.21382" lon="5.7308">
        <ele>859.8</ele>
        <time>2000-01-01T19:12:06.000Z</time>
      </trkpt>
      <trkpt lat="45.21382" lon="5.73075">
        <ele>859</ele>
        <time>2000-01-01T19:12:16.000Z</time>
      </trkpt>
      <trkpt lat="45.21365" lon="5.73056">
        <ele>856</ele>
        <time>2000-01-01T19:12:26.000Z</time>
      </trkpt>
      <trkpt lat="45.21348" lon="5.73027">
        <ele>847</ele>
        <time>2000-01-01T19:12:36.000Z</time>
      </trkpt>
      <trkpt lat="45.21324" lon="5.72997">
        <ele>841</ele>
        <time>2000-01-01T19:12:46.000Z</time>
      </trkpt>
      <trkpt lat="45.21293" lon="5.72966">
        <ele>830</ele>
        <time>2000-01-01T19:12:56.000Z</time>
      </trkpt>
      <trkpt lat="45.21282" lon="5.7296">
        <ele>828.3</ele>
        <time>2000-01-01T19:13:06.000Z</time>
      </trkpt>
      <trkpt lat="45.21272" lon="5.72948">
        <ele>824</ele>
        <time>2000-01-01T19:13:16.000Z</time>
      </trkpt>
      <trkpt lat="45.21265" lon="5.72948">
        <ele>822.9</ele>
        <time>2000-01-01T19:13:26.000Z</time>
      </trkpt>
      <trkpt lat="45.21254" lon="5.72939">
        <ele>818</ele>
        <time>2000-01-01T19:13:36.000Z</time>
      </trkpt>
      <trkpt lat="45.21236" lon="5.72932">
        <ele>814.1</ele>
        <time>2000-01-01T19:13:46.000Z</time>
      </trkpt>
      <trkpt lat="45.21226" lon="5.72917">
        <ele>812</ele>
        <time>2000-01-01T19:13:56.000Z</time>
      </trkpt>
      <trkpt lat="45.21212" lon="5.72912">
        <ele>809.5</ele>
        <time>2000-01-01T19:14:06.000Z</time>
      </trkpt>
      <trkpt lat="45.21213" lon="5.72918">
        <ele>809.7</ele>
        <time>2000-01-01T19:14:16.000Z</time>
      </trkpt>
      <trkpt lat="45.21223" lon="5.72936">
        <ele>811</ele>
        <time>2000-01-01T19:14:26.000Z</time>
      </trkpt>
      <trkpt lat="45.21222" lon="5.72938">
        <ele>809.3</ele>
        <time>2000-01-01T19:14:36.000Z</time>
      </trkpt>
      <trkpt lat="45.2121" lon="5.72935">
        <ele>804.5</ele>
        <time>2000-01-01T19:14:46.000Z</time>
      </trkpt>
      <trkpt lat="45.21201" lon="5.72922">
        <ele>802</ele>
        <time>2000-01-01T19:14:56.000Z</time>
      </trkpt>
      <trkpt lat="45.21177" lon="5.72899">
        <ele>796</ele>
        <time>2000-01-01T19:15:06.000Z</time>
      </trkpt>
      <trkpt lat="45.21169" lon="5.72898">
        <ele>795.4</ele>
        <time>2000-01-01T19:15:16.000Z</time>
      </trkpt>
      <trkpt lat="45.21125" lon="5.72874">
        <ele>786</ele>
        <time>2000-01-01T19:15:26.000Z</time>
      </trkpt>
      <trkpt lat="45.21107" lon="5.72856">
        <ele>781</ele>
        <time>2000-01-01T19:15:36.000Z</time>
      </trkpt>
      <trkpt lat="45.21104" lon="5.72856">
        <ele>783.3</ele>
        <time>2000-01-01T19:15:46.000Z</time>
      </trkpt>
      <trkpt lat="45.2108" lon="5.72829">
        <ele>778</ele>
        <time>2000-01-01T19:15:56.000Z</time>
      </trkpt>
      <trkpt lat="45.21076" lon="5.72816">
        <ele>779.4</ele>
        <time>2000-01-01T19:16:06.000Z</time>
      </trkpt>
      <trkpt lat="45.21072" lon="5.72811">
        <ele>779.1</ele>
        <time>2000-01-01T19:16:16.000Z</time>
      </trkpt>
      <trkpt lat="45.2105" lon="5.72744">
        <ele>771</ele>
        <time>2000-01-01T19:16:26.000Z</time>
      </trkpt>
      <trkpt lat="45.21041" lon="5.72736">
        <ele>769.8</ele>
        <time>2000-01-01T19:16:36.000Z</time>
      </trkpt>
      <trkpt lat="45.21036" lon="5.72736">
        <ele>768.3</ele>
        <time>2000-01-01T19:16:46.000Z</time>
      </trkpt>
      <trkpt lat="45.2103" lon="5.72732">
        <ele>762</ele>
        <time>2000-01-01T19:16:56.000Z</time>
      </trkpt>
      <trkpt lat="45.2102" lon="5.72735">
        <ele>762.9</ele>
        <time>2000-01-01T19:17:06.000Z</time>
      </trkpt>
      <trkpt lat="45.21014" lon="5.72734">
        <ele>760.5</ele>
        <time>2000-01-01T19:17:16.000Z</time>
      </trkpt>
      <trkpt lat="45.21011" lon="5.72738">
        <ele>759</ele>
        <time>2000-01-01T19:17:26.000Z</time>
      </trkpt>
      <trkpt lat="45.21004" lon="5.72741">
        <ele>758.3</ele>
        <time>2000-01-01T19:17:36.000Z</time>
      </trkpt>
      <trkpt lat="45.21003" lon="5.72747">
        <ele>758.9</ele>
        <time>2000-01-01T19:17:46.000Z</time>
      </trkpt>
      <trkpt lat="45.20995" lon="5.72747">
        <ele>755</ele>
        <time>2000-01-01T19:17:56.000Z</time>
      </trkpt>
      <trkpt lat="45.20991" lon="5.72752">
        <ele>753.9</ele>
        <time>2000-01-01T19:18:06.000Z</time>
      </trkpt>
      <trkpt lat="45.20976" lon="5.72734">
        <ele>741</ele>
        <time>2000-01-01T19:18:16.000Z</time>
      </trkpt>
      <trkpt lat="45.20966" lon="5.72714">
        <ele>740.4</ele>
        <time>2000-01-01T19:18:26.000Z</time>
      </trkpt>
      <trkpt lat="45.20954" lon="5.72705">
        <ele>731</ele>
        <time>2000-01-01T19:18:36.000Z</time>
      </trkpt>
      <trkpt lat="45.20945" lon="5.7269">
        <ele>731</ele>
        <time>2000-01-01T19:18:46.000Z</time>
      </trkpt>
      <trkpt lat="45.2093" lon="5.72679">
        <ele>726</ele>
        <time>2000-01-01T19:18:56.000Z</time>
      </trkpt>
      <trkpt lat="45.20921" lon="5.72667">
        <ele>725.8</ele>
        <time>2000-01-01T19:19:06.000Z</time>
      </trkpt>
      <trkpt lat="45.20901" lon="5.7267">
        <ele>722</ele>
        <time>2000-01-01T19:19:16.000Z</time>
      </trkpt>
      <trkpt lat="45.20894" lon="5.72668">
        <ele>720.1</ele>
        <time>2000-01-01T19:19:26.000Z</time>
      </trkpt>
      <trkpt lat="45.20841" lon="5.7269">
        <ele>705</ele>
        <time>2000-01-01T19:19:36.000Z</time>
      </trkpt>
      <trkpt lat="45.20839" lon="5.72689">
        <ele>706.5</ele>
        <time>2000-01-01T19:19:46.000Z</time>
      </trkpt>
      <trkpt lat="45.20836" lon="5.72663">
        <ele>698</ele>
        <time>2000-01-01T19:19:56.000Z</time>
      </trkpt>
      <trkpt lat="45.2083" lon="5.72648">
        <ele>697.8</ele>
        <time>2000-01-01T19:20:06.000Z</time>
      </trkpt>
      <trkpt lat="45.20827" lon="5.72658">
        <ele>694</ele>
        <time>2000-01-01T19:20:16.000Z</time>
      </trkpt>
      <trkpt lat="45.2081" lon="5.72664">
        <ele>692.3</ele>
        <time>2000-01-01T19:20:26.000Z</time>
      </trkpt>
      <trkpt lat="45.20808" lon="5.72641">
        <ele>683</ele>
        <time>2000-01-01T19:20:36.000Z</time>
      </trkpt>
      <trkpt lat="45.20801" lon="5.72624">
        <ele>683.3</ele>
        <time>2000-01-01T19:20:46.000Z</time>
      </trkpt>
      <trkpt lat="45.20797" lon="5.72622">
        <ele>681.1</ele>
        <time>2000-01-01T19:20:56.000Z</time>
      </trkpt>
      <trkpt lat="45.20798" lon="5.72628">
        <ele>679</ele>
        <time>2000-01-01T19:21:06.000Z</time>
      </trkpt>
      <trkpt lat="45.20792" lon="5.72635">
        <ele>681</ele>
        <time>2000-01-01T19:21:16.000Z</time>
      </trkpt>
      <trkpt lat="45.2078" lon="5.72641">
        <ele>672</ele>
        <time>2000-01-01T19:21:26.000Z</time>
      </trkpt>
      <trkpt lat="45.20775" lon="5.7264">
        <ele>675</ele>
        <time>2000-01-01T19:21:36.000Z</time>
      </trkpt>
      <trkpt lat="45.20778" lon="5.72622">
        <ele>672.7</ele>
        <time>2000-01-01T19:21:46.000Z</time>
      </trkpt>
      <trkpt lat="45.20775" lon="5.72609">
        <ele>666</ele>
        <time>2000-01-01T19:21:56.000Z</time>
      </trkpt>
      <trkpt lat="45.2075" lon="5.72613">
        <ele>661</ele>
        <time>2000-01-01T19:22:06.000Z</time>
      </trkpt>
      <trkpt lat="45.20747" lon="5.72611">
        <ele>661.3</ele>
        <time>2000-01-01T19:22:16.000Z</time>
      </trkpt>
      <trkpt lat="45.20743" lon="5.72589">
        <ele>655</ele>
        <time>2000-01-01T19:22:26.000Z</time>
      </trkpt>
      <trkpt lat="45.20714" lon="5.72576">
        <ele>647</ele>
        <time>2000-01-01T19:22:36.000Z</time>
      </trkpt>
      <trkpt lat="45.20703" lon="5.72566">
        <ele>645.9</ele>
        <time>2000-01-01T19:22:46.000Z</time>
      </trkpt>
      <trkpt lat="45.20693" lon="5.72563">
        <ele>643</ele>
        <time>2000-01-01T19:22:56.000Z</time>
      </trkpt>
      <trkpt lat="45.20684" lon="5.72565">
        <ele>642</ele>
        <time>2000-01-01T19:23:06.000Z</time>
      </trkpt>
      <trkpt lat="45.20682" lon="5.72563">
        <ele>641.3</ele>
        <time>2000-01-01T19:23:16.000Z</time>
      </trkpt>
      <trkpt lat="45.20675" lon="5.72567">
        <ele>638</ele>
        <time>2000-01-01T19:23:26.000Z</time>
      </trkpt>
      <trkpt lat="45.20652" lon="5.72599">
        <ele>638</ele>
        <time>2000-01-01T19:23:36.000Z</time>
      </trkpt>
      <trkpt lat="45.20636" lon="5.72605">
        <ele>636.8</ele>
        <time>2000-01-01T19:23:46.000Z</time>
      </trkpt>
      <trkpt lat="45.20616" lon="5.72596">
        <ele>634</ele>
        <time>2000-01-01T19:23:56.000Z</time>
      </trkpt>
      <trkpt lat="45.20578" lon="5.72563">
        <ele>630</ele>
        <time>2000-01-01T19:24:06.000Z</time>
      </trkpt>
      <trkpt lat="45.20549" lon="5.72554">
        <ele>630</ele>
        <time>2000-01-01T19:24:16.000Z</time>
      </trkpt>
      <trkpt lat="45.2054" lon="5.72557">
        <ele>629.7</ele>
        <time>2000-01-01T19:24:26.000Z</time>
      </trkpt>
      <trkpt lat="45.20535" lon="5.72566">
        <ele>627.6</ele>
        <time>2000-01-01T19:24:36.000Z</time>
      </trkpt>
      <trkpt lat="45.20513" lon="5.72574">
        <ele>627</ele>
        <time>2000-01-01T19:24:46.000Z</time>
      </trkpt>
      <trkpt lat="45.20495" lon="5.72566">
        <ele>625.2</ele>
        <time>2000-01-01T19:24:56.000Z</time>
      </trkpt>
      <trkpt lat="45.20472" lon="5.72548">
        <ele>622</ele>
        <time>2000-01-01T19:25:06.000Z</time>
      </trkpt>
      <trkpt lat="45.20445" lon="5.72507">
        <ele>617</ele>
        <time>2000-01-01T19:25:16.000Z</time>
      </trkpt>
      <trkpt lat="45.20441" lon="5.72511">
        <ele>618.3</ele>
        <time>2000-01-01T19:25:26.000Z</time>
      </trkpt>
      <trkpt lat="45.20444" lon="5.72545">
        <ele>613</ele>
        <time>2000-01-01T19:25:36.000Z</time>
      </trkpt>
      <trkpt lat="45.2045" lon="5.72559">
        <ele>613.1</ele>
        <time>2000-01-01T19:25:46.000Z</time>
      </trkpt>
      <trkpt lat="45.20465" lon="5.72582">
        <ele>611</ele>
        <time>2000-01-01T19:25:56.000Z</time>
      </trkpt>
      <trkpt lat="45.20478" lon="5.72611">
        <ele>605</ele>
        <time>2000-01-01T19:26:06.000Z</time>
      </trkpt>
      <trkpt lat="45.20486" lon="5.72622">
        <ele>603.4</ele>
        <time>2000-01-01T19:26:16.000Z</time>
      </trkpt>
      <trkpt lat="45.20504" lon="5.72633">
        <ele>602</ele>
        <time>2000-01-01T19:26:26.000Z</time>
      </trkpt>
      <trkpt lat="45.20512" lon="5.72634">
        <ele>603.7</ele>
        <time>2000-01-01T19:26:36.000Z</time>
      </trkpt>
      <trkpt lat="45.2054" lon="5.72674">
        <ele>600</ele>
        <time>2000-01-01T19:26:46.000Z</time>
      </trkpt>
      <trkpt lat="45.20548" lon="5.72679">
        <ele>597.9</ele>
        <time>2000-01-01T19:26:56.000Z</time>
      </trkpt>
      <trkpt lat="45.20565" lon="5.72702">
        <ele>597</ele>
        <time>2000-01-01T19:27:06.000Z</time>
      </trkpt>
      <trkpt lat="45.20571" lon="5.72703">
        <ele>596.1</ele>
        <time>2000-01-01T19:27:16.000Z</time>
      </trkpt>
      <trkpt lat="45.20578" lon="5.7271">
        <ele>596</ele>
        <time>2000-01-01T19:27:26.000Z</time>
      </trkpt>
      <trkpt lat="45.20576" lon="5.72714">
        <ele>593.8</ele>
        <time>2000-01-01T19:27:36.000Z</time>
      </trkpt>
      <trkpt lat="45.20571" lon="5.72711">
        <ele>595</ele>
        <time>2000-01-01T19:27:46.000Z</time>
      </trkpt>
      <trkpt lat="45.2054" lon="5.72684">
        <ele>594</ele>
        <time>2000-01-01T19:27:56.000Z</time>
      </trkpt>
      <trkpt lat="45.2051" lon="5.72667">
        <ele>593</ele>
        <time>2000-01-01T19:28:06.000Z</time>
      </trkpt>
      <trkpt lat="45.20501" lon="5.72666">
        <ele>586.7</ele>
        <time>2000-01-01T19:28:16.000Z</time>
      </trkpt>
      <trkpt lat="45.20482" lon="5.72658">
        <ele>587</ele>
        <time>2000-01-01T19:28:26.000Z</time>
      </trkpt>
      <trkpt lat="45.20466" lon="5.72646">
        <ele>584.5</ele>
        <time>2000-01-01T19:28:36.000Z</time>
      </trkpt>
      <trkpt lat="45.20437" lon="5.72634">
        <ele>588</ele>
        <time>2000-01-01T19:28:46.000Z</time>
      </trkpt>
      <trkpt lat="45.20423" lon="5.72613">
        <ele>579</ele>
        <time>2000-01-01T19:28:56.000Z</time>
      </trkpt>
      <trkpt lat="45.20426" lon="5.72637">
        <ele>576.2</ele>
        <time>2000-01-01T19:29:06.000Z</time>
      </trkpt>
      <trkpt lat="45.20435" lon="5.72662">
        <ele>571</ele>
        <time>2000-01-01T19:29:16.000Z</time>
      </trkpt>
      <trkpt lat="45.20468" lon="5.72697">
        <ele>564</ele>
        <time>2000-01-01T19:29:26.000Z</time>
      </trkpt>
      <trkpt lat="45.20478" lon="5.72703">
        <ele>563.4</ele>
        <time>2000-01-01T19:29:36.000Z</time>
      </trkpt>
      <trkpt lat="45.20487" lon="5.72713">
        <ele>562</ele>
        <time>2000-01-01T19:29:46.000Z</time>
      </trkpt>
      <trkpt lat="45.20509" lon="5.72726">
        <ele>561</ele>
        <time>2000-01-01T19:29:56.000Z</time>
      </trkpt>
      <trkpt lat="45.20526" lon="5.72746">
        <ele>560</ele>
        <time>2000-01-01T19:30:06.000Z</time>
      </trkpt>
      <trkpt lat="45.20512" lon="5.72733">
        <ele>561.3</ele>
        <time>2000-01-01T19:30:16.000Z</time>
      </trkpt>
      <trkpt lat="45.20482" lon="5.72717">
        <ele>560</ele>
        <time>2000-01-01T19:30:26.000Z</time>
      </trkpt>
      <trkpt lat="45.20474" lon="5.72714">
        <ele>557.7</ele>
        <time>2000-01-01T19:30:36.000Z</time>
      </trkpt>
      <trkpt lat="45.20453" lon="5.72715">
        <ele>553</ele>
        <time>2000-01-01T19:30:46.000Z</time>
      </trkpt>
      <trkpt lat="45.20436" lon="5.72707">
        <ele>551.5</ele>
        <time>2000-01-01T19:30:56.000Z</time>
      </trkpt>
      <trkpt lat="45.20429" lon="5.72696">
        <ele>553</ele>
        <time>2000-01-01T19:31:06.000Z</time>
      </trkpt>
      <trkpt lat="45.20398" lon="5.72672">
        <ele>543</ele>
        <time>2000-01-01T19:31:16.000Z</time>
      </trkpt>
      <trkpt lat="45.2038" lon="5.72651">
        <ele>542</ele>
        <time>2000-01-01T19:31:26.000Z</time>
      </trkpt>
      <trkpt lat="45.20361" lon="5.72634">
        <ele>541</ele>
        <time>2000-01-01T19:31:36.000Z</time>
      </trkpt>
      <trkpt lat="45.20332" lon="5.72614">
        <ele>534</ele>
        <time>2000-01-01T19:31:46.000Z</time>
      </trkpt>
      <trkpt lat="45.20327" lon="5.72614">
        <ele>532.3</ele>
        <time>2000-01-01T19:31:56.000Z</time>
      </trkpt>
      <trkpt lat="45.20309" lon="5.72604">
        <ele>529</ele>
        <time>2000-01-01T19:32:06.000Z</time>
      </trkpt>
      <trkpt lat="45.20285" lon="5.72604">
        <ele>526</ele>
        <time>2000-01-01T19:32:16.000Z</time>
      </trkpt>
      <trkpt lat="45.20266" lon="5.72609">
        <ele>524</ele>
        <time>2000-01-01T19:32:26.000Z</time>
      </trkpt>
      <trkpt lat="45.20248" lon="5.72608">
        <ele>520.4</ele>
        <time>2000-01-01T19:32:36.000Z</time>
      </trkpt>
      <trkpt lat="45.2023" lon="5.72598">
        <ele>516</ele>
        <time>2000-01-01T19:32:46.000Z</time>
      </trkpt>
      <trkpt lat="45.20218" lon="5.72595">
        <ele>515.2</ele>
        <time>2000-01-01T19:32:56.000Z</time>
      </trkpt>
      <trkpt lat="45.20197" lon="5.72579">
        <ele>513</ele>
        <time>2000-01-01T19:33:06.000Z</time>
      </trkpt>
      <trkpt lat="45.20169" lon="5.72563">
        <ele>504</ele>
        <time>2000-01-01T19:33:16.000Z</time>
      </trkpt>
      <trkpt lat="45.20136" lon="5.72554">
        <ele>501</ele>
        <time>2000-01-01T19:33:26.000Z</time>
      </trkpt>
      <trkpt lat="45.20118" lon="5.72545">
        <ele>497</ele>
        <time>2000-01-01T19:33:36.000Z</time>
      </trkpt>
      <trkpt lat="45.20112" lon="5.72536">
        <ele>499.8</ele>
        <time>2000-01-01T19:33:46.000Z</time>
      </trkpt>
      <trkpt lat="45.20097" lon="5.72542">
        <ele>493</ele>
        <time>2000-01-01T19:33:56.000Z</time>
      </trkpt>
      <trkpt lat="45.20083" lon="5.72542">
        <ele>491.9</ele>
        <time>2000-01-01T19:34:06.000Z</time>
      </trkpt>
      <trkpt lat="45.20073" lon="5.72527">
        <ele>490</ele>
        <time>2000-01-01T19:34:16.000Z</time>
      </trkpt>
      <trkpt lat="45.20072" lon="5.72512">
        <ele>491.4</ele>
        <time>2000-01-01T19:34:26.000Z</time>
      </trkpt>
      <trkpt lat="45.20078" lon="5.72483">
        <ele>488</ele>
        <time>2000-01-01T19:34:36.000Z</time>
      </trkpt>
      <trkpt lat="45.20075" lon="5.72451">
        <ele>487</ele>
        <time>2000-01-01T19:34:46.000Z</time>
      </trkpt>
      <trkpt lat="45.2007" lon="5.72436">
        <ele>484.7</ele>
        <time>2000-01-01T19:34:56.000Z</time>
      </trkpt>
      <trkpt lat="45.20061" lon="5.7243">
        <ele>484</ele>
        <time>2000-01-01T19:35:06.000Z</time>
      </trkpt>
      <trkpt lat="45.20034" lon="5.72427">
        <ele>477</ele>
        <time>2000-01-01T19:35:16.000Z</time>
      </trkpt>
      <trkpt lat="45.19996" lon="5.72423">
        <ele>473</ele>
        <time>2000-01-01T19:35:26.000Z</time>
      </trkpt>
      <trkpt lat="45.19971" lon="5.72424">
        <ele>473</ele>
        <time>2000-01-01T19:35:36.000Z</time>
      </trkpt>
      <trkpt lat="45.19943" lon="5.72426">
        <ele>473</ele>
        <time>2000-01-01T19:35:46.000Z</time>
      </trkpt>
      <trkpt lat="45.19931" lon="5.72427">
        <ele>474.4</ele>
        <time>2000-01-01T19:35:56.000Z</time>
      </trkpt>
      <trkpt lat="45.19903" lon="5.72442">
        <ele>474</ele>
        <time>2000-01-01T19:36:06.000Z</time>
      </trkpt>
      <trkpt lat="45.19896" lon="5.7245">
        <ele>479.6</ele>
        <time>2000-01-01T19:36:16.000Z</time>
      </trkpt>
      <trkpt lat="45.19895" lon="5.72479">
        <ele>476</ele>
        <time>2000-01-01T19:36:26.000Z</time>
      </trkpt>
      <trkpt lat="45.19888" lon="5.72486">
        <ele>489.1</ele>
        <time>2000-01-01T19:36:36.000Z</time>
      </trkpt>
      <trkpt lat="45.19877" lon="5.72492">
        <ele>476</ele>
        <time>2000-01-01T19:36:46.000Z</time>
      </trkpt>
      <trkpt lat="45.19866" lon="5.72504">
        <ele>479.2</ele>
        <time>2000-01-01T19:36:56.000Z</time>
      </trkpt>
      <trkpt lat="45.19864" lon="5.72519">
        <ele>474</ele>
        <time>2000-01-01T19:37:06.000Z</time>
      </trkpt>
      <trkpt lat="45.19865" lon="5.72551">
        <ele>474</ele>
        <time>2000-01-01T19:37:16.000Z</time>
      </trkpt>
      <trkpt lat="45.19862" lon="5.72551">
        <ele>474.2</ele>
        <time>2000-01-01T19:37:26.000Z</time>
      </trkpt>
      <trkpt lat="45.1986" lon="5.72545">
        <ele>474.3</ele>
        <time>2000-01-01T19:37:36.000Z</time>
      </trkpt>
      <trkpt lat="45.1986" lon="5.72524">
        <ele>468</ele>
        <time>2000-01-01T19:37:46.000Z</time>
      </trkpt>
      <trkpt lat="45.19856" lon="5.72511">
        <ele>474.5</ele>
        <time>2000-01-01T19:37:56.000Z</time>
      </trkpt>
      <trkpt lat="45.19846" lon="5.72442">
        <ele>463</ele>
        <time>2000-01-01T19:38:06.000Z</time>
      </trkpt>
      <trkpt lat="45.19844" lon="5.72441">
        <ele>465.7</ele>
        <time>2000-01-01T19:38:16.000Z</time>
      </trkpt>
      <trkpt lat="45.19838" lon="5.72449">
        <ele>463</ele>
        <time>2000-01-01T19:38:26.000Z</time>
      </trkpt>
      <trkpt lat="45.19837" lon="5.72467">
        <ele>454</ele>
        <time>2000-01-01T19:38:36.000Z</time>
      </trkpt>
      <trkpt lat="45.19834" lon="5.72475">
        <ele>460.6</ele>
        <time>2000-01-01T19:38:46.000Z</time>
      </trkpt>
      <trkpt lat="45.19828" lon="5.72546">
        <ele>454</ele>
        <time>2000-01-01T19:38:56.000Z</time>
      </trkpt>
      <trkpt lat="45.19834" lon="5.72604">
        <ele>453</ele>
        <time>2000-01-01T19:39:06.000Z</time>
      </trkpt>
      <trkpt lat="45.19849" lon="5.7264">
        <ele>452</ele>
        <time>2000-01-01T19:39:16.000Z</time>
      </trkpt>
      <trkpt lat="45.19851" lon="5.72657">
        <ele>450.2</ele>
        <time>2000-01-01T19:39:26.000Z</time>
      </trkpt>
      <trkpt lat="45.19861" lon="5.72681">
        <ele>444</ele>
        <time>2000-01-01T19:39:36.000Z</time>
      </trkpt>
      <trkpt lat="45.1986" lon="5.72689">
        <ele>443.4</ele>
        <time>2000-01-01T19:39:46.000Z</time>
      </trkpt>
      <trkpt lat="45.19895" lon="5.72772">
        <ele>427</ele>
        <time>2000-01-01T19:39:56.000Z</time>
      </trkpt>
      <trkpt lat="45.19886" lon="5.7276">
        <ele>409.4</ele>
        <time>2000-01-01T19:40:06.000Z</time>
      </trkpt>
      <trkpt lat="45.19866" lon="5.72765">
        <ele>423</ele>
        <time>2000-01-01T19:40:16.000Z</time>
      </trkpt>
      <trkpt lat="45.19842" lon="5.72749">
        <ele>419</ele>
        <time>2000-01-01T19:40:26.000Z</time>
      </trkpt>
      <trkpt lat="45.1982" lon="5.7274">
        <ele>390</ele>
        <time>2000-01-01T19:40:36.000Z</time>
      </trkpt>
      <trkpt lat="45.19798" lon="5.72724">
        <ele>385</ele>
        <time>2000-01-01T19:40:46.000Z</time>
      </trkpt>
      <trkpt lat="45.19795" lon="5.72725">
        <ele>386.8</ele>
        <time>2000-01-01T19:40:56.000Z</time>
      </trkpt>
      <trkpt lat="45.19794" lon="5.7273">
        <ele>383.5</ele>
        <time>2000-01-01T19:41:06.000Z</time>
      </trkpt>
      <trkpt lat="45.19799" lon="5.72739">
        <ele>381.1</ele>
        <time>2000-01-01T19:41:16.000Z</time>
      </trkpt>
      <trkpt lat="45.19807" lon="5.72746">
        <ele>378</ele>
        <time>2000-01-01T19:41:26.000Z</time>
      </trkpt>
      <trkpt lat="45.19821" lon="5.7277">
        <ele>376</ele>
        <time>2000-01-01T19:41:36.000Z</time>
      </trkpt>
      <trkpt lat="45.19838" lon="5.72791">
        <ele>374</ele>
        <time>2000-01-01T19:41:46.000Z</time>
      </trkpt>
      <trkpt lat="45.19848" lon="5.72798">
        <ele>377</ele>
        <time>2000-01-01T19:41:56.000Z</time>
      </trkpt>
      <trkpt lat="45.19843" lon="5.72801">
        <ele>372.1</ele>
        <time>2000-01-01T19:42:06.000Z</time>
      </trkpt>
      <trkpt lat="45.19824" lon="5.72788">
        <ele>372</ele>
        <time>2000-01-01T19:42:16.000Z</time>
      </trkpt>
      <trkpt lat="45.19818" lon="5.7278">
        <ele>370.7</ele>
        <time>2000-01-01T19:42:26.000Z</time>
      </trkpt>
      <trkpt lat="45.19808" lon="5.72775">
        <ele>368.4</ele>
        <time>2000-01-01T19:42:36.000Z</time>
      </trkpt>
      <trkpt lat="45.19803" lon="5.72774">
        <ele>363</ele>
        <time>2000-01-01T19:42:46.000Z</time>
      </trkpt>
      <trkpt lat="45.198" lon="5.72778">
        <ele>363.3</ele>
        <time>2000-01-01T19:42:56.000Z</time>
      </trkpt>
      <trkpt lat="45.19829" lon="5.72803">
        <ele>359</ele>
        <time>2000-01-01T19:43:06.000Z</time>
      </trkpt>
      <trkpt lat="45.19848" lon="5.72825">
        <ele>359</ele>
        <time>2000-01-01T19:43:16.000Z</time>
      </trkpt>
      <trkpt lat="45.19846" lon="5.72826">
        <ele>361.2</ele>
        <time>2000-01-01T19:43:26.000Z</time>
      </trkpt>
      <trkpt lat="45.19834" lon="5.72815">
        <ele>359.6</ele>
        <time>2000-01-01T19:43:36.000Z</time>
      </trkpt>
      <trkpt lat="45.19821" lon="5.72809">
        <ele>359</ele>
        <time>2000-01-01T19:43:46.000Z</time>
      </trkpt>
      <trkpt lat="45.19822" lon="5.72814">
        <ele>355.4</ele>
        <time>2000-01-01T19:43:56.000Z</time>
      </trkpt>
      <trkpt lat="45.19835" lon="5.72826">
        <ele>353</ele>
        <time>2000-01-01T19:44:06.000Z</time>
      </trkpt>
      <trkpt lat="45.19836" lon="5.72832">
        <ele>352.3</ele>
        <time>2000-01-01T19:44:16.000Z</time>
      </trkpt>
      <trkpt lat="45.19834" lon="5.72833">
        <ele>350.6</ele>
        <time>2000-01-01T19:44:26.000Z</time>
      </trkpt>
      <trkpt lat="45.19815" lon="5.72821">
        <ele>349</ele>
        <time>2000-01-01T19:44:36.000Z</time>
      </trkpt>
      <trkpt lat="45.19797" lon="5.72804">
        <ele>346</ele>
        <time>2000-01-01T19:44:46.000Z</time>
      </trkpt>
      <trkpt lat="45.19798" lon="5.72811">
        <ele>347.2</ele>
        <time>2000-01-01T19:44:56.000Z</time>
      </trkpt>
      <trkpt lat="45.19808" lon="5.72822">
        <ele>346.2</ele>
        <time>2000-01-01T19:45:06.000Z</time>
      </trkpt>
      <trkpt lat="45.19812" lon="5.72831">
        <ele>342</ele>
        <time>2000-01-01T19:45:16.000Z</time>
      </trkpt>
      <trkpt lat="45.19825" lon="5.72841">
        <ele>344.1</ele>
        <time>2000-01-01T19:45:26.000Z</time>
      </trkpt>
      <trkpt lat="45.19826" lon="5.72844">
        <ele>343.3</ele>
        <time>2000-01-01T19:45:36.000Z</time>
      </trkpt>
      <trkpt lat="45.19824" lon="5.72844">
        <ele>340</ele>
        <time>2000-01-01T19:45:46.000Z</time>
      </trkpt>
      <trkpt lat="45.19794" lon="5.7282">
        <ele>340</ele>
        <time>2000-01-01T19:45:56.000Z</time>
      </trkpt>
      <trkpt lat="45.19777" lon="5.72814">
        <ele>337</ele>
        <time>2000-01-01T19:46:06.000Z</time>
      </trkpt>
      <trkpt lat="45.19767" lon="5.72807">
        <ele>333</ele>
        <time>2000-01-01T19:46:16.000Z</time>
      </trkpt>
      <trkpt lat="45.1976" lon="5.72796">
        <ele>337.9</ele>
        <time>2000-01-01T19:46:26.000Z</time>
      </trkpt>
      <trkpt lat="45.19759" lon="5.72806">
        <ele>333.4</ele>
        <time>2000-01-01T19:46:36.000Z</time>
      </trkpt>
      <trkpt lat="45.19765" lon="5.72819">
        <ele>331</ele>
        <time>2000-01-01T19:46:46.000Z</time>
      </trkpt>
      <trkpt lat="45.19783" lon="5.72842">
        <ele>326</ele>
        <time>2000-01-01T19:46:56.000Z</time>
      </trkpt>
      <trkpt lat="45.19792" lon="5.72847">
        <ele>328.7</ele>
        <time>2000-01-01T19:47:06.000Z</time>
      </trkpt>
      <trkpt lat="45.19805" lon="5.72867">
        <ele>324</ele>
        <time>2000-01-01T19:47:16.000Z</time>
      </trkpt>
      <trkpt lat="45.19806" lon="5.72876">
        <ele>322.8</ele>
        <time>2000-01-01T19:47:26.000Z</time>
      </trkpt>
      <trkpt lat="45.19803" lon="5.72881">
        <ele>319.8</ele>
        <time>2000-01-01T19:47:36.000Z</time>
      </trkpt>
      <trkpt lat="45.19803" lon="5.72876">
        <ele>321.6</ele>
        <time>2000-01-01T19:47:46.000Z</time>
      </trkpt>
      <trkpt lat="45.19797" lon="5.72868">
        <ele>321</ele>
        <time>2000-01-01T19:47:56.000Z</time>
      </trkpt>
      <trkpt lat="45.19774" lon="5.72855">
        <ele>318</ele>
        <time>2000-01-01T19:48:06.000Z</time>
      </trkpt>
      <trkpt lat="45.19749" lon="5.7283">
        <ele>312</ele>
        <time>2000-01-01T19:48:16.000Z</time>
      </trkpt>
      <trkpt lat="45.1975" lon="5.72838">
        <ele>315.3</ele>
        <time>2000-01-01T19:48:26.000Z</time>
      </trkpt>
      <trkpt lat="45.19765" lon="5.72864">
        <ele>309</ele>
        <time>2000-01-01T19:48:36.000Z</time>
      </trkpt>
      <trkpt lat="45.1977" lon="5.72878">
        <ele>307.9</ele>
        <time>2000-01-01T19:48:46.000Z</time>
      </trkpt>
      <trkpt lat="45.19796" lon="5.72917">
        <ele>303</ele>
        <time>2000-01-01T19:48:56.000Z</time>
      </trkpt>
      <trkpt lat="45.19764" lon="5.72894">
        <ele>298</ele>
        <time>2000-01-01T19:49:06.000Z</time>
      </trkpt>
      <trkpt lat="45.19744" lon="5.72884">
        <ele>296</ele>
        <time>2000-01-01T19:49:16.000Z</time>
      </trkpt>
      <trkpt lat="45.19724" lon="5.7287">
        <ele>295</ele>
        <time>2000-01-01T19:49:26.000Z</time>
      </trkpt>
      <trkpt lat="45.19696" lon="5.72844">
        <ele>289</ele>
        <time>2000-01-01T19:49:36.000Z</time>
      </trkpt>
      <trkpt lat="45.19712" lon="5.72891">
        <ele>281</ele>
        <time>2000-01-01T19:49:46.000Z</time>
      </trkpt>
      <trkpt lat="45.1973" lon="5.72927">
        <ele>277</ele>
        <time>2000-01-01T19:49:56.000Z</time>
      </trkpt>
      <trkpt lat="45.1974" lon="5.72938">
        <ele>278.7</ele>
        <time>2000-01-01T19:50:06.000Z</time>
      </trkpt>
      <trkpt lat="45.19746" lon="5.72953">
        <ele>276</ele>
        <time>2000-01-01T19:50:16.000Z</time>
      </trkpt>
      <trkpt lat="45.19763" lon="5.7297">
        <ele>275</ele>
        <time>2000-01-01T19:50:26.000Z</time>
      </trkpt>
      <trkpt lat="45.19766" lon="5.72981">
        <ele>273.2</ele>
        <time>2000-01-01T19:50:36.000Z</time>
      </trkpt>
      <trkpt lat="45.19786" lon="5.72999">
        <ele>274</ele>
        <time>2000-01-01T19:50:46.000Z</time>
      </trkpt>
      <trkpt lat="45.1981" lon="5.73012">
        <ele>274</ele>
        <time>2000-01-01T19:50:56.000Z</time>
      </trkpt>
      <trkpt lat="45.19797" lon="5.73011">
        <ele>269.8</ele>
        <time>2000-01-01T19:51:06.000Z</time>
      </trkpt>
      <trkpt lat="45.19776" lon="5.73003">
        <ele>267</ele>
        <time>2000-01-01T19:51:16.000Z</time>
      </trkpt>
      <trkpt lat="45.19771" lon="5.73006">
        <ele>265.6</ele>
        <time>2000-01-01T19:51:26.000Z</time>
      </trkpt>
      <trkpt lat="45.19788" lon="5.73022">
        <ele>260</ele>
        <time>2000-01-01T19:51:36.000Z</time>
      </trkpt>
      <trkpt lat="45.19799" lon="5.73029">
        <ele>262</ele>
        <time>2000-01-01T19:51:46.000Z</time>
      </trkpt>
      <trkpt lat="45.19806" lon="5.73039">
        <ele>259</ele>
        <time>2000-01-01T19:51:56.000Z</time>
      </trkpt>
      <trkpt lat="45.19784" lon="5.7303">
        <ele>258</ele>
        <time>2000-01-01T19:52:06.000Z</time>
      </trkpt>
      <trkpt lat="45.19764" lon="5.73025">
        <ele>257</ele>
        <time>2000-01-01T19:52:16.000Z</time>
      </trkpt>
      <trkpt lat="45.19762" lon="5.73029">
        <ele>252.9</ele>
        <time>2000-01-01T19:52:26.000Z</time>
      </trkpt>
      <trkpt lat="45.19778" lon="5.73043">
        <ele>255</ele>
        <time>2000-01-01T19:52:36.000Z</time>
      </trkpt>
      <trkpt lat="45.19797" lon="5.73049">
        <ele>253</ele>
        <time>2000-01-01T19:52:46.000Z</time>
      </trkpt>
      <trkpt lat="45.19799" lon="5.73052">
        <ele>251.7</ele>
        <time>2000-01-01T19:52:56.000Z</time>
      </trkpt>
      <trkpt lat="45.19796" lon="5.73055">
        <ele>249.5</ele>
        <time>2000-01-01T19:53:06.000Z</time>
      </trkpt>
      <trkpt lat="45.19772" lon="5.73047">
        <ele>248</ele>
        <time>2000-01-01T19:53:16.000Z</time>
      </trkpt>
      <trkpt lat="45.19758" lon="5.73046">
        <ele>244.1</ele>
        <time>2000-01-01T19:53:26.000Z</time>
      </trkpt>
      <trkpt lat="45.19753" lon="5.73051">
        <ele>245</ele>
        <time>2000-01-01T19:53:36.000Z</time>
      </trkpt>
      <trkpt lat="45.19755" lon="5.73056">
        <ele>238.9</ele>
        <time>2000-01-01T19:53:46.000Z</time>
      </trkpt>
      <trkpt lat="45.19764" lon="5.73058">
        <ele>240</ele>
        <time>2000-01-01T19:53:56.000Z</time>
      </trkpt>
      <trkpt lat="45.19781" lon="5.73069">
        <ele>242</ele>
        <time>2000-01-01T19:54:06.000Z</time>
      </trkpt>
      <trkpt lat="45.19804" lon="5.73089">
        <ele>236</ele>
        <time>2000-01-01T19:54:16.000Z</time>
      </trkpt>
      <trkpt lat="45.19772" lon="5.73085">
        <ele>230</ele>
        <time>2000-01-01T19:54:26.000Z</time>
      </trkpt>
      <trkpt lat="45.19762" lon="5.73087">
        <ele>228.7</ele>
        <time>2000-01-01T19:54:36.000Z</time>
      </trkpt>
      <trkpt lat="45.19762" lon="5.73091">
        <ele>228</ele>
        <time>2000-01-01T19:54:46.000Z</time>
      </trkpt>
      <trkpt lat="45.19779" lon="5.73103">
        <ele>230</ele>
        <time>2000-01-01T19:54:56.000Z</time>
      </trkpt>
      <trkpt lat="45.19811" lon="5.73118">
        <ele>225</ele>
        <time>2000-01-01T19:55:06.000Z</time>
      </trkpt>
      <trkpt lat="45.19804" lon="5.73123">
        <ele>224.9</ele>
        <time>2000-01-01T19:55:16.000Z</time>
      </trkpt>
      <trkpt lat="45.19792" lon="5.73125">
        <ele>221</ele>
        <time>2000-01-01T19:55:26.000Z</time>
      </trkpt>
      <trkpt lat="45.19784" lon="5.73136">
        <ele>218.9</ele>
        <time>2000-01-01T19:55:36.000Z</time>
      </trkpt>
      <trkpt lat="45.1978" lon="5.73152">
        <ele>216</ele>
        <time>2000-01-01T19:55:46.000Z</time>
      </trkpt>
      <trkpt lat="45.1978" lon="5.73166">
        <ele>214.1</ele>
        <time>2000-01-01T19:55:56.000Z</time>
      </trkpt>
      <trkpt lat="45.19775" lon="5.7318">
        <ele>212</ele>
        <time>2000-01-01T19:56:06.000Z</time>
      </trkpt>
      <trkpt lat="45.19763" lon="5.73182">
        <ele>212.9</ele>
        <time>2000-01-01T19:56:16.000Z</time>
      </trkpt>
      <trkpt lat="45.19756" lon="5.73177">
        <ele>212</ele>
        <time>2000-01-01T19:56:26.000Z</time>
      </trkpt>
      <trkpt lat="45.19746" lon="5.73163">
        <ele>212.9</ele>
        <time>2000-01-01T19:56:36.000Z</time>
      </trkpt>
      <trkpt lat="45.19718" lon="5.73147">
        <ele>211</ele>
        <time>2000-01-01T19:56:46.000Z</time>
      </trkpt>
      <trkpt lat="45.19692" lon="5.73125">
        <ele>211</ele>
        <time>2000-01-01T19:56:56.000Z</time>
      </trkpt>
      <trkpt lat="45.19681" lon="5.73125">
        <ele>212</ele>
        <time>2000-01-01T19:57:06.000Z</time>
      </trkpt>
      <trkpt lat="45.19678" lon="5.73122">
        <ele>212.1</ele>
        <time>2000-01-01T19:57:16.000Z</time>
      </trkpt>
      <trkpt lat="45.19659" lon="5.73091">
        <ele>211</ele>
        <time>2000-01-01T19:57:26.000Z</time>
      </trkpt>
      <trkpt lat="45.19653" lon="5.73076">
        <ele>212.3</ele>
        <time>2000-01-01T19:57:36.000Z</time>
      </trkpt>
      <trkpt lat="45.19613" lon="5.73038">
        <ele>211</ele>
        <time>2000-01-01T19:57:46.000Z</time>
      </trkpt>
      <trkpt lat="45.19597" lon="5.73006">
        <ele>211</ele>
        <time>2000-01-01T19:57:56.000Z</time>
      </trkpt>
      <trkpt lat="45.19593" lon="5.73005">
        <ele>211.9</ele>
        <time>2000-01-01T19:58:06.000Z</time>
      </trkpt>
      <trkpt lat="45.19592" lon="5.72997">
        <ele>212</ele>
        <time>2000-01-01T19:58:16.000Z</time>
      </trkpt>
      <trkpt lat="45.19587" lon="5.72989">
        <ele>212.1</ele>
        <time>2000-01-01T19:58:26.000Z</time>
      </trkpt>
      <trkpt lat="45.1957" lon="5.72982">
        <ele>211</ele>
        <time>2000-01-01T19:58:36.000Z</time>
      </trkpt>
      <trkpt lat="45.19561" lon="5.7297">
        <ele>214.3</ele>
        <time>2000-01-01T19:58:46.000Z</time>
      </trkpt>
      <trkpt lat="45.19548" lon="5.72935">
        <ele>212</ele>
        <time>2000-01-01T19:58:56.000Z</time>
      </trkpt>
      <trkpt lat="45.19539" lon="5.72921">
        <ele>213</ele>
        <time>2000-01-01T19:59:06.000Z</time>
      </trkpt>
      <trkpt lat="45.19537" lon="5.72913">
        <ele>212</ele>
        <time>2000-01-01T19:59:16.000Z</time>
      </trkpt>
      <trkpt lat="45.19523" lon="5.72905">
        <ele>213.1</ele>
        <time>2000-01-01T19:59:26.000Z</time>
      </trkpt>
      <trkpt lat="45.19514" lon="5.72896">
        <ele>213</ele>
        <time>2000-01-01T19:59:36.000Z</time>
      </trkpt>
      <trkpt lat="45.19498" lon="5.72871">
        <ele>213</ele>
        <time>2000-01-01T19:59:46.000Z</time>
      </trkpt>
      <trkpt lat="45.19488" lon="5.72869">
        <ele>213</ele>
        <time>2000-01-01T19:59:56.000Z</time>
      </trkpt>
      <trkpt lat="45.1949" lon="5.72869">
        <ele>213.2</ele>
        <time>2000-01-01T20:00:06.000Z</time>
      </trkpt>
      <trkpt lat="45.19471" lon="5.72882">
        <ele>212</ele>
        <time>2000-01-01T20:00:16.000Z</time>
      </trkpt>
      <trkpt lat="45.19441" lon="5.72912">
        <ele>210</ele>
        <time>2000-01-01T20:00:26.000Z</time>
      </trkpt>
      <trkpt lat="45.19417" lon="5.7294">
        <ele>211</ele>
        <time>2000-01-01T20:00:36.000Z</time>
      </trkpt>
      <trkpt lat="45.19397" lon="5.72959">
        <ele>212</ele>
        <time>2000-01-01T20:00:46.000Z</time>
      </trkpt>
      <trkpt lat="45.19375" lon="5.7298">
        <ele>212</ele>
        <time>2000-01-01T20:00:56.000Z</time>
      </trkpt>
      <trkpt lat="45.19357" lon="5.72993">
        <ele>212</ele>
        <time>2000-01-01T20:01:06.000Z</time>
      </trkpt>
      <trkpt lat="45.19331" lon="5.72987">
        <ele>212</ele>
        <time>2000-01-01T20:01:16.000Z</time>
      </trkpt>
      <trkpt lat="45.19298" lon="5.72979">
        <ele>213</ele>
        <time>2000-01-01T20:01:26.000Z</time>
      </trkpt>
      <trkpt lat="45.19304" lon="5.72937">
        <ele>213</ele>
        <time>2000-01-01T20:01:36.000Z</time>
      </trkpt>
      <trkpt lat="45.1931" lon="5.72902">
        <ele>213</ele>
        <time>2000-01-01T20:01:46.000Z</time>
      </trkpt>
      <trkpt lat="45.19316" lon="5.72863">
        <ele>213</ele>
        <time>2000-01-01T20:01:56.000Z</time>
      </trkpt>
      <trkpt lat="45.19295" lon="5.72861">
        <ele>213</ele>
        <time>2000-01-01T20:02:06.000Z</time>
      </trkpt>
      <trkpt lat="45.19286" lon="5.72873">
        <ele>213</ele>
        <time>2000-01-01T20:02:16.000Z</time>
      </trkpt>
      <trkpt lat="45.19257" lon="5.7288">
        <ele>212</ele>
        <time>2000-01-01T20:02:26.000Z</time>
      </trkpt>
      <trkpt lat="45.19215" lon="5.72865">
        <ele>212</ele>
        <time>2000-01-01T20:02:36.000Z</time>
      </trkpt>
      <trkpt lat="45.19184" lon="5.72847">
        <ele>211</ele>
        <time>2000-01-01T20:02:46.000Z</time>
      </trkpt>
      <trkpt lat="45.19162" lon="5.72827">
        <ele>211</ele>
        <time>2000-01-01T20:02:56.000Z</time>
      </trkpt>
      <trkpt lat="45.19139" lon="5.72805">
        <ele>211</ele>
        <time>2000-01-01T20:03:06.000Z</time>
      </trkpt>
      <trkpt lat="45.19108" lon="5.72776">
        <ele>211</ele>
        <time>2000-01-01T20:03:16.000Z</time>
      </trkpt>
      <trkpt lat="45.19087" lon="5.72807">
        <ele>211</ele>
        <time>2000-01-01T20:03:26.000Z</time>
      </trkpt>
      <trkpt lat="45.19059" lon="5.72788">
        <ele>211</ele>
        <time>2000-01-01T20:03:36.000Z</time>
      </trkpt>
      <trkpt lat="45.19034" lon="5.7277">
        <ele>211</ele>
        <time>2000-01-01T20:03:46.000Z</time>
      </trkpt>
      <trkpt lat="45.19005" lon="5.72737">
        <ele>211</ele>
        <time>2000-01-01T20:03:56.000Z</time>
      </trkpt>
      <trkpt lat="45.18989" lon="5.72715">
        <ele>211</ele>
        <time>2000-01-01T20:04:06.000Z</time>
      </trkpt>
      <trkpt lat="45.18972" lon="5.72689">
        <ele>211</ele>
        <time>2000-01-01T20:04:16.000Z</time>
      </trkpt>
      <trkpt lat="45.18953" lon="5.7266">
        <ele>211</ele>
        <time>2000-01-01T20:04:26.000Z</time>
      </trkpt>
      <trkpt lat="45.18928" lon="5.72626">
        <ele>211</ele>
        <time>2000-01-01T20:04:36.000Z</time>
      </trkpt>
      <trkpt lat="45.18912" lon="5.72596">
        <ele>211</ele>
        <time>2000-01-01T20:04:46.000Z</time>
      </trkpt>
      <trkpt lat="45.18891" lon="5.72557">
        <ele>212</ele>
        <time>2000-01-01T20:04:56.000Z</time>
      </trkpt>
      <trkpt lat="45.18892" lon="5.72528">
        <ele>212</ele>
        <time>2000-01-01T20:05:06.000Z</time>
      </trkpt>
      <trkpt lat="45.18877" lon="5.72499">
        <ele>212</ele>
        <time>2000-01-01T20:05:16.000Z</time>
      </trkpt>
      <trkpt lat="45.18866" lon="5.72481">
        <ele>212.2</ele>
        <time>2000-01-01T20:05:26.000Z</time>
      </trkpt>
      <trkpt lat="45.18878" lon="5.7247">
        <ele>212</ele>
        <time>2000-01-01T20:05:36.000Z</time>
      </trkpt>
      <trkpt lat="45.18885" lon="5.72439">
        <ele>212</ele>
        <time>2000-01-01T20:05:46.000Z</time>
      </trkpt>
      <trkpt lat="45.18905" lon="5.72437">
        <ele>212</ele>
        <time>2000-01-01T20:05:56.000Z</time>
      </trkpt>
      <trkpt lat="45.18914" lon="5.72454">
        <ele>213</ele>
        <time>2000-01-01T20:06:06.000Z</time>
      </trkpt>
      <trkpt lat="45.18911" lon="5.72483">
        <ele>212</ele>
        <time>2000-01-01T20:06:16.000Z</time>
      </trkpt>
      <trkpt lat="45.18903" lon="5.72487">
        <ele>212</ele>
        <time>2000-01-01T20:06:26.000Z</time>
      </trkpt>
    </trkseg>
  </trk>
</gpx>